<?xml version='1.0' encoding='UTF-8'?><gpx version="1.1" creator="JPX - https://github.com/jenetics/jpx" xmlns="http://www.topografix.com/GPX/1/1"><trk><trkseg><trkpt lat="40.7244651" lon="9.6412661"><ele>79.0</ele><time>2026-04-11T08:13:44.754Z</time></trkpt><trkpt lat="40.7244525" lon="9.6413638"><ele>79.0</ele><time>2026-04-11T08:13:48.777Z</time></trkpt><trkpt lat="40.7245103" lon="9.6414779"><ele>79.0</ele><time>2026-04-11T08:18:10.702Z</time></trkpt><trkpt lat="40.7245181" lon="9.6416041"><ele>79.0</ele><time>2026-04-11T08:18:13.707Z</time></trkpt><trkpt lat="40.7245024" lon="9.6416909"><ele>79.0</ele><time>2026-04-11T08:18:15.724Z</time></trkpt><trkpt lat="40.7244822" lon="9.641787"><ele>79.0</ele><time>2026-04-11T08:18:18.694Z</time></trkpt><trkpt lat="40.7244571" lon="9.641873"><ele>78.8</ele><time>2026-04-11T08:18:21.703Z</time></trkpt><trkpt lat="40.7244311" lon="9.6419656"><ele>78.60000000000001</ele><time>2026-04-11T08:18:24.69Z</time></trkpt><trkpt lat="40.7243563" lon="9.6419858"><ele>78.4</ele><time>2026-04-11T08:18:27.692Z</time></trkpt><trkpt lat="40.7242484" lon="9.6419439"><ele>78.2</ele><time>2026-04-11T08:18:29.682Z</time></trkpt><trkpt lat="40.7241518" lon="9.6419794"><ele>78.0</ele><time>2026-04-11T08:18:31.692Z</time></trkpt><trkpt lat="40.7240829" lon="9.6421179"><ele>78.0</ele><time>2026-04-11T08:18:33.685Z</time></trkpt><trkpt lat="40.7240593" lon="9.6422246"><ele>78.0</ele><time>2026-04-11T08:18:34.675Z</time></trkpt><trkpt lat="40.7240546" lon="9.6423493"><ele>78.0</ele><time>2026-04-11T08:18:35.682Z</time></trkpt><trkpt lat="40.7240704" lon="9.6424906"><ele>78.0</ele><time>2026-04-11T08:18:36.679Z</time></trkpt><trkpt lat="40.7240956" lon="9.6426456"><ele>78.0</ele><time>2026-04-11T08:18:37.673Z</time></trkpt><trkpt lat="40.7241268" lon="9.6428082"><ele>79.5</ele><time>2026-04-11T08:18:38.678Z</time></trkpt><trkpt lat="40.7241633" lon="9.6429757"><ele>81.0</ele><time>2026-04-11T08:18:39.674Z</time></trkpt><trkpt lat="40.7241977" lon="9.6431449"><ele>82.5</ele><time>2026-04-11T08:18:40.674Z</time></trkpt><trkpt lat="40.724232" lon="9.6433102"><ele>84.0</ele><time>2026-04-11T08:18:41.677Z</time></trkpt><trkpt lat="40.7242635" lon="9.6434681"><ele>84.0</ele><time>2026-04-11T08:18:42.683Z</time></trkpt><trkpt lat="40.7242927" lon="9.6436217"><ele>84.0</ele><time>2026-04-11T08:18:43.675Z</time></trkpt><trkpt lat="40.7243211" lon="9.6437652"><ele>84.0</ele><time>2026-04-11T08:18:44.663Z</time></trkpt><trkpt lat="40.7243492" lon="9.6439001"><ele>84.0</ele><time>2026-04-11T08:18:45.769Z</time></trkpt><trkpt lat="40.7243971" lon="9.6441128"><ele>82.66666666666667</ele><time>2026-04-11T08:18:47.664Z</time></trkpt><trkpt lat="40.7244288" lon="9.644197"><ele>81.33333333333333</ele><time>2026-04-11T08:18:48.795Z</time></trkpt><trkpt lat="40.7244909" lon="9.6443081"><ele>80.0</ele><time>2026-04-11T08:18:50.828Z</time></trkpt><trkpt lat="40.7245616" lon="9.6443976"><ele>78.66666666666666</ele><time>2026-04-11T08:18:52.777Z</time></trkpt><trkpt lat="40.7246398" lon="9.6444547"><ele>77.33333333333333</ele><time>2026-04-11T08:18:54.783Z</time></trkpt><trkpt lat="40.7247101" lon="9.6445004"><ele>76.0</ele><time>2026-04-11T08:18:56.771Z</time></trkpt><trkpt lat="40.7247794" lon="9.6445488"><ele>76.0</ele><time>2026-04-11T08:18:58.782Z</time></trkpt><trkpt lat="40.7248504" lon="9.6446547"><ele>76.0</ele><time>2026-04-11T08:19:00.784Z</time></trkpt><trkpt lat="40.7248622" lon="9.6448241"><ele>76.0</ele><time>2026-04-11T08:19:02.76Z</time></trkpt><trkpt lat="40.7248697" lon="9.6449129"><ele>76.0</ele><time>2026-04-11T08:19:03.78Z</time></trkpt><trkpt lat="40.7248766" lon="9.6449973"><ele>76.0</ele><time>2026-04-11T08:19:04.757Z</time></trkpt><trkpt lat="40.724886" lon="9.6451386"><ele>76.0</ele><time>2026-04-11T08:19:06.793Z</time></trkpt><trkpt lat="40.7248931" lon="9.6452396"><ele>76.0</ele><time>2026-04-11T08:19:08.785Z</time></trkpt><trkpt lat="40.7249105" lon="9.645364"><ele>76.0</ele><time>2026-04-11T08:19:10.799Z</time></trkpt><trkpt lat="40.7249332" lon="9.6455252"><ele>76.0</ele><time>2026-04-11T08:19:12.751Z</time></trkpt><trkpt lat="40.7249474" lon="9.6456829"><ele>76.0</ele><time>2026-04-11T08:19:14.757Z</time></trkpt><trkpt lat="40.7249524" lon="9.6458283"><ele>75.83333333333333</ele><time>2026-04-11T08:19:16.764Z</time></trkpt><trkpt lat="40.7249454" lon="9.6459583"><ele>75.66666666666666</ele><time>2026-04-11T08:19:18.797Z</time></trkpt><trkpt lat="40.7249267" lon="9.6460677"><ele>75.5</ele><time>2026-04-11T08:19:20.778Z</time></trkpt><trkpt lat="40.7248732" lon="9.6461503"><ele>75.33333333333333</ele><time>2026-04-11T08:19:22.757Z</time></trkpt><trkpt lat="40.7247919" lon="9.6461561"><ele>75.16666666666667</ele><time>2026-04-11T08:19:24.751Z</time></trkpt><trkpt lat="40.724691" lon="9.6461472"><ele>75.0</ele><time>2026-04-11T08:19:26.754Z</time></trkpt><trkpt lat="40.7245706" lon="9.6461586"><ele>75.5</ele><time>2026-04-11T08:19:28.766Z</time></trkpt><trkpt lat="40.7245031" lon="9.6461596"><ele>76.0</ele><time>2026-04-11T08:19:29.752Z</time></trkpt><trkpt lat="40.7244271" lon="9.6461533"><ele>76.5</ele><time>2026-04-11T08:19:30.821Z</time></trkpt><trkpt lat="40.7243566" lon="9.6461392"><ele>77.0</ele><time>2026-04-11T08:19:31.748Z</time></trkpt><trkpt lat="40.7242486" lon="9.6461218"><ele>77.5</ele><time>2026-04-11T08:19:33.752Z</time></trkpt><trkpt lat="40.7241597" lon="9.6461314"><ele>78.0</ele><time>2026-04-11T08:19:35.734Z</time></trkpt><trkpt lat="40.724113" lon="9.6462129"><ele>79.16666666666667</ele><time>2026-04-11T08:19:37.74Z</time></trkpt><trkpt lat="40.7241107" lon="9.6463682"><ele>80.33333333333333</ele><time>2026-04-11T08:19:39.74Z</time></trkpt><trkpt lat="40.7241099" lon="9.6464627"><ele>81.5</ele><time>2026-04-11T08:19:40.734Z</time></trkpt><trkpt lat="40.7241092" lon="9.6465657"><ele>82.66666666666666</ele><time>2026-04-11T08:19:41.75Z</time></trkpt><trkpt lat="40.7241097" lon="9.6466741"><ele>83.83333333333333</ele><time>2026-04-11T08:19:42.727Z</time></trkpt><trkpt lat="40.7241068" lon="9.646782"><ele>85.0</ele><time>2026-04-11T08:19:43.764Z</time></trkpt><trkpt lat="40.7241011" lon="9.6468796"><ele>86.2</ele><time>2026-04-11T08:19:44.732Z</time></trkpt><trkpt lat="40.7240981" lon="9.6469687"><ele>87.4</ele><time>2026-04-11T08:19:45.756Z</time></trkpt><trkpt lat="40.7240972" lon="9.6471194"><ele>88.6</ele><time>2026-04-11T08:19:47.736Z</time></trkpt><trkpt lat="40.7240645" lon="9.6472452"><ele>89.8</ele><time>2026-04-11T08:19:49.722Z</time></trkpt><trkpt lat="40.7239982" lon="9.6473789"><ele>91.0</ele><time>2026-04-11T08:19:51.72Z</time></trkpt><trkpt lat="40.7239627" lon="9.6474541"><ele>91.0</ele><time>2026-04-11T08:19:52.72Z</time></trkpt><trkpt lat="40.7239239" lon="9.647534"><ele>91.0</ele><time>2026-04-11T08:19:53.723Z</time></trkpt><trkpt lat="40.7238871" lon="9.647614"><ele>91.0</ele><time>2026-04-11T08:19:54.725Z</time></trkpt><trkpt lat="40.7238525" lon="9.6476916"><ele>91.0</ele><time>2026-04-11T08:19:55.73Z</time></trkpt><trkpt lat="40.7238184" lon="9.6477656"><ele>91.0</ele><time>2026-04-11T08:19:56.729Z</time></trkpt><trkpt lat="40.7237549" lon="9.647906"><ele>91.0</ele><time>2026-04-11T08:19:58.724Z</time></trkpt><trkpt lat="40.7236821" lon="9.6480442"><ele>92.14285714285714</ele><time>2026-04-11T08:20:00.735Z</time></trkpt><trkpt lat="40.723646" lon="9.6481185"><ele>93.28571428571428</ele><time>2026-04-11T08:20:01.717Z</time></trkpt><trkpt lat="40.7236109" lon="9.6481918"><ele>94.42857142857143</ele><time>2026-04-11T08:20:02.723Z</time></trkpt><trkpt lat="40.7235751" lon="9.6482661"><ele>95.57142857142857</ele><time>2026-04-11T08:20:03.712Z</time></trkpt><trkpt lat="40.7235405" lon="9.6483389"><ele>96.71428571428571</ele><time>2026-04-11T08:20:04.717Z</time></trkpt><trkpt lat="40.7235095" lon="9.6484116"><ele>97.85714285714286</ele><time>2026-04-11T08:20:05.707Z</time></trkpt><trkpt lat="40.7234792" lon="9.6484875"><ele>99.0</ele><time>2026-04-11T08:20:06.73Z</time></trkpt><trkpt lat="40.7234498" lon="9.6485626"><ele>101.83333333333333</ele><time>2026-04-11T08:20:07.712Z</time></trkpt><trkpt lat="40.7234252" lon="9.6486453"><ele>104.66666666666666</ele><time>2026-04-11T08:20:08.697Z</time></trkpt><trkpt lat="40.7234054" lon="9.6487348"><ele>107.5</ele><time>2026-04-11T08:20:09.718Z</time></trkpt><trkpt lat="40.7233899" lon="9.6488229"><ele>110.33333333333333</ele><time>2026-04-11T08:20:10.703Z</time></trkpt><trkpt lat="40.7233765" lon="9.6489136"><ele>113.16666666666666</ele><time>2026-04-11T08:20:11.696Z</time></trkpt><trkpt lat="40.7233622" lon="9.6490039"><ele>116.0</ele><time>2026-04-11T08:20:12.704Z</time></trkpt><trkpt lat="40.7233315" lon="9.6491564"><ele>116.0</ele><time>2026-04-11T08:20:14.709Z</time></trkpt><trkpt lat="40.7232938" lon="9.6492948"><ele>116.0</ele><time>2026-04-11T08:20:16.698Z</time></trkpt><trkpt lat="40.7232525" lon="9.6494286"><ele>116.0</ele><time>2026-04-11T08:20:18.713Z</time></trkpt><trkpt lat="40.7232068" lon="9.6495785"><ele>116.0</ele><time>2026-04-11T08:20:20.727Z</time></trkpt><trkpt lat="40.7231877" lon="9.6496646"><ele>116.0</ele><time>2026-04-11T08:20:21.702Z</time></trkpt><trkpt lat="40.7231713" lon="9.6497555"><ele>117.85714285714288</ele><time>2026-04-11T08:20:22.695Z</time></trkpt><trkpt lat="40.7231554" lon="9.6498456"><ele>119.71428571428572</ele><time>2026-04-11T08:20:23.698Z</time></trkpt><trkpt lat="40.7231374" lon="9.6499373"><ele>121.57142857142857</ele><time>2026-04-11T08:20:24.692Z</time></trkpt><trkpt lat="40.7231189" lon="9.6500306"><ele>123.42857142857143</ele><time>2026-04-11T08:20:25.691Z</time></trkpt><trkpt lat="40.7231036" lon="9.6501248"><ele>125.28571428571428</ele><time>2026-04-11T08:20:26.69Z</time></trkpt><trkpt lat="40.7230875" lon="9.650211"><ele>127.14285714285712</ele><time>2026-04-11T08:20:27.713Z</time></trkpt><trkpt lat="40.7230701" lon="9.6502985"><ele>129.0</ele><time>2026-04-11T08:20:28.701Z</time></trkpt><trkpt lat="40.7230539" lon="9.6503878"><ele>130.57142857142856</ele><time>2026-04-11T08:20:29.71Z</time></trkpt><trkpt lat="40.7230377" lon="9.6504852"><ele>132.14285714285714</ele><time>2026-04-11T08:20:30.702Z</time></trkpt><trkpt lat="40.7230186" lon="9.6505827"><ele>133.71428571428572</ele><time>2026-04-11T08:20:31.703Z</time></trkpt><trkpt lat="40.7230044" lon="9.6506774"><ele>135.28571428571428</ele><time>2026-04-11T08:20:32.701Z</time></trkpt><trkpt lat="40.7229894" lon="9.6507735"><ele>136.85714285714286</ele><time>2026-04-11T08:20:33.683Z</time></trkpt><trkpt lat="40.7229751" lon="9.6508673"><ele>138.42857142857142</ele><time>2026-04-11T08:20:34.691Z</time></trkpt><trkpt lat="40.7229666" lon="9.6509597"><ele>140.0</ele><time>2026-04-11T08:20:35.69Z</time></trkpt><trkpt lat="40.7229532" lon="9.6510494"><ele>141.85714285714286</ele><time>2026-04-11T08:20:36.684Z</time></trkpt><trkpt lat="40.7229328" lon="9.6511354"><ele>143.71428571428572</ele><time>2026-04-11T08:20:37.673Z</time></trkpt><trkpt lat="40.7229032" lon="9.6512163"><ele>145.57142857142856</ele><time>2026-04-11T08:20:38.68Z</time></trkpt><trkpt lat="40.7228669" lon="9.6512952"><ele>147.42857142857144</ele><time>2026-04-11T08:20:39.681Z</time></trkpt><trkpt lat="40.7228189" lon="9.6513672"><ele>149.28571428571428</ele><time>2026-04-11T08:20:40.705Z</time></trkpt><trkpt lat="40.7227681" lon="9.6514405"><ele>151.14285714285714</ele><time>2026-04-11T08:20:41.704Z</time></trkpt><trkpt lat="40.7227169" lon="9.6515124"><ele>153.0</ele><time>2026-04-11T08:20:42.685Z</time></trkpt><trkpt lat="40.7226687" lon="9.6515817"><ele>152.5</ele><time>2026-04-11T08:20:43.7Z</time></trkpt><trkpt lat="40.7225749" lon="9.6516952"><ele>152.0</ele><time>2026-04-11T08:20:45.686Z</time></trkpt><trkpt lat="40.7224853" lon="9.6518006"><ele>151.5</ele><time>2026-04-11T08:20:47.68Z</time></trkpt><trkpt lat="40.7224018" lon="9.6519018"><ele>151.0</ele><time>2026-04-11T08:20:49.69Z</time></trkpt><trkpt lat="40.7223437" lon="9.6520274"><ele>151.0</ele><time>2026-04-11T08:20:51.683Z</time></trkpt><trkpt lat="40.7222999" lon="9.6521285"><ele>151.0</ele><time>2026-04-11T08:20:53.675Z</time></trkpt><trkpt lat="40.7222406" lon="9.6522176"><ele>151.0</ele><time>2026-04-11T08:20:55.69Z</time></trkpt><trkpt lat="40.7221671" lon="9.6522963"><ele>151.0</ele><time>2026-04-11T08:20:57.786Z</time></trkpt><trkpt lat="40.7220808" lon="9.6523537"><ele>151.0</ele><time>2026-04-11T08:20:59.691Z</time></trkpt><trkpt lat="40.7220076" lon="9.6524002"><ele>151.0</ele><time>2026-04-11T08:21:01.773Z</time></trkpt><trkpt lat="40.7219408" lon="9.6524324"><ele>151.0</ele><time>2026-04-11T08:21:03.772Z</time></trkpt><trkpt lat="40.7218756" lon="9.6524557"><ele>151.0</ele><time>2026-04-11T08:21:05.771Z</time></trkpt><trkpt lat="40.721802" lon="9.6524533"><ele>151.0</ele><time>2026-04-11T08:21:07.774Z</time></trkpt><trkpt lat="40.7217174" lon="9.6524437"><ele>151.0</ele><time>2026-04-11T08:21:09.765Z</time></trkpt><trkpt lat="40.721621" lon="9.6524311"><ele>151.0</ele><time>2026-04-11T08:21:11.785Z</time></trkpt><trkpt lat="40.7215218" lon="9.6524353"><ele>150.71428571428572</ele><time>2026-04-11T08:21:13.772Z</time></trkpt><trkpt lat="40.7214404" lon="9.6524622"><ele>150.42857142857144</ele><time>2026-04-11T08:21:15.798Z</time></trkpt><trkpt lat="40.7213748" lon="9.6524997"><ele>150.14285714285714</ele><time>2026-04-11T08:21:17.788Z</time></trkpt><trkpt lat="40.7213134" lon="9.652535"><ele>149.85714285714286</ele><time>2026-04-11T08:21:19.752Z</time></trkpt><trkpt lat="40.721242" lon="9.6525771"><ele>149.57142857142856</ele><time>2026-04-11T08:21:21.764Z</time></trkpt><trkpt lat="40.7211731" lon="9.6526114"><ele>149.28571428571428</ele><time>2026-04-11T08:21:23.764Z</time></trkpt><trkpt lat="40.7211062" lon="9.6526424"><ele>149.0</ele><time>2026-04-11T08:21:25.766Z</time></trkpt><trkpt lat="40.7210331" lon="9.6526625"><ele>148.14285714285714</ele><time>2026-04-11T08:21:27.744Z</time></trkpt><trkpt lat="40.720952" lon="9.6526662"><ele>147.28571428571428</ele><time>2026-04-11T08:21:29.765Z</time></trkpt><trkpt lat="40.7208729" lon="9.6526624"><ele>146.42857142857142</ele><time>2026-04-11T08:21:31.744Z</time></trkpt><trkpt lat="40.7208099" lon="9.6526512"><ele>145.57142857142856</ele><time>2026-04-11T08:21:33.752Z</time></trkpt><trkpt lat="40.7207428" lon="9.6526259"><ele>144.71428571428572</ele><time>2026-04-11T08:21:35.738Z</time></trkpt><trkpt lat="40.72068" lon="9.6525779"><ele>143.85714285714283</ele><time>2026-04-11T08:21:37.765Z</time></trkpt><trkpt lat="40.7206171" lon="9.6525108"><ele>143.0</ele><time>2026-04-11T08:21:39.736Z</time></trkpt><trkpt lat="40.7205401" lon="9.6524475"><ele>143.0</ele><time>2026-04-11T08:21:41.747Z</time></trkpt><trkpt lat="40.7204477" lon="9.6523881"><ele>143.0</ele><time>2026-04-11T08:21:43.723Z</time></trkpt><trkpt lat="40.7203471" lon="9.6523663"><ele>143.0</ele><time>2026-04-11T08:21:45.748Z</time></trkpt><trkpt lat="40.7202569" lon="9.6523584"><ele>143.0</ele><time>2026-04-11T08:21:47.73Z</time></trkpt><trkpt lat="40.7201656" lon="9.6523523"><ele>143.0</ele><time>2026-04-11T08:21:49.714Z</time></trkpt><trkpt lat="40.7200509" lon="9.6523614"><ele>139.6</ele><time>2026-04-11T08:21:51.711Z</time></trkpt><trkpt lat="40.7199397" lon="9.6523738"><ele>136.20000000000002</ele><time>2026-04-11T08:21:53.712Z</time></trkpt><trkpt lat="40.7198379" lon="9.6523937"><ele>132.8</ele><time>2026-04-11T08:21:55.726Z</time></trkpt><trkpt lat="40.7197309" lon="9.652413"><ele>129.4</ele><time>2026-04-11T08:21:57.716Z</time></trkpt><trkpt lat="40.7196207" lon="9.6524306"><ele>126.0</ele><time>2026-04-11T08:21:59.723Z</time></trkpt><trkpt lat="40.7195069" lon="9.6524491"><ele>124.6</ele><time>2026-04-11T08:22:01.701Z</time></trkpt><trkpt lat="40.7193949" lon="9.6524611"><ele>123.19999999999999</ele><time>2026-04-11T08:22:03.719Z</time></trkpt><trkpt lat="40.719308" lon="9.6524767"><ele>121.80000000000001</ele><time>2026-04-11T08:22:05.701Z</time></trkpt><trkpt lat="40.7192321" lon="9.652471"><ele>120.4</ele><time>2026-04-11T08:22:07.712Z</time></trkpt><trkpt lat="40.7191469" lon="9.6524543"><ele>119.0</ele><time>2026-04-11T08:22:09.713Z</time></trkpt><trkpt lat="40.7190585" lon="9.6524738"><ele>119.0</ele><time>2026-04-11T08:22:11.721Z</time></trkpt><trkpt lat="40.7189904" lon="9.6525464"><ele>119.0</ele><time>2026-04-11T08:22:13.704Z</time></trkpt><trkpt lat="40.7189194" lon="9.6525959"><ele>119.0</ele><time>2026-04-11T08:22:15.69Z</time></trkpt><trkpt lat="40.7188252" lon="9.6526102"><ele>119.0</ele><time>2026-04-11T08:22:17.695Z</time></trkpt><trkpt lat="40.718714" lon="9.6526178"><ele>119.0</ele><time>2026-04-11T08:22:19.7Z</time></trkpt><trkpt lat="40.7186012" lon="9.6525986"><ele>118.2</ele><time>2026-04-11T08:22:21.725Z</time></trkpt><trkpt lat="40.7184992" lon="9.6525318"><ele>117.4</ele><time>2026-04-11T08:22:23.684Z</time></trkpt><trkpt lat="40.7184043" lon="9.6524758"><ele>116.6</ele><time>2026-04-11T08:22:25.692Z</time></trkpt><trkpt lat="40.7183282" lon="9.6524723"><ele>115.8</ele><time>2026-04-11T08:22:39.767Z</time></trkpt><trkpt lat="40.7182481" lon="9.6525226"><ele>115.0</ele><time>2026-04-11T08:22:42.766Z</time></trkpt><trkpt lat="40.7182142" lon="9.6526123"><ele>115.00000000000001</ele><time>2026-04-11T08:22:44.758Z</time></trkpt><trkpt lat="40.7181919" lon="9.652711"><ele>115.0</ele><time>2026-04-11T08:22:46.764Z</time></trkpt><trkpt lat="40.7181252" lon="9.6527606"><ele>115.0</ele><time>2026-04-11T08:22:48.75Z</time></trkpt><trkpt lat="40.7180466" lon="9.652761"><ele>115.0</ele><time>2026-04-11T08:22:50.769Z</time></trkpt><trkpt lat="40.7179838" lon="9.652694"><ele>115.00000000000001</ele><time>2026-04-11T08:22:53.753Z</time></trkpt><trkpt lat="40.7179763" lon="9.6525657"><ele>115.0</ele><time>2026-04-11T08:22:55.748Z</time></trkpt><trkpt lat="40.7179679" lon="9.6524702"><ele>115.0</ele><time>2026-04-11T08:22:56.741Z</time></trkpt><trkpt lat="40.7179414" lon="9.6523722"><ele>115.0</ele><time>2026-04-11T08:22:57.751Z</time></trkpt><trkpt lat="40.717888" lon="9.6522829"><ele>115.0</ele><time>2026-04-11T08:22:58.745Z</time></trkpt><trkpt lat="40.7178197" lon="9.652204"><ele>115.0</ele><time>2026-04-11T08:22:59.735Z</time></trkpt><trkpt lat="40.7177371" lon="9.6521392"><ele>115.0</ele><time>2026-04-11T08:23:00.748Z</time></trkpt><trkpt lat="40.7176454" lon="9.652076"><ele>115.4</ele><time>2026-04-11T08:23:01.737Z</time></trkpt><trkpt lat="40.7175533" lon="9.6520002"><ele>115.8</ele><time>2026-04-11T08:23:02.767Z</time></trkpt><trkpt lat="40.7174657" lon="9.6519255"><ele>116.19999999999999</ele><time>2026-04-11T08:23:03.744Z</time></trkpt><trkpt lat="40.7173616" lon="9.6518698"><ele>116.6</ele><time>2026-04-11T08:23:04.75Z</time></trkpt><trkpt lat="40.717255" lon="9.6518361"><ele>117.0</ele><time>2026-04-11T08:23:05.745Z</time></trkpt><trkpt lat="40.7171588" lon="9.651817"><ele>117.0</ele><time>2026-04-11T08:23:06.742Z</time></trkpt><trkpt lat="40.7170709" lon="9.651798"><ele>117.0</ele><time>2026-04-11T08:23:07.749Z</time></trkpt><trkpt lat="40.7169931" lon="9.6517851"><ele>117.0</ele><time>2026-04-11T08:23:08.734Z</time></trkpt><trkpt lat="40.7169212" lon="9.6517921"><ele>117.0</ele><time>2026-04-11T08:23:09.738Z</time></trkpt><trkpt lat="40.7168467" lon="9.6518186"><ele>117.0</ele><time>2026-04-11T08:23:10.751Z</time></trkpt><trkpt lat="40.7167823" lon="9.6518522"><ele>117.0</ele><time>2026-04-11T08:23:11.734Z</time></trkpt><trkpt lat="40.716731" lon="9.6519028"><ele>115.0</ele><time>2026-04-11T08:23:12.72Z</time></trkpt><trkpt lat="40.7166911" lon="9.6519759"><ele>113.00000000000001</ele><time>2026-04-11T08:23:13.736Z</time></trkpt><trkpt lat="40.7166616" lon="9.6520564"><ele>111.0</ele><time>2026-04-11T08:23:14.728Z</time></trkpt><trkpt lat="40.7166292" lon="9.6521389"><ele>109.0</ele><time>2026-04-11T08:23:15.774Z</time></trkpt><trkpt lat="40.716594" lon="9.6522169"><ele>107.0</ele><time>2026-04-11T08:23:16.725Z</time></trkpt><trkpt lat="40.7165473" lon="9.6522944"><ele>105.0</ele><time>2026-04-11T08:23:17.721Z</time></trkpt><trkpt lat="40.7164905" lon="9.6523675"><ele>103.0</ele><time>2026-04-11T08:23:18.724Z</time></trkpt><trkpt lat="40.716417" lon="9.6524272"><ele>103.00000000000001</ele><time>2026-04-11T08:23:19.715Z</time></trkpt><trkpt lat="40.7163325" lon="9.6524773"><ele>103.0</ele><time>2026-04-11T08:23:20.714Z</time></trkpt><trkpt lat="40.7162529" lon="9.6525258"><ele>103.0</ele><time>2026-04-11T08:23:21.73Z</time></trkpt><trkpt lat="40.7161781" lon="9.6525776"><ele>103.0</ele><time>2026-04-11T08:23:22.714Z</time></trkpt><trkpt lat="40.7160997" lon="9.6526268"><ele>103.00000000000001</ele><time>2026-04-11T08:23:23.716Z</time></trkpt><trkpt lat="40.7160177" lon="9.6526574"><ele>103.0</ele><time>2026-04-11T08:23:24.709Z</time></trkpt><trkpt lat="40.7159334" lon="9.6526535"><ele>102.83333333333334</ele><time>2026-04-11T08:23:25.711Z</time></trkpt><trkpt lat="40.7158485" lon="9.6526338"><ele>102.66666666666667</ele><time>2026-04-11T08:23:26.713Z</time></trkpt><trkpt lat="40.7157678" lon="9.6526068"><ele>102.5</ele><time>2026-04-11T08:23:27.712Z</time></trkpt><trkpt lat="40.7156905" lon="9.6525862"><ele>102.33333333333334</ele><time>2026-04-11T08:23:28.71Z</time></trkpt><trkpt lat="40.7156151" lon="9.6525642"><ele>102.16666666666667</ele><time>2026-04-11T08:23:29.715Z</time></trkpt><trkpt lat="40.7155442" lon="9.6525411"><ele>102.0</ele><time>2026-04-11T08:23:30.722Z</time></trkpt><trkpt lat="40.715484" lon="9.6525113"><ele>102.0</ele><time>2026-04-11T08:23:31.71Z</time></trkpt><trkpt lat="40.7153766" lon="9.6524603"><ele>102.0</ele><time>2026-04-11T08:23:33.704Z</time></trkpt><trkpt lat="40.7152761" lon="9.6524453"><ele>102.0</ele><time>2026-04-11T08:23:35.728Z</time></trkpt><trkpt lat="40.7151795" lon="9.6524527"><ele>102.0</ele><time>2026-04-11T08:23:37.702Z</time></trkpt><trkpt lat="40.7150767" lon="9.6524929"><ele>102.0</ele><time>2026-04-11T08:23:39.701Z</time></trkpt><trkpt lat="40.7149659" lon="9.6525356"><ele>101.19999999999999</ele><time>2026-04-11T08:23:41.707Z</time></trkpt><trkpt lat="40.7148436" lon="9.6525508"><ele>100.4</ele><time>2026-04-11T08:23:43.697Z</time></trkpt><trkpt lat="40.7147277" lon="9.6525444"><ele>99.6</ele><time>2026-04-11T08:23:45.701Z</time></trkpt><trkpt lat="40.7146071" lon="9.6525501"><ele>98.80000000000001</ele><time>2026-04-11T08:23:47.694Z</time></trkpt><trkpt lat="40.7145415" lon="9.6525571"><ele>98.0</ele><time>2026-04-11T08:23:48.708Z</time></trkpt><trkpt lat="40.7144688" lon="9.6525618"><ele>97.16666666666666</ele><time>2026-04-11T08:23:49.717Z</time></trkpt><trkpt lat="40.7143891" lon="9.6525583"><ele>96.33333333333333</ele><time>2026-04-11T08:23:50.694Z</time></trkpt><trkpt lat="40.7143056" lon="9.6525461"><ele>95.5</ele><time>2026-04-11T08:23:51.715Z</time></trkpt><trkpt lat="40.7142291" lon="9.652527"><ele>94.66666666666666</ele><time>2026-04-11T08:23:52.692Z</time></trkpt><trkpt lat="40.7141537" lon="9.6525024"><ele>93.83333333333333</ele><time>2026-04-11T08:23:53.691Z</time></trkpt><trkpt lat="40.7140859" lon="9.6524718"><ele>93.0</ele><time>2026-04-11T08:23:54.702Z</time></trkpt><trkpt lat="40.7140268" lon="9.652432"><ele>93.0</ele><time>2026-04-11T08:23:55.702Z</time></trkpt><trkpt lat="40.7139721" lon="9.6523746"><ele>93.0</ele><time>2026-04-11T08:23:56.69Z</time></trkpt><trkpt lat="40.7139154" lon="9.6523039"><ele>93.0</ele><time>2026-04-11T08:23:57.701Z</time></trkpt><trkpt lat="40.7138556" lon="9.6522244"><ele>93.0</ele><time>2026-04-11T08:23:58.691Z</time></trkpt><trkpt lat="40.713797" lon="9.6521391"><ele>93.0</ele><time>2026-04-11T08:23:59.684Z</time></trkpt><trkpt lat="40.7137316" lon="9.6520593"><ele>93.0</ele><time>2026-04-11T08:24:00.687Z</time></trkpt><trkpt lat="40.7136598" lon="9.6519808"><ele>93.4</ele><time>2026-04-11T08:24:01.685Z</time></trkpt><trkpt lat="40.7135724" lon="9.6519078"><ele>93.80000000000001</ele><time>2026-04-11T08:24:02.691Z</time></trkpt><trkpt lat="40.7134767" lon="9.6518407"><ele>94.2</ele><time>2026-04-11T08:24:03.681Z</time></trkpt><trkpt lat="40.7133779" lon="9.6517776"><ele>94.6</ele><time>2026-04-11T08:24:04.69Z</time></trkpt><trkpt lat="40.7132887" lon="9.6517238"><ele>95.0</ele><time>2026-04-11T08:24:05.685Z</time></trkpt><trkpt lat="40.7132082" lon="9.6516733"><ele>95.0</ele><time>2026-04-11T08:24:06.685Z</time></trkpt><trkpt lat="40.7131356" lon="9.6516202"><ele>95.0</ele><time>2026-04-11T08:24:07.686Z</time></trkpt><trkpt lat="40.7130745" lon="9.6515634"><ele>95.0</ele><time>2026-04-11T08:24:08.676Z</time></trkpt><trkpt lat="40.7130244" lon="9.6515016"><ele>95.0</ele><time>2026-04-11T08:24:09.679Z</time></trkpt><trkpt lat="40.7129803" lon="9.6514325"><ele>95.0</ele><time>2026-04-11T08:24:10.681Z</time></trkpt><trkpt lat="40.7129459" lon="9.6513549"><ele>95.0</ele><time>2026-04-11T08:24:11.687Z</time></trkpt><trkpt lat="40.7129122" lon="9.6512786"><ele>95.0</ele><time>2026-04-11T08:24:12.674Z</time></trkpt><trkpt lat="40.7128729" lon="9.6512038"><ele>95.0</ele><time>2026-04-11T08:24:13.67Z</time></trkpt><trkpt lat="40.7128328" lon="9.6511282"><ele>95.0</ele><time>2026-04-11T08:24:14.682Z</time></trkpt><trkpt lat="40.7127973" lon="9.6510574"><ele>95.0</ele><time>2026-04-11T08:24:15.685Z</time></trkpt><trkpt lat="40.7127874" lon="9.6509204"><ele>95.0</ele><time>2026-04-11T08:24:17.663Z</time></trkpt><trkpt lat="40.7128456" lon="9.6507856"><ele>95.0</ele><time>2026-04-11T08:24:19.669Z</time></trkpt><trkpt lat="40.7128973" lon="9.6507054"><ele>95.0</ele><time>2026-04-11T08:24:20.784Z</time></trkpt><trkpt lat="40.7130017" lon="9.6505371"><ele>95.66666666666667</ele><time>2026-04-11T08:24:22.669Z</time></trkpt><trkpt lat="40.7130485" lon="9.6504679"><ele>96.33333333333334</ele><time>2026-04-11T08:24:23.765Z</time></trkpt><trkpt lat="40.7130892" lon="9.6504027"><ele>97.0</ele><time>2026-04-11T08:24:24.767Z</time></trkpt><trkpt lat="40.7131413" lon="9.6502762"><ele>97.66666666666667</ele><time>2026-04-11T08:24:26.776Z</time></trkpt><trkpt lat="40.7131448" lon="9.650175"><ele>98.33333333333333</ele><time>2026-04-11T08:24:28.772Z</time></trkpt><trkpt lat="40.713122" lon="9.6500685"><ele>99.0</ele><time>2026-04-11T08:24:30.758Z</time></trkpt><trkpt lat="40.7130718" lon="9.6499788"><ele>101.0</ele><time>2026-04-11T08:24:32.754Z</time></trkpt><trkpt lat="40.7129959" lon="9.649866"><ele>103.0</ele><time>2026-04-11T08:24:34.758Z</time></trkpt><trkpt lat="40.7129169" lon="9.649757"><ele>105.0</ele><time>2026-04-11T08:24:36.756Z</time></trkpt><trkpt lat="40.7128473" lon="9.6496451"><ele>107.0</ele><time>2026-04-11T08:24:38.752Z</time></trkpt><trkpt lat="40.7127754" lon="9.6495201"><ele>107.85714285714286</ele><time>2026-04-11T08:24:40.772Z</time></trkpt><trkpt lat="40.7127361" lon="9.649449"><ele>108.71428571428572</ele><time>2026-04-11T08:24:41.755Z</time></trkpt><trkpt lat="40.712696" lon="9.6493739"><ele>109.57142857142858</ele><time>2026-04-11T08:24:42.761Z</time></trkpt><trkpt lat="40.7126569" lon="9.6492969"><ele>110.42857142857143</ele><time>2026-04-11T08:24:43.75Z</time></trkpt><trkpt lat="40.7126205" lon="9.649223"><ele>111.28571428571428</ele><time>2026-04-11T08:24:44.748Z</time></trkpt><trkpt lat="40.7125784" lon="9.6491568"><ele>112.14285714285715</ele><time>2026-04-11T08:24:45.765Z</time></trkpt><trkpt lat="40.7125249" lon="9.6491006"><ele>113.0</ele><time>2026-04-11T08:24:46.75Z</time></trkpt><trkpt lat="40.7124637" lon="9.6490562"><ele>112.99999999999999</ele><time>2026-04-11T08:24:47.756Z</time></trkpt><trkpt lat="40.7123965" lon="9.6490191"><ele>113.0</ele><time>2026-04-11T08:24:48.757Z</time></trkpt><trkpt lat="40.7123239" lon="9.6489875"><ele>113.0</ele><time>2026-04-11T08:24:49.749Z</time></trkpt><trkpt lat="40.7122511" lon="9.6489558"><ele>113.0</ele><time>2026-04-11T08:24:50.739Z</time></trkpt><trkpt lat="40.7121788" lon="9.6489184"><ele>112.99999999999999</ele><time>2026-04-11T08:24:51.746Z</time></trkpt><trkpt lat="40.7121047" lon="9.6488726"><ele>113.0</ele><time>2026-04-11T08:24:52.751Z</time></trkpt><trkpt lat="40.7120338" lon="9.6488219"><ele>112.99999999999999</ele><time>2026-04-11T08:24:53.75Z</time></trkpt><trkpt lat="40.7119712" lon="9.6487592"><ele>113.0</ele><time>2026-04-11T08:24:54.728Z</time></trkpt><trkpt lat="40.71191" lon="9.6486781"><ele>113.0</ele><time>2026-04-11T08:24:55.745Z</time></trkpt><trkpt lat="40.7118584" lon="9.6485918"><ele>113.0</ele><time>2026-04-11T08:24:56.735Z</time></trkpt><trkpt lat="40.7118116" lon="9.6484907"><ele>112.99999999999999</ele><time>2026-04-11T08:24:57.752Z</time></trkpt><trkpt lat="40.711769" lon="9.6483732"><ele>113.0</ele><time>2026-04-11T08:24:58.744Z</time></trkpt><trkpt lat="40.7117292" lon="9.6482455"><ele>114.2</ele><time>2026-04-11T08:24:59.73Z</time></trkpt><trkpt lat="40.7116948" lon="9.6481215"><ele>115.4</ele><time>2026-04-11T08:25:00.732Z</time></trkpt><trkpt lat="40.7116579" lon="9.6480088"><ele>116.60000000000001</ele><time>2026-04-11T08:25:01.736Z</time></trkpt><trkpt lat="40.7116133" lon="9.6479031"><ele>117.80000000000001</ele><time>2026-04-11T08:25:02.731Z</time></trkpt><trkpt lat="40.711556" lon="9.6478088"><ele>119.0</ele><time>2026-04-11T08:25:03.746Z</time></trkpt><trkpt lat="40.7114909" lon="9.6477319"><ele>118.99999999999999</ele><time>2026-04-11T08:25:04.75Z</time></trkpt><trkpt lat="40.711423" lon="9.647678"><ele>119.0</ele><time>2026-04-11T08:25:05.738Z</time></trkpt><trkpt lat="40.7113533" lon="9.6476504"><ele>119.0</ele><time>2026-04-11T08:25:06.734Z</time></trkpt><trkpt lat="40.7112717" lon="9.6476423"><ele>119.0</ele><time>2026-04-11T08:25:07.727Z</time></trkpt><trkpt lat="40.7111839" lon="9.6476436"><ele>118.99999999999999</ele><time>2026-04-11T08:25:08.725Z</time></trkpt><trkpt lat="40.7110906" lon="9.6476547"><ele>119.0</ele><time>2026-04-11T08:25:09.718Z</time></trkpt><trkpt lat="40.7109953" lon="9.6476634"><ele>118.99999999999999</ele><time>2026-04-11T08:25:10.716Z</time></trkpt><trkpt lat="40.7109048" lon="9.6476705"><ele>119.0</ele><time>2026-04-11T08:25:11.722Z</time></trkpt><trkpt lat="40.7108181" lon="9.6476737"><ele>119.0</ele><time>2026-04-11T08:25:12.721Z</time></trkpt><trkpt lat="40.7107337" lon="9.6476715"><ele>119.0</ele><time>2026-04-11T08:25:13.738Z</time></trkpt><trkpt lat="40.7106558" lon="9.6476596"><ele>118.99999999999999</ele><time>2026-04-11T08:25:14.716Z</time></trkpt><trkpt lat="40.7105802" lon="9.6476275"><ele>119.0</ele><time>2026-04-11T08:25:15.714Z</time></trkpt><trkpt lat="40.7105119" lon="9.647576"><ele>118.99999999999999</ele><time>2026-04-11T08:25:16.71Z</time></trkpt><trkpt lat="40.7104561" lon="9.6475037"><ele>119.0</ele><time>2026-04-11T08:25:17.721Z</time></trkpt><trkpt lat="40.7104066" lon="9.6474227"><ele>119.0</ele><time>2026-04-11T08:25:18.712Z</time></trkpt><trkpt lat="40.7103581" lon="9.6473326"><ele>119.0</ele><time>2026-04-11T08:25:19.731Z</time></trkpt><trkpt lat="40.7103204" lon="9.6472331"><ele>118.99999999999999</ele><time>2026-04-11T08:25:20.723Z</time></trkpt><trkpt lat="40.7102919" lon="9.6471255"><ele>119.0</ele><time>2026-04-11T08:25:21.71Z</time></trkpt><trkpt lat="40.7102813" lon="9.6470107"><ele>120.80000000000001</ele><time>2026-04-11T08:25:22.711Z</time></trkpt><trkpt lat="40.7102806" lon="9.6468896"><ele>122.60000000000001</ele><time>2026-04-11T08:25:23.705Z</time></trkpt><trkpt lat="40.7102911" lon="9.6467667"><ele>124.4</ele><time>2026-04-11T08:25:24.719Z</time></trkpt><trkpt lat="40.7103055" lon="9.6466398"><ele>126.2</ele><time>2026-04-11T08:25:25.705Z</time></trkpt><trkpt lat="40.7103121" lon="9.6465066"><ele>128.0</ele><time>2026-04-11T08:25:26.705Z</time></trkpt><trkpt lat="40.7103102" lon="9.6463755"><ele>127.99999999999999</ele><time>2026-04-11T08:25:27.711Z</time></trkpt><trkpt lat="40.710297" lon="9.6462494"><ele>128.0</ele><time>2026-04-11T08:25:28.712Z</time></trkpt><trkpt lat="40.7102802" lon="9.6461319"><ele>128.0</ele><time>2026-04-11T08:25:29.708Z</time></trkpt><trkpt lat="40.7102552" lon="9.6460369"><ele>128.0</ele><time>2026-04-11T08:25:30.703Z</time></trkpt><trkpt lat="40.7102206" lon="9.6459614"><ele>127.99999999999999</ele><time>2026-04-11T08:25:31.699Z</time></trkpt><trkpt lat="40.7101791" lon="9.6458917"><ele>128.0</ele><time>2026-04-11T08:25:32.701Z</time></trkpt><trkpt lat="40.7101278" lon="9.6458317"><ele>127.66666666666666</ele><time>2026-04-11T08:25:33.707Z</time></trkpt><trkpt lat="40.7100649" lon="9.6457777"><ele>127.33333333333333</ele><time>2026-04-11T08:25:34.698Z</time></trkpt><trkpt lat="40.7099932" lon="9.6457345"><ele>127.0</ele><time>2026-04-11T08:25:35.696Z</time></trkpt><trkpt lat="40.7099128" lon="9.6457294"><ele>126.66666666666666</ele><time>2026-04-11T08:25:36.697Z</time></trkpt><trkpt lat="40.7098312" lon="9.6457282"><ele>126.33333333333333</ele><time>2026-04-11T08:25:37.7Z</time></trkpt><trkpt lat="40.7097449" lon="9.6457282"><ele>126.0</ele><time>2026-04-11T08:25:38.695Z</time></trkpt><trkpt lat="40.7096578" lon="9.6457124"><ele>126.0</ele><time>2026-04-11T08:25:39.688Z</time></trkpt><trkpt lat="40.7095729" lon="9.6456849"><ele>126.0</ele><time>2026-04-11T08:25:40.692Z</time></trkpt><trkpt lat="40.7094826" lon="9.6456453"><ele>126.0</ele><time>2026-04-11T08:25:41.696Z</time></trkpt><trkpt lat="40.7093955" lon="9.645597"><ele>126.0</ele><time>2026-04-11T08:25:42.705Z</time></trkpt><trkpt lat="40.7093197" lon="9.6455355"><ele>126.0</ele><time>2026-04-11T08:25:43.688Z</time></trkpt><trkpt lat="40.7092461" lon="9.6454615"><ele>127.16666666666667</ele><time>2026-04-11T08:25:44.688Z</time></trkpt><trkpt lat="40.7091746" lon="9.6453858"><ele>128.33333333333334</ele><time>2026-04-11T08:25:45.691Z</time></trkpt><trkpt lat="40.7091047" lon="9.6453099"><ele>129.5</ele><time>2026-04-11T08:25:46.682Z</time></trkpt><trkpt lat="40.7090374" lon="9.6452337"><ele>130.66666666666669</ele><time>2026-04-11T08:25:47.687Z</time></trkpt><trkpt lat="40.7089836" lon="9.6451485"><ele>131.83333333333334</ele><time>2026-04-11T08:25:48.68Z</time></trkpt><trkpt lat="40.7089329" lon="9.6450469"><ele>133.0</ele><time>2026-04-11T08:25:49.684Z</time></trkpt><trkpt lat="40.7088828" lon="9.6449397"><ele>133.0</ele><time>2026-04-11T08:25:50.681Z</time></trkpt><trkpt lat="40.7088305" lon="9.6448382"><ele>133.0</ele><time>2026-04-11T08:25:51.681Z</time></trkpt><trkpt lat="40.7087744" lon="9.6447466"><ele>133.0</ele><time>2026-04-11T08:25:52.677Z</time></trkpt><trkpt lat="40.7087087" lon="9.6446623"><ele>133.0</ele><time>2026-04-11T08:25:53.678Z</time></trkpt><trkpt lat="40.7086325" lon="9.6445902"><ele>133.0</ele><time>2026-04-11T08:25:54.678Z</time></trkpt><trkpt lat="40.7085681" lon="9.6445173"><ele>133.0</ele><time>2026-04-11T08:25:55.694Z</time></trkpt><trkpt lat="40.7085199" lon="9.6444438"><ele>133.0</ele><time>2026-04-11T08:25:56.692Z</time></trkpt><trkpt lat="40.7084747" lon="9.6443725"><ele>133.0</ele><time>2026-04-11T08:25:57.683Z</time></trkpt><trkpt lat="40.7084234" lon="9.644313"><ele>133.0</ele><time>2026-04-11T08:25:58.677Z</time></trkpt><trkpt lat="40.7083648" lon="9.6442729"><ele>133.0</ele><time>2026-04-11T08:25:59.671Z</time></trkpt><trkpt lat="40.7082939" lon="9.6442607"><ele>133.0</ele><time>2026-04-11T08:26:00.685Z</time></trkpt><trkpt lat="40.7082169" lon="9.6442531"><ele>133.0</ele><time>2026-04-11T08:26:01.681Z</time></trkpt><trkpt lat="40.7081405" lon="9.6442402"><ele>133.0</ele><time>2026-04-11T08:26:02.676Z</time></trkpt><trkpt lat="40.7080678" lon="9.6442137"><ele>133.0</ele><time>2026-04-11T08:26:03.673Z</time></trkpt><trkpt lat="40.7079959" lon="9.6441723"><ele>133.0</ele><time>2026-04-11T08:26:04.675Z</time></trkpt><trkpt lat="40.707921" lon="9.6441219"><ele>133.0</ele><time>2026-04-11T08:26:05.679Z</time></trkpt><trkpt lat="40.7078429" lon="9.6440688"><ele>133.0</ele><time>2026-04-11T08:26:06.67Z</time></trkpt><trkpt lat="40.7077659" lon="9.6440145"><ele>133.0</ele><time>2026-04-11T08:26:07.666Z</time></trkpt><trkpt lat="40.7076866" lon="9.643971"><ele>134.83333333333334</ele><time>2026-04-11T08:26:08.665Z</time></trkpt><trkpt lat="40.7076108" lon="9.6439338"><ele>136.66666666666669</ele><time>2026-04-11T08:26:09.671Z</time></trkpt><trkpt lat="40.7075348" lon="9.6439026"><ele>138.5</ele><time>2026-04-11T08:26:10.67Z</time></trkpt><trkpt lat="40.7074539" lon="9.6438798"><ele>140.33333333333334</ele><time>2026-04-11T08:26:11.664Z</time></trkpt><trkpt lat="40.7073692" lon="9.6438697"><ele>142.16666666666666</ele><time>2026-04-11T08:26:12.667Z</time></trkpt><trkpt lat="40.7072842" lon="9.6438653"><ele>144.0</ele><time>2026-04-11T08:26:13.777Z</time></trkpt><trkpt lat="40.7072022" lon="9.6438545"><ele>144.00000000000003</ele><time>2026-04-11T08:26:14.695Z</time></trkpt><trkpt lat="40.7071162" lon="9.6438306"><ele>144.0</ele><time>2026-04-11T08:26:15.665Z</time></trkpt><trkpt lat="40.707035" lon="9.6437952"><ele>144.0</ele><time>2026-04-11T08:26:16.672Z</time></trkpt><trkpt lat="40.706966" lon="9.6437547"><ele>144.0</ele><time>2026-04-11T08:26:17.767Z</time></trkpt><trkpt lat="40.7069145" lon="9.6437052"><ele>144.0</ele><time>2026-04-11T08:26:18.764Z</time></trkpt><trkpt lat="40.70687" lon="9.6436453"><ele>144.00000000000003</ele><time>2026-04-11T08:26:19.773Z</time></trkpt><trkpt lat="40.7068325" lon="9.643576"><ele>144.0</ele><time>2026-04-11T08:26:20.761Z</time></trkpt><trkpt lat="40.7067534" lon="9.6434749"><ele>144.0</ele><time>2026-04-11T08:26:22.785Z</time></trkpt><trkpt lat="40.7066388" lon="9.64344"><ele>144.0</ele><time>2026-04-11T08:26:24.767Z</time></trkpt><trkpt lat="40.7065734" lon="9.643439"><ele>144.0</ele><time>2026-04-11T08:26:25.767Z</time></trkpt><trkpt lat="40.7065045" lon="9.6434427"><ele>144.0</ele><time>2026-04-11T08:26:26.763Z</time></trkpt><trkpt lat="40.7064325" lon="9.6434508"><ele>144.0</ele><time>2026-04-11T08:26:27.758Z</time></trkpt><trkpt lat="40.7063655" lon="9.6434676"><ele>144.0</ele><time>2026-04-11T08:26:28.748Z</time></trkpt><trkpt lat="40.7062582" lon="9.6435137"><ele>144.0</ele><time>2026-04-11T08:26:30.752Z</time></trkpt><trkpt lat="40.7061689" lon="9.6435181"><ele>144.0</ele><time>2026-04-11T08:26:32.756Z</time></trkpt><trkpt lat="40.7060856" lon="9.6434615"><ele>144.0</ele><time>2026-04-11T08:26:34.753Z</time></trkpt><trkpt lat="40.7060015" lon="9.6433797"><ele>144.0</ele><time>2026-04-11T08:26:36.748Z</time></trkpt><trkpt lat="40.7059453" lon="9.6433401"><ele>144.0</ele><time>2026-04-11T08:26:37.748Z</time></trkpt><trkpt lat="40.7058825" lon="9.6433042"><ele>144.0</ele><time>2026-04-11T08:26:38.756Z</time></trkpt><trkpt lat="40.7058097" lon="9.6432739"><ele>145.6</ele><time>2026-04-11T08:26:39.743Z</time></trkpt><trkpt lat="40.7057263" lon="9.6432481"><ele>147.2</ele><time>2026-04-11T08:26:40.735Z</time></trkpt><trkpt lat="40.7056376" lon="9.6432283"><ele>148.79999999999998</ele><time>2026-04-11T08:26:41.74Z</time></trkpt><trkpt lat="40.7055448" lon="9.6432111"><ele>150.4</ele><time>2026-04-11T08:26:42.735Z</time></trkpt><trkpt lat="40.7054484" lon="9.6431959"><ele>152.0</ele><time>2026-04-11T08:26:43.739Z</time></trkpt><trkpt lat="40.7053456" lon="9.6431768"><ele>153.25</ele><time>2026-04-11T08:26:44.739Z</time></trkpt><trkpt lat="40.7052327" lon="9.6431663"><ele>154.5</ele><time>2026-04-11T08:26:45.737Z</time></trkpt><trkpt lat="40.7051165" lon="9.6431594"><ele>155.75</ele><time>2026-04-11T08:26:46.737Z</time></trkpt><trkpt lat="40.7049992" lon="9.6431499"><ele>157.0</ele><time>2026-04-11T08:26:47.741Z</time></trkpt><trkpt lat="40.7048844" lon="9.6431436"><ele>157.0</ele><time>2026-04-11T08:26:48.738Z</time></trkpt><trkpt lat="40.7047729" lon="9.6431314"><ele>157.0</ele><time>2026-04-11T08:26:49.731Z</time></trkpt><trkpt lat="40.7046688" lon="9.6431133"><ele>157.0</ele><time>2026-04-11T08:26:50.732Z</time></trkpt><trkpt lat="40.7045785" lon="9.6431016"><ele>157.0</ele><time>2026-04-11T08:26:51.738Z</time></trkpt><trkpt lat="40.7045083" lon="9.6430934"><ele>157.0</ele><time>2026-04-11T08:26:52.743Z</time></trkpt><trkpt lat="40.7044021" lon="9.6430409"><ele>156.83333333333334</ele><time>2026-04-11T08:26:54.755Z</time></trkpt><trkpt lat="40.7043301" lon="9.6429036"><ele>156.66666666666669</ele><time>2026-04-11T08:26:56.726Z</time></trkpt><trkpt lat="40.7043026" lon="9.6428083"><ele>156.5</ele><time>2026-04-11T08:26:57.729Z</time></trkpt><trkpt lat="40.7042736" lon="9.6427195"><ele>156.33333333333334</ele><time>2026-04-11T08:26:58.738Z</time></trkpt><trkpt lat="40.7042482" lon="9.6426397"><ele>156.16666666666666</ele><time>2026-04-11T08:26:59.727Z</time></trkpt><trkpt lat="40.704223" lon="9.6425589"><ele>156.0</ele><time>2026-04-11T08:27:00.73Z</time></trkpt><trkpt lat="40.7041957" lon="9.6424765"><ele>156.57142857142858</ele><time>2026-04-11T08:27:01.754Z</time></trkpt><trkpt lat="40.7041686" lon="9.6423888"><ele>157.14285714285714</ele><time>2026-04-11T08:27:02.728Z</time></trkpt><trkpt lat="40.7041407" lon="9.6422959"><ele>157.71428571428572</ele><time>2026-04-11T08:27:03.719Z</time></trkpt><trkpt lat="40.7041059" lon="9.6422033"><ele>158.28571428571428</ele><time>2026-04-11T08:27:04.717Z</time></trkpt><trkpt lat="40.7040623" lon="9.642119"><ele>158.85714285714286</ele><time>2026-04-11T08:27:05.749Z</time></trkpt><trkpt lat="40.7040153" lon="9.6420492"><ele>159.42857142857142</ele><time>2026-04-11T08:27:06.722Z</time></trkpt><trkpt lat="40.7039661" lon="9.6419846"><ele>160.0</ele><time>2026-04-11T08:27:07.778Z</time></trkpt><trkpt lat="40.7039235" lon="9.6419234"><ele>161.6</ele><time>2026-04-11T08:27:08.718Z</time></trkpt><trkpt lat="40.7038374" lon="9.6418245"><ele>163.2</ele><time>2026-04-11T08:27:10.715Z</time></trkpt><trkpt lat="40.7037794" lon="9.6417713"><ele>164.8</ele><time>2026-04-11T08:27:12.72Z</time></trkpt><trkpt lat="40.7036942" lon="9.6417189"><ele>166.4</ele><time>2026-04-11T08:27:24.703Z</time></trkpt><trkpt lat="40.7036033" lon="9.6416578"><ele>168.0</ele><time>2026-04-11T08:27:26.703Z</time></trkpt><trkpt lat="40.7035142" lon="9.6415878"><ele>168.8</ele><time>2026-04-11T08:27:28.724Z</time></trkpt><trkpt lat="40.7034381" lon="9.6415181"><ele>169.60000000000002</ele><time>2026-04-11T08:27:30.707Z</time></trkpt><trkpt lat="40.7033615" lon="9.6413922"><ele>170.39999999999998</ele><time>2026-04-11T08:27:32.704Z</time></trkpt><trkpt lat="40.7033069" lon="9.6412432"><ele>171.2</ele><time>2026-04-11T08:27:34.699Z</time></trkpt><trkpt lat="40.7032764" lon="9.6411695"><ele>172.0</ele><time>2026-04-11T08:27:35.727Z</time></trkpt><trkpt lat="40.7032039" lon="9.6410599"><ele>172.0</ele><time>2026-04-11T08:27:37.693Z</time></trkpt><trkpt lat="40.7030955" lon="9.6410147"><ele>172.0</ele><time>2026-04-11T08:27:39.717Z</time></trkpt><trkpt lat="40.7029996" lon="9.6410474"><ele>172.0</ele><time>2026-04-11T08:27:41.687Z</time></trkpt><trkpt lat="40.702943" lon="9.6411657"><ele>172.0</ele><time>2026-04-11T08:27:43.688Z</time></trkpt><trkpt lat="40.7029337" lon="9.6412585"><ele>172.0</ele><time>2026-04-11T08:27:44.738Z</time></trkpt><trkpt lat="40.7029309" lon="9.6413687"><ele>172.0</ele><time>2026-04-11T08:27:45.793Z</time></trkpt><trkpt lat="40.7029443" lon="9.6415985"><ele>172.0</ele><time>2026-04-11T08:27:47.687Z</time></trkpt><trkpt lat="40.7029565" lon="9.641706"><ele>172.0</ele><time>2026-04-11T08:27:48.718Z</time></trkpt><trkpt lat="40.7029688" lon="9.6417919"><ele>172.0</ele><time>2026-04-11T08:27:49.685Z</time></trkpt><trkpt lat="40.702926" lon="9.64189"><ele>172.0</ele><time>2026-04-11T08:27:51.698Z</time></trkpt><trkpt lat="40.7028365" lon="9.641853"><ele>173.83333333333334</ele><time>2026-04-11T08:27:53.678Z</time></trkpt><trkpt lat="40.7027368" lon="9.6417503"><ele>175.66666666666669</ele><time>2026-04-11T08:27:55.674Z</time></trkpt><trkpt lat="40.7026833" lon="9.6416967"><ele>177.5</ele><time>2026-04-11T08:27:56.687Z</time></trkpt><trkpt lat="40.7026287" lon="9.6416478"><ele>179.33333333333334</ele><time>2026-04-11T08:27:57.679Z</time></trkpt><trkpt lat="40.7025623" lon="9.6416332"><ele>181.16666666666666</ele><time>2026-04-11T08:27:58.671Z</time></trkpt><trkpt lat="40.7024989" lon="9.641644"><ele>183.0</ele><time>2026-04-11T08:27:59.672Z</time></trkpt><trkpt lat="40.7023822" lon="9.6416824"><ele>183.0</ele><time>2026-04-11T08:28:01.683Z</time></trkpt><trkpt lat="40.702289" lon="9.641656"><ele>183.0</ele><time>2026-04-11T08:28:03.79Z</time></trkpt><trkpt lat="40.7022496" lon="9.6415323"><ele>183.0</ele><time>2026-04-11T08:28:05.79Z</time></trkpt><trkpt lat="40.7022297" lon="9.6414407"><ele>183.0</ele><time>2026-04-11T08:28:06.76Z</time></trkpt><trkpt lat="40.7021919" lon="9.6413356"><ele>183.0</ele><time>2026-04-11T08:28:07.77Z</time></trkpt><trkpt lat="40.7021362" lon="9.6412406"><ele>183.0</ele><time>2026-04-11T08:28:08.774Z</time></trkpt><trkpt lat="40.7020756" lon="9.641153"><ele>183.2</ele><time>2026-04-11T08:28:09.767Z</time></trkpt><trkpt lat="40.702011" lon="9.6410678"><ele>183.4</ele><time>2026-04-11T08:28:10.776Z</time></trkpt><trkpt lat="40.7019425" lon="9.6409902"><ele>183.6</ele><time>2026-04-11T08:28:11.778Z</time></trkpt><trkpt lat="40.7018658" lon="9.640932"><ele>183.79999999999998</ele><time>2026-04-11T08:28:12.757Z</time></trkpt><trkpt lat="40.7017797" lon="9.64089"><ele>184.0</ele><time>2026-04-11T08:28:13.756Z</time></trkpt><trkpt lat="40.7016772" lon="9.6408642"><ele>184.75</ele><time>2026-04-11T08:28:14.749Z</time></trkpt><trkpt lat="40.7015608" lon="9.6408384"><ele>185.5</ele><time>2026-04-11T08:28:15.752Z</time></trkpt><trkpt lat="40.7014407" lon="9.6408005"><ele>186.25</ele><time>2026-04-11T08:28:16.75Z</time></trkpt><trkpt lat="40.7013148" lon="9.6407326"><ele>187.0</ele><time>2026-04-11T08:28:17.759Z</time></trkpt><trkpt lat="40.7011913" lon="9.6406414"><ele>187.75</ele><time>2026-04-11T08:28:18.756Z</time></trkpt><trkpt lat="40.7010778" lon="9.6405237"><ele>188.5</ele><time>2026-04-11T08:28:19.746Z</time></trkpt><trkpt lat="40.7009634" lon="9.6404231"><ele>189.25</ele><time>2026-04-11T08:28:20.755Z</time></trkpt><trkpt lat="40.7008433" lon="9.6403455"><ele>190.0</ele><time>2026-04-11T08:28:21.744Z</time></trkpt><trkpt lat="40.7007179" lon="9.6402854"><ele>190.0</ele><time>2026-04-11T08:28:22.738Z</time></trkpt><trkpt lat="40.7006003" lon="9.6402346"><ele>190.0</ele><time>2026-04-11T08:28:23.746Z</time></trkpt><trkpt lat="40.700496" lon="9.6402021"><ele>190.0</ele><time>2026-04-11T08:28:24.739Z</time></trkpt><trkpt lat="40.7004074" lon="9.6401989"><ele>190.0</ele><time>2026-04-11T08:28:25.734Z</time></trkpt><trkpt lat="40.7003388" lon="9.640216"><ele>190.0</ele><time>2026-04-11T08:28:26.759Z</time></trkpt><trkpt lat="40.7002878" lon="9.6403539"><ele>185.6</ele><time>2026-04-11T08:28:28.723Z</time></trkpt><trkpt lat="40.7003062" lon="9.6404559"><ele>181.2</ele><time>2026-04-11T08:28:29.736Z</time></trkpt><trkpt lat="40.7003613" lon="9.6405664"><ele>176.8</ele><time>2026-04-11T08:28:30.727Z</time></trkpt><trkpt lat="40.700438" lon="9.640694"><ele>172.4</ele><time>2026-04-11T08:28:31.741Z</time></trkpt><trkpt lat="40.7005123" lon="9.6408493"><ele>168.0</ele><time>2026-04-11T08:28:32.735Z</time></trkpt><trkpt lat="40.700574" lon="9.6410182"><ele>164.5</ele><time>2026-04-11T08:28:33.738Z</time></trkpt><trkpt lat="40.7006201" lon="9.6411891"><ele>161.0</ele><time>2026-04-11T08:28:34.721Z</time></trkpt><trkpt lat="40.7006553" lon="9.641363"><ele>157.5</ele><time>2026-04-11T08:28:35.731Z</time></trkpt><trkpt lat="40.7006876" lon="9.6415325"><ele>154.0</ele><time>2026-04-11T08:28:36.723Z</time></trkpt><trkpt lat="40.7007136" lon="9.6416886"><ele>154.0</ele><time>2026-04-11T08:28:37.727Z</time></trkpt><trkpt lat="40.7007189" lon="9.6418302"><ele>154.0</ele><time>2026-04-11T08:28:38.718Z</time></trkpt><trkpt lat="40.7007051" lon="9.6419724"><ele>154.0</ele><time>2026-04-11T08:28:39.726Z</time></trkpt><trkpt lat="40.7006759" lon="9.642108"><ele>154.0</ele><time>2026-04-11T08:28:40.717Z</time></trkpt><trkpt lat="40.7006415" lon="9.642244"><ele>154.0</ele><time>2026-04-11T08:28:41.729Z</time></trkpt><trkpt lat="40.7006098" lon="9.6423802"><ele>152.66666666666669</ele><time>2026-04-11T08:28:42.719Z</time></trkpt><trkpt lat="40.7005804" lon="9.6425073"><ele>151.33333333333334</ele><time>2026-04-11T08:28:43.71Z</time></trkpt><trkpt lat="40.700557" lon="9.6426122"><ele>150.0</ele><time>2026-04-11T08:28:44.716Z</time></trkpt><trkpt lat="40.7005461" lon="9.6427274"><ele>148.66666666666666</ele><time>2026-04-11T08:28:46.735Z</time></trkpt><trkpt lat="40.7005391" lon="9.6428194"><ele>147.33333333333331</ele><time>2026-04-11T08:28:51.701Z</time></trkpt><trkpt lat="40.7004987" lon="9.6429103"><ele>146.0</ele><time>2026-04-11T08:29:07.701Z</time></trkpt><trkpt lat="40.7004866" lon="9.6430119"><ele>145.5</ele><time>2026-04-11T08:29:10.684Z</time></trkpt><trkpt lat="40.7005079" lon="9.6430944"><ele>145.0</ele><time>2026-04-11T08:29:12.679Z</time></trkpt><trkpt lat="40.7005464" lon="9.6432089"><ele>144.5</ele><time>2026-04-11T08:29:15.677Z</time></trkpt><trkpt lat="40.700572" lon="9.6432865"><ele>144.0</ele><time>2026-04-11T08:29:17.682Z</time></trkpt><trkpt lat="40.7005965" lon="9.6434021"><ele>143.5</ele><time>2026-04-11T08:29:20.684Z</time></trkpt><trkpt lat="40.7005934" lon="9.6435584"><ele>143.0</ele><time>2026-04-11T08:30:43.785Z</time></trkpt><trkpt lat="40.7005745" lon="9.6436684"><ele>143.0</ele><time>2026-04-11T08:30:46.753Z</time></trkpt><trkpt lat="40.700524" lon="9.6437446"><ele>143.0</ele><time>2026-04-11T08:30:50.769Z</time></trkpt><trkpt lat="40.7004602" lon="9.6437594"><ele>143.0</ele><time>2026-04-11T08:30:54.768Z</time></trkpt><trkpt lat="40.7003777" lon="9.6437047"><ele>143.0</ele><time>2026-04-11T08:30:57.765Z</time></trkpt><trkpt lat="40.700321" lon="9.6436558"><ele>143.0</ele><time>2026-04-11T08:30:59.748Z</time></trkpt><trkpt lat="40.7002512" lon="9.6435721"><ele>143.0</ele><time>2026-04-11T08:31:01.766Z</time></trkpt><trkpt lat="40.7001997" lon="9.6434414"><ele>147.4</ele><time>2026-04-11T08:31:03.799Z</time></trkpt><trkpt lat="40.7001548" lon="9.643318"><ele>151.8</ele><time>2026-04-11T08:31:05.747Z</time></trkpt><trkpt lat="40.7001108" lon="9.6432132"><ele>156.2</ele><time>2026-04-11T08:31:07.744Z</time></trkpt><trkpt lat="40.7000667" lon="9.6430919"><ele>160.6</ele><time>2026-04-11T08:31:09.736Z</time></trkpt><trkpt lat="40.7000135" lon="9.6429535"><ele>165.0</ele><time>2026-04-11T08:31:11.728Z</time></trkpt><trkpt lat="40.6999846" lon="9.6428752"><ele>164.71428571428572</ele><time>2026-04-11T08:31:12.723Z</time></trkpt><trkpt lat="40.6999562" lon="9.6427934"><ele>164.42857142857144</ele><time>2026-04-11T08:31:13.753Z</time></trkpt><trkpt lat="40.6999288" lon="9.6427109"><ele>164.14285714285717</ele><time>2026-04-11T08:31:14.724Z</time></trkpt><trkpt lat="40.6998996" lon="9.6426303"><ele>163.85714285714286</ele><time>2026-04-11T08:31:15.722Z</time></trkpt><trkpt lat="40.6998722" lon="9.6425515"><ele>163.57142857142856</ele><time>2026-04-11T08:31:16.729Z</time></trkpt><trkpt lat="40.6998379" lon="9.6424676"><ele>163.2857142857143</ele><time>2026-04-11T08:31:17.731Z</time></trkpt><trkpt lat="40.6998062" lon="9.64238"><ele>163.0</ele><time>2026-04-11T08:31:18.754Z</time></trkpt><trkpt lat="40.6997768" lon="9.6422974"><ele>163.0</ele><time>2026-04-11T08:31:19.725Z</time></trkpt><trkpt lat="40.6997461" lon="9.6422216"><ele>163.0</ele><time>2026-04-11T08:31:20.722Z</time></trkpt><trkpt lat="40.6996912" lon="9.6420865"><ele>163.0</ele><time>2026-04-11T08:31:22.729Z</time></trkpt><trkpt lat="40.6996583" lon="9.6419507"><ele>163.0</ele><time>2026-04-11T08:31:24.715Z</time></trkpt><trkpt lat="40.6996474" lon="9.6417875"><ele>163.0</ele><time>2026-04-11T08:31:26.715Z</time></trkpt><trkpt lat="40.6996471" lon="9.6416972"><ele>163.0</ele><time>2026-04-11T08:31:27.724Z</time></trkpt><trkpt lat="40.6996454" lon="9.641603"><ele>163.0</ele><time>2026-04-11T08:31:28.706Z</time></trkpt><trkpt lat="40.6996384" lon="9.6415046"><ele>163.0</ele><time>2026-04-11T08:31:29.706Z</time></trkpt><trkpt lat="40.6996226" lon="9.6414101"><ele>163.0</ele><time>2026-04-11T08:31:30.711Z</time></trkpt><trkpt lat="40.6995996" lon="9.6413317"><ele>163.0</ele><time>2026-04-11T08:31:31.715Z</time></trkpt><trkpt lat="40.6995209" lon="9.6412219"><ele>163.0</ele><time>2026-04-11T08:31:33.71Z</time></trkpt><trkpt lat="40.6994497" lon="9.6411082"><ele>163.0</ele><time>2026-04-11T08:31:35.709Z</time></trkpt><trkpt lat="40.699432" lon="9.6409641"><ele>163.0</ele><time>2026-04-11T08:31:37.706Z</time></trkpt><trkpt lat="40.6994332" lon="9.6408718"><ele>163.0</ele><time>2026-04-11T08:31:38.715Z</time></trkpt><trkpt lat="40.6994254" lon="9.6407797"><ele>163.0</ele><time>2026-04-11T08:31:39.712Z</time></trkpt><trkpt lat="40.6994143" lon="9.6406891"><ele>163.0</ele><time>2026-04-11T08:31:40.706Z</time></trkpt><trkpt lat="40.6993978" lon="9.6405979"><ele>163.0</ele><time>2026-04-11T08:31:41.7Z</time></trkpt><trkpt lat="40.6993749" lon="9.6405038"><ele>166.57142857142858</ele><time>2026-04-11T08:31:42.731Z</time></trkpt><trkpt lat="40.6993449" lon="9.6404151"><ele>170.14285714285714</ele><time>2026-04-11T08:31:43.7Z</time></trkpt><trkpt lat="40.6993129" lon="9.6403358"><ele>173.71428571428572</ele><time>2026-04-11T08:31:44.698Z</time></trkpt><trkpt lat="40.6992755" lon="9.6402624"><ele>177.28571428571428</ele><time>2026-04-11T08:31:45.704Z</time></trkpt><trkpt lat="40.69923" lon="9.6401888"><ele>180.85714285714283</ele><time>2026-04-11T08:31:46.694Z</time></trkpt><trkpt lat="40.6991845" lon="9.6401026"><ele>184.42857142857142</ele><time>2026-04-11T08:31:47.713Z</time></trkpt><trkpt lat="40.6991396" lon="9.6400136"><ele>188.0</ele><time>2026-04-11T08:31:48.696Z</time></trkpt><trkpt lat="40.6990935" lon="9.639927"><ele>188.0</ele><time>2026-04-11T08:31:49.697Z</time></trkpt><trkpt lat="40.6990541" lon="9.6398495"><ele>188.0</ele><time>2026-04-11T08:31:50.701Z</time></trkpt><trkpt lat="40.6989674" lon="9.639731"><ele>188.0</ele><time>2026-04-11T08:31:52.714Z</time></trkpt><trkpt lat="40.6988551" lon="9.6396429"><ele>188.0</ele><time>2026-04-11T08:31:54.703Z</time></trkpt><trkpt lat="40.6987911" lon="9.6395993"><ele>188.0</ele><time>2026-04-11T08:31:55.707Z</time></trkpt><trkpt lat="40.6987299" lon="9.6395508"><ele>188.0</ele><time>2026-04-11T08:31:56.702Z</time></trkpt><trkpt lat="40.6986713" lon="9.6394936"><ele>188.0</ele><time>2026-04-11T08:31:57.695Z</time></trkpt><trkpt lat="40.6986157" lon="9.639439"><ele>188.0</ele><time>2026-04-11T08:31:58.696Z</time></trkpt><trkpt lat="40.6985625" lon="9.639388"><ele>188.0</ele><time>2026-04-11T08:31:59.687Z</time></trkpt><trkpt lat="40.6985097" lon="9.6393419"><ele>188.0</ele><time>2026-04-11T08:32:00.706Z</time></trkpt><trkpt lat="40.6984591" lon="9.6392917"><ele>188.0</ele><time>2026-04-11T08:32:01.684Z</time></trkpt><trkpt lat="40.6984005" lon="9.6392295"><ele>188.0</ele><time>2026-04-11T08:32:02.677Z</time></trkpt><trkpt lat="40.6983369" lon="9.6391676"><ele>192.4</ele><time>2026-04-11T08:32:03.687Z</time></trkpt><trkpt lat="40.698269" lon="9.6391138"><ele>196.8</ele><time>2026-04-11T08:32:04.686Z</time></trkpt><trkpt lat="40.6982071" lon="9.6390625"><ele>201.2</ele><time>2026-04-11T08:32:05.68Z</time></trkpt><trkpt lat="40.6981094" lon="9.6389697"><ele>205.6</ele><time>2026-04-11T08:32:07.686Z</time></trkpt><trkpt lat="40.6980082" lon="9.6388949"><ele>210.0</ele><time>2026-04-11T08:32:09.697Z</time></trkpt><trkpt lat="40.697951" lon="9.6387747"><ele>209.6</ele><time>2026-04-11T08:32:11.689Z</time></trkpt><trkpt lat="40.6979436" lon="9.6386133"><ele>209.2</ele><time>2026-04-11T08:32:13.672Z</time></trkpt><trkpt lat="40.6979403" lon="9.6385166"><ele>208.8</ele><time>2026-04-11T08:32:14.684Z</time></trkpt><trkpt lat="40.6979298" lon="9.6383606"><ele>208.4</ele><time>2026-04-11T08:32:16.667Z</time></trkpt><trkpt lat="40.6978992" lon="9.6382056"><ele>208.0</ele><time>2026-04-11T08:32:18.683Z</time></trkpt><trkpt lat="40.6978427" lon="9.6380877"><ele>208.0</ele><time>2026-04-11T08:32:20.682Z</time></trkpt><trkpt lat="40.6977785" lon="9.6379668"><ele>208.0</ele><time>2026-04-11T08:32:22.672Z</time></trkpt><trkpt lat="40.6977226" lon="9.6378453"><ele>208.0</ele><time>2026-04-11T08:32:24.671Z</time></trkpt><trkpt lat="40.6977081" lon="9.6377033"><ele>208.0</ele><time>2026-04-11T08:32:26.682Z</time></trkpt><trkpt lat="40.6977223" lon="9.6375473"><ele>208.0</ele><time>2026-04-11T08:32:28.785Z</time></trkpt><trkpt lat="40.6977248" lon="9.6374201"><ele>216.2</ele><time>2026-04-11T08:32:30.762Z</time></trkpt><trkpt lat="40.6976972" lon="9.6373208"><ele>224.4</ele><time>2026-04-11T08:32:32.76Z</time></trkpt><trkpt lat="40.6976532" lon="9.6372037"><ele>232.59999999999997</ele><time>2026-04-11T08:32:34.765Z</time></trkpt><trkpt lat="40.6975969" lon="9.6370918"><ele>240.79999999999998</ele><time>2026-04-11T08:32:36.783Z</time></trkpt><trkpt lat="40.697525" lon="9.6369829"><ele>249.0</ele><time>2026-04-11T08:32:38.752Z</time></trkpt><trkpt lat="40.6974378" lon="9.6368712"><ele>249.0</ele><time>2026-04-11T08:32:40.764Z</time></trkpt><trkpt lat="40.6973477" lon="9.6367706"><ele>249.0</ele><time>2026-04-11T08:32:42.752Z</time></trkpt><trkpt lat="40.6972953" lon="9.6367203"><ele>249.0</ele><time>2026-04-11T08:32:43.747Z</time></trkpt><trkpt lat="40.6972387" lon="9.6366784"><ele>249.0</ele><time>2026-04-11T08:32:44.739Z</time></trkpt><trkpt lat="40.6971778" lon="9.6366448"><ele>249.0</ele><time>2026-04-11T08:32:45.773Z</time></trkpt><trkpt lat="40.6970626" lon="9.6366043"><ele>249.0</ele><time>2026-04-11T08:32:47.742Z</time></trkpt><trkpt lat="40.6969863" lon="9.6366188"><ele>249.0</ele><time>2026-04-11T08:32:49.745Z</time></trkpt><trkpt lat="40.6969992" lon="9.6367324"><ele>249.0</ele><time>2026-04-11T08:32:52.732Z</time></trkpt><trkpt lat="40.6970624" lon="9.6368389"><ele>249.0</ele><time>2026-04-11T08:32:54.742Z</time></trkpt><trkpt lat="40.6970993" lon="9.6369132"><ele>249.0</ele><time>2026-04-11T08:32:55.741Z</time></trkpt><trkpt lat="40.6971333" lon="9.6369902"><ele>249.0</ele><time>2026-04-11T08:32:56.763Z</time></trkpt><trkpt lat="40.6971672" lon="9.6370698"><ele>249.0</ele><time>2026-04-11T08:32:57.734Z</time></trkpt><trkpt lat="40.6971966" lon="9.6371445"><ele>249.0</ele><time>2026-04-11T08:32:58.735Z</time></trkpt><trkpt lat="40.6972176" lon="9.637236"><ele>249.0</ele><time>2026-04-11T08:32:59.728Z</time></trkpt><trkpt lat="40.6972335" lon="9.6373254"><ele>249.0</ele><time>2026-04-11T08:33:00.719Z</time></trkpt><trkpt lat="40.6972435" lon="9.6374106"><ele>249.0</ele><time>2026-04-11T08:33:01.725Z</time></trkpt><trkpt lat="40.6972432" lon="9.6374958"><ele>249.0</ele><time>2026-04-11T08:33:02.736Z</time></trkpt><trkpt lat="40.6972293" lon="9.6376587"><ele>249.0</ele><time>2026-04-11T08:33:04.726Z</time></trkpt><trkpt lat="40.6972131" lon="9.6377524"><ele>248.83333333333334</ele><time>2026-04-11T08:33:05.753Z</time></trkpt><trkpt lat="40.6971916" lon="9.637835"><ele>248.66666666666669</ele><time>2026-04-11T08:33:06.717Z</time></trkpt><trkpt lat="40.6971745" lon="9.6379328"><ele>248.5</ele><time>2026-04-11T08:33:07.725Z</time></trkpt><trkpt lat="40.6971687" lon="9.6380172"><ele>248.33333333333334</ele><time>2026-04-11T08:33:08.722Z</time></trkpt><trkpt lat="40.6971771" lon="9.6381802"><ele>248.16666666666669</ele><time>2026-04-11T08:33:10.717Z</time></trkpt><trkpt lat="40.6971863" lon="9.638267"><ele>248.0</ele><time>2026-04-11T08:33:11.745Z</time></trkpt><trkpt lat="40.6971848" lon="9.6384262"><ele>248.0</ele><time>2026-04-11T08:33:13.728Z</time></trkpt><trkpt lat="40.6971457" lon="9.6385568"><ele>248.0</ele><time>2026-04-11T08:33:15.712Z</time></trkpt><trkpt lat="40.6970794" lon="9.6386629"><ele>248.0</ele><time>2026-04-11T08:33:17.714Z</time></trkpt><trkpt lat="40.6970004" lon="9.6387448"><ele>248.0</ele><time>2026-04-11T08:33:19.709Z</time></trkpt><trkpt lat="40.6969406" lon="9.638828"><ele>248.0</ele><time>2026-04-11T08:33:21.719Z</time></trkpt><trkpt lat="40.6968833" lon="9.6389528"><ele>256.8</ele><time>2026-04-11T08:33:23.707Z</time></trkpt><trkpt lat="40.6968332" lon="9.6390743"><ele>265.6</ele><time>2026-04-11T08:33:25.704Z</time></trkpt><trkpt lat="40.6967886" lon="9.6392007"><ele>274.4</ele><time>2026-04-11T08:33:27.71Z</time></trkpt><trkpt lat="40.6967809" lon="9.6393157"><ele>283.2</ele><time>2026-04-11T08:33:29.708Z</time></trkpt><trkpt lat="40.6968113" lon="9.6394485"><ele>292.0</ele><time>2026-04-11T08:33:31.701Z</time></trkpt><trkpt lat="40.696857" lon="9.6395799"><ele>292.0</ele><time>2026-04-11T08:33:33.701Z</time></trkpt><trkpt lat="40.6968977" lon="9.6396918"><ele>292.0</ele><time>2026-04-11T08:33:35.693Z</time></trkpt><trkpt lat="40.6969444" lon="9.639792"><ele>292.0</ele><time>2026-04-11T08:33:37.689Z</time></trkpt><trkpt lat="40.6969899" lon="9.6398948"><ele>292.0</ele><time>2026-04-11T08:33:39.695Z</time></trkpt><trkpt lat="40.6970116" lon="9.6400248"><ele>292.0</ele><time>2026-04-11T08:33:41.687Z</time></trkpt><trkpt lat="40.6969304" lon="9.6399925"><ele>292.0</ele><time>2026-04-11T08:33:47.687Z</time></trkpt><trkpt lat="40.6968619" lon="9.6399092"><ele>292.0</ele><time>2026-04-11T08:33:49.676Z</time></trkpt><trkpt lat="40.6967733" lon="9.6398454"><ele>292.0</ele><time>2026-04-11T08:33:51.684Z</time></trkpt><trkpt lat="40.6967083" lon="9.6398165"><ele>292.0</ele><time>2026-04-11T08:33:52.703Z</time></trkpt><trkpt lat="40.6966354" lon="9.6397983"><ele>292.0</ele><time>2026-04-11T08:33:53.683Z</time></trkpt><trkpt lat="40.6965663" lon="9.6397834"><ele>292.0</ele><time>2026-04-11T08:33:54.68Z</time></trkpt><trkpt lat="40.6964451" lon="9.6397529"><ele>292.0</ele><time>2026-04-11T08:33:56.677Z</time></trkpt><trkpt lat="40.6963295" lon="9.6397141"><ele>292.0</ele><time>2026-04-11T08:33:58.673Z</time></trkpt><trkpt lat="40.6962024" lon="9.6396872"><ele>292.0</ele><time>2026-04-11T08:34:00.664Z</time></trkpt><trkpt lat="40.696131" lon="9.6396918"><ele>292.0</ele><time>2026-04-11T08:34:01.691Z</time></trkpt><trkpt lat="40.6960231" lon="9.6397071"><ele>292.0</ele><time>2026-04-11T08:34:03.688Z</time></trkpt><trkpt lat="40.6959224" lon="9.6397046"><ele>294.4</ele><time>2026-04-11T08:34:05.771Z</time></trkpt><trkpt lat="40.695815" lon="9.6397119"><ele>296.79999999999995</ele><time>2026-04-11T08:34:07.772Z</time></trkpt><trkpt lat="40.6957504" lon="9.6397229"><ele>299.2</ele><time>2026-04-11T08:34:08.76Z</time></trkpt><trkpt lat="40.6956381" lon="9.6397528"><ele>301.59999999999997</ele><time>2026-04-11T08:34:10.757Z</time></trkpt><trkpt lat="40.6955351" lon="9.6397539"><ele>304.0</ele><time>2026-04-11T08:34:12.756Z</time></trkpt><trkpt lat="40.6954132" lon="9.6396942"><ele>304.0</ele><time>2026-04-11T08:34:14.759Z</time></trkpt><trkpt lat="40.6953457" lon="9.6396514"><ele>304.0</ele><time>2026-04-11T08:34:15.75Z</time></trkpt><trkpt lat="40.6952796" lon="9.6396124"><ele>304.0</ele><time>2026-04-11T08:34:16.775Z</time></trkpt><trkpt lat="40.6952179" lon="9.6395803"><ele>304.0</ele><time>2026-04-11T08:34:17.756Z</time></trkpt><trkpt lat="40.6951004" lon="9.6395443"><ele>304.0</ele><time>2026-04-11T08:34:19.757Z</time></trkpt><trkpt lat="40.694971" lon="9.6395207"><ele>303.8333333333333</ele><time>2026-04-11T08:34:21.768Z</time></trkpt><trkpt lat="40.6949075" lon="9.6395224"><ele>303.66666666666663</ele><time>2026-04-11T08:34:22.757Z</time></trkpt><trkpt lat="40.6948407" lon="9.6395378"><ele>303.5</ele><time>2026-04-11T08:34:23.756Z</time></trkpt><trkpt lat="40.6947777" lon="9.6395529"><ele>303.3333333333333</ele><time>2026-04-11T08:34:24.771Z</time></trkpt><trkpt lat="40.6946649" lon="9.6395626"><ele>303.1666666666667</ele><time>2026-04-11T08:34:26.764Z</time></trkpt><trkpt lat="40.6945863" lon="9.6395388"><ele>303.0</ele><time>2026-04-11T08:34:28.754Z</time></trkpt><trkpt lat="40.6944658" lon="9.6395116"><ele>303.6666666666667</ele><time>2026-04-11T08:34:30.745Z</time></trkpt><trkpt lat="40.6944012" lon="9.6395144"><ele>304.3333333333333</ele><time>2026-04-11T08:34:31.747Z</time></trkpt><trkpt lat="40.6943357" lon="9.6395255"><ele>305.0</ele><time>2026-04-11T08:34:32.768Z</time></trkpt><trkpt lat="40.6942176" lon="9.6395461"><ele>305.66666666666663</ele><time>2026-04-11T08:34:34.735Z</time></trkpt><trkpt lat="40.6940967" lon="9.6395574"><ele>306.3333333333333</ele><time>2026-04-11T08:34:36.749Z</time></trkpt><trkpt lat="40.6940324" lon="9.6395639"><ele>307.0</ele><time>2026-04-11T08:34:37.741Z</time></trkpt><trkpt lat="40.6939604" lon="9.6395787"><ele>307.0</ele><time>2026-04-11T08:34:38.74Z</time></trkpt><trkpt lat="40.6938867" lon="9.6395933"><ele>307.0</ele><time>2026-04-11T08:34:39.735Z</time></trkpt><trkpt lat="40.6938092" lon="9.6396058"><ele>307.0</ele><time>2026-04-11T08:34:40.735Z</time></trkpt><trkpt lat="40.6937356" lon="9.6396198"><ele>307.0</ele><time>2026-04-11T08:34:41.747Z</time></trkpt><trkpt lat="40.6936275" lon="9.6396424"><ele>307.0</ele><time>2026-04-11T08:34:43.728Z</time></trkpt><trkpt lat="40.6935254" lon="9.6396908"><ele>307.0</ele><time>2026-04-11T08:34:45.741Z</time></trkpt><trkpt lat="40.6934256" lon="9.6397872"><ele>308.2</ele><time>2026-04-11T08:34:47.739Z</time></trkpt><trkpt lat="40.6933426" lon="9.6399044"><ele>309.4</ele><time>2026-04-11T08:34:49.733Z</time></trkpt><trkpt lat="40.6932629" lon="9.6400193"><ele>310.6</ele><time>2026-04-11T08:34:51.722Z</time></trkpt><trkpt lat="40.6931996" lon="9.6401646"><ele>311.8</ele><time>2026-04-11T08:34:53.744Z</time></trkpt><trkpt lat="40.6931678" lon="9.6402421"><ele>313.0</ele><time>2026-04-11T08:34:54.717Z</time></trkpt><trkpt lat="40.6931465" lon="9.6403225"><ele>313.0</ele><time>2026-04-11T08:34:55.739Z</time></trkpt><trkpt lat="40.6931278" lon="9.6404018"><ele>313.0</ele><time>2026-04-11T08:34:56.724Z</time></trkpt><trkpt lat="40.6931074" lon="9.6404833"><ele>313.0</ele><time>2026-04-11T08:34:57.723Z</time></trkpt><trkpt lat="40.6930751" lon="9.6406362"><ele>313.0</ele><time>2026-04-11T08:34:59.709Z</time></trkpt><trkpt lat="40.6930485" lon="9.6407463"><ele>313.0</ele><time>2026-04-11T08:35:01.715Z</time></trkpt><trkpt lat="40.693069" lon="9.6409052"><ele>313.0</ele><time>2026-04-11T08:37:25.678Z</time></trkpt><trkpt lat="40.6930906" lon="9.6410413"><ele>313.0</ele><time>2026-04-11T08:37:27.672Z</time></trkpt><trkpt lat="40.6930884" lon="9.6411354"><ele>313.0</ele><time>2026-04-11T08:37:28.668Z</time></trkpt><trkpt lat="40.6930838" lon="9.6412321"><ele>313.0</ele><time>2026-04-11T08:37:29.668Z</time></trkpt><trkpt lat="40.6930734" lon="9.6413333"><ele>313.0</ele><time>2026-04-11T08:37:30.677Z</time></trkpt><trkpt lat="40.6930538" lon="9.6414345"><ele>313.0</ele><time>2026-04-11T08:37:31.675Z</time></trkpt><trkpt lat="40.6930244" lon="9.6415279"><ele>311.42857142857144</ele><time>2026-04-11T08:37:32.666Z</time></trkpt><trkpt lat="40.692989" lon="9.6416166"><ele>309.8571428571429</ele><time>2026-04-11T08:37:33.657Z</time></trkpt><trkpt lat="40.69295" lon="9.6417013"><ele>308.28571428571433</ele><time>2026-04-11T08:37:34.668Z</time></trkpt><trkpt lat="40.6929087" lon="9.6417771"><ele>306.7142857142857</ele><time>2026-04-11T08:37:35.779Z</time></trkpt><trkpt lat="40.6928708" lon="9.6418474"><ele>305.14285714285717</ele><time>2026-04-11T08:37:36.758Z</time></trkpt><trkpt lat="40.6928346" lon="9.6419248"><ele>303.5714285714286</ele><time>2026-04-11T08:37:37.803Z</time></trkpt><trkpt lat="40.6928077" lon="9.6420099"><ele>302.0</ele><time>2026-04-11T08:37:38.762Z</time></trkpt><trkpt lat="40.6927942" lon="9.6420994"><ele>301.5</ele><time>2026-04-11T08:37:39.767Z</time></trkpt><trkpt lat="40.6927873" lon="9.6421946"><ele>301.0</ele><time>2026-04-11T08:37:40.76Z</time></trkpt><trkpt lat="40.6927834" lon="9.642292"><ele>300.5</ele><time>2026-04-11T08:37:41.757Z</time></trkpt><trkpt lat="40.6927812" lon="9.6423886"><ele>300.0</ele><time>2026-04-11T08:37:42.774Z</time></trkpt><trkpt lat="40.6927754" lon="9.6424771"><ele>299.5</ele><time>2026-04-11T08:37:43.76Z</time></trkpt><trkpt lat="40.6927239" lon="9.6426282"><ele>299.0</ele><time>2026-04-11T08:37:45.751Z</time></trkpt><trkpt lat="40.6926751" lon="9.6426865"><ele>299.0</ele><time>2026-04-11T08:37:46.754Z</time></trkpt><trkpt lat="40.6925703" lon="9.6427462"><ele>299.0</ele><time>2026-04-11T08:37:48.759Z</time></trkpt><trkpt lat="40.6924701" lon="9.6427572"><ele>299.0</ele><time>2026-04-11T08:37:50.75Z</time></trkpt><trkpt lat="40.6923642" lon="9.642748"><ele>299.0</ele><time>2026-04-11T08:37:52.789Z</time></trkpt><trkpt lat="40.6922689" lon="9.642712"><ele>299.0</ele><time>2026-04-11T08:37:54.743Z</time></trkpt><trkpt lat="40.6921804" lon="9.642604"><ele>299.0</ele><time>2026-04-11T08:37:56.759Z</time></trkpt><trkpt lat="40.6921254" lon="9.6424647"><ele>299.0</ele><time>2026-04-11T08:37:58.798Z</time></trkpt><trkpt lat="40.6920983" lon="9.6423423"><ele>299.0</ele><time>2026-04-11T08:38:00.734Z</time></trkpt><trkpt lat="40.6920261" lon="9.6423475"><ele>299.0</ele><time>2026-04-11T08:38:03.76Z</time></trkpt><trkpt lat="40.6920126" lon="9.6424665"><ele>299.0</ele><time>2026-04-11T08:38:05.736Z</time></trkpt><trkpt lat="40.692022" lon="9.6426171"><ele>299.0</ele><time>2026-04-11T08:38:07.732Z</time></trkpt><trkpt lat="40.6920272" lon="9.6427269"><ele>299.0</ele><time>2026-04-11T08:38:09.738Z</time></trkpt><trkpt lat="40.691954" lon="9.6427064"><ele>299.0</ele><time>2026-04-11T08:38:12.728Z</time></trkpt><trkpt lat="40.6919253" lon="9.6425708"><ele>299.0</ele><time>2026-04-11T08:38:14.723Z</time></trkpt><trkpt lat="40.6919051" lon="9.6424881"><ele>299.0</ele><time>2026-04-11T08:38:15.736Z</time></trkpt><trkpt lat="40.6918917" lon="9.6424023"><ele>299.0</ele><time>2026-04-11T08:38:16.719Z</time></trkpt><trkpt lat="40.691858" lon="9.642279"><ele>291.8</ele><time>2026-04-11T08:38:18.72Z</time></trkpt><trkpt lat="40.6917978" lon="9.6423741"><ele>284.59999999999997</ele><time>2026-04-11T08:38:21.746Z</time></trkpt><trkpt lat="40.6918074" lon="9.6425415"><ele>277.4</ele><time>2026-04-11T08:38:23.709Z</time></trkpt><trkpt lat="40.6918139" lon="9.6426479"><ele>270.2</ele><time>2026-04-11T08:38:24.723Z</time></trkpt><trkpt lat="40.6918209" lon="9.64276"><ele>263.0</ele><time>2026-04-11T08:38:25.722Z</time></trkpt><trkpt lat="40.6918279" lon="9.6428857"><ele>260.8</ele><time>2026-04-11T08:38:26.708Z</time></trkpt><trkpt lat="40.6918354" lon="9.6430164"><ele>258.6</ele><time>2026-04-11T08:38:27.703Z</time></trkpt><trkpt lat="40.6918481" lon="9.6431433"><ele>256.4</ele><time>2026-04-11T08:38:28.704Z</time></trkpt><trkpt lat="40.6918675" lon="9.6432628"><ele>254.2</ele><time>2026-04-11T08:38:29.699Z</time></trkpt><trkpt lat="40.6918843" lon="9.6433815"><ele>252.0</ele><time>2026-04-11T08:38:30.694Z</time></trkpt><trkpt lat="40.6919049" lon="9.6434917"><ele>252.0</ele><time>2026-04-11T08:38:31.705Z</time></trkpt><trkpt lat="40.6919315" lon="9.6435767"><ele>252.0</ele><time>2026-04-11T08:38:32.696Z</time></trkpt><trkpt lat="40.691957" lon="9.6436887"><ele>252.0</ele><time>2026-04-11T08:38:34.695Z</time></trkpt><trkpt lat="40.6918869" lon="9.6437117"><ele>252.0</ele><time>2026-04-11T08:38:37.696Z</time></trkpt><trkpt lat="40.6918287" lon="9.6436183"><ele>252.0</ele><time>2026-04-11T08:38:40.695Z</time></trkpt><trkpt lat="40.6917554" lon="9.6435358"><ele>252.0</ele><time>2026-04-11T08:38:42.711Z</time></trkpt><trkpt lat="40.6916795" lon="9.6434027"><ele>252.0</ele><time>2026-04-11T08:38:44.705Z</time></trkpt><trkpt lat="40.6916432" lon="9.6433257"><ele>252.0</ele><time>2026-04-11T08:38:45.682Z</time></trkpt><trkpt lat="40.6916059" lon="9.6432448"><ele>252.0</ele><time>2026-04-11T08:38:46.688Z</time></trkpt><trkpt lat="40.6915706" lon="9.6431633"><ele>252.0</ele><time>2026-04-11T08:38:47.686Z</time></trkpt><trkpt lat="40.6915398" lon="9.643079"><ele>252.0</ele><time>2026-04-11T08:38:48.686Z</time></trkpt><trkpt lat="40.6915175" lon="9.642994"><ele>252.0</ele><time>2026-04-11T08:38:49.677Z</time></trkpt><trkpt lat="40.6915077" lon="9.6429008"><ele>252.0</ele><time>2026-04-11T08:38:50.691Z</time></trkpt><trkpt lat="40.6915075" lon="9.642802"><ele>253.57142857142856</ele><time>2026-04-11T08:38:51.683Z</time></trkpt><trkpt lat="40.6915064" lon="9.6427058"><ele>255.14285714285714</ele><time>2026-04-11T08:38:52.671Z</time></trkpt><trkpt lat="40.6915033" lon="9.6426099"><ele>256.7142857142857</ele><time>2026-04-11T08:38:53.676Z</time></trkpt><trkpt lat="40.6914933" lon="9.6425165"><ele>258.2857142857143</ele><time>2026-04-11T08:38:54.676Z</time></trkpt><trkpt lat="40.6914776" lon="9.6424254"><ele>259.85714285714283</ele><time>2026-04-11T08:38:55.674Z</time></trkpt><trkpt lat="40.691457" lon="9.6423352"><ele>261.42857142857144</ele><time>2026-04-11T08:38:56.669Z</time></trkpt><trkpt lat="40.6914325" lon="9.6422473"><ele>263.0</ele><time>2026-04-11T08:38:57.68Z</time></trkpt><trkpt lat="40.6914044" lon="9.6421575"><ele>263.0</ele><time>2026-04-11T08:38:58.694Z</time></trkpt><trkpt lat="40.6913606" lon="9.6420717"><ele>263.0</ele><time>2026-04-11T08:38:59.683Z</time></trkpt><trkpt lat="40.691302" lon="9.6419999"><ele>263.0</ele><time>2026-04-11T08:39:00.668Z</time></trkpt><trkpt lat="40.691232" lon="9.6419412"><ele>263.0</ele><time>2026-04-11T08:39:01.669Z</time></trkpt><trkpt lat="40.6911567" lon="9.6418929"><ele>263.0</ele><time>2026-04-11T08:39:02.676Z</time></trkpt><trkpt lat="40.6910805" lon="9.641843"><ele>263.0</ele><time>2026-04-11T08:39:03.668Z</time></trkpt><trkpt lat="40.6910085" lon="9.6417882"><ele>258.1666666666667</ele><time>2026-04-11T08:39:04.665Z</time></trkpt><trkpt lat="40.6909436" lon="9.6417291"><ele>253.33333333333334</ele><time>2026-04-11T08:39:05.665Z</time></trkpt><trkpt lat="40.6908839" lon="9.641666"><ele>248.5</ele><time>2026-04-11T08:39:06.671Z</time></trkpt><trkpt lat="40.6908247" lon="9.6416016"><ele>243.66666666666669</ele><time>2026-04-11T08:39:07.665Z</time></trkpt><trkpt lat="40.690764" lon="9.6415282"><ele>238.83333333333334</ele><time>2026-04-11T08:39:08.785Z</time></trkpt><trkpt lat="40.6907157" lon="9.6414502"><ele>234.0</ele><time>2026-04-11T08:39:09.763Z</time></trkpt><trkpt lat="40.6906772" lon="9.6413711"><ele>234.0</ele><time>2026-04-11T08:39:10.664Z</time></trkpt><trkpt lat="40.6906021" lon="9.6412609"><ele>233.99999999999997</ele><time>2026-04-11T08:39:12.767Z</time></trkpt><trkpt lat="40.6905194" lon="9.6412755"><ele>233.99999999999997</ele><time>2026-04-11T08:39:14.766Z</time></trkpt><trkpt lat="40.6905158" lon="9.6413698"><ele>234.0</ele><time>2026-04-11T08:39:16.752Z</time></trkpt><trkpt lat="40.6905904" lon="9.6415147"><ele>234.0</ele><time>2026-04-11T08:39:18.758Z</time></trkpt><trkpt lat="40.690621" lon="9.6416153"><ele>234.0</ele><time>2026-04-11T08:39:19.77Z</time></trkpt><trkpt lat="40.6906417" lon="9.6417199"><ele>234.0</ele><time>2026-04-11T08:39:20.759Z</time></trkpt><trkpt lat="40.6906611" lon="9.6418253"><ele>234.0</ele><time>2026-04-11T08:39:21.768Z</time></trkpt><trkpt lat="40.6906958" lon="9.6419291"><ele>234.0</ele><time>2026-04-11T08:39:22.766Z</time></trkpt><trkpt lat="40.6907407" lon="9.6420333"><ele>234.0</ele><time>2026-04-11T08:39:23.75Z</time></trkpt><trkpt lat="40.6907942" lon="9.6421237"><ele>234.0</ele><time>2026-04-11T08:39:24.747Z</time></trkpt><trkpt lat="40.6908492" lon="9.6421901"><ele>231.33333333333334</ele><time>2026-04-11T08:39:25.761Z</time></trkpt><trkpt lat="40.6908957" lon="9.6422474"><ele>228.66666666666669</ele><time>2026-04-11T08:39:26.751Z</time></trkpt><trkpt lat="40.6908875" lon="9.642358"><ele>226.0</ele><time>2026-04-11T08:39:28.749Z</time></trkpt><trkpt lat="40.6907903" lon="9.6423573"><ele>223.33333333333334</ele><time>2026-04-11T08:39:30.731Z</time></trkpt><trkpt lat="40.6907349" lon="9.6423135"><ele>220.66666666666669</ele><time>2026-04-11T08:39:31.771Z</time></trkpt><trkpt lat="40.69068" lon="9.6422682"><ele>218.0</ele><time>2026-04-11T08:39:32.759Z</time></trkpt><trkpt lat="40.6905794" lon="9.6421954"><ele>218.0</ele><time>2026-04-11T08:39:34.742Z</time></trkpt><trkpt lat="40.6904691" lon="9.6421277"><ele>218.0</ele><time>2026-04-11T08:39:36.729Z</time></trkpt><trkpt lat="40.6903692" lon="9.6420273"><ele>218.0</ele><time>2026-04-11T08:39:38.742Z</time></trkpt><trkpt lat="40.6903195" lon="9.64196"><ele>218.0</ele><time>2026-04-11T08:39:39.723Z</time></trkpt><trkpt lat="40.6902652" lon="9.6418908"><ele>218.0</ele><time>2026-04-11T08:39:40.722Z</time></trkpt><trkpt lat="40.6901984" lon="9.6418352"><ele>214.8</ele><time>2026-04-11T08:39:41.725Z</time></trkpt><trkpt lat="40.6901239" lon="9.6418023"><ele>211.60000000000002</ele><time>2026-04-11T08:39:42.728Z</time></trkpt><trkpt lat="40.690055" lon="9.6417873"><ele>208.39999999999998</ele><time>2026-04-11T08:39:43.735Z</time></trkpt><trkpt lat="40.6899486" lon="9.6417966"><ele>205.2</ele><time>2026-04-11T08:39:45.735Z</time></trkpt><trkpt lat="40.6899306" lon="9.6418916"><ele>202.0</ele><time>2026-04-11T08:39:47.726Z</time></trkpt><trkpt lat="40.6900135" lon="9.6420139"><ele>204.66666666666666</ele><time>2026-04-11T08:39:49.726Z</time></trkpt><trkpt lat="40.6900731" lon="9.642071"><ele>207.33333333333331</ele><time>2026-04-11T08:39:50.715Z</time></trkpt><trkpt lat="40.6901256" lon="9.6421382"><ele>210.0</ele><time>2026-04-11T08:39:51.721Z</time></trkpt><trkpt lat="40.6901594" lon="9.642209"><ele>212.66666666666669</ele><time>2026-04-11T08:39:52.721Z</time></trkpt><trkpt lat="40.6901933" lon="9.6423584"><ele>215.33333333333334</ele><time>2026-04-11T08:39:54.707Z</time></trkpt><trkpt lat="40.6902552" lon="9.6424917"><ele>218.0</ele><time>2026-04-11T08:39:56.706Z</time></trkpt><trkpt lat="40.6902808" lon="9.6426335"><ele>211.0</ele><time>2026-04-11T08:39:58.699Z</time></trkpt><trkpt lat="40.6902037" lon="9.6427687"><ele>204.0</ele><time>2026-04-11T08:40:00.713Z</time></trkpt><trkpt lat="40.6901434" lon="9.6428274"><ele>197.0</ele><time>2026-04-11T08:40:01.7Z</time></trkpt><trkpt lat="40.690075" lon="9.6428868"><ele>190.0</ele><time>2026-04-11T08:40:02.7Z</time></trkpt><trkpt lat="40.6900121" lon="9.6429472"><ele>183.0</ele><time>2026-04-11T08:40:03.706Z</time></trkpt><trkpt lat="40.6899195" lon="9.6430334"><ele>183.0</ele><time>2026-04-11T08:40:05.696Z</time></trkpt><trkpt lat="40.6898387" lon="9.6430011"><ele>183.0</ele><time>2026-04-11T08:40:07.698Z</time></trkpt><trkpt lat="40.6898357" lon="9.6428593"><ele>183.0</ele><time>2026-04-11T08:40:09.699Z</time></trkpt><trkpt lat="40.6898476" lon="9.6427687"><ele>183.0</ele><time>2026-04-11T08:40:10.708Z</time></trkpt><trkpt lat="40.6898482" lon="9.6426811"><ele>183.0</ele><time>2026-04-11T08:40:11.687Z</time></trkpt><trkpt lat="40.6897836" lon="9.6425706"><ele>183.0</ele><time>2026-04-11T08:40:13.691Z</time></trkpt><trkpt lat="40.6897015" lon="9.6425173"><ele>183.0</ele><time>2026-04-11T08:40:15.689Z</time></trkpt><trkpt lat="40.6896469" lon="9.6424645"><ele>183.0</ele><time>2026-04-11T08:40:17.69Z</time></trkpt><trkpt lat="40.6896011" lon="9.6423985"><ele>183.0</ele><time>2026-04-11T08:40:21.679Z</time></trkpt><trkpt lat="40.6895398" lon="9.6422745"><ele>183.0</ele><time>2026-04-11T08:40:55.75Z</time></trkpt><trkpt lat="40.6894713" lon="9.6421401"><ele>183.0</ele><time>2026-04-11T08:40:57.737Z</time></trkpt><trkpt lat="40.6894306" lon="9.642051"><ele>183.0</ele><time>2026-04-11T08:40:58.741Z</time></trkpt><trkpt lat="40.6893931" lon="9.6419432"><ele>178.8</ele><time>2026-04-11T08:40:59.739Z</time></trkpt><trkpt lat="40.6893524" lon="9.641825"><ele>174.60000000000002</ele><time>2026-04-11T08:41:00.736Z</time></trkpt><trkpt lat="40.6893102" lon="9.6417042"><ele>170.39999999999998</ele><time>2026-04-11T08:41:01.736Z</time></trkpt><trkpt lat="40.6892669" lon="9.6415794"><ele>166.2</ele><time>2026-04-11T08:41:02.735Z</time></trkpt><trkpt lat="40.6892236" lon="9.6414474"><ele>162.0</ele><time>2026-04-11T08:41:03.733Z</time></trkpt><trkpt lat="40.6891899" lon="9.64131"><ele>162.0</ele><time>2026-04-11T08:41:04.738Z</time></trkpt><trkpt lat="40.6891709" lon="9.641171"><ele>162.0</ele><time>2026-04-11T08:41:05.739Z</time></trkpt><trkpt lat="40.6891705" lon="9.6410324"><ele>162.0</ele><time>2026-04-11T08:41:06.731Z</time></trkpt><trkpt lat="40.6891803" lon="9.6408917"><ele>162.0</ele><time>2026-04-11T08:41:07.728Z</time></trkpt><trkpt lat="40.6891925" lon="9.6407492"><ele>162.0</ele><time>2026-04-11T08:41:08.743Z</time></trkpt><trkpt lat="40.6892035" lon="9.6406069"><ele>162.39999999999998</ele><time>2026-04-11T08:41:09.739Z</time></trkpt><trkpt lat="40.6892179" lon="9.6404611"><ele>162.79999999999998</ele><time>2026-04-11T08:41:10.728Z</time></trkpt><trkpt lat="40.68924" lon="9.640313"><ele>163.2</ele><time>2026-04-11T08:41:11.735Z</time></trkpt><trkpt lat="40.6892684" lon="9.640176"><ele>163.6</ele><time>2026-04-11T08:41:12.73Z</time></trkpt><trkpt lat="40.6892969" lon="9.6400406"><ele>164.0</ele><time>2026-04-11T08:41:13.73Z</time></trkpt><trkpt lat="40.6893039" lon="9.639901"><ele>164.0</ele><time>2026-04-11T08:41:14.745Z</time></trkpt><trkpt lat="40.68929" lon="9.639747"><ele>164.0</ele><time>2026-04-11T08:41:15.722Z</time></trkpt><trkpt lat="40.68927" lon="9.639587"><ele>164.0</ele><time>2026-04-11T08:41:16.73Z</time></trkpt><trkpt lat="40.6892466" lon="9.6394253"><ele>164.0</ele><time>2026-04-11T08:41:17.746Z</time></trkpt><trkpt lat="40.689218" lon="9.6392581"><ele>165.25</ele><time>2026-04-11T08:41:18.724Z</time></trkpt><trkpt lat="40.689182" lon="9.6390868"><ele>166.5</ele><time>2026-04-11T08:41:19.713Z</time></trkpt><trkpt lat="40.6891367" lon="9.6389131"><ele>167.75</ele><time>2026-04-11T08:41:20.724Z</time></trkpt><trkpt lat="40.6890847" lon="9.6387356"><ele>169.0</ele><time>2026-04-11T08:41:21.723Z</time></trkpt><trkpt lat="40.6890321" lon="9.6385574"><ele>170.5</ele><time>2026-04-11T08:41:22.723Z</time></trkpt><trkpt lat="40.6889756" lon="9.6383799"><ele>172.0</ele><time>2026-04-11T08:41:23.71Z</time></trkpt><trkpt lat="40.6889181" lon="9.6382036"><ele>173.5</ele><time>2026-04-11T08:41:24.729Z</time></trkpt><trkpt lat="40.6888677" lon="9.638036"><ele>175.0</ele><time>2026-04-11T08:41:25.721Z</time></trkpt><trkpt lat="40.6888225" lon="9.6378799"><ele>175.75</ele><time>2026-04-11T08:41:26.716Z</time></trkpt><trkpt lat="40.6887822" lon="9.6377317"><ele>176.5</ele><time>2026-04-11T08:41:27.712Z</time></trkpt><trkpt lat="40.6887421" lon="9.6375926"><ele>177.25</ele><time>2026-04-11T08:41:28.719Z</time></trkpt><trkpt lat="40.6887001" lon="9.6374581"><ele>178.0</ele><time>2026-04-11T08:41:29.717Z</time></trkpt><trkpt lat="40.6886598" lon="9.637325"><ele>178.0</ele><time>2026-04-11T08:41:30.702Z</time></trkpt><trkpt lat="40.6886256" lon="9.6372037"><ele>178.0</ele><time>2026-04-11T08:41:31.702Z</time></trkpt><trkpt lat="40.688619" lon="9.6370851"><ele>178.0</ele><time>2026-04-11T08:41:32.712Z</time></trkpt><trkpt lat="40.6886269" lon="9.6369731"><ele>178.0</ele><time>2026-04-11T08:41:33.707Z</time></trkpt><trkpt lat="40.6886405" lon="9.6368522"><ele>178.0</ele><time>2026-04-11T08:41:34.704Z</time></trkpt><trkpt lat="40.6886575" lon="9.6367296"><ele>178.4</ele><time>2026-04-11T08:41:35.707Z</time></trkpt><trkpt lat="40.6886814" lon="9.6366068"><ele>178.8</ele><time>2026-04-11T08:41:36.699Z</time></trkpt><trkpt lat="40.6887164" lon="9.636487"><ele>179.2</ele><time>2026-04-11T08:41:37.704Z</time></trkpt><trkpt lat="40.6887619" lon="9.6363822"><ele>179.6</ele><time>2026-04-11T08:41:38.704Z</time></trkpt><trkpt lat="40.6888066" lon="9.636269"><ele>180.0</ele><time>2026-04-11T08:41:39.698Z</time></trkpt><trkpt lat="40.6888309" lon="9.636152"><ele>180.28571428571428</ele><time>2026-04-11T08:41:40.696Z</time></trkpt><trkpt lat="40.688839" lon="9.6360418"><ele>180.57142857142858</ele><time>2026-04-11T08:41:41.698Z</time></trkpt><trkpt lat="40.6888251" lon="9.6359436"><ele>180.85714285714286</ele><time>2026-04-11T08:41:42.703Z</time></trkpt><trkpt lat="40.6887895" lon="9.6358664"><ele>181.14285714285714</ele><time>2026-04-11T08:41:43.701Z</time></trkpt><trkpt lat="40.6887344" lon="9.6358132"><ele>181.42857142857144</ele><time>2026-04-11T08:41:44.7Z</time></trkpt><trkpt lat="40.6886696" lon="9.6357899"><ele>181.71428571428572</ele><time>2026-04-11T08:41:45.693Z</time></trkpt><trkpt lat="40.6885865" lon="9.6357976"><ele>182.0</ele><time>2026-04-11T08:41:46.693Z</time></trkpt><trkpt lat="40.6884922" lon="9.6358269"><ele>182.75</ele><time>2026-04-11T08:41:47.692Z</time></trkpt><trkpt lat="40.6883923" lon="9.635879"><ele>183.5</ele><time>2026-04-11T08:41:48.685Z</time></trkpt><trkpt lat="40.6882886" lon="9.6359408"><ele>184.25</ele><time>2026-04-11T08:41:49.688Z</time></trkpt><trkpt lat="40.6881792" lon="9.6359978"><ele>185.0</ele><time>2026-04-11T08:41:50.686Z</time></trkpt><trkpt lat="40.6880596" lon="9.6360226"><ele>185.0</ele><time>2026-04-11T08:41:51.685Z</time></trkpt><trkpt lat="40.687937" lon="9.6360227"><ele>185.0</ele><time>2026-04-11T08:41:52.689Z</time></trkpt><trkpt lat="40.6878151" lon="9.6360244"><ele>185.0</ele><time>2026-04-11T08:41:53.687Z</time></trkpt><trkpt lat="40.6876887" lon="9.6360329"><ele>185.0</ele><time>2026-04-11T08:41:54.689Z</time></trkpt><trkpt lat="40.6875678" lon="9.6360393"><ele>187.0</ele><time>2026-04-11T08:41:55.683Z</time></trkpt><trkpt lat="40.6874483" lon="9.636048"><ele>189.0</ele><time>2026-04-11T08:41:56.682Z</time></trkpt><trkpt lat="40.6873301" lon="9.6360582"><ele>191.0</ele><time>2026-04-11T08:41:57.683Z</time></trkpt><trkpt lat="40.6872137" lon="9.6360673"><ele>193.0</ele><time>2026-04-11T08:41:58.678Z</time></trkpt><trkpt lat="40.6871013" lon="9.6360742"><ele>192.99999999999997</ele><time>2026-04-11T08:41:59.692Z</time></trkpt><trkpt lat="40.6870001" lon="9.6360768"><ele>193.0</ele><time>2026-04-11T08:42:00.692Z</time></trkpt><trkpt lat="40.6869139" lon="9.6360709"><ele>193.0</ele><time>2026-04-11T08:42:01.687Z</time></trkpt><trkpt lat="40.6868429" lon="9.636043"><ele>193.0</ele><time>2026-04-11T08:42:02.679Z</time></trkpt><trkpt lat="40.6867891" lon="9.6359913"><ele>192.99999999999997</ele><time>2026-04-11T08:42:03.679Z</time></trkpt><trkpt lat="40.6867479" lon="9.6359183"><ele>193.0</ele><time>2026-04-11T08:42:04.678Z</time></trkpt><trkpt lat="40.6867213" lon="9.6358207"><ele>193.60000000000002</ele><time>2026-04-11T08:42:05.678Z</time></trkpt><trkpt lat="40.6866981" lon="9.6357076"><ele>194.20000000000002</ele><time>2026-04-11T08:42:06.679Z</time></trkpt><trkpt lat="40.6866723" lon="9.6355813"><ele>194.8</ele><time>2026-04-11T08:42:07.685Z</time></trkpt><trkpt lat="40.6866392" lon="9.6354531"><ele>195.4</ele><time>2026-04-11T08:42:08.671Z</time></trkpt><trkpt lat="40.6866041" lon="9.6353191"><ele>196.0</ele><time>2026-04-11T08:42:09.667Z</time></trkpt><trkpt lat="40.6865647" lon="9.6351877"><ele>198.0</ele><time>2026-04-11T08:42:10.666Z</time></trkpt><trkpt lat="40.6865161" lon="9.6350669"><ele>200.0</ele><time>2026-04-11T08:42:11.684Z</time></trkpt><trkpt lat="40.686451" lon="9.634963"><ele>202.0</ele><time>2026-04-11T08:42:12.673Z</time></trkpt><trkpt lat="40.686375" lon="9.6348646"><ele>204.0</ele><time>2026-04-11T08:42:13.675Z</time></trkpt><trkpt lat="40.6862852" lon="9.6347647"><ele>206.0</ele><time>2026-04-11T08:42:14.671Z</time></trkpt><trkpt lat="40.6861841" lon="9.6346638"><ele>204.5</ele><time>2026-04-11T08:42:15.669Z</time></trkpt><trkpt lat="40.6860767" lon="9.6345666"><ele>203.0</ele><time>2026-04-11T08:42:16.67Z</time></trkpt><trkpt lat="40.6859702" lon="9.6344779"><ele>201.5</ele><time>2026-04-11T08:42:17.67Z</time></trkpt><trkpt lat="40.6858655" lon="9.634402"><ele>200.0</ele><time>2026-04-11T08:42:18.664Z</time></trkpt><trkpt lat="40.6857713" lon="9.6343138"><ele>200.0</ele><time>2026-04-11T08:42:19.677Z</time></trkpt><trkpt lat="40.6856958" lon="9.6342039"><ele>200.0</ele><time>2026-04-11T08:42:20.664Z</time></trkpt><trkpt lat="40.6856274" lon="9.6340569"><ele>200.0</ele><time>2026-04-11T08:42:21.668Z</time></trkpt><trkpt lat="40.6855553" lon="9.63389"><ele>200.0</ele><time>2026-04-11T08:42:22.675Z</time></trkpt><trkpt lat="40.6854821" lon="9.633718"><ele>202.33333333333334</ele><time>2026-04-11T08:42:23.669Z</time></trkpt><trkpt lat="40.6854205" lon="9.633535"><ele>204.66666666666669</ele><time>2026-04-11T08:42:24.661Z</time></trkpt><trkpt lat="40.6853754" lon="9.6333292"><ele>207.0</ele><time>2026-04-11T08:42:25.667Z</time></trkpt><trkpt lat="40.6853347" lon="9.6331117"><ele>207.0</ele><time>2026-04-11T08:42:26.674Z</time></trkpt><trkpt lat="40.6852935" lon="9.6328954"><ele>207.0</ele><time>2026-04-11T08:42:27.665Z</time></trkpt><trkpt lat="40.6852469" lon="9.6326917"><ele>207.0</ele><time>2026-04-11T08:42:28.66Z</time></trkpt><trkpt lat="40.6852" lon="9.6325128"><ele>199.75</ele><time>2026-04-11T08:42:29.666Z</time></trkpt><trkpt lat="40.6851534" lon="9.6323581"><ele>192.5</ele><time>2026-04-11T08:42:30.675Z</time></trkpt><trkpt lat="40.6851205" lon="9.6322225"><ele>185.25</ele><time>2026-04-11T08:42:31.662Z</time></trkpt><trkpt lat="40.685111" lon="9.6320733"><ele>178.0</ele><time>2026-04-11T08:42:32.807Z</time></trkpt><trkpt lat="40.6851173" lon="9.6317955"><ele>178.0</ele><time>2026-04-11T08:42:34.662Z</time></trkpt><trkpt lat="40.6850862" lon="9.6316735"><ele>178.0</ele><time>2026-04-11T08:42:35.67Z</time></trkpt><trkpt lat="40.6850259" lon="9.6315825"><ele>178.0</ele><time>2026-04-11T08:42:36.659Z</time></trkpt><trkpt lat="40.6849363" lon="9.6315133"><ele>178.0</ele><time>2026-04-11T08:42:37.81Z</time></trkpt><trkpt lat="40.6848369" lon="9.6314714"><ele>178.0</ele><time>2026-04-11T08:42:38.795Z</time></trkpt><trkpt lat="40.6847306" lon="9.6314628"><ele>178.0</ele><time>2026-04-11T08:42:39.767Z</time></trkpt><trkpt lat="40.6845228" lon="9.6315281"><ele>178.0</ele><time>2026-04-11T08:42:41.785Z</time></trkpt><trkpt lat="40.6844239" lon="9.6316056"><ele>178.0</ele><time>2026-04-11T08:42:42.758Z</time></trkpt><trkpt lat="40.6843283" lon="9.6317058"><ele>179.5</ele><time>2026-04-11T08:42:43.785Z</time></trkpt><trkpt lat="40.6842391" lon="9.6318291"><ele>181.0</ele><time>2026-04-11T08:42:44.765Z</time></trkpt><trkpt lat="40.684159" lon="9.6319778"><ele>182.5</ele><time>2026-04-11T08:42:45.753Z</time></trkpt><trkpt lat="40.6840829" lon="9.6321345"><ele>184.0</ele><time>2026-04-11T08:42:46.762Z</time></trkpt><trkpt lat="40.6840115" lon="9.6322998"><ele>184.0</ele><time>2026-04-11T08:42:47.756Z</time></trkpt><trkpt lat="40.6839434" lon="9.6324692"><ele>184.0</ele><time>2026-04-11T08:42:48.76Z</time></trkpt><trkpt lat="40.683882" lon="9.6326404"><ele>184.0</ele><time>2026-04-11T08:42:49.762Z</time></trkpt><trkpt lat="40.6838338" lon="9.6328079"><ele>184.0</ele><time>2026-04-11T08:42:50.754Z</time></trkpt><trkpt lat="40.6838169" lon="9.6329712"><ele>183.5</ele><time>2026-04-11T08:42:51.746Z</time></trkpt><trkpt lat="40.6838221" lon="9.6331364"><ele>183.0</ele><time>2026-04-11T08:42:52.747Z</time></trkpt><trkpt lat="40.6838497" lon="9.6333018"><ele>182.5</ele><time>2026-04-11T08:42:53.761Z</time></trkpt><trkpt lat="40.683887" lon="9.633476"><ele>182.0</ele><time>2026-04-11T08:42:54.745Z</time></trkpt><trkpt lat="40.6839118" lon="9.6336598"><ele>182.0</ele><time>2026-04-11T08:42:55.751Z</time></trkpt><trkpt lat="40.6839163" lon="9.6338536"><ele>182.0</ele><time>2026-04-11T08:42:56.75Z</time></trkpt><trkpt lat="40.6839065" lon="9.6340519"><ele>182.0</ele><time>2026-04-11T08:42:57.743Z</time></trkpt><trkpt lat="40.6838955" lon="9.6342538"><ele>182.0</ele><time>2026-04-11T08:42:58.768Z</time></trkpt><trkpt lat="40.6838854" lon="9.6344574"><ele>182.0</ele><time>2026-04-11T08:42:59.745Z</time></trkpt><trkpt lat="40.6838734" lon="9.6346677"><ele>182.0</ele><time>2026-04-11T08:43:00.753Z</time></trkpt><trkpt lat="40.6838632" lon="9.6348718"><ele>181.5</ele><time>2026-04-11T08:43:01.749Z</time></trkpt><trkpt lat="40.6838536" lon="9.6350645"><ele>181.0</ele><time>2026-04-11T08:43:02.765Z</time></trkpt><trkpt lat="40.6838441" lon="9.6352231"><ele>180.5</ele><time>2026-04-11T08:43:03.745Z</time></trkpt><trkpt lat="40.6838468" lon="9.6353619"><ele>180.0</ele><time>2026-04-11T08:43:04.738Z</time></trkpt><trkpt lat="40.6838502" lon="9.635482"><ele>180.0</ele><time>2026-04-11T08:43:05.746Z</time></trkpt><trkpt lat="40.6838466" lon="9.6355847"><ele>180.0</ele><time>2026-04-11T08:43:06.748Z</time></trkpt><trkpt lat="40.6838297" lon="9.635667"><ele>180.0</ele><time>2026-04-11T08:43:07.746Z</time></trkpt><trkpt lat="40.6837311" lon="9.635702"><ele>180.0</ele><time>2026-04-11T08:43:09.75Z</time></trkpt><trkpt lat="40.6836726" lon="9.6355736"><ele>180.0</ele><time>2026-04-11T08:43:11.743Z</time></trkpt><trkpt lat="40.683672" lon="9.6354667"><ele>180.0</ele><time>2026-04-11T08:43:12.761Z</time></trkpt><trkpt lat="40.6836818" lon="9.6353321"><ele>181.25</ele><time>2026-04-11T08:43:13.742Z</time></trkpt><trkpt lat="40.6836877" lon="9.6351705"><ele>182.5</ele><time>2026-04-11T08:43:14.728Z</time></trkpt><trkpt lat="40.6836922" lon="9.6349889"><ele>183.75</ele><time>2026-04-11T08:43:15.733Z</time></trkpt><trkpt lat="40.6837025" lon="9.6347987"><ele>185.0</ele><time>2026-04-11T08:43:16.739Z</time></trkpt><trkpt lat="40.6837027" lon="9.6346035"><ele>184.25</ele><time>2026-04-11T08:43:17.735Z</time></trkpt><trkpt lat="40.6836956" lon="9.6344054"><ele>183.5</ele><time>2026-04-11T08:43:18.722Z</time></trkpt><trkpt lat="40.6836796" lon="9.6342068"><ele>182.75</ele><time>2026-04-11T08:43:19.736Z</time></trkpt><trkpt lat="40.6836552" lon="9.6340169"><ele>182.0</ele><time>2026-04-11T08:43:20.735Z</time></trkpt><trkpt lat="40.6836326" lon="9.6338479"><ele>182.0</ele><time>2026-04-11T08:43:21.728Z</time></trkpt><trkpt lat="40.6836037" lon="9.6336958"><ele>182.0</ele><time>2026-04-11T08:43:22.73Z</time></trkpt><trkpt lat="40.683563" lon="9.6335565"><ele>182.0</ele><time>2026-04-11T08:43:23.723Z</time></trkpt><trkpt lat="40.6835036" lon="9.6334269"><ele>182.0</ele><time>2026-04-11T08:43:24.72Z</time></trkpt><trkpt lat="40.6834274" lon="9.6333134"><ele>190.75</ele><time>2026-04-11T08:43:25.723Z</time></trkpt><trkpt lat="40.6833361" lon="9.6332046"><ele>199.5</ele><time>2026-04-11T08:43:26.72Z</time></trkpt><trkpt lat="40.6832417" lon="9.6330956"><ele>208.25</ele><time>2026-04-11T08:43:27.717Z</time></trkpt><trkpt lat="40.6831482" lon="9.632995"><ele>217.0</ele><time>2026-04-11T08:43:28.719Z</time></trkpt><trkpt lat="40.6830593" lon="9.6329076"><ele>216.99999999999997</ele><time>2026-04-11T08:43:29.719Z</time></trkpt><trkpt lat="40.6829864" lon="9.6328392"><ele>217.0</ele><time>2026-04-11T08:43:30.728Z</time></trkpt><trkpt lat="40.6829255" lon="9.6327793"><ele>217.0</ele><time>2026-04-11T08:43:31.716Z</time></trkpt><trkpt lat="40.6828694" lon="9.6326787"><ele>217.0</ele><time>2026-04-11T08:43:33.717Z</time></trkpt><trkpt lat="40.6828679" lon="9.6325475"><ele>216.99999999999997</ele><time>2026-04-11T08:43:35.72Z</time></trkpt><trkpt lat="40.6828832" lon="9.6324594"><ele>217.0</ele><time>2026-04-11T08:43:36.705Z</time></trkpt><trkpt lat="40.6829208" lon="9.6323639"><ele>216.0</ele><time>2026-04-11T08:43:37.706Z</time></trkpt><trkpt lat="40.682972" lon="9.6322693"><ele>215.0</ele><time>2026-04-11T08:43:38.707Z</time></trkpt><trkpt lat="40.683031" lon="9.6321702"><ele>214.0</ele><time>2026-04-11T08:43:39.71Z</time></trkpt><trkpt lat="40.6831006" lon="9.6320618"><ele>213.0</ele><time>2026-04-11T08:43:40.712Z</time></trkpt><trkpt lat="40.6831755" lon="9.6319424"><ele>212.0</ele><time>2026-04-11T08:43:41.708Z</time></trkpt><trkpt lat="40.6832456" lon="9.6318142"><ele>216.25</ele><time>2026-04-11T08:43:42.703Z</time></trkpt><trkpt lat="40.6833161" lon="9.6316794"><ele>220.5</ele><time>2026-04-11T08:43:43.716Z</time></trkpt><trkpt lat="40.6833885" lon="9.6315487"><ele>224.75</ele><time>2026-04-11T08:43:44.704Z</time></trkpt><trkpt lat="40.6834571" lon="9.6314257"><ele>229.0</ele><time>2026-04-11T08:43:45.713Z</time></trkpt><trkpt lat="40.6835066" lon="9.6313012"><ele>229.0</ele><time>2026-04-11T08:43:46.705Z</time></trkpt><trkpt lat="40.683527" lon="9.6311672"><ele>229.0</ele><time>2026-04-11T08:43:47.706Z</time></trkpt><trkpt lat="40.6835226" lon="9.6310198"><ele>229.0</ele><time>2026-04-11T08:43:48.704Z</time></trkpt><trkpt lat="40.6835014" lon="9.6308571"><ele>229.0</ele><time>2026-04-11T08:43:49.698Z</time></trkpt><trkpt lat="40.6834664" lon="9.6306843"><ele>232.5</ele><time>2026-04-11T08:43:50.701Z</time></trkpt><trkpt lat="40.6834274" lon="9.6305094"><ele>236.0</ele><time>2026-04-11T08:43:51.696Z</time></trkpt><trkpt lat="40.6833859" lon="9.6303338"><ele>239.5</ele><time>2026-04-11T08:43:52.694Z</time></trkpt><trkpt lat="40.6833462" lon="9.6301531"><ele>243.0</ele><time>2026-04-11T08:43:53.696Z</time></trkpt><trkpt lat="40.6833253" lon="9.6299809"><ele>243.75</ele><time>2026-04-11T08:43:54.696Z</time></trkpt><trkpt lat="40.683331" lon="9.6298107"><ele>244.5</ele><time>2026-04-11T08:43:55.697Z</time></trkpt><trkpt lat="40.6833435" lon="9.6296375"><ele>245.25</ele><time>2026-04-11T08:43:56.695Z</time></trkpt><trkpt lat="40.6833392" lon="9.6294619"><ele>246.0</ele><time>2026-04-11T08:43:57.697Z</time></trkpt><trkpt lat="40.6833138" lon="9.6292904"><ele>246.0</ele><time>2026-04-11T08:43:58.691Z</time></trkpt><trkpt lat="40.6832797" lon="9.6291124"><ele>246.0</ele><time>2026-04-11T08:43:59.688Z</time></trkpt><trkpt lat="40.6832667" lon="9.628926"><ele>246.0</ele><time>2026-04-11T08:44:00.685Z</time></trkpt><trkpt lat="40.6832714" lon="9.6287392"><ele>246.0</ele><time>2026-04-11T08:44:01.698Z</time></trkpt><trkpt lat="40.6832726" lon="9.62855"><ele>248.66666666666669</ele><time>2026-04-11T08:44:02.687Z</time></trkpt><trkpt lat="40.6832654" lon="9.6283494"><ele>251.33333333333334</ele><time>2026-04-11T08:44:03.693Z</time></trkpt><trkpt lat="40.6832625" lon="9.6281497"><ele>254.0</ele><time>2026-04-11T08:44:04.689Z</time></trkpt><trkpt lat="40.6832814" lon="9.6279497"><ele>258.0</ele><time>2026-04-11T08:44:05.689Z</time></trkpt><trkpt lat="40.6833153" lon="9.6277487"><ele>262.0</ele><time>2026-04-11T08:44:06.686Z</time></trkpt><trkpt lat="40.6833334" lon="9.6275503"><ele>266.0</ele><time>2026-04-11T08:44:07.692Z</time></trkpt><trkpt lat="40.6833342" lon="9.6273567"><ele>266.0</ele><time>2026-04-11T08:44:08.68Z</time></trkpt><trkpt lat="40.6833129" lon="9.6271683"><ele>266.0</ele><time>2026-04-11T08:44:09.687Z</time></trkpt><trkpt lat="40.6832774" lon="9.6269864"><ele>266.0</ele><time>2026-04-11T08:44:10.692Z</time></trkpt><trkpt lat="40.6832492" lon="9.6268221"><ele>266.0</ele><time>2026-04-11T08:44:11.679Z</time></trkpt><trkpt lat="40.6832444" lon="9.6266752"><ele>267.6</ele><time>2026-04-11T08:44:12.679Z</time></trkpt><trkpt lat="40.6832675" lon="9.6265645"><ele>269.20000000000005</ele><time>2026-04-11T08:44:13.688Z</time></trkpt><trkpt lat="40.6833201" lon="9.6264681"><ele>270.79999999999995</ele><time>2026-04-11T08:44:14.679Z</time></trkpt><trkpt lat="40.6833926" lon="9.6263897"><ele>272.4</ele><time>2026-04-11T08:44:15.677Z</time></trkpt><trkpt lat="40.6834858" lon="9.6263612"><ele>274.0</ele><time>2026-04-11T08:44:16.674Z</time></trkpt><trkpt lat="40.6835904" lon="9.6263716"><ele>277.5</ele><time>2026-04-11T08:44:17.686Z</time></trkpt><trkpt lat="40.6836948" lon="9.6264184"><ele>281.0</ele><time>2026-04-11T08:44:18.68Z</time></trkpt><trkpt lat="40.6837972" lon="9.6264967"><ele>284.5</ele><time>2026-04-11T08:44:19.696Z</time></trkpt><trkpt lat="40.6839038" lon="9.6265935"><ele>288.0</ele><time>2026-04-11T08:44:20.673Z</time></trkpt><trkpt lat="40.6840087" lon="9.6266976"><ele>288.0</ele><time>2026-04-11T08:44:21.675Z</time></trkpt><trkpt lat="40.6841148" lon="9.6268091"><ele>288.0</ele><time>2026-04-11T08:44:22.673Z</time></trkpt><trkpt lat="40.6842187" lon="9.6269266"><ele>288.0</ele><time>2026-04-11T08:44:23.666Z</time></trkpt><trkpt lat="40.6843278" lon="9.6270484"><ele>288.0</ele><time>2026-04-11T08:44:24.672Z</time></trkpt><trkpt lat="40.6844338" lon="9.6271754"><ele>288.0</ele><time>2026-04-11T08:44:25.672Z</time></trkpt><trkpt lat="40.6845407" lon="9.6273018"><ele>288.0</ele><time>2026-04-11T08:44:26.671Z</time></trkpt><trkpt lat="40.6846435" lon="9.6274261"><ele>288.0</ele><time>2026-04-11T08:44:27.682Z</time></trkpt><trkpt lat="40.6847422" lon="9.6275503"><ele>288.0</ele><time>2026-04-11T08:44:28.673Z</time></trkpt><trkpt lat="40.6848281" lon="9.6276607"><ele>288.0</ele><time>2026-04-11T08:44:29.661Z</time></trkpt><trkpt lat="40.6849151" lon="9.6277324"><ele>288.0</ele><time>2026-04-11T08:44:30.669Z</time></trkpt><trkpt lat="40.6850067" lon="9.6277519"><ele>288.0</ele><time>2026-04-11T08:44:31.659Z</time></trkpt><trkpt lat="40.6851072" lon="9.6277423"><ele>288.0</ele><time>2026-04-11T08:44:32.659Z</time></trkpt><trkpt lat="40.685203" lon="9.6276842"><ele>288.0</ele><time>2026-04-11T08:44:33.675Z</time></trkpt><trkpt lat="40.6852772" lon="9.6275809"><ele>285.25</ele><time>2026-04-11T08:44:34.671Z</time></trkpt><trkpt lat="40.6853418" lon="9.627458"><ele>282.5</ele><time>2026-04-11T08:44:35.66Z</time></trkpt><trkpt lat="40.6854125" lon="9.627326"><ele>279.75</ele><time>2026-04-11T08:44:36.767Z</time></trkpt><trkpt lat="40.6855015" lon="9.6272273"><ele>277.0</ele><time>2026-04-11T08:44:37.776Z</time></trkpt><trkpt lat="40.685605" lon="9.6271661"><ele>277.0</ele><time>2026-04-11T08:44:38.76Z</time></trkpt><trkpt lat="40.6858046" lon="9.6270818"><ele>277.0</ele><time>2026-04-11T08:44:40.786Z</time></trkpt><trkpt lat="40.6858727" lon="9.627018"><ele>277.0</ele><time>2026-04-11T08:44:41.76Z</time></trkpt><trkpt lat="40.685898" lon="9.6269323"><ele>277.0</ele><time>2026-04-11T08:44:42.755Z</time></trkpt><trkpt lat="40.6858397" lon="9.6267979"><ele>277.0</ele><time>2026-04-11T08:44:44.77Z</time></trkpt><trkpt lat="40.685763" lon="9.6267829"><ele>277.0</ele><time>2026-04-11T08:44:45.769Z</time></trkpt><trkpt lat="40.6856729" lon="9.6268026"><ele>277.0</ele><time>2026-04-11T08:44:46.752Z</time></trkpt><trkpt lat="40.6855774" lon="9.626858"><ele>277.0</ele><time>2026-04-11T08:44:47.765Z</time></trkpt><trkpt lat="40.6854786" lon="9.626937"><ele>277.0</ele><time>2026-04-11T08:44:48.75Z</time></trkpt><trkpt lat="40.6853673" lon="9.6270254"><ele>279.2</ele><time>2026-04-11T08:44:49.778Z</time></trkpt><trkpt lat="40.6852588" lon="9.6270988"><ele>281.4</ele><time>2026-04-11T08:44:50.763Z</time></trkpt><trkpt lat="40.6851521" lon="9.6271445"><ele>283.6</ele><time>2026-04-11T08:44:51.755Z</time></trkpt><trkpt lat="40.6850512" lon="9.6271482"><ele>285.8</ele><time>2026-04-11T08:44:52.747Z</time></trkpt><trkpt lat="40.6849609" lon="9.6271213"><ele>288.0</ele><time>2026-04-11T08:44:53.779Z</time></trkpt><trkpt lat="40.6848868" lon="9.6270565"><ele>294.25</ele><time>2026-04-11T08:44:54.753Z</time></trkpt><trkpt lat="40.6848125" lon="9.626968"><ele>300.5</ele><time>2026-04-11T08:44:55.749Z</time></trkpt><trkpt lat="40.6847352" lon="9.6268614"><ele>306.75</ele><time>2026-04-11T08:44:56.748Z</time></trkpt><trkpt lat="40.684657" lon="9.6267394"><ele>313.0</ele><time>2026-04-11T08:44:57.75Z</time></trkpt><trkpt lat="40.6845737" lon="9.6266067"><ele>313.0</ele><time>2026-04-11T08:44:58.747Z</time></trkpt><trkpt lat="40.68449" lon="9.6264587"><ele>313.0</ele><time>2026-04-11T08:44:59.756Z</time></trkpt><trkpt lat="40.6844091" lon="9.6263077"><ele>313.0</ele><time>2026-04-11T08:45:00.746Z</time></trkpt><trkpt lat="40.6843354" lon="9.6261525"><ele>313.0</ele><time>2026-04-11T08:45:01.748Z</time></trkpt><trkpt lat="40.6842716" lon="9.6259958"><ele>314.5</ele><time>2026-04-11T08:45:02.745Z</time></trkpt><trkpt lat="40.6842109" lon="9.6258451"><ele>316.0</ele><time>2026-04-11T08:45:03.744Z</time></trkpt><trkpt lat="40.6841504" lon="9.6257032"><ele>317.5</ele><time>2026-04-11T08:45:04.745Z</time></trkpt><trkpt lat="40.6840881" lon="9.6255776"><ele>319.0</ele><time>2026-04-11T08:45:05.746Z</time></trkpt><trkpt lat="40.6840099" lon="9.6254819"><ele>319.0</ele><time>2026-04-11T08:45:06.736Z</time></trkpt><trkpt lat="40.6839124" lon="9.6254174"><ele>319.0</ele><time>2026-04-11T08:45:07.747Z</time></trkpt><trkpt lat="40.6838141" lon="9.6253613"><ele>319.0</ele><time>2026-04-11T08:45:08.754Z</time></trkpt><trkpt lat="40.6837244" lon="9.6253059"><ele>319.0</ele><time>2026-04-11T08:45:09.744Z</time></trkpt><trkpt lat="40.6836435" lon="9.6252306"><ele>319.0</ele><time>2026-04-11T08:45:10.734Z</time></trkpt><trkpt lat="40.6835715" lon="9.6251371"><ele>321.2</ele><time>2026-04-11T08:45:11.747Z</time></trkpt><trkpt lat="40.6835091" lon="9.625027"><ele>323.4</ele><time>2026-04-11T08:45:12.736Z</time></trkpt><trkpt lat="40.6834457" lon="9.6249125"><ele>325.6</ele><time>2026-04-11T08:45:13.74Z</time></trkpt><trkpt lat="40.6833738" lon="9.6248094"><ele>327.8</ele><time>2026-04-11T08:45:14.751Z</time></trkpt><trkpt lat="40.6832892" lon="9.6247346"><ele>330.0</ele><time>2026-04-11T08:45:15.732Z</time></trkpt><trkpt lat="40.6831915" lon="9.6246893"><ele>330.0</ele><time>2026-04-11T08:45:16.741Z</time></trkpt><trkpt lat="40.6830848" lon="9.6246664"><ele>330.0</ele><time>2026-04-11T08:45:17.737Z</time></trkpt><trkpt lat="40.6829748" lon="9.6246576"><ele>330.0</ele><time>2026-04-11T08:45:18.732Z</time></trkpt><trkpt lat="40.6828584" lon="9.6246508"><ele>330.0</ele><time>2026-04-11T08:45:19.743Z</time></trkpt><trkpt lat="40.6827411" lon="9.624648"><ele>329.4</ele><time>2026-04-11T08:45:20.735Z</time></trkpt><trkpt lat="40.6826258" lon="9.6246521"><ele>328.8</ele><time>2026-04-11T08:45:21.745Z</time></trkpt><trkpt lat="40.6825258" lon="9.6246531"><ele>328.20000000000005</ele><time>2026-04-11T08:45:22.743Z</time></trkpt><trkpt lat="40.6824359" lon="9.6246457"><ele>327.6</ele><time>2026-04-11T08:45:23.731Z</time></trkpt><trkpt lat="40.6823605" lon="9.6246205"><ele>327.0</ele><time>2026-04-11T08:45:24.738Z</time></trkpt><trkpt lat="40.6823032" lon="9.6245729"><ele>327.0</ele><time>2026-04-11T08:45:25.733Z</time></trkpt><trkpt lat="40.6822707" lon="9.6244894"><ele>327.0</ele><time>2026-04-11T08:45:26.733Z</time></trkpt><trkpt lat="40.6822655" lon="9.6243807"><ele>327.0</ele><time>2026-04-11T08:45:27.745Z</time></trkpt><trkpt lat="40.6822747" lon="9.6242543"><ele>327.0</ele><time>2026-04-11T08:45:28.723Z</time></trkpt><trkpt lat="40.682297" lon="9.6241131"><ele>327.0</ele><time>2026-04-11T08:45:29.734Z</time></trkpt><trkpt lat="40.6823285" lon="9.6239689"><ele>332.25</ele><time>2026-04-11T08:45:30.728Z</time></trkpt><trkpt lat="40.6823733" lon="9.6238251"><ele>337.5</ele><time>2026-04-11T08:45:31.717Z</time></trkpt><trkpt lat="40.6824343" lon="9.6236936"><ele>342.75</ele><time>2026-04-11T08:45:32.728Z</time></trkpt><trkpt lat="40.6825125" lon="9.6235619"><ele>348.0</ele><time>2026-04-11T08:45:33.734Z</time></trkpt><trkpt lat="40.6825878" lon="9.6234348"><ele>348.59999999999997</ele><time>2026-04-11T08:45:34.715Z</time></trkpt><trkpt lat="40.6826605" lon="9.6233101"><ele>349.2</ele><time>2026-04-11T08:45:35.716Z</time></trkpt><trkpt lat="40.6827182" lon="9.6231964"><ele>349.8</ele><time>2026-04-11T08:45:36.719Z</time></trkpt><trkpt lat="40.6827391" lon="9.6230856"><ele>350.4</ele><time>2026-04-11T08:45:37.725Z</time></trkpt><trkpt lat="40.6827158" lon="9.6229644"><ele>351.0</ele><time>2026-04-11T08:45:38.716Z</time></trkpt><trkpt lat="40.6826666" lon="9.6228415"><ele>353.6</ele><time>2026-04-11T08:45:39.718Z</time></trkpt><trkpt lat="40.6826003" lon="9.6227208"><ele>356.20000000000005</ele><time>2026-04-11T08:45:40.709Z</time></trkpt><trkpt lat="40.6825318" lon="9.6226096"><ele>358.79999999999995</ele><time>2026-04-11T08:45:41.715Z</time></trkpt><trkpt lat="40.6824708" lon="9.6224959"><ele>361.4</ele><time>2026-04-11T08:45:42.714Z</time></trkpt><trkpt lat="40.6824278" lon="9.6223716"><ele>364.0</ele><time>2026-04-11T08:45:43.714Z</time></trkpt><trkpt lat="40.6824027" lon="9.6222407"><ele>364.0</ele><time>2026-04-11T08:45:44.715Z</time></trkpt><trkpt lat="40.6823671" lon="9.6221223"><ele>364.0</ele><time>2026-04-11T08:45:45.722Z</time></trkpt><trkpt lat="40.6823047" lon="9.6220317"><ele>364.0</ele><time>2026-04-11T08:45:46.714Z</time></trkpt><trkpt lat="40.6822258" lon="9.6219553"><ele>364.0</ele><time>2026-04-11T08:45:47.709Z</time></trkpt><trkpt lat="40.6821325" lon="9.6218985"><ele>364.0</ele><time>2026-04-11T08:45:48.711Z</time></trkpt><trkpt lat="40.682032" lon="9.6218587"><ele>362.4</ele><time>2026-04-11T08:45:49.706Z</time></trkpt><trkpt lat="40.6819363" lon="9.6218104"><ele>360.79999999999995</ele><time>2026-04-11T08:45:50.705Z</time></trkpt><trkpt lat="40.6818637" lon="9.6217356"><ele>359.20000000000005</ele><time>2026-04-11T08:45:51.702Z</time></trkpt><trkpt lat="40.6818095" lon="9.6216353"><ele>357.6</ele><time>2026-04-11T08:45:52.711Z</time></trkpt><trkpt lat="40.6817795" lon="9.6215107"><ele>356.0</ele><time>2026-04-11T08:45:53.702Z</time></trkpt><trkpt lat="40.6817633" lon="9.6213724"><ele>356.0</ele><time>2026-04-11T08:45:54.707Z</time></trkpt><trkpt lat="40.6817503" lon="9.6212284"><ele>356.0</ele><time>2026-04-11T08:45:55.7Z</time></trkpt><trkpt lat="40.6817397" lon="9.6210749"><ele>356.0</ele><time>2026-04-11T08:45:56.705Z</time></trkpt><trkpt lat="40.681729" lon="9.6209159"><ele>356.0</ele><time>2026-04-11T08:45:57.708Z</time></trkpt><trkpt lat="40.6817232" lon="9.6207497"><ele>360.0</ele><time>2026-04-11T08:45:58.709Z</time></trkpt><trkpt lat="40.6817283" lon="9.6205744"><ele>364.0</ele><time>2026-04-11T08:45:59.698Z</time></trkpt><trkpt lat="40.6817475" lon="9.6203903"><ele>368.0</ele><time>2026-04-11T08:46:00.706Z</time></trkpt><trkpt lat="40.6817846" lon="9.6202085"><ele>372.0</ele><time>2026-04-11T08:46:01.697Z</time></trkpt><trkpt lat="40.6818368" lon="9.6200251"><ele>372.5</ele><time>2026-04-11T08:46:02.698Z</time></trkpt><trkpt lat="40.6818921" lon="9.619846"><ele>373.0</ele><time>2026-04-11T08:46:03.697Z</time></trkpt><trkpt lat="40.6819431" lon="9.619681"><ele>373.5</ele><time>2026-04-11T08:46:04.695Z</time></trkpt><trkpt lat="40.6819807" lon="9.6195422"><ele>374.0</ele><time>2026-04-11T08:46:05.706Z</time></trkpt><trkpt lat="40.6819865" lon="9.6194177"><ele>378.0</ele><time>2026-04-11T08:46:06.695Z</time></trkpt><trkpt lat="40.6819673" lon="9.6193002"><ele>382.0</ele><time>2026-04-11T08:46:07.702Z</time></trkpt><trkpt lat="40.6819212" lon="9.6191972"><ele>386.0</ele><time>2026-04-11T08:46:08.705Z</time></trkpt><trkpt lat="40.6818429" lon="9.6191019"><ele>390.0</ele><time>2026-04-11T08:46:09.692Z</time></trkpt><trkpt lat="40.6817355" lon="9.6190264"><ele>394.0</ele><time>2026-04-11T08:46:10.703Z</time></trkpt><trkpt lat="40.6816089" lon="9.6189633"><ele>394.0</ele><time>2026-04-11T08:46:11.689Z</time></trkpt><trkpt lat="40.6814674" lon="9.6189006"><ele>394.0</ele><time>2026-04-11T08:46:12.687Z</time></trkpt><trkpt lat="40.6813182" lon="9.6188326"><ele>394.0</ele><time>2026-04-11T08:46:13.689Z</time></trkpt><trkpt lat="40.6811661" lon="9.6187641"><ele>390.25</ele><time>2026-04-11T08:46:14.691Z</time></trkpt><trkpt lat="40.6810185" lon="9.6186962"><ele>386.5</ele><time>2026-04-11T08:46:15.69Z</time></trkpt><trkpt lat="40.6808868" lon="9.6186148"><ele>382.75</ele><time>2026-04-11T08:46:16.686Z</time></trkpt><trkpt lat="40.6807728" lon="9.6185119"><ele>379.0</ele><time>2026-04-11T08:46:17.687Z</time></trkpt><trkpt lat="40.6806691" lon="9.618392"><ele>387.75</ele><time>2026-04-11T08:46:18.688Z</time></trkpt><trkpt lat="40.680572" lon="9.6182579"><ele>396.5</ele><time>2026-04-11T08:46:19.682Z</time></trkpt><trkpt lat="40.6804826" lon="9.6181221"><ele>405.25</ele><time>2026-04-11T08:46:20.681Z</time></trkpt><trkpt lat="40.6804043" lon="9.6179802"><ele>414.0</ele><time>2026-04-11T08:46:21.695Z</time></trkpt><trkpt lat="40.6803437" lon="9.6178318"><ele>420.75</ele><time>2026-04-11T08:46:22.682Z</time></trkpt><trkpt lat="40.6803116" lon="9.617663"><ele>427.5</ele><time>2026-04-11T08:46:23.701Z</time></trkpt><trkpt lat="40.6803012" lon="9.6174897"><ele>434.25</ele><time>2026-04-11T08:46:24.696Z</time></trkpt><trkpt lat="40.6803023" lon="9.6173216"><ele>441.0</ele><time>2026-04-11T08:46:25.688Z</time></trkpt><trkpt lat="40.6803223" lon="9.6171533"><ele>442.5</ele><time>2026-04-11T08:46:26.687Z</time></trkpt><trkpt lat="40.6803594" lon="9.6169849"><ele>444.0</ele><time>2026-04-11T08:46:27.684Z</time></trkpt><trkpt lat="40.6804064" lon="9.616814"><ele>445.5</ele><time>2026-04-11T08:46:28.687Z</time></trkpt><trkpt lat="40.6804575" lon="9.6166406"><ele>447.0</ele><time>2026-04-11T08:46:29.678Z</time></trkpt><trkpt lat="40.6805112" lon="9.6164645"><ele>447.0</ele><time>2026-04-11T08:46:30.676Z</time></trkpt><trkpt lat="40.6805721" lon="9.6163059"><ele>447.00000000000006</ele><time>2026-04-11T08:46:31.684Z</time></trkpt><trkpt lat="40.6806203" lon="9.6161728"><ele>447.00000000000006</ele><time>2026-04-11T08:46:32.682Z</time></trkpt><trkpt lat="40.6806317" lon="9.6160494"><ele>447.0</ele><time>2026-04-11T08:46:33.675Z</time></trkpt><trkpt lat="40.6806067" lon="9.615936"><ele>447.0</ele><time>2026-04-11T08:46:34.675Z</time></trkpt><trkpt lat="40.6805565" lon="9.615838"><ele>448.75</ele><time>2026-04-11T08:46:35.68Z</time></trkpt><trkpt lat="40.6804661" lon="9.6157692"><ele>450.5</ele><time>2026-04-11T08:46:36.683Z</time></trkpt><trkpt lat="40.6803543" lon="9.6157251"><ele>452.25</ele><time>2026-04-11T08:46:37.672Z</time></trkpt><trkpt lat="40.6802308" lon="9.6156793"><ele>454.0</ele><time>2026-04-11T08:46:38.691Z</time></trkpt><trkpt lat="40.6801207" lon="9.6156087"><ele>453.0</ele><time>2026-04-11T08:46:39.679Z</time></trkpt><trkpt lat="40.6800335" lon="9.6155132"><ele>452.0</ele><time>2026-04-11T08:46:40.668Z</time></trkpt><trkpt lat="40.6799818" lon="9.6153874"><ele>451.0</ele><time>2026-04-11T08:46:41.673Z</time></trkpt><trkpt lat="40.6799552" lon="9.6152443"><ele>450.0</ele><time>2026-04-11T08:46:42.689Z</time></trkpt><trkpt lat="40.6799472" lon="9.6150884"><ele>450.0</ele><time>2026-04-11T08:46:43.676Z</time></trkpt><trkpt lat="40.6799289" lon="9.6149356"><ele>450.0</ele><time>2026-04-11T08:46:44.676Z</time></trkpt><trkpt lat="40.6798913" lon="9.6148106"><ele>450.0</ele><time>2026-04-11T08:46:45.677Z</time></trkpt><trkpt lat="40.6798459" lon="9.6147152"><ele>450.0</ele><time>2026-04-11T08:46:46.684Z</time></trkpt><trkpt lat="40.6797783" lon="9.6146438"><ele>450.0</ele><time>2026-04-11T08:46:47.67Z</time></trkpt><trkpt lat="40.6796791" lon="9.614626"><ele>450.0</ele><time>2026-04-11T08:46:48.672Z</time></trkpt><trkpt lat="40.6795704" lon="9.6146129"><ele>450.0</ele><time>2026-04-11T08:46:49.675Z</time></trkpt><trkpt lat="40.6794605" lon="9.6145876"><ele>450.0</ele><time>2026-04-11T08:46:50.67Z</time></trkpt><trkpt lat="40.6793602" lon="9.6145312"><ele>450.0</ele><time>2026-04-11T08:46:51.677Z</time></trkpt><trkpt lat="40.6792728" lon="9.6144447"><ele>450.0</ele><time>2026-04-11T08:46:52.683Z</time></trkpt><trkpt lat="40.6791854" lon="9.6143432"><ele>452.75</ele><time>2026-04-11T08:46:53.666Z</time></trkpt><trkpt lat="40.6790896" lon="9.614239"><ele>455.5</ele><time>2026-04-11T08:46:54.667Z</time></trkpt><trkpt lat="40.6789916" lon="9.6141261"><ele>458.25</ele><time>2026-04-11T08:46:55.671Z</time></trkpt><trkpt lat="40.6788875" lon="9.6140208"><ele>461.0</ele><time>2026-04-11T08:46:56.666Z</time></trkpt><trkpt lat="40.6787738" lon="9.6139421"><ele>461.0</ele><time>2026-04-11T08:46:57.678Z</time></trkpt><trkpt lat="40.6786491" lon="9.613901"><ele>461.0</ele><time>2026-04-11T08:46:58.665Z</time></trkpt><trkpt lat="40.6785193" lon="9.6138824"><ele>461.0</ele><time>2026-04-11T08:46:59.663Z</time></trkpt><trkpt lat="40.6783888" lon="9.6138584"><ele>461.0</ele><time>2026-04-11T08:47:00.665Z</time></trkpt><trkpt lat="40.6782711" lon="9.6138085"><ele>458.0</ele><time>2026-04-11T08:47:01.66Z</time></trkpt><trkpt lat="40.6781636" lon="9.6137405"><ele>455.0</ele><time>2026-04-11T08:47:02.661Z</time></trkpt><trkpt lat="40.6780629" lon="9.6136508"><ele>452.0</ele><time>2026-04-11T08:47:03.665Z</time></trkpt><trkpt lat="40.6779612" lon="9.6135479"><ele>449.0</ele><time>2026-04-11T08:47:04.656Z</time></trkpt><trkpt lat="40.6778528" lon="9.6134491"><ele>454.0</ele><time>2026-04-11T08:47:05.66Z</time></trkpt><trkpt lat="40.6777345" lon="9.6133543"><ele>459.0</ele><time>2026-04-11T08:47:06.794Z</time></trkpt><trkpt lat="40.6775227" lon="9.6131524"><ele>464.0</ele><time>2026-04-11T08:47:08.672Z</time></trkpt><trkpt lat="40.6774274" lon="9.6130261"><ele>464.0</ele><time>2026-04-11T08:47:09.666Z</time></trkpt><trkpt lat="40.6773411" lon="9.6128858"><ele>464.0</ele><time>2026-04-11T08:47:10.765Z</time></trkpt><trkpt lat="40.6772551" lon="9.6127653"><ele>464.0</ele><time>2026-04-11T08:47:11.756Z</time></trkpt><trkpt lat="40.6771519" lon="9.6126683"><ele>464.0</ele><time>2026-04-11T08:47:12.774Z</time></trkpt><trkpt lat="40.6770342" lon="9.6126163"><ele>466.79999999999995</ele><time>2026-04-11T08:47:13.765Z</time></trkpt><trkpt lat="40.6769212" lon="9.6125885"><ele>469.59999999999997</ele><time>2026-04-11T08:47:14.67Z</time></trkpt><trkpt lat="40.6768181" lon="9.612569"><ele>472.4</ele><time>2026-04-11T08:47:15.761Z</time></trkpt><trkpt lat="40.6767377" lon="9.6125477"><ele>475.2</ele><time>2026-04-11T08:47:16.765Z</time></trkpt><trkpt lat="40.6766697" lon="9.6125117"><ele>478.0</ele><time>2026-04-11T08:47:17.77Z</time></trkpt><trkpt lat="40.6765998" lon="9.6123823"><ele>478.00000000000006</ele><time>2026-04-11T08:47:19.753Z</time></trkpt><trkpt lat="40.676606" lon="9.6122777"><ele>478.0</ele><time>2026-04-11T08:47:20.76Z</time></trkpt><trkpt lat="40.6766281" lon="9.6121596"><ele>478.0</ele><time>2026-04-11T08:47:21.757Z</time></trkpt><trkpt lat="40.6766643" lon="9.6120508"><ele>478.0</ele><time>2026-04-11T08:47:22.756Z</time></trkpt><trkpt lat="40.6767091" lon="9.6119623"><ele>478.00000000000006</ele><time>2026-04-11T08:47:23.757Z</time></trkpt><trkpt lat="40.6767492" lon="9.6118926"><ele>478.0</ele><time>2026-04-11T08:47:24.76Z</time></trkpt><trkpt lat="40.6767985" lon="9.6118241"><ele>476.59999999999997</ele><time>2026-04-11T08:47:26.759Z</time></trkpt><trkpt lat="40.6768479" lon="9.6117606"><ele>475.19999999999993</ele><time>2026-04-11T08:47:37.752Z</time></trkpt><trkpt lat="40.6768732" lon="9.6116478"><ele>473.8</ele><time>2026-04-11T08:47:39.745Z</time></trkpt><trkpt lat="40.6768818" lon="9.6115083"><ele>472.4</ele><time>2026-04-11T08:47:41.755Z</time></trkpt><trkpt lat="40.6768796" lon="9.6113478"><ele>471.0</ele><time>2026-04-11T08:47:43.76Z</time></trkpt><trkpt lat="40.6768788" lon="9.6112485"><ele>468.6</ele><time>2026-04-11T08:47:44.748Z</time></trkpt><trkpt lat="40.6768842" lon="9.6111358"><ele>466.20000000000005</ele><time>2026-04-11T08:47:45.748Z</time></trkpt><trkpt lat="40.6768929" lon="9.6110158"><ele>463.79999999999995</ele><time>2026-04-11T08:47:46.751Z</time></trkpt><trkpt lat="40.676911" lon="9.6108951"><ele>461.4</ele><time>2026-04-11T08:47:47.761Z</time></trkpt><trkpt lat="40.6769313" lon="9.6107716"><ele>459.0</ele><time>2026-04-11T08:47:48.754Z</time></trkpt><trkpt lat="40.6769396" lon="9.6106386"><ele>459.0</ele><time>2026-04-11T08:47:49.775Z</time></trkpt><trkpt lat="40.676929" lon="9.6105021"><ele>459.0</ele><time>2026-04-11T08:47:50.757Z</time></trkpt><trkpt lat="40.676909" lon="9.6103679"><ele>459.0</ele><time>2026-04-11T08:47:51.757Z</time></trkpt><trkpt lat="40.6768893" lon="9.6102321"><ele>459.0</ele><time>2026-04-11T08:47:52.75Z</time></trkpt><trkpt lat="40.6768708" lon="9.6100966"><ele>459.0</ele><time>2026-04-11T08:47:53.746Z</time></trkpt><trkpt lat="40.6768632" lon="9.6099637"><ele>457.6</ele><time>2026-04-11T08:47:54.75Z</time></trkpt><trkpt lat="40.6768798" lon="9.6098367"><ele>456.2</ele><time>2026-04-11T08:47:55.75Z</time></trkpt><trkpt lat="40.6769299" lon="9.6097161"><ele>454.80000000000007</ele><time>2026-04-11T08:47:56.749Z</time></trkpt><trkpt lat="40.6769922" lon="9.6096097"><ele>453.40000000000003</ele><time>2026-04-11T08:47:57.758Z</time></trkpt><trkpt lat="40.67704" lon="9.6095078"><ele>452.0</ele><time>2026-04-11T08:47:58.755Z</time></trkpt><trkpt lat="40.6770544" lon="9.6093957"><ele>451.40000000000003</ele><time>2026-04-11T08:47:59.744Z</time></trkpt><trkpt lat="40.6770358" lon="9.6092782"><ele>450.80000000000007</ele><time>2026-04-11T08:48:00.738Z</time></trkpt><trkpt lat="40.6770008" lon="9.6091607"><ele>450.2</ele><time>2026-04-11T08:48:01.75Z</time></trkpt><trkpt lat="40.6769449" lon="9.6090482"><ele>449.6</ele><time>2026-04-11T08:48:02.743Z</time></trkpt><trkpt lat="40.6768705" lon="9.6089356"><ele>449.0</ele><time>2026-04-11T08:48:03.747Z</time></trkpt><trkpt lat="40.6767817" lon="9.6088313"><ele>449.0</ele><time>2026-04-11T08:48:04.74Z</time></trkpt><trkpt lat="40.676693" lon="9.6087303"><ele>449.0</ele><time>2026-04-11T08:48:05.745Z</time></trkpt><trkpt lat="40.6766034" lon="9.6086373"><ele>449.0</ele><time>2026-04-11T08:48:06.743Z</time></trkpt><trkpt lat="40.676517" lon="9.60854"><ele>449.0</ele><time>2026-04-11T08:48:07.736Z</time></trkpt><trkpt lat="40.6764485" lon="9.6084213"><ele>452.0</ele><time>2026-04-11T08:48:08.748Z</time></trkpt><trkpt lat="40.6764049" lon="9.6082687"><ele>455.0</ele><time>2026-04-11T08:48:09.748Z</time></trkpt><trkpt lat="40.6763518" lon="9.6081179"><ele>458.0</ele><time>2026-04-11T08:48:10.746Z</time></trkpt><trkpt lat="40.6762797" lon="9.607978"><ele>461.0</ele><time>2026-04-11T08:48:11.755Z</time></trkpt><trkpt lat="40.676213" lon="9.6078403"><ele>463.75</ele><time>2026-04-11T08:48:12.748Z</time></trkpt><trkpt lat="40.6761553" lon="9.6076976"><ele>466.5</ele><time>2026-04-11T08:48:13.765Z</time></trkpt><trkpt lat="40.6761037" lon="9.6075468"><ele>469.25</ele><time>2026-04-11T08:48:14.753Z</time></trkpt><trkpt lat="40.6760711" lon="9.6073746"><ele>472.0</ele><time>2026-04-11T08:48:15.747Z</time></trkpt><trkpt lat="40.6760444" lon="9.6071907"><ele>461.0</ele><time>2026-04-11T08:48:16.74Z</time></trkpt><trkpt lat="40.6760166" lon="9.6069996"><ele>450.0</ele><time>2026-04-11T08:48:17.766Z</time></trkpt><trkpt lat="40.6759816" lon="9.6068093"><ele>439.0</ele><time>2026-04-11T08:48:18.747Z</time></trkpt><trkpt lat="40.6759366" lon="9.6066175"><ele>428.0</ele><time>2026-04-11T08:48:19.738Z</time></trkpt><trkpt lat="40.675888" lon="9.6064193"><ele>428.0</ele><time>2026-04-11T08:48:20.747Z</time></trkpt><trkpt lat="40.675839" lon="9.6062218"><ele>428.0</ele><time>2026-04-11T08:48:21.737Z</time></trkpt><trkpt lat="40.6757885" lon="9.6060202"><ele>428.0</ele><time>2026-04-11T08:48:22.744Z</time></trkpt><trkpt lat="40.6757383" lon="9.6058102"><ele>427.3333333333333</ele><time>2026-04-11T08:48:23.758Z</time></trkpt><trkpt lat="40.6756909" lon="9.6055976"><ele>426.66666666666663</ele><time>2026-04-11T08:48:24.745Z</time></trkpt><trkpt lat="40.6756432" lon="9.6053827"><ele>426.0</ele><time>2026-04-11T08:48:25.77Z</time></trkpt><trkpt lat="40.67559" lon="9.6051796"><ele>423.75</ele><time>2026-04-11T08:48:26.753Z</time></trkpt><trkpt lat="40.6755274" lon="9.6049874"><ele>421.5</ele><time>2026-04-11T08:48:27.748Z</time></trkpt><trkpt lat="40.675473" lon="9.6048028"><ele>419.25</ele><time>2026-04-11T08:48:28.744Z</time></trkpt><trkpt lat="40.6754392" lon="9.6046306"><ele>417.0</ele><time>2026-04-11T08:48:29.748Z</time></trkpt><trkpt lat="40.6754344" lon="9.604481"><ele>414.3333333333333</ele><time>2026-04-11T08:48:30.757Z</time></trkpt><trkpt lat="40.6754506" lon="9.6043529"><ele>411.66666666666663</ele><time>2026-04-11T08:48:31.748Z</time></trkpt><trkpt lat="40.6754878" lon="9.6042464"><ele>409.0</ele><time>2026-04-11T08:48:32.753Z</time></trkpt><trkpt lat="40.6755482" lon="9.6041822"><ele>406.3333333333333</ele><time>2026-04-11T08:48:33.758Z</time></trkpt><trkpt lat="40.6756265" lon="9.6041826"><ele>403.66666666666663</ele><time>2026-04-11T08:48:34.756Z</time></trkpt><trkpt lat="40.675711" lon="9.6042149"><ele>401.0</ele><time>2026-04-11T08:48:35.782Z</time></trkpt><trkpt lat="40.6757883" lon="9.6042765"><ele>401.0</ele><time>2026-04-11T08:48:36.754Z</time></trkpt><trkpt lat="40.6758574" lon="9.6043661"><ele>401.0</ele><time>2026-04-11T08:48:37.75Z</time></trkpt><trkpt lat="40.6759214" lon="9.6044675"><ele>401.0</ele><time>2026-04-11T08:48:38.747Z</time></trkpt><trkpt lat="40.6759932" lon="9.6045734"><ele>401.0</ele><time>2026-04-11T08:48:39.745Z</time></trkpt><trkpt lat="40.6760729" lon="9.6046866"><ele>401.0</ele><time>2026-04-11T08:48:40.759Z</time></trkpt><trkpt lat="40.6761542" lon="9.6048019"><ele>404.0</ele><time>2026-04-11T08:48:41.755Z</time></trkpt><trkpt lat="40.6762422" lon="9.6049185"><ele>407.0</ele><time>2026-04-11T08:48:42.739Z</time></trkpt><trkpt lat="40.6763313" lon="9.6050326"><ele>410.0</ele><time>2026-04-11T08:48:43.747Z</time></trkpt><trkpt lat="40.6764209" lon="9.6051474"><ele>413.0</ele><time>2026-04-11T08:48:44.743Z</time></trkpt><trkpt lat="40.6765091" lon="9.6052639"><ele>416.59999999999997</ele><time>2026-04-11T08:48:45.751Z</time></trkpt><trkpt lat="40.6765908" lon="9.6053754"><ele>420.2</ele><time>2026-04-11T08:48:46.743Z</time></trkpt><trkpt lat="40.6766684" lon="9.6054752"><ele>423.8</ele><time>2026-04-11T08:48:47.752Z</time></trkpt><trkpt lat="40.6767409" lon="9.6055508"><ele>427.4</ele><time>2026-04-11T08:48:48.74Z</time></trkpt><trkpt lat="40.6768077" lon="9.6055812"><ele>431.0</ele><time>2026-04-11T08:48:49.736Z</time></trkpt><trkpt lat="40.6769232" lon="9.6055237"><ele>432.0</ele><time>2026-04-11T08:48:51.744Z</time></trkpt><trkpt lat="40.6769645" lon="9.6054416"><ele>433.0</ele><time>2026-04-11T08:48:52.748Z</time></trkpt><trkpt lat="40.6769765" lon="9.6053458"><ele>434.0</ele><time>2026-04-11T08:48:53.776Z</time></trkpt><trkpt lat="40.676966" lon="9.6052254"><ele>435.0</ele><time>2026-04-11T08:48:54.751Z</time></trkpt><trkpt lat="40.6769389" lon="9.6050915"><ele>436.0</ele><time>2026-04-11T08:48:55.745Z</time></trkpt><trkpt lat="40.6768959" lon="9.60495"><ele>430.25</ele><time>2026-04-11T08:48:56.743Z</time></trkpt><trkpt lat="40.6768404" lon="9.6047878"><ele>424.5</ele><time>2026-04-11T08:48:57.737Z</time></trkpt><trkpt lat="40.6767763" lon="9.6046173"><ele>418.75</ele><time>2026-04-11T08:48:58.749Z</time></trkpt><trkpt lat="40.6767083" lon="9.6044522"><ele>413.0</ele><time>2026-04-11T08:48:59.75Z</time></trkpt><trkpt lat="40.6766493" lon="9.6042996"><ele>412.75</ele><time>2026-04-11T08:49:00.747Z</time></trkpt><trkpt lat="40.6766186" lon="9.6041395"><ele>412.5</ele><time>2026-04-11T08:49:01.765Z</time></trkpt><trkpt lat="40.6766246" lon="9.6039695"><ele>412.25</ele><time>2026-04-11T08:49:02.743Z</time></trkpt><trkpt lat="40.6766402" lon="9.6037932"><ele>412.0</ele><time>2026-04-11T08:49:03.751Z</time></trkpt><trkpt lat="40.6766402" lon="9.6036175"><ele>411.75</ele><time>2026-04-11T08:49:04.746Z</time></trkpt><trkpt lat="40.6766176" lon="9.6034508"><ele>411.5</ele><time>2026-04-11T08:49:05.746Z</time></trkpt><trkpt lat="40.6765794" lon="9.6032938"><ele>411.25</ele><time>2026-04-11T08:49:06.74Z</time></trkpt><trkpt lat="40.6765218" lon="9.6031227"><ele>411.0</ele><time>2026-04-11T08:49:07.738Z</time></trkpt><trkpt lat="40.6764557" lon="9.6029384"><ele>412.66666666666663</ele><time>2026-04-11T08:49:08.738Z</time></trkpt><trkpt lat="40.67639" lon="9.6027405"><ele>414.3333333333333</ele><time>2026-04-11T08:49:09.747Z</time></trkpt><trkpt lat="40.6763158" lon="9.6025345"><ele>416.0</ele><time>2026-04-11T08:49:10.74Z</time></trkpt><trkpt lat="40.6762351" lon="9.6023225"><ele>416.0</ele><time>2026-04-11T08:49:11.747Z</time></trkpt><trkpt lat="40.6761514" lon="9.6021227"><ele>416.0</ele><time>2026-04-11T08:49:12.74Z</time></trkpt><trkpt lat="40.6760729" lon="9.6019371"><ele>416.0</ele><time>2026-04-11T08:49:13.742Z</time></trkpt><trkpt lat="40.6759978" lon="9.6017726"><ele>410.0</ele><time>2026-04-11T08:49:14.75Z</time></trkpt><trkpt lat="40.675907" lon="9.6016431"><ele>404.0</ele><time>2026-04-11T08:49:15.738Z</time></trkpt><trkpt lat="40.6757847" lon="9.6015447"><ele>398.0</ele><time>2026-04-11T08:49:16.753Z</time></trkpt><trkpt lat="40.6756388" lon="9.6014672"><ele>392.0</ele><time>2026-04-11T08:49:17.751Z</time></trkpt><trkpt lat="40.6754988" lon="9.6013751"><ele>392.0</ele><time>2026-04-11T08:49:18.74Z</time></trkpt><trkpt lat="40.6753663" lon="9.6012767"><ele>392.0</ele><time>2026-04-11T08:49:19.756Z</time></trkpt><trkpt lat="40.6752599" lon="9.6011857"><ele>392.0</ele><time>2026-04-11T08:49:20.755Z</time></trkpt><trkpt lat="40.6751766" lon="9.6010945"><ele>392.0</ele><time>2026-04-11T08:49:21.74Z</time></trkpt><trkpt lat="40.6751141" lon="9.6009896"><ele>390.0</ele><time>2026-04-11T08:49:22.769Z</time></trkpt><trkpt lat="40.6750748" lon="9.6008613"><ele>388.0</ele><time>2026-04-11T08:49:23.745Z</time></trkpt><trkpt lat="40.6750454" lon="9.6007077"><ele>386.0</ele><time>2026-04-11T08:49:24.74Z</time></trkpt><trkpt lat="40.675022" lon="9.6005353"><ele>384.0</ele><time>2026-04-11T08:49:25.748Z</time></trkpt><trkpt lat="40.6750038" lon="9.6003495"><ele>384.0</ele><time>2026-04-11T08:49:26.749Z</time></trkpt><trkpt lat="40.6749939" lon="9.6001473"><ele>384.0</ele><time>2026-04-11T08:49:27.763Z</time></trkpt><trkpt lat="40.6749873" lon="9.5999339"><ele>384.0</ele><time>2026-04-11T08:49:28.748Z</time></trkpt><trkpt lat="40.6749817" lon="9.5997079"><ele>381.75</ele><time>2026-04-11T08:49:29.751Z</time></trkpt><trkpt lat="40.6749758" lon="9.5994915"><ele>379.5</ele><time>2026-04-11T08:49:30.739Z</time></trkpt><trkpt lat="40.6749795" lon="9.5992991"><ele>377.25</ele><time>2026-04-11T08:49:31.744Z</time></trkpt><trkpt lat="40.6750104" lon="9.5991472"><ele>375.0</ele><time>2026-04-11T08:49:32.753Z</time></trkpt><trkpt lat="40.6750674" lon="9.5990434"><ele>375.0</ele><time>2026-04-11T08:49:33.745Z</time></trkpt><trkpt lat="40.6751402" lon="9.5989636"><ele>375.0</ele><time>2026-04-11T08:49:34.753Z</time></trkpt><trkpt lat="40.6751932" lon="9.5988886"><ele>375.0</ele><time>2026-04-11T08:49:35.746Z</time></trkpt><trkpt lat="40.6751689" lon="9.5987489"><ele>375.0</ele><time>2026-04-11T08:49:37.742Z</time></trkpt><trkpt lat="40.6751144" lon="9.5987045"><ele>375.0</ele><time>2026-04-11T08:49:38.744Z</time></trkpt><trkpt lat="40.6750325" lon="9.5987092"><ele>375.0</ele><time>2026-04-11T08:49:39.743Z</time></trkpt><trkpt lat="40.6749597" lon="9.5987707"><ele>375.0</ele><time>2026-04-11T08:49:40.75Z</time></trkpt><trkpt lat="40.6749092" lon="9.5988757"><ele>375.0</ele><time>2026-04-11T08:49:41.754Z</time></trkpt><trkpt lat="40.6748787" lon="9.5990203"><ele>375.0</ele><time>2026-04-11T08:49:42.74Z</time></trkpt><trkpt lat="40.6748434" lon="9.5991817"><ele>375.0</ele><time>2026-04-11T08:49:43.74Z</time></trkpt><trkpt lat="40.6748006" lon="9.5993588"><ele>376.8</ele><time>2026-04-11T08:49:44.758Z</time></trkpt><trkpt lat="40.6747606" lon="9.5995303"><ele>378.6</ele><time>2026-04-11T08:49:45.738Z</time></trkpt><trkpt lat="40.6747353" lon="9.5996872"><ele>380.4</ele><time>2026-04-11T08:49:46.617Z</time></trkpt><trkpt lat="40.6747185" lon="9.5998188"><ele>382.2</ele><time>2026-04-11T08:49:47.637Z</time></trkpt><trkpt lat="40.6746988" lon="9.5999151"><ele>384.0</ele><time>2026-04-11T08:49:48.636Z</time></trkpt><trkpt lat="40.6746615" lon="9.5999828"><ele>384.0</ele><time>2026-04-11T08:49:49.643Z</time></trkpt><trkpt lat="40.6745604" lon="9.5999584"><ele>384.0</ele><time>2026-04-11T08:49:51.627Z</time></trkpt><trkpt lat="40.6745222" lon="9.5998824"><ele>384.0</ele><time>2026-04-11T08:49:52.635Z</time></trkpt><trkpt lat="40.6745176" lon="9.5997827"><ele>384.0</ele><time>2026-04-11T08:49:53.628Z</time></trkpt><trkpt lat="40.6745499" lon="9.5996644"><ele>384.0</ele><time>2026-04-11T08:49:54.638Z</time></trkpt><trkpt lat="40.6745925" lon="9.5995376"><ele>384.0</ele><time>2026-04-11T08:49:55.63Z</time></trkpt><trkpt lat="40.6746252" lon="9.5994049"><ele>382.5</ele><time>2026-04-11T08:49:56.615Z</time></trkpt><trkpt lat="40.6746469" lon="9.5992825"><ele>381.0</ele><time>2026-04-11T08:49:57.627Z</time></trkpt><trkpt lat="40.674661" lon="9.599183"><ele>379.5</ele><time>2026-04-11T08:49:58.63Z</time></trkpt><trkpt lat="40.6746642" lon="9.599053"><ele>378.0</ele><time>2026-04-11T08:50:00.627Z</time></trkpt><trkpt lat="40.6746332" lon="9.5989722"><ele>376.5</ele><time>2026-04-11T08:50:03.631Z</time></trkpt><trkpt lat="40.6745638" lon="9.599037"><ele>375.0</ele><time>2026-04-11T08:50:07.635Z</time></trkpt><trkpt lat="40.6745225" lon="9.5991465"><ele>371.0</ele><time>2026-04-11T08:50:10.619Z</time></trkpt><trkpt lat="40.6744338" lon="9.5992369"><ele>367.0</ele><time>2026-04-11T08:50:12.625Z</time></trkpt><trkpt lat="40.6743589" lon="9.5992619"><ele>363.0</ele><time>2026-04-11T08:50:13.619Z</time></trkpt><trkpt lat="40.6742717" lon="9.5992836"><ele>359.0</ele><time>2026-04-11T08:50:14.628Z</time></trkpt><trkpt lat="40.6741814" lon="9.5993204"><ele>355.0</ele><time>2026-04-11T08:50:15.629Z</time></trkpt><trkpt lat="40.674101" lon="9.5993869"><ele>355.0</ele><time>2026-04-11T08:50:16.619Z</time></trkpt><trkpt lat="40.6740352" lon="9.5994782"><ele>355.0</ele><time>2026-04-11T08:50:17.623Z</time></trkpt><trkpt lat="40.6739807" lon="9.5995866"><ele>355.0</ele><time>2026-04-11T08:50:18.632Z</time></trkpt><trkpt lat="40.6739376" lon="9.5997053"><ele>355.0</ele><time>2026-04-11T08:50:19.633Z</time></trkpt><trkpt lat="40.6739061" lon="9.5998204"><ele>355.0</ele><time>2026-04-11T08:50:20.623Z</time></trkpt><trkpt lat="40.6738825" lon="9.599936"><ele>355.4</ele><time>2026-04-11T08:50:21.625Z</time></trkpt><trkpt lat="40.673873" lon="9.6000603"><ele>355.8</ele><time>2026-04-11T08:50:22.617Z</time></trkpt><trkpt lat="40.6738714" lon="9.6001896"><ele>356.20000000000005</ele><time>2026-04-11T08:50:23.623Z</time></trkpt><trkpt lat="40.6738743" lon="9.6003165"><ele>356.6</ele><time>2026-04-11T08:50:24.637Z</time></trkpt><trkpt lat="40.6738766" lon="9.6004401"><ele>357.0</ele><time>2026-04-11T08:50:25.628Z</time></trkpt><trkpt lat="40.6738773" lon="9.6005637"><ele>357.0</ele><time>2026-04-11T08:50:26.626Z</time></trkpt><trkpt lat="40.6738691" lon="9.6006815"><ele>357.0</ele><time>2026-04-11T08:50:27.626Z</time></trkpt><trkpt lat="40.6738649" lon="9.6007969"><ele>357.0</ele><time>2026-04-11T08:50:28.625Z</time></trkpt><trkpt lat="40.6738776" lon="9.6009133"><ele>357.0</ele><time>2026-04-11T08:50:29.643Z</time></trkpt><trkpt lat="40.6739086" lon="9.6010323"><ele>357.0</ele><time>2026-04-11T08:50:30.626Z</time></trkpt><trkpt lat="40.6739523" lon="9.6011582"><ele>356.1666666666667</ele><time>2026-04-11T08:50:31.616Z</time></trkpt><trkpt lat="40.6739923" lon="9.6012713"><ele>355.3333333333333</ele><time>2026-04-11T08:50:32.625Z</time></trkpt><trkpt lat="40.6740192" lon="9.601374"><ele>354.5</ele><time>2026-04-11T08:50:33.624Z</time></trkpt><trkpt lat="40.674034" lon="9.6014695"><ele>353.66666666666663</ele><time>2026-04-11T08:50:34.634Z</time></trkpt><trkpt lat="40.6740429" lon="9.6015544"><ele>352.8333333333333</ele><time>2026-04-11T08:50:35.623Z</time></trkpt><trkpt lat="40.6740474" lon="9.6016757"><ele>352.0</ele><time>2026-04-11T08:50:37.627Z</time></trkpt><trkpt lat="40.6740204" lon="9.6017575"><ele>352.0</ele><time>2026-04-11T08:50:39.622Z</time></trkpt><trkpt lat="40.6739521" lon="9.6017883"><ele>352.0</ele><time>2026-04-11T08:50:41.626Z</time></trkpt><trkpt lat="40.673863" lon="9.6017854"><ele>352.0</ele><time>2026-04-11T08:50:43.629Z</time></trkpt><trkpt lat="40.6737762" lon="9.6018041"><ele>352.0</ele><time>2026-04-11T08:50:45.617Z</time></trkpt><trkpt lat="40.6737194" lon="9.6018919"><ele>352.0</ele><time>2026-04-11T08:50:47.63Z</time></trkpt><trkpt lat="40.6737185" lon="9.6020108"><ele>352.0</ele><time>2026-04-11T08:50:49.638Z</time></trkpt><trkpt lat="40.673761" lon="9.6021411"><ele>351.8333333333333</ele><time>2026-04-11T08:50:51.691Z</time></trkpt><trkpt lat="40.6738579" lon="9.6022376"><ele>351.66666666666663</ele><time>2026-04-11T08:50:53.625Z</time></trkpt><trkpt lat="40.6739192" lon="9.6022931"><ele>351.5</ele><time>2026-04-11T08:50:54.628Z</time></trkpt><trkpt lat="40.6739791" lon="9.602367"><ele>351.3333333333333</ele><time>2026-04-11T08:50:55.619Z</time></trkpt><trkpt lat="40.674038" lon="9.6024518"><ele>351.1666666666667</ele><time>2026-04-11T08:50:56.623Z</time></trkpt><trkpt lat="40.6740895" lon="9.6025352"><ele>351.0</ele><time>2026-04-11T08:50:57.631Z</time></trkpt><trkpt lat="40.674132" lon="9.6026153"><ele>351.0</ele><time>2026-04-11T08:50:58.621Z</time></trkpt><trkpt lat="40.6741667" lon="9.6027446"><ele>351.0</ele><time>2026-04-11T08:51:00.623Z</time></trkpt><trkpt lat="40.6741718" lon="9.6028408"><ele>351.0</ele><time>2026-04-11T08:51:02.634Z</time></trkpt><trkpt lat="40.6741827" lon="9.6029247"><ele>351.0</ele><time>2026-04-11T08:51:04.634Z</time></trkpt><trkpt lat="40.6741395" lon="9.6029882"><ele>351.0</ele><time>2026-04-11T08:51:06.626Z</time></trkpt><trkpt lat="40.6740501" lon="9.6029474"><ele>351.0</ele><time>2026-04-11T08:51:08.629Z</time></trkpt><trkpt lat="40.6739601" lon="9.6028577"><ele>351.0</ele><time>2026-04-11T08:51:10.627Z</time></trkpt><trkpt lat="40.6739077" lon="9.6028059"><ele>351.0</ele><time>2026-04-11T08:51:11.624Z</time></trkpt><trkpt lat="40.6738465" lon="9.6027535"><ele>351.0</ele><time>2026-04-11T08:51:12.636Z</time></trkpt><trkpt lat="40.6737778" lon="9.602711"><ele>351.0</ele><time>2026-04-11T08:51:13.63Z</time></trkpt><trkpt lat="40.6736962" lon="9.6026748"><ele>351.0</ele><time>2026-04-11T08:51:14.611Z</time></trkpt><trkpt lat="40.673588" lon="9.602655"><ele>351.0</ele><time>2026-04-11T08:51:15.625Z</time></trkpt><trkpt lat="40.6734773" lon="9.6026407"><ele>352.3333333333333</ele><time>2026-04-11T08:51:16.631Z</time></trkpt><trkpt lat="40.6733821" lon="9.6026278"><ele>353.6666666666667</ele><time>2026-04-11T08:51:17.614Z</time></trkpt><trkpt lat="40.6732929" lon="9.6026143"><ele>355.0</ele><time>2026-04-11T08:51:18.627Z</time></trkpt><trkpt lat="40.6732121" lon="9.6025953"><ele>356.33333333333337</ele><time>2026-04-11T08:51:19.626Z</time></trkpt><trkpt lat="40.6731405" lon="9.6025689"><ele>357.6666666666667</ele><time>2026-04-11T08:51:20.617Z</time></trkpt><trkpt lat="40.6730705" lon="9.6025424"><ele>359.0</ele><time>2026-04-11T08:51:21.628Z</time></trkpt><trkpt lat="40.6730043" lon="9.6025099"><ele>359.0</ele><time>2026-04-11T08:51:22.627Z</time></trkpt><trkpt lat="40.6729079" lon="9.6024249"><ele>359.0</ele><time>2026-04-11T08:51:24.614Z</time></trkpt><trkpt lat="40.6728406" lon="9.6023242"><ele>359.0</ele><time>2026-04-11T08:51:26.624Z</time></trkpt><trkpt lat="40.6727564" lon="9.6022109"><ele>359.0</ele><time>2026-04-11T08:51:28.627Z</time></trkpt><trkpt lat="40.6726615" lon="9.6020997"><ele>359.57142857142856</ele><time>2026-04-11T08:51:30.627Z</time></trkpt><trkpt lat="40.6726088" lon="9.6020432"><ele>360.14285714285717</ele><time>2026-04-11T08:51:31.613Z</time></trkpt><trkpt lat="40.6725527" lon="9.601982"><ele>360.71428571428567</ele><time>2026-04-11T08:51:32.636Z</time></trkpt><trkpt lat="40.672496" lon="9.6019143"><ele>361.2857142857143</ele><time>2026-04-11T08:51:33.625Z</time></trkpt><trkpt lat="40.6724396" lon="9.6018467"><ele>361.85714285714283</ele><time>2026-04-11T08:51:34.625Z</time></trkpt><trkpt lat="40.6723815" lon="9.6017881"><ele>362.4285714285714</ele><time>2026-04-11T08:51:35.626Z</time></trkpt><trkpt lat="40.6723259" lon="9.6017398"><ele>363.0</ele><time>2026-04-11T08:51:36.631Z</time></trkpt><trkpt lat="40.6722704" lon="9.6016993"><ele>363.0</ele><time>2026-04-11T08:51:37.627Z</time></trkpt><trkpt lat="40.6721574" lon="9.6016539"><ele>363.0</ele><time>2026-04-11T08:51:39.611Z</time></trkpt><trkpt lat="40.672032" lon="9.6016524"><ele>363.0</ele><time>2026-04-11T08:51:41.623Z</time></trkpt><trkpt lat="40.6719606" lon="9.6016604"><ele>363.0</ele><time>2026-04-11T08:51:42.619Z</time></trkpt><trkpt lat="40.6718896" lon="9.6016888"><ele>363.0</ele><time>2026-04-11T08:51:43.618Z</time></trkpt><trkpt lat="40.6718191" lon="9.6017327"><ele>364.3333333333333</ele><time>2026-04-11T08:51:44.613Z</time></trkpt><trkpt lat="40.6717455" lon="9.6017819"><ele>365.6666666666667</ele><time>2026-04-11T08:51:45.618Z</time></trkpt><trkpt lat="40.6716663" lon="9.6018346"><ele>367.0</ele><time>2026-04-11T08:51:46.622Z</time></trkpt><trkpt lat="40.6715837" lon="9.6018844"><ele>368.33333333333337</ele><time>2026-04-11T08:51:47.629Z</time></trkpt><trkpt lat="40.6714971" lon="9.6019289"><ele>369.6666666666667</ele><time>2026-04-11T08:51:48.629Z</time></trkpt><trkpt lat="40.6714115" lon="9.6019701"><ele>371.0</ele><time>2026-04-11T08:51:49.631Z</time></trkpt><trkpt lat="40.6713254" lon="9.6020045"><ele>373.6666666666667</ele><time>2026-04-11T08:51:50.618Z</time></trkpt><trkpt lat="40.6712376" lon="9.6020375"><ele>376.33333333333337</ele><time>2026-04-11T08:51:51.608Z</time></trkpt><trkpt lat="40.6711491" lon="9.6020589"><ele>379.0</ele><time>2026-04-11T08:51:52.62Z</time></trkpt><trkpt lat="40.6710646" lon="9.6020534"><ele>381.6666666666667</ele><time>2026-04-11T08:51:53.622Z</time></trkpt><trkpt lat="40.6709907" lon="9.6020177"><ele>384.3333333333333</ele><time>2026-04-11T08:51:54.622Z</time></trkpt><trkpt lat="40.6709205" lon="9.6019518"><ele>387.0</ele><time>2026-04-11T08:51:55.625Z</time></trkpt><trkpt lat="40.6708519" lon="9.6018763"><ele>387.0</ele><time>2026-04-11T08:51:56.622Z</time></trkpt><trkpt lat="40.670779" lon="9.6017981"><ele>387.0</ele><time>2026-04-11T08:51:57.615Z</time></trkpt><trkpt lat="40.6707027" lon="9.6017206"><ele>387.0</ele><time>2026-04-11T08:51:58.626Z</time></trkpt><trkpt lat="40.670626" lon="9.6016464"><ele>387.0</ele><time>2026-04-11T08:51:59.624Z</time></trkpt><trkpt lat="40.6705542" lon="9.6015725"><ele>387.0</ele><time>2026-04-11T08:52:00.621Z</time></trkpt><trkpt lat="40.6704841" lon="9.6015079"><ele>387.0</ele><time>2026-04-11T08:52:01.617Z</time></trkpt><trkpt lat="40.6704113" lon="9.6014614"><ele>387.0</ele><time>2026-04-11T08:52:02.617Z</time></trkpt><trkpt lat="40.6703305" lon="9.6014222"><ele>387.0</ele><time>2026-04-11T08:52:03.625Z</time></trkpt><trkpt lat="40.6702434" lon="9.6013894"><ele>387.0</ele><time>2026-04-11T08:52:04.625Z</time></trkpt><trkpt lat="40.6701489" lon="9.6013705"><ele>387.0</ele><time>2026-04-11T08:52:05.627Z</time></trkpt><trkpt lat="40.6700462" lon="9.6013538"><ele>390.0</ele><time>2026-04-11T08:52:06.62Z</time></trkpt><trkpt lat="40.669941" lon="9.601335"><ele>393.0</ele><time>2026-04-11T08:52:07.62Z</time></trkpt><trkpt lat="40.6698353" lon="9.6013122"><ele>396.0</ele><time>2026-04-11T08:52:08.615Z</time></trkpt><trkpt lat="40.6697316" lon="9.6012938"><ele>399.0</ele><time>2026-04-11T08:52:09.618Z</time></trkpt><trkpt lat="40.6696346" lon="9.6012931"><ele>402.0</ele><time>2026-04-11T08:52:10.615Z</time></trkpt><trkpt lat="40.6695471" lon="9.6013131"><ele>402.0</ele><time>2026-04-11T08:52:11.615Z</time></trkpt><trkpt lat="40.669466" lon="9.6013418"><ele>402.0</ele><time>2026-04-11T08:52:12.615Z</time></trkpt><trkpt lat="40.669383" lon="9.601382"><ele>402.0</ele><time>2026-04-11T08:52:13.621Z</time></trkpt><trkpt lat="40.6692963" lon="9.601426"><ele>402.0</ele><time>2026-04-11T08:52:14.621Z</time></trkpt><trkpt lat="40.669205" lon="9.6014785"><ele>402.0</ele><time>2026-04-11T08:52:15.773Z</time></trkpt><trkpt lat="40.6691266" lon="9.6015373"><ele>402.6</ele><time>2026-04-11T08:52:16.69Z</time></trkpt><trkpt lat="40.6690542" lon="9.6016164"><ele>403.20000000000005</ele><time>2026-04-11T08:52:17.649Z</time></trkpt><trkpt lat="40.6689894" lon="9.6017183"><ele>403.8</ele><time>2026-04-11T08:52:18.709Z</time></trkpt><trkpt lat="40.66893" lon="9.6018284"><ele>404.4</ele><time>2026-04-11T08:52:19.69Z</time></trkpt><trkpt lat="40.6688661" lon="9.6019374"><ele>405.0</ele><time>2026-04-11T08:52:20.643Z</time></trkpt><trkpt lat="40.6687958" lon="9.6020422"><ele>408.0</ele><time>2026-04-11T08:52:21.719Z</time></trkpt><trkpt lat="40.6687313" lon="9.602134"><ele>411.0</ele><time>2026-04-11T08:52:22.632Z</time></trkpt><trkpt lat="40.6686645" lon="9.6022354"><ele>414.0</ele><time>2026-04-11T08:52:23.615Z</time></trkpt><trkpt lat="40.668606" lon="9.6023488"><ele>417.0</ele><time>2026-04-11T08:52:24.623Z</time></trkpt><trkpt lat="40.6685565" lon="9.6024558"><ele>420.0</ele><time>2026-04-11T08:52:25.621Z</time></trkpt><trkpt lat="40.6685061" lon="9.6025358"><ele>420.0</ele><time>2026-04-11T08:52:26.616Z</time></trkpt><trkpt lat="40.6684071" lon="9.602547"><ele>420.0</ele><time>2026-04-11T08:52:28.621Z</time></trkpt><trkpt lat="40.6683384" lon="9.602456"><ele>420.0</ele><time>2026-04-11T08:52:30.613Z</time></trkpt><trkpt lat="40.6682547" lon="9.6023717"><ele>420.0</ele><time>2026-04-11T08:52:32.61Z</time></trkpt><trkpt lat="40.6681931" lon="9.602351"><ele>420.0</ele><time>2026-04-11T08:52:33.618Z</time></trkpt><trkpt lat="40.6681172" lon="9.6023491"><ele>420.0</ele><time>2026-04-11T08:52:34.607Z</time></trkpt><trkpt lat="40.6680358" lon="9.6023519"><ele>420.0</ele><time>2026-04-11T08:52:35.621Z</time></trkpt><trkpt lat="40.6679562" lon="9.6023429"><ele>420.0</ele><time>2026-04-11T08:52:36.613Z</time></trkpt><trkpt lat="40.6678855" lon="9.6023133"><ele>420.0</ele><time>2026-04-11T08:52:37.616Z</time></trkpt><trkpt lat="40.6678306" lon="9.6022524"><ele>420.0</ele><time>2026-04-11T08:52:38.605Z</time></trkpt><trkpt lat="40.6677892" lon="9.6021705"><ele>420.0</ele><time>2026-04-11T08:52:39.622Z</time></trkpt><trkpt lat="40.6677684" lon="9.6020842"><ele>420.0</ele><time>2026-04-11T08:52:40.618Z</time></trkpt><trkpt lat="40.6677252" lon="9.6019698"><ele>421.2</ele><time>2026-04-11T08:52:42.614Z</time></trkpt><trkpt lat="40.6676418" lon="9.6019772"><ele>422.4</ele><time>2026-04-11T08:52:44.621Z</time></trkpt><trkpt lat="40.6675632" lon="9.6020639"><ele>423.6</ele><time>2026-04-11T08:52:46.616Z</time></trkpt><trkpt lat="40.6675115" lon="9.6022057"><ele>424.8</ele><time>2026-04-11T08:52:48.615Z</time></trkpt><trkpt lat="40.6674352" lon="9.602317"><ele>426.0</ele><time>2026-04-11T08:52:50.615Z</time></trkpt><trkpt lat="40.6673198" lon="9.6023022"><ele>427.6</ele><time>2026-04-11T08:52:52.619Z</time></trkpt><trkpt lat="40.6672254" lon="9.6022143"><ele>429.20000000000005</ele><time>2026-04-11T08:52:54.615Z</time></trkpt><trkpt lat="40.6671245" lon="9.6021535"><ele>430.79999999999995</ele><time>2026-04-11T08:52:56.613Z</time></trkpt><trkpt lat="40.6669954" lon="9.6021644"><ele>432.4</ele><time>2026-04-11T08:52:58.606Z</time></trkpt><trkpt lat="40.6669191" lon="9.602192"><ele>434.0</ele><time>2026-04-11T08:52:59.607Z</time></trkpt><trkpt lat="40.6668408" lon="9.6022301"><ele>434.79999999999995</ele><time>2026-04-11T08:53:00.61Z</time></trkpt><trkpt lat="40.6667579" lon="9.6022805"><ele>435.59999999999997</ele><time>2026-04-11T08:53:01.616Z</time></trkpt><trkpt lat="40.666679" lon="9.6023546"><ele>436.4</ele><time>2026-04-11T08:53:02.614Z</time></trkpt><trkpt lat="40.6666046" lon="9.6024511"><ele>437.2</ele><time>2026-04-11T08:53:03.619Z</time></trkpt><trkpt lat="40.6665224" lon="9.6025526"><ele>438.0</ele><time>2026-04-11T08:53:04.618Z</time></trkpt><trkpt lat="40.666436" lon="9.602661"><ele>438.0</ele><time>2026-04-11T08:53:05.616Z</time></trkpt><trkpt lat="40.66635" lon="9.6027825"><ele>438.0</ele><time>2026-04-11T08:53:06.609Z</time></trkpt><trkpt lat="40.6662608" lon="9.6029052"><ele>438.0</ele><time>2026-04-11T08:53:07.626Z</time></trkpt><trkpt lat="40.6661626" lon="9.6030169"><ele>438.0</ele><time>2026-04-11T08:53:08.614Z</time></trkpt><trkpt lat="40.66606" lon="9.6031248"><ele>440.4</ele><time>2026-04-11T08:53:09.602Z</time></trkpt><trkpt lat="40.6659586" lon="9.6032275"><ele>442.79999999999995</ele><time>2026-04-11T08:53:10.609Z</time></trkpt><trkpt lat="40.6658639" lon="9.6033168"><ele>445.2</ele><time>2026-04-11T08:53:11.618Z</time></trkpt><trkpt lat="40.6657784" lon="9.6033884"><ele>447.6</ele><time>2026-04-11T08:53:12.608Z</time></trkpt><trkpt lat="40.6657061" lon="9.6034461"><ele>450.0</ele><time>2026-04-11T08:53:13.614Z</time></trkpt><trkpt lat="40.6656414" lon="9.6034979"><ele>450.0</ele><time>2026-04-11T08:53:14.611Z</time></trkpt><trkpt lat="40.6655825" lon="9.6035421"><ele>450.0</ele><time>2026-04-11T08:53:15.608Z</time></trkpt><trkpt lat="40.6654962" lon="9.6036221"><ele>450.0</ele><time>2026-04-11T08:53:17.619Z</time></trkpt><trkpt lat="40.6654232" lon="9.6037046"><ele>450.0</ele><time>2026-04-11T08:53:19.626Z</time></trkpt><trkpt lat="40.665354" lon="9.6037793"><ele>450.0</ele><time>2026-04-11T08:53:21.609Z</time></trkpt><trkpt lat="40.6652761" lon="9.6038505"><ele>449.4</ele><time>2026-04-11T08:53:23.607Z</time></trkpt><trkpt lat="40.665206" lon="9.6039343"><ele>448.8</ele><time>2026-04-11T08:53:25.6Z</time></trkpt><trkpt lat="40.6651484" lon="9.6040168"><ele>448.20000000000005</ele><time>2026-04-11T08:53:27.601Z</time></trkpt><trkpt lat="40.6650798" lon="9.6040871"><ele>447.6</ele><time>2026-04-11T08:53:29.602Z</time></trkpt><trkpt lat="40.665" lon="9.6041714"><ele>447.0</ele><time>2026-04-11T08:53:31.603Z</time></trkpt><trkpt lat="40.6649008" lon="9.6042716"><ele>447.0</ele><time>2026-04-11T08:53:33.609Z</time></trkpt><trkpt lat="40.6648455" lon="9.6043115"><ele>447.00000000000006</ele><time>2026-04-11T08:53:34.596Z</time></trkpt><trkpt lat="40.6647451" lon="9.6043686"><ele>447.00000000000006</ele><time>2026-04-11T08:53:36.596Z</time></trkpt><trkpt lat="40.664648" lon="9.6044122"><ele>447.0</ele><time>2026-04-11T08:53:38.594Z</time></trkpt><trkpt lat="40.6645484" lon="9.604449"><ele>447.0</ele><time>2026-04-11T08:53:40.594Z</time></trkpt><trkpt lat="40.6644439" lon="9.6044916"><ele>446.8</ele><time>2026-04-11T08:53:42.6Z</time></trkpt><trkpt lat="40.6643423" lon="9.6045524"><ele>446.6</ele><time>2026-04-11T08:53:44.597Z</time></trkpt><trkpt lat="40.6642294" lon="9.6045766"><ele>446.40000000000003</ele><time>2026-04-11T08:53:46.593Z</time></trkpt><trkpt lat="40.6641343" lon="9.6045533"><ele>446.20000000000005</ele><time>2026-04-11T08:53:48.591Z</time></trkpt><trkpt lat="40.6640681" lon="9.6044739"><ele>446.0</ele><time>2026-04-11T08:53:50.597Z</time></trkpt><trkpt lat="40.6640324" lon="9.6043627"><ele>444.8333333333333</ele><time>2026-04-11T08:53:52.592Z</time></trkpt><trkpt lat="40.6640002" lon="9.6042406"><ele>443.66666666666663</ele><time>2026-04-11T08:53:54.587Z</time></trkpt><trkpt lat="40.6639677" lon="9.6041293"><ele>442.5</ele><time>2026-04-11T08:53:56.587Z</time></trkpt><trkpt lat="40.6639389" lon="9.6040224"><ele>441.33333333333337</ele><time>2026-04-11T08:53:58.589Z</time></trkpt><trkpt lat="40.6639056" lon="9.6039287"><ele>440.1666666666667</ele><time>2026-04-11T08:54:00.586Z</time></trkpt><trkpt lat="40.663883" lon="9.6038308"><ele>439.0</ele><time>2026-04-11T08:54:02.584Z</time></trkpt><trkpt lat="40.663858" lon="9.6037512"><ele>439.00000000000006</ele><time>2026-04-11T08:54:04.583Z</time></trkpt><trkpt lat="40.6637955" lon="9.6036987"><ele>439.0</ele><time>2026-04-11T08:54:06.593Z</time></trkpt><trkpt lat="40.6637154" lon="9.6036725"><ele>439.0</ele><time>2026-04-11T08:54:08.586Z</time></trkpt><trkpt lat="40.6636306" lon="9.6036517"><ele>439.0</ele><time>2026-04-11T08:54:10.581Z</time></trkpt><trkpt lat="40.663546" lon="9.6036461"><ele>439.00000000000006</ele><time>2026-04-11T08:54:12.585Z</time></trkpt><trkpt lat="40.6634605" lon="9.6036403"><ele>439.0</ele><time>2026-04-11T08:54:14.596Z</time></trkpt><trkpt lat="40.6633803" lon="9.6036316"><ele>437.42857142857144</ele><time>2026-04-11T08:54:16.589Z</time></trkpt><trkpt lat="40.663307" lon="9.6036237"><ele>435.85714285714283</ele><time>2026-04-11T08:54:18.584Z</time></trkpt><trkpt lat="40.6632325" lon="9.603628"><ele>434.28571428571433</ele><time>2026-04-11T08:54:20.587Z</time></trkpt><trkpt lat="40.6631669" lon="9.6036724"><ele>432.7142857142857</ele><time>2026-04-11T08:54:23.589Z</time></trkpt><trkpt lat="40.6631319" lon="9.6037457"><ele>431.14285714285717</ele><time>2026-04-11T08:54:25.586Z</time></trkpt><trkpt lat="40.6630581" lon="9.6037662"><ele>429.5714285714286</ele><time>2026-04-11T08:54:27.583Z</time></trkpt><trkpt lat="40.6629942" lon="9.603761"><ele>428.0</ele><time>2026-04-11T08:54:29.582Z</time></trkpt><trkpt lat="40.6629168" lon="9.6037276"><ele>427.99999999999994</ele><time>2026-04-11T08:54:31.578Z</time></trkpt><trkpt lat="40.6628245" lon="9.6036706"><ele>428.0</ele><time>2026-04-11T08:54:33.584Z</time></trkpt><trkpt lat="40.6627323" lon="9.6036055"><ele>428.0</ele><time>2026-04-11T08:54:35.581Z</time></trkpt><trkpt lat="40.6626467" lon="9.6035578"><ele>428.0</ele><time>2026-04-11T08:54:37.582Z</time></trkpt><trkpt lat="40.6625716" lon="9.6035564"><ele>427.99999999999994</ele><time>2026-04-11T08:54:39.581Z</time></trkpt><trkpt lat="40.662505" lon="9.6035835"><ele>428.0</ele><time>2026-04-11T08:54:41.577Z</time></trkpt><trkpt lat="40.6624515" lon="9.6036326"><ele>426.49999999999994</ele><time>2026-04-11T08:54:43.581Z</time></trkpt><trkpt lat="40.6623905" lon="9.6036842"><ele>425.0</ele><time>2026-04-11T08:54:46.577Z</time></trkpt><trkpt lat="40.6623159" lon="9.6037268"><ele>423.5</ele><time>2026-04-11T08:54:49.578Z</time></trkpt><trkpt lat="40.6622472" lon="9.6037152"><ele>422.0</ele><time>2026-04-11T08:54:51.575Z</time></trkpt><trkpt lat="40.6621824" lon="9.603674"><ele>420.49999999999994</ele><time>2026-04-11T08:54:53.576Z</time></trkpt><trkpt lat="40.662114" lon="9.6036106"><ele>419.0</ele><time>2026-04-11T08:54:55.57Z</time></trkpt><trkpt lat="40.6620385" lon="9.603542"><ele>419.0</ele><time>2026-04-11T08:54:57.579Z</time></trkpt><trkpt lat="40.6619607" lon="9.6034494"><ele>419.0</ele><time>2026-04-11T08:54:59.579Z</time></trkpt><trkpt lat="40.6618591" lon="9.6033625"><ele>419.0</ele><time>2026-04-11T08:55:01.58Z</time></trkpt><trkpt lat="40.6617575" lon="9.6032889"><ele>419.0</ele><time>2026-04-11T08:55:03.676Z</time></trkpt><trkpt lat="40.6616592" lon="9.6032343"><ele>419.0</ele><time>2026-04-11T08:55:05.573Z</time></trkpt><trkpt lat="40.6615596" lon="9.6031443"><ele>417.8333333333333</ele><time>2026-04-11T08:55:07.567Z</time></trkpt><trkpt lat="40.6614632" lon="9.60304"><ele>416.66666666666663</ele><time>2026-04-11T08:55:09.584Z</time></trkpt><trkpt lat="40.6614104" lon="9.6029894"><ele>415.5</ele><time>2026-04-11T08:55:10.569Z</time></trkpt><trkpt lat="40.661353" lon="9.6029433"><ele>414.33333333333337</ele><time>2026-04-11T08:55:11.57Z</time></trkpt><trkpt lat="40.6612986" lon="9.6028953"><ele>413.1666666666667</ele><time>2026-04-11T08:55:12.575Z</time></trkpt><trkpt lat="40.6612069" lon="9.6027903"><ele>412.0</ele><time>2026-04-11T08:55:14.579Z</time></trkpt><trkpt lat="40.6611128" lon="9.6026956"><ele>408.0</ele><time>2026-04-11T08:55:16.576Z</time></trkpt><trkpt lat="40.6610177" lon="9.6026053"><ele>404.0</ele><time>2026-04-11T08:55:18.569Z</time></trkpt><trkpt lat="40.6609283" lon="9.6025211"><ele>400.0</ele><time>2026-04-11T08:55:20.573Z</time></trkpt><trkpt lat="40.6608293" lon="9.6024663"><ele>396.0</ele><time>2026-04-11T08:55:22.579Z</time></trkpt><trkpt lat="40.6607333" lon="9.6024102"><ele>392.0</ele><time>2026-04-11T08:55:24.575Z</time></trkpt><trkpt lat="40.6606399" lon="9.602344"><ele>392.0</ele><time>2026-04-11T08:55:26.573Z</time></trkpt><trkpt lat="40.6605492" lon="9.6022339"><ele>392.0</ele><time>2026-04-11T08:55:28.575Z</time></trkpt><trkpt lat="40.6605048" lon="9.6021722"><ele>392.0</ele><time>2026-04-11T08:55:29.588Z</time></trkpt><trkpt lat="40.6604248" lon="9.6020575"><ele>392.0</ele><time>2026-04-11T08:55:31.569Z</time></trkpt><trkpt lat="40.6603391" lon="9.6019426"><ele>392.0</ele><time>2026-04-11T08:55:33.57Z</time></trkpt><trkpt lat="40.6602798" lon="9.6018809"><ele>389.99999999999994</ele><time>2026-04-11T08:55:34.575Z</time></trkpt><trkpt lat="40.6602132" lon="9.6018165"><ele>388.0</ele><time>2026-04-11T08:55:35.571Z</time></trkpt><trkpt lat="40.6601444" lon="9.6017551"><ele>386.0</ele><time>2026-04-11T08:55:36.574Z</time></trkpt><trkpt lat="40.6600726" lon="9.6017001"><ele>384.0</ele><time>2026-04-11T08:55:37.571Z</time></trkpt><trkpt lat="40.660009" lon="9.6016441"><ele>382.0</ele><time>2026-04-11T08:55:38.568Z</time></trkpt><trkpt lat="40.6599481" lon="9.6015936"><ele>380.0</ele><time>2026-04-11T08:55:39.568Z</time></trkpt><trkpt lat="40.6598847" lon="9.6015543"><ele>380.0</ele><time>2026-04-11T08:55:40.566Z</time></trkpt><trkpt lat="40.6597877" lon="9.6014759"><ele>380.0</ele><time>2026-04-11T08:55:42.566Z</time></trkpt><trkpt lat="40.6597652" lon="9.6013579"><ele>380.0</ele><time>2026-04-11T08:55:44.563Z</time></trkpt><trkpt lat="40.6597473" lon="9.6012241"><ele>380.0</ele><time>2026-04-11T08:55:46.579Z</time></trkpt><trkpt lat="40.6597169" lon="9.6010804"><ele>380.0</ele><time>2026-04-11T08:55:48.562Z</time></trkpt><trkpt lat="40.6596841" lon="9.6009449"><ele>381.0</ele><time>2026-04-11T08:55:50.568Z</time></trkpt><trkpt lat="40.6596463" lon="9.6008035"><ele>382.0</ele><time>2026-04-11T08:55:52.563Z</time></trkpt><trkpt lat="40.6596176" lon="9.6006541"><ele>383.0</ele><time>2026-04-11T08:55:54.577Z</time></trkpt><trkpt lat="40.6595925" lon="9.6005039"><ele>384.0</ele><time>2026-04-11T08:55:56.561Z</time></trkpt><trkpt lat="40.6595334" lon="9.6003662"><ele>383.8333333333333</ele><time>2026-04-11T08:55:58.563Z</time></trkpt><trkpt lat="40.6594633" lon="9.6002306"><ele>383.6666666666667</ele><time>2026-04-11T08:56:00.567Z</time></trkpt><trkpt lat="40.6594229" lon="9.600165"><ele>383.5</ele><time>2026-04-11T08:56:01.563Z</time></trkpt><trkpt lat="40.6593831" lon="9.6000968"><ele>383.33333333333337</ele><time>2026-04-11T08:56:02.56Z</time></trkpt><trkpt lat="40.659343" lon="9.6000293"><ele>383.1666666666667</ele><time>2026-04-11T08:56:03.564Z</time></trkpt><trkpt lat="40.6593008" lon="9.5999624"><ele>383.0</ele><time>2026-04-11T08:56:04.559Z</time></trkpt><trkpt lat="40.659258" lon="9.599889"><ele>378.59999999999997</ele><time>2026-04-11T08:56:05.558Z</time></trkpt><trkpt lat="40.6592128" lon="9.599819"><ele>374.2</ele><time>2026-04-11T08:56:06.558Z</time></trkpt><trkpt lat="40.6591247" lon="9.5997232"><ele>369.8</ele><time>2026-04-11T08:56:08.564Z</time></trkpt><trkpt lat="40.6590236" lon="9.5996914"><ele>365.4</ele><time>2026-04-11T08:56:10.558Z</time></trkpt><trkpt lat="40.6589169" lon="9.599659"><ele>361.0</ele><time>2026-04-11T08:56:12.56Z</time></trkpt><trkpt lat="40.6587952" lon="9.5996368"><ele>361.0</ele><time>2026-04-11T08:56:14.563Z</time></trkpt><trkpt lat="40.658729" lon="9.5996324"><ele>361.0</ele><time>2026-04-11T08:56:15.566Z</time></trkpt><trkpt lat="40.6586629" lon="9.5996338"><ele>361.0</ele><time>2026-04-11T08:56:16.557Z</time></trkpt><trkpt lat="40.6585499" lon="9.5996296"><ele>361.0</ele><time>2026-04-11T08:56:18.56Z</time></trkpt><trkpt lat="40.6584591" lon="9.5996845"><ele>361.0</ele><time>2026-04-11T08:56:20.556Z</time></trkpt><trkpt lat="40.6584299" lon="9.5998175"><ele>359.0</ele><time>2026-04-11T08:56:22.557Z</time></trkpt><trkpt lat="40.6584383" lon="9.5999795"><ele>357.0</ele><time>2026-04-11T08:56:24.555Z</time></trkpt><trkpt lat="40.6584458" lon="9.6000636"><ele>355.0</ele><time>2026-04-11T08:56:25.553Z</time></trkpt><trkpt lat="40.6584468" lon="9.6002261"><ele>353.0</ele><time>2026-04-11T08:56:27.56Z</time></trkpt><trkpt lat="40.6584461" lon="9.6003902"><ele>351.0</ele><time>2026-04-11T08:56:29.554Z</time></trkpt><trkpt lat="40.658445" lon="9.6004757"><ele>350.14285714285717</ele><time>2026-04-11T08:56:30.563Z</time></trkpt><trkpt lat="40.6584418" lon="9.6005674"><ele>349.2857142857143</ele><time>2026-04-11T08:56:31.558Z</time></trkpt><trkpt lat="40.6584359" lon="9.600662"><ele>348.42857142857144</ele><time>2026-04-11T08:56:32.558Z</time></trkpt><trkpt lat="40.6584325" lon="9.6007584"><ele>347.57142857142856</ele><time>2026-04-11T08:56:33.556Z</time></trkpt><trkpt lat="40.6584259" lon="9.6008563"><ele>346.7142857142857</ele><time>2026-04-11T08:56:34.563Z</time></trkpt><trkpt lat="40.6584095" lon="9.6009548"><ele>345.8571428571429</ele><time>2026-04-11T08:56:35.56Z</time></trkpt><trkpt lat="40.6583897" lon="9.6010428"><ele>345.0</ele><time>2026-04-11T08:56:36.56Z</time></trkpt><trkpt lat="40.658364" lon="9.6011283"><ele>343.6666666666667</ele><time>2026-04-11T08:56:37.553Z</time></trkpt><trkpt lat="40.658338" lon="9.601208"><ele>342.3333333333333</ele><time>2026-04-11T08:56:38.558Z</time></trkpt><trkpt lat="40.6582852" lon="9.6013551"><ele>341.0</ele><time>2026-04-11T08:56:40.556Z</time></trkpt><trkpt lat="40.6582551" lon="9.6014361"><ele>339.66666666666663</ele><time>2026-04-11T08:56:41.559Z</time></trkpt><trkpt lat="40.6582221" lon="9.6015247"><ele>338.3333333333333</ele><time>2026-04-11T08:56:42.555Z</time></trkpt><trkpt lat="40.6581877" lon="9.6016134"><ele>337.0</ele><time>2026-04-11T08:56:43.552Z</time></trkpt><trkpt lat="40.6581556" lon="9.6017014"><ele>337.0</ele><time>2026-04-11T08:56:44.56Z</time></trkpt><trkpt lat="40.6581167" lon="9.6017793"><ele>337.0</ele><time>2026-04-11T08:56:45.563Z</time></trkpt><trkpt lat="40.6580637" lon="9.6018322"><ele>337.0</ele><time>2026-04-11T08:56:46.559Z</time></trkpt><trkpt lat="40.6580016" lon="9.601862"><ele>337.0</ele><time>2026-04-11T08:56:47.556Z</time></trkpt><trkpt lat="40.6578884" lon="9.6018744"><ele>337.0</ele><time>2026-04-11T08:56:49.559Z</time></trkpt><trkpt lat="40.6577797" lon="9.6018868"><ele>337.0</ele><time>2026-04-11T08:56:51.553Z</time></trkpt><trkpt lat="40.6576952" lon="9.6019586"><ele>336.40000000000003</ele><time>2026-04-11T08:56:53.558Z</time></trkpt><trkpt lat="40.6576277" lon="9.6020413"><ele>335.8</ele><time>2026-04-11T08:56:55.552Z</time></trkpt><trkpt lat="40.6576042" lon="9.6021434"><ele>335.2</ele><time>2026-04-11T08:56:58.564Z</time></trkpt><trkpt lat="40.6576451" lon="9.6022175"><ele>334.6</ele><time>2026-04-11T08:57:00.549Z</time></trkpt><trkpt lat="40.6577512" lon="9.6022878"><ele>334.0</ele><time>2026-04-11T08:57:02.552Z</time></trkpt><trkpt lat="40.6578041" lon="9.6023964"><ele>330.8333333333333</ele><time>2026-04-11T08:57:04.55Z</time></trkpt><trkpt lat="40.6577626" lon="9.6024739"><ele>327.66666666666663</ele><time>2026-04-11T08:57:06.555Z</time></trkpt><trkpt lat="40.6576646" lon="9.6024708"><ele>324.5</ele><time>2026-04-11T08:57:08.55Z</time></trkpt><trkpt lat="40.6575505" lon="9.6024511"><ele>321.3333333333333</ele><time>2026-04-11T08:57:10.548Z</time></trkpt><trkpt lat="40.6574853" lon="9.6024583"><ele>318.1666666666667</ele><time>2026-04-11T08:57:11.548Z</time></trkpt><trkpt lat="40.6574162" lon="9.6024861"><ele>315.0</ele><time>2026-04-11T08:57:12.554Z</time></trkpt><trkpt lat="40.6573458" lon="9.6025062"><ele>315.0</ele><time>2026-04-11T08:57:13.539Z</time></trkpt><trkpt lat="40.6572785" lon="9.602506"><ele>315.0</ele><time>2026-04-11T08:57:14.555Z</time></trkpt><trkpt lat="40.6572145" lon="9.6024799"><ele>315.0</ele><time>2026-04-11T08:57:15.552Z</time></trkpt><trkpt lat="40.6571582" lon="9.6024334"><ele>315.0</ele><time>2026-04-11T08:57:16.545Z</time></trkpt><trkpt lat="40.6571008" lon="9.6023702"><ele>315.0</ele><time>2026-04-11T08:57:17.553Z</time></trkpt><trkpt lat="40.65704" lon="9.6022978"><ele>315.0</ele><time>2026-04-11T08:57:18.546Z</time></trkpt><trkpt lat="40.6569825" lon="9.6022214"><ele>315.0</ele><time>2026-04-11T08:57:19.549Z</time></trkpt><trkpt lat="40.6569279" lon="9.6021436"><ele>313.6666666666667</ele><time>2026-04-11T08:57:20.545Z</time></trkpt><trkpt lat="40.6568698" lon="9.6020656"><ele>312.3333333333333</ele><time>2026-04-11T08:57:21.546Z</time></trkpt><trkpt lat="40.656804" lon="9.6019879"><ele>311.0</ele><time>2026-04-11T08:57:22.549Z</time></trkpt><trkpt lat="40.6567397" lon="9.6019077"><ele>309.66666666666663</ele><time>2026-04-11T08:57:23.544Z</time></trkpt><trkpt lat="40.6566763" lon="9.6018345"><ele>308.3333333333333</ele><time>2026-04-11T08:57:24.553Z</time></trkpt><trkpt lat="40.6566099" lon="9.6017687"><ele>307.0</ele><time>2026-04-11T08:57:25.541Z</time></trkpt><trkpt lat="40.6565449" lon="9.6016995"><ele>307.0</ele><time>2026-04-11T08:57:26.547Z</time></trkpt><trkpt lat="40.6564841" lon="9.6016314"><ele>307.0</ele><time>2026-04-11T08:57:27.539Z</time></trkpt><trkpt lat="40.6564237" lon="9.6015739"><ele>307.0</ele><time>2026-04-11T08:57:28.543Z</time></trkpt><trkpt lat="40.65636" lon="9.6015318"><ele>307.0</ele><time>2026-04-11T08:57:29.541Z</time></trkpt><trkpt lat="40.6562858" lon="9.6014945"><ele>307.0</ele><time>2026-04-11T08:57:30.547Z</time></trkpt><trkpt lat="40.6562166" lon="9.601455"><ele>307.0</ele><time>2026-04-11T08:57:31.558Z</time></trkpt><trkpt lat="40.6561522" lon="9.6014083"><ele>306.0</ele><time>2026-04-11T08:57:32.541Z</time></trkpt><trkpt lat="40.6560823" lon="9.6013593"><ele>305.0</ele><time>2026-04-11T08:57:33.541Z</time></trkpt><trkpt lat="40.6560075" lon="9.6013115"><ele>304.0</ele><time>2026-04-11T08:57:34.539Z</time></trkpt><trkpt lat="40.6559365" lon="9.6012629"><ele>303.0</ele><time>2026-04-11T08:57:35.548Z</time></trkpt><trkpt lat="40.655869" lon="9.601218"><ele>302.0</ele><time>2026-04-11T08:57:36.541Z</time></trkpt><trkpt lat="40.6557989" lon="9.6011851"><ele>301.0</ele><time>2026-04-11T08:57:37.542Z</time></trkpt><trkpt lat="40.6557278" lon="9.6011618"><ele>301.0</ele><time>2026-04-11T08:57:38.537Z</time></trkpt><trkpt lat="40.6556578" lon="9.6011462"><ele>301.0</ele><time>2026-04-11T08:57:39.545Z</time></trkpt><trkpt lat="40.6555815" lon="9.6011419"><ele>301.0</ele><time>2026-04-11T08:57:40.544Z</time></trkpt><trkpt lat="40.6554997" lon="9.6011458"><ele>301.0</ele><time>2026-04-11T08:57:41.544Z</time></trkpt><trkpt lat="40.6554162" lon="9.6011497"><ele>301.0</ele><time>2026-04-11T08:57:42.537Z</time></trkpt><trkpt lat="40.6553332" lon="9.6011441"><ele>301.0</ele><time>2026-04-11T08:57:43.539Z</time></trkpt><trkpt lat="40.6552457" lon="9.6011347"><ele>297.0</ele><time>2026-04-11T08:57:44.545Z</time></trkpt><trkpt lat="40.655161" lon="9.6011213"><ele>293.0</ele><time>2026-04-11T08:57:45.547Z</time></trkpt><trkpt lat="40.655082" lon="9.6011096"><ele>289.0</ele><time>2026-04-11T08:57:46.531Z</time></trkpt><trkpt lat="40.6550063" lon="9.6010927"><ele>285.0</ele><time>2026-04-11T08:57:47.54Z</time></trkpt><trkpt lat="40.6549373" lon="9.6010751"><ele>281.0</ele><time>2026-04-11T08:57:48.541Z</time></trkpt><trkpt lat="40.6547762" lon="9.6010714"><ele>281.0</ele><time>2026-04-11T08:57:51.548Z</time></trkpt><trkpt lat="40.6546955" lon="9.6010669"><ele>281.0</ele><time>2026-04-11T08:57:53.539Z</time></trkpt><trkpt lat="40.6546263" lon="9.6010764"><ele>281.0</ele><time>2026-04-11T08:57:56.65Z</time></trkpt><trkpt lat="40.6545307" lon="9.6010504"><ele>281.0</ele><time>2026-04-11T08:58:30.642Z</time></trkpt><trkpt lat="40.6544564" lon="9.6010473"><ele>281.0</ele><time>2026-04-11T08:58:32.647Z</time></trkpt><trkpt lat="40.6543832" lon="9.6010484"><ele>281.0</ele><time>2026-04-11T08:58:34.637Z</time></trkpt><trkpt lat="40.6543203" lon="9.6010621"><ele>278.0</ele><time>2026-04-11T08:58:36.631Z</time></trkpt><trkpt lat="40.6542494" lon="9.6010866"><ele>275.0</ele><time>2026-04-11T08:58:38.649Z</time></trkpt><trkpt lat="40.6541628" lon="9.601106"><ele>272.0</ele><time>2026-04-11T08:58:40.629Z</time></trkpt><trkpt lat="40.6540905" lon="9.6010502"><ele>269.0</ele><time>2026-04-11T08:58:42.638Z</time></trkpt><trkpt lat="40.654008" lon="9.6009501"><ele>266.0</ele><time>2026-04-11T08:58:44.654Z</time></trkpt><trkpt lat="40.6539177" lon="9.6008379"><ele>266.0</ele><time>2026-04-11T08:58:46.634Z</time></trkpt><trkpt lat="40.6538342" lon="9.6007302"><ele>266.0</ele><time>2026-04-11T08:58:48.639Z</time></trkpt><trkpt lat="40.6537589" lon="9.600628"><ele>266.0</ele><time>2026-04-11T08:58:50.633Z</time></trkpt><trkpt lat="40.6537077" lon="9.6005322"><ele>266.0</ele><time>2026-04-11T08:58:52.629Z</time></trkpt><trkpt lat="40.6536732" lon="9.6004609"><ele>266.0</ele><time>2026-04-11T08:58:54.642Z</time></trkpt><trkpt lat="40.6536188" lon="9.6004005"><ele>266.0</ele><time>2026-04-11T08:58:57.641Z</time></trkpt><trkpt lat="40.6535679" lon="9.6004618"><ele>262.33333333333337</ele><time>2026-04-11T08:59:00.633Z</time></trkpt><trkpt lat="40.6535818" lon="9.6005585"><ele>258.6666666666667</ele><time>2026-04-11T08:59:02.634Z</time></trkpt><trkpt lat="40.6536025" lon="9.6006563"><ele>255.0</ele><time>2026-04-11T08:59:04.625Z</time></trkpt><trkpt lat="40.6536115" lon="9.6008125"><ele>251.33333333333331</ele><time>2026-04-11T08:59:25.641Z</time></trkpt><trkpt lat="40.6536205" lon="9.600896"><ele>247.66666666666666</ele><time>2026-04-11T08:59:28.629Z</time></trkpt><trkpt lat="40.6536169" lon="9.6010444"><ele>244.0</ele><time>2026-04-11T09:10:54.147Z</time></trkpt><trkpt lat="40.6536178" lon="9.6011357"><ele>243.99999999999997</ele><time>2026-04-11T09:10:56.144Z</time></trkpt><trkpt lat="40.6536119" lon="9.6012233"><ele>244.0</ele><time>2026-04-11T09:10:58.147Z</time></trkpt><trkpt lat="40.6535642" lon="9.6013013"><ele>243.99999999999997</ele><time>2026-04-11T09:11:01.139Z</time></trkpt><trkpt lat="40.6534963" lon="9.6012613"><ele>243.99999999999997</ele><time>2026-04-11T09:11:04.153Z</time></trkpt><trkpt lat="40.6534581" lon="9.6011932"><ele>244.0</ele><time>2026-04-11T09:11:06.154Z</time></trkpt><trkpt lat="40.6534072" lon="9.6011181"><ele>243.99999999999997</ele><time>2026-04-11T09:11:08.139Z</time></trkpt><trkpt lat="40.6533443" lon="9.6010461"><ele>243.99999999999997</ele><time>2026-04-11T09:11:10.131Z</time></trkpt><trkpt lat="40.6532615" lon="9.6009879"><ele>244.0</ele><time>2026-04-11T09:11:12.132Z</time></trkpt><trkpt lat="40.6531698" lon="9.6009462"><ele>243.99999999999997</ele><time>2026-04-11T09:11:14.133Z</time></trkpt><trkpt lat="40.6530778" lon="9.6008931"><ele>243.99999999999997</ele><time>2026-04-11T09:11:16.137Z</time></trkpt><trkpt lat="40.6530208" lon="9.6008048"><ele>244.0</ele><time>2026-04-11T09:11:18.141Z</time></trkpt><trkpt lat="40.6529706" lon="9.6006918"><ele>244.0</ele><time>2026-04-11T09:11:20.138Z</time></trkpt><trkpt lat="40.6529184" lon="9.6005742"><ele>243.99999999999997</ele><time>2026-04-11T09:11:22.123Z</time></trkpt><trkpt lat="40.6528621" lon="9.6004731"><ele>244.0</ele><time>2026-04-11T09:11:24.138Z</time></trkpt><trkpt lat="40.6528317" lon="9.6003796"><ele>244.0</ele><time>2026-04-11T09:11:26.123Z</time></trkpt><trkpt lat="40.6528001" lon="9.6002851"><ele>244.0</ele><time>2026-04-11T09:11:29.118Z</time></trkpt><trkpt lat="40.6527554" lon="9.6003442"><ele>243.99999999999997</ele><time>2026-04-11T09:11:32.123Z</time></trkpt><trkpt lat="40.652745" lon="9.6004681"><ele>244.0</ele><time>2026-04-11T09:11:35.121Z</time></trkpt><trkpt lat="40.6527512" lon="9.6005845"><ele>239.66666666666666</ele><time>2026-04-11T09:11:37.114Z</time></trkpt><trkpt lat="40.6527426" lon="9.6006943"><ele>235.33333333333331</ele><time>2026-04-11T09:11:39.117Z</time></trkpt><trkpt lat="40.6527082" lon="9.6007955"><ele>231.0</ele><time>2026-04-11T09:11:41.118Z</time></trkpt><trkpt lat="40.6526804" lon="9.6008978"><ele>226.66666666666669</ele><time>2026-04-11T09:11:43.113Z</time></trkpt><trkpt lat="40.6526501" lon="9.6009798"><ele>222.33333333333334</ele><time>2026-04-11T09:11:45.118Z</time></trkpt><trkpt lat="40.6525801" lon="9.6009525"><ele>218.0</ele><time>2026-04-11T09:11:48.111Z</time></trkpt><trkpt lat="40.6525657" lon="9.6008287"><ele>218.00000000000003</ele><time>2026-04-11T09:11:51.109Z</time></trkpt><trkpt lat="40.6525674" lon="9.600744"><ele>218.0</ele><time>2026-04-11T09:11:53.107Z</time></trkpt><trkpt lat="40.6525561" lon="9.6006521"><ele>218.0</ele><time>2026-04-11T09:11:55.108Z</time></trkpt><trkpt lat="40.6525084" lon="9.600518"><ele>218.0</ele><time>2026-04-11T09:11:58.113Z</time></trkpt><trkpt lat="40.6524638" lon="9.6004393"><ele>218.00000000000003</ele><time>2026-04-11T09:12:00.207Z</time></trkpt><trkpt lat="40.6524405" lon="9.6003376"><ele>218.0</ele><time>2026-04-11T09:12:02.22Z</time></trkpt><trkpt lat="40.6524392" lon="9.6001999"><ele>218.2</ele><time>2026-04-11T09:12:04.207Z</time></trkpt><trkpt lat="40.6524356" lon="9.6000485"><ele>218.4</ele><time>2026-04-11T09:12:06.201Z</time></trkpt><trkpt lat="40.6524153" lon="9.599903"><ele>218.59999999999997</ele><time>2026-04-11T09:12:08.208Z</time></trkpt><trkpt lat="40.6524013" lon="9.5998179"><ele>218.79999999999998</ele><time>2026-04-11T09:12:09.216Z</time></trkpt><trkpt lat="40.6523875" lon="9.599719"><ele>219.0</ele><time>2026-04-11T09:12:10.196Z</time></trkpt><trkpt lat="40.652375" lon="9.5996116"><ele>219.0</ele><time>2026-04-11T09:12:11.214Z</time></trkpt><trkpt lat="40.6523667" lon="9.5995059"><ele>219.0</ele><time>2026-04-11T09:12:12.213Z</time></trkpt><trkpt lat="40.6523648" lon="9.599407"><ele>219.0</ele><time>2026-04-11T09:12:13.202Z</time></trkpt><trkpt lat="40.6523613" lon="9.5993142"><ele>219.0</ele><time>2026-04-11T09:12:14.198Z</time></trkpt><trkpt lat="40.6523541" lon="9.5992288"><ele>219.0</ele><time>2026-04-11T09:12:15.196Z</time></trkpt><trkpt lat="40.6523456" lon="9.5991306"><ele>219.0</ele><time>2026-04-11T09:12:16.197Z</time></trkpt><trkpt lat="40.6523377" lon="9.599027"><ele>219.0</ele><time>2026-04-11T09:12:17.201Z</time></trkpt><trkpt lat="40.6523354" lon="9.598925"><ele>218.83333333333334</ele><time>2026-04-11T09:12:18.201Z</time></trkpt><trkpt lat="40.652339" lon="9.5988273"><ele>218.66666666666669</ele><time>2026-04-11T09:12:19.203Z</time></trkpt><trkpt lat="40.652345" lon="9.5987332"><ele>218.5</ele><time>2026-04-11T09:12:20.201Z</time></trkpt><trkpt lat="40.6523505" lon="9.5985879"><ele>218.33333333333334</ele><time>2026-04-11T09:12:22.219Z</time></trkpt><trkpt lat="40.6522793" lon="9.5985784"><ele>218.16666666666669</ele><time>2026-04-11T09:12:25.195Z</time></trkpt><trkpt lat="40.6522559" lon="9.5986884"><ele>218.0</ele><time>2026-04-11T09:12:28.234Z</time></trkpt><trkpt lat="40.6522394" lon="9.5988287"><ele>218.0</ele><time>2026-04-11T09:12:30.209Z</time></trkpt><trkpt lat="40.6522217" lon="9.5989184"><ele>218.0</ele><time>2026-04-11T09:12:31.215Z</time></trkpt><trkpt lat="40.6522032" lon="9.5990106"><ele>218.0</ele><time>2026-04-11T09:12:32.2Z</time></trkpt><trkpt lat="40.6521859" lon="9.5991013"><ele>218.0</ele><time>2026-04-11T09:12:33.194Z</time></trkpt><trkpt lat="40.6521703" lon="9.5991924"><ele>218.0</ele><time>2026-04-11T09:12:34.19Z</time></trkpt><trkpt lat="40.6521552" lon="9.5992798"><ele>218.0</ele><time>2026-04-11T09:12:35.198Z</time></trkpt><trkpt lat="40.6521393" lon="9.5993693"><ele>218.0</ele><time>2026-04-11T09:12:36.187Z</time></trkpt><trkpt lat="40.6521244" lon="9.5994665"><ele>218.14285714285714</ele><time>2026-04-11T09:12:37.184Z</time></trkpt><trkpt lat="40.6521051" lon="9.5995739"><ele>218.28571428571428</ele><time>2026-04-11T09:12:38.191Z</time></trkpt><trkpt lat="40.6520852" lon="9.5996782"><ele>218.42857142857144</ele><time>2026-04-11T09:12:39.186Z</time></trkpt><trkpt lat="40.6520677" lon="9.5997744"><ele>218.57142857142856</ele><time>2026-04-11T09:12:40.184Z</time></trkpt><trkpt lat="40.6520541" lon="9.5998678"><ele>218.7142857142857</ele><time>2026-04-11T09:12:41.19Z</time></trkpt><trkpt lat="40.6520447" lon="9.5999549"><ele>218.85714285714286</ele><time>2026-04-11T09:12:42.192Z</time></trkpt><trkpt lat="40.6520339" lon="9.6000432"><ele>219.0</ele><time>2026-04-11T09:12:43.191Z</time></trkpt><trkpt lat="40.6520173" lon="9.6001282"><ele>219.0</ele><time>2026-04-11T09:12:44.182Z</time></trkpt><trkpt lat="40.6519959" lon="9.6002141"><ele>219.0</ele><time>2026-04-11T09:12:45.182Z</time></trkpt><trkpt lat="40.6519678" lon="9.6003032"><ele>219.0</ele><time>2026-04-11T09:12:46.182Z</time></trkpt><trkpt lat="40.6519321" lon="9.6003885"><ele>219.0</ele><time>2026-04-11T09:12:47.18Z</time></trkpt><trkpt lat="40.6518836" lon="9.6004676"><ele>219.0</ele><time>2026-04-11T09:12:48.193Z</time></trkpt><trkpt lat="40.6518289" lon="9.6005369"><ele>219.0</ele><time>2026-04-11T09:12:49.195Z</time></trkpt><trkpt lat="40.6517804" lon="9.6006073"><ele>219.0</ele><time>2026-04-11T09:12:50.183Z</time></trkpt><trkpt lat="40.6517441" lon="9.6006812"><ele>213.83333333333334</ele><time>2026-04-11T09:12:51.188Z</time></trkpt><trkpt lat="40.6517119" lon="9.6007662"><ele>208.66666666666666</ele><time>2026-04-11T09:12:52.189Z</time></trkpt><trkpt lat="40.6516783" lon="9.6008539"><ele>203.5</ele><time>2026-04-11T09:12:53.198Z</time></trkpt><trkpt lat="40.6516449" lon="9.6009394"><ele>198.33333333333331</ele><time>2026-04-11T09:12:54.181Z</time></trkpt><trkpt lat="40.6516137" lon="9.6010211"><ele>193.16666666666666</ele><time>2026-04-11T09:12:55.195Z</time></trkpt><trkpt lat="40.6515677" lon="9.6011488"><ele>188.0</ele><time>2026-04-11T09:12:57.186Z</time></trkpt><trkpt lat="40.6515032" lon="9.6011586"><ele>188.0</ele><time>2026-04-11T09:12:59.195Z</time></trkpt><trkpt lat="40.6514312" lon="9.6010696"><ele>188.0</ele><time>2026-04-11T09:13:01.184Z</time></trkpt><trkpt lat="40.6513975" lon="9.6009291"><ele>188.0</ele><time>2026-04-11T09:13:03.185Z</time></trkpt><trkpt lat="40.6513745" lon="9.6007868"><ele>188.0</ele><time>2026-04-11T09:13:05.185Z</time></trkpt><trkpt lat="40.6513345" lon="9.6006781"><ele>188.0</ele><time>2026-04-11T09:13:07.188Z</time></trkpt><trkpt lat="40.6513251" lon="9.6005689"><ele>188.0</ele><time>2026-04-11T09:13:09.182Z</time></trkpt><trkpt lat="40.6513468" lon="9.6004598"><ele>188.0</ele><time>2026-04-11T09:13:11.175Z</time></trkpt><trkpt lat="40.6513745" lon="9.6003394"><ele>188.0</ele><time>2026-04-11T09:13:13.181Z</time></trkpt><trkpt lat="40.6514281" lon="9.6002098"><ele>188.0</ele><time>2026-04-11T09:13:15.181Z</time></trkpt><trkpt lat="40.6514725" lon="9.600069"><ele>188.0</ele><time>2026-04-11T09:13:17.171Z</time></trkpt><trkpt lat="40.6514706" lon="9.5999354"><ele>187.16666666666666</ele><time>2026-04-11T09:13:19.182Z</time></trkpt><trkpt lat="40.6514391" lon="9.599824"><ele>186.33333333333331</ele><time>2026-04-11T09:13:21.181Z</time></trkpt><trkpt lat="40.6513856" lon="9.5997367"><ele>185.5</ele><time>2026-04-11T09:13:23.177Z</time></trkpt><trkpt lat="40.651327" lon="9.5996461"><ele>184.66666666666666</ele><time>2026-04-11T09:13:25.163Z</time></trkpt><trkpt lat="40.6512803" lon="9.5995682"><ele>183.83333333333334</ele><time>2026-04-11T09:13:27.168Z</time></trkpt><trkpt lat="40.6512358" lon="9.5994966"><ele>183.0</ele><time>2026-04-11T09:13:29.164Z</time></trkpt><trkpt lat="40.6511471" lon="9.5995147"><ele>179.16666666666666</ele><time>2026-04-11T09:13:32.174Z</time></trkpt><trkpt lat="40.651096" lon="9.5995953"><ele>175.33333333333334</ele><time>2026-04-11T09:13:34.165Z</time></trkpt><trkpt lat="40.6510362" lon="9.5996324"><ele>171.5</ele><time>2026-04-11T09:13:36.181Z</time></trkpt><trkpt lat="40.6509632" lon="9.5995621"><ele>167.66666666666669</ele><time>2026-04-11T09:13:39.178Z</time></trkpt><trkpt lat="40.6509266" lon="9.5994743"><ele>163.83333333333334</ele><time>2026-04-11T09:13:41.169Z</time></trkpt><trkpt lat="40.6508675" lon="9.5993915"><ele>160.0</ele><time>2026-04-11T09:13:43.168Z</time></trkpt><trkpt lat="40.6507724" lon="9.5993544"><ele>159.16666666666669</ele><time>2026-04-11T09:13:45.168Z</time></trkpt><trkpt lat="40.6506948" lon="9.5993239"><ele>158.33333333333334</ele><time>2026-04-11T09:13:47.182Z</time></trkpt><trkpt lat="40.6506576" lon="9.5992563"><ele>157.5</ele><time>2026-04-11T09:13:49.166Z</time></trkpt><trkpt lat="40.6507" lon="9.599159"><ele>156.66666666666666</ele><time>2026-04-11T09:13:52.158Z</time></trkpt><trkpt lat="40.6507631" lon="9.5990764"><ele>155.83333333333331</ele><time>2026-04-11T09:13:55.155Z</time></trkpt><trkpt lat="40.6507797" lon="9.5989576"><ele>155.0</ele><time>2026-04-11T09:13:58.16Z</time></trkpt><trkpt lat="40.6507547" lon="9.5988326"><ele>155.0</ele><time>2026-04-11T09:14:01.161Z</time></trkpt><trkpt lat="40.6507511" lon="9.5987226"><ele>155.0</ele><time>2026-04-11T09:14:03.159Z</time></trkpt><trkpt lat="40.6507817" lon="9.5985804"><ele>155.0</ele><time>2026-04-11T09:14:05.151Z</time></trkpt><trkpt lat="40.6507995" lon="9.5984235"><ele>155.0</ele><time>2026-04-11T09:14:07.159Z</time></trkpt><trkpt lat="40.6508182" lon="9.598271"><ele>155.0</ele><time>2026-04-11T09:14:09.153Z</time></trkpt><trkpt lat="40.6508378" lon="9.5981207"><ele>153.6</ele><time>2026-04-11T09:14:11.159Z</time></trkpt><trkpt lat="40.6508568" lon="9.5979637"><ele>152.2</ele><time>2026-04-11T09:14:13.155Z</time></trkpt><trkpt lat="40.6508841" lon="9.5978085"><ele>150.8</ele><time>2026-04-11T09:14:15.144Z</time></trkpt><trkpt lat="40.650924" lon="9.5976805"><ele>149.4</ele><time>2026-04-11T09:14:17.168Z</time></trkpt><trkpt lat="40.6509634" lon="9.5975911"><ele>148.0</ele><time>2026-04-11T09:14:19.15Z</time></trkpt><trkpt lat="40.650931" lon="9.5974943"><ele>148.0</ele><time>2026-04-11T09:14:22.15Z</time></trkpt><trkpt lat="40.6508625" lon="9.5975235"><ele>148.0</ele><time>2026-04-11T09:14:24.15Z</time></trkpt><trkpt lat="40.6508039" lon="9.5976099"><ele>148.0</ele><time>2026-04-11T09:14:26.142Z</time></trkpt><trkpt lat="40.6507409" lon="9.5977375"><ele>148.0</ele><time>2026-04-11T09:14:28.145Z</time></trkpt><trkpt lat="40.650694" lon="9.597876"><ele>148.0</ele><time>2026-04-11T09:14:30.146Z</time></trkpt><trkpt lat="40.6506156" lon="9.5979762"><ele>148.0</ele><time>2026-04-11T09:14:32.148Z</time></trkpt><trkpt lat="40.6505136" lon="9.5980315"><ele>148.0</ele><time>2026-04-11T09:14:34.134Z</time></trkpt><trkpt lat="40.6504266" lon="9.5980993"><ele>148.0</ele><time>2026-04-11T09:14:36.135Z</time></trkpt><trkpt lat="40.6503311" lon="9.5981865"><ele>148.0</ele><time>2026-04-11T09:14:38.141Z</time></trkpt><trkpt lat="40.6502208" lon="9.5982432"><ele>148.0</ele><time>2026-04-11T09:14:40.137Z</time></trkpt><trkpt lat="40.6501189" lon="9.5982701"><ele>144.20000000000002</ele><time>2026-04-11T09:14:42.135Z</time></trkpt><trkpt lat="40.6500183" lon="9.5982792"><ele>140.4</ele><time>2026-04-11T09:14:44.14Z</time></trkpt><trkpt lat="40.6499076" lon="9.5982902"><ele>136.60000000000002</ele><time>2026-04-11T09:14:46.153Z</time></trkpt><trkpt lat="40.6498005" lon="9.5983043"><ele>132.8</ele><time>2026-04-11T09:14:48.133Z</time></trkpt><trkpt lat="40.6497219" lon="9.5983066"><ele>129.0</ele><time>2026-04-11T09:14:50.138Z</time></trkpt><trkpt lat="40.6496438" lon="9.5982461"><ele>129.0</ele><time>2026-04-11T09:14:52.135Z</time></trkpt><trkpt lat="40.6495747" lon="9.5981381"><ele>129.0</ele><time>2026-04-11T09:14:54.133Z</time></trkpt><trkpt lat="40.6495152" lon="9.5980371"><ele>129.0</ele><time>2026-04-11T09:14:56.128Z</time></trkpt><trkpt lat="40.6494472" lon="9.5979311"><ele>129.0</ele><time>2026-04-11T09:14:58.128Z</time></trkpt><trkpt lat="40.6493783" lon="9.5978204"><ele>129.0</ele><time>2026-04-11T09:15:00.13Z</time></trkpt><trkpt lat="40.6493432" lon="9.5977504"><ele>125.25</ele><time>2026-04-11T09:15:01.127Z</time></trkpt><trkpt lat="40.6493083" lon="9.5976778"><ele>121.5</ele><time>2026-04-11T09:15:02.129Z</time></trkpt><trkpt lat="40.649229" lon="9.5975641"><ele>117.75</ele><time>2026-04-11T09:15:04.127Z</time></trkpt><trkpt lat="40.6491663" lon="9.5973676"><ele>114.0</ele><time>2026-04-11T09:15:07.134Z</time></trkpt><trkpt lat="40.6492031" lon="9.597221"><ele>114.0</ele><time>2026-04-11T09:15:09.132Z</time></trkpt><trkpt lat="40.6492569" lon="9.5971284"><ele>114.0</ele><time>2026-04-11T09:15:11.129Z</time></trkpt><trkpt lat="40.6492261" lon="9.597035"><ele>114.0</ele><time>2026-04-11T09:15:14.136Z</time></trkpt><trkpt lat="40.6491365" lon="9.5970361"><ele>114.0</ele><time>2026-04-11T09:15:16.137Z</time></trkpt><trkpt lat="40.6490409" lon="9.5970555"><ele>114.0</ele><time>2026-04-11T09:15:18.131Z</time></trkpt><trkpt lat="40.6489686" lon="9.5971293"><ele>114.0</ele><time>2026-04-11T09:15:20.129Z</time></trkpt><trkpt lat="40.6489086" lon="9.5972526"><ele>114.0</ele><time>2026-04-11T09:15:22.127Z</time></trkpt><trkpt lat="40.6488754" lon="9.5973251"><ele>113.99999999999999</ele><time>2026-04-11T09:15:23.12Z</time></trkpt><trkpt lat="40.6488324" lon="9.5973932"><ele>114.0</ele><time>2026-04-11T09:15:24.125Z</time></trkpt><trkpt lat="40.6487806" lon="9.5974512"><ele>114.0</ele><time>2026-04-11T09:15:25.123Z</time></trkpt><trkpt lat="40.6487228" lon="9.597494"><ele>113.99999999999999</ele><time>2026-04-11T09:15:26.131Z</time></trkpt><trkpt lat="40.6486604" lon="9.5975194"><ele>114.0</ele><time>2026-04-11T09:15:27.12Z</time></trkpt><trkpt lat="40.648549" lon="9.5975293"><ele>114.0</ele><time>2026-04-11T09:15:29.125Z</time></trkpt><trkpt lat="40.6484573" lon="9.5975806"><ele>113.0</ele><time>2026-04-11T09:15:31.115Z</time></trkpt><trkpt lat="40.6484204" lon="9.5976882"><ele>112.0</ele><time>2026-04-11T09:15:33.126Z</time></trkpt><trkpt lat="40.6484259" lon="9.5978013"><ele>111.0</ele><time>2026-04-11T09:15:35.118Z</time></trkpt><trkpt lat="40.6484793" lon="9.5978792"><ele>110.0</ele><time>2026-04-11T09:15:37.116Z</time></trkpt><trkpt lat="40.6485611" lon="9.597924"><ele>109.0</ele><time>2026-04-11T09:15:39.116Z</time></trkpt><trkpt lat="40.6486508" lon="9.5980078"><ele>109.0</ele><time>2026-04-11T09:15:41.115Z</time></trkpt><trkpt lat="40.6486818" lon="9.5981521"><ele>109.0</ele><time>2026-04-11T09:15:43.121Z</time></trkpt><trkpt lat="40.6486777" lon="9.5982969"><ele>109.0</ele><time>2026-04-11T09:15:45.119Z</time></trkpt><trkpt lat="40.6486857" lon="9.5984476"><ele>109.0</ele><time>2026-04-11T09:15:47.112Z</time></trkpt><trkpt lat="40.6487182" lon="9.5985878"><ele>108.0</ele><time>2026-04-11T09:15:49.115Z</time></trkpt><trkpt lat="40.6487812" lon="9.5987226"><ele>107.0</ele><time>2026-04-11T09:15:51.11Z</time></trkpt><trkpt lat="40.6488322" lon="9.5988512"><ele>106.0</ele><time>2026-04-11T09:15:53.118Z</time></trkpt><trkpt lat="40.6488368" lon="9.5990021"><ele>105.0</ele><time>2026-04-11T09:15:55.109Z</time></trkpt><trkpt lat="40.6488452" lon="9.5991622"><ele>105.0</ele><time>2026-04-11T09:15:57.106Z</time></trkpt><trkpt lat="40.6488532" lon="9.5992446"><ele>105.0</ele><time>2026-04-11T09:15:58.112Z</time></trkpt><trkpt lat="40.6488611" lon="9.5993304"><ele>105.0</ele><time>2026-04-11T09:15:59.107Z</time></trkpt><trkpt lat="40.6488608" lon="9.59942"><ele>105.0</ele><time>2026-04-11T09:16:00.11Z</time></trkpt><trkpt lat="40.6488481" lon="9.5995107"><ele>105.0</ele><time>2026-04-11T09:16:01.104Z</time></trkpt><trkpt lat="40.6488396" lon="9.5996061"><ele>105.0</ele><time>2026-04-11T09:16:02.106Z</time></trkpt><trkpt lat="40.648842" lon="9.5997106"><ele>105.0</ele><time>2026-04-11T09:16:03.108Z</time></trkpt><trkpt lat="40.6488557" lon="9.5998188"><ele>105.0</ele><time>2026-04-11T09:16:04.1Z</time></trkpt><trkpt lat="40.6488658" lon="9.5999165"><ele>105.0</ele><time>2026-04-11T09:16:05.108Z</time></trkpt><trkpt lat="40.6488764" lon="9.6000063"><ele>105.0</ele><time>2026-04-11T09:16:06.209Z</time></trkpt><trkpt lat="40.6488943" lon="9.6000903"><ele>105.0</ele><time>2026-04-11T09:16:07.203Z</time></trkpt><trkpt lat="40.6489215" lon="9.6001771"><ele>105.0</ele><time>2026-04-11T09:16:08.242Z</time></trkpt><trkpt lat="40.6489797" lon="9.6003269"><ele>105.0</ele><time>2026-04-11T09:16:10.22Z</time></trkpt><trkpt lat="40.6489748" lon="9.600419"><ele>106.0</ele><time>2026-04-11T09:16:12.205Z</time></trkpt><trkpt lat="40.6488909" lon="9.600445"><ele>107.0</ele><time>2026-04-11T09:16:14.208Z</time></trkpt><trkpt lat="40.6488223" lon="9.6004372"><ele>108.0</ele><time>2026-04-11T09:16:15.235Z</time></trkpt><trkpt lat="40.6487312" lon="9.6004343"><ele>109.0</ele><time>2026-04-11T09:16:16.217Z</time></trkpt><trkpt lat="40.6486194" lon="9.600448"><ele>110.0</ele><time>2026-04-11T09:16:17.201Z</time></trkpt><trkpt lat="40.6484986" lon="9.6004679"><ele>107.0</ele><time>2026-04-11T09:16:18.213Z</time></trkpt><trkpt lat="40.6483752" lon="9.6004816"><ele>104.0</ele><time>2026-04-11T09:16:19.209Z</time></trkpt><trkpt lat="40.6482504" lon="9.600479"><ele>101.0</ele><time>2026-04-11T09:16:20.223Z</time></trkpt><trkpt lat="40.6481335" lon="9.6004602"><ele>98.0</ele><time>2026-04-11T09:16:21.217Z</time></trkpt><trkpt lat="40.648025" lon="9.6004349"><ele>98.0</ele><time>2026-04-11T09:16:22.213Z</time></trkpt><trkpt lat="40.6479155" lon="9.6004066"><ele>98.0</ele><time>2026-04-11T09:16:23.216Z</time></trkpt><trkpt lat="40.6478057" lon="9.6003718"><ele>98.0</ele><time>2026-04-11T09:16:24.199Z</time></trkpt><trkpt lat="40.6477118" lon="9.6003447"><ele>98.0</ele><time>2026-04-11T09:16:25.202Z</time></trkpt><trkpt lat="40.6476307" lon="9.6003348"><ele>98.0</ele><time>2026-04-11T09:16:26.21Z</time></trkpt><trkpt lat="40.6475622" lon="9.6003372"><ele>96.4</ele><time>2026-04-11T09:16:27.204Z</time></trkpt><trkpt lat="40.6474904" lon="9.6004264"><ele>94.80000000000001</ele><time>2026-04-11T09:16:29.192Z</time></trkpt><trkpt lat="40.6474954" lon="9.6005177"><ele>93.2</ele><time>2026-04-11T09:16:30.205Z</time></trkpt><trkpt lat="40.6474877" lon="9.6006403"><ele>91.6</ele><time>2026-04-11T09:16:31.194Z</time></trkpt><trkpt lat="40.6474801" lon="9.6007885"><ele>90.0</ele><time>2026-04-11T09:16:32.196Z</time></trkpt><trkpt lat="40.6474754" lon="9.6009523"><ele>90.0</ele><time>2026-04-11T09:16:33.206Z</time></trkpt><trkpt lat="40.6474818" lon="9.6011229"><ele>90.0</ele><time>2026-04-11T09:16:34.206Z</time></trkpt><trkpt lat="40.6474979" lon="9.6012914"><ele>90.0</ele><time>2026-04-11T09:16:35.19Z</time></trkpt><trkpt lat="40.647528" lon="9.6014417"><ele>90.0</ele><time>2026-04-11T09:16:36.2Z</time></trkpt><trkpt lat="40.6475665" lon="9.6015739"><ele>90.2</ele><time>2026-04-11T09:16:37.196Z</time></trkpt><trkpt lat="40.6476192" lon="9.6016892"><ele>90.4</ele><time>2026-04-11T09:16:38.188Z</time></trkpt><trkpt lat="40.6476773" lon="9.6017952"><ele>90.6</ele><time>2026-04-11T09:16:39.204Z</time></trkpt><trkpt lat="40.6477516" lon="9.6019004"><ele>90.8</ele><time>2026-04-11T09:16:40.191Z</time></trkpt><trkpt lat="40.6478438" lon="9.602015"><ele>91.0</ele><time>2026-04-11T09:16:41.203Z</time></trkpt><trkpt lat="40.6479411" lon="9.6021456"><ele>91.0</ele><time>2026-04-11T09:16:42.183Z</time></trkpt><trkpt lat="40.6480307" lon="9.6022944"><ele>91.0</ele><time>2026-04-11T09:16:43.21Z</time></trkpt><trkpt lat="40.648102" lon="9.6024206"><ele>91.0</ele><time>2026-04-11T09:16:44.186Z</time></trkpt><trkpt lat="40.6481679" lon="9.6025254"><ele>91.0</ele><time>2026-04-11T09:16:45.187Z</time></trkpt><trkpt lat="40.6482389" lon="9.6026075"><ele>91.0</ele><time>2026-04-11T09:16:46.186Z</time></trkpt><trkpt lat="40.6483244" lon="9.6026897"><ele>91.0</ele><time>2026-04-11T09:16:47.195Z</time></trkpt><trkpt lat="40.6484107" lon="9.6027787"><ele>91.0</ele><time>2026-04-11T09:16:48.177Z</time></trkpt><trkpt lat="40.6484764" lon="9.6028714"><ele>91.0</ele><time>2026-04-11T09:16:49.179Z</time></trkpt><trkpt lat="40.6485197" lon="9.6029674"><ele>91.0</ele><time>2026-04-11T09:16:50.197Z</time></trkpt><trkpt lat="40.6485408" lon="9.6030759"><ele>91.33333333333333</ele><time>2026-04-11T09:16:51.192Z</time></trkpt><trkpt lat="40.6485543" lon="9.6031854"><ele>91.66666666666666</ele><time>2026-04-11T09:16:52.226Z</time></trkpt><trkpt lat="40.648564" lon="9.6032816"><ele>92.0</ele><time>2026-04-11T09:16:53.191Z</time></trkpt><trkpt lat="40.6485764" lon="9.60337"><ele>92.33333333333333</ele><time>2026-04-11T09:16:54.177Z</time></trkpt><trkpt lat="40.6485978" lon="9.6034651"><ele>92.66666666666667</ele><time>2026-04-11T09:16:55.184Z</time></trkpt><trkpt lat="40.6486257" lon="9.6035729"><ele>93.0</ele><time>2026-04-11T09:16:56.181Z</time></trkpt><trkpt lat="40.6486541" lon="9.6036787"><ele>93.0</ele><time>2026-04-11T09:16:57.195Z</time></trkpt><trkpt lat="40.6486808" lon="9.6037838"><ele>93.0</ele><time>2026-04-11T09:16:58.174Z</time></trkpt><trkpt lat="40.6487113" lon="9.6038884"><ele>93.0</ele><time>2026-04-11T09:16:59.185Z</time></trkpt><trkpt lat="40.6487424" lon="9.6039922"><ele>93.0</ele><time>2026-04-11T09:17:00.179Z</time></trkpt><trkpt lat="40.6487665" lon="9.6040998"><ele>93.0</ele><time>2026-04-11T09:17:01.183Z</time></trkpt><trkpt lat="40.6487835" lon="9.6042044"><ele>93.0</ele><time>2026-04-11T09:17:02.182Z</time></trkpt><trkpt lat="40.6488008" lon="9.6042989"><ele>93.0</ele><time>2026-04-11T09:17:03.187Z</time></trkpt><trkpt lat="40.6488149" lon="9.6043816"><ele>93.0</ele><time>2026-04-11T09:17:04.173Z</time></trkpt><trkpt lat="40.6488107" lon="9.6045326"><ele>93.0</ele><time>2026-04-11T09:17:06.181Z</time></trkpt><trkpt lat="40.6487472" lon="9.6046639"><ele>93.0</ele><time>2026-04-11T09:17:08.165Z</time></trkpt><trkpt lat="40.648707" lon="9.6047286"><ele>93.0</ele><time>2026-04-11T09:17:09.183Z</time></trkpt><trkpt lat="40.6486554" lon="9.6047929"><ele>93.0</ele><time>2026-04-11T09:17:10.171Z</time></trkpt><trkpt lat="40.6485929" lon="9.6048602"><ele>89.83333333333333</ele><time>2026-04-11T09:17:11.184Z</time></trkpt><trkpt lat="40.6485256" lon="9.6049301"><ele>86.66666666666667</ele><time>2026-04-11T09:17:12.181Z</time></trkpt><trkpt lat="40.6484563" lon="9.6049964"><ele>83.5</ele><time>2026-04-11T09:17:13.177Z</time></trkpt><trkpt lat="40.6483892" lon="9.6050589"><ele>80.33333333333334</ele><time>2026-04-11T09:17:14.167Z</time></trkpt><trkpt lat="40.6483227" lon="9.6051241"><ele>77.16666666666667</ele><time>2026-04-11T09:17:15.172Z</time></trkpt><trkpt lat="40.6482521" lon="9.6051917"><ele>74.0</ele><time>2026-04-11T09:17:16.196Z</time></trkpt><trkpt lat="40.6481893" lon="9.6052627"><ele>74.83333333333334</ele><time>2026-04-11T09:17:17.183Z</time></trkpt><trkpt lat="40.6481271" lon="9.6053433"><ele>75.66666666666667</ele><time>2026-04-11T09:17:18.166Z</time></trkpt><trkpt lat="40.648072" lon="9.6054312"><ele>76.5</ele><time>2026-04-11T09:17:19.181Z</time></trkpt><trkpt lat="40.6480254" lon="9.6055175"><ele>77.33333333333333</ele><time>2026-04-11T09:17:20.185Z</time></trkpt><trkpt lat="40.6479802" lon="9.6056017"><ele>78.16666666666666</ele><time>2026-04-11T09:17:21.173Z</time></trkpt><trkpt lat="40.6479356" lon="9.6056768"><ele>79.0</ele><time>2026-04-11T09:17:22.166Z</time></trkpt><trkpt lat="40.6478935" lon="9.6057427"><ele>79.0</ele><time>2026-04-11T09:17:23.173Z</time></trkpt><trkpt lat="40.647856" lon="9.6058817"><ele>79.0</ele><time>2026-04-11T09:17:25.162Z</time></trkpt><trkpt lat="40.6478744" lon="9.6059651"><ele>79.0</ele><time>2026-04-11T09:17:26.163Z</time></trkpt><trkpt lat="40.6479102" lon="9.6060654"><ele>79.0</ele><time>2026-04-11T09:17:27.174Z</time></trkpt><trkpt lat="40.6479436" lon="9.6061832"><ele>79.0</ele><time>2026-04-11T09:17:28.165Z</time></trkpt><trkpt lat="40.6479737" lon="9.6062979"><ele>79.0</ele><time>2026-04-11T09:17:29.155Z</time></trkpt><trkpt lat="40.6479972" lon="9.6064097"><ele>77.66666666666666</ele><time>2026-04-11T09:17:30.163Z</time></trkpt><trkpt lat="40.6480118" lon="9.60652"><ele>76.33333333333333</ele><time>2026-04-11T09:17:31.16Z</time></trkpt><trkpt lat="40.6480209" lon="9.6066252"><ele>75.0</ele><time>2026-04-11T09:17:32.16Z</time></trkpt><trkpt lat="40.648033" lon="9.6067236"><ele>73.66666666666667</ele><time>2026-04-11T09:17:33.164Z</time></trkpt><trkpt lat="40.6480379" lon="9.6068129"><ele>72.33333333333334</ele><time>2026-04-11T09:17:34.155Z</time></trkpt><trkpt lat="40.6480359" lon="9.6069609"><ele>71.0</ele><time>2026-04-11T09:17:36.157Z</time></trkpt><trkpt lat="40.6480112" lon="9.6070809"><ele>70.33333333333334</ele><time>2026-04-11T09:17:38.17Z</time></trkpt><trkpt lat="40.6479705" lon="9.6071698"><ele>69.66666666666667</ele><time>2026-04-11T09:17:40.164Z</time></trkpt><trkpt lat="40.6479246" lon="9.6072388"><ele>69.0</ele><time>2026-04-11T09:17:42.175Z</time></trkpt><trkpt lat="40.6478813" lon="9.6073286"><ele>68.33333333333333</ele><time>2026-04-11T09:17:44.173Z</time></trkpt><trkpt lat="40.647859" lon="9.6074114"><ele>67.66666666666666</ele><time>2026-04-11T09:17:46.159Z</time></trkpt><trkpt lat="40.6478564" lon="9.6075753"><ele>67.0</ele><time>2026-04-11T09:19:38.201Z</time></trkpt><trkpt lat="40.6478494" lon="9.6077492"><ele>66.16666666666666</ele><time>2026-04-11T09:19:40.203Z</time></trkpt><trkpt lat="40.6478543" lon="9.6078492"><ele>65.33333333333333</ele><time>2026-04-11T09:19:41.205Z</time></trkpt><trkpt lat="40.6478657" lon="9.6079579"><ele>64.5</ele><time>2026-04-11T09:19:42.202Z</time></trkpt><trkpt lat="40.6478798" lon="9.6080794"><ele>63.66666666666667</ele><time>2026-04-11T09:19:43.209Z</time></trkpt><trkpt lat="40.647902" lon="9.6082026"><ele>62.833333333333336</ele><time>2026-04-11T09:19:44.191Z</time></trkpt><trkpt lat="40.6479335" lon="9.6083262"><ele>62.0</ele><time>2026-04-11T09:19:45.184Z</time></trkpt><trkpt lat="40.6479755" lon="9.6084489"><ele>62.0</ele><time>2026-04-11T09:19:46.195Z</time></trkpt><trkpt lat="40.6480264" lon="9.6085715"><ele>62.0</ele><time>2026-04-11T09:19:47.184Z</time></trkpt><trkpt lat="40.6480866" lon="9.6086985"><ele>62.0</ele><time>2026-04-11T09:19:48.202Z</time></trkpt><trkpt lat="40.6481502" lon="9.6088272"><ele>62.0</ele><time>2026-04-11T09:19:49.19Z</time></trkpt><trkpt lat="40.648215" lon="9.608953"><ele>61.25</ele><time>2026-04-11T09:19:50.189Z</time></trkpt><trkpt lat="40.6482777" lon="9.6090787"><ele>60.5</ele><time>2026-04-11T09:19:51.189Z</time></trkpt><trkpt lat="40.6483414" lon="9.609208"><ele>59.75</ele><time>2026-04-11T09:19:52.183Z</time></trkpt><trkpt lat="40.6484052" lon="9.6093447"><ele>59.0</ele><time>2026-04-11T09:19:53.19Z</time></trkpt><trkpt lat="40.6484729" lon="9.6094875"><ele>58.5</ele><time>2026-04-11T09:19:54.196Z</time></trkpt><trkpt lat="40.6485426" lon="9.6096338"><ele>58.0</ele><time>2026-04-11T09:19:55.191Z</time></trkpt><trkpt lat="40.648615" lon="9.6097849"><ele>57.5</ele><time>2026-04-11T09:19:56.19Z</time></trkpt><trkpt lat="40.6486918" lon="9.6099388"><ele>57.0</ele><time>2026-04-11T09:19:57.19Z</time></trkpt><trkpt lat="40.6487674" lon="9.6100949"><ele>57.0</ele><time>2026-04-11T09:19:58.177Z</time></trkpt><trkpt lat="40.6488469" lon="9.6102501"><ele>57.0</ele><time>2026-04-11T09:19:59.174Z</time></trkpt><trkpt lat="40.648926" lon="9.6104052"><ele>57.0</ele><time>2026-04-11T09:20:00.179Z</time></trkpt><trkpt lat="40.6490062" lon="9.6105589"><ele>57.0</ele><time>2026-04-11T09:20:01.182Z</time></trkpt><trkpt lat="40.649088" lon="9.6107104"><ele>55.5</ele><time>2026-04-11T09:20:02.196Z</time></trkpt><trkpt lat="40.6491663" lon="9.6108619"><ele>54.0</ele><time>2026-04-11T09:20:03.179Z</time></trkpt><trkpt lat="40.649245" lon="9.6110179"><ele>52.5</ele><time>2026-04-11T09:20:04.173Z</time></trkpt><trkpt lat="40.6493229" lon="9.6111787"><ele>51.0</ele><time>2026-04-11T09:20:05.192Z</time></trkpt><trkpt lat="40.6493959" lon="9.6113399"><ele>50.75</ele><time>2026-04-11T09:20:06.17Z</time></trkpt><trkpt lat="40.6494688" lon="9.6115064"><ele>50.5</ele><time>2026-04-11T09:20:07.184Z</time></trkpt><trkpt lat="40.6495405" lon="9.6116685"><ele>50.25</ele><time>2026-04-11T09:20:08.171Z</time></trkpt><trkpt lat="40.6496138" lon="9.6118302"><ele>50.0</ele><time>2026-04-11T09:20:09.185Z</time></trkpt><trkpt lat="40.6496829" lon="9.6119904"><ele>50.0</ele><time>2026-04-11T09:20:10.17Z</time></trkpt><trkpt lat="40.6497383" lon="9.6121575"><ele>50.0</ele><time>2026-04-11T09:20:11.167Z</time></trkpt><trkpt lat="40.6497761" lon="9.6123277"><ele>50.0</ele><time>2026-04-11T09:20:12.16Z</time></trkpt><trkpt lat="40.6497976" lon="9.6125051"><ele>50.0</ele><time>2026-04-11T09:20:13.171Z</time></trkpt><trkpt lat="40.6498064" lon="9.612679"><ele>49.0</ele><time>2026-04-11T09:20:14.162Z</time></trkpt><trkpt lat="40.6498126" lon="9.6128551"><ele>48.0</ele><time>2026-04-11T09:20:15.163Z</time></trkpt><trkpt lat="40.6498207" lon="9.613032"><ele>47.0</ele><time>2026-04-11T09:20:16.17Z</time></trkpt><trkpt lat="40.6498309" lon="9.6132094"><ele>46.0</ele><time>2026-04-11T09:20:17.166Z</time></trkpt><trkpt lat="40.6498368" lon="9.6133912"><ele>46.0</ele><time>2026-04-11T09:20:18.17Z</time></trkpt><trkpt lat="40.6498427" lon="9.6135732"><ele>46.0</ele><time>2026-04-11T09:20:19.162Z</time></trkpt><trkpt lat="40.6498486" lon="9.6137581"><ele>46.0</ele><time>2026-04-11T09:20:20.154Z</time></trkpt><trkpt lat="40.6498547" lon="9.613947"><ele>46.0</ele><time>2026-04-11T09:20:21.164Z</time></trkpt><trkpt lat="40.649861" lon="9.6141369"><ele>45.75</ele><time>2026-04-11T09:20:22.165Z</time></trkpt><trkpt lat="40.6498669" lon="9.6143295"><ele>45.5</ele><time>2026-04-11T09:20:23.159Z</time></trkpt><trkpt lat="40.649874" lon="9.6145252"><ele>45.25</ele><time>2026-04-11T09:20:24.157Z</time></trkpt><trkpt lat="40.6498824" lon="9.6147203"><ele>45.0</ele><time>2026-04-11T09:20:25.158Z</time></trkpt><trkpt lat="40.6498906" lon="9.6149086"><ele>44.75</ele><time>2026-04-11T09:20:26.157Z</time></trkpt><trkpt lat="40.6498951" lon="9.6150883"><ele>44.5</ele><time>2026-04-11T09:20:27.152Z</time></trkpt><trkpt lat="40.6498994" lon="9.6152603"><ele>44.25</ele><time>2026-04-11T09:20:28.156Z</time></trkpt><trkpt lat="40.6499042" lon="9.6154296"><ele>44.0</ele><time>2026-04-11T09:20:29.148Z</time></trkpt><trkpt lat="40.6499075" lon="9.6155965"><ele>44.0</ele><time>2026-04-11T09:20:30.147Z</time></trkpt><trkpt lat="40.649912" lon="9.6157614"><ele>44.0</ele><time>2026-04-11T09:20:31.148Z</time></trkpt><trkpt lat="40.6499163" lon="9.6159236"><ele>44.0</ele><time>2026-04-11T09:20:32.162Z</time></trkpt><trkpt lat="40.6499232" lon="9.6160853"><ele>44.0</ele><time>2026-04-11T09:20:33.152Z</time></trkpt><trkpt lat="40.6499292" lon="9.6162488"><ele>43.25</ele><time>2026-04-11T09:20:34.148Z</time></trkpt><trkpt lat="40.6499342" lon="9.6164131"><ele>42.5</ele><time>2026-04-11T09:20:35.155Z</time></trkpt><trkpt lat="40.6499409" lon="9.6165771"><ele>41.75</ele><time>2026-04-11T09:20:36.153Z</time></trkpt><trkpt lat="40.649949" lon="9.616745"><ele>41.0</ele><time>2026-04-11T09:20:37.166Z</time></trkpt><trkpt lat="40.6499595" lon="9.6169137"><ele>40.25</ele><time>2026-04-11T09:20:38.146Z</time></trkpt><trkpt lat="40.6499686" lon="9.6170892"><ele>39.5</ele><time>2026-04-11T09:20:39.149Z</time></trkpt><trkpt lat="40.6499795" lon="9.6172678"><ele>38.75</ele><time>2026-04-11T09:20:40.14Z</time></trkpt><trkpt lat="40.6499906" lon="9.6174478"><ele>38.0</ele><time>2026-04-11T09:20:41.141Z</time></trkpt><trkpt lat="40.6499988" lon="9.6176301"><ele>38.0</ele><time>2026-04-11T09:20:42.136Z</time></trkpt><trkpt lat="40.650005" lon="9.6178123"><ele>38.0</ele><time>2026-04-11T09:20:43.148Z</time></trkpt><trkpt lat="40.6500105" lon="9.6179905"><ele>38.0</ele><time>2026-04-11T09:20:44.134Z</time></trkpt><trkpt lat="40.6500156" lon="9.6181732"><ele>38.0</ele><time>2026-04-11T09:20:45.136Z</time></trkpt><trkpt lat="40.6500239" lon="9.618357"><ele>37.0</ele><time>2026-04-11T09:20:46.137Z</time></trkpt><trkpt lat="40.6500319" lon="9.6185418"><ele>36.0</ele><time>2026-04-11T09:20:47.131Z</time></trkpt><trkpt lat="40.65004" lon="9.6187276"><ele>35.0</ele><time>2026-04-11T09:20:48.141Z</time></trkpt><trkpt lat="40.6500497" lon="9.6189138"><ele>34.0</ele><time>2026-04-11T09:20:49.131Z</time></trkpt><trkpt lat="40.6500582" lon="9.6191024"><ele>34.0</ele><time>2026-04-11T09:20:50.142Z</time></trkpt><trkpt lat="40.6500644" lon="9.6192899"><ele>34.0</ele><time>2026-04-11T09:20:51.153Z</time></trkpt><trkpt lat="40.650067" lon="9.6194775"><ele>34.0</ele><time>2026-04-11T09:20:52.135Z</time></trkpt><trkpt lat="40.6500723" lon="9.6196671"><ele>34.0</ele><time>2026-04-11T09:20:53.13Z</time></trkpt><trkpt lat="40.6500825" lon="9.6198561"><ele>33.75</ele><time>2026-04-11T09:20:54.135Z</time></trkpt><trkpt lat="40.650091" lon="9.6200441"><ele>33.5</ele><time>2026-04-11T09:20:55.131Z</time></trkpt><trkpt lat="40.6501011" lon="9.6202286"><ele>33.25</ele><time>2026-04-11T09:20:56.126Z</time></trkpt><trkpt lat="40.6501124" lon="9.6204139"><ele>33.0</ele><time>2026-04-11T09:20:57.179Z</time></trkpt><trkpt lat="40.6501229" lon="9.6205901"><ele>32.25</ele><time>2026-04-11T09:20:58.128Z</time></trkpt><trkpt lat="40.6501283" lon="9.6207765"><ele>31.5</ele><time>2026-04-11T09:20:59.131Z</time></trkpt><trkpt lat="40.6501344" lon="9.6209585"><ele>30.75</ele><time>2026-04-11T09:21:00.127Z</time></trkpt><trkpt lat="40.6501411" lon="9.621138"><ele>30.0</ele><time>2026-04-11T09:21:01.127Z</time></trkpt><trkpt lat="40.6501474" lon="9.6213117"><ele>30.0</ele><time>2026-04-11T09:21:02.129Z</time></trkpt><trkpt lat="40.6501513" lon="9.6214784"><ele>30.0</ele><time>2026-04-11T09:21:03.121Z</time></trkpt><trkpt lat="40.6501459" lon="9.6216399"><ele>30.0</ele><time>2026-04-11T09:21:04.147Z</time></trkpt><trkpt lat="40.6501285" lon="9.6217882"><ele>30.0</ele><time>2026-04-11T09:21:05.126Z</time></trkpt><trkpt lat="40.6501007" lon="9.62193"><ele>30.2</ele><time>2026-04-11T09:21:06.128Z</time></trkpt><trkpt lat="40.6500618" lon="9.6220657"><ele>30.4</ele><time>2026-04-11T09:21:07.146Z</time></trkpt><trkpt lat="40.65001" lon="9.6221865"><ele>30.6</ele><time>2026-04-11T09:21:08.122Z</time></trkpt><trkpt lat="40.6499464" lon="9.6223036"><ele>30.8</ele><time>2026-04-11T09:21:09.125Z</time></trkpt><trkpt lat="40.6498771" lon="9.6224166"><ele>31.0</ele><time>2026-04-11T09:21:10.121Z</time></trkpt><trkpt lat="40.6498069" lon="9.6225409"><ele>31.0</ele><time>2026-04-11T09:21:11.115Z</time></trkpt><trkpt lat="40.6497319" lon="9.6226714"><ele>31.0</ele><time>2026-04-11T09:21:12.114Z</time></trkpt><trkpt lat="40.6496575" lon="9.6228024"><ele>31.0</ele><time>2026-04-11T09:21:13.115Z</time></trkpt><trkpt lat="40.6495868" lon="9.6229371"><ele>31.0</ele><time>2026-04-11T09:21:14.114Z</time></trkpt><trkpt lat="40.6495135" lon="9.6230722"><ele>30.25</ele><time>2026-04-11T09:21:15.11Z</time></trkpt><trkpt lat="40.6494393" lon="9.6232103"><ele>29.5</ele><time>2026-04-11T09:21:16.12Z</time></trkpt><trkpt lat="40.6493641" lon="9.6233463"><ele>28.75</ele><time>2026-04-11T09:21:17.128Z</time></trkpt><trkpt lat="40.649288" lon="9.6234837"><ele>28.0</ele><time>2026-04-11T09:21:18.121Z</time></trkpt><trkpt lat="40.6492117" lon="9.6236202"><ele>29.75</ele><time>2026-04-11T09:21:19.105Z</time></trkpt><trkpt lat="40.64914" lon="9.6237578"><ele>31.5</ele><time>2026-04-11T09:21:20.11Z</time></trkpt><trkpt lat="40.6490851" lon="9.6239016"><ele>33.25</ele><time>2026-04-11T09:21:21.102Z</time></trkpt><trkpt lat="40.6490441" lon="9.6240543"><ele>35.0</ele><time>2026-04-11T09:21:22.109Z</time></trkpt><trkpt lat="40.6490113" lon="9.6242145"><ele>35.0</ele><time>2026-04-11T09:21:23.105Z</time></trkpt><trkpt lat="40.6489872" lon="9.6243788"><ele>35.0</ele><time>2026-04-11T09:21:24.109Z</time></trkpt><trkpt lat="40.6489707" lon="9.624546"><ele>35.0</ele><time>2026-04-11T09:21:25.1Z</time></trkpt><trkpt lat="40.6489577" lon="9.62472"><ele>35.0</ele><time>2026-04-11T09:21:26.211Z</time></trkpt><trkpt lat="40.6489476" lon="9.6248862"><ele>35.0</ele><time>2026-04-11T09:21:27.202Z</time></trkpt><trkpt lat="40.6489385" lon="9.6250547"><ele>35.0</ele><time>2026-04-11T09:21:28.207Z</time></trkpt><trkpt lat="40.6489279" lon="9.6252164"><ele>35.0</ele><time>2026-04-11T09:21:29.203Z</time></trkpt><trkpt lat="40.6489253" lon="9.6253767"><ele>35.0</ele><time>2026-04-11T09:21:30.198Z</time></trkpt><trkpt lat="40.6489309" lon="9.6255326"><ele>35.0</ele><time>2026-04-11T09:21:31.223Z</time></trkpt><trkpt lat="40.6489458" lon="9.6256795"><ele>35.0</ele><time>2026-04-11T09:21:32.207Z</time></trkpt><trkpt lat="40.6489655" lon="9.6258264"><ele>35.0</ele><time>2026-04-11T09:21:33.205Z</time></trkpt><trkpt lat="40.6489943" lon="9.6259729"><ele>35.0</ele><time>2026-04-11T09:21:34.199Z</time></trkpt><trkpt lat="40.6490261" lon="9.6261197"><ele>33.6</ele><time>2026-04-11T09:21:35.194Z</time></trkpt><trkpt lat="40.6490613" lon="9.6262608"><ele>32.2</ele><time>2026-04-11T09:21:36.188Z</time></trkpt><trkpt lat="40.6490998" lon="9.6263905"><ele>30.799999999999997</ele><time>2026-04-11T09:21:37.184Z</time></trkpt><trkpt lat="40.6491408" lon="9.6265103"><ele>29.4</ele><time>2026-04-11T09:21:38.199Z</time></trkpt><trkpt lat="40.6491803" lon="9.6266222"><ele>28.0</ele><time>2026-04-11T09:21:39.194Z</time></trkpt><trkpt lat="40.6492145" lon="9.6267267"><ele>28.000000000000004</ele><time>2026-04-11T09:21:40.209Z</time></trkpt><trkpt lat="40.6492487" lon="9.6268208"><ele>28.0</ele><time>2026-04-11T09:21:41.182Z</time></trkpt><trkpt lat="40.649289" lon="9.6269187"><ele>28.0</ele><time>2026-04-11T09:21:42.188Z</time></trkpt><trkpt lat="40.6493287" lon="9.6270183"><ele>28.0</ele><time>2026-04-11T09:21:43.186Z</time></trkpt><trkpt lat="40.6493697" lon="9.6271196"><ele>28.000000000000004</ele><time>2026-04-11T09:21:44.184Z</time></trkpt><trkpt lat="40.6494071" lon="9.6272204"><ele>28.0</ele><time>2026-04-11T09:21:45.186Z</time></trkpt><trkpt lat="40.6494368" lon="9.6273157"><ele>27.833333333333336</ele><time>2026-04-11T09:21:46.186Z</time></trkpt><trkpt lat="40.6494419" lon="9.6274058"><ele>27.666666666666668</ele><time>2026-04-11T09:21:47.206Z</time></trkpt><trkpt lat="40.6494269" lon="9.6274878"><ele>27.5</ele><time>2026-04-11T09:21:48.181Z</time></trkpt><trkpt lat="40.6493834" lon="9.6275663"><ele>27.333333333333336</ele><time>2026-04-11T09:21:49.173Z</time></trkpt><trkpt lat="40.649308" lon="9.6276218"><ele>27.166666666666668</ele><time>2026-04-11T09:21:50.173Z</time></trkpt><trkpt lat="40.649212" lon="9.6276768"><ele>27.0</ele><time>2026-04-11T09:21:51.181Z</time></trkpt><trkpt lat="40.6491082" lon="9.6277338"><ele>27.0</ele><time>2026-04-11T09:21:52.177Z</time></trkpt><trkpt lat="40.6490023" lon="9.6278027"><ele>27.0</ele><time>2026-04-11T09:21:53.179Z</time></trkpt><trkpt lat="40.6488996" lon="9.6278868"><ele>27.0</ele><time>2026-04-11T09:21:54.172Z</time></trkpt><trkpt lat="40.6487952" lon="9.627979"><ele>27.0</ele><time>2026-04-11T09:21:55.171Z</time></trkpt><trkpt lat="40.6486901" lon="9.6280754"><ele>25.75</ele><time>2026-04-11T09:21:56.172Z</time></trkpt><trkpt lat="40.6485839" lon="9.6281671"><ele>24.5</ele><time>2026-04-11T09:21:57.166Z</time></trkpt><trkpt lat="40.6484743" lon="9.6282542"><ele>23.25</ele><time>2026-04-11T09:21:58.155Z</time></trkpt><trkpt lat="40.6483627" lon="9.6283435"><ele>22.0</ele><time>2026-04-11T09:21:59.161Z</time></trkpt><trkpt lat="40.6482516" lon="9.628432"><ele>22.0</ele><time>2026-04-11T09:22:00.161Z</time></trkpt><trkpt lat="40.6481425" lon="9.6285222"><ele>22.0</ele><time>2026-04-11T09:22:01.153Z</time></trkpt><trkpt lat="40.6480367" lon="9.6286181"><ele>22.0</ele><time>2026-04-11T09:22:02.148Z</time></trkpt><trkpt lat="40.6479352" lon="9.6287207"><ele>22.0</ele><time>2026-04-11T09:22:03.156Z</time></trkpt><trkpt lat="40.6478402" lon="9.6288311"><ele>21.0</ele><time>2026-04-11T09:22:04.161Z</time></trkpt><trkpt lat="40.647755" lon="9.628954"><ele>20.0</ele><time>2026-04-11T09:22:05.149Z</time></trkpt><trkpt lat="40.6476775" lon="9.6290896"><ele>19.0</ele><time>2026-04-11T09:22:06.16Z</time></trkpt><trkpt lat="40.6476096" lon="9.6292375"><ele>18.0</ele><time>2026-04-11T09:22:07.165Z</time></trkpt><trkpt lat="40.6475444" lon="9.6293861"><ele>17.75</ele><time>2026-04-11T09:22:08.157Z</time></trkpt><trkpt lat="40.6474782" lon="9.6295308"><ele>17.5</ele><time>2026-04-11T09:22:09.151Z</time></trkpt><trkpt lat="40.6474125" lon="9.6296722"><ele>17.25</ele><time>2026-04-11T09:22:10.152Z</time></trkpt><trkpt lat="40.6473485" lon="9.6298078"><ele>17.0</ele><time>2026-04-11T09:22:11.151Z</time></trkpt><trkpt lat="40.6472867" lon="9.6299396"><ele>17.0</ele><time>2026-04-11T09:22:12.142Z</time></trkpt><trkpt lat="40.6472257" lon="9.6300717"><ele>17.0</ele><time>2026-04-11T09:22:13.136Z</time></trkpt><trkpt lat="40.6471668" lon="9.6302039"><ele>17.0</ele><time>2026-04-11T09:22:14.145Z</time></trkpt><trkpt lat="40.6471133" lon="9.6303377"><ele>17.0</ele><time>2026-04-11T09:22:15.141Z</time></trkpt><trkpt lat="40.647074" lon="9.6304768"><ele>16.5</ele><time>2026-04-11T09:22:16.139Z</time></trkpt><trkpt lat="40.6470558" lon="9.6306195"><ele>16.0</ele><time>2026-04-11T09:22:17.135Z</time></trkpt><trkpt lat="40.6470528" lon="9.6307691"><ele>15.5</ele><time>2026-04-11T09:22:18.147Z</time></trkpt><trkpt lat="40.647059" lon="9.6309247"><ele>15.0</ele><time>2026-04-11T09:22:19.133Z</time></trkpt><trkpt lat="40.6470693" lon="9.631084"><ele>14.5</ele><time>2026-04-11T09:22:20.176Z</time></trkpt><trkpt lat="40.6470842" lon="9.6312406"><ele>14.0</ele><time>2026-04-11T09:22:21.132Z</time></trkpt><trkpt lat="40.647103" lon="9.6314011"><ele>13.5</ele><time>2026-04-11T09:22:22.14Z</time></trkpt><trkpt lat="40.6471223" lon="9.6315592"><ele>13.0</ele><time>2026-04-11T09:22:23.13Z</time></trkpt><trkpt lat="40.6471419" lon="9.6317144"><ele>13.0</ele><time>2026-04-11T09:22:24.129Z</time></trkpt><trkpt lat="40.647162" lon="9.6318656"><ele>13.0</ele><time>2026-04-11T09:22:25.136Z</time></trkpt><trkpt lat="40.6471837" lon="9.6320126"><ele>13.0</ele><time>2026-04-11T09:22:26.137Z</time></trkpt><trkpt lat="40.6472054" lon="9.6321602"><ele>13.0</ele><time>2026-04-11T09:22:27.125Z</time></trkpt><trkpt lat="40.6472261" lon="9.6323099"><ele>12.8</ele><time>2026-04-11T09:22:28.134Z</time></trkpt><trkpt lat="40.6472468" lon="9.6324574"><ele>12.600000000000001</ele><time>2026-04-11T09:22:29.121Z</time></trkpt><trkpt lat="40.6472655" lon="9.632596"><ele>12.399999999999999</ele><time>2026-04-11T09:22:30.122Z</time></trkpt><trkpt lat="40.647284" lon="9.6327333"><ele>12.2</ele><time>2026-04-11T09:22:31.121Z</time></trkpt><trkpt lat="40.6473009" lon="9.6328694"><ele>12.0</ele><time>2026-04-11T09:22:32.124Z</time></trkpt><trkpt lat="40.6473191" lon="9.6330078"><ele>13.0</ele><time>2026-04-11T09:22:33.116Z</time></trkpt><trkpt lat="40.6473422" lon="9.6331516"><ele>14.0</ele><time>2026-04-11T09:22:34.128Z</time></trkpt><trkpt lat="40.6473631" lon="9.6332994"><ele>15.0</ele><time>2026-04-11T09:22:35.12Z</time></trkpt><trkpt lat="40.647377" lon="9.6334597"><ele>16.0</ele><time>2026-04-11T09:22:36.125Z</time></trkpt><trkpt lat="40.6473797" lon="9.633624"><ele>18.5</ele><time>2026-04-11T09:22:37.116Z</time></trkpt><trkpt lat="40.6473633" lon="9.6337891"><ele>21.0</ele><time>2026-04-11T09:22:38.111Z</time></trkpt><trkpt lat="40.6473272" lon="9.6339559"><ele>23.5</ele><time>2026-04-11T09:22:39.116Z</time></trkpt><trkpt lat="40.647274" lon="9.6341225"><ele>26.0</ele><time>2026-04-11T09:22:40.112Z</time></trkpt><trkpt lat="40.6472116" lon="9.6342864"><ele>26.0</ele><time>2026-04-11T09:22:41.119Z</time></trkpt><trkpt lat="40.6471485" lon="9.6344339"><ele>26.0</ele><time>2026-04-11T09:22:42.112Z</time></trkpt><trkpt lat="40.6470906" lon="9.6345764"><ele>26.0</ele><time>2026-04-11T09:22:43.107Z</time></trkpt><trkpt lat="40.6470355" lon="9.6347107"><ele>26.0</ele><time>2026-04-11T09:22:44.146Z</time></trkpt><trkpt lat="40.6469801" lon="9.6348385"><ele>24.75</ele><time>2026-04-11T09:22:45.201Z</time></trkpt><trkpt lat="40.6469237" lon="9.6349666"><ele>23.5</ele><time>2026-04-11T09:22:46.218Z</time></trkpt><trkpt lat="40.6468661" lon="9.6350929"><ele>22.25</ele><time>2026-04-11T09:22:47.199Z</time></trkpt><trkpt lat="40.6468062" lon="9.6352256"><ele>21.0</ele><time>2026-04-11T09:22:48.212Z</time></trkpt><trkpt lat="40.6467454" lon="9.6353594"><ele>24.75</ele><time>2026-04-11T09:22:49.199Z</time></trkpt><trkpt lat="40.6466837" lon="9.6354979"><ele>28.5</ele><time>2026-04-11T09:22:50.209Z</time></trkpt><trkpt lat="40.6466222" lon="9.6356383"><ele>32.25</ele><time>2026-04-11T09:22:51.199Z</time></trkpt><trkpt lat="40.6465608" lon="9.6357781"><ele>36.0</ele><time>2026-04-11T09:22:52.198Z</time></trkpt><trkpt lat="40.6465011" lon="9.635922"><ele>36.0</ele><time>2026-04-11T09:22:53.194Z</time></trkpt><trkpt lat="40.646449" lon="9.6360706"><ele>36.0</ele><time>2026-04-11T09:22:54.195Z</time></trkpt><trkpt lat="40.6464016" lon="9.6362203"><ele>36.0</ele><time>2026-04-11T09:22:55.193Z</time></trkpt><trkpt lat="40.6463559" lon="9.6363729"><ele>36.0</ele><time>2026-04-11T09:22:56.203Z</time></trkpt><trkpt lat="40.6463104" lon="9.6365237"><ele>36.25</ele><time>2026-04-11T09:22:57.207Z</time></trkpt><trkpt lat="40.6462638" lon="9.6366753"><ele>36.5</ele><time>2026-04-11T09:22:58.194Z</time></trkpt><trkpt lat="40.6462134" lon="9.6368281"><ele>36.75</ele><time>2026-04-11T09:22:59.189Z</time></trkpt><trkpt lat="40.6461575" lon="9.6369788"><ele>37.0</ele><time>2026-04-11T09:23:00.185Z</time></trkpt><trkpt lat="40.6461004" lon="9.6371336"><ele>37.0</ele><time>2026-04-11T09:23:01.196Z</time></trkpt><trkpt lat="40.6460397" lon="9.6372838"><ele>37.0</ele><time>2026-04-11T09:23:02.18Z</time></trkpt><trkpt lat="40.6459735" lon="9.6374322"><ele>37.0</ele><time>2026-04-11T09:23:03.174Z</time></trkpt><trkpt lat="40.6458938" lon="9.6375767"><ele>37.0</ele><time>2026-04-11T09:23:04.186Z</time></trkpt><trkpt lat="40.6458047" lon="9.6377069"><ele>35.0</ele><time>2026-04-11T09:23:05.188Z</time></trkpt><trkpt lat="40.6457087" lon="9.6378317"><ele>33.0</ele><time>2026-04-11T09:23:06.168Z</time></trkpt><trkpt lat="40.6456139" lon="9.6379646"><ele>31.0</ele><time>2026-04-11T09:23:07.19Z</time></trkpt><trkpt lat="40.6455216" lon="9.6381031"><ele>29.0</ele><time>2026-04-11T09:23:08.173Z</time></trkpt><trkpt lat="40.6454257" lon="9.6382463"><ele>29.0</ele><time>2026-04-11T09:23:09.197Z</time></trkpt><trkpt lat="40.6453286" lon="9.6383886"><ele>29.0</ele><time>2026-04-11T09:23:10.17Z</time></trkpt><trkpt lat="40.6452294" lon="9.6385367"><ele>29.0</ele><time>2026-04-11T09:23:11.181Z</time></trkpt><trkpt lat="40.6451285" lon="9.6386888"><ele>29.0</ele><time>2026-04-11T09:23:12.176Z</time></trkpt><trkpt lat="40.6450219" lon="9.6388381"><ele>27.0</ele><time>2026-04-11T09:23:13.176Z</time></trkpt><trkpt lat="40.6449156" lon="9.6389884"><ele>25.0</ele><time>2026-04-11T09:23:14.161Z</time></trkpt><trkpt lat="40.6448085" lon="9.6391396"><ele>23.0</ele><time>2026-04-11T09:23:15.165Z</time></trkpt><trkpt lat="40.6447045" lon="9.6392915"><ele>23.0</ele><time>2026-04-11T09:23:16.165Z</time></trkpt><trkpt lat="40.6446031" lon="9.6394332"><ele>23.0</ele><time>2026-04-11T09:23:17.164Z</time></trkpt><trkpt lat="40.6445012" lon="9.6395646"><ele>23.0</ele><time>2026-04-11T09:23:18.168Z</time></trkpt><trkpt lat="40.644395" lon="9.6396862"><ele>23.0</ele><time>2026-04-11T09:23:19.166Z</time></trkpt><trkpt lat="40.6442842" lon="9.6397955"><ele>24.25</ele><time>2026-04-11T09:23:20.162Z</time></trkpt><trkpt lat="40.6441693" lon="9.6398992"><ele>25.5</ele><time>2026-04-11T09:23:21.151Z</time></trkpt><trkpt lat="40.6440474" lon="9.6399966"><ele>26.75</ele><time>2026-04-11T09:23:22.158Z</time></trkpt><trkpt lat="40.6439238" lon="9.6400895"><ele>28.0</ele><time>2026-04-11T09:23:23.155Z</time></trkpt><trkpt lat="40.6437961" lon="9.6401791"><ele>28.0</ele><time>2026-04-11T09:23:24.16Z</time></trkpt><trkpt lat="40.6436642" lon="9.6402628"><ele>28.0</ele><time>2026-04-11T09:23:25.148Z</time></trkpt><trkpt lat="40.6435267" lon="9.6403352"><ele>28.0</ele><time>2026-04-11T09:23:26.156Z</time></trkpt><trkpt lat="40.6433806" lon="9.6403932"><ele>28.0</ele><time>2026-04-11T09:23:27.146Z</time></trkpt><trkpt lat="40.6432314" lon="9.6404439"><ele>29.0</ele><time>2026-04-11T09:23:28.146Z</time></trkpt><trkpt lat="40.6430802" lon="9.6404909"><ele>30.0</ele><time>2026-04-11T09:23:29.141Z</time></trkpt><trkpt lat="40.6429288" lon="9.6405277"><ele>31.0</ele><time>2026-04-11T09:23:30.151Z</time></trkpt><trkpt lat="40.6427806" lon="9.6405471"><ele>33.0</ele><time>2026-04-11T09:23:31.144Z</time></trkpt><trkpt lat="40.6426361" lon="9.6405446"><ele>35.0</ele><time>2026-04-11T09:23:32.14Z</time></trkpt><trkpt lat="40.6424928" lon="9.6405247"><ele>37.0</ele><time>2026-04-11T09:23:33.145Z</time></trkpt><trkpt lat="40.6423539" lon="9.6404974"><ele>39.0</ele><time>2026-04-11T09:23:34.143Z</time></trkpt><trkpt lat="40.6422208" lon="9.6404675"><ele>39.0</ele><time>2026-04-11T09:23:35.134Z</time></trkpt><trkpt lat="40.6420923" lon="9.6404468"><ele>39.0</ele><time>2026-04-11T09:23:36.142Z</time></trkpt><trkpt lat="40.6419756" lon="9.6404379"><ele>39.0</ele><time>2026-04-11T09:23:37.136Z</time></trkpt><trkpt lat="40.641869" lon="9.6404467"><ele>39.0</ele><time>2026-04-11T09:23:38.14Z</time></trkpt><trkpt lat="40.6417661" lon="9.6404678"><ele>38.0</ele><time>2026-04-11T09:23:39.139Z</time></trkpt><trkpt lat="40.6416619" lon="9.640506"><ele>37.0</ele><time>2026-04-11T09:23:40.14Z</time></trkpt><trkpt lat="40.6415655" lon="9.6405625"><ele>36.0</ele><time>2026-04-11T09:23:41.127Z</time></trkpt><trkpt lat="40.6414811" lon="9.6406357"><ele>35.0</ele><time>2026-04-11T09:23:42.126Z</time></trkpt><trkpt lat="40.6414007" lon="9.6407263"><ele>34.0</ele><time>2026-04-11T09:23:43.144Z</time></trkpt><trkpt lat="40.641323" lon="9.6408269"><ele>34.0</ele><time>2026-04-11T09:23:44.13Z</time></trkpt><trkpt lat="40.6412398" lon="9.6409329"><ele>34.0</ele><time>2026-04-11T09:23:45.126Z</time></trkpt><trkpt lat="40.6411536" lon="9.6410397"><ele>34.0</ele><time>2026-04-11T09:23:46.131Z</time></trkpt><trkpt lat="40.6410664" lon="9.6411441"><ele>34.0</ele><time>2026-04-11T09:23:47.133Z</time></trkpt><trkpt lat="40.6409821" lon="9.6412521"><ele>33.5</ele><time>2026-04-11T09:23:48.123Z</time></trkpt><trkpt lat="40.6409" lon="9.6413666"><ele>33.0</ele><time>2026-04-11T09:23:49.121Z</time></trkpt><trkpt lat="40.640822" lon="9.6414913"><ele>32.5</ele><time>2026-04-11T09:23:50.14Z</time></trkpt><trkpt lat="40.6407564" lon="9.6416337"><ele>32.0</ele><time>2026-04-11T09:23:51.116Z</time></trkpt><trkpt lat="40.6407062" lon="9.6417917"><ele>32.0</ele><time>2026-04-11T09:23:52.129Z</time></trkpt><trkpt lat="40.6406753" lon="9.6419572"><ele>32.0</ele><time>2026-04-11T09:23:53.125Z</time></trkpt><trkpt lat="40.6406552" lon="9.6421342"><ele>32.0</ele><time>2026-04-11T09:23:54.125Z</time></trkpt><trkpt lat="40.6406508" lon="9.6423125"><ele>32.0</ele><time>2026-04-11T09:23:55.116Z</time></trkpt><trkpt lat="40.6406631" lon="9.6424871"><ele>32.25</ele><time>2026-04-11T09:23:56.111Z</time></trkpt><trkpt lat="40.6406902" lon="9.6426599"><ele>32.5</ele><time>2026-04-11T09:23:57.117Z</time></trkpt><trkpt lat="40.6407286" lon="9.6428299"><ele>32.75</ele><time>2026-04-11T09:23:58.11Z</time></trkpt><trkpt lat="40.6407816" lon="9.643"><ele>33.0</ele><time>2026-04-11T09:23:59.117Z</time></trkpt><trkpt lat="40.6408491" lon="9.6431701"><ele>30.666666666666664</ele><time>2026-04-11T09:24:00.107Z</time></trkpt><trkpt lat="40.6409295" lon="9.6433384"><ele>28.333333333333332</ele><time>2026-04-11T09:24:01.122Z</time></trkpt><trkpt lat="40.6410207" lon="9.6435006"><ele>26.0</ele><time>2026-04-11T09:24:02.108Z</time></trkpt><trkpt lat="40.6411199" lon="9.6436599"><ele>27.75</ele><time>2026-04-11T09:24:03.117Z</time></trkpt><trkpt lat="40.6412159" lon="9.6438122"><ele>29.5</ele><time>2026-04-11T09:24:04.103Z</time></trkpt><trkpt lat="40.6413063" lon="9.6439591"><ele>31.25</ele><time>2026-04-11T09:24:05.106Z</time></trkpt><trkpt lat="40.641385" lon="9.6441098"><ele>33.0</ele><time>2026-04-11T09:24:06.105Z</time></trkpt><trkpt lat="40.6414482" lon="9.6442715"><ele>33.0</ele><time>2026-04-11T09:24:07.099Z</time></trkpt><trkpt lat="40.641497" lon="9.6444476"><ele>33.0</ele><time>2026-04-11T09:24:08.199Z</time></trkpt><trkpt lat="40.6415362" lon="9.6446179"><ele>33.0</ele><time>2026-04-11T09:24:09.208Z</time></trkpt><trkpt lat="40.641573" lon="9.6447914"><ele>33.0</ele><time>2026-04-11T09:24:10.202Z</time></trkpt><trkpt lat="40.6416063" lon="9.6449674"><ele>31.333333333333336</ele><time>2026-04-11T09:24:11.21Z</time></trkpt><trkpt lat="40.6416815" lon="9.6453091"><ele>29.666666666666668</ele><time>2026-04-11T09:24:13.207Z</time></trkpt><trkpt lat="40.6417164" lon="9.6454803"><ele>28.0</ele><time>2026-04-11T09:24:14.202Z</time></trkpt><trkpt lat="40.6417441" lon="9.6456466"><ele>28.0</ele><time>2026-04-11T09:24:15.2Z</time></trkpt><trkpt lat="40.6417542" lon="9.6458118"><ele>28.0</ele><time>2026-04-11T09:24:16.198Z</time></trkpt><trkpt lat="40.6417491" lon="9.6459793"><ele>28.0</ele><time>2026-04-11T09:24:17.211Z</time></trkpt><trkpt lat="40.6417328" lon="9.6461492"><ele>28.0</ele><time>2026-04-11T09:24:18.205Z</time></trkpt><trkpt lat="40.6417064" lon="9.6463271"><ele>29.333333333333336</ele><time>2026-04-11T09:24:19.201Z</time></trkpt><trkpt lat="40.6416692" lon="9.6465134"><ele>30.666666666666664</ele><time>2026-04-11T09:24:20.19Z</time></trkpt><trkpt lat="40.6416256" lon="9.6467054"><ele>32.0</ele><time>2026-04-11T09:24:21.196Z</time></trkpt><trkpt lat="40.6415806" lon="9.6469042"><ele>32.0</ele><time>2026-04-11T09:24:22.208Z</time></trkpt><trkpt lat="40.6415297" lon="9.6471047"><ele>32.0</ele><time>2026-04-11T09:24:23.197Z</time></trkpt><trkpt lat="40.6414751" lon="9.6473098"><ele>32.0</ele><time>2026-04-11T09:24:24.193Z</time></trkpt><trkpt lat="40.641417" lon="9.6475091"><ele>32.0</ele><time>2026-04-11T09:24:25.198Z</time></trkpt><trkpt lat="40.641356" lon="9.6476937"><ele>32.0</ele><time>2026-04-11T09:24:26.189Z</time></trkpt><trkpt lat="40.6412869" lon="9.6478582"><ele>32.0</ele><time>2026-04-11T09:24:27.201Z</time></trkpt><trkpt lat="40.6412082" lon="9.6479915"><ele>32.0</ele><time>2026-04-11T09:24:28.194Z</time></trkpt><trkpt lat="40.6411171" lon="9.6480997"><ele>32.5</ele><time>2026-04-11T09:24:29.197Z</time></trkpt><trkpt lat="40.6410065" lon="9.6481739"><ele>33.0</ele><time>2026-04-11T09:24:30.204Z</time></trkpt><trkpt lat="40.6408839" lon="9.6482076"><ele>33.5</ele><time>2026-04-11T09:24:31.18Z</time></trkpt><trkpt lat="40.6407568" lon="9.6482255"><ele>34.0</ele><time>2026-04-11T09:24:32.175Z</time></trkpt><trkpt lat="40.640629" lon="9.6482391"><ele>34.0</ele><time>2026-04-11T09:24:33.187Z</time></trkpt><trkpt lat="40.6404989" lon="9.6482583"><ele>34.0</ele><time>2026-04-11T09:24:34.177Z</time></trkpt><trkpt lat="40.6403716" lon="9.648288"><ele>34.0</ele><time>2026-04-11T09:24:35.178Z</time></trkpt><trkpt lat="40.6402498" lon="9.6483429"><ele>34.0</ele><time>2026-04-11T09:24:36.175Z</time></trkpt><trkpt lat="40.6401331" lon="9.648423"><ele>31.75</ele><time>2026-04-11T09:24:37.175Z</time></trkpt><trkpt lat="40.64002" lon="9.6485247"><ele>29.5</ele><time>2026-04-11T09:24:38.181Z</time></trkpt><trkpt lat="40.6399108" lon="9.6486416"><ele>27.25</ele><time>2026-04-11T09:24:39.175Z</time></trkpt><trkpt lat="40.639803" lon="9.6487685"><ele>25.0</ele><time>2026-04-11T09:24:40.224Z</time></trkpt><trkpt lat="40.6396969" lon="9.6488918"><ele>27.0</ele><time>2026-04-11T09:24:41.173Z</time></trkpt><trkpt lat="40.6395808" lon="9.6490033"><ele>29.0</ele><time>2026-04-11T09:24:42.188Z</time></trkpt><trkpt lat="40.6394473" lon="9.6490872"><ele>31.0</ele><time>2026-04-11T09:24:43.16Z</time></trkpt><trkpt lat="40.6393076" lon="9.6491714"><ele>33.0</ele><time>2026-04-11T09:24:44.163Z</time></trkpt><trkpt lat="40.6391665" lon="9.6492532"><ele>33.0</ele><time>2026-04-11T09:24:45.161Z</time></trkpt><trkpt lat="40.6390196" lon="9.6493343"><ele>33.0</ele><time>2026-04-11T09:24:46.166Z</time></trkpt><trkpt lat="40.6388735" lon="9.6494136"><ele>33.0</ele><time>2026-04-11T09:24:47.163Z</time></trkpt><trkpt lat="40.6387352" lon="9.649485"><ele>37.0</ele><time>2026-04-11T09:24:48.159Z</time></trkpt><trkpt lat="40.6386062" lon="9.6495475"><ele>41.0</ele><time>2026-04-11T09:24:49.169Z</time></trkpt><trkpt lat="40.6384838" lon="9.6495979"><ele>45.0</ele><time>2026-04-11T09:24:50.155Z</time></trkpt><trkpt lat="40.6383671" lon="9.6496407"><ele>49.0</ele><time>2026-04-11T09:24:51.16Z</time></trkpt><trkpt lat="40.6382503" lon="9.6496703"><ele>49.0</ele><time>2026-04-11T09:24:52.155Z</time></trkpt><trkpt lat="40.6381277" lon="9.6496802"><ele>49.0</ele><time>2026-04-11T09:24:53.149Z</time></trkpt><trkpt lat="40.6379997" lon="9.6496754"><ele>49.0</ele><time>2026-04-11T09:24:54.149Z</time></trkpt><trkpt lat="40.6378663" lon="9.649658"><ele>49.0</ele><time>2026-04-11T09:24:55.147Z</time></trkpt><trkpt lat="40.6377314" lon="9.6496352"><ele>48.0</ele><time>2026-04-11T09:24:56.148Z</time></trkpt><trkpt lat="40.6375914" lon="9.6496121"><ele>47.0</ele><time>2026-04-11T09:24:57.146Z</time></trkpt><trkpt lat="40.6374469" lon="9.6495847"><ele>46.0</ele><time>2026-04-11T09:24:58.151Z</time></trkpt><trkpt lat="40.6373057" lon="9.6495597"><ele>45.0</ele><time>2026-04-11T09:24:59.135Z</time></trkpt><trkpt lat="40.6371652" lon="9.6495391"><ele>45.0</ele><time>2026-04-11T09:25:00.145Z</time></trkpt><trkpt lat="40.6370221" lon="9.6495306"><ele>45.0</ele><time>2026-04-11T09:25:01.146Z</time></trkpt><trkpt lat="40.6368749" lon="9.6495395"><ele>45.0</ele><time>2026-04-11T09:25:02.133Z</time></trkpt><trkpt lat="40.6367241" lon="9.6495657"><ele>45.0</ele><time>2026-04-11T09:25:03.145Z</time></trkpt><trkpt lat="40.6365781" lon="9.6496046"><ele>43.0</ele><time>2026-04-11T09:25:04.134Z</time></trkpt><trkpt lat="40.6364375" lon="9.6496518"><ele>41.0</ele><time>2026-04-11T09:25:05.142Z</time></trkpt><trkpt lat="40.6363094" lon="9.6497043"><ele>39.0</ele><time>2026-04-11T09:25:06.137Z</time></trkpt><trkpt lat="40.6361893" lon="9.6497765"><ele>37.0</ele><time>2026-04-11T09:25:07.128Z</time></trkpt><trkpt lat="40.636077" lon="9.6498731"><ele>34.5</ele><time>2026-04-11T09:25:08.132Z</time></trkpt><trkpt lat="40.6359789" lon="9.6499878"><ele>32.0</ele><time>2026-04-11T09:25:09.13Z</time></trkpt><trkpt lat="40.6359001" lon="9.65012"><ele>29.5</ele><time>2026-04-11T09:25:10.131Z</time></trkpt><trkpt lat="40.6358397" lon="9.6502698"><ele>27.0</ele><time>2026-04-11T09:25:11.131Z</time></trkpt><trkpt lat="40.635797" lon="9.6504373"><ele>27.0</ele><time>2026-04-11T09:25:12.141Z</time></trkpt><trkpt lat="40.635773" lon="9.6506164"><ele>27.0</ele><time>2026-04-11T09:25:13.127Z</time></trkpt><trkpt lat="40.6357649" lon="9.6508113"><ele>27.0</ele><time>2026-04-11T09:25:14.134Z</time></trkpt><trkpt lat="40.6357734" lon="9.651011"><ele>27.0</ele><time>2026-04-11T09:25:15.128Z</time></trkpt><trkpt lat="40.6357959" lon="9.6512171"><ele>26.0</ele><time>2026-04-11T09:25:16.131Z</time></trkpt><trkpt lat="40.6358257" lon="9.6514279"><ele>25.0</ele><time>2026-04-11T09:25:17.13Z</time></trkpt><trkpt lat="40.6358501" lon="9.6516231"><ele>24.0</ele><time>2026-04-11T09:25:18.132Z</time></trkpt><trkpt lat="40.6358759" lon="9.6517907"><ele>23.0</ele><time>2026-04-11T09:25:19.122Z</time></trkpt><trkpt lat="40.6358981" lon="9.6519301"><ele>21.5</ele><time>2026-04-11T09:25:20.121Z</time></trkpt><trkpt lat="40.6359172" lon="9.6520501"><ele>20.0</ele><time>2026-04-11T09:25:21.134Z</time></trkpt><trkpt lat="40.635927" lon="9.6521503"><ele>18.5</ele><time>2026-04-11T09:25:22.117Z</time></trkpt><trkpt lat="40.6358941" lon="9.6522956"><ele>17.0</ele><time>2026-04-11T09:25:24.114Z</time></trkpt><trkpt lat="40.6355107" lon="9.6521901"><ele>15.0</ele><time>2026-04-11T09:25:30.117Z</time></trkpt><trkpt lat="40.6350157" lon="9.6519985"><ele>18.5</ele><time>2026-04-11T09:25:35.115Z</time></trkpt><trkpt lat="40.6346197" lon="9.6518543"><ele>22.0</ele><time>2026-04-11T09:25:39.11Z</time></trkpt><trkpt lat="40.6345085" lon="9.6518144"><ele>20.0</ele><time>2026-04-11T09:25:40.118Z</time></trkpt><trkpt lat="40.6342753" lon="9.6517298"><ele>18.0</ele><time>2026-04-11T09:25:42.109Z</time></trkpt><trkpt lat="40.6340169" lon="9.6516389"><ele>18.0</ele><time>2026-04-11T09:25:44.123Z</time></trkpt><trkpt lat="40.6338795" lon="9.6515893"><ele>18.0</ele><time>2026-04-11T09:25:45.126Z</time></trkpt><trkpt lat="40.6333408" lon="9.651391"><ele>18.5</ele><time>2026-04-11T09:25:49.2Z</time></trkpt><trkpt lat="40.633225" lon="9.6513389"><ele>19.0</ele><time>2026-04-11T09:25:50.212Z</time></trkpt><trkpt lat="40.632925" lon="9.6508219"><ele>19.0</ele><time>2026-04-11T09:25:55.192Z</time></trkpt><trkpt lat="40.6329339" lon="9.650554"><ele>19.0</ele><time>2026-04-11T09:25:59.195Z</time></trkpt><trkpt lat="40.6329096" lon="9.6503794"><ele>19.0</ele><time>2026-04-11T09:26:05.198Z</time></trkpt><trkpt lat="40.6329153" lon="9.650079"><ele>18.333333333333332</ele><time>2026-04-11T09:26:09.201Z</time></trkpt><trkpt lat="40.6329138" lon="9.6499846"><ele>17.666666666666668</ele><time>2026-04-11T09:26:10.189Z</time></trkpt><trkpt lat="40.632891" lon="9.6497965"><ele>17.0</ele><time>2026-04-11T09:26:12.197Z</time></trkpt><trkpt lat="40.6328661" lon="9.6494788"><ele>15.5</ele><time>2026-04-11T09:26:16.202Z</time></trkpt><trkpt lat="40.6328591" lon="9.6493963"><ele>14.0</ele><time>2026-04-11T09:26:17.188Z</time></trkpt><trkpt lat="40.6328639" lon="9.6490387"><ele>12.5</ele><time>2026-04-11T09:26:21.197Z</time></trkpt><trkpt lat="40.6328561" lon="9.6489469"><ele>11.0</ele><time>2026-04-11T09:26:22.189Z</time></trkpt><trkpt lat="40.6328656" lon="9.6485966"><ele>9.75</ele><time>2026-04-11T09:26:26.195Z</time></trkpt><trkpt lat="40.6329317" lon="9.6483159"><ele>8.5</ele><time>2026-04-11T09:26:31.186Z</time></trkpt><trkpt lat="40.6329779" lon="9.6482073"><ele>7.25</ele><time>2026-04-11T09:26:36.174Z</time></trkpt><trkpt lat="40.6330344" lon="9.6481478"><ele>6.0</ele><time>2026-04-11T09:27:03.157Z</time></trkpt><trkpt lat="40.6329461" lon="9.6482582"><ele>6.0</ele><time>2026-04-11T09:27:17.135Z</time></trkpt><trkpt lat="40.6328734" lon="9.6485032"><ele>6.0</ele><time>2026-04-11T09:27:21.148Z</time></trkpt><trkpt lat="40.6328426" lon="9.6487787"><ele>6.0</ele><time>2026-04-11T09:27:25.138Z</time></trkpt><trkpt lat="40.6328615" lon="9.6491078"><ele>7.666666666666666</ele><time>2026-04-11T09:27:29.124Z</time></trkpt><trkpt lat="40.6328619" lon="9.6492077"><ele>9.333333333333332</ele><time>2026-04-11T09:27:30.127Z</time></trkpt><trkpt lat="40.6328573" lon="9.6494683"><ele>11.0</ele><time>2026-04-11T09:27:33.127Z</time></trkpt><trkpt lat="40.6328883" lon="9.6498328"><ele>13.0</ele><time>2026-04-11T09:27:37.128Z</time></trkpt><trkpt lat="40.6328991" lon="9.6499349"><ele>15.0</ele><time>2026-04-11T09:27:38.115Z</time></trkpt><trkpt lat="40.6329065" lon="9.6503197"><ele>17.0</ele><time>2026-04-11T09:27:42.114Z</time></trkpt><trkpt lat="40.6328728" lon="9.6505461"><ele>17.5</ele><time>2026-04-11T09:27:46.112Z</time></trkpt><trkpt lat="40.6328449" lon="9.6506889"><ele>18.0</ele><time>2026-04-11T09:27:48.109Z</time></trkpt><trkpt lat="40.6328453" lon="9.6508788"><ele>18.5</ele><time>2026-04-11T09:27:52.21Z</time></trkpt><trkpt lat="40.6329357" lon="9.6508243"><ele>19.0</ele><time>2026-04-11T09:27:56.214Z</time></trkpt><trkpt lat="40.6329648" lon="9.6505019"><ele>18.333333333333332</ele><time>2026-04-11T09:28:00.194Z</time></trkpt><trkpt lat="40.6331079" lon="9.6502236"><ele>17.666666666666668</ele><time>2026-04-11T09:28:04.195Z</time></trkpt><trkpt lat="40.6331703" lon="9.6501637"><ele>17.0</ele><time>2026-04-11T09:28:05.205Z</time></trkpt><trkpt lat="40.6333451" lon="9.6500132"><ele>17.0</ele><time>2026-04-11T09:28:07.203Z</time></trkpt><trkpt lat="40.6334421" lon="9.6499301"><ele>17.0</ele><time>2026-04-11T09:28:08.192Z</time></trkpt><trkpt lat="40.6338171" lon="9.6495795"><ele>18.0</ele><time>2026-04-11T09:28:12.189Z</time></trkpt><trkpt lat="40.6338636" lon="9.6494817"><ele>19.0</ele><time>2026-04-11T09:28:13.221Z</time></trkpt><trkpt lat="40.633872" lon="9.6492398"><ele>20.0</ele><time>2026-04-11T09:28:15.203Z</time></trkpt><trkpt lat="40.6338669" lon="9.6490972"><ele>21.0</ele><time>2026-04-11T09:28:16.186Z</time></trkpt><trkpt lat="40.6338654" lon="9.6484518"><ele>7.0</ele><time>2026-04-11T09:28:20.183Z</time></trkpt><trkpt lat="40.6338578" lon="9.6476337"><ele>7.0</ele><time>2026-04-11T09:28:25.194Z</time></trkpt><trkpt lat="40.6338576" lon="9.6470252"><ele>9.5</ele><time>2026-04-11T09:28:29.189Z</time></trkpt><trkpt lat="40.6338589" lon="9.6468798"><ele>12.0</ele><time>2026-04-11T09:28:30.185Z</time></trkpt><trkpt lat="40.6338301" lon="9.6462119"><ele>14.5</ele><time>2026-04-11T09:28:35.186Z</time></trkpt><trkpt lat="40.6336928" lon="9.6458671"><ele>17.0</ele><time>2026-04-11T09:28:39.189Z</time></trkpt><trkpt lat="40.6335748" lon="9.6456261"><ele>17.0</ele><time>2026-04-11T09:28:43.175Z</time></trkpt><trkpt lat="40.633491" lon="9.6455896"><ele>17.0</ele><time>2026-04-11T09:28:47.191Z</time></trkpt><trkpt lat="40.6333899" lon="9.6458434"><ele>17.0</ele><time>2026-04-11T09:28:51.184Z</time></trkpt><trkpt lat="40.6334451" lon="9.6464716"><ele>13.0</ele><time>2026-04-11T09:28:56.167Z</time></trkpt><trkpt lat="40.6333744" lon="9.6468901"><ele>9.0</ele><time>2026-04-11T09:29:01.173Z</time></trkpt><trkpt lat="40.6332054" lon="9.6469023"><ele>9.0</ele><time>2026-04-11T09:29:05.158Z</time></trkpt><trkpt lat="40.6328503" lon="9.6468298"><ele>9.0</ele><time>2026-04-11T09:29:11.174Z</time></trkpt><trkpt lat="40.6325418" lon="9.6467777"><ele>8.0</ele><time>2026-04-11T09:29:15.16Z</time></trkpt><trkpt lat="40.6324656" lon="9.6467659"><ele>7.0</ele><time>2026-04-11T09:29:16.157Z</time></trkpt><trkpt lat="40.6323924" lon="9.6467517"><ele>6.0</ele><time>2026-04-11T09:29:17.181Z</time></trkpt><trkpt lat="40.6321138" lon="9.6467069"><ele>5.0</ele><time>2026-04-11T09:29:21.17Z</time></trkpt><trkpt lat="40.6320347" lon="9.6467133"><ele>4.5</ele><time>2026-04-11T09:29:22.151Z</time></trkpt><trkpt lat="40.6318667" lon="9.6467407"><ele>4.0</ele><time>2026-04-11T09:29:24.155Z</time></trkpt><trkpt lat="40.6314824" lon="9.6466515"><ele>4.0</ele><time>2026-04-11T09:29:29.145Z</time></trkpt><trkpt lat="40.6312437" lon="9.6465702"><ele>4.0</ele><time>2026-04-11T09:29:33.148Z</time></trkpt><trkpt lat="40.6311332" lon="9.6466366"><ele>4.0</ele><time>2026-04-11T09:29:35.153Z</time></trkpt><trkpt lat="40.6308732" lon="9.6468762"><ele>4.0</ele><time>2026-04-11T09:29:39.154Z</time></trkpt><trkpt lat="40.6305353" lon="9.6470022"><ele>4.0</ele><time>2026-04-11T09:29:43.141Z</time></trkpt><trkpt lat="40.6300816" lon="9.6472498"><ele>4.0</ele><time>2026-04-11T09:29:48.141Z</time></trkpt><trkpt lat="40.6295932" lon="9.6476278"><ele>6.0</ele><time>2026-04-11T09:29:53.142Z</time></trkpt><trkpt lat="40.6291337" lon="9.6480011"><ele>6.0</ele><time>2026-04-11T09:29:58.142Z</time></trkpt><trkpt lat="40.6287626" lon="9.6482654"><ele>6.0</ele><time>2026-04-11T09:30:02.136Z</time></trkpt><trkpt lat="40.6282339" lon="9.648471"><ele>5.0</ele><time>2026-04-11T09:30:07.141Z</time></trkpt><trkpt lat="40.6278383" lon="9.6486293"><ele>4.0</ele><time>2026-04-11T09:30:11.129Z</time></trkpt><trkpt lat="40.6277576" lon="9.6486641"><ele>4.0</ele><time>2026-04-11T09:30:12.132Z</time></trkpt><trkpt lat="40.6274155" lon="9.6488491"><ele>4.0</ele><time>2026-04-11T09:30:16.118Z</time></trkpt><trkpt lat="40.6270722" lon="9.6491877"><ele>4.0</ele><time>2026-04-11T09:30:20.119Z</time></trkpt><trkpt lat="40.6270023" lon="9.6492847"><ele>4.0</ele><time>2026-04-11T09:30:21.124Z</time></trkpt><trkpt lat="40.6267287" lon="9.6494726"><ele>4.0</ele><time>2026-04-11T09:30:25.134Z</time></trkpt><trkpt lat="40.6265068" lon="9.6492099"><ele>4.6</ele><time>2026-04-11T09:30:30.114Z</time></trkpt><trkpt lat="40.6263888" lon="9.6491356"><ele>5.2</ele><time>2026-04-11T09:30:33.125Z</time></trkpt><trkpt lat="40.6262946" lon="9.6491489"><ele>5.799999999999999</ele><time>2026-04-11T09:30:36.14Z</time></trkpt><trkpt lat="40.626216" lon="9.6491373"><ele>6.3999999999999995</ele><time>2026-04-11T09:30:40.12Z</time></trkpt><trkpt lat="40.6261633" lon="9.6490857"><ele>7.0</ele><time>2026-04-11T09:32:03.163Z</time></trkpt><trkpt lat="40.6261435" lon="9.6487242"><ele>6.666666666666667</ele><time>2026-04-11T09:32:07.169Z</time></trkpt><trkpt lat="40.6261374" lon="9.6485945"><ele>6.333333333333334</ele><time>2026-04-11T09:32:08.164Z</time></trkpt><trkpt lat="40.6261207" lon="9.6481621"><ele>6.0</ele><time>2026-04-11T09:32:11.177Z</time></trkpt><trkpt lat="40.6261123" lon="9.6480073"><ele>9.0</ele><time>2026-04-11T09:32:12.156Z</time></trkpt><trkpt lat="40.6260742" lon="9.6473688"><ele>9.0</ele><time>2026-04-11T09:32:16.149Z</time></trkpt><trkpt lat="40.6260612" lon="9.6472152"><ele>9.0</ele><time>2026-04-11T09:32:17.146Z</time></trkpt><trkpt lat="40.6259303" lon="9.64666"><ele>11.5</ele><time>2026-04-11T09:32:21.143Z</time></trkpt><trkpt lat="40.6258213" lon="9.6463933"><ele>14.0</ele><time>2026-04-11T09:32:23.152Z</time></trkpt><trkpt lat="40.625614" lon="9.6459161"><ele>15.0</ele><time>2026-04-11T09:32:27.158Z</time></trkpt><trkpt lat="40.6255699" lon="9.6458111"><ele>16.0</ele><time>2026-04-11T09:32:28.147Z</time></trkpt><trkpt lat="40.6253934" lon="9.6453541"><ele>17.0</ele><time>2026-04-11T09:32:32.146Z</time></trkpt><trkpt lat="40.6251314" lon="9.6445968"><ele>16.5</ele><time>2026-04-11T09:32:37.144Z</time></trkpt><trkpt lat="40.625076" lon="9.6444339"><ele>16.0</ele><time>2026-04-11T09:32:38.144Z</time></trkpt><trkpt lat="40.6248478" lon="9.6437239"><ele>16.0</ele><time>2026-04-11T09:32:43.145Z</time></trkpt><trkpt lat="40.6247221" lon="9.6433451"><ele>16.0</ele><time>2026-04-11T09:32:47.129Z</time></trkpt><trkpt lat="40.6246695" lon="9.6432015"><ele>16.0</ele><time>2026-04-11T09:32:49.137Z</time></trkpt><trkpt lat="40.6245118" lon="9.6430729"><ele>19.0</ele><time>2026-04-11T09:32:53.13Z</time></trkpt><trkpt lat="40.6243604" lon="9.6427815"><ele>22.0</ele><time>2026-04-11T09:32:58.13Z</time></trkpt><trkpt lat="40.6242397" lon="9.642508"><ele>22.0</ele><time>2026-04-11T09:33:02.139Z</time></trkpt><trkpt lat="40.6241929" lon="9.6424414"><ele>22.0</ele><time>2026-04-11T09:33:03.14Z</time></trkpt><trkpt lat="40.6239562" lon="9.6421828"><ele>22.0</ele><time>2026-04-11T09:33:07.138Z</time></trkpt><trkpt lat="40.6238923" lon="9.6421201"><ele>23.333333333333332</ele><time>2026-04-11T09:33:08.131Z</time></trkpt><trkpt lat="40.6236189" lon="9.6418639"><ele>24.666666666666664</ele><time>2026-04-11T09:33:12.129Z</time></trkpt><trkpt lat="40.6235498" lon="9.6418057"><ele>26.0</ele><time>2026-04-11T09:33:13.126Z</time></trkpt><trkpt lat="40.6232687" lon="9.6415778"><ele>26.0</ele><time>2026-04-11T09:33:17.129Z</time></trkpt><trkpt lat="40.6229226" lon="9.6413029"><ele>26.0</ele><time>2026-04-11T09:33:22.127Z</time></trkpt><trkpt lat="40.6226189" lon="9.6410827"><ele>27.0</ele><time>2026-04-11T09:33:26.121Z</time></trkpt><trkpt lat="40.6225489" lon="9.6410415"><ele>28.0</ele><time>2026-04-11T09:33:27.123Z</time></trkpt><trkpt lat="40.6223097" lon="9.6408765"><ele>29.0</ele><time>2026-04-11T09:33:31.141Z</time></trkpt><trkpt lat="40.6221537" lon="9.6406597"><ele>29.0</ele><time>2026-04-11T09:33:35.124Z</time></trkpt><trkpt lat="40.6221157" lon="9.6405834"><ele>29.0</ele><time>2026-04-11T09:33:36.114Z</time></trkpt><trkpt lat="40.6220701" lon="9.6402803"><ele>29.0</ele><time>2026-04-11T09:33:40.108Z</time></trkpt><trkpt lat="40.6219993" lon="9.6398941"><ele>29.666666666666664</ele><time>2026-04-11T09:33:46.112Z</time></trkpt><trkpt lat="40.6218985" lon="9.6396999"><ele>30.333333333333336</ele><time>2026-04-11T09:33:50.105Z</time></trkpt><trkpt lat="40.6218005" lon="9.6394704"><ele>31.0</ele><time>2026-04-11T09:33:54.105Z</time></trkpt><trkpt lat="40.621664" lon="9.6391826"><ele>31.0</ele><time>2026-04-11T09:33:58.197Z</time></trkpt><trkpt lat="40.6215235" lon="9.6388766"><ele>31.0</ele><time>2026-04-11T09:34:02.201Z</time></trkpt><trkpt lat="40.6213969" lon="9.6385735"><ele>31.0</ele><time>2026-04-11T09:34:07.189Z</time></trkpt><trkpt lat="40.6212918" lon="9.6382009"><ele>31.0</ele><time>2026-04-11T09:34:12.195Z</time></trkpt><trkpt lat="40.621207" lon="9.6379519"><ele>32.0</ele><time>2026-04-11T09:34:16.193Z</time></trkpt><trkpt lat="40.6211878" lon="9.6376442"><ele>33.0</ele><time>2026-04-11T09:34:21.192Z</time></trkpt><trkpt lat="40.6209766" lon="9.6374023"><ele>34.333333333333336</ele><time>2026-04-11T09:34:26.18Z</time></trkpt><trkpt lat="40.6209141" lon="9.6373445"><ele>35.66666666666667</ele><time>2026-04-11T09:34:27.194Z</time></trkpt><trkpt lat="40.6206664" lon="9.6370419"><ele>37.0</ele><time>2026-04-11T09:34:32.196Z</time></trkpt><trkpt lat="40.6205245" lon="9.6368231"><ele>37.0</ele><time>2026-04-11T09:34:36.175Z</time></trkpt><trkpt lat="40.6203984" lon="9.6366018"><ele>37.0</ele><time>2026-04-11T09:34:40.181Z</time></trkpt><trkpt lat="40.620378" lon="9.6363189"><ele>37.0</ele><time>2026-04-11T09:34:45.177Z</time></trkpt><trkpt lat="40.6204104" lon="9.6361099"><ele>37.5</ele><time>2026-04-11T09:34:49.166Z</time></trkpt><trkpt lat="40.6204344" lon="9.6359674"><ele>38.0</ele><time>2026-04-11T09:34:52.178Z</time></trkpt><trkpt lat="40.6204523" lon="9.6358541"><ele>38.5</ele><time>2026-04-11T09:34:55.174Z</time></trkpt><trkpt lat="40.6204677" lon="9.6355995"><ele>39.0</ele><time>2026-04-11T09:34:59.172Z</time></trkpt><trkpt lat="40.6204325" lon="9.6352874"><ele>40.5</ele><time>2026-04-11T09:35:04.169Z</time></trkpt><trkpt lat="40.6203517" lon="9.6350495"><ele>42.0</ele><time>2026-04-11T09:35:08.18Z</time></trkpt><trkpt lat="40.6202919" lon="9.6348999"><ele>43.5</ele><time>2026-04-11T09:35:12.157Z</time></trkpt><trkpt lat="40.6202493" lon="9.6348201"><ele>45.0</ele><time>2026-04-11T09:38:43.206Z</time></trkpt><trkpt lat="40.62016" lon="9.6346234"><ele>48.33333333333333</ele><time>2026-04-11T09:38:48.197Z</time></trkpt><trkpt lat="40.6201139" lon="9.6344212"><ele>51.666666666666664</ele><time>2026-04-11T09:38:52.2Z</time></trkpt><trkpt lat="40.6201043" lon="9.6343046"><ele>55.0</ele><time>2026-04-11T09:38:54.196Z</time></trkpt><trkpt lat="40.6201456" lon="9.6340182"><ele>55.0</ele><time>2026-04-11T09:38:59.199Z</time></trkpt><trkpt lat="40.6202076" lon="9.6337092"><ele>55.0</ele><time>2026-04-11T09:39:04.201Z</time></trkpt><trkpt lat="40.6202291" lon="9.6334322"><ele>57.666666666666664</ele><time>2026-04-11T09:39:08.202Z</time></trkpt><trkpt lat="40.620221" lon="9.6332517"><ele>60.33333333333333</ele><time>2026-04-11T09:39:12.208Z</time></trkpt><trkpt lat="40.6202032" lon="9.6330901"><ele>63.0</ele><time>2026-04-11T09:39:15.225Z</time></trkpt><trkpt lat="40.6201597" lon="9.6328397"><ele>68.0</ele><time>2026-04-11T09:39:19.212Z</time></trkpt><trkpt lat="40.620147" lon="9.6325128"><ele>73.0</ele><time>2026-04-11T09:39:23.213Z</time></trkpt><trkpt lat="40.6201459" lon="9.6323687"><ele>78.0</ele><time>2026-04-11T09:39:25.236Z</time></trkpt><trkpt lat="40.6201599" lon="9.6321555"><ele>78.0</ele><time>2026-04-11T09:39:28.244Z</time></trkpt><trkpt lat="40.6201573" lon="9.6319761"><ele>78.0</ele><time>2026-04-11T09:39:31.231Z</time></trkpt><trkpt lat="40.6201248" lon="9.6318054"><ele>78.0</ele><time>2026-04-11T09:39:35.296Z</time></trkpt><trkpt lat="40.6201218" lon="9.6317194"><ele>78.0</ele><time>2026-04-11T09:39:38.231Z</time></trkpt><trkpt lat="40.6200394" lon="9.6316489"><ele>78.0</ele><time>2026-04-11T09:40:54.213Z</time></trkpt><trkpt lat="40.6199164" lon="9.6315569"><ele>81.66666666666667</ele><time>2026-04-11T09:40:57.241Z</time></trkpt><trkpt lat="40.6197558" lon="9.6314773"><ele>85.33333333333334</ele><time>2026-04-11T09:41:00.26Z</time></trkpt><trkpt lat="40.6195298" lon="9.6313349"><ele>89.0</ele><time>2026-04-11T09:41:04.245Z</time></trkpt><trkpt lat="40.6194727" lon="9.631295"><ele>89.0</ele><time>2026-04-11T09:41:05.202Z</time></trkpt><trkpt lat="40.6193003" lon="9.6311668"><ele>89.0</ele><time>2026-04-11T09:41:08.237Z</time></trkpt><trkpt lat="40.6191188" lon="9.631026"><ele>89.0</ele><time>2026-04-11T09:41:11.365Z</time></trkpt><trkpt lat="40.6189629" lon="9.6308756"><ele>103.0</ele><time>2026-04-11T09:41:14.237Z</time></trkpt><trkpt lat="40.618791" lon="9.6306378"><ele>117.0</ele><time>2026-04-11T09:41:18.237Z</time></trkpt><trkpt lat="40.6186613" lon="9.630375"><ele>122.33333333333334</ele><time>2026-04-11T09:41:22.286Z</time></trkpt><trkpt lat="40.6184915" lon="9.630182"><ele>127.66666666666667</ele><time>2026-04-11T09:41:26.21Z</time></trkpt><trkpt lat="40.6183466" lon="9.6300652"><ele>133.0</ele><time>2026-04-11T09:41:29.247Z</time></trkpt><trkpt lat="40.6180948" lon="9.6298468"><ele>133.0</ele><time>2026-04-11T09:41:34.23Z</time></trkpt><trkpt lat="40.6179339" lon="9.6296696"><ele>133.0</ele><time>2026-04-11T09:41:38.193Z</time></trkpt><trkpt lat="40.6178688" lon="9.6295646"><ele>133.0</ele><time>2026-04-11T09:41:40.32Z</time></trkpt><trkpt lat="40.6177406" lon="9.629329"><ele>137.0</ele><time>2026-04-11T09:41:44.218Z</time></trkpt><trkpt lat="40.6175925" lon="9.6290848"><ele>141.0</ele><time>2026-04-11T09:41:48.195Z</time></trkpt><trkpt lat="40.6175393" lon="9.6289661"><ele>145.0</ele><time>2026-04-11T09:41:50.193Z</time></trkpt><trkpt lat="40.6174673" lon="9.6288063"><ele>145.0</ele><time>2026-04-11T09:41:53.246Z</time></trkpt><trkpt lat="40.6174287" lon="9.6287243"><ele>145.0</ele><time>2026-04-11T09:42:21.286Z</time></trkpt><trkpt lat="40.6174103" lon="9.6285515"><ele>145.0</ele><time>2026-04-11T09:42:24.254Z</time></trkpt><trkpt lat="40.6173395" lon="9.628309"><ele>145.0</ele><time>2026-04-11T09:42:27.333Z</time></trkpt><trkpt lat="40.6172201" lon="9.6280281"><ele>147.33333333333334</ele><time>2026-04-11T09:42:31.228Z</time></trkpt><trkpt lat="40.6171332" lon="9.627827"><ele>149.66666666666666</ele><time>2026-04-11T09:42:34.3Z</time></trkpt><trkpt lat="40.6170025" lon="9.6276044"><ele>152.0</ele><time>2026-04-11T09:42:38.208Z</time></trkpt><trkpt lat="40.6169216" lon="9.62735"><ele>152.5</ele><time>2026-04-11T09:42:42.221Z</time></trkpt><trkpt lat="40.6169146" lon="9.6270075"><ele>153.0</ele><time>2026-04-11T09:42:46.289Z</time></trkpt><trkpt lat="40.6169365" lon="9.6266396"><ele>151.66666666666666</ele><time>2026-04-11T09:42:50.216Z</time></trkpt><trkpt lat="40.6169415" lon="9.6265513"><ele>150.33333333333331</ele><time>2026-04-11T09:42:51.198Z</time></trkpt><trkpt lat="40.616941" lon="9.6262866"><ele>149.0</ele><time>2026-04-11T09:42:54.203Z</time></trkpt><trkpt lat="40.6169438" lon="9.6259497"><ele>146.0</ele><time>2026-04-11T09:42:58.183Z</time></trkpt><trkpt lat="40.616939" lon="9.6257847"><ele>143.0</ele><time>2026-04-11T09:43:00.22Z</time></trkpt><trkpt lat="40.6168643" lon="9.6254541"><ele>140.0</ele><time>2026-04-11T09:43:04.205Z</time></trkpt><trkpt lat="40.6168616" lon="9.6253665"><ele>139.0</ele><time>2026-04-11T09:43:05.223Z</time></trkpt><trkpt lat="40.616873" lon="9.6251319"><ele>138.0</ele><time>2026-04-11T09:43:08.187Z</time></trkpt><trkpt lat="40.6168603" lon="9.6248093"><ele>137.0</ele><time>2026-04-11T09:43:12.242Z</time></trkpt><trkpt lat="40.6168284" lon="9.6244749"><ele>136.0</ele><time>2026-04-11T09:43:16.179Z</time></trkpt><trkpt lat="40.6167872" lon="9.6240877"><ele>135.0</ele><time>2026-04-11T09:43:20.282Z</time></trkpt><trkpt lat="40.6168188" lon="9.6236231"><ele>135.0</ele><time>2026-04-11T09:43:24.228Z</time></trkpt><trkpt lat="40.6168209" lon="9.6235115"><ele>135.0</ele><time>2026-04-11T09:43:25.199Z</time></trkpt><trkpt lat="40.6168091" lon="9.6231935"><ele>135.0</ele><time>2026-04-11T09:43:28.297Z</time></trkpt><trkpt lat="40.6168518" lon="9.6228627"><ele>135.5</ele><time>2026-04-11T09:43:31.196Z</time></trkpt><trkpt lat="40.6168667" lon="9.6227448"><ele>136.0</ele><time>2026-04-11T09:43:32.212Z</time></trkpt><trkpt lat="40.6168747" lon="9.6223839"><ele>136.5</ele><time>2026-04-11T09:43:35.22Z</time></trkpt><trkpt lat="40.616863" lon="9.6222751"><ele>137.0</ele><time>2026-04-11T09:43:36.201Z</time></trkpt><trkpt lat="40.6168218" lon="9.6219549"><ele>137.0</ele><time>2026-04-11T09:43:39.281Z</time></trkpt><trkpt lat="40.6168328" lon="9.6215868"><ele>137.0</ele><time>2026-04-11T09:43:43.201Z</time></trkpt><trkpt lat="40.6170045" lon="9.6214208"><ele>136.5</ele><time>2026-04-11T09:43:47.209Z</time></trkpt><trkpt lat="40.617084" lon="9.6214103"><ele>136.0</ele><time>2026-04-11T09:43:48.279Z</time></trkpt><trkpt lat="40.6172483" lon="9.621244"><ele>135.5</ele><time>2026-04-11T09:43:51.169Z</time></trkpt><trkpt lat="40.61729" lon="9.6211637"><ele>135.0</ele><time>2026-04-11T09:43:52.208Z</time></trkpt><trkpt lat="40.6174552" lon="9.621066"><ele>135.0</ele><time>2026-04-11T09:43:55.218Z</time></trkpt><trkpt lat="40.617684" lon="9.6211313"><ele>135.0</ele><time>2026-04-11T09:43:58.2Z</time></trkpt><trkpt lat="40.6178667" lon="9.6210469"><ele>135.0</ele><time>2026-04-11T09:44:02.216Z</time></trkpt><trkpt lat="40.6179114" lon="9.6209883"><ele>127.5</ele><time>2026-04-11T09:44:03.183Z</time></trkpt><trkpt lat="40.6180536" lon="9.6207444"><ele>120.0</ele><time>2026-04-11T09:44:06.203Z</time></trkpt><trkpt lat="40.618216" lon="9.620412"><ele>120.0</ele><time>2026-04-11T09:44:10.221Z</time></trkpt><trkpt lat="40.6182666" lon="9.6203308"><ele>120.0</ele><time>2026-04-11T09:44:11.21Z</time></trkpt><trkpt lat="40.6185025" lon="9.6200914"><ele>120.0</ele><time>2026-04-11T09:44:14.246Z</time></trkpt><trkpt lat="40.6185795" lon="9.6200174"><ele>116.66666666666666</ele><time>2026-04-11T09:44:15.194Z</time></trkpt><trkpt lat="40.6188025" lon="9.6198398"><ele>113.33333333333333</ele><time>2026-04-11T09:44:18.264Z</time></trkpt><trkpt lat="40.6188655" lon="9.6197805"><ele>110.0</ele><time>2026-04-11T09:44:19.188Z</time></trkpt><trkpt lat="40.6190731" lon="9.6195335"><ele>110.75</ele><time>2026-04-11T09:44:22.223Z</time></trkpt><trkpt lat="40.6191414" lon="9.6194513"><ele>111.5</ele><time>2026-04-11T09:44:23.229Z</time></trkpt><trkpt lat="40.6192096" lon="9.6193673"><ele>112.25</ele><time>2026-04-11T09:44:24.179Z</time></trkpt><trkpt lat="40.6192761" lon="9.6192753"><ele>113.0</ele><time>2026-04-11T09:44:25.222Z</time></trkpt><trkpt lat="40.619428" lon="9.6190155"><ele>113.0</ele><time>2026-04-11T09:44:28.158Z</time></trkpt><trkpt lat="40.6194623" lon="9.6189234"><ele>113.0</ele><time>2026-04-11T09:44:29.221Z</time></trkpt><trkpt lat="40.6195201" lon="9.6185476"><ele>113.0</ele><time>2026-04-11T09:44:33.172Z</time></trkpt><trkpt lat="40.6195285" lon="9.618463"><ele>113.0</ele><time>2026-04-11T09:44:34.14Z</time></trkpt><trkpt lat="40.6195074" lon="9.6182443"><ele>112.25</ele><time>2026-04-11T09:44:37.165Z</time></trkpt><trkpt lat="40.619294" lon="9.6181725"><ele>111.5</ele><time>2026-04-11T09:44:41.142Z</time></trkpt><trkpt lat="40.6191823" lon="9.6181315"><ele>110.75</ele><time>2026-04-11T09:44:43.201Z</time></trkpt><trkpt lat="40.6191164" lon="9.6180151"><ele>110.0</ele><time>2026-04-11T09:44:46.166Z</time></trkpt><trkpt lat="40.6193367" lon="9.6177917"><ele>110.0</ele><time>2026-04-11T09:44:50.169Z</time></trkpt><trkpt lat="40.6194209" lon="9.6177264"><ele>110.0</ele><time>2026-04-11T09:44:51.16Z</time></trkpt><trkpt lat="40.6196318" lon="9.617565"><ele>110.0</ele><time>2026-04-11T09:44:54.21Z</time></trkpt><trkpt lat="40.6198224" lon="9.6173028"><ele>108.0</ele><time>2026-04-11T09:44:58.242Z</time></trkpt><trkpt lat="40.6199859" lon="9.6172747"><ele>106.0</ele><time>2026-04-11T09:45:01.165Z</time></trkpt><trkpt lat="40.6201624" lon="9.6173782"><ele>104.0</ele><time>2026-04-11T09:45:04.15Z</time></trkpt><trkpt lat="40.620212" lon="9.6174343"><ele>102.0</ele><time>2026-04-11T09:45:05.19Z</time></trkpt><trkpt lat="40.6202582" lon="9.6174954"><ele>103.0</ele><time>2026-04-11T09:45:06.156Z</time></trkpt><trkpt lat="40.6203829" lon="9.6176841"><ele>104.0</ele><time>2026-04-11T09:45:09.227Z</time></trkpt><trkpt lat="40.6205855" lon="9.61789"><ele>105.0</ele><time>2026-04-11T09:45:13.195Z</time></trkpt><trkpt lat="40.6206429" lon="9.6179426"><ele>101.5</ele><time>2026-04-11T09:45:14.145Z</time></trkpt><trkpt lat="40.6208201" lon="9.6181195"><ele>98.0</ele><time>2026-04-11T09:45:17.184Z</time></trkpt><trkpt lat="40.6210014" lon="9.6183272"><ele>98.0</ele><time>2026-04-11T09:45:20.139Z</time></trkpt><trkpt lat="40.6210646" lon="9.6184031"><ele>98.0</ele><time>2026-04-11T09:45:21.218Z</time></trkpt><trkpt lat="40.6213235" lon="9.618698"><ele>98.0</ele><time>2026-04-11T09:45:25.178Z</time></trkpt><trkpt lat="40.6215549" lon="9.6189364"><ele>95.75</ele><time>2026-04-11T09:45:29.181Z</time></trkpt><trkpt lat="40.6216018" lon="9.6190116"><ele>93.5</ele><time>2026-04-11T09:45:30.178Z</time></trkpt><trkpt lat="40.6217309" lon="9.6192608"><ele>91.25</ele><time>2026-04-11T09:45:33.178Z</time></trkpt><trkpt lat="40.6217638" lon="9.6193372"><ele>89.0</ele><time>2026-04-11T09:45:34.124Z</time></trkpt><trkpt lat="40.6218548" lon="9.6195017"><ele>88.66666666666667</ele><time>2026-04-11T09:45:37.159Z</time></trkpt><trkpt lat="40.621978" lon="9.6196133"><ele>88.33333333333333</ele><time>2026-04-11T09:45:40.154Z</time></trkpt><trkpt lat="40.6222124" lon="9.6196615"><ele>88.0</ele><time>2026-04-11T09:45:45.163Z</time></trkpt><trkpt lat="40.622226" lon="9.6194742"><ele>87.33333333333333</ele><time>2026-04-11T09:45:49.202Z</time></trkpt><trkpt lat="40.6221893" lon="9.6193872"><ele>86.66666666666667</ele><time>2026-04-11T09:45:50.148Z</time></trkpt><trkpt lat="40.6221098" lon="9.6190014"><ele>86.0</ele><time>2026-04-11T09:45:53.181Z</time></trkpt><trkpt lat="40.622144" lon="9.6183872"><ele>86.0</ele><time>2026-04-11T09:45:57.184Z</time></trkpt><trkpt lat="40.6221552" lon="9.6182396"><ele>86.0</ele><time>2026-04-11T09:45:58.166Z</time></trkpt><trkpt lat="40.6221924" lon="9.6177764"><ele>87.0</ele><time>2026-04-11T09:46:01.213Z</time></trkpt><trkpt lat="40.622207" lon="9.6176209"><ele>88.0</ele><time>2026-04-11T09:46:02.149Z</time></trkpt><trkpt lat="40.6222486" lon="9.617126"><ele>92.0</ele><time>2026-04-11T09:46:05.164Z</time></trkpt><trkpt lat="40.6222627" lon="9.6169642"><ele>96.0</ele><time>2026-04-11T09:46:06.139Z</time></trkpt><trkpt lat="40.6223129" lon="9.6164528"><ele>96.0</ele><time>2026-04-11T09:46:09.148Z</time></trkpt><trkpt lat="40.6223161" lon="9.61627"><ele>96.0</ele><time>2026-04-11T09:46:10.134Z</time></trkpt><trkpt lat="40.6222429" lon="9.6157377"><ele>97.0</ele><time>2026-04-11T09:46:13.157Z</time></trkpt><trkpt lat="40.6221748" lon="9.6155821"><ele>98.0</ele><time>2026-04-11T09:46:14.132Z</time></trkpt><trkpt lat="40.6216343" lon="9.6149796"><ele>95.0</ele><time>2026-04-11T09:46:19.161Z</time></trkpt><trkpt lat="40.621251" lon="9.6146926"><ele>92.0</ele><time>2026-04-11T09:46:23.149Z</time></trkpt><trkpt lat="40.6210608" lon="9.6145457"><ele>91.66666666666667</ele><time>2026-04-11T09:46:27.244Z</time></trkpt><trkpt lat="40.6209342" lon="9.6145873"><ele>91.33333333333333</ele><time>2026-04-11T09:46:31.154Z</time></trkpt><trkpt lat="40.6207229" lon="9.6147107"><ele>91.0</ele><time>2026-04-11T09:46:35.234Z</time></trkpt><trkpt lat="40.6204972" lon="9.6149285"><ele>88.0</ele><time>2026-04-11T09:46:39.231Z</time></trkpt><trkpt lat="40.6201554" lon="9.6149437"><ele>85.0</ele><time>2026-04-11T09:46:44.124Z</time></trkpt><trkpt lat="40.6200736" lon="9.6149122"><ele>82.0</ele><time>2026-04-11T09:46:45.217Z</time></trkpt><trkpt lat="40.6199983" lon="9.6148763"><ele>82.0</ele><time>2026-04-11T09:46:46.217Z</time></trkpt><trkpt lat="40.6197912" lon="9.6147048"><ele>82.0</ele><time>2026-04-11T09:46:49.233Z</time></trkpt><trkpt lat="40.6195945" lon="9.6144727"><ele>80.0</ele><time>2026-04-11T09:46:53.221Z</time></trkpt><trkpt lat="40.6195625" lon="9.6143934"><ele>78.0</ele><time>2026-04-11T09:46:54.22Z</time></trkpt><trkpt lat="40.6195502" lon="9.6142251"><ele>76.0</ele><time>2026-04-11T09:46:56.257Z</time></trkpt><trkpt lat="40.6195451" lon="9.6141407"><ele>74.0</ele><time>2026-04-11T09:46:57.221Z</time></trkpt><trkpt lat="40.619487" lon="9.6138876"><ele>72.33333333333334</ele><time>2026-04-11T09:47:00.243Z</time></trkpt><trkpt lat="40.6193905" lon="9.6135661"><ele>70.66666666666667</ele><time>2026-04-11T09:47:04.293Z</time></trkpt><trkpt lat="40.6193698" lon="9.6134728"><ele>69.0</ele><time>2026-04-11T09:47:05.211Z</time></trkpt><trkpt lat="40.6193259" lon="9.6131826"><ele>69.0</ele><time>2026-04-11T09:47:08.227Z</time></trkpt><trkpt lat="40.619332" lon="9.6130902"><ele>69.0</ele><time>2026-04-11T09:47:09.241Z</time></trkpt><trkpt lat="40.6193637" lon="9.6128699"><ele>69.0</ele><time>2026-04-11T09:47:12.256Z</time></trkpt><trkpt lat="40.619295" lon="9.6127377"><ele>69.0</ele><time>2026-04-11T09:47:15.199Z</time></trkpt><trkpt lat="40.6190553" lon="9.6126558"><ele>66.0</ele><time>2026-04-11T09:47:19.197Z</time></trkpt><trkpt lat="40.6189215" lon="9.6126747"><ele>63.0</ele><time>2026-04-11T09:47:21.284Z</time></trkpt><trkpt lat="40.6188465" lon="9.6127021"><ele>60.0</ele><time>2026-04-11T09:47:22.192Z</time></trkpt><trkpt lat="40.6185706" lon="9.6128138"><ele>61.33333333333333</ele><time>2026-04-11T09:47:25.205Z</time></trkpt><trkpt lat="40.6184883" lon="9.612852"><ele>62.666666666666664</ele><time>2026-04-11T09:47:26.205Z</time></trkpt><trkpt lat="40.6182929" lon="9.6130213"><ele>64.0</ele><time>2026-04-11T09:47:29.203Z</time></trkpt><trkpt lat="40.6180516" lon="9.6133805"><ele>64.0</ele><time>2026-04-11T09:47:33.244Z</time></trkpt><trkpt lat="40.6179995" lon="9.613461"><ele>64.0</ele><time>2026-04-11T09:47:34.275Z</time></trkpt><trkpt lat="40.6178524" lon="9.6136562"><ele>64.0</ele><time>2026-04-11T09:47:37.24Z</time></trkpt><trkpt lat="40.6176714" lon="9.6140109"><ele>66.0</ele><time>2026-04-11T09:47:41.195Z</time></trkpt><trkpt lat="40.6174317" lon="9.6143989"><ele>68.0</ele><time>2026-04-11T09:47:45.219Z</time></trkpt><trkpt lat="40.6173705" lon="9.6145008"><ele>73.66666666666667</ele><time>2026-04-11T09:47:46.191Z</time></trkpt><trkpt lat="40.617217" lon="9.614786"><ele>79.33333333333333</ele><time>2026-04-11T09:47:49.2Z</time></trkpt><trkpt lat="40.6171728" lon="9.6148635"><ele>85.0</ele><time>2026-04-11T09:47:50.168Z</time></trkpt><trkpt lat="40.6170487" lon="9.6149557"><ele>82.75</ele><time>2026-04-11T09:47:52.338Z</time></trkpt><trkpt lat="40.6168865" lon="9.6150057"><ele>80.5</ele><time>2026-04-11T09:47:54.157Z</time></trkpt><trkpt lat="40.6167934" lon="9.6150272"><ele>78.25</ele><time>2026-04-11T09:47:55.276Z</time></trkpt><trkpt lat="40.6167011" lon="9.6150473"><ele>76.0</ele><time>2026-04-11T09:47:56.187Z</time></trkpt><trkpt lat="40.6163665" lon="9.615051"><ele>76.0</ele><time>2026-04-11T09:47:59.295Z</time></trkpt><trkpt lat="40.6162603" lon="9.6150337"><ele>76.0</ele><time>2026-04-11T09:48:00.218Z</time></trkpt><trkpt lat="40.6161617" lon="9.6150187"><ele>76.0</ele><time>2026-04-11T09:48:01.223Z</time></trkpt><trkpt lat="40.6159929" lon="9.615025"><ele>76.0</ele><time>2026-04-11T09:48:03.217Z</time></trkpt><trkpt lat="40.6159157" lon="9.6150322"><ele>80.0</ele><time>2026-04-11T09:48:04.203Z</time></trkpt><trkpt lat="40.6157644" lon="9.6150237"><ele>84.0</ele><time>2026-04-11T09:48:06.164Z</time></trkpt><trkpt lat="40.6155322" lon="9.6148924"><ele>88.0</ele><time>2026-04-11T09:48:09.151Z</time></trkpt><trkpt lat="40.6154384" lon="9.6148285"><ele>93.0</ele><time>2026-04-11T09:48:10.189Z</time></trkpt><trkpt lat="40.6151557" lon="9.6147042"><ele>98.0</ele><time>2026-04-11T09:48:13.171Z</time></trkpt><trkpt lat="40.6150606" lon="9.6146798"><ele>103.0</ele><time>2026-04-11T09:48:14.191Z</time></trkpt><trkpt lat="40.6149629" lon="9.6146484"><ele>103.0</ele><time>2026-04-11T09:48:15.204Z</time></trkpt><trkpt lat="40.6146725" lon="9.6145368"><ele>103.0</ele><time>2026-04-11T09:48:18.174Z</time></trkpt><trkpt lat="40.6143274" lon="9.6143514"><ele>104.0</ele><time>2026-04-11T09:48:22.199Z</time></trkpt><trkpt lat="40.6142629" lon="9.6143404"><ele>105.0</ele><time>2026-04-11T09:48:23.207Z</time></trkpt><trkpt lat="40.6141744" lon="9.6143975"><ele>106.0</ele><time>2026-04-11T09:48:25.157Z</time></trkpt><trkpt lat="40.6141133" lon="9.6145647"><ele>107.0</ele><time>2026-04-11T09:48:27.227Z</time></trkpt><trkpt lat="40.6139803" lon="9.6150021"><ele>107.0</ele><time>2026-04-11T09:48:31.225Z</time></trkpt><trkpt lat="40.613941" lon="9.6150885"><ele>107.0</ele><time>2026-04-11T09:48:32.157Z</time></trkpt><trkpt lat="40.6137398" lon="9.6152144"><ele>107.0</ele><time>2026-04-11T09:48:35.167Z</time></trkpt><trkpt lat="40.6136521" lon="9.6152392"><ele>107.0</ele><time>2026-04-11T09:48:36.162Z</time></trkpt><trkpt lat="40.6134026" lon="9.6152338"><ele>103.6</ele><time>2026-04-11T09:48:39.2Z</time></trkpt><trkpt lat="40.6133397" lon="9.615201"><ele>100.19999999999999</ele><time>2026-04-11T09:48:40.146Z</time></trkpt><trkpt lat="40.6132062" lon="9.6151253"><ele>96.8</ele><time>2026-04-11T09:48:42.166Z</time></trkpt><trkpt lat="40.613127" lon="9.6150876"><ele>93.4</ele><time>2026-04-11T09:48:43.193Z</time></trkpt><trkpt lat="40.6130455" lon="9.6150612"><ele>90.0</ele><time>2026-04-11T09:48:44.146Z</time></trkpt><trkpt lat="40.6128018" lon="9.615039"><ele>89.66666666666667</ele><time>2026-04-11T09:48:47.181Z</time></trkpt><trkpt lat="40.6125646" lon="9.6151865"><ele>89.33333333333334</ele><time>2026-04-11T09:48:52.162Z</time></trkpt><trkpt lat="40.6125014" lon="9.6153011"><ele>89.0</ele><time>2026-04-11T09:48:54.165Z</time></trkpt><trkpt lat="40.6124391" lon="9.6154879"><ele>92.66666666666667</ele><time>2026-04-11T09:48:56.241Z</time></trkpt><trkpt lat="40.6124057" lon="9.6155861"><ele>96.33333333333334</ele><time>2026-04-11T09:48:57.23Z</time></trkpt><trkpt lat="40.6123491" lon="9.6158391"><ele>100.0</ele><time>2026-04-11T09:48:59.276Z</time></trkpt><trkpt lat="40.6122279" lon="9.6165044"><ele>100.25</ele><time>2026-04-11T09:49:04.318Z</time></trkpt><trkpt lat="40.6122124" lon="9.6167229"><ele>100.5</ele><time>2026-04-11T09:49:06.207Z</time></trkpt><trkpt lat="40.6122015" lon="9.6168288"><ele>100.75</ele><time>2026-04-11T09:49:07.18Z</time></trkpt><trkpt lat="40.612142" lon="9.6169496"><ele>101.0</ele><time>2026-04-11T09:49:09.174Z</time></trkpt><trkpt lat="40.6119733" lon="9.6168656"><ele>101.0</ele><time>2026-04-11T09:49:13.222Z</time></trkpt><trkpt lat="40.6118512" lon="9.6167075"><ele>101.0</ele><time>2026-04-11T09:49:16.139Z</time></trkpt><trkpt lat="40.6118036" lon="9.6166529"><ele>101.0</ele><time>2026-04-11T09:49:17.153Z</time></trkpt><trkpt lat="40.6117019" lon="9.6165601"><ele>101.0</ele><time>2026-04-11T09:49:19.198Z</time></trkpt><trkpt lat="40.611643" lon="9.616521"><ele>101.0</ele><time>2026-04-11T09:49:20.249Z</time></trkpt><trkpt lat="40.6114582" lon="9.6164851"><ele>102.33333333333333</ele><time>2026-04-11T09:49:23.277Z</time></trkpt><trkpt lat="40.6111562" lon="9.6165767"><ele>103.66666666666666</ele><time>2026-04-11T09:49:27.308Z</time></trkpt><trkpt lat="40.6110774" lon="9.6166052"><ele>105.0</ele><time>2026-04-11T09:49:28.214Z</time></trkpt><trkpt lat="40.6107823" lon="9.6167026"><ele>108.33333333333334</ele><time>2026-04-11T09:49:33.239Z</time></trkpt><trkpt lat="40.6107583" lon="9.6170712"><ele>111.66666666666667</ele><time>2026-04-11T09:49:38.237Z</time></trkpt><trkpt lat="40.6107917" lon="9.6171673"><ele>115.0</ele><time>2026-04-11T09:49:39.269Z</time></trkpt><trkpt lat="40.6109291" lon="9.6174938"><ele>120.0</ele><time>2026-04-11T09:49:42.224Z</time></trkpt><trkpt lat="40.6110975" lon="9.6178705"><ele>125.0</ele><time>2026-04-11T09:49:46.217Z</time></trkpt><trkpt lat="40.6110707" lon="9.6181085"><ele>125.0</ele><time>2026-04-11T09:49:49.242Z</time></trkpt><trkpt lat="40.6110426" lon="9.6181939"><ele>125.0</ele><time>2026-04-11T09:49:50.253Z</time></trkpt><trkpt lat="40.6108563" lon="9.6184394"><ele>125.0</ele><time>2026-04-11T09:49:53.219Z</time></trkpt><trkpt lat="40.6106186" lon="9.6185845"><ele>132.0</ele><time>2026-04-11T09:49:55.355Z</time></trkpt><trkpt lat="40.6102891" lon="9.6188442"><ele>139.0</ele><time>2026-04-11T09:49:59.203Z</time></trkpt><trkpt lat="40.6100169" lon="9.6188342"><ele>139.0</ele><time>2026-04-11T09:50:03.259Z</time></trkpt><trkpt lat="40.6098205" lon="9.6186614"><ele>139.0</ele><time>2026-04-11T09:50:06.209Z</time></trkpt><trkpt lat="40.6095079" lon="9.6186573"><ele>138.0</ele><time>2026-04-11T09:50:10.229Z</time></trkpt><trkpt lat="40.6094376" lon="9.6186776"><ele>137.0</ele><time>2026-04-11T09:50:11.225Z</time></trkpt><trkpt lat="40.6092893" lon="9.6187428"><ele>136.0</ele><time>2026-04-11T09:50:14.188Z</time></trkpt><trkpt lat="40.6090472" lon="9.6189044"><ele>136.0</ele><time>2026-04-11T09:50:19.173Z</time></trkpt><trkpt lat="40.6088737" lon="9.6193554"><ele>136.0</ele><time>2026-04-11T09:50:23.179Z</time></trkpt><trkpt lat="40.6088217" lon="9.6195202"><ele>144.0</ele><time>2026-04-11T09:50:24.252Z</time></trkpt><trkpt lat="40.6087824" lon="9.6196662"><ele>152.0</ele><time>2026-04-11T09:50:25.205Z</time></trkpt><trkpt lat="40.6086777" lon="9.6200815"><ele>153.25</ele><time>2026-04-11T09:50:28.201Z</time></trkpt><trkpt lat="40.6086517" lon="9.620214"><ele>154.5</ele><time>2026-04-11T09:50:29.166Z</time></trkpt><trkpt lat="40.6086219" lon="9.6205246"><ele>155.75</ele><time>2026-04-11T09:50:32.183Z</time></trkpt><trkpt lat="40.6086407" lon="9.6206229"><ele>157.0</ele><time>2026-04-11T09:50:33.189Z</time></trkpt><trkpt lat="40.6086597" lon="9.6208894"><ele>144.5</ele><time>2026-04-11T09:50:36.336Z</time></trkpt><trkpt lat="40.6084948" lon="9.6211194"><ele>132.0</ele><time>2026-04-11T09:50:40.212Z</time></trkpt><trkpt lat="40.6084978" lon="9.6214431"><ele>141.0</ele><time>2026-04-11T09:50:43.225Z</time></trkpt><trkpt lat="40.6085224" lon="9.622045"><ele>141.0</ele><time>2026-04-11T09:50:47.133Z</time></trkpt><trkpt lat="40.6085128" lon="9.6226865"><ele>141.0</ele><time>2026-04-11T09:50:52.95Z</time></trkpt><trkpt lat="40.6084859" lon="9.622772"><ele>141.0</ele><time>2026-04-11T09:50:53.887Z</time></trkpt><trkpt lat="40.6084153" lon="9.6231338"><ele>141.0</ele><time>2026-04-11T09:50:57.993Z</time></trkpt><trkpt lat="40.6085051" lon="9.6232649"><ele>143.66666666666666</ele><time>2026-04-11T09:50:59.889Z</time></trkpt><trkpt lat="40.608529" lon="9.6234903"><ele>146.33333333333331</ele><time>2026-04-11T09:51:02.885Z</time></trkpt><trkpt lat="40.6085037" lon="9.6235748"><ele>149.0</ele><time>2026-04-11T09:51:03.911Z</time></trkpt><trkpt lat="40.6085285" lon="9.6241401"><ele>152.0</ele><time>2026-04-11T09:51:08.889Z</time></trkpt><trkpt lat="40.6083409" lon="9.6244584"><ele>155.0</ele><time>2026-04-11T09:51:13.897Z</time></trkpt><trkpt lat="40.6080235" lon="9.6244579"><ele>155.0</ele><time>2026-04-11T09:51:18.875Z</time></trkpt><trkpt lat="40.6079116" lon="9.6238856"><ele>155.0</ele><time>2026-04-11T09:51:23.876Z</time></trkpt><trkpt lat="40.6076946" lon="9.6235215"><ele>153.5</ele><time>2026-04-11T09:51:28.883Z</time></trkpt><trkpt lat="40.6076298" lon="9.6235082"><ele>152.0</ele><time>2026-04-11T09:51:29.863Z</time></trkpt><trkpt lat="40.6074063" lon="9.6233457"><ele>150.5</ele><time>2026-04-11T09:51:33.847Z</time></trkpt><trkpt lat="40.6073732" lon="9.6232585"><ele>149.0</ele><time>2026-04-11T09:51:34.856Z</time></trkpt><trkpt lat="40.6072922" lon="9.6230303"><ele>143.66666666666666</ele><time>2026-04-11T09:51:37.848Z</time></trkpt><trkpt lat="40.6071188" lon="9.6227989"><ele>138.33333333333334</ele><time>2026-04-11T09:51:42.947Z</time></trkpt><trkpt lat="40.6070278" lon="9.6227583"><ele>133.0</ele><time>2026-04-11T09:51:47.939Z</time></trkpt><trkpt lat="40.6072335" lon="9.6226768"><ele>133.0</ele><time>2026-04-11T09:52:39.881Z</time></trkpt><trkpt lat="40.6075112" lon="9.622828"><ele>133.0</ele><time>2026-04-11T09:52:44.884Z</time></trkpt><trkpt lat="40.6076566" lon="9.6228224"><ele>133.0</ele><time>2026-04-11T09:52:48.875Z</time></trkpt><trkpt lat="40.6077117" lon="9.6225821"><ele>133.0</ele><time>2026-04-11T09:52:52.879Z</time></trkpt><trkpt lat="40.607711" lon="9.6223608"><ele>133.0</ele><time>2026-04-11T09:52:55.871Z</time></trkpt><trkpt lat="40.6076359" lon="9.6221773"><ele>133.0</ele><time>2026-04-11T09:52:58.892Z</time></trkpt><trkpt lat="40.6073728" lon="9.6219698"><ele>133.5</ele><time>2026-04-11T09:53:02.866Z</time></trkpt><trkpt lat="40.6073076" lon="9.6219264"><ele>134.0</ele><time>2026-04-11T09:53:03.869Z</time></trkpt><trkpt lat="40.6071506" lon="9.6218634"><ele>134.5</ele><time>2026-04-11T09:53:07.865Z</time></trkpt><trkpt lat="40.6070066" lon="9.6218127"><ele>135.0</ele><time>2026-04-11T09:53:25.86Z</time></trkpt><trkpt lat="40.6067495" lon="9.6218076"><ele>137.66666666666666</ele><time>2026-04-11T09:53:30.839Z</time></trkpt><trkpt lat="40.6065204" lon="9.6218279"><ele>140.33333333333331</ele><time>2026-04-11T09:53:34.944Z</time></trkpt><trkpt lat="40.6064093" lon="9.621703"><ele>143.0</ele><time>2026-04-11T09:53:38.955Z</time></trkpt><trkpt lat="40.6063539" lon="9.6215032"><ele>143.0</ele><time>2026-04-11T09:53:41.96Z</time></trkpt><trkpt lat="40.6063712" lon="9.6212786"><ele>143.0</ele><time>2026-04-11T09:53:45.943Z</time></trkpt><trkpt lat="40.6066218" lon="9.6212745"><ele>143.0</ele><time>2026-04-11T09:53:50.925Z</time></trkpt><trkpt lat="40.6066974" lon="9.6212785"><ele>143.0</ele><time>2026-04-11T09:53:51.931Z</time></trkpt><trkpt lat="40.6067773" lon="9.6212855"><ele>143.0</ele><time>2026-04-11T09:53:52.928Z</time></trkpt><trkpt lat="40.6068525" lon="9.6212919"><ele>143.0</ele><time>2026-04-11T09:53:53.93Z</time></trkpt><trkpt lat="40.6070866" lon="9.6213328"><ele>143.0</ele><time>2026-04-11T09:53:57.951Z</time></trkpt><trkpt lat="40.6071192" lon="9.6210766"><ele>148.0</ele><time>2026-04-11T09:54:02.944Z</time></trkpt><trkpt lat="40.6068954" lon="9.6206829"><ele>153.0</ele><time>2026-04-11T09:54:07.92Z</time></trkpt><trkpt lat="40.6066298" lon="9.6203865"><ele>155.66666666666666</ele><time>2026-04-11T09:54:12.933Z</time></trkpt><trkpt lat="40.6065931" lon="9.6203085"><ele>158.33333333333331</ele><time>2026-04-11T09:54:13.934Z</time></trkpt><trkpt lat="40.606466" lon="9.619983"><ele>161.0</ele><time>2026-04-11T09:54:17.925Z</time></trkpt><trkpt lat="40.6063261" lon="9.6195535"><ele>161.0</ele><time>2026-04-11T09:54:22.921Z</time></trkpt><trkpt lat="40.6062772" lon="9.619499"><ele>161.0</ele><time>2026-04-11T09:54:23.93Z</time></trkpt><trkpt lat="40.6060057" lon="9.6193283"><ele>161.0</ele><time>2026-04-11T09:54:27.933Z</time></trkpt><trkpt lat="40.6059387" lon="9.6192672"><ele>161.0</ele><time>2026-04-11T09:54:28.929Z</time></trkpt><trkpt lat="40.6059441" lon="9.6190618"><ele>161.5</ele><time>2026-04-11T09:54:32.927Z</time></trkpt><trkpt lat="40.6063259" lon="9.6189392"><ele>162.0</ele><time>2026-04-11T09:54:37.918Z</time></trkpt><trkpt lat="40.606397" lon="9.6189184"><ele>162.0</ele><time>2026-04-11T09:54:38.943Z</time></trkpt><trkpt lat="40.6064602" lon="9.6188967"><ele>162.0</ele><time>2026-04-11T09:54:39.945Z</time></trkpt><trkpt lat="40.6065624" lon="9.6187263"><ele>162.0</ele><time>2026-04-11T09:54:43.933Z</time></trkpt><trkpt lat="40.6065461" lon="9.6186392"><ele>162.0</ele><time>2026-04-11T09:54:44.921Z</time></trkpt><trkpt lat="40.606409" lon="9.6182092"><ele>169.5</ele><time>2026-04-11T09:54:48.912Z</time></trkpt><trkpt lat="40.6062093" lon="9.6177583"><ele>177.0</ele><time>2026-04-11T09:54:53.926Z</time></trkpt><trkpt lat="40.606103" lon="9.6172904"><ele>169.5</ele><time>2026-04-11T09:54:58.931Z</time></trkpt><trkpt lat="40.6058916" lon="9.6168188"><ele>162.0</ele><time>2026-04-11T09:55:03.921Z</time></trkpt><trkpt lat="40.6055888" lon="9.6164524"><ele>162.0</ele><time>2026-04-11T09:55:08.916Z</time></trkpt><trkpt lat="40.6055425" lon="9.6163568"><ele>162.0</ele><time>2026-04-11T09:55:09.902Z</time></trkpt><trkpt lat="40.6053906" lon="9.6158956"><ele>162.0</ele><time>2026-04-11T09:55:14.901Z</time></trkpt><trkpt lat="40.6053054" lon="9.615704"><ele>162.0</ele><time>2026-04-11T09:55:19.899Z</time></trkpt><trkpt lat="40.6053151" lon="9.6158679"><ele>162.0</ele><time>2026-04-11T09:55:23.889Z</time></trkpt><trkpt lat="40.6053504" lon="9.6161828"><ele>162.0</ele><time>2026-04-11T09:55:28.89Z</time></trkpt><trkpt lat="40.605378" lon="9.6166062"><ele>162.0</ele><time>2026-04-11T09:55:33.884Z</time></trkpt><trkpt lat="40.6053857" lon="9.616698"><ele>162.0</ele><time>2026-04-11T09:55:34.896Z</time></trkpt><trkpt lat="40.6055225" lon="9.6171218"><ele>165.75</ele><time>2026-04-11T09:55:39.9Z</time></trkpt><trkpt lat="40.6055457" lon="9.6172015"><ele>169.5</ele><time>2026-04-11T09:55:40.896Z</time></trkpt><trkpt lat="40.6055845" lon="9.6175372"><ele>173.25</ele><time>2026-04-11T09:55:44.889Z</time></trkpt><trkpt lat="40.6055888" lon="9.6176322"><ele>177.0</ele><time>2026-04-11T09:55:45.904Z</time></trkpt><trkpt lat="40.6055876" lon="9.6180113"><ele>178.33333333333334</ele><time>2026-04-11T09:55:49.899Z</time></trkpt><trkpt lat="40.6055923" lon="9.6182728"><ele>179.66666666666669</ele><time>2026-04-11T09:55:54.9Z</time></trkpt><trkpt lat="40.6054493" lon="9.6181321"><ele>181.0</ele><time>2026-04-11T09:55:59.898Z</time></trkpt><trkpt lat="40.6052484" lon="9.6177802"><ele>191.0</ele><time>2026-04-11T09:56:04.88Z</time></trkpt><trkpt lat="40.6050066" lon="9.6175304"><ele>201.0</ele><time>2026-04-11T09:56:09.88Z</time></trkpt><trkpt lat="40.6047378" lon="9.6172049"><ele>201.0</ele><time>2026-04-11T09:56:14.867Z</time></trkpt><trkpt lat="40.6046926" lon="9.6171289"><ele>201.0</ele><time>2026-04-11T09:56:15.873Z</time></trkpt><trkpt lat="40.6044934" lon="9.6168252"><ele>201.0</ele><time>2026-04-11T09:56:19.867Z</time></trkpt><trkpt lat="40.6044428" lon="9.6167653"><ele>201.0</ele><time>2026-04-11T09:56:20.88Z</time></trkpt><trkpt lat="40.6041944" lon="9.6166486"><ele>208.0</ele><time>2026-04-11T09:56:24.862Z</time></trkpt><trkpt lat="40.6038286" lon="9.6167701"><ele>215.0</ele><time>2026-04-11T09:56:29.871Z</time></trkpt><trkpt lat="40.603709" lon="9.6172232"><ele>228.5</ele><time>2026-04-11T09:56:34.867Z</time></trkpt><trkpt lat="40.6035669" lon="9.617686"><ele>242.0</ele><time>2026-04-11T09:56:39.863Z</time></trkpt><trkpt lat="40.6033718" lon="9.61798"><ele>242.0</ele><time>2026-04-11T09:56:43.863Z</time></trkpt><trkpt lat="40.6033237" lon="9.618048"><ele>242.0</ele><time>2026-04-11T09:56:44.866Z</time></trkpt><trkpt lat="40.6033587" lon="9.6183827"><ele>242.0</ele><time>2026-04-11T09:56:48.852Z</time></trkpt><trkpt lat="40.60341" lon="9.6184612"><ele>242.0</ele><time>2026-04-11T09:56:49.86Z</time></trkpt><trkpt lat="40.6035918" lon="9.6188521"><ele>243.0</ele><time>2026-04-11T09:56:54.858Z</time></trkpt><trkpt lat="40.6036371" lon="9.6193536"><ele>244.0</ele><time>2026-04-11T09:57:00.848Z</time></trkpt><trkpt lat="40.6035284" lon="9.6196611"><ele>244.0</ele><time>2026-04-11T09:57:04.942Z</time></trkpt><trkpt lat="40.6034285" lon="9.6197126"><ele>244.0</ele><time>2026-04-11T09:57:08.936Z</time></trkpt><trkpt lat="40.6034384" lon="9.6194115"><ele>244.0</ele><time>2026-04-11T09:57:13.935Z</time></trkpt><trkpt lat="40.6034256" lon="9.6193299"><ele>244.0</ele><time>2026-04-11T09:57:14.939Z</time></trkpt><trkpt lat="40.603257" lon="9.6190478"><ele>246.0</ele><time>2026-04-11T09:57:18.947Z</time></trkpt><trkpt lat="40.603207" lon="9.6189915"><ele>248.0</ele><time>2026-04-11T09:57:19.937Z</time></trkpt><trkpt lat="40.6030417" lon="9.6190265"><ele>250.0</ele><time>2026-04-11T09:57:23.942Z</time></trkpt><trkpt lat="40.603027" lon="9.6193272"><ele>250.0</ele><time>2026-04-11T09:57:27.932Z</time></trkpt><trkpt lat="40.6030119" lon="9.6194327"><ele>250.0</ele><time>2026-04-11T09:57:28.938Z</time></trkpt><trkpt lat="40.6028595" lon="9.6198791"><ele>253.0</ele><time>2026-04-11T09:57:33.937Z</time></trkpt><trkpt lat="40.6025785" lon="9.6202352"><ele>256.0</ele><time>2026-04-11T09:57:38.938Z</time></trkpt><trkpt lat="40.6023047" lon="9.6204846"><ele>256.0</ele><time>2026-04-11T09:57:43.922Z</time></trkpt><trkpt lat="40.6022469" lon="9.6203974"><ele>256.0</ele><time>2026-04-11T09:57:48.914Z</time></trkpt><trkpt lat="40.6022962" lon="9.6202636"><ele>256.0</ele><time>2026-04-11T09:57:50.938Z</time></trkpt><trkpt lat="40.6023375" lon="9.620171"><ele>256.0</ele><time>2026-04-11T09:57:51.926Z</time></trkpt><trkpt lat="40.602424" lon="9.6198149"><ele>269.0</ele><time>2026-04-11T09:57:55.946Z</time></trkpt><trkpt lat="40.6024209" lon="9.6197122"><ele>282.0</ele><time>2026-04-11T09:57:56.919Z</time></trkpt><trkpt lat="40.6023303" lon="9.6192093"><ele>282.6666666666667</ele><time>2026-04-11T09:58:01.911Z</time></trkpt><trkpt lat="40.6021868" lon="9.6188308"><ele>283.33333333333337</ele><time>2026-04-11T09:58:05.901Z</time></trkpt><trkpt lat="40.6021479" lon="9.6187423"><ele>284.0</ele><time>2026-04-11T09:58:06.897Z</time></trkpt><trkpt lat="40.6020692" lon="9.6185722"><ele>294.6666666666667</ele><time>2026-04-11T09:58:08.9Z</time></trkpt><trkpt lat="40.6019814" lon="9.6184067"><ele>305.3333333333333</ele><time>2026-04-11T09:58:10.908Z</time></trkpt><trkpt lat="40.6018809" lon="9.6181372"><ele>316.0</ele><time>2026-04-11T09:58:13.904Z</time></trkpt><trkpt lat="40.6018614" lon="9.6180386"><ele>316.0</ele><time>2026-04-11T09:58:14.905Z</time></trkpt><trkpt lat="40.6018415" lon="9.6179385"><ele>316.0</ele><time>2026-04-11T09:58:15.902Z</time></trkpt><trkpt lat="40.6018234" lon="9.6175668"><ele>316.0</ele><time>2026-04-11T09:58:18.9Z</time></trkpt><trkpt lat="40.6018199" lon="9.6173208"><ele>314.0</ele><time>2026-04-11T09:58:20.926Z</time></trkpt><trkpt lat="40.6017565" lon="9.6170119"><ele>312.0</ele><time>2026-04-11T09:58:25.909Z</time></trkpt><trkpt lat="40.6014745" lon="9.6171544"><ele>312.0</ele><time>2026-04-11T09:58:30.901Z</time></trkpt><trkpt lat="40.6012439" lon="9.6172003"><ele>312.0</ele><time>2026-04-11T09:58:34.9Z</time></trkpt><trkpt lat="40.601049" lon="9.6170159"><ele>318.75</ele><time>2026-04-11T09:58:39.887Z</time></trkpt><trkpt lat="40.601034" lon="9.6171018"><ele>325.5</ele><time>2026-04-11T09:58:41.908Z</time></trkpt><trkpt lat="40.6010613" lon="9.6172524"><ele>332.25</ele><time>2026-04-11T09:58:43.883Z</time></trkpt><trkpt lat="40.6011172" lon="9.6175729"><ele>339.0</ele><time>2026-04-11T09:58:46.886Z</time></trkpt><trkpt lat="40.6011547" lon="9.6176749"><ele>341.0</ele><time>2026-04-11T09:58:47.885Z</time></trkpt><trkpt lat="40.6012088" lon="9.6178644"><ele>343.0</ele><time>2026-04-11T09:58:49.884Z</time></trkpt><trkpt lat="40.6012343" lon="9.618082"><ele>345.0</ele><time>2026-04-11T09:58:51.883Z</time></trkpt><trkpt lat="40.6012316" lon="9.6181787"><ele>347.0</ele><time>2026-04-11T09:58:52.881Z</time></trkpt><trkpt lat="40.6011357" lon="9.6185451"><ele>341.0</ele><time>2026-04-11T09:58:56.875Z</time></trkpt><trkpt lat="40.6009072" lon="9.6188832"><ele>335.0</ele><time>2026-04-11T09:59:01.89Z</time></trkpt><trkpt lat="40.6005815" lon="9.6189862"><ele>349.5</ele><time>2026-04-11T09:59:06.875Z</time></trkpt><trkpt lat="40.6002103" lon="9.6192675"><ele>364.0</ele><time>2026-04-11T09:59:11.876Z</time></trkpt><trkpt lat="40.6001447" lon="9.6193436"><ele>354.0</ele><time>2026-04-11T09:59:12.875Z</time></trkpt><trkpt lat="40.5998816" lon="9.6197798"><ele>344.0</ele><time>2026-04-11T09:59:17.871Z</time></trkpt><trkpt lat="40.5998414" lon="9.6198742"><ele>344.0</ele><time>2026-04-11T09:59:18.868Z</time></trkpt><trkpt lat="40.599681" lon="9.6201859"><ele>344.0</ele><time>2026-04-11T09:59:21.866Z</time></trkpt><trkpt lat="40.599617" lon="9.6203018"><ele>344.0</ele><time>2026-04-11T09:59:22.862Z</time></trkpt><trkpt lat="40.5995605" lon="9.6204257"><ele>356.0</ele><time>2026-04-11T09:59:23.866Z</time></trkpt><trkpt lat="40.5994246" lon="9.620955"><ele>368.0</ele><time>2026-04-11T09:59:27.87Z</time></trkpt><trkpt lat="40.5993994" lon="9.6210633"><ele>360.0</ele><time>2026-04-11T09:59:28.872Z</time></trkpt><trkpt lat="40.5992699" lon="9.6216027"><ele>352.0</ele><time>2026-04-11T09:59:33.864Z</time></trkpt><trkpt lat="40.5990062" lon="9.6217381"><ele>347.0</ele><time>2026-04-11T09:59:38.856Z</time></trkpt><trkpt lat="40.5986276" lon="9.6212949"><ele>347.0</ele><time>2026-04-11T09:59:43.863Z</time></trkpt><trkpt lat="40.5982054" lon="9.6212007"><ele>347.0</ele><time>2026-04-11T09:59:48.867Z</time></trkpt><trkpt lat="40.5981082" lon="9.6212087"><ele>348.0</ele><time>2026-04-11T09:59:49.862Z</time></trkpt><trkpt lat="40.5977482" lon="9.6213637"><ele>349.0</ele><time>2026-04-11T09:59:53.861Z</time></trkpt><trkpt lat="40.597449" lon="9.621713"><ele>349.0</ele><time>2026-04-11T09:59:58.857Z</time></trkpt><trkpt lat="40.5971365" lon="9.6217641"><ele>349.0</ele><time>2026-04-11T10:00:03.854Z</time></trkpt><trkpt lat="40.5970704" lon="9.6217522"><ele>349.0</ele><time>2026-04-11T10:00:04.861Z</time></trkpt><trkpt lat="40.5968651" lon="9.6215904"><ele>346.75</ele><time>2026-04-11T10:00:08.865Z</time></trkpt><trkpt lat="40.596811" lon="9.6215131"><ele>344.5</ele><time>2026-04-11T10:00:09.841Z</time></trkpt><trkpt lat="40.5965399" lon="9.6213536"><ele>342.25</ele><time>2026-04-11T10:00:13.941Z</time></trkpt><trkpt lat="40.5964747" lon="9.6213619"><ele>340.0</ele><time>2026-04-11T10:00:14.945Z</time></trkpt><trkpt lat="40.5962358" lon="9.6212337"><ele>335.3333333333333</ele><time>2026-04-11T10:00:18.936Z</time></trkpt><trkpt lat="40.5959305" lon="9.6213676"><ele>330.6666666666667</ele><time>2026-04-11T10:00:23.944Z</time></trkpt><trkpt lat="40.5958657" lon="9.6213651"><ele>326.0</ele><time>2026-04-11T10:00:24.926Z</time></trkpt><trkpt lat="40.5955947" lon="9.6212681"><ele>326.0</ele><time>2026-04-11T10:00:28.926Z</time></trkpt><trkpt lat="40.5955177" lon="9.6212429"><ele>326.0</ele><time>2026-04-11T10:00:29.943Z</time></trkpt><trkpt lat="40.5952368" lon="9.6211058"><ele>326.0</ele><time>2026-04-11T10:00:33.932Z</time></trkpt><trkpt lat="40.5949346" lon="9.6208851"><ele>330.5</ele><time>2026-04-11T10:00:38.919Z</time></trkpt><trkpt lat="40.5946068" lon="9.6208682"><ele>335.0</ele><time>2026-04-11T10:00:43.931Z</time></trkpt><trkpt lat="40.5942194" lon="9.6208412"><ele>335.0</ele><time>2026-04-11T10:00:48.907Z</time></trkpt><trkpt lat="40.5938937" lon="9.6208"><ele>335.0</ele><time>2026-04-11T10:00:53.899Z</time></trkpt><trkpt lat="40.593845" lon="9.6213323"><ele>331.5</ele><time>2026-04-11T10:00:59.909Z</time></trkpt><trkpt lat="40.593889" lon="9.6214634"><ele>328.0</ele><time>2026-04-11T10:01:00.897Z</time></trkpt><trkpt lat="40.5941238" lon="9.6219542"><ele>334.5</ele><time>2026-04-11T10:01:04.901Z</time></trkpt><trkpt lat="40.5941865" lon="9.6220632"><ele>341.0</ele><time>2026-04-11T10:01:05.907Z</time></trkpt><trkpt lat="40.5943039" lon="9.6225297"><ele>341.0</ele><time>2026-04-11T10:01:09.897Z</time></trkpt><trkpt lat="40.5943257" lon="9.6226707"><ele>341.0</ele><time>2026-04-11T10:01:10.892Z</time></trkpt><trkpt lat="40.5944085" lon="9.6233649"><ele>343.0</ele><time>2026-04-11T10:01:15.899Z</time></trkpt><trkpt lat="40.5944028" lon="9.6234958"><ele>345.0</ele><time>2026-04-11T10:01:16.887Z</time></trkpt><trkpt lat="40.5942436" lon="9.6241"><ele>329.0</ele><time>2026-04-11T10:01:21.873Z</time></trkpt><trkpt lat="40.5939501" lon="9.6245766"><ele>341.5</ele><time>2026-04-11T10:01:26.881Z</time></trkpt><trkpt lat="40.5936147" lon="9.6248023"><ele>354.0</ele><time>2026-04-11T10:01:31.878Z</time></trkpt><trkpt lat="40.5935712" lon="9.6246858"><ele>351.0</ele><time>2026-04-11T10:01:35.877Z</time></trkpt><trkpt lat="40.5937595" lon="9.6243493"><ele>348.0</ele><time>2026-04-11T10:01:39.875Z</time></trkpt><trkpt lat="40.5937987" lon="9.6242372"><ele>345.0</ele><time>2026-04-11T10:01:40.869Z</time></trkpt><trkpt lat="40.5938703" lon="9.6237164"><ele>345.2</ele><time>2026-04-11T10:01:44.865Z</time></trkpt><trkpt lat="40.5938784" lon="9.6235987"><ele>345.4</ele><time>2026-04-11T10:01:45.864Z</time></trkpt><trkpt lat="40.5938758" lon="9.6233702"><ele>345.6</ele><time>2026-04-11T10:01:47.868Z</time></trkpt><trkpt lat="40.5938576" lon="9.6232562"><ele>345.8</ele><time>2026-04-11T10:01:48.857Z</time></trkpt><trkpt lat="40.5938261" lon="9.6231471"><ele>346.0</ele><time>2026-04-11T10:01:49.856Z</time></trkpt><trkpt lat="40.5936072" lon="9.6227453"><ele>358.0</ele><time>2026-04-11T10:01:53.862Z</time></trkpt><trkpt lat="40.5935398" lon="9.6226434"><ele>370.0</ele><time>2026-04-11T10:01:54.855Z</time></trkpt><trkpt lat="40.5933319" lon="9.6222957"><ele>382.0</ele><time>2026-04-11T10:01:58.862Z</time></trkpt><trkpt lat="40.5932517" lon="9.6224364"><ele>382.0</ele><time>2026-04-11T10:02:03.841Z</time></trkpt><trkpt lat="40.5932798" lon="9.6225416"><ele>382.0</ele><time>2026-04-11T10:02:04.854Z</time></trkpt><trkpt lat="40.5933841" lon="9.6232124"><ele>383.3333333333333</ele><time>2026-04-11T10:02:09.874Z</time></trkpt><trkpt lat="40.5933716" lon="9.6233277"><ele>384.66666666666663</ele><time>2026-04-11T10:02:10.844Z</time></trkpt><trkpt lat="40.5932175" lon="9.6237469"><ele>386.0</ele><time>2026-04-11T10:02:14.857Z</time></trkpt><trkpt lat="40.5931621" lon="9.6238395"><ele>383.0</ele><time>2026-04-11T10:02:15.848Z</time></trkpt><trkpt lat="40.5929329" lon="9.6240797"><ele>380.0</ele><time>2026-04-11T10:02:19.933Z</time></trkpt><trkpt lat="40.5928099" lon="9.6240743"><ele>377.0</ele><time>2026-04-11T10:02:22.955Z</time></trkpt><trkpt lat="40.5927147" lon="9.6240086"><ele>387.5</ele><time>2026-04-11T10:02:24.935Z</time></trkpt><trkpt lat="40.5923204" lon="9.6239132"><ele>398.0</ele><time>2026-04-11T10:02:29.927Z</time></trkpt><trkpt lat="40.5922302" lon="9.6239094"><ele>402.5</ele><time>2026-04-11T10:02:30.926Z</time></trkpt><trkpt lat="40.5918541" lon="9.6240201"><ele>407.0</ele><time>2026-04-11T10:02:34.915Z</time></trkpt><trkpt lat="40.5916728" lon="9.6240547"><ele>407.0</ele><time>2026-04-11T10:02:36.917Z</time></trkpt><trkpt lat="40.5915832" lon="9.6240673"><ele>407.0</ele><time>2026-04-11T10:02:37.917Z</time></trkpt><trkpt lat="40.5912248" lon="9.6241236"><ele>408.25</ele><time>2026-04-11T10:02:41.928Z</time></trkpt><trkpt lat="40.5911607" lon="9.6241594"><ele>409.5</ele><time>2026-04-11T10:02:42.915Z</time></trkpt><trkpt lat="40.5909926" lon="9.6244655"><ele>410.75</ele><time>2026-04-11T10:02:46.917Z</time></trkpt><trkpt lat="40.590936" lon="9.6245268"><ele>412.0</ele><time>2026-04-11T10:02:47.915Z</time></trkpt><trkpt lat="40.5907959" lon="9.6246069"><ele>412.0</ele><time>2026-04-11T10:02:50.939Z</time></trkpt><trkpt lat="40.5905877" lon="9.6245255"><ele>412.0</ele><time>2026-04-11T10:02:55.905Z</time></trkpt><trkpt lat="40.5905196" lon="9.6245009"><ele>412.0</ele><time>2026-04-11T10:02:56.889Z</time></trkpt><trkpt lat="40.5902411" lon="9.6245117"><ele>420.0</ele><time>2026-04-11T10:03:00.903Z</time></trkpt><trkpt lat="40.5901825" lon="9.6245635"><ele>428.0</ele><time>2026-04-11T10:03:01.889Z</time></trkpt><trkpt lat="40.590075" lon="9.6248286"><ele>436.0</ele><time>2026-04-11T10:03:05.903Z</time></trkpt><trkpt lat="40.5900465" lon="9.6249422"><ele>444.0</ele><time>2026-04-11T10:03:10.882Z</time></trkpt><trkpt lat="40.5900655" lon="9.6250719"><ele>444.66666666666663</ele><time>2026-04-11T10:05:49.926Z</time></trkpt><trkpt lat="40.5900948" lon="9.6253411"><ele>445.3333333333333</ele><time>2026-04-11T10:05:53.941Z</time></trkpt><trkpt lat="40.5901079" lon="9.6254341"><ele>446.0</ele><time>2026-04-11T10:05:54.922Z</time></trkpt><trkpt lat="40.5901912" lon="9.6257889"><ele>446.0</ele><time>2026-04-11T10:05:58.907Z</time></trkpt><trkpt lat="40.5901554" lon="9.6260605"><ele>446.0</ele><time>2026-04-11T10:06:02.915Z</time></trkpt><trkpt lat="40.589942" lon="9.6262084"><ele>446.0</ele><time>2026-04-11T10:06:07.906Z</time></trkpt><trkpt lat="40.5897573" lon="9.6261604"><ele>446.0</ele><time>2026-04-11T10:06:11.91Z</time></trkpt><trkpt lat="40.5896692" lon="9.6257682"><ele>446.0</ele><time>2026-04-11T10:06:16.909Z</time></trkpt><trkpt lat="40.5896344" lon="9.6256584"><ele>446.0</ele><time>2026-04-11T10:06:17.91Z</time></trkpt><trkpt lat="40.5895055" lon="9.6251993"><ele>460.66666666666663</ele><time>2026-04-11T10:06:21.9Z</time></trkpt><trkpt lat="40.5894893" lon="9.6250917"><ele>475.33333333333337</ele><time>2026-04-11T10:06:22.895Z</time></trkpt><trkpt lat="40.5893733" lon="9.6248277"><ele>490.0</ele><time>2026-04-11T10:06:26.897Z</time></trkpt><trkpt lat="40.5893358" lon="9.6244743"><ele>490.0</ele><time>2026-04-11T10:06:31.895Z</time></trkpt><trkpt lat="40.5893516" lon="9.6243934"><ele>490.0</ele><time>2026-04-11T10:06:32.894Z</time></trkpt><trkpt lat="40.5892303" lon="9.6243767"><ele>490.0</ele><time>2026-04-11T10:06:37.888Z</time></trkpt><trkpt lat="40.5891998" lon="9.6247604"><ele>490.0</ele><time>2026-04-11T10:06:41.894Z</time></trkpt><trkpt lat="40.589226" lon="9.624879"><ele>490.0</ele><time>2026-04-11T10:06:42.891Z</time></trkpt><trkpt lat="40.5892206" lon="9.6253166"><ele>490.0</ele><time>2026-04-11T10:06:46.891Z</time></trkpt><trkpt lat="40.5891446" lon="9.6257134"><ele>490.0</ele><time>2026-04-11T10:06:50.882Z</time></trkpt><trkpt lat="40.5890302" lon="9.6258816"><ele>490.0</ele><time>2026-04-11T10:06:56.889Z</time></trkpt><trkpt lat="40.5890646" lon="9.6255293"><ele>490.0</ele><time>2026-04-11T10:07:01.874Z</time></trkpt><trkpt lat="40.589068" lon="9.6251611"><ele>490.0</ele><time>2026-04-11T10:07:05.867Z</time></trkpt><trkpt lat="40.588999" lon="9.624595"><ele>490.0</ele><time>2026-04-11T10:07:10.865Z</time></trkpt><trkpt lat="40.5891045" lon="9.6239728"><ele>516.0</ele><time>2026-04-11T10:07:15.891Z</time></trkpt><trkpt lat="40.5891913" lon="9.6233847"><ele>516.0</ele><time>2026-04-11T10:07:20.872Z</time></trkpt><trkpt lat="40.589203" lon="9.6232731"><ele>516.0</ele><time>2026-04-11T10:07:21.876Z</time></trkpt><trkpt lat="40.5893419" lon="9.6228989"><ele>516.0</ele><time>2026-04-11T10:07:25.865Z</time></trkpt><trkpt lat="40.5893895" lon="9.6228312"><ele>518.3333333333334</ele><time>2026-04-11T10:07:26.876Z</time></trkpt><trkpt lat="40.5897134" lon="9.6226669"><ele>520.6666666666667</ele><time>2026-04-11T10:07:31.867Z</time></trkpt><trkpt lat="40.5897866" lon="9.622675"><ele>523.0</ele><time>2026-04-11T10:07:32.86Z</time></trkpt><trkpt lat="40.5900505" lon="9.6226237"><ele>523.0</ele><time>2026-04-11T10:07:36.874Z</time></trkpt><trkpt lat="40.5902518" lon="9.6222692"><ele>523.0</ele><time>2026-04-11T10:07:41.856Z</time></trkpt><trkpt lat="40.5903011" lon="9.6221925"><ele>523.0</ele><time>2026-04-11T10:07:42.847Z</time></trkpt><trkpt lat="40.5905237" lon="9.6219185"><ele>523.0</ele><time>2026-04-11T10:07:46.842Z</time></trkpt><trkpt lat="40.5905802" lon="9.6218728"><ele>523.0</ele><time>2026-04-11T10:07:47.869Z</time></trkpt><trkpt lat="40.5906057" lon="9.6217931"><ele>523.0</ele><time>2026-04-11T10:07:52.845Z</time></trkpt><trkpt lat="40.5902706" lon="9.6220142"><ele>523.0</ele><time>2026-04-11T10:07:57.837Z</time></trkpt><trkpt lat="40.5898356" lon="9.6222701"><ele>534.0</ele><time>2026-04-11T10:08:02.849Z</time></trkpt><trkpt lat="40.5894731" lon="9.6223135"><ele>545.0</ele><time>2026-04-11T10:08:07.942Z</time></trkpt><trkpt lat="40.5893827" lon="9.6223328"><ele>545.0</ele><time>2026-04-11T10:08:08.948Z</time></trkpt><trkpt lat="40.5890493" lon="9.6225453"><ele>545.0</ele><time>2026-04-11T10:08:12.93Z</time></trkpt><trkpt lat="40.5889822" lon="9.6226162"><ele>552.0</ele><time>2026-04-11T10:08:13.945Z</time></trkpt><trkpt lat="40.5887435" lon="9.6229175"><ele>559.0</ele><time>2026-04-11T10:08:17.936Z</time></trkpt><trkpt lat="40.5887207" lon="9.6230125"><ele>566.0</ele><time>2026-04-11T10:08:18.935Z</time></trkpt><trkpt lat="40.5886376" lon="9.6234093"><ele>566.0</ele><time>2026-04-11T10:08:22.938Z</time></trkpt><trkpt lat="40.588603" lon="9.6235069"><ele>566.0</ele><time>2026-04-11T10:08:23.944Z</time></trkpt><trkpt lat="40.5884895" lon="9.6238886"><ele>566.0</ele><time>2026-04-11T10:08:27.936Z</time></trkpt><trkpt lat="40.5884469" lon="9.6239782"><ele>561.6666666666666</ele><time>2026-04-11T10:08:28.929Z</time></trkpt><trkpt lat="40.588328" lon="9.6244365"><ele>557.3333333333334</ele><time>2026-04-11T10:08:32.928Z</time></trkpt><trkpt lat="40.5883075" lon="9.6245357"><ele>553.0</ele><time>2026-04-11T10:08:33.931Z</time></trkpt><trkpt lat="40.5882068" lon="9.6248721"><ele>545.5</ele><time>2026-04-11T10:08:37.947Z</time></trkpt><trkpt lat="40.5879283" lon="9.6249997"><ele>538.0</ele><time>2026-04-11T10:08:42.914Z</time></trkpt><trkpt lat="40.5877534" lon="9.6251926"><ele>549.3333333333334</ele><time>2026-04-11T10:08:46.912Z</time></trkpt><trkpt lat="40.5877229" lon="9.625609"><ele>560.6666666666666</ele><time>2026-04-11T10:08:51.91Z</time></trkpt><trkpt lat="40.587732" lon="9.6257159"><ele>572.0</ele><time>2026-04-11T10:08:52.904Z</time></trkpt><trkpt lat="40.5877082" lon="9.6260913"><ele>574.5</ele><time>2026-04-11T10:08:56.902Z</time></trkpt><trkpt lat="40.5875326" lon="9.6264726"><ele>577.0</ele><time>2026-04-11T10:09:01.887Z</time></trkpt><trkpt lat="40.5875921" lon="9.6267775"><ele>577.0</ele><time>2026-04-11T10:09:05.892Z</time></trkpt><trkpt lat="40.5876374" lon="9.6268805"><ele>577.0</ele><time>2026-04-11T10:09:06.901Z</time></trkpt><trkpt lat="40.5876704" lon="9.6269683"><ele>577.0</ele><time>2026-04-11T10:09:07.902Z</time></trkpt><trkpt lat="40.587706" lon="9.6273183"><ele>577.0</ele><time>2026-04-11T10:09:11.905Z</time></trkpt><trkpt lat="40.5875861" lon="9.6276297"><ele>578.6666666666667</ele><time>2026-04-11T10:09:16.901Z</time></trkpt><trkpt lat="40.5875019" lon="9.6277484"><ele>580.3333333333334</ele><time>2026-04-11T10:09:18.884Z</time></trkpt><trkpt lat="40.5873823" lon="9.6280779"><ele>582.0</ele><time>2026-04-11T10:09:22.886Z</time></trkpt><trkpt lat="40.5873986" lon="9.6281716"><ele>586.5</ele><time>2026-04-11T10:09:23.885Z</time></trkpt><trkpt lat="40.5875637" lon="9.6284682"><ele>591.0</ele><time>2026-04-11T10:09:27.879Z</time></trkpt><trkpt lat="40.5876084" lon="9.628959"><ele>596.0</ele><time>2026-04-11T10:09:32.881Z</time></trkpt><trkpt lat="40.5876845" lon="9.6293363"><ele>601.0</ele><time>2026-04-11T10:09:36.927Z</time></trkpt><trkpt lat="40.5877209" lon="9.6294178"><ele>606.0</ele><time>2026-04-11T10:09:37.892Z</time></trkpt><trkpt lat="40.5878408" lon="9.6297983"><ele>603.0</ele><time>2026-04-11T10:09:41.885Z</time></trkpt><trkpt lat="40.5878687" lon="9.6298947"><ele>600.0</ele><time>2026-04-11T10:09:42.886Z</time></trkpt><trkpt lat="40.5879922" lon="9.6302081"><ele>597.0</ele><time>2026-04-11T10:09:45.877Z</time></trkpt><trkpt lat="40.5880861" lon="9.6303685"><ele>597.0</ele><time>2026-04-11T10:09:47.879Z</time></trkpt><trkpt lat="40.588151" lon="9.6304641"><ele>597.0</ele><time>2026-04-11T10:09:51.878Z</time></trkpt><trkpt lat="40.5880325" lon="9.6304009"><ele>597.0</ele><time>2026-04-11T10:10:00.876Z</time></trkpt><trkpt lat="40.5878159" lon="9.6301108"><ele>603.3333333333334</ele><time>2026-04-11T10:10:27.859Z</time></trkpt><trkpt lat="40.5876964" lon="9.6298192"><ele>609.6666666666667</ele><time>2026-04-11T10:10:31.847Z</time></trkpt><trkpt lat="40.5876622" lon="9.6297433"><ele>616.0</ele><time>2026-04-11T10:10:32.844Z</time></trkpt><trkpt lat="40.5875597" lon="9.6295219"><ele>611.0</ele><time>2026-04-11T10:10:35.937Z</time></trkpt><trkpt lat="40.5873583" lon="9.6291719"><ele>606.0</ele><time>2026-04-11T10:10:40.952Z</time></trkpt><trkpt lat="40.5873415" lon="9.6288668"><ele>606.0</ele><time>2026-04-11T10:10:44.949Z</time></trkpt><trkpt lat="40.58729" lon="9.6287591"><ele>606.0</ele><time>2026-04-11T10:10:49.934Z</time></trkpt><trkpt lat="40.5871899" lon="9.6287356"><ele>606.0</ele><time>2026-04-11T10:21:14.942Z</time></trkpt><trkpt lat="40.5868557" lon="9.6285648"><ele>610.5</ele><time>2026-04-11T10:21:19.931Z</time></trkpt><trkpt lat="40.586767" lon="9.6285191"><ele>615.0</ele><time>2026-04-11T10:21:20.91Z</time></trkpt><trkpt lat="40.5865079" lon="9.6283897"><ele>619.5</ele><time>2026-04-11T10:21:23.917Z</time></trkpt><trkpt lat="40.5864425" lon="9.6283452"><ele>624.0</ele><time>2026-04-11T10:21:24.904Z</time></trkpt><trkpt lat="40.5862579" lon="9.6278605"><ele>623.0</ele><time>2026-04-11T10:21:29.968Z</time></trkpt><trkpt lat="40.586226" lon="9.6277296"><ele>622.0</ele><time>2026-04-11T10:21:30.908Z</time></trkpt><trkpt lat="40.5861729" lon="9.6274754"><ele>621.0</ele><time>2026-04-11T10:21:32.901Z</time></trkpt><trkpt lat="40.5860734" lon="9.6272402"><ele>621.0</ele><time>2026-04-11T10:21:35.916Z</time></trkpt><trkpt lat="40.5859381" lon="9.6270743"><ele>621.0</ele><time>2026-04-11T10:21:40.908Z</time></trkpt><trkpt lat="40.585996" lon="9.6267476"><ele>621.0</ele><time>2026-04-11T10:21:45.928Z</time></trkpt><trkpt lat="40.5861685" lon="9.6260334"><ele>618.0</ele><time>2026-04-11T10:21:51.905Z</time></trkpt><trkpt lat="40.586209" lon="9.6258656"><ele>615.0</ele><time>2026-04-11T10:21:52.903Z</time></trkpt><trkpt lat="40.5864561" lon="9.6247817"><ele>616.0</ele><time>2026-04-11T10:21:58.902Z</time></trkpt><trkpt lat="40.5864748" lon="9.6238671"><ele>616.0</ele><time>2026-04-11T10:22:03.918Z</time></trkpt><trkpt lat="40.5864486" lon="9.6237025"><ele>616.0</ele><time>2026-04-11T10:22:04.92Z</time></trkpt><trkpt lat="40.5865916" lon="9.6232638"><ele>618.5</ele><time>2026-04-11T10:22:09.903Z</time></trkpt><trkpt lat="40.5869707" lon="9.6229772"><ele>621.0</ele><time>2026-04-11T10:22:14.936Z</time></trkpt><trkpt lat="40.5870138" lon="9.6229026"><ele>618.25</ele><time>2026-04-11T10:22:15.902Z</time></trkpt><trkpt lat="40.5871457" lon="9.6228179"><ele>615.5</ele><time>2026-04-11T10:22:19.897Z</time></trkpt><trkpt lat="40.5872377" lon="9.6229605"><ele>612.75</ele><time>2026-04-11T10:22:23.904Z</time></trkpt><trkpt lat="40.5873167" lon="9.6230232"><ele>610.0</ele><time>2026-04-11T10:22:28.058Z</time></trkpt><trkpt lat="40.5873836" lon="9.6230796"><ele>610.0</ele><time>2026-04-11T10:22:31.955Z</time></trkpt><trkpt lat="40.5874158" lon="9.6231879"><ele>610.0</ele><time>2026-04-11T10:22:35.986Z</time></trkpt><trkpt lat="40.5873506" lon="9.6233351"><ele>610.0</ele><time>2026-04-11T10:22:39.99Z</time></trkpt><trkpt lat="40.5872729" lon="9.6233431"><ele>610.0</ele><time>2026-04-11T10:22:42.923Z</time></trkpt><trkpt lat="40.5873382" lon="9.623368"><ele>610.0</ele><time>2026-04-11T12:12:10.32Z</time></trkpt><trkpt lat="40.5874019" lon="9.6233384"><ele>610.0</ele><time>2026-04-11T12:12:12.307Z</time></trkpt><trkpt lat="40.5874533" lon="9.6232863"><ele>610.0</ele><time>2026-04-11T12:12:14.319Z</time></trkpt><trkpt lat="40.5874809" lon="9.6232048"><ele>610.0</ele><time>2026-04-11T12:12:17.364Z</time></trkpt><trkpt lat="40.5874563" lon="9.623126"><ele>610.0</ele><time>2026-04-11T12:12:20.305Z</time></trkpt><trkpt lat="40.5873863" lon="9.623066"><ele>610.0</ele><time>2026-04-11T12:12:23.303Z</time></trkpt><trkpt lat="40.5873215" lon="9.6230202"><ele>610.0</ele><time>2026-04-11T12:12:26.299Z</time></trkpt><trkpt lat="40.5872432" lon="9.6229665"><ele>610.0</ele><time>2026-04-11T12:12:28.301Z</time></trkpt><trkpt lat="40.5871839" lon="9.622888"><ele>611.1666666666667</ele><time>2026-04-11T12:12:30.302Z</time></trkpt><trkpt lat="40.5871364" lon="9.6228085"><ele>612.3333333333334</ele><time>2026-04-11T12:12:32.283Z</time></trkpt><trkpt lat="40.5870736" lon="9.6227771"><ele>613.5</ele><time>2026-04-11T12:12:34.284Z</time></trkpt><trkpt lat="40.586993" lon="9.6228525"><ele>614.6666666666666</ele><time>2026-04-11T12:12:36.284Z</time></trkpt><trkpt lat="40.5869556" lon="9.6229343"><ele>615.8333333333333</ele><time>2026-04-11T12:12:37.296Z</time></trkpt><trkpt lat="40.5869053" lon="9.6230248"><ele>617.0</ele><time>2026-04-11T12:12:38.293Z</time></trkpt><trkpt lat="40.5868403" lon="9.6231109"><ele>617.6666666666666</ele><time>2026-04-11T12:12:39.299Z</time></trkpt><trkpt lat="40.586764" lon="9.6231803"><ele>618.3333333333333</ele><time>2026-04-11T12:12:40.276Z</time></trkpt><trkpt lat="40.58668" lon="9.6232305"><ele>619.0</ele><time>2026-04-11T12:12:41.295Z</time></trkpt><trkpt lat="40.5866025" lon="9.623266"><ele>619.6666666666666</ele><time>2026-04-11T12:12:42.28Z</time></trkpt><trkpt lat="40.5865262" lon="9.6232951"><ele>620.3333333333334</ele><time>2026-04-11T12:12:43.268Z</time></trkpt><trkpt lat="40.5864572" lon="9.6233358"><ele>621.0</ele><time>2026-04-11T12:12:44.27Z</time></trkpt><trkpt lat="40.5864078" lon="9.6234025"><ele>621.0</ele><time>2026-04-11T12:12:45.268Z</time></trkpt><trkpt lat="40.5863889" lon="9.6234972"><ele>621.0</ele><time>2026-04-11T12:12:46.284Z</time></trkpt><trkpt lat="40.5863953" lon="9.6236083"><ele>621.0</ele><time>2026-04-11T12:12:47.278Z</time></trkpt><trkpt lat="40.586417" lon="9.6237251"><ele>621.0</ele><time>2026-04-11T12:12:48.269Z</time></trkpt><trkpt lat="40.5864441" lon="9.6238546"><ele>621.0</ele><time>2026-04-11T12:12:49.269Z</time></trkpt><trkpt lat="40.5864658" lon="9.6240017"><ele>619.75</ele><time>2026-04-11T12:12:50.279Z</time></trkpt><trkpt lat="40.5864787" lon="9.6241638"><ele>618.5</ele><time>2026-04-11T12:12:51.281Z</time></trkpt><trkpt lat="40.5864809" lon="9.6243373"><ele>617.25</ele><time>2026-04-11T12:12:52.277Z</time></trkpt><trkpt lat="40.5864744" lon="9.6245167"><ele>616.0</ele><time>2026-04-11T12:12:53.271Z</time></trkpt><trkpt lat="40.5864587" lon="9.6246964"><ele>615.8</ele><time>2026-04-11T12:12:54.266Z</time></trkpt><trkpt lat="40.5864366" lon="9.6248604"><ele>615.6</ele><time>2026-04-11T12:12:55.274Z</time></trkpt><trkpt lat="40.5864068" lon="9.6250035"><ele>615.4</ele><time>2026-04-11T12:12:56.274Z</time></trkpt><trkpt lat="40.5863722" lon="9.6251299"><ele>615.2</ele><time>2026-04-11T12:12:57.254Z</time></trkpt><trkpt lat="40.5863377" lon="9.6252559"><ele>615.0</ele><time>2026-04-11T12:12:58.259Z</time></trkpt><trkpt lat="40.5863072" lon="9.6253776"><ele>614.0</ele><time>2026-04-11T12:12:59.27Z</time></trkpt><trkpt lat="40.5862798" lon="9.6254876"><ele>613.0</ele><time>2026-04-11T12:13:00.277Z</time></trkpt><trkpt lat="40.5862529" lon="9.6255871"><ele>612.0</ele><time>2026-04-11T12:13:01.255Z</time></trkpt><trkpt lat="40.5862285" lon="9.6256857"><ele>611.0</ele><time>2026-04-11T12:13:02.268Z</time></trkpt><trkpt lat="40.5862065" lon="9.6257877"><ele>610.0</ele><time>2026-04-11T12:13:03.259Z</time></trkpt><trkpt lat="40.5861827" lon="9.6258983"><ele>609.0</ele><time>2026-04-11T12:13:04.266Z</time></trkpt><trkpt lat="40.5861537" lon="9.6260148"><ele>611.75</ele><time>2026-04-11T12:13:05.256Z</time></trkpt><trkpt lat="40.5861218" lon="9.6261447"><ele>614.5</ele><time>2026-04-11T12:13:06.259Z</time></trkpt><trkpt lat="40.5860865" lon="9.6262892"><ele>617.25</ele><time>2026-04-11T12:13:07.266Z</time></trkpt><trkpt lat="40.5860466" lon="9.626445"><ele>620.0</ele><time>2026-04-11T12:13:08.264Z</time></trkpt><trkpt lat="40.5860079" lon="9.6266119"><ele>620.0</ele><time>2026-04-11T12:13:09.289Z</time></trkpt><trkpt lat="40.5859684" lon="9.6267871"><ele>620.0</ele><time>2026-04-11T12:13:10.27Z</time></trkpt><trkpt lat="40.5859272" lon="9.6269703"><ele>620.0</ele><time>2026-04-11T12:13:11.273Z</time></trkpt><trkpt lat="40.5858816" lon="9.6271586"><ele>620.0</ele><time>2026-04-11T12:13:12.278Z</time></trkpt><trkpt lat="40.5858345" lon="9.6273441"><ele>620.25</ele><time>2026-04-11T12:13:13.273Z</time></trkpt><trkpt lat="40.5857886" lon="9.6275306"><ele>620.5</ele><time>2026-04-11T12:13:14.268Z</time></trkpt><trkpt lat="40.5857413" lon="9.6277181"><ele>620.75</ele><time>2026-04-11T12:13:15.273Z</time></trkpt><trkpt lat="40.5856877" lon="9.6278978"><ele>621.0</ele><time>2026-04-11T12:13:16.271Z</time></trkpt><trkpt lat="40.5856256" lon="9.6280667"><ele>621.5</ele><time>2026-04-11T12:13:17.264Z</time></trkpt><trkpt lat="40.5855499" lon="9.6282179"><ele>622.0</ele><time>2026-04-11T12:13:18.263Z</time></trkpt><trkpt lat="40.5854684" lon="9.6283461"><ele>622.5</ele><time>2026-04-11T12:13:19.272Z</time></trkpt><trkpt lat="40.5853892" lon="9.6284562"><ele>623.0</ele><time>2026-04-11T12:13:20.263Z</time></trkpt><trkpt lat="40.5853137" lon="9.6285575"><ele>623.0</ele><time>2026-04-11T12:13:21.258Z</time></trkpt><trkpt lat="40.5852434" lon="9.6286579"><ele>623.0</ele><time>2026-04-11T12:13:22.259Z</time></trkpt><trkpt lat="40.5851726" lon="9.628756"><ele>623.0</ele><time>2026-04-11T12:13:23.261Z</time></trkpt><trkpt lat="40.5851018" lon="9.6288517"><ele>623.0</ele><time>2026-04-11T12:13:24.264Z</time></trkpt><trkpt lat="40.5850315" lon="9.6289471"><ele>623.0</ele><time>2026-04-11T12:13:25.258Z</time></trkpt><trkpt lat="40.5849652" lon="9.6290417"><ele>623.0</ele><time>2026-04-11T12:13:26.264Z</time></trkpt><trkpt lat="40.5849015" lon="9.6291334"><ele>623.0</ele><time>2026-04-11T12:13:27.268Z</time></trkpt><trkpt lat="40.5848364" lon="9.6292231"><ele>623.0</ele><time>2026-04-11T12:13:28.259Z</time></trkpt><trkpt lat="40.5847708" lon="9.629313"><ele>623.0</ele><time>2026-04-11T12:13:29.244Z</time></trkpt><trkpt lat="40.5847077" lon="9.6293946"><ele>623.0</ele><time>2026-04-11T12:13:30.266Z</time></trkpt><trkpt lat="40.5846513" lon="9.6294625"><ele>623.0</ele><time>2026-04-11T12:13:31.258Z</time></trkpt><trkpt lat="40.5845918" lon="9.6295103"><ele>623.0</ele><time>2026-04-11T12:13:32.376Z</time></trkpt><trkpt lat="40.5844667" lon="9.6294849"><ele>623.0</ele><time>2026-04-11T12:13:34.356Z</time></trkpt><trkpt lat="40.5844071" lon="9.629422"><ele>623.0</ele><time>2026-04-11T12:13:35.364Z</time></trkpt><trkpt lat="40.5843445" lon="9.6293379"><ele>623.0</ele><time>2026-04-11T12:13:36.362Z</time></trkpt><trkpt lat="40.5842792" lon="9.6292502"><ele>623.0</ele><time>2026-04-11T12:13:37.354Z</time></trkpt><trkpt lat="40.5842114" lon="9.6291658"><ele>623.3333333333333</ele><time>2026-04-11T12:13:38.353Z</time></trkpt><trkpt lat="40.5841454" lon="9.6290864"><ele>623.6666666666666</ele><time>2026-04-11T12:13:39.349Z</time></trkpt><trkpt lat="40.5840798" lon="9.6290181"><ele>624.0</ele><time>2026-04-11T12:13:40.342Z</time></trkpt><trkpt lat="40.5840112" lon="9.6289936"><ele>624.3333333333334</ele><time>2026-04-11T12:13:41.345Z</time></trkpt><trkpt lat="40.5839329" lon="9.6290144"><ele>624.6666666666667</ele><time>2026-04-11T12:13:42.356Z</time></trkpt><trkpt lat="40.5838521" lon="9.6290605"><ele>625.0</ele><time>2026-04-11T12:13:43.35Z</time></trkpt><trkpt lat="40.5837733" lon="9.6291176"><ele>625.0</ele><time>2026-04-11T12:13:44.351Z</time></trkpt><trkpt lat="40.5836943" lon="9.6291755"><ele>625.0</ele><time>2026-04-11T12:13:45.329Z</time></trkpt><trkpt lat="40.5836142" lon="9.6292278"><ele>625.0</ele><time>2026-04-11T12:13:46.332Z</time></trkpt><trkpt lat="40.5835309" lon="9.6292655"><ele>625.0</ele><time>2026-04-11T12:13:47.338Z</time></trkpt><trkpt lat="40.5834415" lon="9.629276"><ele>625.0</ele><time>2026-04-11T12:13:48.339Z</time></trkpt><trkpt lat="40.5833468" lon="9.6292544"><ele>625.8</ele><time>2026-04-11T12:13:49.328Z</time></trkpt><trkpt lat="40.583247" lon="9.6291978"><ele>626.6</ele><time>2026-04-11T12:13:50.35Z</time></trkpt><trkpt lat="40.5831521" lon="9.6291269"><ele>627.4</ele><time>2026-04-11T12:13:51.346Z</time></trkpt><trkpt lat="40.5830571" lon="9.6290635"><ele>628.2</ele><time>2026-04-11T12:13:52.331Z</time></trkpt><trkpt lat="40.5829587" lon="9.6290428"><ele>629.0</ele><time>2026-04-11T12:13:53.336Z</time></trkpt><trkpt lat="40.5828635" lon="9.6290597"><ele>629.0</ele><time>2026-04-11T12:13:54.34Z</time></trkpt><trkpt lat="40.5827718" lon="9.6290963"><ele>629.0</ele><time>2026-04-11T12:13:55.336Z</time></trkpt><trkpt lat="40.582692" lon="9.6291418"><ele>629.0</ele><time>2026-04-11T12:13:56.343Z</time></trkpt><trkpt lat="40.5826338" lon="9.6292102"><ele>629.0</ele><time>2026-04-11T12:13:57.341Z</time></trkpt><trkpt lat="40.5826082" lon="9.6293069"><ele>629.0</ele><time>2026-04-11T12:13:58.335Z</time></trkpt><trkpt lat="40.5826075" lon="9.6294253"><ele>629.0</ele><time>2026-04-11T12:13:59.343Z</time></trkpt><trkpt lat="40.5826145" lon="9.6295514"><ele>630.4</ele><time>2026-04-11T12:14:00.345Z</time></trkpt><trkpt lat="40.5826275" lon="9.6296809"><ele>631.8</ele><time>2026-04-11T12:14:01.341Z</time></trkpt><trkpt lat="40.5826389" lon="9.6298144"><ele>633.2</ele><time>2026-04-11T12:14:02.339Z</time></trkpt><trkpt lat="40.5826511" lon="9.629949"><ele>634.6</ele><time>2026-04-11T12:14:03.335Z</time></trkpt><trkpt lat="40.5826622" lon="9.630086"><ele>636.0</ele><time>2026-04-11T12:14:04.328Z</time></trkpt><trkpt lat="40.5826722" lon="9.6302245"><ele>637.2</ele><time>2026-04-11T12:14:05.336Z</time></trkpt><trkpt lat="40.5826818" lon="9.6303613"><ele>638.4000000000001</ele><time>2026-04-11T12:14:06.334Z</time></trkpt><trkpt lat="40.5826864" lon="9.6304987"><ele>639.6</ele><time>2026-04-11T12:14:07.339Z</time></trkpt><trkpt lat="40.5826793" lon="9.6306322"><ele>640.8000000000001</ele><time>2026-04-11T12:14:08.323Z</time></trkpt><trkpt lat="40.5826486" lon="9.6307607"><ele>642.0</ele><time>2026-04-11T12:14:09.334Z</time></trkpt><trkpt lat="40.5825994" lon="9.6308787"><ele>642.0</ele><time>2026-04-11T12:14:10.326Z</time></trkpt><trkpt lat="40.5825543" lon="9.6310108"><ele>642.0</ele><time>2026-04-11T12:14:11.325Z</time></trkpt><trkpt lat="40.5825275" lon="9.6311652"><ele>642.0</ele><time>2026-04-11T12:14:12.344Z</time></trkpt><trkpt lat="40.5825223" lon="9.6313329"><ele>642.0</ele><time>2026-04-11T12:14:13.342Z</time></trkpt><trkpt lat="40.5825122" lon="9.6314695"><ele>642.1666666666666</ele><time>2026-04-11T12:14:14.343Z</time></trkpt><trkpt lat="40.5824855" lon="9.631574"><ele>642.3333333333334</ele><time>2026-04-11T12:14:15.326Z</time></trkpt><trkpt lat="40.5824386" lon="9.6316408"><ele>642.5</ele><time>2026-04-11T12:14:16.34Z</time></trkpt><trkpt lat="40.5823678" lon="9.6316667"><ele>642.6666666666667</ele><time>2026-04-11T12:14:17.339Z</time></trkpt><trkpt lat="40.5822888" lon="9.6316586"><ele>642.8333333333334</ele><time>2026-04-11T12:14:18.316Z</time></trkpt><trkpt lat="40.5822064" lon="9.6316148"><ele>643.0</ele><time>2026-04-11T12:14:19.333Z</time></trkpt><trkpt lat="40.5821354" lon="9.6315375"><ele>643.0</ele><time>2026-04-11T12:14:20.334Z</time></trkpt><trkpt lat="40.5820724" lon="9.6314374"><ele>643.0</ele><time>2026-04-11T12:14:21.333Z</time></trkpt><trkpt lat="40.5820053" lon="9.6313288"><ele>643.0</ele><time>2026-04-11T12:14:22.327Z</time></trkpt><trkpt lat="40.5819345" lon="9.6312168"><ele>643.0</ele><time>2026-04-11T12:14:23.328Z</time></trkpt><trkpt lat="40.5818573" lon="9.6311318"><ele>643.0</ele><time>2026-04-11T12:14:24.325Z</time></trkpt><trkpt lat="40.581773" lon="9.6311017"><ele>642.1999999999999</ele><time>2026-04-11T12:14:25.319Z</time></trkpt><trkpt lat="40.5816904" lon="9.6311138"><ele>641.4</ele><time>2026-04-11T12:14:26.318Z</time></trkpt><trkpt lat="40.5816075" lon="9.6311563"><ele>640.5999999999999</ele><time>2026-04-11T12:14:27.314Z</time></trkpt><trkpt lat="40.5815197" lon="9.6312159"><ele>639.8</ele><time>2026-04-11T12:14:28.312Z</time></trkpt><trkpt lat="40.5814355" lon="9.6312927"><ele>639.0</ele><time>2026-04-11T12:14:29.326Z</time></trkpt><trkpt lat="40.5813658" lon="9.6313866"><ele>642.0</ele><time>2026-04-11T12:14:30.321Z</time></trkpt><trkpt lat="40.5813151" lon="9.6315066"><ele>645.0</ele><time>2026-04-11T12:14:31.348Z</time></trkpt><trkpt lat="40.5812771" lon="9.6316464"><ele>648.0</ele><time>2026-04-11T12:14:32.304Z</time></trkpt><trkpt lat="40.5812436" lon="9.6317998"><ele>651.0</ele><time>2026-04-11T12:14:33.31Z</time></trkpt><trkpt lat="40.5812162" lon="9.6319612"><ele>652.4</ele><time>2026-04-11T12:14:34.315Z</time></trkpt><trkpt lat="40.5811906" lon="9.6321238"><ele>653.8</ele><time>2026-04-11T12:14:35.325Z</time></trkpt><trkpt lat="40.5811622" lon="9.6322761"><ele>655.1999999999999</ele><time>2026-04-11T12:14:36.314Z</time></trkpt><trkpt lat="40.5811237" lon="9.6323987"><ele>656.5999999999999</ele><time>2026-04-11T12:14:37.31Z</time></trkpt><trkpt lat="40.5810707" lon="9.6324839"><ele>658.0</ele><time>2026-04-11T12:14:38.32Z</time></trkpt><trkpt lat="40.5810042" lon="9.6325188"><ele>659.2</ele><time>2026-04-11T12:14:39.317Z</time></trkpt><trkpt lat="40.5809331" lon="9.6325145"><ele>660.4</ele><time>2026-04-11T12:14:40.301Z</time></trkpt><trkpt lat="40.5808543" lon="9.6324739"><ele>661.6</ele><time>2026-04-11T12:14:41.323Z</time></trkpt><trkpt lat="40.5807725" lon="9.6324064"><ele>662.8000000000001</ele><time>2026-04-11T12:14:42.313Z</time></trkpt><trkpt lat="40.5806993" lon="9.6323072"><ele>664.0</ele><time>2026-04-11T12:14:43.314Z</time></trkpt><trkpt lat="40.5806316" lon="9.6321819"><ele>664.0</ele><time>2026-04-11T12:14:44.308Z</time></trkpt><trkpt lat="40.5805712" lon="9.6320377"><ele>664.0</ele><time>2026-04-11T12:14:45.318Z</time></trkpt><trkpt lat="40.580512" lon="9.6318956"><ele>664.0</ele><time>2026-04-11T12:14:46.302Z</time></trkpt><trkpt lat="40.5804386" lon="9.6317687"><ele>664.0</ele><time>2026-04-11T12:14:47.305Z</time></trkpt><trkpt lat="40.580345" lon="9.6316577"><ele>665.25</ele><time>2026-04-11T12:14:48.324Z</time></trkpt><trkpt lat="40.5802376" lon="9.6315722"><ele>666.5</ele><time>2026-04-11T12:14:49.296Z</time></trkpt><trkpt lat="40.5801259" lon="9.6315019"><ele>667.75</ele><time>2026-04-11T12:14:50.294Z</time></trkpt><trkpt lat="40.5800122" lon="9.6314494"><ele>669.0</ele><time>2026-04-11T12:14:51.289Z</time></trkpt><trkpt lat="40.5798913" lon="9.6314328"><ele>669.0</ele><time>2026-04-11T12:14:52.297Z</time></trkpt><trkpt lat="40.5797578" lon="9.6314381"><ele>669.0</ele><time>2026-04-11T12:14:53.291Z</time></trkpt><trkpt lat="40.5796151" lon="9.6314434"><ele>669.0</ele><time>2026-04-11T12:14:54.287Z</time></trkpt><trkpt lat="40.5794641" lon="9.6314251"><ele>669.0</ele><time>2026-04-11T12:14:55.292Z</time></trkpt><trkpt lat="40.5793106" lon="9.6313888"><ele>671.25</ele><time>2026-04-11T12:14:56.306Z</time></trkpt><trkpt lat="40.5791625" lon="9.6313503"><ele>673.5</ele><time>2026-04-11T12:14:57.308Z</time></trkpt><trkpt lat="40.5790257" lon="9.631318"><ele>675.75</ele><time>2026-04-11T12:14:58.306Z</time></trkpt><trkpt lat="40.5789061" lon="9.6313127"><ele>678.0</ele><time>2026-04-11T12:14:59.3Z</time></trkpt><trkpt lat="40.5787982" lon="9.6313402"><ele>678.0</ele><time>2026-04-11T12:15:00.284Z</time></trkpt><trkpt lat="40.5787057" lon="9.6314057"><ele>678.0</ele><time>2026-04-11T12:15:01.298Z</time></trkpt><trkpt lat="40.5786309" lon="9.6315021"><ele>678.0</ele><time>2026-04-11T12:15:02.283Z</time></trkpt><trkpt lat="40.5785791" lon="9.6316219"><ele>678.0</ele><time>2026-04-11T12:15:03.29Z</time></trkpt><trkpt lat="40.578563" lon="9.6317637"><ele>678.0</ele><time>2026-04-11T12:15:04.281Z</time></trkpt><trkpt lat="40.5785692" lon="9.6319178"><ele>677.5999999999999</ele><time>2026-04-11T12:15:05.275Z</time></trkpt><trkpt lat="40.578584" lon="9.632076"><ele>677.1999999999999</ele><time>2026-04-11T12:15:06.292Z</time></trkpt><trkpt lat="40.5785838" lon="9.6322219"><ele>676.8</ele><time>2026-04-11T12:15:07.299Z</time></trkpt><trkpt lat="40.5785504" lon="9.6323584"><ele>676.4</ele><time>2026-04-11T12:15:08.299Z</time></trkpt><trkpt lat="40.578492" lon="9.6324772"><ele>676.0</ele><time>2026-04-11T12:15:09.288Z</time></trkpt><trkpt lat="40.5784117" lon="9.6325868"><ele>676.0</ele><time>2026-04-11T12:15:10.294Z</time></trkpt><trkpt lat="40.5783268" lon="9.632701"><ele>676.0</ele><time>2026-04-11T12:15:11.288Z</time></trkpt><trkpt lat="40.5782417" lon="9.6328228"><ele>676.0</ele><time>2026-04-11T12:15:12.303Z</time></trkpt><trkpt lat="40.5781574" lon="9.6329438"><ele>676.0</ele><time>2026-04-11T12:15:13.288Z</time></trkpt><trkpt lat="40.5780816" lon="9.6330742"><ele>680.5</ele><time>2026-04-11T12:15:14.275Z</time></trkpt><trkpt lat="40.57802" lon="9.6332195"><ele>685.0</ele><time>2026-04-11T12:15:15.276Z</time></trkpt><trkpt lat="40.5779796" lon="9.6333859"><ele>689.5</ele><time>2026-04-11T12:15:16.276Z</time></trkpt><trkpt lat="40.5779538" lon="9.633561"><ele>694.0</ele><time>2026-04-11T12:15:17.272Z</time></trkpt><trkpt lat="40.5779347" lon="9.6337472"><ele>698.0</ele><time>2026-04-11T12:15:18.279Z</time></trkpt><trkpt lat="40.5779223" lon="9.6339427"><ele>702.0</ele><time>2026-04-11T12:15:19.268Z</time></trkpt><trkpt lat="40.577919" lon="9.6341445"><ele>706.0</ele><time>2026-04-11T12:15:20.275Z</time></trkpt><trkpt lat="40.5779225" lon="9.634339"><ele>707.25</ele><time>2026-04-11T12:15:21.265Z</time></trkpt><trkpt lat="40.5779163" lon="9.6345131"><ele>708.5</ele><time>2026-04-11T12:15:22.271Z</time></trkpt><trkpt lat="40.577889" lon="9.6346582"><ele>709.75</ele><time>2026-04-11T12:15:23.271Z</time></trkpt><trkpt lat="40.5778339" lon="9.6347782"><ele>711.0</ele><time>2026-04-11T12:15:24.265Z</time></trkpt><trkpt lat="40.5777458" lon="9.6348634"><ele>707.75</ele><time>2026-04-11T12:15:25.26Z</time></trkpt><trkpt lat="40.5776372" lon="9.6349395"><ele>704.5</ele><time>2026-04-11T12:15:26.269Z</time></trkpt><trkpt lat="40.5775104" lon="9.6350077"><ele>701.25</ele><time>2026-04-11T12:15:27.281Z</time></trkpt><trkpt lat="40.5773729" lon="9.6350663"><ele>698.0</ele><time>2026-04-11T12:15:28.266Z</time></trkpt><trkpt lat="40.5772237" lon="9.6350962"><ele>698.0</ele><time>2026-04-11T12:15:29.294Z</time></trkpt><trkpt lat="40.5770707" lon="9.6350976"><ele>698.0</ele><time>2026-04-11T12:15:30.258Z</time></trkpt><trkpt lat="40.576907" lon="9.635092"><ele>698.0</ele><time>2026-04-11T12:15:31.266Z</time></trkpt><trkpt lat="40.5767417" lon="9.6350868"><ele>698.0</ele><time>2026-04-11T12:15:32.257Z</time></trkpt><trkpt lat="40.5765791" lon="9.6350797"><ele>698.0</ele><time>2026-04-11T12:15:33.353Z</time></trkpt><trkpt lat="40.5764361" lon="9.6350717"><ele>698.0</ele><time>2026-04-11T12:15:34.354Z</time></trkpt><trkpt lat="40.5763071" lon="9.6350512"><ele>698.0</ele><time>2026-04-11T12:15:35.268Z</time></trkpt><trkpt lat="40.5761831" lon="9.6349944"><ele>702.0</ele><time>2026-04-11T12:15:36.358Z</time></trkpt><trkpt lat="40.5760797" lon="9.6349168"><ele>706.0</ele><time>2026-04-11T12:15:37.35Z</time></trkpt><trkpt lat="40.5759973" lon="9.6348311"><ele>710.0</ele><time>2026-04-11T12:15:38.364Z</time></trkpt><trkpt lat="40.5759482" lon="9.6347377"><ele>714.0</ele><time>2026-04-11T12:15:39.348Z</time></trkpt><trkpt lat="40.5759475" lon="9.6346347"><ele>718.0</ele><time>2026-04-11T12:15:40.357Z</time></trkpt><trkpt lat="40.5759586" lon="9.6345274"><ele>719.0</ele><time>2026-04-11T12:15:41.341Z</time></trkpt><trkpt lat="40.576005" lon="9.6344266"><ele>720.0</ele><time>2026-04-11T12:15:42.335Z</time></trkpt><trkpt lat="40.576081" lon="9.6343303"><ele>721.0</ele><time>2026-04-11T12:15:43.342Z</time></trkpt><trkpt lat="40.5761705" lon="9.634228"><ele>722.0</ele><time>2026-04-11T12:15:44.335Z</time></trkpt><trkpt lat="40.5762667" lon="9.6341104"><ele>723.0</ele><time>2026-04-11T12:15:45.35Z</time></trkpt><trkpt lat="40.5763592" lon="9.633989"><ele>717.5999999999999</ele><time>2026-04-11T12:15:46.343Z</time></trkpt><trkpt lat="40.5764414" lon="9.633875"><ele>712.1999999999999</ele><time>2026-04-11T12:15:47.332Z</time></trkpt><trkpt lat="40.5765" lon="9.6337647"><ele>706.8</ele><time>2026-04-11T12:15:48.336Z</time></trkpt><trkpt lat="40.5765215" lon="9.6336576"><ele>701.4</ele><time>2026-04-11T12:15:49.349Z</time></trkpt><trkpt lat="40.5764951" lon="9.6335481"><ele>696.0</ele><time>2026-04-11T12:15:50.346Z</time></trkpt><trkpt lat="40.5764406" lon="9.6334307"><ele>696.0</ele><time>2026-04-11T12:15:51.323Z</time></trkpt><trkpt lat="40.5763668" lon="9.6333096"><ele>696.0</ele><time>2026-04-11T12:15:52.337Z</time></trkpt><trkpt lat="40.576296" lon="9.633178"><ele>696.0</ele><time>2026-04-11T12:15:53.338Z</time></trkpt><trkpt lat="40.5762439" lon="9.6330392"><ele>696.0</ele><time>2026-04-11T12:15:54.325Z</time></trkpt><trkpt lat="40.57622" lon="9.6328911"><ele>695.0</ele><time>2026-04-11T12:15:55.334Z</time></trkpt><trkpt lat="40.5762146" lon="9.6327419"><ele>694.0</ele><time>2026-04-11T12:15:56.328Z</time></trkpt><trkpt lat="40.5762059" lon="9.6325928"><ele>693.0</ele><time>2026-04-11T12:15:57.329Z</time></trkpt><trkpt lat="40.5761639" lon="9.6324585"><ele>692.0</ele><time>2026-04-11T12:15:58.333Z</time></trkpt><trkpt lat="40.5760939" lon="9.6323278"><ele>700.5</ele><time>2026-04-11T12:15:59.338Z</time></trkpt><trkpt lat="40.5760049" lon="9.6321955"><ele>709.0</ele><time>2026-04-11T12:16:00.322Z</time></trkpt><trkpt lat="40.575907" lon="9.6320546"><ele>717.5</ele><time>2026-04-11T12:16:01.332Z</time></trkpt><trkpt lat="40.5758145" lon="9.63192"><ele>726.0</ele><time>2026-04-11T12:16:02.332Z</time></trkpt><trkpt lat="40.5757389" lon="9.6317984"><ele>726.0</ele><time>2026-04-11T12:16:03.324Z</time></trkpt><trkpt lat="40.5756963" lon="9.6316856"><ele>726.0</ele><time>2026-04-11T12:16:04.325Z</time></trkpt><trkpt lat="40.5756986" lon="9.6315859"><ele>726.0</ele><time>2026-04-11T12:16:05.331Z</time></trkpt><trkpt lat="40.5757322" lon="9.6314938"><ele>726.0</ele><time>2026-04-11T12:16:06.32Z</time></trkpt><trkpt lat="40.5757954" lon="9.6314084"><ele>726.0</ele><time>2026-04-11T12:16:07.308Z</time></trkpt><trkpt lat="40.5758618" lon="9.6313124"><ele>726.0</ele><time>2026-04-11T12:16:08.312Z</time></trkpt><trkpt lat="40.5759057" lon="9.6311985"><ele>726.0</ele><time>2026-04-11T12:16:09.323Z</time></trkpt><trkpt lat="40.5759158" lon="9.6310703"><ele>726.0</ele><time>2026-04-11T12:16:10.306Z</time></trkpt><trkpt lat="40.5758987" lon="9.630928"><ele>726.0</ele><time>2026-04-11T12:16:11.316Z</time></trkpt><trkpt lat="40.5758644" lon="9.6307819"><ele>726.0</ele><time>2026-04-11T12:16:12.316Z</time></trkpt><trkpt lat="40.5758077" lon="9.630647"><ele>726.0</ele><time>2026-04-11T12:16:13.31Z</time></trkpt><trkpt lat="40.5757291" lon="9.630545"><ele>726.0</ele><time>2026-04-11T12:16:14.313Z</time></trkpt><trkpt lat="40.5756368" lon="9.6304831"><ele>726.0</ele><time>2026-04-11T12:16:15.317Z</time></trkpt><trkpt lat="40.5755297" lon="9.6304706"><ele>726.0</ele><time>2026-04-11T12:16:16.317Z</time></trkpt><trkpt lat="40.5754158" lon="9.6304783"><ele>726.0</ele><time>2026-04-11T12:16:17.328Z</time></trkpt><trkpt lat="40.5753074" lon="9.6304575"><ele>726.0</ele><time>2026-04-11T12:16:18.313Z</time></trkpt><trkpt lat="40.5752081" lon="9.6303942"><ele>726.8</ele><time>2026-04-11T12:16:19.322Z</time></trkpt><trkpt lat="40.5751109" lon="9.6303249"><ele>727.5999999999999</ele><time>2026-04-11T12:16:20.304Z</time></trkpt><trkpt lat="40.5750078" lon="9.630267"><ele>728.4</ele><time>2026-04-11T12:16:21.31Z</time></trkpt><trkpt lat="40.5749035" lon="9.6302454"><ele>729.2</ele><time>2026-04-11T12:16:22.312Z</time></trkpt><trkpt lat="40.5748044" lon="9.6302608"><ele>730.0</ele><time>2026-04-11T12:16:23.318Z</time></trkpt><trkpt lat="40.5747076" lon="9.6303274"><ele>733.5</ele><time>2026-04-11T12:16:24.312Z</time></trkpt><trkpt lat="40.5745998" lon="9.630413"><ele>737.0</ele><time>2026-04-11T12:16:25.307Z</time></trkpt><trkpt lat="40.5744785" lon="9.6304885"><ele>740.5</ele><time>2026-04-11T12:16:26.31Z</time></trkpt><trkpt lat="40.5743404" lon="9.6305211"><ele>744.0</ele><time>2026-04-11T12:16:27.289Z</time></trkpt><trkpt lat="40.5741956" lon="9.6305448"><ele>745.3333333333334</ele><time>2026-04-11T12:16:28.311Z</time></trkpt><trkpt lat="40.5740547" lon="9.6305902"><ele>746.6666666666667</ele><time>2026-04-11T12:16:29.293Z</time></trkpt><trkpt lat="40.5739094" lon="9.6306685"><ele>748.0</ele><time>2026-04-11T12:16:30.299Z</time></trkpt><trkpt lat="40.5737606" lon="9.6307541"><ele>746.25</ele><time>2026-04-11T12:16:31.299Z</time></trkpt><trkpt lat="40.5736066" lon="9.6308224"><ele>744.5</ele><time>2026-04-11T12:16:32.311Z</time></trkpt><trkpt lat="40.5734667" lon="9.6308744"><ele>742.75</ele><time>2026-04-11T12:16:33.299Z</time></trkpt><trkpt lat="40.5733502" lon="9.6309329"><ele>741.0</ele><time>2026-04-11T12:16:34.299Z</time></trkpt><trkpt lat="40.5732636" lon="9.6309988"><ele>741.0</ele><time>2026-04-11T12:16:35.3Z</time></trkpt><trkpt lat="40.5732117" lon="9.6310905"><ele>741.0</ele><time>2026-04-11T12:16:36.301Z</time></trkpt><trkpt lat="40.5732013" lon="9.6312064"><ele>741.0</ele><time>2026-04-11T12:16:37.285Z</time></trkpt><trkpt lat="40.5732043" lon="9.6313386"><ele>741.0</ele><time>2026-04-11T12:16:38.296Z</time></trkpt><trkpt lat="40.5732013" lon="9.6314745"><ele>741.0</ele><time>2026-04-11T12:16:39.296Z</time></trkpt><trkpt lat="40.5731616" lon="9.6315987"><ele>743.5999999999999</ele><time>2026-04-11T12:16:40.305Z</time></trkpt><trkpt lat="40.5731" lon="9.6317154"><ele>746.2</ele><time>2026-04-11T12:16:41.284Z</time></trkpt><trkpt lat="40.573048" lon="9.6318439"><ele>748.8</ele><time>2026-04-11T12:16:42.299Z</time></trkpt><trkpt lat="40.5730337" lon="9.6319876"><ele>751.4000000000001</ele><time>2026-04-11T12:16:43.297Z</time></trkpt><trkpt lat="40.5730362" lon="9.6321433"><ele>754.0</ele><time>2026-04-11T12:16:44.276Z</time></trkpt><trkpt lat="40.573047" lon="9.6323046"><ele>754.75</ele><time>2026-04-11T12:16:45.288Z</time></trkpt><trkpt lat="40.5730748" lon="9.6324611"><ele>755.5</ele><time>2026-04-11T12:16:46.276Z</time></trkpt><trkpt lat="40.573133" lon="9.6325951"><ele>756.25</ele><time>2026-04-11T12:16:47.274Z</time></trkpt><trkpt lat="40.5732196" lon="9.6327018"><ele>757.0</ele><time>2026-04-11T12:16:48.278Z</time></trkpt><trkpt lat="40.5733082" lon="9.6327996"><ele>757.8</ele><time>2026-04-11T12:16:49.287Z</time></trkpt><trkpt lat="40.573367" lon="9.6329042"><ele>758.6</ele><time>2026-04-11T12:16:50.272Z</time></trkpt><trkpt lat="40.573384" lon="9.6330335"><ele>759.4</ele><time>2026-04-11T12:16:51.277Z</time></trkpt><trkpt lat="40.5733635" lon="9.6331739"><ele>760.1999999999999</ele><time>2026-04-11T12:16:52.265Z</time></trkpt><trkpt lat="40.5733158" lon="9.633318"><ele>761.0</ele><time>2026-04-11T12:16:53.276Z</time></trkpt><trkpt lat="40.5732504" lon="9.6334684"><ele>765.6666666666666</ele><time>2026-04-11T12:16:54.273Z</time></trkpt><trkpt lat="40.5731803" lon="9.6336393"><ele>770.3333333333333</ele><time>2026-04-11T12:16:55.292Z</time></trkpt><trkpt lat="40.5731103" lon="9.633826"><ele>775.0</ele><time>2026-04-11T12:16:56.265Z</time></trkpt><trkpt lat="40.5730382" lon="9.6340276"><ele>775.0</ele><time>2026-04-11T12:16:57.26Z</time></trkpt><trkpt lat="40.5729598" lon="9.6342383"><ele>775.0</ele><time>2026-04-11T12:16:58.273Z</time></trkpt><trkpt lat="40.5728782" lon="9.6344475"><ele>775.0</ele><time>2026-04-11T12:16:59.268Z</time></trkpt><trkpt lat="40.5727952" lon="9.6346657"><ele>769.3333333333333</ele><time>2026-04-11T12:17:00.261Z</time></trkpt><trkpt lat="40.5727127" lon="9.6348812"><ele>763.6666666666666</ele><time>2026-04-11T12:17:01.258Z</time></trkpt><trkpt lat="40.5726337" lon="9.6350834"><ele>758.0</ele><time>2026-04-11T12:17:02.281Z</time></trkpt><trkpt lat="40.5725741" lon="9.6352703"><ele>762.3333333333333</ele><time>2026-04-11T12:17:03.27Z</time></trkpt><trkpt lat="40.5725474" lon="9.635471"><ele>766.6666666666666</ele><time>2026-04-11T12:17:04.273Z</time></trkpt><trkpt lat="40.5725425" lon="9.6356817"><ele>771.0</ele><time>2026-04-11T12:17:05.257Z</time></trkpt><trkpt lat="40.572537" lon="9.6358895"><ele>771.0</ele><time>2026-04-11T12:17:06.264Z</time></trkpt><trkpt lat="40.572527" lon="9.6360719"><ele>771.0</ele><time>2026-04-11T12:17:07.263Z</time></trkpt><trkpt lat="40.5724995" lon="9.6362178"><ele>771.0</ele><time>2026-04-11T12:17:08.266Z</time></trkpt><trkpt lat="40.5724456" lon="9.6363362"><ele>771.0</ele><time>2026-04-11T12:17:09.251Z</time></trkpt><trkpt lat="40.5723792" lon="9.6364367"><ele>772.5999999999999</ele><time>2026-04-11T12:17:10.252Z</time></trkpt><trkpt lat="40.5722991" lon="9.6365112"><ele>774.2</ele><time>2026-04-11T12:17:11.264Z</time></trkpt><trkpt lat="40.572202" lon="9.6365382"><ele>775.8</ele><time>2026-04-11T12:17:12.252Z</time></trkpt><trkpt lat="40.5720919" lon="9.636531"><ele>777.4000000000001</ele><time>2026-04-11T12:17:13.24Z</time></trkpt><trkpt lat="40.5719726" lon="9.6365048"><ele>779.0</ele><time>2026-04-11T12:17:14.247Z</time></trkpt><trkpt lat="40.5718373" lon="9.636474"><ele>779.0</ele><time>2026-04-11T12:17:15.351Z</time></trkpt><trkpt lat="40.5717033" lon="9.6364628"><ele>779.0</ele><time>2026-04-11T12:17:16.347Z</time></trkpt><trkpt lat="40.5715715" lon="9.6364714"><ele>779.0</ele><time>2026-04-11T12:17:17.341Z</time></trkpt><trkpt lat="40.5714503" lon="9.6365005"><ele>779.0</ele><time>2026-04-11T12:17:18.346Z</time></trkpt><trkpt lat="40.5713363" lon="9.6365664"><ele>779.0</ele><time>2026-04-11T12:17:19.341Z</time></trkpt><trkpt lat="40.5712293" lon="9.6366572"><ele>779.0</ele><time>2026-04-11T12:17:20.359Z</time></trkpt><trkpt lat="40.5711297" lon="9.6367443"><ele>779.0</ele><time>2026-04-11T12:17:21.354Z</time></trkpt><trkpt lat="40.5710338" lon="9.6368256"><ele>779.0</ele><time>2026-04-11T12:17:22.355Z</time></trkpt><trkpt lat="40.5709415" lon="9.6369016"><ele>781.5000000000001</ele><time>2026-04-11T12:17:23.353Z</time></trkpt><trkpt lat="40.5708573" lon="9.6369754"><ele>784.0</ele><time>2026-04-11T12:17:24.35Z</time></trkpt><trkpt lat="40.5707782" lon="9.6370444"><ele>786.5</ele><time>2026-04-11T12:17:25.345Z</time></trkpt><trkpt lat="40.5707074" lon="9.6371075"><ele>789.0</ele><time>2026-04-11T12:17:26.344Z</time></trkpt><trkpt lat="40.5706414" lon="9.6371659"><ele>791.5000000000001</ele><time>2026-04-11T12:17:27.345Z</time></trkpt><trkpt lat="40.5705828" lon="9.6372168"><ele>794.0</ele><time>2026-04-11T12:17:28.33Z</time></trkpt><trkpt lat="40.5704922" lon="9.6372813"><ele>794.0000000000001</ele><time>2026-04-11T12:17:30.354Z</time></trkpt><trkpt lat="40.5704617" lon="9.6373622"><ele>794.0</ele><time>2026-04-11T12:17:33.346Z</time></trkpt><trkpt lat="40.5705298" lon="9.63739"><ele>794.0</ele><time>2026-04-11T12:17:36.326Z</time></trkpt><trkpt lat="40.5706111" lon="9.6373435"><ele>794.0</ele><time>2026-04-11T12:17:38.359Z</time></trkpt><trkpt lat="40.5707133" lon="9.6373028"><ele>794.0000000000001</ele><time>2026-04-11T12:17:40.339Z</time></trkpt><trkpt lat="40.5708231" lon="9.637297"><ele>794.0</ele><time>2026-04-11T12:17:42.33Z</time></trkpt><trkpt lat="40.570931" lon="9.6373023"><ele>794.0</ele><time>2026-04-11T12:17:44.32Z</time></trkpt><trkpt lat="40.5710333" lon="9.6373187"><ele>794.0</ele><time>2026-04-11T12:17:46.32Z</time></trkpt><trkpt lat="40.5711287" lon="9.6373643"><ele>794.0</ele><time>2026-04-11T12:17:48.34Z</time></trkpt><trkpt lat="40.5712196" lon="9.6374287"><ele>794.0</ele><time>2026-04-11T12:17:50.313Z</time></trkpt><trkpt lat="40.5712928" lon="9.6375203"><ele>794.0</ele><time>2026-04-11T12:17:52.317Z</time></trkpt><trkpt lat="40.571339" lon="9.6376313"><ele>795.6</ele><time>2026-04-11T12:17:54.326Z</time></trkpt><trkpt lat="40.5713583" lon="9.6377556"><ele>797.2</ele><time>2026-04-11T12:17:56.297Z</time></trkpt><trkpt lat="40.5713915" lon="9.637895"><ele>798.8000000000001</ele><time>2026-04-11T12:17:58.317Z</time></trkpt><trkpt lat="40.5714245" lon="9.6379982"><ele>800.4000000000001</ele><time>2026-04-11T12:18:00.319Z</time></trkpt><trkpt lat="40.5714858" lon="9.6381078"><ele>802.0</ele><time>2026-04-11T12:19:01.343Z</time></trkpt><trkpt lat="40.5715363" lon="9.6381665"><ele>802.6</ele><time>2026-04-11T12:19:03.345Z</time></trkpt><trkpt lat="40.5716058" lon="9.6382411"><ele>803.2</ele><time>2026-04-11T12:19:05.349Z</time></trkpt><trkpt lat="40.5716818" lon="9.6383232"><ele>803.8</ele><time>2026-04-11T12:19:07.338Z</time></trkpt><trkpt lat="40.5717581" lon="9.638392"><ele>804.4</ele><time>2026-04-11T12:19:09.341Z</time></trkpt><trkpt lat="40.5718377" lon="9.6384539"><ele>805.0</ele><time>2026-04-11T12:19:11.333Z</time></trkpt><trkpt lat="40.5719178" lon="9.6385044"><ele>805.0</ele><time>2026-04-11T12:19:13.338Z</time></trkpt><trkpt lat="40.5720108" lon="9.6385091"><ele>805.0</ele><time>2026-04-11T12:19:15.338Z</time></trkpt><trkpt lat="40.5721037" lon="9.6384955"><ele>805.0</ele><time>2026-04-11T12:19:17.34Z</time></trkpt><trkpt lat="40.572206" lon="9.6384718"><ele>805.0</ele><time>2026-04-11T12:19:19.334Z</time></trkpt><trkpt lat="40.5723094" lon="9.6384235"><ele>805.0</ele><time>2026-04-11T12:19:21.359Z</time></trkpt><trkpt lat="40.5724174" lon="9.638361"><ele>803.4999999999999</ele><time>2026-04-11T12:19:23.335Z</time></trkpt><trkpt lat="40.5725347" lon="9.6383304"><ele>802.0</ele><time>2026-04-11T12:19:25.332Z</time></trkpt><trkpt lat="40.5725984" lon="9.6383309"><ele>800.5</ele><time>2026-04-11T12:19:26.338Z</time></trkpt><trkpt lat="40.5726665" lon="9.6383404"><ele>799.0</ele><time>2026-04-11T12:19:27.346Z</time></trkpt><trkpt lat="40.5727356" lon="9.6383608"><ele>797.4999999999999</ele><time>2026-04-11T12:19:28.332Z</time></trkpt><trkpt lat="40.572802" lon="9.6383801"><ele>796.0</ele><time>2026-04-11T12:19:29.329Z</time></trkpt><trkpt lat="40.5728688" lon="9.6383851"><ele>794.4999999999999</ele><time>2026-04-11T12:19:30.325Z</time></trkpt><trkpt lat="40.5729384" lon="9.6383879"><ele>793.0</ele><time>2026-04-11T12:19:31.333Z</time></trkpt><trkpt lat="40.57301" lon="9.6383936"><ele>791.5</ele><time>2026-04-11T12:19:32.324Z</time></trkpt><trkpt lat="40.573082" lon="9.638413"><ele>790.0</ele><time>2026-04-11T12:19:33.32Z</time></trkpt><trkpt lat="40.5731498" lon="9.63844"><ele>788.4999999999999</ele><time>2026-04-11T12:19:34.319Z</time></trkpt><trkpt lat="40.5732147" lon="9.6384645"><ele>787.0</ele><time>2026-04-11T12:19:35.333Z</time></trkpt><trkpt lat="40.5733344" lon="9.6384932"><ele>787.0</ele><time>2026-04-11T12:19:37.321Z</time></trkpt><trkpt lat="40.5734446" lon="9.6385196"><ele>787.0</ele><time>2026-04-11T12:19:39.323Z</time></trkpt><trkpt lat="40.5735506" lon="9.6385321"><ele>787.0</ele><time>2026-04-11T12:19:41.338Z</time></trkpt><trkpt lat="40.5736461" lon="9.6384872"><ele>787.0</ele><time>2026-04-11T12:19:43.314Z</time></trkpt><trkpt lat="40.5737332" lon="9.6384295"><ele>787.0</ele><time>2026-04-11T12:19:45.302Z</time></trkpt><trkpt lat="40.5738154" lon="9.6383717"><ele>785.5714285714286</ele><time>2026-04-11T12:19:47.315Z</time></trkpt><trkpt lat="40.573881" lon="9.6383545"><ele>784.1428571428571</ele><time>2026-04-11T12:19:49.304Z</time></trkpt><trkpt lat="40.5739074" lon="9.6384442"><ele>782.7142857142858</ele><time>2026-04-11T12:19:52.288Z</time></trkpt><trkpt lat="40.5738316" lon="9.6385001"><ele>781.2857142857142</ele><time>2026-04-11T12:19:55.313Z</time></trkpt><trkpt lat="40.5737667" lon="9.6385473"><ele>779.8571428571429</ele><time>2026-04-11T12:19:58.297Z</time></trkpt><trkpt lat="40.573726" lon="9.6386169"><ele>778.4285714285714</ele><time>2026-04-11T12:20:19.254Z</time></trkpt><trkpt lat="40.5736851" lon="9.6386889"><ele>777.0</ele><time>2026-04-11T12:20:21.25Z</time></trkpt><trkpt lat="40.5736344" lon="9.6387513"><ele>774.6666666666666</ele><time>2026-04-11T12:20:23.255Z</time></trkpt><trkpt lat="40.5735717" lon="9.6387863"><ele>772.3333333333334</ele><time>2026-04-11T12:20:25.252Z</time></trkpt><trkpt lat="40.573507" lon="9.6387913"><ele>770.0</ele><time>2026-04-11T12:20:27.249Z</time></trkpt><trkpt lat="40.5734338" lon="9.6388012"><ele>767.6666666666667</ele><time>2026-04-11T12:20:29.242Z</time></trkpt><trkpt lat="40.5733573" lon="9.6388379"><ele>765.3333333333334</ele><time>2026-04-11T12:20:31.255Z</time></trkpt><trkpt lat="40.5732753" lon="9.6388822"><ele>763.0</ele><time>2026-04-11T12:20:33.238Z</time></trkpt><trkpt lat="40.5731808" lon="9.6389387"><ele>763.0</ele><time>2026-04-11T12:20:35.26Z</time></trkpt><trkpt lat="40.5730864" lon="9.6389948"><ele>763.0</ele><time>2026-04-11T12:20:37.225Z</time></trkpt><trkpt lat="40.5729899" lon="9.6390701"><ele>763.0</ele><time>2026-04-11T12:20:39.235Z</time></trkpt><trkpt lat="40.5729377" lon="9.6391181"><ele>763.0</ele><time>2026-04-11T12:20:40.328Z</time></trkpt><trkpt lat="40.5728389" lon="9.6392154"><ele>763.0</ele><time>2026-04-11T12:20:42.362Z</time></trkpt><trkpt lat="40.5727243" lon="9.6392785"><ele>765.0</ele><time>2026-04-11T12:20:44.326Z</time></trkpt><trkpt lat="40.5726644" lon="9.6393092"><ele>767.0</ele><time>2026-04-11T12:20:45.337Z</time></trkpt><trkpt lat="40.5726097" lon="9.6393503"><ele>769.0</ele><time>2026-04-11T12:20:46.36Z</time></trkpt><trkpt lat="40.5725244" lon="9.639446"><ele>771.0</ele><time>2026-04-11T12:20:48.345Z</time></trkpt><trkpt lat="40.5724353" lon="9.6394906"><ele>772.9999999999999</ele><time>2026-04-11T12:20:50.317Z</time></trkpt><trkpt lat="40.5723342" lon="9.6395064"><ele>775.0</ele><time>2026-04-11T12:20:52.311Z</time></trkpt><trkpt lat="40.5722361" lon="9.6395826"><ele>774.4999999999999</ele><time>2026-04-11T12:20:54.311Z</time></trkpt><trkpt lat="40.5721893" lon="9.6396445"><ele>774.0</ele><time>2026-04-11T12:20:55.332Z</time></trkpt><trkpt lat="40.5721525" lon="9.6397163"><ele>773.5</ele><time>2026-04-11T12:20:56.307Z</time></trkpt><trkpt lat="40.5721025" lon="9.6398689"><ele>773.0</ele><time>2026-04-11T12:20:58.315Z</time></trkpt><trkpt lat="40.572077" lon="9.6399485"><ele>772.4999999999999</ele><time>2026-04-11T12:20:59.333Z</time></trkpt><trkpt lat="40.5720465" lon="9.6400251"><ele>772.0</ele><time>2026-04-11T12:21:00.303Z</time></trkpt><trkpt lat="40.5719804" lon="9.6401516"><ele>772.0</ele><time>2026-04-11T12:21:02.304Z</time></trkpt><trkpt lat="40.5719074" lon="9.6402421"><ele>772.0</ele><time>2026-04-11T12:21:04.304Z</time></trkpt><trkpt lat="40.5718243" lon="9.6403109"><ele>772.0</ele><time>2026-04-11T12:21:06.303Z</time></trkpt><trkpt lat="40.5717475" lon="9.6403795"><ele>772.0</ele><time>2026-04-11T12:21:08.303Z</time></trkpt><trkpt lat="40.5716716" lon="9.6404443"><ele>772.0</ele><time>2026-04-11T12:21:10.321Z</time></trkpt><trkpt lat="40.5715809" lon="9.6405102"><ele>766.4000000000001</ele><time>2026-04-11T12:21:12.288Z</time></trkpt><trkpt lat="40.5714909" lon="9.640567"><ele>760.8000000000001</ele><time>2026-04-11T12:21:14.292Z</time></trkpt><trkpt lat="40.5714008" lon="9.6406401"><ele>755.2</ele><time>2026-04-11T12:21:16.295Z</time></trkpt><trkpt lat="40.571342" lon="9.6407677"><ele>749.6</ele><time>2026-04-11T12:21:18.293Z</time></trkpt><trkpt lat="40.5713128" lon="9.64091"><ele>744.0</ele><time>2026-04-11T12:21:20.322Z</time></trkpt><trkpt lat="40.5712632" lon="9.6410552"><ele>747.0</ele><time>2026-04-11T12:21:22.296Z</time></trkpt><trkpt lat="40.5712066" lon="9.6411956"><ele>750.0</ele><time>2026-04-11T12:21:24.286Z</time></trkpt><trkpt lat="40.571153" lon="9.6413333"><ele>753.0</ele><time>2026-04-11T12:21:26.292Z</time></trkpt><trkpt lat="40.5711321" lon="9.6414478"><ele>756.0</ele><time>2026-04-11T12:21:28.286Z</time></trkpt><trkpt lat="40.5711618" lon="9.6415294"><ele>759.0</ele><time>2026-04-11T12:21:30.283Z</time></trkpt><trkpt lat="40.5712408" lon="9.641597"><ele>751.2</ele><time>2026-04-11T12:21:32.296Z</time></trkpt><trkpt lat="40.5713454" lon="9.6416667"><ele>743.4000000000001</ele><time>2026-04-11T12:21:34.287Z</time></trkpt><trkpt lat="40.5714404" lon="9.6417415"><ele>735.6</ele><time>2026-04-11T12:21:36.294Z</time></trkpt><trkpt lat="40.5715015" lon="9.6418212"><ele>727.8</ele><time>2026-04-11T12:21:38.273Z</time></trkpt><trkpt lat="40.5715174" lon="9.6419118"><ele>720.0</ele><time>2026-04-11T12:21:40.273Z</time></trkpt><trkpt lat="40.5715182" lon="9.6420173"><ele>718.8</ele><time>2026-04-11T12:21:42.274Z</time></trkpt><trkpt lat="40.5715262" lon="9.6421396"><ele>717.6</ele><time>2026-04-11T12:21:44.271Z</time></trkpt><trkpt lat="40.571524" lon="9.6422636"><ele>716.4000000000001</ele><time>2026-04-11T12:21:46.284Z</time></trkpt><trkpt lat="40.5715098" lon="9.6423895"><ele>715.2</ele><time>2026-04-11T12:21:48.271Z</time></trkpt><trkpt lat="40.5714906" lon="9.6425156"><ele>714.0</ele><time>2026-04-11T12:21:50.296Z</time></trkpt><trkpt lat="40.5714644" lon="9.642641"><ele>714.0</ele><time>2026-04-11T12:21:52.279Z</time></trkpt><trkpt lat="40.5714444" lon="9.6427656"><ele>714.0</ele><time>2026-04-11T12:21:54.269Z</time></trkpt><trkpt lat="40.5714279" lon="9.6428903"><ele>714.0</ele><time>2026-04-11T12:21:56.293Z</time></trkpt><trkpt lat="40.5714282" lon="9.6430198"><ele>714.0</ele><time>2026-04-11T12:21:58.277Z</time></trkpt><trkpt lat="40.5714412" lon="9.6431405"><ele>714.0</ele><time>2026-04-11T12:22:00.27Z</time></trkpt><trkpt lat="40.5714306" lon="9.6432573"><ele>713.0</ele><time>2026-04-11T12:22:02.27Z</time></trkpt><trkpt lat="40.5714146" lon="9.643371"><ele>712.0</ele><time>2026-04-11T12:22:04.275Z</time></trkpt><trkpt lat="40.5714159" lon="9.6435013"><ele>711.0</ele><time>2026-04-11T12:22:06.287Z</time></trkpt><trkpt lat="40.5714228" lon="9.6436413"><ele>710.0</ele><time>2026-04-11T12:22:08.263Z</time></trkpt><trkpt lat="40.5714243" lon="9.6437909"><ele>709.0</ele><time>2026-04-11T12:22:10.269Z</time></trkpt><trkpt lat="40.5714241" lon="9.6439391"><ele>707.8000000000001</ele><time>2026-04-11T12:22:12.292Z</time></trkpt><trkpt lat="40.5714194" lon="9.6440859"><ele>706.6</ele><time>2026-04-11T12:22:14.271Z</time></trkpt><trkpt lat="40.5714228" lon="9.6442454"><ele>705.4</ele><time>2026-04-11T12:22:16.268Z</time></trkpt><trkpt lat="40.5714302" lon="9.6443893"><ele>704.2</ele><time>2026-04-11T12:22:18.285Z</time></trkpt><trkpt lat="40.5714393" lon="9.6445222"><ele>703.0</ele><time>2026-04-11T12:22:20.261Z</time></trkpt><trkpt lat="40.5714547" lon="9.6446528"><ele>702.8</ele><time>2026-04-11T12:22:22.267Z</time></trkpt><trkpt lat="40.5714725" lon="9.6447962"><ele>702.5999999999999</ele><time>2026-04-11T12:22:24.255Z</time></trkpt><trkpt lat="40.5714927" lon="9.6449472"><ele>702.4000000000001</ele><time>2026-04-11T12:22:26.269Z</time></trkpt><trkpt lat="40.5715145" lon="9.6450907"><ele>702.2</ele><time>2026-04-11T12:22:28.257Z</time></trkpt><trkpt lat="40.5715273" lon="9.6452302"><ele>702.0</ele><time>2026-04-11T12:22:30.263Z</time></trkpt><trkpt lat="40.5715429" lon="9.6453699"><ele>701.2</ele><time>2026-04-11T12:22:32.272Z</time></trkpt><trkpt lat="40.5715576" lon="9.6455053"><ele>700.4000000000001</ele><time>2026-04-11T12:22:34.271Z</time></trkpt><trkpt lat="40.5715433" lon="9.6456293"><ele>699.5999999999999</ele><time>2026-04-11T12:22:36.26Z</time></trkpt><trkpt lat="40.5715058" lon="9.6457529"><ele>698.8</ele><time>2026-04-11T12:22:38.284Z</time></trkpt><trkpt lat="40.5714754" lon="9.6458819"><ele>698.0</ele><time>2026-04-11T12:22:40.267Z</time></trkpt><trkpt lat="40.571461" lon="9.645991"><ele>697.9999999999999</ele><time>2026-04-11T12:22:42.265Z</time></trkpt><trkpt lat="40.5714208" lon="9.6460815"><ele>698.0</ele><time>2026-04-11T12:22:44.258Z</time></trkpt><trkpt lat="40.571377" lon="9.646163"><ele>698.0</ele><time>2026-04-11T12:22:46.249Z</time></trkpt><trkpt lat="40.5713391" lon="9.6462428"><ele>698.0</ele><time>2026-04-11T12:22:48.301Z</time></trkpt><trkpt lat="40.5713058" lon="9.6463325"><ele>698.0</ele><time>2026-04-11T12:22:50.245Z</time></trkpt><trkpt lat="40.5712777" lon="9.6464182"><ele>697.9999999999999</ele><time>2026-04-11T12:22:52.243Z</time></trkpt><trkpt lat="40.571252" lon="9.6465108"><ele>698.0</ele><time>2026-04-11T12:22:54.25Z</time></trkpt><trkpt lat="40.5712208" lon="9.6466005"><ele>697.0</ele><time>2026-04-11T12:22:56.252Z</time></trkpt><trkpt lat="40.5711732" lon="9.6466695"><ele>696.0</ele><time>2026-04-11T12:22:58.24Z</time></trkpt><trkpt lat="40.5711158" lon="9.6467191"><ele>695.0</ele><time>2026-04-11T12:23:00.248Z</time></trkpt><trkpt lat="40.5710624" lon="9.6467827"><ele>694.0</ele><time>2026-04-11T12:23:02.244Z</time></trkpt><trkpt lat="40.5710233" lon="9.6468742"><ele>693.0</ele><time>2026-04-11T12:23:04.244Z</time></trkpt><trkpt lat="40.5709751" lon="9.6469695"><ele>692.0</ele><time>2026-04-11T12:23:06.229Z</time></trkpt><trkpt lat="40.5709127" lon="9.6470713"><ele>688.5</ele><time>2026-04-11T12:23:08.252Z</time></trkpt><trkpt lat="40.5708561" lon="9.6471792"><ele>685.0</ele><time>2026-04-11T12:23:10.238Z</time></trkpt><trkpt lat="40.5708026" lon="9.6472746"><ele>681.5</ele><time>2026-04-11T12:23:12.254Z</time></trkpt><trkpt lat="40.570742" lon="9.6473374"><ele>678.0</ele><time>2026-04-11T12:23:14.333Z</time></trkpt><trkpt lat="40.5706755" lon="9.6473778"><ele>674.5</ele><time>2026-04-11T12:23:16.326Z</time></trkpt><trkpt lat="40.5706089" lon="9.6474451"><ele>671.0</ele><time>2026-04-11T12:23:18.326Z</time></trkpt><trkpt lat="40.5705599" lon="9.6475534"><ele>671.0</ele><time>2026-04-11T12:23:20.332Z</time></trkpt><trkpt lat="40.5705035" lon="9.6476743"><ele>671.0</ele><time>2026-04-11T12:23:22.328Z</time></trkpt><trkpt lat="40.5704454" lon="9.6478005"><ele>671.0</ele><time>2026-04-11T12:23:24.369Z</time></trkpt><trkpt lat="40.5703889" lon="9.6479304"><ele>671.0</ele><time>2026-04-11T12:23:26.346Z</time></trkpt><trkpt lat="40.5703314" lon="9.6480499"><ele>671.0</ele><time>2026-04-11T12:23:28.338Z</time></trkpt><trkpt lat="40.5702775" lon="9.6481707"><ele>673.0</ele><time>2026-04-11T12:23:30.322Z</time></trkpt><trkpt lat="40.5702196" lon="9.6482901"><ele>675.0</ele><time>2026-04-11T12:23:32.324Z</time></trkpt><trkpt lat="40.57016" lon="9.6484114"><ele>677.0</ele><time>2026-04-11T12:23:34.331Z</time></trkpt><trkpt lat="40.5701079" lon="9.6485399"><ele>679.0</ele><time>2026-04-11T12:23:36.327Z</time></trkpt><trkpt lat="40.5700547" lon="9.6486723"><ele>681.0</ele><time>2026-04-11T12:23:38.316Z</time></trkpt><trkpt lat="40.5699867" lon="9.648785"><ele>675.8</ele><time>2026-04-11T12:23:40.323Z</time></trkpt><trkpt lat="40.569914" lon="9.6488785"><ele>670.5999999999999</ele><time>2026-04-11T12:23:42.33Z</time></trkpt><trkpt lat="40.5698477" lon="9.648977"><ele>665.4</ele><time>2026-04-11T12:23:44.304Z</time></trkpt><trkpt lat="40.5697942" lon="9.6490752"><ele>660.2</ele><time>2026-04-11T12:23:46.306Z</time></trkpt><trkpt lat="40.569765" lon="9.6492094"><ele>655.0</ele><time>2026-04-11T12:23:48.322Z</time></trkpt><trkpt lat="40.5697538" lon="9.6492933"><ele>655.0</ele><time>2026-04-11T12:23:49.309Z</time></trkpt><trkpt lat="40.5697407" lon="9.6493784"><ele>655.0</ele><time>2026-04-11T12:23:50.303Z</time></trkpt><trkpt lat="40.5697249" lon="9.6494621"><ele>655.0</ele><time>2026-04-11T12:23:51.3Z</time></trkpt><trkpt lat="40.5696927" lon="9.649617"><ele>655.0</ele><time>2026-04-11T12:23:53.317Z</time></trkpt><trkpt lat="40.5696525" lon="9.6497712"><ele>655.0</ele><time>2026-04-11T12:23:55.306Z</time></trkpt><trkpt lat="40.5696151" lon="9.6499196"><ele>651.6666666666667</ele><time>2026-04-11T12:23:57.307Z</time></trkpt><trkpt lat="40.5695725" lon="9.6500269"><ele>648.3333333333334</ele><time>2026-04-11T12:23:59.321Z</time></trkpt><trkpt lat="40.5695363" lon="9.6501103"><ele>645.0</ele><time>2026-04-11T12:24:01.314Z</time></trkpt><trkpt lat="40.5696106" lon="9.6501372"><ele>641.6666666666666</ele><time>2026-04-11T12:24:05.297Z</time></trkpt><trkpt lat="40.5696613" lon="9.6500621"><ele>638.3333333333333</ele><time>2026-04-11T12:24:07.311Z</time></trkpt><trkpt lat="40.5697332" lon="9.6499729"><ele>635.0</ele><time>2026-04-11T12:24:09.306Z</time></trkpt><trkpt lat="40.5698071" lon="9.6498953"><ele>635.0</ele><time>2026-04-11T12:24:11.282Z</time></trkpt><trkpt lat="40.569884" lon="9.6498068"><ele>635.0</ele><time>2026-04-11T12:24:13.28Z</time></trkpt><trkpt lat="40.5699602" lon="9.6497094"><ele>635.0</ele><time>2026-04-11T12:24:15.28Z</time></trkpt><trkpt lat="40.5700328" lon="9.6495961"><ele>635.0</ele><time>2026-04-11T12:24:17.276Z</time></trkpt><trkpt lat="40.5701037" lon="9.6494973"><ele>635.0</ele><time>2026-04-11T12:24:19.295Z</time></trkpt><trkpt lat="40.5701862" lon="9.6494079"><ele>632.75</ele><time>2026-04-11T12:24:21.3Z</time></trkpt><trkpt lat="40.5702651" lon="9.6493126"><ele>630.5</ele><time>2026-04-11T12:24:23.279Z</time></trkpt><trkpt lat="40.5703525" lon="9.6492143"><ele>628.25</ele><time>2026-04-11T12:24:25.278Z</time></trkpt><trkpt lat="40.5704505" lon="9.6491257"><ele>626.0</ele><time>2026-04-11T12:24:27.279Z</time></trkpt><trkpt lat="40.5705645" lon="9.6490662"><ele>626.0</ele><time>2026-04-11T12:24:29.257Z</time></trkpt><trkpt lat="40.5706752" lon="9.6490491"><ele>626.0</ele><time>2026-04-11T12:24:31.257Z</time></trkpt><trkpt lat="40.5707763" lon="9.6490396"><ele>626.0</ele><time>2026-04-11T12:24:33.258Z</time></trkpt><trkpt lat="40.5708605" lon="9.6489977"><ele>626.0</ele><time>2026-04-11T12:24:35.251Z</time></trkpt><trkpt lat="40.5709416" lon="9.6489207"><ele>626.0</ele><time>2026-04-11T12:24:37.27Z</time></trkpt><trkpt lat="40.5710245" lon="9.6488211"><ele>626.0</ele><time>2026-04-11T12:24:39.26Z</time></trkpt><trkpt lat="40.5711215" lon="9.6487107"><ele>626.0</ele><time>2026-04-11T12:24:41.266Z</time></trkpt><trkpt lat="40.5711687" lon="9.6486539"><ele>626.0</ele><time>2026-04-11T12:24:42.247Z</time></trkpt><trkpt lat="40.5712203" lon="9.6485964"><ele>626.0</ele><time>2026-04-11T12:24:43.246Z</time></trkpt><trkpt lat="40.5712762" lon="9.648541"><ele>626.0</ele><time>2026-04-11T12:24:44.244Z</time></trkpt><trkpt lat="40.5713355" lon="9.6484892"><ele>626.0</ele><time>2026-04-11T12:24:45.238Z</time></trkpt><trkpt lat="40.5713999" lon="9.648443"><ele>625.8333333333333</ele><time>2026-04-11T12:24:46.24Z</time></trkpt><trkpt lat="40.5714626" lon="9.6483955"><ele>625.6666666666666</ele><time>2026-04-11T12:24:47.24Z</time></trkpt><trkpt lat="40.5715239" lon="9.6483481"><ele>625.5</ele><time>2026-04-11T12:24:48.238Z</time></trkpt><trkpt lat="40.5715832" lon="9.6483014"><ele>625.3333333333334</ele><time>2026-04-11T12:24:49.24Z</time></trkpt><trkpt lat="40.5716862" lon="9.648244"><ele>625.1666666666667</ele><time>2026-04-11T12:24:51.228Z</time></trkpt><trkpt lat="40.5717806" lon="9.6482498"><ele>625.0</ele><time>2026-04-11T12:24:53.24Z</time></trkpt><trkpt lat="40.5718837" lon="9.6482825"><ele>625.0</ele><time>2026-04-11T12:24:55.234Z</time></trkpt><trkpt lat="40.5719808" lon="9.6483167"><ele>625.0</ele><time>2026-04-11T12:24:57.34Z</time></trkpt><trkpt lat="40.5720592" lon="9.6483294"><ele>625.0</ele><time>2026-04-11T12:24:59.335Z</time></trkpt><trkpt lat="40.5721365" lon="9.6482964"><ele>625.0</ele><time>2026-04-11T12:25:01.34Z</time></trkpt><trkpt lat="40.572216" lon="9.6482377"><ele>625.0</ele><time>2026-04-11T12:25:03.349Z</time></trkpt><trkpt lat="40.5723061" lon="9.6481555"><ele>625.8</ele><time>2026-04-11T12:25:05.325Z</time></trkpt><trkpt lat="40.5723855" lon="9.6480626"><ele>626.6</ele><time>2026-04-11T12:25:07.327Z</time></trkpt><trkpt lat="40.5724472" lon="9.6479584"><ele>627.4</ele><time>2026-04-11T12:25:09.322Z</time></trkpt><trkpt lat="40.5725092" lon="9.6478283"><ele>628.2</ele><time>2026-04-11T12:25:11.314Z</time></trkpt><trkpt lat="40.5725772" lon="9.6477058"><ele>629.0</ele><time>2026-04-11T12:25:13.332Z</time></trkpt><trkpt lat="40.5726489" lon="9.6476082"><ele>629.0</ele><time>2026-04-11T12:25:15.314Z</time></trkpt><trkpt lat="40.5727292" lon="9.6475338"><ele>629.0</ele><time>2026-04-11T12:25:17.324Z</time></trkpt><trkpt lat="40.5728192" lon="9.6474818"><ele>629.0</ele><time>2026-04-11T12:25:19.302Z</time></trkpt><trkpt lat="40.5729201" lon="9.6474427"><ele>629.0</ele><time>2026-04-11T12:25:21.311Z</time></trkpt><trkpt lat="40.5730409" lon="9.6474108"><ele>629.0</ele><time>2026-04-11T12:25:23.306Z</time></trkpt><trkpt lat="40.573154" lon="9.6473793"><ele>621.8</ele><time>2026-04-11T12:25:25.301Z</time></trkpt><trkpt lat="40.5732621" lon="9.6473347"><ele>614.5999999999999</ele><time>2026-04-11T12:25:27.294Z</time></trkpt><trkpt lat="40.5733648" lon="9.6472812"><ele>607.4</ele><time>2026-04-11T12:25:29.311Z</time></trkpt><trkpt lat="40.5734511" lon="9.6472069"><ele>600.1999999999999</ele><time>2026-04-11T12:25:31.301Z</time></trkpt><trkpt lat="40.5735194" lon="9.6471173"><ele>593.0</ele><time>2026-04-11T12:25:33.301Z</time></trkpt><trkpt lat="40.5735942" lon="9.6470162"><ele>592.6</ele><time>2026-04-11T12:25:35.291Z</time></trkpt><trkpt lat="40.5736769" lon="9.646905"><ele>592.1999999999999</ele><time>2026-04-11T12:25:37.287Z</time></trkpt><trkpt lat="40.5737556" lon="9.6468075"><ele>591.8</ele><time>2026-04-11T12:25:39.285Z</time></trkpt><trkpt lat="40.5738275" lon="9.6467127"><ele>591.4</ele><time>2026-04-11T12:25:41.284Z</time></trkpt><trkpt lat="40.5738921" lon="9.6466233"><ele>591.0</ele><time>2026-04-11T12:25:43.271Z</time></trkpt><trkpt lat="40.5739582" lon="9.6465336"><ele>591.0</ele><time>2026-04-11T12:25:45.266Z</time></trkpt><trkpt lat="40.5740332" lon="9.6464614"><ele>591.0</ele><time>2026-04-11T12:25:47.277Z</time></trkpt><trkpt lat="40.5741244" lon="9.6464233"><ele>591.0</ele><time>2026-04-11T12:25:49.26Z</time></trkpt><trkpt lat="40.5742423" lon="9.6463975"><ele>591.0</ele><time>2026-04-11T12:25:51.273Z</time></trkpt><trkpt lat="40.5743056" lon="9.6463806"><ele>591.0</ele><time>2026-04-11T12:25:52.27Z</time></trkpt><trkpt lat="40.5743726" lon="9.6463672"><ele>591.0</ele><time>2026-04-11T12:25:53.249Z</time></trkpt><trkpt lat="40.5744369" lon="9.6463613"><ele>589.5</ele><time>2026-04-11T12:25:54.271Z</time></trkpt><trkpt lat="40.5745655" lon="9.6463492"><ele>588.0</ele><time>2026-04-11T12:25:56.255Z</time></trkpt><trkpt lat="40.5746314" lon="9.6463416"><ele>586.5</ele><time>2026-04-11T12:25:57.254Z</time></trkpt><trkpt lat="40.574699" lon="9.6463425"><ele>585.0</ele><time>2026-04-11T12:25:58.251Z</time></trkpt><trkpt lat="40.5747656" lon="9.6463648"><ele>583.5</ele><time>2026-04-11T12:25:59.257Z</time></trkpt><trkpt lat="40.5748302" lon="9.6464027"><ele>582.0</ele><time>2026-04-11T12:26:00.244Z</time></trkpt><trkpt lat="40.574903" lon="9.6464501"><ele>582.0</ele><time>2026-04-11T12:26:01.254Z</time></trkpt><trkpt lat="40.5749678" lon="9.6464961"><ele>582.0</ele><time>2026-04-11T12:26:02.25Z</time></trkpt><trkpt lat="40.5750306" lon="9.6465327"><ele>582.0</ele><time>2026-04-11T12:26:03.245Z</time></trkpt><trkpt lat="40.57509" lon="9.6465653"><ele>582.0</ele><time>2026-04-11T12:26:04.242Z</time></trkpt><trkpt lat="40.5751942" lon="9.6466067"><ele>582.0</ele><time>2026-04-11T12:26:06.237Z</time></trkpt><trkpt lat="40.5753271" lon="9.6466301"><ele>581.6666666666666</ele><time>2026-04-11T12:26:08.237Z</time></trkpt><trkpt lat="40.5754" lon="9.6466545"><ele>581.3333333333334</ele><time>2026-04-11T12:26:09.233Z</time></trkpt><trkpt lat="40.575479" lon="9.6466755"><ele>581.0</ele><time>2026-04-11T12:26:10.243Z</time></trkpt><trkpt lat="40.5755522" lon="9.6466872"><ele>580.6666666666667</ele><time>2026-04-11T12:26:11.327Z</time></trkpt><trkpt lat="40.5756654" lon="9.6466815"><ele>580.3333333333334</ele><time>2026-04-11T12:26:13.327Z</time></trkpt><trkpt lat="40.5757495" lon="9.6466743"><ele>580.0</ele><time>2026-04-11T12:26:15.325Z</time></trkpt><trkpt lat="40.5757936" lon="9.6467512"><ele>580.0</ele><time>2026-04-11T12:26:18.323Z</time></trkpt><trkpt lat="40.5757497" lon="9.6468192"><ele>580.0</ele><time>2026-04-11T12:26:20.323Z</time></trkpt><trkpt lat="40.5756779" lon="9.6468443"><ele>580.0</ele><time>2026-04-11T12:26:22.324Z</time></trkpt><trkpt lat="40.5755791" lon="9.6468336"><ele>580.0</ele><time>2026-04-11T12:26:24.317Z</time></trkpt><trkpt lat="40.5754901" lon="9.6468413"><ele>580.0</ele><time>2026-04-11T12:26:26.319Z</time></trkpt><trkpt lat="40.5753918" lon="9.6468664"><ele>580.0</ele><time>2026-04-11T12:26:28.311Z</time></trkpt><trkpt lat="40.5752986" lon="9.646905"><ele>580.4</ele><time>2026-04-11T12:26:30.307Z</time></trkpt><trkpt lat="40.5752091" lon="9.6469483"><ele>580.8</ele><time>2026-04-11T12:26:32.303Z</time></trkpt><trkpt lat="40.5750977" lon="9.6469873"><ele>581.2</ele><time>2026-04-11T12:26:34.305Z</time></trkpt><trkpt lat="40.5749947" lon="9.6469833"><ele>581.6</ele><time>2026-04-11T12:26:36.3Z</time></trkpt><trkpt lat="40.5749094" lon="9.6469635"><ele>582.0</ele><time>2026-04-11T12:26:38.308Z</time></trkpt><trkpt lat="40.5748203" lon="9.6469384"><ele>582.0</ele><time>2026-04-11T12:26:40.321Z</time></trkpt><trkpt lat="40.5747137" lon="9.6469551"><ele>582.0</ele><time>2026-04-11T12:26:42.297Z</time></trkpt><trkpt lat="40.5746161" lon="9.6470317"><ele>582.0</ele><time>2026-04-11T12:26:44.292Z</time></trkpt><trkpt lat="40.574526" lon="9.6470777"><ele>582.0</ele><time>2026-04-11T12:26:46.304Z</time></trkpt><trkpt lat="40.5744112" lon="9.6471018"><ele>582.0</ele><time>2026-04-11T12:26:48.285Z</time></trkpt><trkpt lat="40.5743028" lon="9.6471711"><ele>579.0</ele><time>2026-04-11T12:26:50.32Z</time></trkpt><trkpt lat="40.5742216" lon="9.647282"><ele>576.0</ele><time>2026-04-11T12:26:52.286Z</time></trkpt><trkpt lat="40.5741694" lon="9.6474249"><ele>573.0</ele><time>2026-04-11T12:26:54.278Z</time></trkpt><trkpt lat="40.574154" lon="9.6475081"><ele>570.0</ele><time>2026-04-11T12:26:55.304Z</time></trkpt><trkpt lat="40.574135" lon="9.6475941"><ele>567.0</ele><time>2026-04-11T12:26:56.29Z</time></trkpt><trkpt lat="40.5741127" lon="9.6476826"><ele>564.0</ele><time>2026-04-11T12:26:57.275Z</time></trkpt><trkpt lat="40.5740889" lon="9.6477682"><ele>560.4285714285714</ele><time>2026-04-11T12:26:58.273Z</time></trkpt><trkpt lat="40.57407" lon="9.6478511"><ele>556.8571428571429</ele><time>2026-04-11T12:26:59.27Z</time></trkpt><trkpt lat="40.5740442" lon="9.6479337"><ele>553.2857142857142</ele><time>2026-04-11T12:27:00.292Z</time></trkpt><trkpt lat="40.5740189" lon="9.6480171"><ele>549.7142857142858</ele><time>2026-04-11T12:27:01.27Z</time></trkpt><trkpt lat="40.5739961" lon="9.6480985"><ele>546.1428571428571</ele><time>2026-04-11T12:27:02.299Z</time></trkpt><trkpt lat="40.5739776" lon="9.6481848"><ele>542.5714285714286</ele><time>2026-04-11T12:27:03.265Z</time></trkpt><trkpt lat="40.5739665" lon="9.6482783"><ele>539.0</ele><time>2026-04-11T12:27:04.28Z</time></trkpt><trkpt lat="40.5739586" lon="9.6483666"><ele>539.0</ele><time>2026-04-11T12:27:05.261Z</time></trkpt><trkpt lat="40.5739495" lon="9.648449"><ele>539.0</ele><time>2026-04-11T12:27:06.265Z</time></trkpt><trkpt lat="40.5739137" lon="9.6485727"><ele>539.0</ele><time>2026-04-11T12:27:08.27Z</time></trkpt><trkpt lat="40.5738683" lon="9.648641"><ele>539.0</ele><time>2026-04-11T12:27:10.283Z</time></trkpt><trkpt lat="40.573835" lon="9.6487252"><ele>539.0</ele><time>2026-04-11T12:27:14.272Z</time></trkpt><trkpt lat="40.573928" lon="9.6487285"><ele>539.0</ele><time>2026-04-11T12:27:18.29Z</time></trkpt><trkpt lat="40.5739991" lon="9.6486741"><ele>539.0</ele><time>2026-04-11T12:27:20.256Z</time></trkpt><trkpt lat="40.5740598" lon="9.6485983"><ele>539.0</ele><time>2026-04-11T12:27:22.252Z</time></trkpt><trkpt lat="40.5741095" lon="9.6484956"><ele>539.0</ele><time>2026-04-11T12:27:24.265Z</time></trkpt><trkpt lat="40.5741483" lon="9.6483747"><ele>539.0</ele><time>2026-04-11T12:27:26.246Z</time></trkpt><trkpt lat="40.5741862" lon="9.6482476"><ele>539.0</ele><time>2026-04-11T12:27:28.254Z</time></trkpt><trkpt lat="40.5742388" lon="9.6481233"><ele>539.0</ele><time>2026-04-11T12:27:30.261Z</time></trkpt><trkpt lat="40.5742984" lon="9.6480265"><ele>539.0</ele><time>2026-04-11T12:27:32.247Z</time></trkpt><trkpt lat="40.5743582" lon="9.6479252"><ele>539.0</ele><time>2026-04-11T12:27:34.242Z</time></trkpt><trkpt lat="40.5744195" lon="9.6478279"><ele>539.0</ele><time>2026-04-11T12:27:36.246Z</time></trkpt><trkpt lat="40.5745024" lon="9.64777"><ele>539.0</ele><time>2026-04-11T12:27:38.234Z</time></trkpt><trkpt lat="40.5746081" lon="9.6477733"><ele>533.6</ele><time>2026-04-11T12:27:40.235Z</time></trkpt><trkpt lat="40.5747263" lon="9.6478036"><ele>528.2</ele><time>2026-04-11T12:27:42.229Z</time></trkpt><trkpt lat="40.5748318" lon="9.6478571"><ele>522.8000000000001</ele><time>2026-04-11T12:27:44.252Z</time></trkpt><trkpt lat="40.5749357" lon="9.6479061"><ele>517.4</ele><time>2026-04-11T12:27:46.234Z</time></trkpt><trkpt lat="40.5750396" lon="9.6479306"><ele>512.0</ele><time>2026-04-11T12:27:48.234Z</time></trkpt><trkpt lat="40.5751414" lon="9.6479252"><ele>512.0</ele><time>2026-04-11T12:27:50.229Z</time></trkpt><trkpt lat="40.5752355" lon="9.6479183"><ele>512.0</ele><time>2026-04-11T12:27:52.229Z</time></trkpt><trkpt lat="40.5753294" lon="9.6479537"><ele>512.0</ele><time>2026-04-11T12:27:54.325Z</time></trkpt><trkpt lat="40.5754087" lon="9.6480456"><ele>512.0</ele><time>2026-04-11T12:27:56.324Z</time></trkpt><trkpt lat="40.5754814" lon="9.6481383"><ele>512.0</ele><time>2026-04-11T12:27:58.325Z</time></trkpt><trkpt lat="40.5755784" lon="9.6481871"><ele>510.25</ele><time>2026-04-11T12:28:00.329Z</time></trkpt><trkpt lat="40.5756983" lon="9.648204"><ele>508.5</ele><time>2026-04-11T12:28:02.32Z</time></trkpt><trkpt lat="40.5758192" lon="9.6482098"><ele>506.75</ele><time>2026-04-11T12:28:04.325Z</time></trkpt><trkpt lat="40.5759386" lon="9.648236"><ele>505.0</ele><time>2026-04-11T12:28:06.33Z</time></trkpt><trkpt lat="40.5760457" lon="9.6482879"><ele>505.0</ele><time>2026-04-11T12:28:08.32Z</time></trkpt><trkpt lat="40.5761376" lon="9.648374"><ele>505.0</ele><time>2026-04-11T12:28:10.324Z</time></trkpt><trkpt lat="40.5762323" lon="9.6484235"><ele>505.0</ele><time>2026-04-11T12:28:12.324Z</time></trkpt><trkpt lat="40.5763379" lon="9.6484545"><ele>505.0</ele><time>2026-04-11T12:28:14.317Z</time></trkpt><trkpt lat="40.5764541" lon="9.6484851"><ele>505.0</ele><time>2026-04-11T12:28:16.333Z</time></trkpt><trkpt lat="40.5765793" lon="9.6485213"><ele>506.4</ele><time>2026-04-11T12:28:18.315Z</time></trkpt><trkpt lat="40.576647" lon="9.6485386"><ele>507.8</ele><time>2026-04-11T12:28:19.341Z</time></trkpt><trkpt lat="40.5767659" lon="9.6485781"><ele>509.20000000000005</ele><time>2026-04-11T12:28:21.325Z</time></trkpt><trkpt lat="40.5768764" lon="9.6486253"><ele>510.6</ele><time>2026-04-11T12:28:23.324Z</time></trkpt><trkpt lat="40.5769874" lon="9.6486663"><ele>512.0</ele><time>2026-04-11T12:28:25.311Z</time></trkpt><trkpt lat="40.5770534" lon="9.648685"><ele>505.16666666666663</ele><time>2026-04-11T12:28:26.316Z</time></trkpt><trkpt lat="40.5771212" lon="9.6487003"><ele>498.3333333333333</ele><time>2026-04-11T12:28:27.315Z</time></trkpt><trkpt lat="40.5771875" lon="9.6487125"><ele>491.5</ele><time>2026-04-11T12:28:28.31Z</time></trkpt><trkpt lat="40.5772518" lon="9.648723"><ele>484.66666666666663</ele><time>2026-04-11T12:28:29.325Z</time></trkpt><trkpt lat="40.5773725" lon="9.648732"><ele>477.8333333333333</ele><time>2026-04-11T12:28:31.315Z</time></trkpt><trkpt lat="40.5774917" lon="9.6487402"><ele>471.0</ele><time>2026-04-11T12:28:33.309Z</time></trkpt><trkpt lat="40.5775971" lon="9.6487486"><ele>471.0</ele><time>2026-04-11T12:28:35.316Z</time></trkpt><trkpt lat="40.577691" lon="9.6487472"><ele>471.0</ele><time>2026-04-11T12:28:37.321Z</time></trkpt><trkpt lat="40.5777701" lon="9.6487205"><ele>471.0</ele><time>2026-04-11T12:28:39.313Z</time></trkpt><trkpt lat="40.5778512" lon="9.6486847"><ele>471.0</ele><time>2026-04-11T12:28:41.338Z</time></trkpt><trkpt lat="40.5779368" lon="9.6486552"><ele>471.0</ele><time>2026-04-11T12:28:43.333Z</time></trkpt><trkpt lat="40.5780182" lon="9.6486202"><ele>471.0</ele><time>2026-04-11T12:28:45.305Z</time></trkpt><trkpt lat="40.5781127" lon="9.6485711"><ele>474.8</ele><time>2026-04-11T12:28:47.31Z</time></trkpt><trkpt lat="40.5782114" lon="9.6485214"><ele>478.6</ele><time>2026-04-11T12:28:49.31Z</time></trkpt><trkpt lat="40.5783259" lon="9.6484985"><ele>482.4</ele><time>2026-04-11T12:28:51.295Z</time></trkpt><trkpt lat="40.5784363" lon="9.6485166"><ele>486.2</ele><time>2026-04-11T12:28:53.294Z</time></trkpt><trkpt lat="40.5785389" lon="9.6485312"><ele>490.0</ele><time>2026-04-11T12:28:55.299Z</time></trkpt><trkpt lat="40.5786436" lon="9.6485171"><ele>486.4</ele><time>2026-04-11T12:28:57.298Z</time></trkpt><trkpt lat="40.5787641" lon="9.6484965"><ele>482.8</ele><time>2026-04-11T12:28:59.293Z</time></trkpt><trkpt lat="40.5788922" lon="9.6484985"><ele>479.20000000000005</ele><time>2026-04-11T12:29:01.291Z</time></trkpt><trkpt lat="40.5789592" lon="9.6485084"><ele>475.6</ele><time>2026-04-11T12:29:02.298Z</time></trkpt><trkpt lat="40.5790265" lon="9.6485199"><ele>472.0</ele><time>2026-04-11T12:29:03.299Z</time></trkpt><trkpt lat="40.5790931" lon="9.6485277"><ele>472.00000000000006</ele><time>2026-04-11T12:29:04.295Z</time></trkpt><trkpt lat="40.579158" lon="9.6485404"><ele>472.0</ele><time>2026-04-11T12:29:05.32Z</time></trkpt><trkpt lat="40.5792776" lon="9.6485905"><ele>472.0</ele><time>2026-04-11T12:29:07.283Z</time></trkpt><trkpt lat="40.5793384" lon="9.648613"><ele>472.0</ele><time>2026-04-11T12:29:08.286Z</time></trkpt><trkpt lat="40.5794432" lon="9.6486911"><ele>472.00000000000006</ele><time>2026-04-11T12:29:10.281Z</time></trkpt><trkpt lat="40.5794875" lon="9.6487533"><ele>472.0</ele><time>2026-04-11T12:29:11.32Z</time></trkpt><trkpt lat="40.5795256" lon="9.6488237"><ele>471.6</ele><time>2026-04-11T12:29:12.28Z</time></trkpt><trkpt lat="40.5795618" lon="9.6488987"><ele>471.20000000000005</ele><time>2026-04-11T12:29:13.281Z</time></trkpt><trkpt lat="40.5795955" lon="9.6489714"><ele>470.8</ele><time>2026-04-11T12:29:14.3Z</time></trkpt><trkpt lat="40.5796559" lon="9.6491045"><ele>470.4</ele><time>2026-04-11T12:29:16.279Z</time></trkpt><trkpt lat="40.579709" lon="9.6492295"><ele>470.0</ele><time>2026-04-11T12:29:18.278Z</time></trkpt><trkpt lat="40.5797716" lon="9.6493437"><ele>467.0</ele><time>2026-04-11T12:29:20.29Z</time></trkpt><trkpt lat="40.5798394" lon="9.6494593"><ele>464.0</ele><time>2026-04-11T12:29:22.311Z</time></trkpt><trkpt lat="40.5799127" lon="9.6495432"><ele>461.0</ele><time>2026-04-11T12:29:24.277Z</time></trkpt><trkpt lat="40.5799627" lon="9.6495974"><ele>458.0</ele><time>2026-04-11T12:29:25.281Z</time></trkpt><trkpt lat="40.5800099" lon="9.6496557"><ele>455.0</ele><time>2026-04-11T12:29:26.289Z</time></trkpt><trkpt lat="40.5801011" lon="9.6497692"><ele>454.99999999999994</ele><time>2026-04-11T12:29:28.276Z</time></trkpt><trkpt lat="40.5801836" lon="9.64985"><ele>455.0</ele><time>2026-04-11T12:29:30.29Z</time></trkpt><trkpt lat="40.5802149" lon="9.6499361"><ele>455.0</ele><time>2026-04-11T12:29:33.275Z</time></trkpt><trkpt lat="40.5801512" lon="9.6499522"><ele>455.0</ele><time>2026-04-11T12:29:36.3Z</time></trkpt><trkpt lat="40.5800628" lon="9.6499206"><ele>454.99999999999994</ele><time>2026-04-11T12:29:39.29Z</time></trkpt><trkpt lat="40.5799836" lon="9.6498833"><ele>455.0</ele><time>2026-04-11T12:29:41.28Z</time></trkpt><trkpt lat="40.5798974" lon="9.6498201"><ele>455.0</ele><time>2026-04-11T12:29:43.278Z</time></trkpt><trkpt lat="40.5798135" lon="9.6497617"><ele>455.0</ele><time>2026-04-11T12:29:45.278Z</time></trkpt><trkpt lat="40.5797297" lon="9.6496962"><ele>455.0</ele><time>2026-04-11T12:29:47.272Z</time></trkpt><trkpt lat="40.5796442" lon="9.6496293"><ele>455.0</ele><time>2026-04-11T12:29:49.262Z</time></trkpt><trkpt lat="40.5795584" lon="9.6495656"><ele>455.0</ele><time>2026-04-11T12:29:51.261Z</time></trkpt><trkpt lat="40.5794709" lon="9.6494995"><ele>455.6</ele><time>2026-04-11T12:29:53.263Z</time></trkpt><trkpt lat="40.5793868" lon="9.6494333"><ele>456.2</ele><time>2026-04-11T12:29:55.279Z</time></trkpt><trkpt lat="40.5793104" lon="9.6493483"><ele>456.79999999999995</ele><time>2026-04-11T12:29:57.268Z</time></trkpt><trkpt lat="40.5792232" lon="9.6492921"><ele>457.4</ele><time>2026-04-11T12:29:59.28Z</time></trkpt><trkpt lat="40.5791349" lon="9.6492889"><ele>458.0</ele><time>2026-04-11T12:30:01.26Z</time></trkpt><trkpt lat="40.5790596" lon="9.6493212"><ele>458.0</ele><time>2026-04-11T12:30:03.273Z</time></trkpt><trkpt lat="40.5789926" lon="9.6493649"><ele>458.0</ele><time>2026-04-11T12:30:05.265Z</time></trkpt><trkpt lat="40.5789285" lon="9.6493928"><ele>458.0</ele><time>2026-04-11T12:30:07.294Z</time></trkpt><trkpt lat="40.5788622" lon="9.6494198"><ele>458.0</ele><time>2026-04-11T12:30:09.271Z</time></trkpt><trkpt lat="40.578795" lon="9.649444"><ele>458.0</ele><time>2026-04-11T12:30:11.26Z</time></trkpt><trkpt lat="40.5787263" lon="9.6494812"><ele>458.0</ele><time>2026-04-11T12:30:13.254Z</time></trkpt><trkpt lat="40.5786532" lon="9.6495165"><ele>458.0</ele><time>2026-04-11T12:30:15.258Z</time></trkpt><trkpt lat="40.5785834" lon="9.6495389"><ele>452.99999999999994</ele><time>2026-04-11T12:30:17.255Z</time></trkpt><trkpt lat="40.5785133" lon="9.6495659"><ele>448.0</ele><time>2026-04-11T12:30:19.262Z</time></trkpt><trkpt lat="40.5784409" lon="9.6496396"><ele>443.0</ele><time>2026-04-11T12:30:21.273Z</time></trkpt><trkpt lat="40.5783856" lon="9.6497466"><ele>438.0</ele><time>2026-04-11T12:30:23.255Z</time></trkpt><trkpt lat="40.5783369" lon="9.6498507"><ele>432.99999999999994</ele><time>2026-04-11T12:30:25.245Z</time></trkpt><trkpt lat="40.5782827" lon="9.6499418"><ele>428.0</ele><time>2026-04-11T12:30:27.256Z</time></trkpt><trkpt lat="40.5782149" lon="9.6500349"><ele>428.0</ele><time>2026-04-11T12:30:29.253Z</time></trkpt><trkpt lat="40.5781303" lon="9.6501062"><ele>427.99999999999994</ele><time>2026-04-11T12:30:31.244Z</time></trkpt><trkpt lat="40.5780187" lon="9.6501268"><ele>427.99999999999994</ele><time>2026-04-11T12:30:33.238Z</time></trkpt><trkpt lat="40.577898" lon="9.6501387"><ele>428.0</ele><time>2026-04-11T12:30:35.256Z</time></trkpt><trkpt lat="40.5777925" lon="9.6501397"><ele>428.0</ele><time>2026-04-11T12:30:37.261Z</time></trkpt><trkpt lat="40.5776988" lon="9.6501193"><ele>427.99999999999994</ele><time>2026-04-11T12:30:39.242Z</time></trkpt><trkpt lat="40.5776287" lon="9.6501002"><ele>428.0</ele><time>2026-04-11T12:30:41.247Z</time></trkpt><trkpt lat="40.5775989" lon="9.6501739"><ele>428.0</ele><time>2026-04-11T12:30:44.257Z</time></trkpt><trkpt lat="40.5776559" lon="9.650214"><ele>428.0</ele><time>2026-04-11T12:30:46.262Z</time></trkpt><trkpt lat="40.5777639" lon="9.6502171"><ele>427.99999999999994</ele><time>2026-04-11T12:30:48.255Z</time></trkpt><trkpt lat="40.5778347" lon="9.6502193"><ele>428.0</ele><time>2026-04-11T12:30:49.23Z</time></trkpt><trkpt lat="40.577911" lon="9.6502294"><ele>428.00000000000006</ele><time>2026-04-11T12:30:50.229Z</time></trkpt><trkpt lat="40.5779868" lon="9.6502443"><ele>428.0</ele><time>2026-04-11T12:30:51.231Z</time></trkpt><trkpt lat="40.5780626" lon="9.6502599"><ele>428.0</ele><time>2026-04-11T12:30:52.23Z</time></trkpt><trkpt lat="40.5781355" lon="9.6502766"><ele>428.0</ele><time>2026-04-11T12:30:53.232Z</time></trkpt><trkpt lat="40.578207" lon="9.650297"><ele>428.0</ele><time>2026-04-11T12:30:54.228Z</time></trkpt><trkpt lat="40.5782777" lon="9.6503105"><ele>428.00000000000006</ele><time>2026-04-11T12:30:55.231Z</time></trkpt><trkpt lat="40.5783509" lon="9.6503228"><ele>428.0</ele><time>2026-04-11T12:30:56.232Z</time></trkpt><trkpt lat="40.5784249" lon="9.6503386"><ele>427.99999999999994</ele><time>2026-04-11T12:30:57.337Z</time></trkpt><trkpt lat="40.5784928" lon="9.6503457"><ele>428.0</ele><time>2026-04-11T12:30:58.332Z</time></trkpt><trkpt lat="40.5786203" lon="9.6503099"><ele>428.0</ele><time>2026-04-11T12:31:00.227Z</time></trkpt><trkpt lat="40.5786832" lon="9.6502711"><ele>428.0</ele><time>2026-04-11T12:31:01.327Z</time></trkpt><trkpt lat="40.5787394" lon="9.650227"><ele>427.99999999999994</ele><time>2026-04-11T12:31:02.319Z</time></trkpt><trkpt lat="40.5787971" lon="9.650188"><ele>428.0</ele><time>2026-04-11T12:31:03.337Z</time></trkpt><trkpt lat="40.578918" lon="9.6501771"><ele>428.3333333333333</ele><time>2026-04-11T12:31:05.327Z</time></trkpt><trkpt lat="40.5790249" lon="9.6502225"><ele>428.66666666666663</ele><time>2026-04-11T12:31:07.322Z</time></trkpt><trkpt lat="40.5790716" lon="9.6503159"><ele>429.0</ele><time>2026-04-11T12:31:09.325Z</time></trkpt><trkpt lat="40.5790974" lon="9.6504499"><ele>429.33333333333337</ele><time>2026-04-11T12:31:11.326Z</time></trkpt><trkpt lat="40.5791279" lon="9.650528"><ele>429.6666666666667</ele><time>2026-04-11T12:31:12.325Z</time></trkpt><trkpt lat="40.5791735" lon="9.6506115"><ele>430.0</ele><time>2026-04-11T12:31:13.322Z</time></trkpt><trkpt lat="40.5792191" lon="9.6506942"><ele>426.2857142857143</ele><time>2026-04-11T12:31:14.351Z</time></trkpt><trkpt lat="40.5792631" lon="9.6507682"><ele>422.5714285714286</ele><time>2026-04-11T12:31:15.32Z</time></trkpt><trkpt lat="40.5793041" lon="9.6508423"><ele>418.8571428571429</ele><time>2026-04-11T12:31:16.362Z</time></trkpt><trkpt lat="40.5793359" lon="9.6509197"><ele>415.1428571428571</ele><time>2026-04-11T12:31:17.318Z</time></trkpt><trkpt lat="40.5793557" lon="9.6510079"><ele>411.42857142857144</ele><time>2026-04-11T12:31:18.313Z</time></trkpt><trkpt lat="40.5793631" lon="9.6511013"><ele>407.7142857142857</ele><time>2026-04-11T12:31:19.321Z</time></trkpt><trkpt lat="40.5793686" lon="9.6511907"><ele>404.0</ele><time>2026-04-11T12:31:20.329Z</time></trkpt><trkpt lat="40.579365" lon="9.6512765"><ele>401.49999999999994</ele><time>2026-04-11T12:31:21.376Z</time></trkpt><trkpt lat="40.5793564" lon="9.6513609"><ele>399.0</ele><time>2026-04-11T12:31:22.317Z</time></trkpt><trkpt lat="40.5793491" lon="9.6514543"><ele>396.5</ele><time>2026-04-11T12:31:23.317Z</time></trkpt><trkpt lat="40.579346" lon="9.6515585"><ele>394.0</ele><time>2026-04-11T12:31:24.319Z</time></trkpt><trkpt lat="40.5793498" lon="9.6516671"><ele>391.49999999999994</ele><time>2026-04-11T12:31:25.325Z</time></trkpt><trkpt lat="40.5793662" lon="9.6517795"><ele>389.0</ele><time>2026-04-11T12:31:26.318Z</time></trkpt><trkpt lat="40.579391" lon="9.6518907"><ele>385.8333333333333</ele><time>2026-04-11T12:31:27.313Z</time></trkpt><trkpt lat="40.5794216" lon="9.6519991"><ele>382.66666666666663</ele><time>2026-04-11T12:31:28.32Z</time></trkpt><trkpt lat="40.5794497" lon="9.6521032"><ele>379.5</ele><time>2026-04-11T12:31:29.321Z</time></trkpt><trkpt lat="40.5794772" lon="9.6522058"><ele>376.3333333333333</ele><time>2026-04-11T12:31:30.314Z</time></trkpt><trkpt lat="40.5795023" lon="9.6523038"><ele>373.16666666666663</ele><time>2026-04-11T12:31:31.319Z</time></trkpt><trkpt lat="40.579535" lon="9.6523942"><ele>370.0</ele><time>2026-04-11T12:31:32.321Z</time></trkpt><trkpt lat="40.5795748" lon="9.6524771"><ele>372.8333333333333</ele><time>2026-04-11T12:31:33.31Z</time></trkpt><trkpt lat="40.5796265" lon="9.6525547"><ele>375.66666666666663</ele><time>2026-04-11T12:31:34.307Z</time></trkpt><trkpt lat="40.5796785" lon="9.6526159"><ele>378.5</ele><time>2026-04-11T12:31:35.329Z</time></trkpt><trkpt lat="40.5797508" lon="9.6527066"><ele>381.3333333333333</ele><time>2026-04-11T12:31:37.323Z</time></trkpt><trkpt lat="40.5797315" lon="9.65281"><ele>384.1666666666667</ele><time>2026-04-11T12:31:40.323Z</time></trkpt><trkpt lat="40.579663" lon="9.6527834"><ele>387.0</ele><time>2026-04-11T12:31:42.311Z</time></trkpt><trkpt lat="40.579591" lon="9.6527232"><ele>383.6</ele><time>2026-04-11T12:31:44.31Z</time></trkpt><trkpt lat="40.5794948" lon="9.6526182"><ele>380.20000000000005</ele><time>2026-04-11T12:31:46.307Z</time></trkpt><trkpt lat="40.5794042" lon="9.6525277"><ele>376.8</ele><time>2026-04-11T12:31:48.33Z</time></trkpt><trkpt lat="40.5793345" lon="9.6524987"><ele>373.4</ele><time>2026-04-11T12:31:50.316Z</time></trkpt><trkpt lat="40.5792895" lon="9.6525817"><ele>370.0</ele><time>2026-04-11T12:31:53.317Z</time></trkpt><trkpt lat="40.5793257" lon="9.6526858"><ele>366.2</ele><time>2026-04-11T12:31:55.307Z</time></trkpt><trkpt lat="40.5794006" lon="9.6527967"><ele>362.4</ele><time>2026-04-11T12:31:57.316Z</time></trkpt><trkpt lat="40.5794527" lon="9.6529108"><ele>358.6</ele><time>2026-04-11T12:31:59.323Z</time></trkpt><trkpt lat="40.5794576" lon="9.6530225"><ele>354.8</ele><time>2026-04-11T12:32:01.316Z</time></trkpt><trkpt lat="40.5794455" lon="9.6531344"><ele>351.0</ele><time>2026-04-11T12:32:03.321Z</time></trkpt><trkpt lat="40.5794078" lon="9.6532436"><ele>351.0</ele><time>2026-04-11T12:32:05.322Z</time></trkpt><trkpt lat="40.5793558" lon="9.6533962"><ele>351.0</ele><time>2026-04-11T12:32:07.303Z</time></trkpt><trkpt lat="40.5793605" lon="9.6534938"><ele>351.0</ele><time>2026-04-11T12:32:08.302Z</time></trkpt><trkpt lat="40.5793979" lon="9.6536056"><ele>351.0</ele><time>2026-04-11T12:32:09.305Z</time></trkpt><trkpt lat="40.5794564" lon="9.6537203"><ele>351.0</ele><time>2026-04-11T12:32:10.299Z</time></trkpt><trkpt lat="40.579526" lon="9.6538523"><ele>356.0</ele><time>2026-04-11T12:32:11.317Z</time></trkpt><trkpt lat="40.5795983" lon="9.6539926"><ele>361.0</ele><time>2026-04-11T12:32:12.304Z</time></trkpt><trkpt lat="40.5796718" lon="9.6541382"><ele>366.0</ele><time>2026-04-11T12:32:13.316Z</time></trkpt><trkpt lat="40.5797483" lon="9.6542833"><ele>371.0</ele><time>2026-04-11T12:32:14.312Z</time></trkpt><trkpt lat="40.5798391" lon="9.654416"><ele>364.75</ele><time>2026-04-11T12:32:15.305Z</time></trkpt><trkpt lat="40.579938" lon="9.6545321"><ele>358.5</ele><time>2026-04-11T12:32:16.301Z</time></trkpt><trkpt lat="40.5800348" lon="9.6546408"><ele>352.25</ele><time>2026-04-11T12:32:17.322Z</time></trkpt><trkpt lat="40.5801118" lon="9.6547438"><ele>346.0</ele><time>2026-04-11T12:32:18.304Z</time></trkpt><trkpt lat="40.5801687" lon="9.654859"><ele>346.0</ele><time>2026-04-11T12:32:19.306Z</time></trkpt><trkpt lat="40.5801828" lon="9.6549856"><ele>346.0</ele><time>2026-04-11T12:32:20.29Z</time></trkpt><trkpt lat="40.5801897" lon="9.6551173"><ele>346.0</ele><time>2026-04-11T12:32:21.292Z</time></trkpt><trkpt lat="40.5802051" lon="9.6552538"><ele>346.0</ele><time>2026-04-11T12:32:22.292Z</time></trkpt><trkpt lat="40.5802367" lon="9.6553949"><ele>346.0</ele><time>2026-04-11T12:32:23.307Z</time></trkpt><trkpt lat="40.5802856" lon="9.6555274"><ele>341.5</ele><time>2026-04-11T12:32:24.288Z</time></trkpt><trkpt lat="40.5803497" lon="9.655663"><ele>337.0</ele><time>2026-04-11T12:32:25.295Z</time></trkpt><trkpt lat="40.5804159" lon="9.6557924"><ele>332.5</ele><time>2026-04-11T12:32:26.292Z</time></trkpt><trkpt lat="40.5804784" lon="9.6559115"><ele>328.0</ele><time>2026-04-11T12:32:27.291Z</time></trkpt><trkpt lat="40.5805293" lon="9.6560262"><ele>331.59999999999997</ele><time>2026-04-11T12:32:28.288Z</time></trkpt><trkpt lat="40.580564" lon="9.6561379"><ele>335.2</ele><time>2026-04-11T12:32:29.29Z</time></trkpt><trkpt lat="40.580588" lon="9.6562541"><ele>338.8</ele><time>2026-04-11T12:32:30.288Z</time></trkpt><trkpt lat="40.5806124" lon="9.6563665"><ele>342.4</ele><time>2026-04-11T12:32:31.294Z</time></trkpt><trkpt lat="40.5806438" lon="9.6564848"><ele>346.0</ele><time>2026-04-11T12:32:32.286Z</time></trkpt><trkpt lat="40.5806899" lon="9.6566051"><ele>346.0</ele><time>2026-04-11T12:32:33.294Z</time></trkpt><trkpt lat="40.580746" lon="9.6567262"><ele>346.0</ele><time>2026-04-11T12:32:34.285Z</time></trkpt><trkpt lat="40.5808073" lon="9.6568535"><ele>346.0</ele><time>2026-04-11T12:32:35.293Z</time></trkpt><trkpt lat="40.5808754" lon="9.6569833"><ele>346.0</ele><time>2026-04-11T12:32:36.289Z</time></trkpt><trkpt lat="40.5809521" lon="9.6571194"><ele>348.0</ele><time>2026-04-11T12:32:37.286Z</time></trkpt><trkpt lat="40.5810333" lon="9.6572552"><ele>350.0</ele><time>2026-04-11T12:32:38.293Z</time></trkpt><trkpt lat="40.5811132" lon="9.6573947"><ele>352.0</ele><time>2026-04-11T12:32:39.297Z</time></trkpt><trkpt lat="40.581177" lon="9.6575475"><ele>354.0</ele><time>2026-04-11T12:32:40.288Z</time></trkpt><trkpt lat="40.5812285" lon="9.6577124"><ele>349.25</ele><time>2026-04-11T12:32:41.284Z</time></trkpt><trkpt lat="40.5812854" lon="9.6578717"><ele>344.5</ele><time>2026-04-11T12:32:42.295Z</time></trkpt><trkpt lat="40.5813447" lon="9.6580124"><ele>339.75</ele><time>2026-04-11T12:32:43.316Z</time></trkpt><trkpt lat="40.5813947" lon="9.6581302"><ele>335.0</ele><time>2026-04-11T12:32:44.285Z</time></trkpt><trkpt lat="40.581433" lon="9.6582461"><ele>335.0</ele><time>2026-04-11T12:32:45.297Z</time></trkpt><trkpt lat="40.5814683" lon="9.6583679"><ele>335.0</ele><time>2026-04-11T12:32:46.285Z</time></trkpt><trkpt lat="40.5815067" lon="9.6584946"><ele>335.0</ele><time>2026-04-11T12:32:47.279Z</time></trkpt><trkpt lat="40.5815554" lon="9.6586333"><ele>335.0</ele><time>2026-04-11T12:32:48.279Z</time></trkpt><trkpt lat="40.5816168" lon="9.6587752"><ele>335.0</ele><time>2026-04-11T12:32:49.296Z</time></trkpt><trkpt lat="40.5816836" lon="9.6589222"><ele>331.75</ele><time>2026-04-11T12:32:50.274Z</time></trkpt><trkpt lat="40.5817441" lon="9.6590843"><ele>328.5</ele><time>2026-04-11T12:32:51.28Z</time></trkpt><trkpt lat="40.5817967" lon="9.6592563"><ele>325.25</ele><time>2026-04-11T12:32:52.277Z</time></trkpt><trkpt lat="40.5818495" lon="9.6594323"><ele>322.0</ele><time>2026-04-11T12:32:53.274Z</time></trkpt><trkpt lat="40.5819043" lon="9.6596057"><ele>322.25</ele><time>2026-04-11T12:32:54.276Z</time></trkpt><trkpt lat="40.5819614" lon="9.6597699"><ele>322.5</ele><time>2026-04-11T12:32:55.287Z</time></trkpt><trkpt lat="40.5820185" lon="9.6599256"><ele>322.75</ele><time>2026-04-11T12:32:56.276Z</time></trkpt><trkpt lat="40.5820796" lon="9.6600727"><ele>323.0</ele><time>2026-04-11T12:32:57.27Z</time></trkpt><trkpt lat="40.5821494" lon="9.6602109"><ele>321.59999999999997</ele><time>2026-04-11T12:32:58.279Z</time></trkpt><trkpt lat="40.5822235" lon="9.6603295"><ele>320.2</ele><time>2026-04-11T12:32:59.273Z</time></trkpt><trkpt lat="40.5822903" lon="9.6604403"><ele>318.8</ele><time>2026-04-11T12:33:00.28Z</time></trkpt><trkpt lat="40.5823363" lon="9.6605597"><ele>317.4</ele><time>2026-04-11T12:33:01.289Z</time></trkpt><trkpt lat="40.582348" lon="9.6606884"><ele>316.0</ele><time>2026-04-11T12:33:02.275Z</time></trkpt><trkpt lat="40.5823382" lon="9.6608246"><ele>316.0</ele><time>2026-04-11T12:33:03.268Z</time></trkpt><trkpt lat="40.5823195" lon="9.6609719"><ele>316.0</ele><time>2026-04-11T12:33:04.272Z</time></trkpt><trkpt lat="40.582314" lon="9.6611179"><ele>316.0</ele><time>2026-04-11T12:33:05.295Z</time></trkpt><trkpt lat="40.5823345" lon="9.6612559"><ele>316.0</ele><time>2026-04-11T12:33:06.282Z</time></trkpt><trkpt lat="40.5823717" lon="9.6613884"><ele>316.0</ele><time>2026-04-11T12:33:07.276Z</time></trkpt><trkpt lat="40.582426" lon="9.6615086"><ele>314.0</ele><time>2026-04-11T12:33:08.273Z</time></trkpt><trkpt lat="40.5824878" lon="9.6616235"><ele>312.0</ele><time>2026-04-11T12:33:09.265Z</time></trkpt><trkpt lat="40.5825311" lon="9.6617497"><ele>310.0</ele><time>2026-04-11T12:33:10.277Z</time></trkpt><trkpt lat="40.5825568" lon="9.6618948"><ele>308.0</ele><time>2026-04-11T12:33:11.286Z</time></trkpt><trkpt lat="40.5825786" lon="9.6620573"><ele>304.75</ele><time>2026-04-11T12:33:12.27Z</time></trkpt><trkpt lat="40.5826067" lon="9.6622285"><ele>301.5</ele><time>2026-04-11T12:33:13.284Z</time></trkpt><trkpt lat="40.5826515" lon="9.6623983"><ele>298.25</ele><time>2026-04-11T12:33:14.296Z</time></trkpt><trkpt lat="40.5827088" lon="9.6625557"><ele>295.0</ele><time>2026-04-11T12:33:15.277Z</time></trkpt><trkpt lat="40.5827729" lon="9.6627032"><ele>293.75</ele><time>2026-04-11T12:33:16.265Z</time></trkpt><trkpt lat="40.5828415" lon="9.6628449"><ele>292.5</ele><time>2026-04-11T12:33:17.276Z</time></trkpt><trkpt lat="40.5829079" lon="9.6629782"><ele>291.25</ele><time>2026-04-11T12:33:18.276Z</time></trkpt><trkpt lat="40.582973" lon="9.6630957"><ele>290.0</ele><time>2026-04-11T12:33:19.269Z</time></trkpt><trkpt lat="40.5830418" lon="9.6631899"><ele>290.0</ele><time>2026-04-11T12:33:20.267Z</time></trkpt><trkpt lat="40.5831233" lon="9.663241"><ele>290.0</ele><time>2026-04-11T12:33:21.289Z</time></trkpt><trkpt lat="40.5832152" lon="9.6632453"><ele>290.0</ele><time>2026-04-11T12:33:22.285Z</time></trkpt><trkpt lat="40.5833167" lon="9.6632146"><ele>290.0</ele><time>2026-04-11T12:33:23.26Z</time></trkpt><trkpt lat="40.5834272" lon="9.6631749"><ele>290.0</ele><time>2026-04-11T12:33:24.262Z</time></trkpt><trkpt lat="40.5835439" lon="9.6631536"><ele>290.0</ele><time>2026-04-11T12:33:25.271Z</time></trkpt><trkpt lat="40.5836611" lon="9.6631722"><ele>290.0</ele><time>2026-04-11T12:33:26.272Z</time></trkpt><trkpt lat="40.5837749" lon="9.6632164"><ele>290.0</ele><time>2026-04-11T12:33:27.268Z</time></trkpt><trkpt lat="40.5838771" lon="9.6632781"><ele>290.0</ele><time>2026-04-11T12:33:28.275Z</time></trkpt><trkpt lat="40.5839566" lon="9.6633506"><ele>290.0</ele><time>2026-04-11T12:33:29.276Z</time></trkpt><trkpt lat="40.5840009" lon="9.6634375"><ele>291.0</ele><time>2026-04-11T12:33:30.257Z</time></trkpt><trkpt lat="40.5840144" lon="9.6635329"><ele>292.0</ele><time>2026-04-11T12:33:31.261Z</time></trkpt><trkpt lat="40.584" lon="9.6636331"><ele>293.0</ele><time>2026-04-11T12:33:32.265Z</time></trkpt><trkpt lat="40.5839531" lon="9.6637091"><ele>294.0</ele><time>2026-04-11T12:33:33.268Z</time></trkpt><trkpt lat="40.5838683" lon="9.6637196"><ele>295.0</ele><time>2026-04-11T12:33:34.249Z</time></trkpt><trkpt lat="40.5837773" lon="9.6636925"><ele>296.0</ele><time>2026-04-11T12:33:35.27Z</time></trkpt><trkpt lat="40.5836873" lon="9.6636439"><ele>294.8</ele><time>2026-04-11T12:33:36.255Z</time></trkpt><trkpt lat="40.5835914" lon="9.663592"><ele>293.6</ele><time>2026-04-11T12:33:37.26Z</time></trkpt><trkpt lat="40.5834881" lon="9.6635598"><ele>292.4</ele><time>2026-04-11T12:33:38.263Z</time></trkpt><trkpt lat="40.5833781" lon="9.6635704"><ele>291.2</ele><time>2026-04-11T12:33:39.259Z</time></trkpt><trkpt lat="40.5832601" lon="9.6636145"><ele>290.0</ele><time>2026-04-11T12:33:40.261Z</time></trkpt><trkpt lat="40.5831327" lon="9.6636765"><ele>286.0</ele><time>2026-04-11T12:33:41.249Z</time></trkpt><trkpt lat="40.5830005" lon="9.6637363"><ele>282.0</ele><time>2026-04-11T12:33:42.244Z</time></trkpt><trkpt lat="40.5828727" lon="9.6637986"><ele>278.0</ele><time>2026-04-11T12:33:43.252Z</time></trkpt><trkpt lat="40.5827652" lon="9.6638835"><ele>274.0</ele><time>2026-04-11T12:33:44.246Z</time></trkpt><trkpt lat="40.5826861" lon="9.6640036"><ele>274.0</ele><time>2026-04-11T12:33:45.25Z</time></trkpt><trkpt lat="40.5826267" lon="9.664164"><ele>274.0</ele><time>2026-04-11T12:33:46.245Z</time></trkpt><trkpt lat="40.5825748" lon="9.6643425"><ele>274.0</ele><time>2026-04-11T12:33:47.267Z</time></trkpt><trkpt lat="40.582524" lon="9.6645252"><ele>274.0</ele><time>2026-04-11T12:33:48.243Z</time></trkpt><trkpt lat="40.5824691" lon="9.6647095"><ele>271.3333333333333</ele><time>2026-04-11T12:33:49.238Z</time></trkpt><trkpt lat="40.5824135" lon="9.6649054"><ele>268.6666666666667</ele><time>2026-04-11T12:33:50.251Z</time></trkpt><trkpt lat="40.5823587" lon="9.6651096"><ele>266.0</ele><time>2026-04-11T12:33:51.241Z</time></trkpt><trkpt lat="40.5823059" lon="9.6653176"><ele>264.75</ele><time>2026-04-11T12:33:52.247Z</time></trkpt><trkpt lat="40.5822504" lon="9.6655134"><ele>263.5</ele><time>2026-04-11T12:33:53.247Z</time></trkpt><trkpt lat="40.5821965" lon="9.6656853"><ele>262.25</ele><time>2026-04-11T12:33:54.246Z</time></trkpt><trkpt lat="40.5821349" lon="9.6658257"><ele>261.0</ele><time>2026-04-11T12:33:55.246Z</time></trkpt><trkpt lat="40.5820642" lon="9.6659124"><ele>261.0</ele><time>2026-04-11T12:33:56.25Z</time></trkpt><trkpt lat="40.581985" lon="9.6659235"><ele>261.0</ele><time>2026-04-11T12:33:57.262Z</time></trkpt><trkpt lat="40.5819096" lon="9.6658996"><ele>261.0</ele><time>2026-04-11T12:33:58.248Z</time></trkpt><trkpt lat="40.5818509" lon="9.6658346"><ele>261.0</ele><time>2026-04-11T12:33:59.246Z</time></trkpt><trkpt lat="40.581816" lon="9.6657383"><ele>261.0</ele><time>2026-04-11T12:34:00.232Z</time></trkpt><trkpt lat="40.5818054" lon="9.6656064"><ele>261.0</ele><time>2026-04-11T12:34:01.251Z</time></trkpt><trkpt lat="40.5818032" lon="9.6654516"><ele>261.0</ele><time>2026-04-11T12:34:02.239Z</time></trkpt><trkpt lat="40.5818115" lon="9.6652831"><ele>261.0</ele><time>2026-04-11T12:34:03.241Z</time></trkpt><trkpt lat="40.5818426" lon="9.6651094"><ele>261.0</ele><time>2026-04-11T12:34:04.246Z</time></trkpt><trkpt lat="40.5818966" lon="9.6649348"><ele>261.0</ele><time>2026-04-11T12:34:05.229Z</time></trkpt><trkpt lat="40.5819439" lon="9.6647377"><ele>260.6666666666667</ele><time>2026-04-11T12:34:06.327Z</time></trkpt><trkpt lat="40.5819749" lon="9.6645293"><ele>260.33333333333337</ele><time>2026-04-11T12:34:07.336Z</time></trkpt><trkpt lat="40.5819935" lon="9.6643225"><ele>260.0</ele><time>2026-04-11T12:34:08.324Z</time></trkpt><trkpt lat="40.5820114" lon="9.6641302"><ele>260.4</ele><time>2026-04-11T12:34:09.324Z</time></trkpt><trkpt lat="40.5820209" lon="9.6639724"><ele>260.8</ele><time>2026-04-11T12:34:10.319Z</time></trkpt><trkpt lat="40.5820176" lon="9.6638368"><ele>261.2</ele><time>2026-04-11T12:34:11.323Z</time></trkpt><trkpt lat="40.5819762" lon="9.6637282"><ele>261.6</ele><time>2026-04-11T12:34:12.336Z</time></trkpt><trkpt lat="40.5818935" lon="9.6636528"><ele>262.0</ele><time>2026-04-11T12:34:13.353Z</time></trkpt><trkpt lat="40.5817918" lon="9.6636121"><ele>262.0</ele><time>2026-04-11T12:34:14.328Z</time></trkpt><trkpt lat="40.5816794" lon="9.6635775"><ele>262.0</ele><time>2026-04-11T12:34:15.328Z</time></trkpt><trkpt lat="40.5815754" lon="9.6635181"><ele>262.0</ele><time>2026-04-11T12:34:16.328Z</time></trkpt><trkpt lat="40.5814865" lon="9.6634279"><ele>262.0</ele><time>2026-04-11T12:34:17.326Z</time></trkpt><trkpt lat="40.5814172" lon="9.6632934"><ele>262.0</ele><time>2026-04-11T12:34:18.319Z</time></trkpt><trkpt lat="40.581359" lon="9.6631241"><ele>262.0</ele><time>2026-04-11T12:34:19.322Z</time></trkpt><trkpt lat="40.5813001" lon="9.6629477"><ele>262.0</ele><time>2026-04-11T12:34:20.324Z</time></trkpt><trkpt lat="40.5812297" lon="9.6627733"><ele>262.0</ele><time>2026-04-11T12:34:21.323Z</time></trkpt><trkpt lat="40.5811375" lon="9.6626196"><ele>258.8</ele><time>2026-04-11T12:34:22.325Z</time></trkpt><trkpt lat="40.5810366" lon="9.6624956"><ele>255.6</ele><time>2026-04-11T12:34:23.324Z</time></trkpt><trkpt lat="40.580945" lon="9.6624064"><ele>252.40000000000003</ele><time>2026-04-11T12:34:24.312Z</time></trkpt><trkpt lat="40.5808589" lon="9.6623536"><ele>249.20000000000002</ele><time>2026-04-11T12:34:25.328Z</time></trkpt><trkpt lat="40.5807764" lon="9.6623497"><ele>246.0</ele><time>2026-04-11T12:34:26.321Z</time></trkpt><trkpt lat="40.5806978" lon="9.6623908"><ele>246.0</ele><time>2026-04-11T12:34:27.314Z</time></trkpt><trkpt lat="40.5806466" lon="9.6624815"><ele>246.00000000000003</ele><time>2026-04-11T12:34:28.315Z</time></trkpt><trkpt lat="40.5806337" lon="9.6625953"><ele>246.00000000000003</ele><time>2026-04-11T12:34:29.324Z</time></trkpt><trkpt lat="40.5806634" lon="9.6627111"><ele>246.0</ele><time>2026-04-11T12:34:30.316Z</time></trkpt><trkpt lat="40.5807299" lon="9.6628185"><ele>246.0</ele><time>2026-04-11T12:34:31.327Z</time></trkpt><trkpt lat="40.5808241" lon="9.6629163"><ele>244.0</ele><time>2026-04-11T12:34:32.322Z</time></trkpt><trkpt lat="40.5809353" lon="9.6630115"><ele>242.0</ele><time>2026-04-11T12:34:33.323Z</time></trkpt><trkpt lat="40.5810271" lon="9.6631063"><ele>240.0</ele><time>2026-04-11T12:34:34.321Z</time></trkpt><trkpt lat="40.5810834" lon="9.6632177"><ele>238.0</ele><time>2026-04-11T12:34:35.316Z</time></trkpt><trkpt lat="40.5810978" lon="9.6633573"><ele>238.0</ele><time>2026-04-11T12:34:36.311Z</time></trkpt><trkpt lat="40.5810947" lon="9.6635096"><ele>238.0</ele><time>2026-04-11T12:34:37.31Z</time></trkpt><trkpt lat="40.5811045" lon="9.6636678"><ele>238.0</ele><time>2026-04-11T12:34:38.314Z</time></trkpt><trkpt lat="40.5811379" lon="9.6638241"><ele>238.0</ele><time>2026-04-11T12:34:39.31Z</time></trkpt><trkpt lat="40.5811794" lon="9.6639602"><ele>237.2</ele><time>2026-04-11T12:34:40.298Z</time></trkpt><trkpt lat="40.5812086" lon="9.664084"><ele>236.4</ele><time>2026-04-11T12:34:41.306Z</time></trkpt><trkpt lat="40.5811946" lon="9.6641898"><ele>235.59999999999997</ele><time>2026-04-11T12:34:42.3Z</time></trkpt><trkpt lat="40.5811345" lon="9.6642837"><ele>234.79999999999998</ele><time>2026-04-11T12:34:43.315Z</time></trkpt><trkpt lat="40.5810482" lon="9.6643702"><ele>234.0</ele><time>2026-04-11T12:34:44.292Z</time></trkpt><trkpt lat="40.5809507" lon="9.6644653"><ele>234.0</ele><time>2026-04-11T12:34:45.301Z</time></trkpt><trkpt lat="40.5808586" lon="9.6645733"><ele>234.0</ele><time>2026-04-11T12:34:46.295Z</time></trkpt><trkpt lat="40.5807852" lon="9.6646964"><ele>234.0</ele><time>2026-04-11T12:34:47.299Z</time></trkpt><trkpt lat="40.5807342" lon="9.6648449"><ele>234.0</ele><time>2026-04-11T12:34:48.306Z</time></trkpt><trkpt lat="40.5807001" lon="9.6650112"><ele>234.0</ele><time>2026-04-11T12:34:49.309Z</time></trkpt><trkpt lat="40.5806895" lon="9.6651784"><ele>234.0</ele><time>2026-04-11T12:34:50.291Z</time></trkpt><trkpt lat="40.5807009" lon="9.6653473"><ele>234.0</ele><time>2026-04-11T12:34:51.284Z</time></trkpt><trkpt lat="40.5807357" lon="9.6655127"><ele>234.0</ele><time>2026-04-11T12:34:52.29Z</time></trkpt><trkpt lat="40.5807632" lon="9.6656693"><ele>233.25</ele><time>2026-04-11T12:34:53.293Z</time></trkpt><trkpt lat="40.5807673" lon="9.6658223"><ele>232.5</ele><time>2026-04-11T12:34:54.292Z</time></trkpt><trkpt lat="40.5807218" lon="9.6659683"><ele>231.75</ele><time>2026-04-11T12:34:55.294Z</time></trkpt><trkpt lat="40.5806783" lon="9.6661191"><ele>231.0</ele><time>2026-04-11T12:34:56.289Z</time></trkpt><trkpt lat="40.5806592" lon="9.6662624"><ele>230.75</ele><time>2026-04-11T12:34:57.282Z</time></trkpt><trkpt lat="40.580666" lon="9.6664125"><ele>230.5</ele><time>2026-04-11T12:34:58.294Z</time></trkpt><trkpt lat="40.5806742" lon="9.6665747"><ele>230.25</ele><time>2026-04-11T12:34:59.282Z</time></trkpt><trkpt lat="40.580663" lon="9.6667375"><ele>230.0</ele><time>2026-04-11T12:35:00.277Z</time></trkpt><trkpt lat="40.5806374" lon="9.6669063"><ele>231.4</ele><time>2026-04-11T12:35:01.274Z</time></trkpt><trkpt lat="40.5806101" lon="9.6670601"><ele>232.8</ele><time>2026-04-11T12:35:02.284Z</time></trkpt><trkpt lat="40.5805736" lon="9.6671818"><ele>234.2</ele><time>2026-04-11T12:35:03.284Z</time></trkpt><trkpt lat="40.580513" lon="9.6672682"><ele>235.6</ele><time>2026-04-11T12:35:04.305Z</time></trkpt><trkpt lat="40.5804272" lon="9.6673135"><ele>237.0</ele><time>2026-04-11T12:35:05.315Z</time></trkpt><trkpt lat="40.580334" lon="9.6673482"><ele>230.0</ele><time>2026-04-11T12:35:06.279Z</time></trkpt><trkpt lat="40.5802418" lon="9.6674131"><ele>223.0</ele><time>2026-04-11T12:35:07.28Z</time></trkpt><trkpt lat="40.5801787" lon="9.6675166"><ele>216.0</ele><time>2026-04-11T12:35:08.271Z</time></trkpt><trkpt lat="40.5801485" lon="9.6676472"><ele>209.0</ele><time>2026-04-11T12:35:09.268Z</time></trkpt><trkpt lat="40.5801427" lon="9.667813"><ele>202.0</ele><time>2026-04-11T12:35:10.265Z</time></trkpt><trkpt lat="40.5801544" lon="9.6679895"><ele>202.0</ele><time>2026-04-11T12:35:11.285Z</time></trkpt><trkpt lat="40.5801735" lon="9.6681552"><ele>202.0</ele><time>2026-04-11T12:35:12.267Z</time></trkpt><trkpt lat="40.5801734" lon="9.6682936"><ele>202.0</ele><time>2026-04-11T12:35:13.285Z</time></trkpt><trkpt lat="40.5801272" lon="9.6683961"><ele>202.0</ele><time>2026-04-11T12:35:14.264Z</time></trkpt><trkpt lat="40.5800516" lon="9.6684638"><ele>202.0</ele><time>2026-04-11T12:35:15.293Z</time></trkpt><trkpt lat="40.579964" lon="9.6685165"><ele>202.0</ele><time>2026-04-11T12:35:16.265Z</time></trkpt><trkpt lat="40.5798816" lon="9.6685963"><ele>202.0</ele><time>2026-04-11T12:35:17.277Z</time></trkpt><trkpt lat="40.5798128" lon="9.668713"><ele>202.0</ele><time>2026-04-11T12:35:18.273Z</time></trkpt><trkpt lat="40.5797651" lon="9.6688497"><ele>202.0</ele><time>2026-04-11T12:35:19.261Z</time></trkpt><trkpt lat="40.5797389" lon="9.6689862"><ele>202.0</ele><time>2026-04-11T12:35:20.289Z</time></trkpt><trkpt lat="40.5797468" lon="9.6691115"><ele>202.6</ele><time>2026-04-11T12:35:21.275Z</time></trkpt><trkpt lat="40.5797923" lon="9.6692271"><ele>203.2</ele><time>2026-04-11T12:35:22.266Z</time></trkpt><trkpt lat="40.5798702" lon="9.6693357"><ele>203.8</ele><time>2026-04-11T12:35:23.257Z</time></trkpt><trkpt lat="40.5799516" lon="9.6694409"><ele>204.4</ele><time>2026-04-11T12:35:24.262Z</time></trkpt><trkpt lat="40.5800076" lon="9.6695537"><ele>205.0</ele><time>2026-04-11T12:35:25.256Z</time></trkpt><trkpt lat="40.5800165" lon="9.6696718"><ele>205.0</ele><time>2026-04-11T12:35:26.263Z</time></trkpt><trkpt lat="40.5799871" lon="9.6697918"><ele>205.0</ele><time>2026-04-11T12:35:27.265Z</time></trkpt><trkpt lat="40.5799197" lon="9.6699048"><ele>205.0</ele><time>2026-04-11T12:35:28.252Z</time></trkpt><trkpt lat="40.5798281" lon="9.6700135"><ele>205.0</ele><time>2026-04-11T12:35:29.252Z</time></trkpt><trkpt lat="40.579719" lon="9.6701227"><ele>205.0</ele><time>2026-04-11T12:35:30.252Z</time></trkpt><trkpt lat="40.579607" lon="9.6702406"><ele>205.0</ele><time>2026-04-11T12:35:31.249Z</time></trkpt><trkpt lat="40.5795107" lon="9.6703774"><ele>205.0</ele><time>2026-04-11T12:35:32.245Z</time></trkpt><trkpt lat="40.5794345" lon="9.6705439"><ele>205.0</ele><time>2026-04-11T12:35:33.262Z</time></trkpt><trkpt lat="40.5793726" lon="9.6707252"><ele>201.5</ele><time>2026-04-11T12:35:34.245Z</time></trkpt><trkpt lat="40.5793227" lon="9.6709206"><ele>198.0</ele><time>2026-04-11T12:35:35.245Z</time></trkpt><trkpt lat="40.5792845" lon="9.6711065"><ele>194.5</ele><time>2026-04-11T12:35:36.25Z</time></trkpt><trkpt lat="40.5792418" lon="9.6712644"><ele>191.0</ele><time>2026-04-11T12:35:37.244Z</time></trkpt><trkpt lat="40.5791749" lon="9.6713908"><ele>191.0</ele><time>2026-04-11T12:35:38.259Z</time></trkpt><trkpt lat="40.5790832" lon="9.6714911"><ele>191.0</ele><time>2026-04-11T12:35:39.247Z</time></trkpt><trkpt lat="40.5789928" lon="9.6716039"><ele>191.0</ele><time>2026-04-11T12:35:40.252Z</time></trkpt><trkpt lat="40.5789154" lon="9.671743"><ele>191.0</ele><time>2026-04-11T12:35:41.239Z</time></trkpt><trkpt lat="40.578851" lon="9.6718909"><ele>194.0</ele><time>2026-04-11T12:35:42.24Z</time></trkpt><trkpt lat="40.5787876" lon="9.6720233"><ele>197.0</ele><time>2026-04-11T12:35:43.25Z</time></trkpt><trkpt lat="40.5787034" lon="9.6721151"><ele>200.0</ele><time>2026-04-11T12:35:44.237Z</time></trkpt><trkpt lat="40.5785974" lon="9.6721504"><ele>203.0</ele><time>2026-04-11T12:35:45.232Z</time></trkpt><trkpt lat="40.5784792" lon="9.672157"><ele>197.0</ele><time>2026-04-11T12:35:46.244Z</time></trkpt><trkpt lat="40.5783609" lon="9.6721701"><ele>191.0</ele><time>2026-04-11T12:35:47.232Z</time></trkpt><trkpt lat="40.5782494" lon="9.6722262"><ele>185.0</ele><time>2026-04-11T12:35:48.226Z</time></trkpt><trkpt lat="40.5781478" lon="9.6723334"><ele>179.0</ele><time>2026-04-11T12:35:49.349Z</time></trkpt><trkpt lat="40.5780609" lon="9.6724709"><ele>179.0</ele><time>2026-04-11T12:35:50.328Z</time></trkpt><trkpt lat="40.5779659" lon="9.6726222"><ele>179.0</ele><time>2026-04-11T12:35:51.346Z</time></trkpt><trkpt lat="40.5778508" lon="9.6727626"><ele>179.0</ele><time>2026-04-11T12:35:52.327Z</time></trkpt><trkpt lat="40.5777253" lon="9.6729028"><ele>174.33333333333331</ele><time>2026-04-11T12:35:53.315Z</time></trkpt><trkpt lat="40.5776122" lon="9.6730557"><ele>169.66666666666666</ele><time>2026-04-11T12:35:54.332Z</time></trkpt><trkpt lat="40.5775178" lon="9.6732217"><ele>165.0</ele><time>2026-04-11T12:35:55.317Z</time></trkpt><trkpt lat="40.5774362" lon="9.673394"><ele>165.0</ele><time>2026-04-11T12:35:56.326Z</time></trkpt><trkpt lat="40.5773756" lon="9.6735673"><ele>165.0</ele><time>2026-04-11T12:35:57.33Z</time></trkpt><trkpt lat="40.5773378" lon="9.6737411"><ele>165.0</ele><time>2026-04-11T12:35:58.315Z</time></trkpt><trkpt lat="40.5772987" lon="9.6739056"><ele>165.0</ele><time>2026-04-11T12:35:59.311Z</time></trkpt><trkpt lat="40.577235" lon="9.6740522"><ele>168.0</ele><time>2026-04-11T12:36:00.323Z</time></trkpt><trkpt lat="40.5771518" lon="9.6741819"><ele>171.0</ele><time>2026-04-11T12:36:01.312Z</time></trkpt><trkpt lat="40.5770591" lon="9.6742954"><ele>174.0</ele><time>2026-04-11T12:36:02.315Z</time></trkpt><trkpt lat="40.5769529" lon="9.6743631"><ele>177.0</ele><time>2026-04-11T12:36:03.321Z</time></trkpt><trkpt lat="40.5768393" lon="9.6744052"><ele>173.25</ele><time>2026-04-11T12:36:04.314Z</time></trkpt><trkpt lat="40.5767231" lon="9.6744525"><ele>169.5</ele><time>2026-04-11T12:36:05.324Z</time></trkpt><trkpt lat="40.5766145" lon="9.6745297"><ele>165.75</ele><time>2026-04-11T12:36:06.316Z</time></trkpt><trkpt lat="40.5765092" lon="9.6746503"><ele>162.0</ele><time>2026-04-11T12:36:07.318Z</time></trkpt><trkpt lat="40.5764049" lon="9.6748009"><ele>162.0</ele><time>2026-04-11T12:36:08.305Z</time></trkpt><trkpt lat="40.5763047" lon="9.6749577"><ele>162.0</ele><time>2026-04-11T12:36:09.31Z</time></trkpt><trkpt lat="40.5762062" lon="9.6751071"><ele>162.0</ele><time>2026-04-11T12:36:10.307Z</time></trkpt><trkpt lat="40.5761058" lon="9.6752301"><ele>162.0</ele><time>2026-04-11T12:36:11.306Z</time></trkpt><trkpt lat="40.5759948" lon="9.6753102"><ele>163.25</ele><time>2026-04-11T12:36:12.315Z</time></trkpt><trkpt lat="40.5758757" lon="9.6753364"><ele>164.5</ele><time>2026-04-11T12:36:13.306Z</time></trkpt><trkpt lat="40.5757471" lon="9.6753453"><ele>165.75</ele><time>2026-04-11T12:36:14.293Z</time></trkpt><trkpt lat="40.5756131" lon="9.6753818"><ele>167.0</ele><time>2026-04-11T12:36:15.295Z</time></trkpt><trkpt lat="40.5754852" lon="9.6754545"><ele>167.0</ele><time>2026-04-11T12:36:16.294Z</time></trkpt><trkpt lat="40.5753558" lon="9.6755417"><ele>167.0</ele><time>2026-04-11T12:36:17.296Z</time></trkpt><trkpt lat="40.57522" lon="9.675629"><ele>167.0</ele><time>2026-04-11T12:36:18.299Z</time></trkpt><trkpt lat="40.5750737" lon="9.6757045"><ele>159.66666666666666</ele><time>2026-04-11T12:36:19.298Z</time></trkpt><trkpt lat="40.5749175" lon="9.6757494"><ele>152.33333333333334</ele><time>2026-04-11T12:36:20.302Z</time></trkpt><trkpt lat="40.5747585" lon="9.6757709"><ele>145.0</ele><time>2026-04-11T12:36:21.29Z</time></trkpt><trkpt lat="40.5746066" lon="9.6757826"><ele>140.5</ele><time>2026-04-11T12:36:22.293Z</time></trkpt><trkpt lat="40.5744622" lon="9.6758113"><ele>136.0</ele><time>2026-04-11T12:36:23.296Z</time></trkpt><trkpt lat="40.5743264" lon="9.6758674"><ele>131.5</ele><time>2026-04-11T12:36:24.296Z</time></trkpt><trkpt lat="40.5742008" lon="9.6759639"><ele>127.0</ele><time>2026-04-11T12:36:25.303Z</time></trkpt><trkpt lat="40.5740846" lon="9.6760936"><ele>125.33333333333334</ele><time>2026-04-11T12:36:26.289Z</time></trkpt><trkpt lat="40.5739611" lon="9.6762382"><ele>123.66666666666666</ele><time>2026-04-11T12:36:27.292Z</time></trkpt><trkpt lat="40.5738229" lon="9.6763828"><ele>122.0</ele><time>2026-04-11T12:36:28.29Z</time></trkpt><trkpt lat="40.5736812" lon="9.676516"><ele>122.0</ele><time>2026-04-11T12:36:29.289Z</time></trkpt><trkpt lat="40.5735415" lon="9.6766442"><ele>122.0</ele><time>2026-04-11T12:36:30.29Z</time></trkpt><trkpt lat="40.5734096" lon="9.6767751"><ele>122.0</ele><time>2026-04-11T12:36:31.29Z</time></trkpt><trkpt lat="40.5732834" lon="9.6769051"><ele>127.33333333333333</ele><time>2026-04-11T12:36:32.281Z</time></trkpt><trkpt lat="40.5731623" lon="9.677027"><ele>132.66666666666666</ele><time>2026-04-11T12:36:33.292Z</time></trkpt><trkpt lat="40.5730428" lon="9.6771467"><ele>138.0</ele><time>2026-04-11T12:36:34.282Z</time></trkpt><trkpt lat="40.5729199" lon="9.6772784"><ele>129.0</ele><time>2026-04-11T12:36:35.279Z</time></trkpt><trkpt lat="40.5727975" lon="9.6774218"><ele>120.0</ele><time>2026-04-11T12:36:36.284Z</time></trkpt><trkpt lat="40.5726786" lon="9.6775779"><ele>111.0</ele><time>2026-04-11T12:36:37.284Z</time></trkpt><trkpt lat="40.5725674" lon="9.6777434"><ele>115.33333333333334</ele><time>2026-04-11T12:36:38.285Z</time></trkpt><trkpt lat="40.572457" lon="9.6779152"><ele>119.66666666666667</ele><time>2026-04-11T12:36:39.281Z</time></trkpt><trkpt lat="40.5723446" lon="9.6780883"><ele>124.0</ele><time>2026-04-11T12:36:40.293Z</time></trkpt><trkpt lat="40.5722297" lon="9.6782593"><ele>124.0</ele><time>2026-04-11T12:36:41.296Z</time></trkpt><trkpt lat="40.5721129" lon="9.6784316"><ele>124.0</ele><time>2026-04-11T12:36:42.282Z</time></trkpt><trkpt lat="40.5719951" lon="9.6786053"><ele>124.0</ele><time>2026-04-11T12:36:43.291Z</time></trkpt><trkpt lat="40.5718847" lon="9.6787812"><ele>117.66666666666667</ele><time>2026-04-11T12:36:44.283Z</time></trkpt><trkpt lat="40.5717765" lon="9.6789644"><ele>111.33333333333334</ele><time>2026-04-11T12:36:45.286Z</time></trkpt><trkpt lat="40.5716751" lon="9.6791518"><ele>105.0</ele><time>2026-04-11T12:36:46.277Z</time></trkpt><trkpt lat="40.5715806" lon="9.6793449"><ele>110.33333333333334</ele><time>2026-04-11T12:36:47.275Z</time></trkpt><trkpt lat="40.5714921" lon="9.6795377"><ele>115.66666666666667</ele><time>2026-04-11T12:36:48.27Z</time></trkpt><trkpt lat="40.5714059" lon="9.679734"><ele>121.0</ele><time>2026-04-11T12:36:49.281Z</time></trkpt><trkpt lat="40.5713242" lon="9.6799341"><ele>121.0</ele><time>2026-04-11T12:36:50.277Z</time></trkpt><trkpt lat="40.5712444" lon="9.6801319"><ele>121.0</ele><time>2026-04-11T12:36:51.281Z</time></trkpt><trkpt lat="40.5711675" lon="9.6803233"><ele>121.0</ele><time>2026-04-11T12:36:52.274Z</time></trkpt><trkpt lat="40.5710922" lon="9.6805091"><ele>111.66666666666667</ele><time>2026-04-11T12:36:53.278Z</time></trkpt><trkpt lat="40.5710216" lon="9.6806935"><ele>102.33333333333334</ele><time>2026-04-11T12:36:54.279Z</time></trkpt><trkpt lat="40.5709675" lon="9.6808875"><ele>93.0</ele><time>2026-04-11T12:36:55.272Z</time></trkpt><trkpt lat="40.5709374" lon="9.6811003"><ele>93.0</ele><time>2026-04-11T12:36:56.271Z</time></trkpt><trkpt lat="40.5709215" lon="9.6813199"><ele>93.0</ele><time>2026-04-11T12:36:57.289Z</time></trkpt><trkpt lat="40.5709135" lon="9.6815304"><ele>93.0</ele><time>2026-04-11T12:36:58.278Z</time></trkpt><trkpt lat="40.5709062" lon="9.6817294"><ele>93.0</ele><time>2026-04-11T12:36:59.269Z</time></trkpt><trkpt lat="40.5708869" lon="9.6819192"><ele>93.0</ele><time>2026-04-11T12:37:00.275Z</time></trkpt><trkpt lat="40.570854" lon="9.6820885"><ele>93.0</ele><time>2026-04-11T12:37:01.282Z</time></trkpt><trkpt lat="40.5708015" lon="9.6822431"><ele>93.0</ele><time>2026-04-11T12:37:02.278Z</time></trkpt><trkpt lat="40.5707398" lon="9.6823912"><ele>93.0</ele><time>2026-04-11T12:37:03.279Z</time></trkpt><trkpt lat="40.5706766" lon="9.6825296"><ele>93.0</ele><time>2026-04-11T12:37:04.286Z</time></trkpt><trkpt lat="40.5706191" lon="9.6826546"><ele>93.0</ele><time>2026-04-11T12:37:05.285Z</time></trkpt><trkpt lat="40.5705766" lon="9.6827775"><ele>93.0</ele><time>2026-04-11T12:37:06.3Z</time></trkpt><trkpt lat="40.570568" lon="9.6828944"><ele>93.0</ele><time>2026-04-11T12:37:07.283Z</time></trkpt><trkpt lat="40.5705809" lon="9.6830127"><ele>91.4</ele><time>2026-04-11T12:37:08.286Z</time></trkpt><trkpt lat="40.5706131" lon="9.6831273"><ele>89.80000000000001</ele><time>2026-04-11T12:37:09.282Z</time></trkpt><trkpt lat="40.5706539" lon="9.6832456"><ele>88.2</ele><time>2026-04-11T12:37:10.283Z</time></trkpt><trkpt lat="40.5706978" lon="9.6833693"><ele>86.6</ele><time>2026-04-11T12:37:11.289Z</time></trkpt><trkpt lat="40.5707351" lon="9.6834921"><ele>85.0</ele><time>2026-04-11T12:37:12.269Z</time></trkpt><trkpt lat="40.5707624" lon="9.6836141"><ele>84.4</ele><time>2026-04-11T12:37:13.272Z</time></trkpt><trkpt lat="40.5707796" lon="9.6837402"><ele>83.8</ele><time>2026-04-11T12:37:14.269Z</time></trkpt><trkpt lat="40.5707738" lon="9.6838733"><ele>83.19999999999999</ele><time>2026-04-11T12:37:15.271Z</time></trkpt><trkpt lat="40.5707458" lon="9.6840045"><ele>82.6</ele><time>2026-04-11T12:37:16.276Z</time></trkpt><trkpt lat="40.5707139" lon="9.6841286"><ele>82.0</ele><time>2026-04-11T12:37:17.278Z</time></trkpt><trkpt lat="40.5706866" lon="9.6842475"><ele>82.0</ele><time>2026-04-11T12:37:18.275Z</time></trkpt><trkpt lat="40.5706597" lon="9.6843505"><ele>82.0</ele><time>2026-04-11T12:37:19.279Z</time></trkpt><trkpt lat="40.570634" lon="9.6844339"><ele>82.0</ele><time>2026-04-11T12:37:20.29Z</time></trkpt><trkpt lat="40.5705904" lon="9.6845355"><ele>82.0</ele><time>2026-04-11T12:37:22.281Z</time></trkpt><trkpt lat="40.5705243" lon="9.684559"><ele>82.0</ele><time>2026-04-11T12:37:26.278Z</time></trkpt><trkpt lat="40.5704213" lon="9.684542"><ele>82.0</ele><time>2026-04-11T12:37:31.265Z</time></trkpt><trkpt lat="40.5703072" lon="9.6845007"><ele>82.16666666666666</ele><time>2026-04-11T12:37:33.253Z</time></trkpt><trkpt lat="40.5702347" lon="9.6844789"><ele>82.33333333333333</ele><time>2026-04-11T12:37:34.256Z</time></trkpt><trkpt lat="40.5701627" lon="9.6844638"><ele>82.5</ele><time>2026-04-11T12:37:35.258Z</time></trkpt><trkpt lat="40.5700841" lon="9.6844547"><ele>82.66666666666667</ele><time>2026-04-11T12:37:36.256Z</time></trkpt><trkpt lat="40.5699985" lon="9.6844419"><ele>82.83333333333334</ele><time>2026-04-11T12:37:37.258Z</time></trkpt><trkpt lat="40.5699023" lon="9.6844271"><ele>83.0</ele><time>2026-04-11T12:37:38.253Z</time></trkpt><trkpt lat="40.5697881" lon="9.6844111"><ele>83.0</ele><time>2026-04-11T12:37:39.25Z</time></trkpt><trkpt lat="40.5696576" lon="9.6843962"><ele>83.0</ele><time>2026-04-11T12:37:40.254Z</time></trkpt><trkpt lat="40.5695237" lon="9.684385"><ele>83.0</ele><time>2026-04-11T12:37:41.244Z</time></trkpt><trkpt lat="40.5693916" lon="9.6843757"><ele>83.0</ele><time>2026-04-11T12:37:42.25Z</time></trkpt><trkpt lat="40.5692715" lon="9.6843708"><ele>82.80000000000001</ele><time>2026-04-11T12:37:43.252Z</time></trkpt><trkpt lat="40.5691634" lon="9.68437"><ele>82.6</ele><time>2026-04-11T12:37:44.249Z</time></trkpt><trkpt lat="40.5690644" lon="9.6843731"><ele>82.4</ele><time>2026-04-11T12:37:45.251Z</time></trkpt><trkpt lat="40.5689762" lon="9.6843837"><ele>82.19999999999999</ele><time>2026-04-11T12:37:46.259Z</time></trkpt><trkpt lat="40.5688918" lon="9.684396"><ele>82.0</ele><time>2026-04-11T12:37:47.258Z</time></trkpt><trkpt lat="40.5688174" lon="9.6844156"><ele>81.33333333333333</ele><time>2026-04-11T12:37:48.236Z</time></trkpt><trkpt lat="40.5687524" lon="9.6844309"><ele>80.66666666666666</ele><time>2026-04-11T12:37:49.25Z</time></trkpt><trkpt lat="40.5686481" lon="9.6844435"><ele>80.0</ele><time>2026-04-11T12:37:51.254Z</time></trkpt><trkpt lat="40.5685603" lon="9.6844259"><ele>79.33333333333333</ele><time>2026-04-11T12:37:53.252Z</time></trkpt><trkpt lat="40.5684817" lon="9.6843935"><ele>78.66666666666667</ele><time>2026-04-11T12:37:55.261Z</time></trkpt><trkpt lat="40.5684117" lon="9.6843841"><ele>78.0</ele><time>2026-04-11T12:37:57.277Z</time></trkpt><trkpt lat="40.568348" lon="9.6844015"><ele>77.5</ele><time>2026-04-11T12:38:00.256Z</time></trkpt><trkpt lat="40.5682867" lon="9.6844526"><ele>77.0</ele><time>2026-04-11T12:45:14.266Z</time></trkpt><trkpt lat="40.5682323" lon="9.6845003"><ele>76.5</ele><time>2026-04-11T12:45:17.236Z</time></trkpt><trkpt lat="40.568155" lon="9.6845659"><ele>76.0</ele><time>2026-04-11T12:45:20.231Z</time></trkpt><trkpt lat="40.5680445" lon="9.6846184"><ele>75.5</ele><time>2026-04-11T12:45:22.24Z</time></trkpt><trkpt lat="40.5679767" lon="9.6846397"><ele>75.0</ele><time>2026-04-11T12:45:23.247Z</time></trkpt><trkpt lat="40.5678998" lon="9.6846621"><ele>73.8</ele><time>2026-04-11T12:45:24.242Z</time></trkpt><trkpt lat="40.5678165" lon="9.6846873"><ele>72.6</ele><time>2026-04-11T12:45:25.239Z</time></trkpt><trkpt lat="40.567725" lon="9.6847105"><ele>71.4</ele><time>2026-04-11T12:45:26.235Z</time></trkpt><trkpt lat="40.5676239" lon="9.6847328"><ele>70.2</ele><time>2026-04-11T12:45:27.252Z</time></trkpt><trkpt lat="40.5675181" lon="9.6847548"><ele>69.0</ele><time>2026-04-11T12:45:28.233Z</time></trkpt><trkpt lat="40.5674069" lon="9.6847814"><ele>69.0</ele><time>2026-04-11T12:45:29.233Z</time></trkpt><trkpt lat="40.5672878" lon="9.6848084"><ele>69.0</ele><time>2026-04-11T12:45:30.242Z</time></trkpt><trkpt lat="40.5671634" lon="9.6848396"><ele>69.0</ele><time>2026-04-11T12:45:31.243Z</time></trkpt><trkpt lat="40.5670396" lon="9.684872"><ele>69.0</ele><time>2026-04-11T12:45:32.243Z</time></trkpt><trkpt lat="40.5669179" lon="9.6849007"><ele>67.5</ele><time>2026-04-11T12:45:33.225Z</time></trkpt><trkpt lat="40.5667988" lon="9.6849218"><ele>66.0</ele><time>2026-04-11T12:45:34.242Z</time></trkpt><trkpt lat="40.5666808" lon="9.6849313"><ele>64.5</ele><time>2026-04-11T12:45:35.225Z</time></trkpt><trkpt lat="40.56656" lon="9.6849196"><ele>63.0</ele><time>2026-04-11T12:45:36.242Z</time></trkpt><trkpt lat="40.5664421" lon="9.6848791"><ele>63.0</ele><time>2026-04-11T12:45:37.232Z</time></trkpt><trkpt lat="40.5663195" lon="9.6848133"><ele>63.0</ele><time>2026-04-11T12:45:38.239Z</time></trkpt><trkpt lat="40.5661981" lon="9.6847254"><ele>63.0</ele><time>2026-04-11T12:45:39.234Z</time></trkpt><trkpt lat="40.5660821" lon="9.6846222"><ele>63.0</ele><time>2026-04-11T12:45:40.237Z</time></trkpt><trkpt lat="40.5659728" lon="9.684516"><ele>61.5</ele><time>2026-04-11T12:45:41.243Z</time></trkpt><trkpt lat="40.5658672" lon="9.6844117"><ele>60.0</ele><time>2026-04-11T12:45:42.237Z</time></trkpt><trkpt lat="40.5657722" lon="9.6843078"><ele>58.5</ele><time>2026-04-11T12:45:43.241Z</time></trkpt><trkpt lat="40.5656948" lon="9.6841969"><ele>57.0</ele><time>2026-04-11T12:45:44.238Z</time></trkpt><trkpt lat="40.5656392" lon="9.6840681"><ele>57.0</ele><time>2026-04-11T12:45:45.235Z</time></trkpt><trkpt lat="40.5656123" lon="9.6839287"><ele>57.0</ele><time>2026-04-11T12:45:46.24Z</time></trkpt><trkpt lat="40.5656073" lon="9.6837857"><ele>57.0</ele><time>2026-04-11T12:45:47.223Z</time></trkpt><trkpt lat="40.5656172" lon="9.6836311"><ele>57.0</ele><time>2026-04-11T12:45:48.25Z</time></trkpt><trkpt lat="40.5656484" lon="9.6834831"><ele>56.25</ele><time>2026-04-11T12:45:49.244Z</time></trkpt><trkpt lat="40.5656995" lon="9.6833434"><ele>55.5</ele><time>2026-04-11T12:45:50.228Z</time></trkpt><trkpt lat="40.5657664" lon="9.6832077"><ele>54.75</ele><time>2026-04-11T12:45:51.235Z</time></trkpt><trkpt lat="40.5658345" lon="9.6830691"><ele>54.0</ele><time>2026-04-11T12:45:52.232Z</time></trkpt><trkpt lat="40.5658939" lon="9.6829241"><ele>54.0</ele><time>2026-04-11T12:45:53.228Z</time></trkpt><trkpt lat="40.5659419" lon="9.6827773"><ele>54.0</ele><time>2026-04-11T12:45:54.236Z</time></trkpt><trkpt lat="40.5659664" lon="9.6826204"><ele>54.0</ele><time>2026-04-11T12:45:55.24Z</time></trkpt><trkpt lat="40.5659688" lon="9.6824612"><ele>54.0</ele><time>2026-04-11T12:45:56.224Z</time></trkpt><trkpt lat="40.5659558" lon="9.6822993"><ele>55.25</ele><time>2026-04-11T12:45:57.225Z</time></trkpt><trkpt lat="40.5659226" lon="9.6821409"><ele>56.5</ele><time>2026-04-11T12:45:58.24Z</time></trkpt><trkpt lat="40.5658706" lon="9.6819765"><ele>57.75</ele><time>2026-04-11T12:45:59.327Z</time></trkpt><trkpt lat="40.5658056" lon="9.6818179"><ele>59.0</ele><time>2026-04-11T12:46:00.324Z</time></trkpt><trkpt lat="40.5657298" lon="9.6816537"><ele>61.5</ele><time>2026-04-11T12:46:01.336Z</time></trkpt><trkpt lat="40.5655706" lon="9.6813224"><ele>64.0</ele><time>2026-04-11T12:46:03.231Z</time></trkpt><trkpt lat="40.565481" lon="9.6811475"><ele>64.33333333333333</ele><time>2026-04-11T12:46:04.22Z</time></trkpt><trkpt lat="40.5653824" lon="9.6809766"><ele>64.66666666666667</ele><time>2026-04-11T12:46:05.336Z</time></trkpt><trkpt lat="40.5652764" lon="9.6808345"><ele>65.0</ele><time>2026-04-11T12:46:06.333Z</time></trkpt><trkpt lat="40.5651559" lon="9.6807097"><ele>64.33333333333334</ele><time>2026-04-11T12:46:07.324Z</time></trkpt><trkpt lat="40.5650309" lon="9.6805936"><ele>63.66666666666667</ele><time>2026-04-11T12:46:08.339Z</time></trkpt><trkpt lat="40.5648117" lon="9.6803651"><ele>63.0</ele><time>2026-04-11T12:46:10.32Z</time></trkpt><trkpt lat="40.5647232" lon="9.6802348"><ele>63.0</ele><time>2026-04-11T12:46:11.321Z</time></trkpt><trkpt lat="40.5646742" lon="9.6800871"><ele>63.0</ele><time>2026-04-11T12:46:12.324Z</time></trkpt><trkpt lat="40.5646694" lon="9.6799365"><ele>63.0</ele><time>2026-04-11T12:46:13.316Z</time></trkpt><trkpt lat="40.5646827" lon="9.6797827"><ele>63.0</ele><time>2026-04-11T12:46:14.316Z</time></trkpt><trkpt lat="40.5647148" lon="9.6796325"><ele>63.0</ele><time>2026-04-11T12:46:15.324Z</time></trkpt><trkpt lat="40.5647538" lon="9.6794763"><ele>63.0</ele><time>2026-04-11T12:46:16.325Z</time></trkpt><trkpt lat="40.5647906" lon="9.6793196"><ele>63.0</ele><time>2026-04-11T12:46:17.331Z</time></trkpt><trkpt lat="40.5648107" lon="9.6791588"><ele>63.0</ele><time>2026-04-11T12:46:18.316Z</time></trkpt><trkpt lat="40.5648014" lon="9.6789889"><ele>63.0</ele><time>2026-04-11T12:46:19.35Z</time></trkpt><trkpt lat="40.5647728" lon="9.6788201"><ele>63.0</ele><time>2026-04-11T12:46:20.323Z</time></trkpt><trkpt lat="40.5647337" lon="9.6786444"><ele>63.0</ele><time>2026-04-11T12:46:21.319Z</time></trkpt><trkpt lat="40.5646936" lon="9.6784668"><ele>63.0</ele><time>2026-04-11T12:46:22.32Z</time></trkpt><trkpt lat="40.5646471" lon="9.6782915"><ele>62.0</ele><time>2026-04-11T12:46:23.327Z</time></trkpt><trkpt lat="40.5645938" lon="9.6781301"><ele>61.0</ele><time>2026-04-11T12:46:24.315Z</time></trkpt><trkpt lat="40.5645294" lon="9.6779851"><ele>60.0</ele><time>2026-04-11T12:46:25.312Z</time></trkpt><trkpt lat="40.5644454" lon="9.6778569"><ele>59.0</ele><time>2026-04-11T12:46:26.316Z</time></trkpt><trkpt lat="40.5643433" lon="9.6777617"><ele>62.25</ele><time>2026-04-11T12:46:27.324Z</time></trkpt><trkpt lat="40.5642299" lon="9.6776885"><ele>65.5</ele><time>2026-04-11T12:46:28.311Z</time></trkpt><trkpt lat="40.5641057" lon="9.6776477"><ele>68.75</ele><time>2026-04-11T12:46:29.32Z</time></trkpt><trkpt lat="40.5639805" lon="9.6776371"><ele>72.0</ele><time>2026-04-11T12:46:30.319Z</time></trkpt><trkpt lat="40.5638495" lon="9.6776475"><ele>72.0</ele><time>2026-04-11T12:46:31.327Z</time></trkpt><trkpt lat="40.5637156" lon="9.6776737"><ele>72.0</ele><time>2026-04-11T12:46:32.32Z</time></trkpt><trkpt lat="40.563575" lon="9.6777127"><ele>72.0</ele><time>2026-04-11T12:46:33.313Z</time></trkpt><trkpt lat="40.5634298" lon="9.6777611"><ele>72.0</ele><time>2026-04-11T12:46:34.308Z</time></trkpt><trkpt lat="40.5632801" lon="9.6778088"><ele>65.33333333333333</ele><time>2026-04-11T12:46:35.32Z</time></trkpt><trkpt lat="40.5631271" lon="9.6778519"><ele>58.666666666666664</ele><time>2026-04-11T12:46:36.322Z</time></trkpt><trkpt lat="40.562974" lon="9.6778932"><ele>52.0</ele><time>2026-04-11T12:46:37.318Z</time></trkpt><trkpt lat="40.5628189" lon="9.6779323"><ele>51.33333333333333</ele><time>2026-04-11T12:46:38.314Z</time></trkpt><trkpt lat="40.5626615" lon="9.6779742"><ele>50.66666666666667</ele><time>2026-04-11T12:46:39.306Z</time></trkpt><trkpt lat="40.5625025" lon="9.678016"><ele>50.0</ele><time>2026-04-11T12:46:40.32Z</time></trkpt><trkpt lat="40.5623425" lon="9.6780523"><ele>50.0</ele><time>2026-04-11T12:46:41.31Z</time></trkpt><trkpt lat="40.5621771" lon="9.6780783"><ele>50.0</ele><time>2026-04-11T12:46:42.326Z</time></trkpt><trkpt lat="40.5620186" lon="9.6780949"><ele>50.0</ele><time>2026-04-11T12:46:43.304Z</time></trkpt><trkpt lat="40.5618641" lon="9.6781104"><ele>50.25</ele><time>2026-04-11T12:46:44.301Z</time></trkpt><trkpt lat="40.561724" lon="9.678148"><ele>50.5</ele><time>2026-04-11T12:46:45.322Z</time></trkpt><trkpt lat="40.5616033" lon="9.6782151"><ele>50.75</ele><time>2026-04-11T12:46:46.303Z</time></trkpt><trkpt lat="40.5614832" lon="9.6782944"><ele>51.0</ele><time>2026-04-11T12:46:47.323Z</time></trkpt><trkpt lat="40.5613581" lon="9.6783573"><ele>51.0</ele><time>2026-04-11T12:46:48.318Z</time></trkpt><trkpt lat="40.5612232" lon="9.6784008"><ele>51.0</ele><time>2026-04-11T12:46:49.31Z</time></trkpt><trkpt lat="40.5610835" lon="9.6784375"><ele>51.0</ele><time>2026-04-11T12:46:50.314Z</time></trkpt><trkpt lat="40.5609425" lon="9.6784622"><ele>51.0</ele><time>2026-04-11T12:46:51.309Z</time></trkpt><trkpt lat="40.5608033" lon="9.6784776"><ele>50.75</ele><time>2026-04-11T12:46:52.3Z</time></trkpt><trkpt lat="40.5606664" lon="9.6784834"><ele>50.5</ele><time>2026-04-11T12:46:53.313Z</time></trkpt><trkpt lat="40.5605305" lon="9.6784665"><ele>50.25</ele><time>2026-04-11T12:46:54.302Z</time></trkpt><trkpt lat="40.5603921" lon="9.6784257"><ele>50.0</ele><time>2026-04-11T12:46:55.308Z</time></trkpt><trkpt lat="40.56025" lon="9.6783567"><ele>48.66666666666667</ele><time>2026-04-11T12:46:56.32Z</time></trkpt><trkpt lat="40.5601037" lon="9.6782709"><ele>47.333333333333336</ele><time>2026-04-11T12:46:57.347Z</time></trkpt><trkpt lat="40.5599553" lon="9.6781782"><ele>46.0</ele><time>2026-04-11T12:46:58.305Z</time></trkpt><trkpt lat="40.5597949" lon="9.6780742"><ele>46.0</ele><time>2026-04-11T12:46:59.315Z</time></trkpt><trkpt lat="40.5596297" lon="9.6779734"><ele>46.0</ele><time>2026-04-11T12:47:00.304Z</time></trkpt><trkpt lat="40.5594623" lon="9.6778738"><ele>46.0</ele><time>2026-04-11T12:47:01.304Z</time></trkpt><trkpt lat="40.5592983" lon="9.6777772"><ele>47.0</ele><time>2026-04-11T12:47:02.303Z</time></trkpt><trkpt lat="40.5591349" lon="9.6776826"><ele>48.0</ele><time>2026-04-11T12:47:03.308Z</time></trkpt><trkpt lat="40.5589719" lon="9.6775898"><ele>49.0</ele><time>2026-04-11T12:47:04.299Z</time></trkpt><trkpt lat="40.5588064" lon="9.6774903"><ele>48.33333333333333</ele><time>2026-04-11T12:47:05.311Z</time></trkpt><trkpt lat="40.5586347" lon="9.6773866"><ele>47.666666666666664</ele><time>2026-04-11T12:47:06.305Z</time></trkpt><trkpt lat="40.5584559" lon="9.6772798"><ele>47.0</ele><time>2026-04-11T12:47:07.31Z</time></trkpt><trkpt lat="40.5582749" lon="9.6771729"><ele>47.0</ele><time>2026-04-11T12:47:08.315Z</time></trkpt><trkpt lat="40.5580939" lon="9.6770645"><ele>47.0</ele><time>2026-04-11T12:47:09.314Z</time></trkpt><trkpt lat="40.5579205" lon="9.6769604"><ele>47.0</ele><time>2026-04-11T12:47:10.306Z</time></trkpt><trkpt lat="40.5577556" lon="9.6768593"><ele>48.33333333333333</ele><time>2026-04-11T12:47:11.302Z</time></trkpt><trkpt lat="40.557596" lon="9.6767607"><ele>49.666666666666664</ele><time>2026-04-11T12:47:12.306Z</time></trkpt><trkpt lat="40.5574406" lon="9.6766672"><ele>51.0</ele><time>2026-04-11T12:47:13.33Z</time></trkpt><trkpt lat="40.5572871" lon="9.6765785"><ele>51.0</ele><time>2026-04-11T12:47:14.314Z</time></trkpt><trkpt lat="40.5571291" lon="9.6764884"><ele>51.0</ele><time>2026-04-11T12:47:15.316Z</time></trkpt><trkpt lat="40.5569749" lon="9.6763968"><ele>51.0</ele><time>2026-04-11T12:47:16.307Z</time></trkpt><trkpt lat="40.5568191" lon="9.6763038"><ele>51.0</ele><time>2026-04-11T12:47:17.31Z</time></trkpt><trkpt lat="40.5566652" lon="9.6762127"><ele>51.0</ele><time>2026-04-11T12:47:18.301Z</time></trkpt><trkpt lat="40.556509" lon="9.6761227"><ele>51.0</ele><time>2026-04-11T12:47:19.315Z</time></trkpt><trkpt lat="40.5563524" lon="9.6760324"><ele>52.33333333333333</ele><time>2026-04-11T12:47:20.298Z</time></trkpt><trkpt lat="40.5561931" lon="9.6759379"><ele>53.666666666666664</ele><time>2026-04-11T12:47:21.299Z</time></trkpt><trkpt lat="40.5560314" lon="9.675837"><ele>55.0</ele><time>2026-04-11T12:47:22.306Z</time></trkpt><trkpt lat="40.5558716" lon="9.6757377"><ele>55.0</ele><time>2026-04-11T12:47:23.302Z</time></trkpt><trkpt lat="40.5557088" lon="9.6756388"><ele>55.0</ele><time>2026-04-11T12:47:24.289Z</time></trkpt><trkpt lat="40.5555419" lon="9.6755407"><ele>55.0</ele><time>2026-04-11T12:47:25.314Z</time></trkpt><trkpt lat="40.5553779" lon="9.6754431"><ele>54.33333333333333</ele><time>2026-04-11T12:47:26.29Z</time></trkpt><trkpt lat="40.5552105" lon="9.6753439"><ele>53.66666666666667</ele><time>2026-04-11T12:47:27.294Z</time></trkpt><trkpt lat="40.5550431" lon="9.6752409"><ele>53.0</ele><time>2026-04-11T12:47:28.299Z</time></trkpt><trkpt lat="40.5548753" lon="9.6751423"><ele>54.66666666666667</ele><time>2026-04-11T12:47:29.301Z</time></trkpt><trkpt lat="40.5547027" lon="9.6750446"><ele>56.33333333333333</ele><time>2026-04-11T12:47:30.306Z</time></trkpt><trkpt lat="40.5545283" lon="9.6749457"><ele>58.0</ele><time>2026-04-11T12:47:31.288Z</time></trkpt><trkpt lat="40.5543529" lon="9.6748439"><ele>58.0</ele><time>2026-04-11T12:47:32.29Z</time></trkpt><trkpt lat="40.5541787" lon="9.6747431"><ele>58.0</ele><time>2026-04-11T12:47:33.305Z</time></trkpt><trkpt lat="40.5540104" lon="9.6746428"><ele>58.0</ele><time>2026-04-11T12:47:34.285Z</time></trkpt><trkpt lat="40.5538384" lon="9.6745405"><ele>57.33333333333333</ele><time>2026-04-11T12:47:35.312Z</time></trkpt><trkpt lat="40.5536703" lon="9.674445"><ele>56.66666666666667</ele><time>2026-04-11T12:47:36.288Z</time></trkpt><trkpt lat="40.553499" lon="9.6743439"><ele>56.0</ele><time>2026-04-11T12:47:37.296Z</time></trkpt><trkpt lat="40.5533274" lon="9.6742427"><ele>56.0</ele><time>2026-04-11T12:47:38.291Z</time></trkpt><trkpt lat="40.5531542" lon="9.6741406"><ele>56.0</ele><time>2026-04-11T12:47:39.297Z</time></trkpt><trkpt lat="40.5529836" lon="9.6740386"><ele>56.0</ele><time>2026-04-11T12:47:40.286Z</time></trkpt><trkpt lat="40.5528096" lon="9.6739365"><ele>54.66666666666667</ele><time>2026-04-11T12:47:41.291Z</time></trkpt><trkpt lat="40.5526361" lon="9.6738353"><ele>53.33333333333333</ele><time>2026-04-11T12:47:42.289Z</time></trkpt><trkpt lat="40.552462" lon="9.67373"><ele>52.0</ele><time>2026-04-11T12:47:43.296Z</time></trkpt><trkpt lat="40.5522876" lon="9.6736255"><ele>51.666666666666664</ele><time>2026-04-11T12:47:44.29Z</time></trkpt><trkpt lat="40.5521096" lon="9.6735192"><ele>51.33333333333333</ele><time>2026-04-11T12:47:45.294Z</time></trkpt><trkpt lat="40.5519313" lon="9.673413"><ele>51.0</ele><time>2026-04-11T12:47:46.284Z</time></trkpt><trkpt lat="40.5517509" lon="9.6733047"><ele>51.0</ele><time>2026-04-11T12:47:47.295Z</time></trkpt><trkpt lat="40.551571" lon="9.6731989"><ele>51.0</ele><time>2026-04-11T12:47:48.281Z</time></trkpt><trkpt lat="40.5513901" lon="9.6730917"><ele>51.0</ele><time>2026-04-11T12:47:49.289Z</time></trkpt><trkpt lat="40.5512111" lon="9.6729832"><ele>50.66666666666667</ele><time>2026-04-11T12:47:50.304Z</time></trkpt><trkpt lat="40.55104" lon="9.6728829"><ele>50.333333333333336</ele><time>2026-04-11T12:47:51.291Z</time></trkpt><trkpt lat="40.550876" lon="9.672787"><ele>50.0</ele><time>2026-04-11T12:47:52.283Z</time></trkpt><trkpt lat="40.5507171" lon="9.6726961"><ele>50.0</ele><time>2026-04-11T12:47:53.303Z</time></trkpt><trkpt lat="40.5505641" lon="9.6726061"><ele>50.0</ele><time>2026-04-11T12:47:54.279Z</time></trkpt><trkpt lat="40.5504105" lon="9.6725124"><ele>50.0</ele><time>2026-04-11T12:47:55.293Z</time></trkpt><trkpt lat="40.5502575" lon="9.67242"><ele>48.66666666666667</ele><time>2026-04-11T12:47:56.284Z</time></trkpt><trkpt lat="40.5501077" lon="9.6723307"><ele>47.333333333333336</ele><time>2026-04-11T12:47:57.287Z</time></trkpt><trkpt lat="40.5499657" lon="9.6722414"><ele>46.0</ele><time>2026-04-11T12:47:58.299Z</time></trkpt><trkpt lat="40.5498322" lon="9.6721589"><ele>46.0</ele><time>2026-04-11T12:47:59.285Z</time></trkpt><trkpt lat="40.5497062" lon="9.6720801"><ele>46.0</ele><time>2026-04-11T12:48:00.29Z</time></trkpt><trkpt lat="40.5495821" lon="9.6720028"><ele>46.0</ele><time>2026-04-11T12:48:01.328Z</time></trkpt><trkpt lat="40.549457" lon="9.6719382"><ele>46.0</ele><time>2026-04-11T12:48:02.294Z</time></trkpt><trkpt lat="40.5493339" lon="9.6719008"><ele>44.75</ele><time>2026-04-11T12:48:03.29Z</time></trkpt><trkpt lat="40.5492132" lon="9.6719098"><ele>43.5</ele><time>2026-04-11T12:48:04.283Z</time></trkpt><trkpt lat="40.5490944" lon="9.6719555"><ele>42.25</ele><time>2026-04-11T12:48:05.29Z</time></trkpt><trkpt lat="40.5489862" lon="9.67202"><ele>41.0</ele><time>2026-04-11T12:48:06.287Z</time></trkpt><trkpt lat="40.5488921" lon="9.67209"><ele>40.5</ele><time>2026-04-11T12:48:07.281Z</time></trkpt><trkpt lat="40.5488157" lon="9.6721528"><ele>40.0</ele><time>2026-04-11T12:48:08.283Z</time></trkpt><trkpt lat="40.5487532" lon="9.6722045"><ele>39.5</ele><time>2026-04-11T12:48:09.298Z</time></trkpt><trkpt lat="40.5486751" lon="9.6722781"><ele>39.0</ele><time>2026-04-11T12:48:11.334Z</time></trkpt><trkpt lat="40.5486752" lon="9.672396"><ele>38.5</ele><time>2026-04-11T12:48:13.29Z</time></trkpt><trkpt lat="40.5486992" lon="9.6724928"><ele>38.0</ele><time>2026-04-11T12:48:14.286Z</time></trkpt><trkpt lat="40.5487421" lon="9.6726023"><ele>38.0</ele><time>2026-04-11T12:48:15.275Z</time></trkpt><trkpt lat="40.5487958" lon="9.6727287"><ele>38.0</ele><time>2026-04-11T12:48:16.271Z</time></trkpt><trkpt lat="40.5488583" lon="9.6728663"><ele>38.0</ele><time>2026-04-11T12:48:17.279Z</time></trkpt><trkpt lat="40.5489219" lon="9.6730141"><ele>38.0</ele><time>2026-04-11T12:48:18.276Z</time></trkpt><trkpt lat="40.5489863" lon="9.673167"><ele>37.0</ele><time>2026-04-11T12:48:19.282Z</time></trkpt><trkpt lat="40.549053" lon="9.6733216"><ele>36.0</ele><time>2026-04-11T12:48:20.272Z</time></trkpt><trkpt lat="40.5491221" lon="9.6734827"><ele>35.0</ele><time>2026-04-11T12:48:21.268Z</time></trkpt><trkpt lat="40.5491923" lon="9.6736499"><ele>34.0</ele><time>2026-04-11T12:48:22.288Z</time></trkpt><trkpt lat="40.5492605" lon="9.6738148"><ele>33.5</ele><time>2026-04-11T12:48:23.276Z</time></trkpt><trkpt lat="40.5493306" lon="9.6739819"><ele>33.0</ele><time>2026-04-11T12:48:24.271Z</time></trkpt><trkpt lat="40.5494008" lon="9.6741544"><ele>32.5</ele><time>2026-04-11T12:48:25.274Z</time></trkpt><trkpt lat="40.5494601" lon="9.6743267"><ele>32.0</ele><time>2026-04-11T12:48:26.277Z</time></trkpt><trkpt lat="40.5495041" lon="9.6744989"><ele>32.0</ele><time>2026-04-11T12:48:27.279Z</time></trkpt><trkpt lat="40.549532" lon="9.6746767"><ele>32.0</ele><time>2026-04-11T12:48:28.284Z</time></trkpt><trkpt lat="40.5495453" lon="9.6748582"><ele>32.0</ele><time>2026-04-11T12:48:29.28Z</time></trkpt><trkpt lat="40.5495438" lon="9.6750495"><ele>32.0</ele><time>2026-04-11T12:48:30.278Z</time></trkpt><trkpt lat="40.5495302" lon="9.675254"><ele>30.666666666666664</ele><time>2026-04-11T12:48:31.278Z</time></trkpt><trkpt lat="40.5495121" lon="9.6754664"><ele>29.333333333333336</ele><time>2026-04-11T12:48:32.269Z</time></trkpt><trkpt lat="40.5494934" lon="9.6756842"><ele>28.0</ele><time>2026-04-11T12:48:33.279Z</time></trkpt><trkpt lat="40.5494751" lon="9.6759058"><ele>27.333333333333336</ele><time>2026-04-11T12:48:34.281Z</time></trkpt><trkpt lat="40.5494581" lon="9.6761313"><ele>26.666666666666664</ele><time>2026-04-11T12:48:35.294Z</time></trkpt><trkpt lat="40.5494411" lon="9.6763507"><ele>26.0</ele><time>2026-04-11T12:48:36.278Z</time></trkpt><trkpt lat="40.5494221" lon="9.6765682"><ele>26.0</ele><time>2026-04-11T12:48:37.288Z</time></trkpt><trkpt lat="40.5494052" lon="9.6767847"><ele>26.0</ele><time>2026-04-11T12:48:38.27Z</time></trkpt><trkpt lat="40.5493888" lon="9.677001"><ele>26.0</ele><time>2026-04-11T12:48:39.281Z</time></trkpt><trkpt lat="40.5493708" lon="9.6772156"><ele>27.0</ele><time>2026-04-11T12:48:40.282Z</time></trkpt><trkpt lat="40.5493534" lon="9.6774282"><ele>28.0</ele><time>2026-04-11T12:48:41.282Z</time></trkpt><trkpt lat="40.5493321" lon="9.677638"><ele>29.0</ele><time>2026-04-11T12:48:42.277Z</time></trkpt><trkpt lat="40.5493118" lon="9.6778498"><ele>29.333333333333332</ele><time>2026-04-11T12:48:43.279Z</time></trkpt><trkpt lat="40.5492926" lon="9.678064"><ele>29.666666666666664</ele><time>2026-04-11T12:48:44.267Z</time></trkpt><trkpt lat="40.549276" lon="9.6782789"><ele>30.0</ele><time>2026-04-11T12:48:45.28Z</time></trkpt><trkpt lat="40.5492596" lon="9.6784929"><ele>30.666666666666664</ele><time>2026-04-11T12:48:46.273Z</time></trkpt><trkpt lat="40.5492432" lon="9.6787056"><ele>31.333333333333332</ele><time>2026-04-11T12:48:47.281Z</time></trkpt><trkpt lat="40.5492248" lon="9.678916"><ele>32.0</ele><time>2026-04-11T12:48:48.286Z</time></trkpt><trkpt lat="40.5492072" lon="9.6791272"><ele>32.0</ele><time>2026-04-11T12:48:49.287Z</time></trkpt><trkpt lat="40.5491892" lon="9.679337"><ele>32.0</ele><time>2026-04-11T12:48:50.278Z</time></trkpt><trkpt lat="40.5491729" lon="9.6795456"><ele>32.0</ele><time>2026-04-11T12:48:51.268Z</time></trkpt><trkpt lat="40.5491571" lon="9.6797517"><ele>32.0</ele><time>2026-04-11T12:48:52.28Z</time></trkpt><trkpt lat="40.5491427" lon="9.6799586"><ele>32.0</ele><time>2026-04-11T12:48:53.275Z</time></trkpt><trkpt lat="40.5491294" lon="9.680166"><ele>32.0</ele><time>2026-04-11T12:48:54.269Z</time></trkpt><trkpt lat="40.5491157" lon="9.6803785"><ele>32.0</ele><time>2026-04-11T12:48:55.274Z</time></trkpt><trkpt lat="40.5490999" lon="9.6805906"><ele>32.0</ele><time>2026-04-11T12:48:56.273Z</time></trkpt><trkpt lat="40.5490815" lon="9.6808059"><ele>32.0</ele><time>2026-04-11T12:48:57.278Z</time></trkpt><trkpt lat="40.5490639" lon="9.6810232"><ele>30.666666666666664</ele><time>2026-04-11T12:48:58.275Z</time></trkpt><trkpt lat="40.5490463" lon="9.6812387"><ele>29.333333333333336</ele><time>2026-04-11T12:48:59.266Z</time></trkpt><trkpt lat="40.5490313" lon="9.6814552"><ele>28.0</ele><time>2026-04-11T12:49:00.27Z</time></trkpt><trkpt lat="40.549019" lon="9.6816721"><ele>28.0</ele><time>2026-04-11T12:49:01.278Z</time></trkpt><trkpt lat="40.5490111" lon="9.681892"><ele>28.0</ele><time>2026-04-11T12:49:02.27Z</time></trkpt><trkpt lat="40.549011" lon="9.6821134"><ele>28.0</ele><time>2026-04-11T12:49:03.265Z</time></trkpt><trkpt lat="40.549022" lon="9.6823334"><ele>28.333333333333336</ele><time>2026-04-11T12:49:04.266Z</time></trkpt><trkpt lat="40.5490383" lon="9.6825487"><ele>28.666666666666664</ele><time>2026-04-11T12:49:05.276Z</time></trkpt><trkpt lat="40.5490579" lon="9.6827667"><ele>29.0</ele><time>2026-04-11T12:49:06.271Z</time></trkpt><trkpt lat="40.5490825" lon="9.6829874"><ele>30.0</ele><time>2026-04-11T12:49:07.25Z</time></trkpt><trkpt lat="40.5491146" lon="9.6832118"><ele>31.0</ele><time>2026-04-11T12:49:08.276Z</time></trkpt><trkpt lat="40.5491484" lon="9.6834307"><ele>32.0</ele><time>2026-04-11T12:49:09.269Z</time></trkpt><trkpt lat="40.549183" lon="9.6836516"><ele>32.33333333333333</ele><time>2026-04-11T12:49:10.267Z</time></trkpt><trkpt lat="40.5492155" lon="9.6838759"><ele>32.666666666666664</ele><time>2026-04-11T12:49:11.261Z</time></trkpt><trkpt lat="40.5492463" lon="9.6841039"><ele>33.0</ele><time>2026-04-11T12:49:12.255Z</time></trkpt><trkpt lat="40.5492789" lon="9.6843353"><ele>34.0</ele><time>2026-04-11T12:49:13.271Z</time></trkpt><trkpt lat="40.5493135" lon="9.6845625"><ele>35.0</ele><time>2026-04-11T12:49:14.264Z</time></trkpt><trkpt lat="40.5493502" lon="9.6847867"><ele>36.0</ele><time>2026-04-11T12:49:15.265Z</time></trkpt><trkpt lat="40.5493871" lon="9.6850078"><ele>36.0</ele><time>2026-04-11T12:49:16.275Z</time></trkpt><trkpt lat="40.5494216" lon="9.6852249"><ele>36.0</ele><time>2026-04-11T12:49:17.274Z</time></trkpt><trkpt lat="40.5494556" lon="9.6854341"><ele>36.0</ele><time>2026-04-11T12:49:18.257Z</time></trkpt><trkpt lat="40.5494933" lon="9.6856342"><ele>36.666666666666664</ele><time>2026-04-11T12:49:19.257Z</time></trkpt><trkpt lat="40.549539" lon="9.6858297"><ele>37.33333333333333</ele><time>2026-04-11T12:49:20.265Z</time></trkpt><trkpt lat="40.5495932" lon="9.6860182"><ele>38.0</ele><time>2026-04-11T12:49:21.271Z</time></trkpt><trkpt lat="40.5496575" lon="9.68621"><ele>39.0</ele><time>2026-04-11T12:49:22.272Z</time></trkpt><trkpt lat="40.5497325" lon="9.6864025"><ele>40.0</ele><time>2026-04-11T12:49:23.262Z</time></trkpt><trkpt lat="40.549819" lon="9.6865951"><ele>41.0</ele><time>2026-04-11T12:49:24.242Z</time></trkpt><trkpt lat="40.5499185" lon="9.6867928"><ele>41.33333333333333</ele><time>2026-04-11T12:49:25.262Z</time></trkpt><trkpt lat="40.5500256" lon="9.6869873"><ele>41.666666666666664</ele><time>2026-04-11T12:49:26.248Z</time></trkpt><trkpt lat="40.5501409" lon="9.6871804"><ele>42.0</ele><time>2026-04-11T12:49:27.243Z</time></trkpt><trkpt lat="40.5502592" lon="9.6873751"><ele>41.666666666666664</ele><time>2026-04-11T12:49:28.25Z</time></trkpt><trkpt lat="40.5503793" lon="9.6875693"><ele>41.33333333333333</ele><time>2026-04-11T12:49:29.252Z</time></trkpt><trkpt lat="40.5504991" lon="9.687759"><ele>41.0</ele><time>2026-04-11T12:49:30.247Z</time></trkpt><trkpt lat="40.5506182" lon="9.6879507"><ele>42.0</ele><time>2026-04-11T12:49:31.26Z</time></trkpt><trkpt lat="40.550735" lon="9.6881397"><ele>43.0</ele><time>2026-04-11T12:49:32.251Z</time></trkpt><trkpt lat="40.5508498" lon="9.6883261"><ele>44.0</ele><time>2026-04-11T12:49:33.243Z</time></trkpt><trkpt lat="40.550963" lon="9.6885097"><ele>44.0</ele><time>2026-04-11T12:49:34.251Z</time></trkpt><trkpt lat="40.5510729" lon="9.6886913"><ele>44.0</ele><time>2026-04-11T12:49:35.261Z</time></trkpt><trkpt lat="40.5511791" lon="9.6888719"><ele>44.0</ele><time>2026-04-11T12:49:36.244Z</time></trkpt><trkpt lat="40.5512799" lon="9.6890584"><ele>43.33333333333333</ele><time>2026-04-11T12:49:37.24Z</time></trkpt><trkpt lat="40.5513745" lon="9.6892507"><ele>42.666666666666664</ele><time>2026-04-11T12:49:38.256Z</time></trkpt><trkpt lat="40.5514607" lon="9.6894434"><ele>42.0</ele><time>2026-04-11T12:49:39.247Z</time></trkpt><trkpt lat="40.5515477" lon="9.6896416"><ele>43.333333333333336</ele><time>2026-04-11T12:49:40.253Z</time></trkpt><trkpt lat="40.551636" lon="9.6898379"><ele>44.66666666666667</ele><time>2026-04-11T12:49:41.261Z</time></trkpt><trkpt lat="40.5517257" lon="9.6900382"><ele>46.0</ele><time>2026-04-11T12:49:42.262Z</time></trkpt><trkpt lat="40.5518144" lon="9.6902416"><ele>45.66666666666667</ele><time>2026-04-11T12:49:43.239Z</time></trkpt><trkpt lat="40.5519058" lon="9.6904491"><ele>45.333333333333336</ele><time>2026-04-11T12:49:44.241Z</time></trkpt><trkpt lat="40.5519997" lon="9.6906555"><ele>45.0</ele><time>2026-04-11T12:49:45.242Z</time></trkpt><trkpt lat="40.5520909" lon="9.6908562"><ele>45.0</ele><time>2026-04-11T12:49:46.27Z</time></trkpt><trkpt lat="40.5521749" lon="9.6910429"><ele>45.0</ele><time>2026-04-11T12:49:47.247Z</time></trkpt><trkpt lat="40.5522523" lon="9.6912215"><ele>45.0</ele><time>2026-04-11T12:49:48.247Z</time></trkpt><trkpt lat="40.5523228" lon="9.6913803"><ele>45.0</ele><time>2026-04-11T12:49:49.243Z</time></trkpt><trkpt lat="40.5524546" lon="9.6916877"><ele>45.0</ele><time>2026-04-11T12:49:52.238Z</time></trkpt><trkpt lat="40.5524942" lon="9.691779"><ele>45.0</ele><time>2026-04-11T12:49:54.248Z</time></trkpt><trkpt lat="40.5525108" lon="9.6918932"><ele>45.0</ele><time>2026-04-11T12:50:00.278Z</time></trkpt><trkpt lat="40.5524281" lon="9.6918833"><ele>45.0</ele><time>2026-04-11T12:50:04.23Z</time></trkpt><trkpt lat="40.5523131" lon="9.6917373"><ele>45.0</ele><time>2026-04-11T12:50:07.246Z</time></trkpt><trkpt lat="40.5522658" lon="9.6916512"><ele>45.0</ele><time>2026-04-11T12:50:08.245Z</time></trkpt><trkpt lat="40.5520857" lon="9.6914138"><ele>47.0</ele><time>2026-04-11T12:50:11.239Z</time></trkpt><trkpt lat="40.5518522" lon="9.6912796"><ele>49.0</ele><time>2026-04-11T12:50:14.248Z</time></trkpt><trkpt lat="40.5517729" lon="9.6912666"><ele>51.0</ele><time>2026-04-11T12:50:15.244Z</time></trkpt><trkpt lat="40.5515279" lon="9.6912437"><ele>51.0</ele><time>2026-04-11T12:50:18.246Z</time></trkpt><trkpt lat="40.5514388" lon="9.6912252"><ele>51.0</ele><time>2026-04-11T12:50:19.225Z</time></trkpt><trkpt lat="40.5511679" lon="9.6910744"><ele>51.0</ele><time>2026-04-11T12:50:22.242Z</time></trkpt><trkpt lat="40.5508977" lon="9.6909128"><ele>50.0</ele><time>2026-04-11T12:50:25.236Z</time></trkpt><trkpt lat="40.5508066" lon="9.6908579"><ele>49.0</ele><time>2026-04-11T12:50:26.247Z</time></trkpt><trkpt lat="40.550561" lon="9.6906825"><ele>48.0</ele><time>2026-04-11T12:50:29.233Z</time></trkpt><trkpt lat="40.5504818" lon="9.6906196"><ele>47.333333333333336</ele><time>2026-04-11T12:50:30.24Z</time></trkpt><trkpt lat="40.5502248" lon="9.6904209"><ele>46.66666666666667</ele><time>2026-04-11T12:50:33.227Z</time></trkpt><trkpt lat="40.5501378" lon="9.6903344"><ele>46.0</ele><time>2026-04-11T12:50:34.33Z</time></trkpt><trkpt lat="40.5498617" lon="9.6900524"><ele>46.0</ele><time>2026-04-11T12:50:38.33Z</time></trkpt><trkpt lat="40.5495439" lon="9.6897261"><ele>46.0</ele><time>2026-04-11T12:50:43.315Z</time></trkpt><trkpt lat="40.5493642" lon="9.6895051"><ele>44.5</ele><time>2026-04-11T12:50:46.317Z</time></trkpt><trkpt lat="40.5492978" lon="9.6894219"><ele>43.0</ele><time>2026-04-11T12:50:47.337Z</time></trkpt><trkpt lat="40.5492385" lon="9.6893413"><ele>41.5</ele><time>2026-04-11T12:50:48.331Z</time></trkpt><trkpt lat="40.5490816" lon="9.6890773"><ele>40.0</ele><time>2026-04-11T12:50:51.32Z</time></trkpt><trkpt lat="40.5490269" lon="9.688987"><ele>40.0</ele><time>2026-04-11T12:50:52.332Z</time></trkpt><trkpt lat="40.5488215" lon="9.6887488"><ele>40.0</ele><time>2026-04-11T12:50:55.327Z</time></trkpt><trkpt lat="40.5487475" lon="9.6886871"><ele>40.0</ele><time>2026-04-11T12:50:56.339Z</time></trkpt><trkpt lat="40.54867" lon="9.6886333"><ele>40.0</ele><time>2026-04-11T12:50:57.336Z</time></trkpt><trkpt lat="40.5483253" lon="9.688452"><ele>41.0</ele><time>2026-04-11T12:51:01.32Z</time></trkpt><trkpt lat="40.5482396" lon="9.6884175"><ele>42.0</ele><time>2026-04-11T12:51:02.317Z</time></trkpt><trkpt lat="40.5479756" lon="9.6883297"><ele>43.0</ele><time>2026-04-11T12:51:05.327Z</time></trkpt><trkpt lat="40.547711" lon="9.6882203"><ele>46.333333333333336</ele><time>2026-04-11T12:51:08.33Z</time></trkpt><trkpt lat="40.5476278" lon="9.6881679"><ele>49.66666666666667</ele><time>2026-04-11T12:51:09.324Z</time></trkpt><trkpt lat="40.5473866" lon="9.687996"><ele>53.0</ele><time>2026-04-11T12:51:12.328Z</time></trkpt><trkpt lat="40.547307" lon="9.6879372"><ele>53.0</ele><time>2026-04-11T12:51:13.309Z</time></trkpt><trkpt lat="40.5471393" lon="9.6877978"><ele>53.0</ele><time>2026-04-11T12:51:15.309Z</time></trkpt><trkpt lat="40.5469028" lon="9.6875517"><ele>52.333333333333336</ele><time>2026-04-11T12:51:18.317Z</time></trkpt><trkpt lat="40.5468285" lon="9.6874626"><ele>51.66666666666667</ele><time>2026-04-11T12:51:19.326Z</time></trkpt><trkpt lat="40.5466007" lon="9.687225"><ele>51.0</ele><time>2026-04-11T12:51:22.341Z</time></trkpt><trkpt lat="40.546518" lon="9.6871689"><ele>51.0</ele><time>2026-04-11T12:51:23.327Z</time></trkpt><trkpt lat="40.5462513" lon="9.6870107"><ele>51.0</ele><time>2026-04-11T12:51:26.311Z</time></trkpt><trkpt lat="40.5460173" lon="9.6868723"><ele>51.25</ele><time>2026-04-11T12:51:29.427Z</time></trkpt><trkpt lat="40.545872" lon="9.6867814"><ele>51.5</ele><time>2026-04-11T12:51:31.334Z</time></trkpt><trkpt lat="40.5457171" lon="9.6867654"><ele>51.75</ele><time>2026-04-11T12:51:33.307Z</time></trkpt><trkpt lat="40.5456328" lon="9.6867814"><ele>52.0</ele><time>2026-04-11T12:51:34.314Z</time></trkpt><trkpt lat="40.5453605" lon="9.6868454"><ele>51.33333333333333</ele><time>2026-04-11T12:51:37.302Z</time></trkpt><trkpt lat="40.5452693" lon="9.6868685"><ele>50.66666666666667</ele><time>2026-04-11T12:51:38.306Z</time></trkpt><trkpt lat="40.5450871" lon="9.6869148"><ele>50.0</ele><time>2026-04-11T12:51:40.301Z</time></trkpt><trkpt lat="40.5448365" lon="9.6869809"><ele>52.0</ele><time>2026-04-11T12:51:43.317Z</time></trkpt><trkpt lat="40.544762" lon="9.6869931"><ele>54.0</ele><time>2026-04-11T12:51:44.305Z</time></trkpt><trkpt lat="40.5446341" lon="9.6870075"><ele>56.0</ele><time>2026-04-11T12:51:46.301Z</time></trkpt><trkpt lat="40.544395" lon="9.6870656"><ele>58.0</ele><time>2026-04-11T12:51:49.305Z</time></trkpt><trkpt lat="40.5443024" lon="9.687092"><ele>59.5</ele><time>2026-04-11T12:51:50.293Z</time></trkpt><trkpt lat="40.5439219" lon="9.6872554"><ele>61.0</ele><time>2026-04-11T12:51:54.309Z</time></trkpt><trkpt lat="40.5438322" lon="9.6873047"><ele>61.0</ele><time>2026-04-11T12:51:55.319Z</time></trkpt><trkpt lat="40.5437491" lon="9.6873496"><ele>61.0</ele><time>2026-04-11T12:51:56.307Z</time></trkpt><trkpt lat="40.5435248" lon="9.6874116"><ele>61.0</ele><time>2026-04-11T12:51:59.299Z</time></trkpt><trkpt lat="40.5432876" lon="9.6873501"><ele>65.0</ele><time>2026-04-11T12:52:02.292Z</time></trkpt><trkpt lat="40.5432015" lon="9.6873224"><ele>69.0</ele><time>2026-04-11T12:52:03.304Z</time></trkpt><trkpt lat="40.5429195" lon="9.6872984"><ele>73.0</ele><time>2026-04-11T12:52:06.291Z</time></trkpt><trkpt lat="40.5426461" lon="9.6872281"><ele>79.0</ele><time>2026-04-11T12:52:09.289Z</time></trkpt><trkpt lat="40.5425565" lon="9.6872095"><ele>85.0</ele><time>2026-04-11T12:52:10.309Z</time></trkpt><trkpt lat="40.5422106" lon="9.6870838"><ele>85.0</ele><time>2026-04-11T12:52:14.315Z</time></trkpt><trkpt lat="40.5421389" lon="9.687043"><ele>85.0</ele><time>2026-04-11T12:52:15.297Z</time></trkpt><trkpt lat="40.5420687" lon="9.6870015"><ele>85.0</ele><time>2026-04-11T12:52:16.286Z</time></trkpt><trkpt lat="40.5418318" lon="9.6868945"><ele>85.0</ele><time>2026-04-11T12:52:19.284Z</time></trkpt><trkpt lat="40.5417367" lon="9.6868489"><ele>88.5</ele><time>2026-04-11T12:52:20.294Z</time></trkpt><trkpt lat="40.5413687" lon="9.6867365"><ele>92.0</ele><time>2026-04-11T12:52:24.283Z</time></trkpt><trkpt lat="40.5410981" lon="9.6867842"><ele>93.0</ele><time>2026-04-11T12:52:28.298Z</time></trkpt><trkpt lat="40.5410373" lon="9.6868227"><ele>94.0</ele><time>2026-04-11T12:52:29.319Z</time></trkpt><trkpt lat="40.5408349" lon="9.6870398"><ele>95.0</ele><time>2026-04-11T12:52:33.287Z</time></trkpt><trkpt lat="40.5407787" lon="9.6871659"><ele>96.0</ele><time>2026-04-11T12:52:36.292Z</time></trkpt><trkpt lat="40.5408198" lon="9.6873588"><ele>101.0</ele><time>2026-04-11T12:52:40.313Z</time></trkpt><trkpt lat="40.5409547" lon="9.68754"><ele>106.0</ele><time>2026-04-11T12:52:44.277Z</time></trkpt><trkpt lat="40.5410418" lon="9.6877116"><ele>111.0</ele><time>2026-04-11T12:52:47.285Z</time></trkpt><trkpt lat="40.5410816" lon="9.6879514"><ele>113.5</ele><time>2026-04-11T12:52:51.277Z</time></trkpt><trkpt lat="40.5410763" lon="9.6880653"><ele>116.0</ele><time>2026-04-11T12:52:54.282Z</time></trkpt><trkpt lat="40.5409201" lon="9.6881261"><ele>118.5</ele><time>2026-04-11T12:52:58.297Z</time></trkpt><trkpt lat="40.5408304" lon="9.6882678"><ele>121.0</ele><time>2026-04-11T12:53:01.28Z</time></trkpt><trkpt lat="40.540884" lon="9.6886285"><ele>123.66666666666667</ele><time>2026-04-11T12:53:05.271Z</time></trkpt><trkpt lat="40.5408726" lon="9.6889554"><ele>126.33333333333334</ele><time>2026-04-11T12:53:08.262Z</time></trkpt><trkpt lat="40.5408539" lon="9.689067"><ele>129.0</ele><time>2026-04-11T12:53:09.282Z</time></trkpt><trkpt lat="40.5407428" lon="9.6893426"><ele>130.0</ele><time>2026-04-11T12:53:12.273Z</time></trkpt><trkpt lat="40.5406966" lon="9.6896795"><ele>131.0</ele><time>2026-04-11T12:53:16.266Z</time></trkpt><trkpt lat="40.5407309" lon="9.689766"><ele>132.0</ele><time>2026-04-11T12:53:17.284Z</time></trkpt><trkpt lat="40.5409647" lon="9.6899941"><ele>132.0</ele><time>2026-04-11T12:53:21.275Z</time></trkpt><trkpt lat="40.5410756" lon="9.6902153"><ele>132.0</ele><time>2026-04-11T12:53:24.296Z</time></trkpt><trkpt lat="40.5410898" lon="9.6903117"><ele>132.0</ele><time>2026-04-11T12:53:25.265Z</time></trkpt><trkpt lat="40.5411709" lon="9.6906101"><ele>132.75</ele><time>2026-04-11T12:53:28.263Z</time></trkpt><trkpt lat="40.5411744" lon="9.6907034"><ele>133.5</ele><time>2026-04-11T12:53:29.282Z</time></trkpt><trkpt lat="40.541144" lon="9.6908804"><ele>134.25</ele><time>2026-04-11T12:53:31.248Z</time></trkpt><trkpt lat="40.5411047" lon="9.6909664"><ele>135.0</ele><time>2026-04-11T12:53:32.264Z</time></trkpt><trkpt lat="40.540984" lon="9.6912905"><ele>139.0</ele><time>2026-04-11T12:53:35.268Z</time></trkpt><trkpt lat="40.5408719" lon="9.691596"><ele>143.0</ele><time>2026-04-11T12:53:38.285Z</time></trkpt><trkpt lat="40.5408189" lon="9.6916855"><ele>147.0</ele><time>2026-04-11T12:53:39.268Z</time></trkpt><trkpt lat="40.5406792" lon="9.6919863"><ele>149.0</ele><time>2026-04-11T12:53:42.255Z</time></trkpt><trkpt lat="40.5406263" lon="9.6920692"><ele>151.0</ele><time>2026-04-11T12:53:43.249Z</time></trkpt><trkpt lat="40.5404853" lon="9.692188"><ele>153.0</ele><time>2026-04-11T12:53:45.259Z</time></trkpt><trkpt lat="40.540413" lon="9.6922457"><ele>155.0</ele><time>2026-04-11T12:53:46.25Z</time></trkpt><trkpt lat="40.540298" lon="9.6924845"><ele>155.0</ele><time>2026-04-11T12:53:49.255Z</time></trkpt><trkpt lat="40.5401311" lon="9.6925902"><ele>155.0</ele><time>2026-04-11T12:53:53.258Z</time></trkpt><trkpt lat="40.5399444" lon="9.6926608"><ele>155.0</ele><time>2026-04-11T12:53:57.236Z</time></trkpt><trkpt lat="40.5398395" lon="9.6930064"><ele>157.0</ele><time>2026-04-11T12:54:01.247Z</time></trkpt><trkpt lat="40.5395204" lon="9.6929571"><ele>159.0</ele><time>2026-04-11T12:54:06.248Z</time></trkpt><trkpt lat="40.5392404" lon="9.6926774"><ele>159.0</ele><time>2026-04-11T12:54:10.266Z</time></trkpt><trkpt lat="40.5391136" lon="9.6926187"><ele>159.0</ele><time>2026-04-11T12:54:13.256Z</time></trkpt><trkpt lat="40.5388745" lon="9.6926571"><ele>159.0</ele><time>2026-04-11T12:54:17.236Z</time></trkpt><trkpt lat="40.5388107" lon="9.6926273"><ele>159.0</ele><time>2026-04-11T12:54:18.236Z</time></trkpt><trkpt lat="40.5386797" lon="9.6925133"><ele>163.0</ele><time>2026-04-11T12:54:20.237Z</time></trkpt><trkpt lat="40.5386074" lon="9.6924408"><ele>167.0</ele><time>2026-04-11T12:54:21.237Z</time></trkpt><trkpt lat="40.538448" lon="9.6922722"><ele>171.0</ele><time>2026-04-11T12:54:23.238Z</time></trkpt><trkpt lat="40.538372" lon="9.692198"><ele>175.0</ele><time>2026-04-11T12:54:24.233Z</time></trkpt><trkpt lat="40.5382464" lon="9.6921251"><ele>175.0</ele><time>2026-04-11T12:54:26.251Z</time></trkpt><trkpt lat="40.538083" lon="9.6922063"><ele>175.0</ele><time>2026-04-11T12:54:29.344Z</time></trkpt><trkpt lat="40.538039" lon="9.6922947"><ele>175.0</ele><time>2026-04-11T12:54:30.331Z</time></trkpt><trkpt lat="40.5378575" lon="9.6926563"><ele>176.33333333333334</ele><time>2026-04-11T12:54:34.331Z</time></trkpt><trkpt lat="40.5377975" lon="9.6926973"><ele>177.66666666666666</ele><time>2026-04-11T12:54:35.335Z</time></trkpt><trkpt lat="40.5374347" lon="9.6928379"><ele>179.0</ele><time>2026-04-11T12:54:39.333Z</time></trkpt><trkpt lat="40.5371524" lon="9.6929374"><ele>181.25</ele><time>2026-04-11T12:54:43.326Z</time></trkpt><trkpt lat="40.5370827" lon="9.6928947"><ele>183.5</ele><time>2026-04-11T12:54:44.334Z</time></trkpt><trkpt lat="40.5370004" lon="9.692843"><ele>185.75</ele><time>2026-04-11T12:54:45.326Z</time></trkpt><trkpt lat="40.5367868" lon="9.6926249"><ele>188.0</ele><time>2026-04-11T12:54:48.342Z</time></trkpt><trkpt lat="40.536722" lon="9.6925267"><ele>188.0</ele><time>2026-04-11T12:54:49.327Z</time></trkpt><trkpt lat="40.5364288" lon="9.6923675"><ele>188.0</ele><time>2026-04-11T12:54:52.324Z</time></trkpt><trkpt lat="40.5361268" lon="9.6922392"><ele>191.66666666666666</ele><time>2026-04-11T12:54:55.317Z</time></trkpt><trkpt lat="40.5360484" lon="9.6922375"><ele>195.33333333333331</ele><time>2026-04-11T12:54:56.326Z</time></trkpt><trkpt lat="40.5358236" lon="9.6923084"><ele>199.0</ele><time>2026-04-11T12:54:59.325Z</time></trkpt><trkpt lat="40.5356946" lon="9.6925212"><ele>203.33333333333331</ele><time>2026-04-11T12:55:03.314Z</time></trkpt><trkpt lat="40.5355795" lon="9.692784"><ele>207.66666666666669</ele><time>2026-04-11T12:55:06.319Z</time></trkpt><trkpt lat="40.5355598" lon="9.692889"><ele>212.0</ele><time>2026-04-11T12:55:07.32Z</time></trkpt><trkpt lat="40.5355563" lon="9.6932035"><ele>212.0</ele><time>2026-04-11T12:55:10.312Z</time></trkpt><trkpt lat="40.5355723" lon="9.6932898"><ele>212.0</ele><time>2026-04-11T12:55:11.33Z</time></trkpt><trkpt lat="40.5356391" lon="9.6934691"><ele>212.0</ele><time>2026-04-11T12:55:13.327Z</time></trkpt><trkpt lat="40.5357183" lon="9.6937135"><ele>212.0</ele><time>2026-04-11T12:55:16.316Z</time></trkpt><trkpt lat="40.5354992" lon="9.6938939"><ele>211.0</ele><time>2026-04-11T12:55:21.314Z</time></trkpt><trkpt lat="40.5353802" lon="9.6941195"><ele>210.0</ele><time>2026-04-11T12:55:24.311Z</time></trkpt><trkpt lat="40.5351804" lon="9.6943799"><ele>215.66666666666669</ele><time>2026-04-11T12:55:27.32Z</time></trkpt><trkpt lat="40.535101" lon="9.6944286"><ele>221.33333333333334</ele><time>2026-04-11T12:55:28.311Z</time></trkpt><trkpt lat="40.5349387" lon="9.6945845"><ele>227.0</ele><time>2026-04-11T12:55:31.317Z</time></trkpt><trkpt lat="40.5349634" lon="9.6948462"><ele>227.0</ele><time>2026-04-11T12:55:34.306Z</time></trkpt><trkpt lat="40.5349578" lon="9.6949371"><ele>227.0</ele><time>2026-04-11T12:55:35.309Z</time></trkpt><trkpt lat="40.5348763" lon="9.6951224"><ele>227.0</ele><time>2026-04-11T12:55:37.312Z</time></trkpt><trkpt lat="40.5346777" lon="9.6952633"><ele>225.0</ele><time>2026-04-11T12:55:40.309Z</time></trkpt><trkpt lat="40.5346012" lon="9.6953064"><ele>223.0</ele><time>2026-04-11T12:55:41.313Z</time></trkpt><trkpt lat="40.5344633" lon="9.695514"><ele>221.0</ele><time>2026-04-11T12:55:44.308Z</time></trkpt><trkpt lat="40.5344253" lon="9.6959666"><ele>229.0</ele><time>2026-04-11T12:55:48.319Z</time></trkpt><trkpt lat="40.5344567" lon="9.6963216"><ele>237.0</ele><time>2026-04-11T12:55:52.307Z</time></trkpt><trkpt lat="40.5343289" lon="9.6967864"><ele>246.0</ele><time>2026-04-11T12:55:56.296Z</time></trkpt><trkpt lat="40.5341486" lon="9.6970483"><ele>255.0</ele><time>2026-04-11T12:56:00.298Z</time></trkpt><trkpt lat="40.533821" lon="9.6970778"><ele>255.0</ele><time>2026-04-11T12:56:04.288Z</time></trkpt><trkpt lat="40.5337598" lon="9.6971211"><ele>255.0</ele><time>2026-04-11T12:56:05.32Z</time></trkpt><trkpt lat="40.5336973" lon="9.6971843"><ele>255.0</ele><time>2026-04-11T12:56:06.304Z</time></trkpt><trkpt lat="40.5335559" lon="9.6974789"><ele>255.0</ele><time>2026-04-11T12:56:09.3Z</time></trkpt><trkpt lat="40.5335176" lon="9.6975924"><ele>256.0</ele><time>2026-04-11T12:56:10.295Z</time></trkpt><trkpt lat="40.5334512" lon="9.6978687"><ele>257.0</ele><time>2026-04-11T12:56:13.302Z</time></trkpt><trkpt lat="40.5334187" lon="9.6979424"><ele>258.0</ele><time>2026-04-11T12:56:14.315Z</time></trkpt><trkpt lat="40.533301" lon="9.6980414"><ele>259.0</ele><time>2026-04-11T12:56:16.297Z</time></trkpt><trkpt lat="40.5332501" lon="9.698092"><ele>259.0</ele><time>2026-04-11T12:56:17.287Z</time></trkpt><trkpt lat="40.5331785" lon="9.6982585"><ele>259.0</ele><time>2026-04-11T12:56:19.297Z</time></trkpt><trkpt lat="40.5331316" lon="9.698546"><ele>259.0</ele><time>2026-04-11T12:56:22.295Z</time></trkpt><trkpt lat="40.5331278" lon="9.6986296"><ele>259.0</ele><time>2026-04-11T12:56:23.296Z</time></trkpt><trkpt lat="40.5331221" lon="9.6987263"><ele>254.5</ele><time>2026-04-11T12:56:24.298Z</time></trkpt><trkpt lat="40.5330815" lon="9.6991827"><ele>250.0</ele><time>2026-04-11T12:56:28.283Z</time></trkpt><trkpt lat="40.5328601" lon="9.6993606"><ele>258.0</ele><time>2026-04-11T12:56:32.286Z</time></trkpt><trkpt lat="40.5325167" lon="9.6995186"><ele>266.0</ele><time>2026-04-11T12:56:36.275Z</time></trkpt><trkpt lat="40.5323968" lon="9.6996424"><ele>266.0</ele><time>2026-04-11T12:56:40.285Z</time></trkpt><trkpt lat="40.5325261" lon="9.6997153"><ele>266.0</ele><time>2026-04-11T12:56:43.292Z</time></trkpt><trkpt lat="40.5326005" lon="9.6997094"><ele>266.0</ele><time>2026-04-11T12:56:44.278Z</time></trkpt><trkpt lat="40.5327593" lon="9.6996643"><ele>266.0</ele><time>2026-04-11T12:56:46.278Z</time></trkpt><trkpt lat="40.5329348" lon="9.6997697"><ele>269.0</ele><time>2026-04-11T12:56:49.281Z</time></trkpt><trkpt lat="40.5330031" lon="9.6998447"><ele>272.0</ele><time>2026-04-11T12:56:50.275Z</time></trkpt><trkpt lat="40.5332659" lon="9.7000044"><ele>275.0</ele><time>2026-04-11T12:56:53.282Z</time></trkpt><trkpt lat="40.5333559" lon="9.7000352"><ele>275.0</ele><time>2026-04-11T12:56:54.27Z</time></trkpt><trkpt lat="40.5335132" lon="9.7000229"><ele>275.0</ele><time>2026-04-11T12:56:56.267Z</time></trkpt><trkpt lat="40.5335817" lon="9.6999905"><ele>275.0</ele><time>2026-04-11T12:56:57.277Z</time></trkpt><trkpt lat="40.5336836" lon="9.6999647"><ele>275.0</ele><time>2026-04-11T12:57:00.272Z</time></trkpt><trkpt lat="40.5337429" lon="9.7000353"><ele>275.0</ele><time>2026-04-11T12:57:03.284Z</time></trkpt><trkpt lat="40.5337174" lon="9.7001262"><ele>275.0</ele><time>2026-04-11T12:57:06.275Z</time></trkpt><trkpt lat="40.5336674" lon="9.7002444"><ele>275.0</ele><time>2026-04-11T12:58:10.254Z</time></trkpt><trkpt lat="40.5335589" lon="9.7004618"><ele>275.0</ele><time>2026-04-11T12:58:14.248Z</time></trkpt><trkpt lat="40.5335356" lon="9.7005503"><ele>275.0</ele><time>2026-04-11T12:58:17.26Z</time></trkpt><trkpt lat="40.5334481" lon="9.7007619"><ele>278.0</ele><time>2026-04-11T12:58:32.238Z</time></trkpt><trkpt lat="40.5333221" lon="9.7009163"><ele>281.0</ele><time>2026-04-11T12:58:35.246Z</time></trkpt><trkpt lat="40.533303" lon="9.701137"><ele>284.0</ele><time>2026-04-11T12:58:38.239Z</time></trkpt><trkpt lat="40.5333292" lon="9.7012973"><ele>285.0</ele><time>2026-04-11T12:58:40.238Z</time></trkpt><trkpt lat="40.5333347" lon="9.7013851"><ele>286.0</ele><time>2026-04-11T12:58:41.24Z</time></trkpt><trkpt lat="40.5333359" lon="9.7016792"><ele>287.0</ele><time>2026-04-11T12:58:44.254Z</time></trkpt><trkpt lat="40.5333301" lon="9.7017746"><ele>288.0</ele><time>2026-04-11T12:58:45.236Z</time></trkpt><trkpt lat="40.5333116" lon="9.7019567"><ele>288.0</ele><time>2026-04-11T12:58:47.235Z</time></trkpt><trkpt lat="40.5332892" lon="9.702043"><ele>288.0</ele><time>2026-04-11T12:58:48.242Z</time></trkpt><trkpt lat="40.5331519" lon="9.7022524"><ele>288.0</ele><time>2026-04-11T12:58:51.236Z</time></trkpt><trkpt lat="40.5330865" lon="9.7023039"><ele>288.0</ele><time>2026-04-11T12:58:52.234Z</time></trkpt><trkpt lat="40.5329421" lon="9.7024035"><ele>295.6666666666667</ele><time>2026-04-11T12:58:54.322Z</time></trkpt><trkpt lat="40.5327749" lon="9.7025877"><ele>303.33333333333337</ele><time>2026-04-11T12:58:57.332Z</time></trkpt><trkpt lat="40.5327353" lon="9.7026604"><ele>311.0</ele><time>2026-04-11T12:58:58.321Z</time></trkpt><trkpt lat="40.5325484" lon="9.7029554"><ele>313.0</ele><time>2026-04-11T12:59:02.318Z</time></trkpt><trkpt lat="40.5324479" lon="9.7032015"><ele>315.0</ele><time>2026-04-11T12:59:05.34Z</time></trkpt><trkpt lat="40.5324641" lon="9.7033719"><ele>317.0</ele><time>2026-04-11T12:59:07.318Z</time></trkpt><trkpt lat="40.5324893" lon="9.7035709"><ele>318.6666666666667</ele><time>2026-04-11T12:59:09.338Z</time></trkpt><trkpt lat="40.5324961" lon="9.7036764"><ele>320.3333333333333</ele><time>2026-04-11T12:59:10.33Z</time></trkpt><trkpt lat="40.5325302" lon="9.7040023"><ele>322.0</ele><time>2026-04-11T12:59:13.316Z</time></trkpt><trkpt lat="40.5325668" lon="9.7043222"><ele>321.66666666666663</ele><time>2026-04-11T12:59:16.325Z</time></trkpt><trkpt lat="40.5325537" lon="9.7044135"><ele>321.3333333333333</ele><time>2026-04-11T12:59:17.32Z</time></trkpt><trkpt lat="40.532485" lon="9.704602"><ele>321.0</ele><time>2026-04-11T12:59:19.316Z</time></trkpt><trkpt lat="40.532334" lon="9.7049382"><ele>321.0</ele><time>2026-04-11T12:59:22.316Z</time></trkpt><trkpt lat="40.5322908" lon="9.7050611"><ele>321.0</ele><time>2026-04-11T12:59:23.323Z</time></trkpt><trkpt lat="40.5322627" lon="9.7051894"><ele>321.0</ele><time>2026-04-11T12:59:24.328Z</time></trkpt><trkpt lat="40.5322539" lon="9.7057438"><ele>320.3333333333333</ele><time>2026-04-11T12:59:28.322Z</time></trkpt><trkpt lat="40.5322389" lon="9.705865"><ele>319.66666666666663</ele><time>2026-04-11T12:59:29.329Z</time></trkpt><trkpt lat="40.5321121" lon="9.7062867"><ele>319.0</ele><time>2026-04-11T12:59:32.318Z</time></trkpt><trkpt lat="40.5320671" lon="9.7064329"><ele>321.3333333333333</ele><time>2026-04-11T12:59:33.332Z</time></trkpt><trkpt lat="40.5320301" lon="9.7065567"><ele>323.6666666666667</ele><time>2026-04-11T12:59:34.311Z</time></trkpt><trkpt lat="40.5321823" lon="9.7068631"><ele>326.0</ele><time>2026-04-11T12:59:39.328Z</time></trkpt><trkpt lat="40.5323812" lon="9.7069293"><ele>330.33333333333337</ele><time>2026-04-11T12:59:41.329Z</time></trkpt><trkpt lat="40.5325441" lon="9.7072061"><ele>334.6666666666667</ele><time>2026-04-11T12:59:44.326Z</time></trkpt><trkpt lat="40.5325639" lon="9.7073356"><ele>339.0</ele><time>2026-04-11T12:59:45.32Z</time></trkpt><trkpt lat="40.5326086" lon="9.7077391"><ele>345.0</ele><time>2026-04-11T12:59:48.333Z</time></trkpt><trkpt lat="40.5326545" lon="9.707868"><ele>351.0</ele><time>2026-04-11T12:59:49.314Z</time></trkpt><trkpt lat="40.5328243" lon="9.7082729"><ele>351.3333333333333</ele><time>2026-04-11T12:59:52.316Z</time></trkpt><trkpt lat="40.5328949" lon="9.7083823"><ele>351.66666666666663</ele><time>2026-04-11T12:59:53.326Z</time></trkpt><trkpt lat="40.5330341" lon="9.7086972"><ele>352.0</ele><time>2026-04-11T12:59:56.319Z</time></trkpt><trkpt lat="40.5330534" lon="9.7088097"><ele>352.0</ele><time>2026-04-11T12:59:57.322Z</time></trkpt><trkpt lat="40.5332114" lon="9.7089899"><ele>352.0</ele><time>2026-04-11T13:00:00.314Z</time></trkpt><trkpt lat="40.5333015" lon="9.7089959"><ele>352.0</ele><time>2026-04-11T13:00:01.314Z</time></trkpt><trkpt lat="40.5336087" lon="9.70903"><ele>351.66666666666663</ele><time>2026-04-11T13:00:04.315Z</time></trkpt><trkpt lat="40.5338709" lon="9.7089788"><ele>351.3333333333333</ele><time>2026-04-11T13:00:07.322Z</time></trkpt><trkpt lat="40.5339469" lon="9.7089957"><ele>351.0</ele><time>2026-04-11T13:00:08.322Z</time></trkpt><trkpt lat="40.534216" lon="9.7091752"><ele>351.0</ele><time>2026-04-11T13:00:11.317Z</time></trkpt><trkpt lat="40.5344436" lon="9.7093895"><ele>351.0</ele><time>2026-04-11T13:00:14.316Z</time></trkpt><trkpt lat="40.5344854" lon="9.7094569"><ele>351.0</ele><time>2026-04-11T13:00:15.312Z</time></trkpt><trkpt lat="40.5345094" lon="9.7095892"><ele>351.0</ele><time>2026-04-11T13:00:17.307Z</time></trkpt><trkpt lat="40.5344596" lon="9.7098742"><ele>353.6666666666667</ele><time>2026-04-11T13:00:20.313Z</time></trkpt><trkpt lat="40.5344546" lon="9.7099944"><ele>356.33333333333337</ele><time>2026-04-11T13:00:21.323Z</time></trkpt><trkpt lat="40.5345194" lon="9.7103355"><ele>359.0</ele><time>2026-04-11T13:00:24.311Z</time></trkpt><trkpt lat="40.5345583" lon="9.7105792"><ele>359.5</ele><time>2026-04-11T13:00:27.316Z</time></trkpt><trkpt lat="40.534479" lon="9.7107388"><ele>360.0</ele><time>2026-04-11T13:00:31.316Z</time></trkpt><trkpt lat="40.5343701" lon="9.7107217"><ele>360.5</ele><time>2026-04-11T13:00:34.321Z</time></trkpt><trkpt lat="40.5342584" lon="9.7107324"><ele>361.0</ele><time>2026-04-11T13:00:38.304Z</time></trkpt><trkpt lat="40.5341946" lon="9.7109265"><ele>359.66666666666663</ele><time>2026-04-11T13:01:06.289Z</time></trkpt><trkpt lat="40.534263" lon="9.7112343"><ele>358.3333333333333</ele><time>2026-04-11T13:01:10.289Z</time></trkpt><trkpt lat="40.5342948" lon="9.7114102"><ele>357.0</ele><time>2026-04-11T13:01:12.281Z</time></trkpt><trkpt lat="40.5343115" lon="9.7114983"><ele>357.0</ele><time>2026-04-11T13:01:13.289Z</time></trkpt><trkpt lat="40.5343794" lon="9.7117483"><ele>357.0</ele><time>2026-04-11T13:01:16.274Z</time></trkpt><trkpt lat="40.5344121" lon="9.7118308"><ele>357.0</ele><time>2026-04-11T13:01:17.283Z</time></trkpt><trkpt lat="40.5345665" lon="9.712013"><ele>355.6666666666667</ele><time>2026-04-11T13:01:20.293Z</time></trkpt><trkpt lat="40.5347563" lon="9.712124"><ele>354.33333333333337</ele><time>2026-04-11T13:01:23.293Z</time></trkpt><trkpt lat="40.5348237" lon="9.7121548"><ele>353.0</ele><time>2026-04-11T13:01:24.283Z</time></trkpt><trkpt lat="40.5350367" lon="9.7121889"><ele>353.0</ele><time>2026-04-11T13:01:27.309Z</time></trkpt><trkpt lat="40.5352426" lon="9.7121843"><ele>353.0</ele><time>2026-04-11T13:01:30.293Z</time></trkpt><trkpt lat="40.5354301" lon="9.7122915"><ele>353.0</ele><time>2026-04-11T13:01:34.276Z</time></trkpt><trkpt lat="40.5354661" lon="9.7123617"><ele>356.5</ele><time>2026-04-11T13:01:35.28Z</time></trkpt><trkpt lat="40.5355747" lon="9.7126503"><ele>360.0</ele><time>2026-04-11T13:01:38.297Z</time></trkpt><trkpt lat="40.5357226" lon="9.7129308"><ele>360.0</ele><time>2026-04-11T13:01:41.293Z</time></trkpt><trkpt lat="40.5357644" lon="9.7130166"><ele>360.0</ele><time>2026-04-11T13:01:42.278Z</time></trkpt><trkpt lat="40.5359005" lon="9.713268"><ele>360.0</ele><time>2026-04-11T13:01:45.283Z</time></trkpt><trkpt lat="40.5359509" lon="9.7133648"><ele>360.0</ele><time>2026-04-11T13:01:46.286Z</time></trkpt><trkpt lat="40.5360636" lon="9.7136786"><ele>366.0</ele><time>2026-04-11T13:01:49.273Z</time></trkpt><trkpt lat="40.5362414" lon="9.7141151"><ele>372.0</ele><time>2026-04-11T13:01:53.282Z</time></trkpt><trkpt lat="40.5364558" lon="9.714385"><ele>367.5</ele><time>2026-04-11T13:01:57.272Z</time></trkpt><trkpt lat="40.5366638" lon="9.7146054"><ele>363.0</ele><time>2026-04-11T13:02:01.26Z</time></trkpt><trkpt lat="40.5366166" lon="9.7148695"><ele>363.0</ele><time>2026-04-11T13:02:05.253Z</time></trkpt><trkpt lat="40.5365712" lon="9.7152563"><ele>363.0</ele><time>2026-04-11T13:02:09.274Z</time></trkpt><trkpt lat="40.5366636" lon="9.7156897"><ele>363.0</ele><time>2026-04-11T13:02:13.265Z</time></trkpt><trkpt lat="40.536885" lon="9.7159937"><ele>363.0</ele><time>2026-04-11T13:02:17.266Z</time></trkpt><trkpt lat="40.5371973" lon="9.7162115"><ele>360.3333333333333</ele><time>2026-04-11T13:02:21.28Z</time></trkpt><trkpt lat="40.5374224" lon="9.7161879"><ele>357.66666666666663</ele><time>2026-04-11T13:02:25.259Z</time></trkpt><trkpt lat="40.5375787" lon="9.7160871"><ele>355.0</ele><time>2026-04-11T13:02:28.248Z</time></trkpt><trkpt lat="40.5377531" lon="9.7161721"><ele>355.0</ele><time>2026-04-11T13:02:31.266Z</time></trkpt><trkpt lat="40.5378176" lon="9.7162117"><ele>355.0</ele><time>2026-04-11T13:02:32.251Z</time></trkpt><trkpt lat="40.5379515" lon="9.7162341"><ele>355.0</ele><time>2026-04-11T13:02:34.249Z</time></trkpt><trkpt lat="40.5380227" lon="9.7162094"><ele>355.0</ele><time>2026-04-11T13:02:35.264Z</time></trkpt><trkpt lat="40.538209" lon="9.7161025"><ele>357.25</ele><time>2026-04-11T13:02:38.248Z</time></trkpt><trkpt lat="40.5383496" lon="9.7161748"><ele>359.5</ele><time>2026-04-11T13:02:41.268Z</time></trkpt><trkpt lat="40.5383958" lon="9.716243"><ele>361.75</ele><time>2026-04-11T13:02:42.251Z</time></trkpt><trkpt lat="40.5385417" lon="9.7164712"><ele>364.0</ele><time>2026-04-11T13:02:45.241Z</time></trkpt><trkpt lat="40.5385901" lon="9.7165356"><ele>364.0</ele><time>2026-04-11T13:02:46.238Z</time></trkpt><trkpt lat="40.538698" lon="9.7167179"><ele>364.0</ele><time>2026-04-11T13:02:49.257Z</time></trkpt><trkpt lat="40.5387102" lon="9.7169444"><ele>364.0</ele><time>2026-04-11T13:02:52.249Z</time></trkpt><trkpt lat="40.5387899" lon="9.7171873"><ele>364.75</ele><time>2026-04-11T13:02:56.249Z</time></trkpt><trkpt lat="40.5389625" lon="9.7172522"><ele>365.5</ele><time>2026-04-11T13:02:59.245Z</time></trkpt><trkpt lat="40.5390248" lon="9.7172696"><ele>366.25</ele><time>2026-04-11T13:03:00.235Z</time></trkpt><trkpt lat="40.53916" lon="9.7174008"><ele>367.0</ele><time>2026-04-11T13:03:03.257Z</time></trkpt><trkpt lat="40.5392072" lon="9.7175995"><ele>370.0</ele><time>2026-04-11T13:03:06.259Z</time></trkpt><trkpt lat="40.5393374" lon="9.7178309"><ele>373.0</ele><time>2026-04-11T13:03:10.253Z</time></trkpt><trkpt lat="40.5395039" lon="9.7180269"><ele>376.0</ele><time>2026-04-11T13:03:13.242Z</time></trkpt><trkpt lat="40.5395544" lon="9.7180892"><ele>376.0</ele><time>2026-04-11T13:03:14.24Z</time></trkpt><trkpt lat="40.539663" lon="9.718199"><ele>376.0</ele><time>2026-04-11T13:03:16.231Z</time></trkpt><trkpt lat="40.5398012" lon="9.718372"><ele>376.0</ele><time>2026-04-11T13:03:19.227Z</time></trkpt><trkpt lat="40.5398268" lon="9.7187062"><ele>373.5</ele><time>2026-04-11T13:03:23.256Z</time></trkpt><trkpt lat="40.5396992" lon="9.7190523"><ele>371.0</ele><time>2026-04-11T13:03:27.234Z</time></trkpt><trkpt lat="40.5396309" lon="9.7193234"><ele>368.75</ele><time>2026-04-11T13:03:30.227Z</time></trkpt><trkpt lat="40.5396229" lon="9.7194151"><ele>366.5</ele><time>2026-04-11T13:03:31.231Z</time></trkpt><trkpt lat="40.5396794" lon="9.7196606"><ele>364.25</ele><time>2026-04-11T13:03:34.24Z</time></trkpt><trkpt lat="40.5397232" lon="9.7197308"><ele>362.0</ele><time>2026-04-11T13:03:35.233Z</time></trkpt><trkpt lat="40.539889" lon="9.7199607"><ele>358.0</ele><time>2026-04-11T13:03:38.235Z</time></trkpt><trkpt lat="40.5400251" lon="9.7203244"><ele>354.0</ele><time>2026-04-11T13:03:42.23Z</time></trkpt><trkpt lat="40.5400578" lon="9.7206987"><ele>354.0</ele><time>2026-04-11T13:03:46.251Z</time></trkpt><trkpt lat="40.5401414" lon="9.7210234"><ele>354.0</ele><time>2026-04-11T13:03:50.222Z</time></trkpt><trkpt lat="40.5402816" lon="9.7212306"><ele>352.6666666666667</ele><time>2026-04-11T13:03:53.218Z</time></trkpt><trkpt lat="40.5403197" lon="9.7213117"><ele>351.33333333333337</ele><time>2026-04-11T13:03:54.222Z</time></trkpt><trkpt lat="40.540417" lon="9.7216649"><ele>350.0</ele><time>2026-04-11T13:03:58.223Z</time></trkpt><trkpt lat="40.5404811" lon="9.7220538"><ele>350.0</ele><time>2026-04-11T13:04:02.347Z</time></trkpt><trkpt lat="40.5407522" lon="9.7227589"><ele>350.0</ele><time>2026-04-11T13:04:09.317Z</time></trkpt><trkpt lat="40.5407884" lon="9.7228583"><ele>350.0</ele><time>2026-04-11T13:04:10.321Z</time></trkpt><trkpt lat="40.540868" lon="9.7232031"><ele>350.0</ele><time>2026-04-11T13:04:14.326Z</time></trkpt><trkpt lat="40.5408635" lon="9.7233167"><ele>350.0</ele><time>2026-04-11T13:04:17.322Z</time></trkpt><trkpt lat="40.540818" lon="9.7234104"><ele>350.0</ele><time>2026-04-11T13:04:21.307Z</time></trkpt><trkpt lat="40.5407809" lon="9.7234952"><ele>350.0</ele><time>2026-04-11T13:04:24.291Z</time></trkpt><trkpt lat="40.5407965" lon="9.7235939"><ele>350.0</ele><time>2026-04-11T13:04:26.308Z</time></trkpt><trkpt lat="40.5408676" lon="9.7237973"><ele>350.0</ele><time>2026-04-11T13:04:29.302Z</time></trkpt><trkpt lat="40.5410271" lon="9.7240571"><ele>346.6666666666667</ele><time>2026-04-11T13:04:33.319Z</time></trkpt><trkpt lat="40.5411464" lon="9.72441"><ele>343.3333333333333</ele><time>2026-04-11T13:04:37.297Z</time></trkpt><trkpt lat="40.5411656" lon="9.7245164"><ele>340.0</ele><time>2026-04-11T13:04:38.301Z</time></trkpt><trkpt lat="40.5411813" lon="9.7246217"><ele>340.0</ele><time>2026-04-11T13:04:39.309Z</time></trkpt><trkpt lat="40.5411815" lon="9.7249129"><ele>340.0</ele><time>2026-04-11T13:04:42.298Z</time></trkpt><trkpt lat="40.5411827" lon="9.7251697"><ele>340.0</ele><time>2026-04-11T13:04:45.299Z</time></trkpt><trkpt lat="40.5412024" lon="9.7255295"><ele>337.5</ele><time>2026-04-11T13:04:49.3Z</time></trkpt><trkpt lat="40.5411993" lon="9.7256266"><ele>335.0</ele><time>2026-04-11T13:04:50.309Z</time></trkpt><trkpt lat="40.5412199" lon="9.7258033"><ele>332.5</ele><time>2026-04-11T13:04:52.283Z</time></trkpt><trkpt lat="40.5412397" lon="9.7258925"><ele>330.0</ele><time>2026-04-11T13:04:53.309Z</time></trkpt><trkpt lat="40.5412974" lon="9.7261781"><ele>318.0</ele><time>2026-04-11T13:04:56.287Z</time></trkpt><trkpt lat="40.5413337" lon="9.7265285"><ele>306.0</ele><time>2026-04-11T13:05:00.29Z</time></trkpt><trkpt lat="40.5413435" lon="9.7268573"><ele>302.6666666666667</ele><time>2026-04-11T13:05:04.285Z</time></trkpt><trkpt lat="40.541377" lon="9.7271052"><ele>299.33333333333337</ele><time>2026-04-11T13:05:07.301Z</time></trkpt><trkpt lat="40.5414832" lon="9.7273655"><ele>296.0</ele><time>2026-04-11T13:05:11.29Z</time></trkpt><trkpt lat="40.5415369" lon="9.7276088"><ele>297.0</ele><time>2026-04-11T13:05:14.283Z</time></trkpt><trkpt lat="40.5416751" lon="9.7277934"><ele>298.0</ele><time>2026-04-11T13:05:17.277Z</time></trkpt><trkpt lat="40.5417229" lon="9.7278543"><ele>299.0</ele><time>2026-04-11T13:05:18.285Z</time></trkpt><trkpt lat="40.5418093" lon="9.7279575"><ele>300.0</ele><time>2026-04-11T13:05:20.271Z</time></trkpt><trkpt lat="40.5419387" lon="9.7281305"><ele>300.0</ele><time>2026-04-11T13:05:23.287Z</time></trkpt><trkpt lat="40.5419867" lon="9.7281878"><ele>300.0</ele><time>2026-04-11T13:05:24.268Z</time></trkpt><trkpt lat="40.5421459" lon="9.728359"><ele>300.0</ele><time>2026-04-11T13:05:27.263Z</time></trkpt><trkpt lat="40.542286" lon="9.7285057"><ele>300.0</ele><time>2026-04-11T13:05:30.28Z</time></trkpt><trkpt lat="40.5424167" lon="9.7287257"><ele>294.6666666666667</ele><time>2026-04-11T13:05:34.27Z</time></trkpt><trkpt lat="40.5424996" lon="9.7289134"><ele>289.33333333333337</ele><time>2026-04-11T13:05:37.276Z</time></trkpt><trkpt lat="40.5425951" lon="9.7291104"><ele>284.0</ele><time>2026-04-11T13:05:40.267Z</time></trkpt><trkpt lat="40.5427224" lon="9.7293451"><ele>281.33333333333337</ele><time>2026-04-11T13:05:44.275Z</time></trkpt><trkpt lat="40.542821" lon="9.729532"><ele>278.6666666666667</ele><time>2026-04-11T13:05:47.276Z</time></trkpt><trkpt lat="40.5429747" lon="9.7296477"><ele>276.0</ele><time>2026-04-11T13:05:50.262Z</time></trkpt><trkpt lat="40.5431399" lon="9.7297401"><ele>276.0</ele><time>2026-04-11T13:05:53.327Z</time></trkpt><trkpt lat="40.5431946" lon="9.7297971"><ele>276.0</ele><time>2026-04-11T13:05:54.265Z</time></trkpt><trkpt lat="40.5433234" lon="9.7299356"><ele>276.0</ele><time>2026-04-11T13:05:56.28Z</time></trkpt><trkpt lat="40.5435356" lon="9.7301555"><ele>275.3333333333333</ele><time>2026-04-11T13:05:59.277Z</time></trkpt><trkpt lat="40.5437006" lon="9.7302308"><ele>274.66666666666663</ele><time>2026-04-11T13:06:02.264Z</time></trkpt><trkpt lat="40.5439633" lon="9.730153"><ele>274.0</ele><time>2026-04-11T13:06:06.251Z</time></trkpt><trkpt lat="40.5440393" lon="9.7301545"><ele>274.0</ele><time>2026-04-11T13:06:07.253Z</time></trkpt><trkpt lat="40.5441959" lon="9.7301916"><ele>274.0</ele><time>2026-04-11T13:06:09.245Z</time></trkpt><trkpt lat="40.5442825" lon="9.730221"><ele>274.0</ele><time>2026-04-11T13:06:10.257Z</time></trkpt><trkpt lat="40.5444497" lon="9.7302818"><ele>274.0</ele><time>2026-04-11T13:06:12.256Z</time></trkpt><trkpt lat="40.5446354" lon="9.7304288"><ele>272.75</ele><time>2026-04-11T13:06:15.256Z</time></trkpt><trkpt lat="40.5446823" lon="9.7305062"><ele>271.5</ele><time>2026-04-11T13:06:16.251Z</time></trkpt><trkpt lat="40.5448376" lon="9.7307852"><ele>270.25</ele><time>2026-04-11T13:06:19.238Z</time></trkpt><trkpt lat="40.5448993" lon="9.7308803"><ele>269.0</ele><time>2026-04-11T13:06:20.246Z</time></trkpt><trkpt lat="40.5450832" lon="9.731149"><ele>265.0</ele><time>2026-04-11T13:06:23.236Z</time></trkpt><trkpt lat="40.5451442" lon="9.7312385"><ele>261.0</ele><time>2026-04-11T13:06:24.249Z</time></trkpt><trkpt lat="40.5453355" lon="9.7314985"><ele>257.0</ele><time>2026-04-11T13:06:27.24Z</time></trkpt><trkpt lat="40.5455605" lon="9.7317049"><ele>257.0</ele><time>2026-04-11T13:06:30.237Z</time></trkpt><trkpt lat="40.5456363" lon="9.7317701"><ele>257.0</ele><time>2026-04-11T13:06:31.229Z</time></trkpt><trkpt lat="40.5458844" lon="9.7319487"><ele>257.0</ele><time>2026-04-11T13:06:34.218Z</time></trkpt><trkpt lat="40.545968" lon="9.731999"><ele>250.66666666666669</ele><time>2026-04-11T13:06:35.231Z</time></trkpt><trkpt lat="40.5461449" lon="9.7320936"><ele>244.33333333333331</ele><time>2026-04-11T13:06:37.326Z</time></trkpt><trkpt lat="40.5462313" lon="9.7321295"><ele>238.0</ele><time>2026-04-11T13:06:38.323Z</time></trkpt><trkpt lat="40.5465232" lon="9.7321453"><ele>238.0</ele><time>2026-04-11T13:06:42.325Z</time></trkpt><trkpt lat="40.5466588" lon="9.7320891"><ele>238.0</ele><time>2026-04-11T13:06:44.333Z</time></trkpt><trkpt lat="40.5467293" lon="9.7320675"><ele>238.0</ele><time>2026-04-11T13:06:45.35Z</time></trkpt><trkpt lat="40.5468735" lon="9.7320941"><ele>238.0</ele><time>2026-04-11T13:06:47.322Z</time></trkpt><trkpt lat="40.5469519" lon="9.7321343"><ele>238.0</ele><time>2026-04-11T13:06:48.326Z</time></trkpt><trkpt lat="40.5472056" lon="9.7322861"><ele>239.0</ele><time>2026-04-11T13:06:51.328Z</time></trkpt><trkpt lat="40.5472926" lon="9.7323385"><ele>240.0</ele><time>2026-04-11T13:06:52.321Z</time></trkpt><trkpt lat="40.5473807" lon="9.7323931"><ele>241.0</ele><time>2026-04-11T13:06:53.331Z</time></trkpt><trkpt lat="40.5476827" lon="9.7325113"><ele>241.0</ele><time>2026-04-11T13:06:56.319Z</time></trkpt><trkpt lat="40.5477994" lon="9.7325424"><ele>241.0</ele><time>2026-04-11T13:06:57.311Z</time></trkpt><trkpt lat="40.5480769" lon="9.7326475"><ele>241.0</ele><time>2026-04-11T13:07:00.321Z</time></trkpt><trkpt lat="40.5481546" lon="9.7326984"><ele>239.66666666666666</ele><time>2026-04-11T13:07:01.315Z</time></trkpt><trkpt lat="40.5484475" lon="9.7328577"><ele>238.33333333333331</ele><time>2026-04-11T13:07:04.403Z</time></trkpt><trkpt lat="40.548557" lon="9.7329089"><ele>237.0</ele><time>2026-04-11T13:07:05.307Z</time></trkpt><trkpt lat="40.5488723" lon="9.7330862"><ele>236.0</ele><time>2026-04-11T13:07:08.323Z</time></trkpt><trkpt lat="40.5491229" lon="9.7333573"><ele>235.0</ele><time>2026-04-11T13:07:11.304Z</time></trkpt><trkpt lat="40.5491944" lon="9.7334512"><ele>234.0</ele><time>2026-04-11T13:07:12.305Z</time></trkpt><trkpt lat="40.5494537" lon="9.7337976"><ele>230.66666666666669</ele><time>2026-04-11T13:07:16.305Z</time></trkpt><trkpt lat="40.5497146" lon="9.7339157"><ele>227.33333333333334</ele><time>2026-04-11T13:07:20.29Z</time></trkpt><trkpt lat="40.5497826" lon="9.7338797"><ele>224.0</ele><time>2026-04-11T13:07:21.308Z</time></trkpt><trkpt lat="40.5500314" lon="9.7336232"><ele>224.33333333333334</ele><time>2026-04-11T13:07:25.309Z</time></trkpt><trkpt lat="40.5501985" lon="9.7333072"><ele>224.66666666666669</ele><time>2026-04-11T13:07:29.3Z</time></trkpt><trkpt lat="40.5502294" lon="9.7331896"><ele>225.0</ele><time>2026-04-11T13:07:32.302Z</time></trkpt><trkpt lat="40.5503128" lon="9.7333797"><ele>225.0</ele><time>2026-04-11T13:07:39.308Z</time></trkpt><trkpt lat="40.5502718" lon="9.7335306"><ele>225.0</ele><time>2026-04-11T13:07:41.299Z</time></trkpt><trkpt lat="40.5502341" lon="9.7336582"><ele>225.0</ele><time>2026-04-11T13:07:43.307Z</time></trkpt><trkpt lat="40.550206" lon="9.7337644"><ele>225.0</ele><time>2026-04-11T13:07:46.303Z</time></trkpt><trkpt lat="40.5501638" lon="9.733898"><ele>225.0</ele><time>2026-04-11T13:09:59.239Z</time></trkpt><trkpt lat="40.5501199" lon="9.7339866"><ele>224.8</ele><time>2026-04-11T13:10:01.232Z</time></trkpt><trkpt lat="40.5500769" lon="9.7340859"><ele>224.6</ele><time>2026-04-11T13:10:03.252Z</time></trkpt><trkpt lat="40.550026" lon="9.7341967"><ele>224.39999999999998</ele><time>2026-04-11T13:10:05.258Z</time></trkpt><trkpt lat="40.5499873" lon="9.7343183"><ele>224.2</ele><time>2026-04-11T13:10:07.243Z</time></trkpt><trkpt lat="40.5499387" lon="9.7344193"><ele>224.0</ele><time>2026-04-11T13:10:09.237Z</time></trkpt><trkpt lat="40.549885" lon="9.7344916"><ele>222.33333333333334</ele><time>2026-04-11T13:10:11.231Z</time></trkpt><trkpt lat="40.5498365" lon="9.7345502"><ele>220.66666666666669</ele><time>2026-04-11T13:10:13.234Z</time></trkpt><trkpt lat="40.5497849" lon="9.7346194"><ele>219.0</ele><time>2026-04-11T13:10:15.245Z</time></trkpt><trkpt lat="40.5497321" lon="9.7346771"><ele>217.33333333333331</ele><time>2026-04-11T13:10:17.337Z</time></trkpt><trkpt lat="40.5496675" lon="9.7347111"><ele>215.66666666666666</ele><time>2026-04-11T13:10:19.231Z</time></trkpt><trkpt lat="40.5495773" lon="9.734737"><ele>214.0</ele><time>2026-04-11T13:10:21.324Z</time></trkpt><trkpt lat="40.5494913" lon="9.7347939"><ele>213.99999999999997</ele><time>2026-04-11T13:10:23.332Z</time></trkpt><trkpt lat="40.5494496" lon="9.7348982"><ele>214.0</ele><time>2026-04-11T13:10:25.211Z</time></trkpt><trkpt lat="40.5494317" lon="9.7349921"><ele>214.0</ele><time>2026-04-11T13:10:27.342Z</time></trkpt><trkpt lat="40.5493926" lon="9.7351065"><ele>214.0</ele><time>2026-04-11T13:10:30.318Z</time></trkpt><trkpt lat="40.5493461" lon="9.7351933"><ele>213.99999999999997</ele><time>2026-04-11T13:10:32.303Z</time></trkpt><trkpt lat="40.5492712" lon="9.7352617"><ele>214.0</ele><time>2026-04-11T13:10:34.325Z</time></trkpt><trkpt lat="40.5491705" lon="9.7352911"><ele>210.79999999999998</ele><time>2026-04-11T13:10:36.313Z</time></trkpt><trkpt lat="40.5490748" lon="9.7353086"><ele>207.59999999999997</ele><time>2026-04-11T13:10:38.326Z</time></trkpt><trkpt lat="40.5489837" lon="9.7353451"><ele>204.4</ele><time>2026-04-11T13:10:40.306Z</time></trkpt><trkpt lat="40.5488879" lon="9.7354464"><ele>201.2</ele><time>2026-04-11T13:10:42.33Z</time></trkpt><trkpt lat="40.5488011" lon="9.7355351"><ele>198.0</ele><time>2026-04-11T13:10:44.316Z</time></trkpt><trkpt lat="40.5487233" lon="9.7355953"><ele>197.83333333333334</ele><time>2026-04-11T13:10:46.295Z</time></trkpt><trkpt lat="40.548655" lon="9.7356507"><ele>197.66666666666669</ele><time>2026-04-11T13:10:48.312Z</time></trkpt><trkpt lat="40.5485958" lon="9.735729"><ele>197.5</ele><time>2026-04-11T13:10:50.297Z</time></trkpt><trkpt lat="40.5485369" lon="9.735816"><ele>197.33333333333334</ele><time>2026-04-11T13:10:52.301Z</time></trkpt><trkpt lat="40.5484674" lon="9.735895"><ele>197.16666666666669</ele><time>2026-04-11T13:10:54.301Z</time></trkpt><trkpt lat="40.5483931" lon="9.7359661"><ele>197.0</ele><time>2026-04-11T13:10:56.289Z</time></trkpt><trkpt lat="40.548337" lon="9.7360619"><ele>194.85714285714286</ele><time>2026-04-11T13:10:58.304Z</time></trkpt><trkpt lat="40.5483046" lon="9.7361528"><ele>192.71428571428572</ele><time>2026-04-11T13:11:00.296Z</time></trkpt><trkpt lat="40.5482748" lon="9.7362446"><ele>190.57142857142856</ele><time>2026-04-11T13:11:02.294Z</time></trkpt><trkpt lat="40.5482422" lon="9.7363186"><ele>188.42857142857144</ele><time>2026-04-11T13:11:04.313Z</time></trkpt><trkpt lat="40.5481839" lon="9.736363"><ele>186.28571428571428</ele><time>2026-04-11T13:11:06.286Z</time></trkpt><trkpt lat="40.5481115" lon="9.7363935"><ele>184.14285714285714</ele><time>2026-04-11T13:11:08.297Z</time></trkpt><trkpt lat="40.548043" lon="9.736414"><ele>182.0</ele><time>2026-04-11T13:11:10.308Z</time></trkpt><trkpt lat="40.5479774" lon="9.7364343"><ele>182.0</ele><time>2026-04-11T13:11:12.283Z</time></trkpt><trkpt lat="40.5479085" lon="9.7364569"><ele>182.0</ele><time>2026-04-11T13:11:14.291Z</time></trkpt><trkpt lat="40.5478295" lon="9.7364742"><ele>182.0</ele><time>2026-04-11T13:11:16.295Z</time></trkpt><trkpt lat="40.5477559" lon="9.7364713"><ele>182.0</ele><time>2026-04-11T13:11:18.291Z</time></trkpt><trkpt lat="40.5476954" lon="9.736445"><ele>182.0</ele><time>2026-04-11T13:11:20.292Z</time></trkpt><trkpt lat="40.5476455" lon="9.7363909"><ele>182.0</ele><time>2026-04-11T13:11:22.279Z</time></trkpt><trkpt lat="40.5476057" lon="9.7363145"><ele>182.0</ele><time>2026-04-11T13:11:24.285Z</time></trkpt><trkpt lat="40.5475675" lon="9.7362187"><ele>181.85714285714286</ele><time>2026-04-11T13:11:26.284Z</time></trkpt><trkpt lat="40.5475173" lon="9.736131"><ele>181.71428571428572</ele><time>2026-04-11T13:11:28.258Z</time></trkpt><trkpt lat="40.5474709" lon="9.7360525"><ele>181.57142857142856</ele><time>2026-04-11T13:11:30.269Z</time></trkpt><trkpt lat="40.5474367" lon="9.7359806"><ele>181.42857142857144</ele><time>2026-04-11T13:11:32.267Z</time></trkpt><trkpt lat="40.5474122" lon="9.7359023"><ele>181.28571428571428</ele><time>2026-04-11T13:11:34.289Z</time></trkpt><trkpt lat="40.5473897" lon="9.7358214"><ele>181.14285714285714</ele><time>2026-04-11T13:11:36.283Z</time></trkpt><trkpt lat="40.5473751" lon="9.7357363"><ele>181.0</ele><time>2026-04-11T13:11:38.269Z</time></trkpt><trkpt lat="40.5473138" lon="9.7356544"><ele>181.0</ele><time>2026-04-11T13:11:41.295Z</time></trkpt><trkpt lat="40.5472239" lon="9.7356646"><ele>181.0</ele><time>2026-04-11T13:11:43.267Z</time></trkpt><trkpt lat="40.547137" lon="9.73571"><ele>181.0</ele><time>2026-04-11T13:11:45.275Z</time></trkpt><trkpt lat="40.5470751" lon="9.7357507"><ele>181.0</ele><time>2026-04-11T13:11:47.244Z</time></trkpt><trkpt lat="40.5469904" lon="9.7358001"><ele>181.0</ele><time>2026-04-11T13:11:50.248Z</time></trkpt><trkpt lat="40.546901" lon="9.7358329"><ele>181.0</ele><time>2026-04-11T13:11:53.25Z</time></trkpt><trkpt lat="40.5468255" lon="9.7358301"><ele>179.33333333333334</ele><time>2026-04-11T13:11:55.25Z</time></trkpt><trkpt lat="40.5467455" lon="9.7358227"><ele>177.66666666666669</ele><time>2026-04-11T13:11:57.242Z</time></trkpt><trkpt lat="40.5466585" lon="9.7358228"><ele>176.0</ele><time>2026-04-11T13:11:59.24Z</time></trkpt><trkpt lat="40.546581" lon="9.735831"><ele>174.33333333333334</ele><time>2026-04-11T13:12:01.242Z</time></trkpt><trkpt lat="40.5465068" lon="9.7358587"><ele>172.66666666666666</ele><time>2026-04-11T13:12:03.252Z</time></trkpt><trkpt lat="40.5464252" lon="9.7358916"><ele>171.0</ele><time>2026-04-11T13:12:05.243Z</time></trkpt><trkpt lat="40.5463462" lon="9.7359216"><ele>170.99999999999997</ele><time>2026-04-11T13:12:07.246Z</time></trkpt><trkpt lat="40.5462829" lon="9.7359489"><ele>171.0</ele><time>2026-04-11T13:12:09.228Z</time></trkpt><trkpt lat="40.5462237" lon="9.7359779"><ele>171.0</ele><time>2026-04-11T13:12:11.247Z</time></trkpt><trkpt lat="40.5461521" lon="9.7360171"><ele>171.0</ele><time>2026-04-11T13:12:14.247Z</time></trkpt><trkpt lat="40.546063" lon="9.7360543"><ele>171.0</ele><time>2026-04-11T13:12:17.222Z</time></trkpt><trkpt lat="40.5459863" lon="9.736055"><ele>170.99999999999997</ele><time>2026-04-11T13:12:19.229Z</time></trkpt><trkpt lat="40.545915" lon="9.7360527"><ele>171.0</ele><time>2026-04-11T13:12:21.217Z</time></trkpt><trkpt lat="40.5458373" lon="9.7360489"><ele>170.0</ele><time>2026-04-11T13:12:23.238Z</time></trkpt><trkpt lat="40.5457735" lon="9.7360248"><ele>169.0</ele><time>2026-04-11T13:12:25.249Z</time></trkpt><trkpt lat="40.5456904" lon="9.7360232"><ele>168.0</ele><time>2026-04-11T13:12:28.222Z</time></trkpt><trkpt lat="40.5456387" lon="9.736093"><ele>167.0</ele><time>2026-04-11T13:12:30.323Z</time></trkpt><trkpt lat="40.5456363" lon="9.7362049"><ele>166.0</ele><time>2026-04-11T13:12:32.328Z</time></trkpt><trkpt lat="40.5456608" lon="9.7362981"><ele>165.0</ele><time>2026-04-11T13:12:34.322Z</time></trkpt><trkpt lat="40.5456977" lon="9.7364187"><ele>164.16666666666666</ele><time>2026-04-11T13:12:36.308Z</time></trkpt><trkpt lat="40.5457401" lon="9.7365416"><ele>163.33333333333334</ele><time>2026-04-11T13:12:38.3Z</time></trkpt><trkpt lat="40.5458037" lon="9.7366499"><ele>162.5</ele><time>2026-04-11T13:12:40.301Z</time></trkpt><trkpt lat="40.5458647" lon="9.7367457"><ele>161.66666666666669</ele><time>2026-04-11T13:12:42.303Z</time></trkpt><trkpt lat="40.5459086" lon="9.7368157"><ele>160.83333333333334</ele><time>2026-04-11T13:12:44.301Z</time></trkpt><trkpt lat="40.5459358" lon="9.7369016"><ele>160.0</ele><time>2026-04-11T13:12:46.309Z</time></trkpt><trkpt lat="40.5459302" lon="9.7370094"><ele>162.2</ele><time>2026-04-11T13:12:48.293Z</time></trkpt><trkpt lat="40.5459099" lon="9.737132"><ele>164.4</ele><time>2026-04-11T13:12:50.302Z</time></trkpt><trkpt lat="40.5458924" lon="9.7372407"><ele>166.60000000000002</ele><time>2026-04-11T13:12:52.299Z</time></trkpt><trkpt lat="40.545884" lon="9.7373355"><ele>168.8</ele><time>2026-04-11T13:12:54.296Z</time></trkpt><trkpt lat="40.5458816" lon="9.7374762"><ele>171.0</ele><time>2026-04-11T13:12:56.31Z</time></trkpt><trkpt lat="40.545887" lon="9.7376192"><ele>172.60000000000002</ele><time>2026-04-11T13:12:58.294Z</time></trkpt><trkpt lat="40.5458903" lon="9.7377403"><ele>174.2</ele><time>2026-04-11T13:13:00.294Z</time></trkpt><trkpt lat="40.5458708" lon="9.7378627"><ele>175.8</ele><time>2026-04-11T13:13:02.302Z</time></trkpt><trkpt lat="40.5458222" lon="9.7379664"><ele>177.39999999999998</ele><time>2026-04-11T13:13:04.298Z</time></trkpt><trkpt lat="40.5457658" lon="9.7380458"><ele>179.0</ele><time>2026-04-11T13:13:06.296Z</time></trkpt><trkpt lat="40.5457134" lon="9.738149"><ele>179.0</ele><time>2026-04-11T13:13:08.277Z</time></trkpt><trkpt lat="40.5456522" lon="9.7382693"><ele>179.0</ele><time>2026-04-11T13:13:10.284Z</time></trkpt><trkpt lat="40.5456387" lon="9.7383839"><ele>179.0</ele><time>2026-04-11T13:13:12.286Z</time></trkpt><trkpt lat="40.5456349" lon="9.7385191"><ele>179.0</ele><time>2026-04-11T13:13:14.285Z</time></trkpt><trkpt lat="40.5456312" lon="9.7386435"><ele>179.0</ele><time>2026-04-11T13:13:16.262Z</time></trkpt><trkpt lat="40.5456268" lon="9.7387704"><ele>180.16666666666666</ele><time>2026-04-11T13:13:18.269Z</time></trkpt><trkpt lat="40.5456121" lon="9.7388746"><ele>181.33333333333331</ele><time>2026-04-11T13:13:20.27Z</time></trkpt><trkpt lat="40.5455456" lon="9.7389091"><ele>182.5</ele><time>2026-04-11T13:13:22.267Z</time></trkpt><trkpt lat="40.5454556" lon="9.7388643"><ele>183.66666666666666</ele><time>2026-04-11T13:13:24.271Z</time></trkpt><trkpt lat="40.5453864" lon="9.7387962"><ele>184.83333333333334</ele><time>2026-04-11T13:13:26.274Z</time></trkpt><trkpt lat="40.5452893" lon="9.7387218"><ele>186.0</ele><time>2026-04-11T13:13:28.268Z</time></trkpt><trkpt lat="40.5451932" lon="9.7386487"><ele>186.0</ele><time>2026-04-11T13:13:30.274Z</time></trkpt><trkpt lat="40.5451369" lon="9.7385964"><ele>186.0</ele><time>2026-04-11T13:13:32.276Z</time></trkpt><trkpt lat="40.5450772" lon="9.738545"><ele>186.0</ele><time>2026-04-11T13:13:36.281Z</time></trkpt><trkpt lat="40.5450025" lon="9.7384991"><ele>186.0</ele><time>2026-04-11T13:14:41.234Z</time></trkpt><trkpt lat="40.5449313" lon="9.7384536"><ele>186.0</ele><time>2026-04-11T13:14:43.24Z</time></trkpt><trkpt lat="40.5448505" lon="9.738388"><ele>186.0</ele><time>2026-04-11T13:14:45.24Z</time></trkpt><trkpt lat="40.544756" lon="9.7383012"><ele>188.25</ele><time>2026-04-11T13:14:47.236Z</time></trkpt><trkpt lat="40.54465" lon="9.7382356"><ele>190.5</ele><time>2026-04-11T13:14:49.238Z</time></trkpt><trkpt lat="40.544535" lon="9.7382159"><ele>192.75</ele><time>2026-04-11T13:14:51.235Z</time></trkpt><trkpt lat="40.5444197" lon="9.73823"><ele>195.0</ele><time>2026-04-11T13:14:53.237Z</time></trkpt><trkpt lat="40.5443225" lon="9.7382844"><ele>195.8</ele><time>2026-04-11T13:14:55.243Z</time></trkpt><trkpt lat="40.5442248" lon="9.738358"><ele>196.6</ele><time>2026-04-11T13:14:57.235Z</time></trkpt><trkpt lat="40.5441272" lon="9.7384352"><ele>197.39999999999998</ele><time>2026-04-11T13:14:59.23Z</time></trkpt><trkpt lat="40.5440593" lon="9.7384971"><ele>198.2</ele><time>2026-04-11T13:15:01.217Z</time></trkpt><trkpt lat="40.5439943" lon="9.7385334"><ele>199.0</ele><time>2026-04-11T13:15:03.231Z</time></trkpt><trkpt lat="40.5439177" lon="9.7385797"><ele>197.16666666666666</ele><time>2026-04-11T13:15:05.233Z</time></trkpt><trkpt lat="40.5438418" lon="9.7386474"><ele>195.33333333333331</ele><time>2026-04-11T13:15:07.306Z</time></trkpt><trkpt lat="40.5437713" lon="9.7387237"><ele>193.5</ele><time>2026-04-11T13:15:09.31Z</time></trkpt><trkpt lat="40.5437029" lon="9.7387803"><ele>191.66666666666666</ele><time>2026-04-11T13:15:11.306Z</time></trkpt><trkpt lat="40.5436412" lon="9.7388302"><ele>189.83333333333331</ele><time>2026-04-11T13:15:13.318Z</time></trkpt><trkpt lat="40.5435877" lon="9.738884"><ele>188.0</ele><time>2026-04-11T13:15:15.308Z</time></trkpt><trkpt lat="40.5435351" lon="9.7389407"><ele>188.0</ele><time>2026-04-11T13:15:17.317Z</time></trkpt><trkpt lat="40.5434811" lon="9.7390095"><ele>188.0</ele><time>2026-04-11T13:15:19.304Z</time></trkpt><trkpt lat="40.5434217" lon="9.7390864"><ele>188.0</ele><time>2026-04-11T13:15:21.318Z</time></trkpt><trkpt lat="40.5433718" lon="9.7391691"><ele>188.0</ele><time>2026-04-11T13:15:23.318Z</time></trkpt><trkpt lat="40.5433505" lon="9.739284"><ele>188.0</ele><time>2026-04-11T13:15:25.317Z</time></trkpt><trkpt lat="40.5433458" lon="9.7394091"><ele>188.0</ele><time>2026-04-11T13:15:27.313Z</time></trkpt><trkpt lat="40.5433469" lon="9.7395052"><ele>187.16666666666666</ele><time>2026-04-11T13:15:29.32Z</time></trkpt><trkpt lat="40.5433512" lon="9.7395939"><ele>186.33333333333331</ele><time>2026-04-11T13:15:31.318Z</time></trkpt><trkpt lat="40.5433653" lon="9.7397362"><ele>185.5</ele><time>2026-04-11T13:15:33.307Z</time></trkpt><trkpt lat="40.5433781" lon="9.7399061"><ele>184.66666666666666</ele><time>2026-04-11T13:15:35.296Z</time></trkpt><trkpt lat="40.5433788" lon="9.7399952"><ele>183.83333333333334</ele><time>2026-04-11T13:15:36.307Z</time></trkpt><trkpt lat="40.5433728" lon="9.7400808"><ele>183.0</ele><time>2026-04-11T13:15:37.305Z</time></trkpt><trkpt lat="40.5433607" lon="9.7401744"><ele>182.16666666666666</ele><time>2026-04-11T13:15:38.296Z</time></trkpt><trkpt lat="40.5433469" lon="9.740275"><ele>181.33333333333334</ele><time>2026-04-11T13:15:39.302Z</time></trkpt><trkpt lat="40.5433373" lon="9.7403825"><ele>180.5</ele><time>2026-04-11T13:15:40.304Z</time></trkpt><trkpt lat="40.5433302" lon="9.7404829"><ele>179.66666666666669</ele><time>2026-04-11T13:15:41.306Z</time></trkpt><trkpt lat="40.5433247" lon="9.7405725"><ele>178.83333333333334</ele><time>2026-04-11T13:15:42.295Z</time></trkpt><trkpt lat="40.5433104" lon="9.7407147"><ele>178.0</ele><time>2026-04-11T13:15:44.285Z</time></trkpt><trkpt lat="40.5432867" lon="9.7408484"><ele>178.0</ele><time>2026-04-11T13:15:46.292Z</time></trkpt><trkpt lat="40.5432488" lon="9.7409752"><ele>178.0</ele><time>2026-04-11T13:15:48.304Z</time></trkpt><trkpt lat="40.5432182" lon="9.7411174"><ele>178.0</ele><time>2026-04-11T13:15:50.288Z</time></trkpt><trkpt lat="40.5432043" lon="9.741286"><ele>178.0</ele><time>2026-04-11T13:15:52.288Z</time></trkpt><trkpt lat="40.5431964" lon="9.7413865"><ele>178.0</ele><time>2026-04-11T13:15:53.304Z</time></trkpt><trkpt lat="40.5431885" lon="9.7414873"><ele>176.5</ele><time>2026-04-11T13:15:54.278Z</time></trkpt><trkpt lat="40.5431864" lon="9.7415883"><ele>175.0</ele><time>2026-04-11T13:15:55.278Z</time></trkpt><trkpt lat="40.5431838" lon="9.7416864"><ele>173.5</ele><time>2026-04-11T13:15:56.281Z</time></trkpt><trkpt lat="40.5431794" lon="9.741788"><ele>172.0</ele><time>2026-04-11T13:15:57.29Z</time></trkpt><trkpt lat="40.5431749" lon="9.7418896"><ele>170.5</ele><time>2026-04-11T13:15:58.28Z</time></trkpt><trkpt lat="40.5431684" lon="9.7419923"><ele>169.0</ele><time>2026-04-11T13:15:59.321Z</time></trkpt><trkpt lat="40.5431629" lon="9.7420949"><ele>167.83333333333334</ele><time>2026-04-11T13:16:00.28Z</time></trkpt><trkpt lat="40.5431583" lon="9.7422077"><ele>166.66666666666669</ele><time>2026-04-11T13:16:01.292Z</time></trkpt><trkpt lat="40.5431508" lon="9.742315"><ele>165.5</ele><time>2026-04-11T13:16:02.275Z</time></trkpt><trkpt lat="40.5431379" lon="9.7424135"><ele>164.33333333333334</ele><time>2026-04-11T13:16:03.268Z</time></trkpt><trkpt lat="40.5431155" lon="9.7425048"><ele>163.16666666666666</ele><time>2026-04-11T13:16:04.279Z</time></trkpt><trkpt lat="40.5430831" lon="9.7425943"><ele>162.0</ele><time>2026-04-11T13:16:05.276Z</time></trkpt><trkpt lat="40.5430469" lon="9.7426831"><ele>161.33333333333334</ele><time>2026-04-11T13:16:06.285Z</time></trkpt><trkpt lat="40.5430102" lon="9.7427664"><ele>160.66666666666666</ele><time>2026-04-11T13:16:07.27Z</time></trkpt><trkpt lat="40.542972" lon="9.7428531"><ele>160.0</ele><time>2026-04-11T13:16:08.269Z</time></trkpt><trkpt lat="40.5429323" lon="9.7429398"><ele>159.33333333333331</ele><time>2026-04-11T13:16:09.284Z</time></trkpt><trkpt lat="40.5428945" lon="9.7430273"><ele>158.66666666666666</ele><time>2026-04-11T13:16:10.274Z</time></trkpt><trkpt lat="40.542863" lon="9.7431089"><ele>158.0</ele><time>2026-04-11T13:16:11.272Z</time></trkpt><trkpt lat="40.542822" lon="9.743261"><ele>155.5</ele><time>2026-04-11T13:16:13.281Z</time></trkpt><trkpt lat="40.5427834" lon="9.7434103"><ele>153.0</ele><time>2026-04-11T13:16:15.272Z</time></trkpt><trkpt lat="40.5427466" lon="9.7435655"><ele>150.5</ele><time>2026-04-11T13:16:17.279Z</time></trkpt><trkpt lat="40.5427144" lon="9.7437124"><ele>148.0</ele><time>2026-04-11T13:16:19.29Z</time></trkpt><trkpt lat="40.5426841" lon="9.7438462"><ele>146.8</ele><time>2026-04-11T13:16:21.299Z</time></trkpt><trkpt lat="40.5426717" lon="9.743979"><ele>145.60000000000002</ele><time>2026-04-11T13:16:23.266Z</time></trkpt><trkpt lat="40.5426686" lon="9.7441165"><ele>144.39999999999998</ele><time>2026-04-11T13:16:25.282Z</time></trkpt><trkpt lat="40.5426605" lon="9.7442635"><ele>143.2</ele><time>2026-04-11T13:16:27.263Z</time></trkpt><trkpt lat="40.5426409" lon="9.7444273"><ele>142.0</ele><time>2026-04-11T13:16:29.264Z</time></trkpt><trkpt lat="40.5426263" lon="9.7445106"><ele>140.0</ele><time>2026-04-11T13:16:30.262Z</time></trkpt><trkpt lat="40.5426125" lon="9.7445921"><ele>138.0</ele><time>2026-04-11T13:16:31.265Z</time></trkpt><trkpt lat="40.5425786" lon="9.7447415"><ele>136.0</ele><time>2026-04-11T13:16:33.262Z</time></trkpt><trkpt lat="40.542525" lon="9.7448798"><ele>134.0</ele><time>2026-04-11T13:16:35.267Z</time></trkpt><trkpt lat="40.54245" lon="9.7450076"><ele>132.0</ele><time>2026-04-11T13:16:37.257Z</time></trkpt><trkpt lat="40.5424138" lon="9.7450773"><ele>132.0</ele><time>2026-04-11T13:16:38.266Z</time></trkpt><trkpt lat="40.5423797" lon="9.7451488"><ele>132.0</ele><time>2026-04-11T13:16:39.268Z</time></trkpt><trkpt lat="40.5423408" lon="9.7452184"><ele>132.0</ele><time>2026-04-11T13:16:40.263Z</time></trkpt><trkpt lat="40.5423011" lon="9.7452888"><ele>132.0</ele><time>2026-04-11T13:16:41.25Z</time></trkpt><trkpt lat="40.5422641" lon="9.7453642"><ele>132.0</ele><time>2026-04-11T13:16:42.27Z</time></trkpt><trkpt lat="40.5422306" lon="9.7454398"><ele>132.0</ele><time>2026-04-11T13:16:43.26Z</time></trkpt><trkpt lat="40.5422027" lon="9.7455153"><ele>132.0</ele><time>2026-04-11T13:16:44.278Z</time></trkpt><trkpt lat="40.542185" lon="9.7456721"><ele>130.79999999999998</ele><time>2026-04-11T13:16:46.262Z</time></trkpt><trkpt lat="40.5421986" lon="9.7458329"><ele>129.6</ele><time>2026-04-11T13:16:48.264Z</time></trkpt><trkpt lat="40.5422016" lon="9.7459858"><ele>128.39999999999998</ele><time>2026-04-11T13:16:50.275Z</time></trkpt><trkpt lat="40.5421997" lon="9.7461411"><ele>127.19999999999999</ele><time>2026-04-11T13:16:52.26Z</time></trkpt><trkpt lat="40.542196" lon="9.7462306"><ele>126.0</ele><time>2026-04-11T13:16:53.252Z</time></trkpt><trkpt lat="40.5421931" lon="9.7463264"><ele>125.83333333333333</ele><time>2026-04-11T13:16:54.245Z</time></trkpt><trkpt lat="40.5421894" lon="9.7464267"><ele>125.66666666666666</ele><time>2026-04-11T13:16:55.251Z</time></trkpt><trkpt lat="40.5421848" lon="9.7465325"><ele>125.5</ele><time>2026-04-11T13:16:56.242Z</time></trkpt><trkpt lat="40.5421817" lon="9.7466426"><ele>125.33333333333333</ele><time>2026-04-11T13:16:57.272Z</time></trkpt><trkpt lat="40.5421795" lon="9.74676"><ele>125.16666666666666</ele><time>2026-04-11T13:16:58.289Z</time></trkpt><trkpt lat="40.5421791" lon="9.7468819"><ele>125.0</ele><time>2026-04-11T13:16:59.263Z</time></trkpt><trkpt lat="40.5421805" lon="9.7470054"><ele>124.99999999999999</ele><time>2026-04-11T13:17:00.246Z</time></trkpt><trkpt lat="40.5421874" lon="9.7471197"><ele>125.0</ele><time>2026-04-11T13:17:01.24Z</time></trkpt><trkpt lat="40.5421939" lon="9.747227"><ele>125.0</ele><time>2026-04-11T13:17:02.247Z</time></trkpt><trkpt lat="40.5422007" lon="9.7473259"><ele>125.0</ele><time>2026-04-11T13:17:03.255Z</time></trkpt><trkpt lat="40.5422112" lon="9.7474253"><ele>124.99999999999999</ele><time>2026-04-11T13:17:04.234Z</time></trkpt><trkpt lat="40.5422272" lon="9.7475324"><ele>125.0</ele><time>2026-04-11T13:17:05.246Z</time></trkpt><trkpt lat="40.5422486" lon="9.7476383"><ele>124.99999999999999</ele><time>2026-04-11T13:17:06.249Z</time></trkpt><trkpt lat="40.5422722" lon="9.7477399"><ele>125.0</ele><time>2026-04-11T13:17:07.24Z</time></trkpt><trkpt lat="40.5422971" lon="9.747844"><ele>125.0</ele><time>2026-04-11T13:17:08.245Z</time></trkpt><trkpt lat="40.5423199" lon="9.7479545"><ele>125.0</ele><time>2026-04-11T13:17:09.252Z</time></trkpt><trkpt lat="40.542338" lon="9.7480673"><ele>124.99999999999999</ele><time>2026-04-11T13:17:10.244Z</time></trkpt><trkpt lat="40.5423468" lon="9.7481782"><ele>125.0</ele><time>2026-04-11T13:17:11.268Z</time></trkpt><trkpt lat="40.5423502" lon="9.7482939"><ele>125.0</ele><time>2026-04-11T13:17:12.249Z</time></trkpt><trkpt lat="40.5423483" lon="9.7484155"><ele>125.0</ele><time>2026-04-11T13:17:13.226Z</time></trkpt><trkpt lat="40.5423434" lon="9.7485411"><ele>125.0</ele><time>2026-04-11T13:17:14.244Z</time></trkpt><trkpt lat="40.5423395" lon="9.7486664"><ele>125.0</ele><time>2026-04-11T13:17:15.239Z</time></trkpt><trkpt lat="40.5423385" lon="9.7487893"><ele>125.0</ele><time>2026-04-11T13:17:16.225Z</time></trkpt><trkpt lat="40.5423376" lon="9.7489079"><ele>125.2</ele><time>2026-04-11T13:17:17.24Z</time></trkpt><trkpt lat="40.5423327" lon="9.749029"><ele>125.4</ele><time>2026-04-11T13:17:18.225Z</time></trkpt><trkpt lat="40.5423318" lon="9.7491541"><ele>125.6</ele><time>2026-04-11T13:17:19.236Z</time></trkpt><trkpt lat="40.5423358" lon="9.7492783"><ele>125.8</ele><time>2026-04-11T13:17:20.237Z</time></trkpt><trkpt lat="40.5423462" lon="9.749398"><ele>126.0</ele><time>2026-04-11T13:17:21.216Z</time></trkpt><trkpt lat="40.5423603" lon="9.7495162"><ele>126.28571428571428</ele><time>2026-04-11T13:17:22.213Z</time></trkpt><trkpt lat="40.5423784" lon="9.7496221"><ele>126.57142857142857</ele><time>2026-04-11T13:17:23.226Z</time></trkpt><trkpt lat="40.542402" lon="9.7497089"><ele>126.85714285714286</ele><time>2026-04-11T13:17:24.219Z</time></trkpt><trkpt lat="40.5424346" lon="9.749791"><ele>127.14285714285714</ele><time>2026-04-11T13:17:25.214Z</time></trkpt><trkpt lat="40.5424731" lon="9.7498763"><ele>127.42857142857142</ele><time>2026-04-11T13:17:26.227Z</time></trkpt><trkpt lat="40.5425021" lon="9.7499644"><ele>127.71428571428571</ele><time>2026-04-11T13:17:27.224Z</time></trkpt><trkpt lat="40.5425109" lon="9.7500474"><ele>128.0</ele><time>2026-04-11T13:17:28.215Z</time></trkpt><trkpt lat="40.5425094" lon="9.7501397"><ele>127.33333333333333</ele><time>2026-04-11T13:17:29.218Z</time></trkpt><trkpt lat="40.5425056" lon="9.7502476"><ele>126.66666666666666</ele><time>2026-04-11T13:17:30.216Z</time></trkpt><trkpt lat="40.5424991" lon="9.7503651"><ele>126.0</ele><time>2026-04-11T13:17:31.223Z</time></trkpt><trkpt lat="40.5424932" lon="9.7504864"><ele>125.33333333333334</ele><time>2026-04-11T13:17:32.216Z</time></trkpt><trkpt lat="40.5424884" lon="9.7506063"><ele>124.66666666666667</ele><time>2026-04-11T13:17:33.23Z</time></trkpt><trkpt lat="40.5424826" lon="9.7507181"><ele>124.0</ele><time>2026-04-11T13:17:34.229Z</time></trkpt><trkpt lat="40.5424742" lon="9.7508257"><ele>124.0</ele><time>2026-04-11T13:17:35.218Z</time></trkpt><trkpt lat="40.5424577" lon="9.7509275"><ele>124.0</ele><time>2026-04-11T13:17:36.226Z</time></trkpt><trkpt lat="40.5424324" lon="9.751021"><ele>124.0</ele><time>2026-04-11T13:17:37.317Z</time></trkpt><trkpt lat="40.5423998" lon="9.7511079"><ele>124.0</ele><time>2026-04-11T13:17:38.319Z</time></trkpt><trkpt lat="40.5423219" lon="9.7512727"><ele>124.0</ele><time>2026-04-11T13:17:40.206Z</time></trkpt><trkpt lat="40.5422758" lon="9.751358"><ele>122.66666666666667</ele><time>2026-04-11T13:17:41.316Z</time></trkpt><trkpt lat="40.5422339" lon="9.7514406"><ele>121.33333333333334</ele><time>2026-04-11T13:17:42.311Z</time></trkpt><trkpt lat="40.5421904" lon="9.7515212"><ele>120.0</ele><time>2026-04-11T13:17:43.303Z</time></trkpt><trkpt lat="40.5421454" lon="9.7516026"><ele>118.66666666666666</ele><time>2026-04-11T13:17:44.326Z</time></trkpt><trkpt lat="40.5421018" lon="9.751688"><ele>117.33333333333333</ele><time>2026-04-11T13:17:45.309Z</time></trkpt><trkpt lat="40.5420544" lon="9.7517742"><ele>116.0</ele><time>2026-04-11T13:17:46.315Z</time></trkpt><trkpt lat="40.5420041" lon="9.7518582"><ele>114.49999999999999</ele><time>2026-04-11T13:17:47.316Z</time></trkpt><trkpt lat="40.5419529" lon="9.7519441"><ele>113.0</ele><time>2026-04-11T13:17:48.311Z</time></trkpt><trkpt lat="40.5419032" lon="9.7520332"><ele>111.5</ele><time>2026-04-11T13:17:49.31Z</time></trkpt><trkpt lat="40.5418553" lon="9.7521246"><ele>110.0</ele><time>2026-04-11T13:17:50.328Z</time></trkpt><trkpt lat="40.5418139" lon="9.7522105"><ele>108.49999999999999</ele><time>2026-04-11T13:17:51.319Z</time></trkpt><trkpt lat="40.5417929" lon="9.7522959"><ele>107.0</ele><time>2026-04-11T13:17:52.305Z</time></trkpt><trkpt lat="40.5418049" lon="9.7524564"><ele>107.0</ele><time>2026-04-11T13:17:54.313Z</time></trkpt><trkpt lat="40.5418656" lon="9.7525927"><ele>106.99999999999999</ele><time>2026-04-11T13:17:56.31Z</time></trkpt><trkpt lat="40.541926" lon="9.7527364"><ele>106.99999999999999</ele><time>2026-04-11T13:17:58.305Z</time></trkpt><trkpt lat="40.541953" lon="9.7528233"><ele>107.0</ele><time>2026-04-11T13:17:59.304Z</time></trkpt><trkpt lat="40.5419735" lon="9.7529164"><ele>107.0</ele><time>2026-04-11T13:18:00.303Z</time></trkpt><trkpt lat="40.5419921" lon="9.7530124"><ele>105.16666666666666</ele><time>2026-04-11T13:18:01.306Z</time></trkpt><trkpt lat="40.5420144" lon="9.7531085"><ele>103.33333333333333</ele><time>2026-04-11T13:18:02.314Z</time></trkpt><trkpt lat="40.5420394" lon="9.7532047"><ele>101.5</ele><time>2026-04-11T13:18:03.331Z</time></trkpt><trkpt lat="40.5420616" lon="9.7533028"><ele>99.66666666666666</ele><time>2026-04-11T13:18:04.298Z</time></trkpt><trkpt lat="40.5420835" lon="9.7533992"><ele>97.83333333333333</ele><time>2026-04-11T13:18:05.297Z</time></trkpt><trkpt lat="40.5421088" lon="9.7534986"><ele>96.0</ele><time>2026-04-11T13:18:06.297Z</time></trkpt><trkpt lat="40.5421342" lon="9.7535961"><ele>94.8</ele><time>2026-04-11T13:18:07.305Z</time></trkpt><trkpt lat="40.5421597" lon="9.7536929"><ele>93.6</ele><time>2026-04-11T13:18:08.308Z</time></trkpt><trkpt lat="40.5421862" lon="9.7537898"><ele>92.4</ele><time>2026-04-11T13:18:09.291Z</time></trkpt><trkpt lat="40.5422136" lon="9.7538773"><ele>91.2</ele><time>2026-04-11T13:18:10.299Z</time></trkpt><trkpt lat="40.5422396" lon="9.7540268"><ele>90.0</ele><time>2026-04-11T13:18:12.306Z</time></trkpt><trkpt lat="40.5421994" lon="9.7541834"><ele>90.0</ele><time>2026-04-11T13:18:14.291Z</time></trkpt><trkpt lat="40.5421529" lon="9.7542604"><ele>90.0</ele><time>2026-04-11T13:18:15.302Z</time></trkpt><trkpt lat="40.5420964" lon="9.7543417"><ele>90.0</ele><time>2026-04-11T13:18:16.308Z</time></trkpt><trkpt lat="40.5420341" lon="9.7544346"><ele>90.0</ele><time>2026-04-11T13:18:17.301Z</time></trkpt><trkpt lat="40.5419715" lon="9.7545319"><ele>90.0</ele><time>2026-04-11T13:18:18.31Z</time></trkpt><trkpt lat="40.5419158" lon="9.7546305"><ele>90.0</ele><time>2026-04-11T13:18:19.307Z</time></trkpt><trkpt lat="40.5418612" lon="9.7547295"><ele>87.66666666666667</ele><time>2026-04-11T13:18:20.345Z</time></trkpt><trkpt lat="40.541806" lon="9.7548163"><ele>85.33333333333333</ele><time>2026-04-11T13:18:21.3Z</time></trkpt><trkpt lat="40.5417536" lon="9.7548954"><ele>83.0</ele><time>2026-04-11T13:18:22.309Z</time></trkpt><trkpt lat="40.541702" lon="9.7549674"><ele>80.66666666666666</ele><time>2026-04-11T13:18:23.299Z</time></trkpt><trkpt lat="40.5416545" lon="9.7550449"><ele>78.33333333333333</ele><time>2026-04-11T13:18:24.305Z</time></trkpt><trkpt lat="40.5416044" lon="9.7551227"><ele>76.0</ele><time>2026-04-11T13:18:25.303Z</time></trkpt><trkpt lat="40.541554" lon="9.7552068"><ele>74.8</ele><time>2026-04-11T13:18:26.311Z</time></trkpt><trkpt lat="40.5415048" lon="9.7552954"><ele>73.6</ele><time>2026-04-11T13:18:27.299Z</time></trkpt><trkpt lat="40.5414593" lon="9.7553907"><ele>72.4</ele><time>2026-04-11T13:18:28.285Z</time></trkpt><trkpt lat="40.5414179" lon="9.7554981"><ele>71.2</ele><time>2026-04-11T13:18:29.302Z</time></trkpt><trkpt lat="40.5413776" lon="9.7556145"><ele>70.0</ele><time>2026-04-11T13:18:30.292Z</time></trkpt><trkpt lat="40.5413358" lon="9.7557429"><ele>70.0</ele><time>2026-04-11T13:18:31.321Z</time></trkpt><trkpt lat="40.5412964" lon="9.75588"><ele>70.0</ele><time>2026-04-11T13:18:32.299Z</time></trkpt><trkpt lat="40.54126" lon="9.7560214"><ele>70.0</ele><time>2026-04-11T13:18:33.312Z</time></trkpt><trkpt lat="40.5412298" lon="9.75615"><ele>70.0</ele><time>2026-04-11T13:18:34.291Z</time></trkpt><trkpt lat="40.5412014" lon="9.7562779"><ele>70.0</ele><time>2026-04-11T13:18:35.3Z</time></trkpt><trkpt lat="40.5411769" lon="9.7563967"><ele>69.83333333333333</ele><time>2026-04-11T13:18:36.289Z</time></trkpt><trkpt lat="40.5411519" lon="9.7565115"><ele>69.66666666666666</ele><time>2026-04-11T13:18:37.295Z</time></trkpt><trkpt lat="40.5411203" lon="9.7566194"><ele>69.5</ele><time>2026-04-11T13:18:38.295Z</time></trkpt><trkpt lat="40.5410817" lon="9.7567109"><ele>69.33333333333333</ele><time>2026-04-11T13:18:39.283Z</time></trkpt><trkpt lat="40.5410325" lon="9.7567938"><ele>69.16666666666667</ele><time>2026-04-11T13:18:40.307Z</time></trkpt><trkpt lat="40.5409728" lon="9.7568606"><ele>69.0</ele><time>2026-04-11T13:18:41.294Z</time></trkpt><trkpt lat="40.540909" lon="9.7569239"><ele>68.0</ele><time>2026-04-11T13:18:42.283Z</time></trkpt><trkpt lat="40.5408416" lon="9.7569808"><ele>67.0</ele><time>2026-04-11T13:18:43.318Z</time></trkpt><trkpt lat="40.5407717" lon="9.7570304"><ele>66.0</ele><time>2026-04-11T13:18:44.292Z</time></trkpt><trkpt lat="40.5407034" lon="9.7570817"><ele>65.0</ele><time>2026-04-11T13:18:45.286Z</time></trkpt><trkpt lat="40.5406392" lon="9.7571401"><ele>64.0</ele><time>2026-04-11T13:18:46.294Z</time></trkpt><trkpt lat="40.540586" lon="9.7572195"><ele>63.0</ele><time>2026-04-11T13:18:47.288Z</time></trkpt><trkpt lat="40.5405495" lon="9.7573141"><ele>63.0</ele><time>2026-04-11T13:18:48.306Z</time></trkpt><trkpt lat="40.5405377" lon="9.7574116"><ele>63.0</ele><time>2026-04-11T13:18:49.296Z</time></trkpt><trkpt lat="40.5405322" lon="9.7575065"><ele>63.0</ele><time>2026-04-11T13:18:50.293Z</time></trkpt><trkpt lat="40.5405177" lon="9.7576478"><ele>63.0</ele><time>2026-04-11T13:18:52.281Z</time></trkpt><trkpt lat="40.5405084" lon="9.7577414"><ele>63.0</ele><time>2026-04-11T13:18:54.294Z</time></trkpt><trkpt lat="40.5404768" lon="9.7579071"><ele>62.285714285714285</ele><time>2026-04-11T13:19:15.284Z</time></trkpt><trkpt lat="40.5404513" lon="9.7580461"><ele>61.57142857142857</ele><time>2026-04-11T13:19:17.277Z</time></trkpt><trkpt lat="40.5404341" lon="9.7581308"><ele>60.85714285714286</ele><time>2026-04-11T13:19:18.279Z</time></trkpt><trkpt lat="40.5404115" lon="9.7582117"><ele>60.142857142857146</ele><time>2026-04-11T13:19:19.277Z</time></trkpt><trkpt lat="40.5403887" lon="9.7582963"><ele>59.42857142857143</ele><time>2026-04-11T13:19:20.267Z</time></trkpt><trkpt lat="40.540367" lon="9.7583822"><ele>58.71428571428572</ele><time>2026-04-11T13:19:21.28Z</time></trkpt><trkpt lat="40.5403492" lon="9.7584699"><ele>58.00000000000001</ele><time>2026-04-11T13:19:22.281Z</time></trkpt><trkpt lat="40.5403347" lon="9.7585515"><ele>58.0</ele><time>2026-04-11T13:19:23.294Z</time></trkpt><trkpt lat="40.5403207" lon="9.7586927"><ele>58.0</ele><time>2026-04-11T13:19:25.289Z</time></trkpt><trkpt lat="40.5402982" lon="9.7588459"><ele>58.0</ele><time>2026-04-11T13:19:27.29Z</time></trkpt><trkpt lat="40.5402557" lon="9.7589852"><ele>58.0</ele><time>2026-04-11T13:19:29.302Z</time></trkpt><trkpt lat="40.5402198" lon="9.7590867"><ele>58.0</ele><time>2026-04-11T13:19:31.28Z</time></trkpt><trkpt lat="40.5401741" lon="9.759175"><ele>57.99999999999999</ele><time>2026-04-11T13:19:34.26Z</time></trkpt><trkpt lat="40.5401441" lon="9.7592605"><ele>58.0</ele><time>2026-04-11T13:19:37.268Z</time></trkpt><trkpt lat="40.5400842" lon="9.7593569"><ele>58.0</ele><time>2026-04-11T13:19:39.26Z</time></trkpt><trkpt lat="40.5400151" lon="9.7594824"><ele>58.0</ele><time>2026-04-11T13:19:41.248Z</time></trkpt><trkpt lat="40.5399825" lon="9.7595593"><ele>57.99999999999999</ele><time>2026-04-11T13:19:42.266Z</time></trkpt><trkpt lat="40.5399556" lon="9.7596391"><ele>58.0</ele><time>2026-04-11T13:19:43.256Z</time></trkpt><trkpt lat="40.5399319" lon="9.7597225"><ele>57.2</ele><time>2026-04-11T13:19:44.246Z</time></trkpt><trkpt lat="40.5399103" lon="9.759802"><ele>56.4</ele><time>2026-04-11T13:19:45.247Z</time></trkpt><trkpt lat="40.5398845" lon="9.7599499"><ele>55.60000000000001</ele><time>2026-04-11T13:19:47.262Z</time></trkpt><trkpt lat="40.5398614" lon="9.7600997"><ele>54.800000000000004</ele><time>2026-04-11T13:19:49.25Z</time></trkpt><trkpt lat="40.5398278" lon="9.7602603"><ele>54.0</ele><time>2026-04-11T13:19:51.262Z</time></trkpt><trkpt lat="40.5397971" lon="9.7603399"><ele>53.333333333333336</ele><time>2026-04-11T13:19:52.244Z</time></trkpt><trkpt lat="40.5397579" lon="9.7604128"><ele>52.66666666666667</ele><time>2026-04-11T13:19:53.233Z</time></trkpt><trkpt lat="40.5397186" lon="9.7604836"><ele>52.0</ele><time>2026-04-11T13:19:54.275Z</time></trkpt><trkpt lat="40.5396526" lon="9.7606267"><ele>51.333333333333336</ele><time>2026-04-11T13:19:56.264Z</time></trkpt><trkpt lat="40.5396222" lon="9.7607037"><ele>50.66666666666667</ele><time>2026-04-11T13:19:57.243Z</time></trkpt><trkpt lat="40.5395904" lon="9.7607872"><ele>50.0</ele><time>2026-04-11T13:19:58.234Z</time></trkpt><trkpt lat="40.5395636" lon="9.7608771"><ele>49.833333333333336</ele><time>2026-04-11T13:19:59.24Z</time></trkpt><trkpt lat="40.5395417" lon="9.7609655"><ele>49.66666666666667</ele><time>2026-04-11T13:20:00.241Z</time></trkpt><trkpt lat="40.5395188" lon="9.7610501"><ele>49.5</ele><time>2026-04-11T13:20:01.258Z</time></trkpt><trkpt lat="40.5394929" lon="9.7611265"><ele>49.33333333333333</ele><time>2026-04-11T13:20:02.249Z</time></trkpt><trkpt lat="40.5394274" lon="9.7612531"><ele>49.166666666666664</ele><time>2026-04-11T13:20:04.234Z</time></trkpt><trkpt lat="40.5393481" lon="9.7613715"><ele>49.0</ele><time>2026-04-11T13:20:06.246Z</time></trkpt><trkpt lat="40.5392474" lon="9.7614707"><ele>48.57142857142857</ele><time>2026-04-11T13:20:08.227Z</time></trkpt><trkpt lat="40.5391936" lon="9.7615194"><ele>48.14285714285714</ele><time>2026-04-11T13:20:09.226Z</time></trkpt><trkpt lat="40.5391401" lon="9.7615747"><ele>47.714285714285715</ele><time>2026-04-11T13:20:10.238Z</time></trkpt><trkpt lat="40.5390844" lon="9.7616353"><ele>47.285714285714285</ele><time>2026-04-11T13:20:11.227Z</time></trkpt><trkpt lat="40.539031" lon="9.7616998"><ele>46.857142857142854</ele><time>2026-04-11T13:20:12.237Z</time></trkpt><trkpt lat="40.5389806" lon="9.7617697"><ele>46.42857142857143</ele><time>2026-04-11T13:20:13.24Z</time></trkpt><trkpt lat="40.5389326" lon="9.7618433"><ele>46.0</ele><time>2026-04-11T13:20:14.239Z</time></trkpt><trkpt lat="40.538886" lon="9.7619211"><ele>45.5</ele><time>2026-04-11T13:20:15.241Z</time></trkpt><trkpt lat="40.5388371" lon="9.7620022"><ele>45.0</ele><time>2026-04-11T13:20:16.241Z</time></trkpt><trkpt lat="40.538789" lon="9.7620869"><ele>44.5</ele><time>2026-04-11T13:20:17.226Z</time></trkpt><trkpt lat="40.5387429" lon="9.7621698"><ele>44.0</ele><time>2026-04-11T13:20:18.25Z</time></trkpt><trkpt lat="40.5386989" lon="9.7622483"><ele>43.5</ele><time>2026-04-11T13:20:19.221Z</time></trkpt><trkpt lat="40.5386578" lon="9.7623244"><ele>43.0</ele><time>2026-04-11T13:20:20.222Z</time></trkpt><trkpt lat="40.5386196" lon="9.7624047"><ele>43.00000000000001</ele><time>2026-04-11T13:20:21.232Z</time></trkpt><trkpt lat="40.5385877" lon="9.7624852"><ele>43.0</ele><time>2026-04-11T13:20:22.225Z</time></trkpt><trkpt lat="40.5385625" lon="9.7625688"><ele>43.0</ele><time>2026-04-11T13:20:23.224Z</time></trkpt><trkpt lat="40.5385365" lon="9.7626513"><ele>43.0</ele><time>2026-04-11T13:20:24.238Z</time></trkpt><trkpt lat="40.5385082" lon="9.7627316"><ele>43.0</ele><time>2026-04-11T13:20:25.224Z</time></trkpt><trkpt lat="40.5384707" lon="9.7628128"><ele>43.00000000000001</ele><time>2026-04-11T13:20:26.227Z</time></trkpt><trkpt lat="40.5384244" lon="9.7628871"><ele>43.0</ele><time>2026-04-11T13:20:27.228Z</time></trkpt><trkpt lat="40.5383737" lon="9.7629583"><ele>42.42857142857143</ele><time>2026-04-11T13:20:28.233Z</time></trkpt><trkpt lat="40.5383223" lon="9.763026"><ele>41.85714285714286</ele><time>2026-04-11T13:20:29.232Z</time></trkpt><trkpt lat="40.5382692" lon="9.7630934"><ele>41.28571428571429</ele><time>2026-04-11T13:20:30.234Z</time></trkpt><trkpt lat="40.5382168" lon="9.7631627"><ele>40.714285714285715</ele><time>2026-04-11T13:20:31.234Z</time></trkpt><trkpt lat="40.5381705" lon="9.7632367"><ele>40.14285714285714</ele><time>2026-04-11T13:20:32.246Z</time></trkpt><trkpt lat="40.5381357" lon="9.7633141"><ele>39.57142857142858</ele><time>2026-04-11T13:20:33.227Z</time></trkpt><trkpt lat="40.538106" lon="9.7633925"><ele>39.0</ele><time>2026-04-11T13:20:34.221Z</time></trkpt><trkpt lat="40.5380781" lon="9.7634727"><ele>38.42857142857143</ele><time>2026-04-11T13:20:35.219Z</time></trkpt><trkpt lat="40.5380494" lon="9.7635543"><ele>37.857142857142854</ele><time>2026-04-11T13:20:36.231Z</time></trkpt><trkpt lat="40.5380175" lon="9.763638"><ele>37.285714285714285</ele><time>2026-04-11T13:20:37.232Z</time></trkpt><trkpt lat="40.5379798" lon="9.763725"><ele>36.714285714285715</ele><time>2026-04-11T13:20:38.22Z</time></trkpt><trkpt lat="40.5379404" lon="9.7638103"><ele>36.14285714285714</ele><time>2026-04-11T13:20:39.228Z</time></trkpt><trkpt lat="40.5379001" lon="9.7638924"><ele>35.57142857142857</ele><time>2026-04-11T13:20:40.221Z</time></trkpt><trkpt lat="40.5378583" lon="9.7639752"><ele>35.0</ele><time>2026-04-11T13:20:41.217Z</time></trkpt><trkpt lat="40.5378185" lon="9.7640587"><ele>35.0</ele><time>2026-04-11T13:20:42.221Z</time></trkpt><trkpt lat="40.5377777" lon="9.7641451"><ele>35.0</ele><time>2026-04-11T13:20:43.218Z</time></trkpt><trkpt lat="40.5377367" lon="9.7642296"><ele>35.0</ele><time>2026-04-11T13:20:44.214Z</time></trkpt><trkpt lat="40.5376941" lon="9.7643125"><ele>35.0</ele><time>2026-04-11T13:20:45.331Z</time></trkpt><trkpt lat="40.5376538" lon="9.7643927"><ele>35.0</ele><time>2026-04-11T13:20:46.314Z</time></trkpt><trkpt lat="40.5376165" lon="9.7644788"><ele>35.0</ele><time>2026-04-11T13:20:47.322Z</time></trkpt><trkpt lat="40.5375795" lon="9.7645639"><ele>34.57142857142857</ele><time>2026-04-11T13:20:48.226Z</time></trkpt><trkpt lat="40.5375408" lon="9.7646492"><ele>34.14285714285714</ele><time>2026-04-11T13:20:49.231Z</time></trkpt><trkpt lat="40.5375049" lon="9.7647303"><ele>33.714285714285715</ele><time>2026-04-11T13:20:50.22Z</time></trkpt><trkpt lat="40.537468" lon="9.7648109"><ele>33.285714285714285</ele><time>2026-04-11T13:20:51.322Z</time></trkpt><trkpt lat="40.5374349" lon="9.7648899"><ele>32.857142857142854</ele><time>2026-04-11T13:20:52.338Z</time></trkpt><trkpt lat="40.5373991" lon="9.7649806"><ele>32.42857142857143</ele><time>2026-04-11T13:20:53.311Z</time></trkpt><trkpt lat="40.5373624" lon="9.7650759"><ele>32.0</ele><time>2026-04-11T13:20:54.337Z</time></trkpt><trkpt lat="40.5372924" lon="9.7652514"><ele>31.166666666666664</ele><time>2026-04-11T13:20:56.319Z</time></trkpt><trkpt lat="40.5372518" lon="9.7653318"><ele>30.333333333333332</ele><time>2026-04-11T13:20:57.342Z</time></trkpt><trkpt lat="40.5372083" lon="9.765403"><ele>29.5</ele><time>2026-04-11T13:20:58.321Z</time></trkpt><trkpt lat="40.5371458" lon="9.7655161"><ele>28.666666666666664</ele><time>2026-04-11T13:21:00.34Z</time></trkpt><trkpt lat="40.537132" lon="9.7656162"><ele>27.833333333333332</ele><time>2026-04-11T13:21:03.321Z</time></trkpt><trkpt lat="40.5372035" lon="9.765652"><ele>27.0</ele><time>2026-04-11T13:21:43.294Z</time></trkpt><trkpt lat="40.5372685" lon="9.7657114"><ele>27.0</ele><time>2026-04-11T14:40:35.184Z</time></trkpt><trkpt lat="40.5373572" lon="9.7657841"><ele>27.0</ele><time>2026-04-11T14:40:37.267Z</time></trkpt><trkpt lat="40.5374167" lon="9.7658315"><ele>27.0</ele><time>2026-04-11T14:40:38.275Z</time></trkpt><trkpt lat="40.5374793" lon="9.7658791"><ele>27.0</ele><time>2026-04-11T14:40:39.263Z</time></trkpt><trkpt lat="40.5375482" lon="9.7659239"><ele>27.0</ele><time>2026-04-11T14:40:40.283Z</time></trkpt><trkpt lat="40.5376263" lon="9.7659694"><ele>27.0</ele><time>2026-04-11T14:40:41.266Z</time></trkpt><trkpt lat="40.5377151" lon="9.7660159"><ele>26.6</ele><time>2026-04-11T14:40:42.17Z</time></trkpt><trkpt lat="40.5378125" lon="9.7660679"><ele>26.200000000000003</ele><time>2026-04-11T14:40:43.161Z</time></trkpt><trkpt lat="40.5379034" lon="9.7661176"><ele>25.8</ele><time>2026-04-11T14:40:44.259Z</time></trkpt><trkpt lat="40.5379836" lon="9.7661609"><ele>25.4</ele><time>2026-04-11T14:40:45.264Z</time></trkpt><trkpt lat="40.5380694" lon="9.7662041"><ele>25.0</ele><time>2026-04-11T14:40:46.26Z</time></trkpt><trkpt lat="40.5381613" lon="9.7662489"><ele>24.8</ele><time>2026-04-11T14:40:47.26Z</time></trkpt><trkpt lat="40.5382606" lon="9.7662952"><ele>24.6</ele><time>2026-04-11T14:40:48.26Z</time></trkpt><trkpt lat="40.5383653" lon="9.7663455"><ele>24.4</ele><time>2026-04-11T14:40:49.259Z</time></trkpt><trkpt lat="40.5384725" lon="9.7663979"><ele>24.2</ele><time>2026-04-11T14:40:50.28Z</time></trkpt><trkpt lat="40.5385811" lon="9.7664548"><ele>24.0</ele><time>2026-04-11T14:40:51.269Z</time></trkpt><trkpt lat="40.5386944" lon="9.7665155"><ele>24.0</ele><time>2026-04-11T14:40:52.268Z</time></trkpt><trkpt lat="40.5388162" lon="9.7665768"><ele>24.0</ele><time>2026-04-11T14:40:53.261Z</time></trkpt><trkpt lat="40.5389287" lon="9.7666287"><ele>24.0</ele><time>2026-04-11T14:40:54.277Z</time></trkpt><trkpt lat="40.5390285" lon="9.7666808"><ele>24.0</ele><time>2026-04-11T14:40:55.273Z</time></trkpt><trkpt lat="40.539123" lon="9.766732"><ele>24.0</ele><time>2026-04-11T14:40:56.263Z</time></trkpt><trkpt lat="40.5392206" lon="9.7667767"><ele>24.0</ele><time>2026-04-11T14:40:57.266Z</time></trkpt><trkpt lat="40.5393063" lon="9.7668187"><ele>24.0</ele><time>2026-04-11T14:40:58.273Z</time></trkpt><trkpt lat="40.5393741" lon="9.7668717"><ele>24.0</ele><time>2026-04-11T14:40:59.267Z</time></trkpt><trkpt lat="40.5394239" lon="9.7669453"><ele>24.0</ele><time>2026-04-11T14:41:00.291Z</time></trkpt><trkpt lat="40.5394666" lon="9.7670359"><ele>24.0</ele><time>2026-04-11T14:41:01.27Z</time></trkpt><trkpt lat="40.5395152" lon="9.7671428"><ele>23.4</ele><time>2026-04-11T14:41:02.265Z</time></trkpt><trkpt lat="40.5395685" lon="9.7672464"><ele>22.799999999999997</ele><time>2026-04-11T14:41:03.256Z</time></trkpt><trkpt lat="40.5396276" lon="9.7673398"><ele>22.200000000000003</ele><time>2026-04-11T14:41:04.262Z</time></trkpt><trkpt lat="40.5396935" lon="9.7674234"><ele>21.6</ele><time>2026-04-11T14:41:05.266Z</time></trkpt><trkpt lat="40.539765" lon="9.7675022"><ele>21.0</ele><time>2026-04-11T14:41:06.274Z</time></trkpt><trkpt lat="40.5398241" lon="9.767581"><ele>21.0</ele><time>2026-04-11T14:41:07.254Z</time></trkpt><trkpt lat="40.5398869" lon="9.7676703"><ele>21.0</ele><time>2026-04-11T14:41:08.258Z</time></trkpt><trkpt lat="40.5399425" lon="9.7677714"><ele>21.0</ele><time>2026-04-11T14:41:09.268Z</time></trkpt><trkpt lat="40.5399976" lon="9.7678867"><ele>21.0</ele><time>2026-04-11T14:41:10.264Z</time></trkpt><trkpt lat="40.5400586" lon="9.7680175"><ele>21.0</ele><time>2026-04-11T14:41:11.278Z</time></trkpt><trkpt lat="40.5401224" lon="9.7681613"><ele>20.75</ele><time>2026-04-11T14:41:12.269Z</time></trkpt><trkpt lat="40.5401845" lon="9.7683075"><ele>20.5</ele><time>2026-04-11T14:41:13.259Z</time></trkpt><trkpt lat="40.5402369" lon="9.7684435"><ele>20.25</ele><time>2026-04-11T14:41:14.257Z</time></trkpt><trkpt lat="40.5402855" lon="9.7685715"><ele>20.0</ele><time>2026-04-11T14:41:15.269Z</time></trkpt><trkpt lat="40.5403382" lon="9.7686979"><ele>20.0</ele><time>2026-04-11T14:41:16.256Z</time></trkpt><trkpt lat="40.5403881" lon="9.7688142"><ele>20.0</ele><time>2026-04-11T14:41:17.269Z</time></trkpt><trkpt lat="40.5404397" lon="9.7689292"><ele>20.0</ele><time>2026-04-11T14:41:18.281Z</time></trkpt><trkpt lat="40.5404888" lon="9.7690392"><ele>20.0</ele><time>2026-04-11T14:41:19.264Z</time></trkpt><trkpt lat="40.5405392" lon="9.7691516"><ele>20.0</ele><time>2026-04-11T14:41:20.271Z</time></trkpt><trkpt lat="40.5405905" lon="9.7692685"><ele>19.75</ele><time>2026-04-11T14:41:21.258Z</time></trkpt><trkpt lat="40.5406516" lon="9.7693923"><ele>19.5</ele><time>2026-04-11T14:41:22.258Z</time></trkpt><trkpt lat="40.540714" lon="9.7695329"><ele>19.25</ele><time>2026-04-11T14:41:23.27Z</time></trkpt><trkpt lat="40.5407693" lon="9.7696691"><ele>19.0</ele><time>2026-04-11T14:41:24.254Z</time></trkpt><trkpt lat="40.5408202" lon="9.769798"><ele>19.0</ele><time>2026-04-11T14:41:25.276Z</time></trkpt><trkpt lat="40.5408567" lon="9.7699279"><ele>19.0</ele><time>2026-04-11T14:41:26.254Z</time></trkpt><trkpt lat="40.5408839" lon="9.7700566"><ele>19.0</ele><time>2026-04-11T14:41:27.255Z</time></trkpt><trkpt lat="40.5409076" lon="9.7701841"><ele>19.0</ele><time>2026-04-11T14:41:28.248Z</time></trkpt><trkpt lat="40.5409292" lon="9.7702973"><ele>19.0</ele><time>2026-04-11T14:41:29.261Z</time></trkpt><trkpt lat="40.5409645" lon="9.7703913"><ele>19.0</ele><time>2026-04-11T14:41:30.253Z</time></trkpt><trkpt lat="40.5410126" lon="9.7704732"><ele>19.0</ele><time>2026-04-11T14:41:31.251Z</time></trkpt><trkpt lat="40.5410753" lon="9.7705498"><ele>19.0</ele><time>2026-04-11T14:41:32.259Z</time></trkpt><trkpt lat="40.5411535" lon="9.7706277"><ele>19.0</ele><time>2026-04-11T14:41:33.26Z</time></trkpt><trkpt lat="40.5412368" lon="9.7706952"><ele>19.0</ele><time>2026-04-11T14:41:34.246Z</time></trkpt><trkpt lat="40.5413275" lon="9.770757"><ele>19.0</ele><time>2026-04-11T14:41:35.263Z</time></trkpt><trkpt lat="40.5414269" lon="9.7708275"><ele>19.0</ele><time>2026-04-11T14:41:36.257Z</time></trkpt><trkpt lat="40.5415266" lon="9.7709015"><ele>19.0</ele><time>2026-04-11T14:41:37.254Z</time></trkpt><trkpt lat="40.541629" lon="9.7709813"><ele>19.0</ele><time>2026-04-11T14:41:38.251Z</time></trkpt><trkpt lat="40.5417199" lon="9.7710569"><ele>18.599999999999998</ele><time>2026-04-11T14:41:39.26Z</time></trkpt><trkpt lat="40.5417944" lon="9.7711329"><ele>18.2</ele><time>2026-04-11T14:41:40.248Z</time></trkpt><trkpt lat="40.5418607" lon="9.771218"><ele>17.799999999999997</ele><time>2026-04-11T14:41:41.246Z</time></trkpt><trkpt lat="40.5419206" lon="9.7713153"><ele>17.4</ele><time>2026-04-11T14:41:42.259Z</time></trkpt><trkpt lat="40.54198" lon="9.7714335"><ele>17.0</ele><time>2026-04-11T14:41:43.259Z</time></trkpt><trkpt lat="40.542043" lon="9.7715707"><ele>17.0</ele><time>2026-04-11T14:41:44.248Z</time></trkpt><trkpt lat="40.5421075" lon="9.7717064"><ele>17.0</ele><time>2026-04-11T14:41:45.25Z</time></trkpt><trkpt lat="40.5421634" lon="9.7718225"><ele>17.0</ele><time>2026-04-11T14:41:46.258Z</time></trkpt><trkpt lat="40.5422005" lon="9.7719305"><ele>17.0</ele><time>2026-04-11T14:41:47.262Z</time></trkpt><trkpt lat="40.5422261" lon="9.7720455"><ele>17.0</ele><time>2026-04-11T14:41:48.255Z</time></trkpt><trkpt lat="40.5422516" lon="9.7721776"><ele>17.0</ele><time>2026-04-11T14:41:49.261Z</time></trkpt><trkpt lat="40.5422724" lon="9.7723303"><ele>17.0</ele><time>2026-04-11T14:41:50.242Z</time></trkpt><trkpt lat="40.5422933" lon="9.7724791"><ele>17.0</ele><time>2026-04-11T14:41:51.247Z</time></trkpt><trkpt lat="40.5423169" lon="9.7726191"><ele>17.0</ele><time>2026-04-11T14:41:52.25Z</time></trkpt><trkpt lat="40.5423388" lon="9.7727547"><ele>17.0</ele><time>2026-04-11T14:41:53.259Z</time></trkpt><trkpt lat="40.5423641" lon="9.7728807"><ele>16.666666666666668</ele><time>2026-04-11T14:41:54.242Z</time></trkpt><trkpt lat="40.542393" lon="9.7729977"><ele>16.333333333333336</ele><time>2026-04-11T14:41:55.25Z</time></trkpt><trkpt lat="40.5424259" lon="9.7731001"><ele>16.0</ele><time>2026-04-11T14:41:56.25Z</time></trkpt><trkpt lat="40.542462" lon="9.7732001"><ele>15.666666666666668</ele><time>2026-04-11T14:41:57.243Z</time></trkpt><trkpt lat="40.5425048" lon="9.7732973"><ele>15.333333333333334</ele><time>2026-04-11T14:41:58.239Z</time></trkpt><trkpt lat="40.5425531" lon="9.7733799"><ele>15.0</ele><time>2026-04-11T14:41:59.275Z</time></trkpt><trkpt lat="40.5426013" lon="9.7734571"><ele>14.833333333333334</ele><time>2026-04-11T14:42:00.242Z</time></trkpt><trkpt lat="40.5426488" lon="9.7735289"><ele>14.666666666666668</ele><time>2026-04-11T14:42:01.249Z</time></trkpt><trkpt lat="40.542708" lon="9.7735926"><ele>14.5</ele><time>2026-04-11T14:42:02.238Z</time></trkpt><trkpt lat="40.5427755" lon="9.7736447"><ele>14.333333333333334</ele><time>2026-04-11T14:42:03.242Z</time></trkpt><trkpt lat="40.5428473" lon="9.773684"><ele>14.166666666666668</ele><time>2026-04-11T14:42:04.263Z</time></trkpt><trkpt lat="40.542919" lon="9.7737225"><ele>14.0</ele><time>2026-04-11T14:42:05.249Z</time></trkpt><trkpt lat="40.542989" lon="9.7737757"><ele>14.500000000000002</ele><time>2026-04-11T14:42:06.239Z</time></trkpt><trkpt lat="40.5430568" lon="9.7738357"><ele>15.0</ele><time>2026-04-11T14:42:07.263Z</time></trkpt><trkpt lat="40.5431293" lon="9.7738884"><ele>15.5</ele><time>2026-04-11T14:42:08.239Z</time></trkpt><trkpt lat="40.5432068" lon="9.7739377"><ele>16.0</ele><time>2026-04-11T14:42:09.239Z</time></trkpt><trkpt lat="40.5432839" lon="9.7739804"><ele>16.5</ele><time>2026-04-11T14:42:10.241Z</time></trkpt><trkpt lat="40.5433632" lon="9.7740144"><ele>17.0</ele><time>2026-04-11T14:42:11.239Z</time></trkpt><trkpt lat="40.5434459" lon="9.7740497"><ele>17.0</ele><time>2026-04-11T14:42:12.234Z</time></trkpt><trkpt lat="40.5435327" lon="9.7740785"><ele>17.0</ele><time>2026-04-11T14:42:13.25Z</time></trkpt><trkpt lat="40.5436186" lon="9.7741031"><ele>17.0</ele><time>2026-04-11T14:42:14.234Z</time></trkpt><trkpt lat="40.5437073" lon="9.7741252"><ele>17.0</ele><time>2026-04-11T14:42:15.242Z</time></trkpt><trkpt lat="40.5437913" lon="9.7741467"><ele>17.0</ele><time>2026-04-11T14:42:16.248Z</time></trkpt><trkpt lat="40.5438595" lon="9.7741686"><ele>17.0</ele><time>2026-04-11T14:42:17.237Z</time></trkpt><trkpt lat="40.5439281" lon="9.774183"><ele>17.666666666666668</ele><time>2026-04-11T14:42:18.247Z</time></trkpt><trkpt lat="40.5440017" lon="9.7742074"><ele>18.333333333333336</ele><time>2026-04-11T14:42:19.255Z</time></trkpt><trkpt lat="40.5440788" lon="9.7742416"><ele>19.0</ele><time>2026-04-11T14:42:20.244Z</time></trkpt><trkpt lat="40.5441574" lon="9.7742877"><ele>19.666666666666668</ele><time>2026-04-11T14:42:21.23Z</time></trkpt><trkpt lat="40.5442365" lon="9.7743419"><ele>20.333333333333332</ele><time>2026-04-11T14:42:22.25Z</time></trkpt><trkpt lat="40.544298" lon="9.7743825"><ele>21.0</ele><time>2026-04-11T14:42:23.269Z</time></trkpt><trkpt lat="40.5443527" lon="9.7744243"><ele>21.0</ele><time>2026-04-11T14:42:24.242Z</time></trkpt><trkpt lat="40.544433" lon="9.7744882"><ele>21.0</ele><time>2026-04-11T14:42:26.25Z</time></trkpt><trkpt lat="40.5444637" lon="9.7745638"><ele>21.0</ele><time>2026-04-11T14:42:28.27Z</time></trkpt><trkpt lat="40.5445051" lon="9.7746871"><ele>21.0</ele><time>2026-04-11T14:42:30.274Z</time></trkpt><trkpt lat="40.5445874" lon="9.7747956"><ele>21.0</ele><time>2026-04-11T14:42:32.235Z</time></trkpt><trkpt lat="40.544682" lon="9.7748968"><ele>20.714285714285715</ele><time>2026-04-11T14:42:34.221Z</time></trkpt><trkpt lat="40.5447318" lon="9.7749564"><ele>20.42857142857143</ele><time>2026-04-11T14:42:35.245Z</time></trkpt><trkpt lat="40.5447846" lon="9.775028"><ele>20.142857142857142</ele><time>2026-04-11T14:42:36.226Z</time></trkpt><trkpt lat="40.5448391" lon="9.775105"><ele>19.857142857142858</ele><time>2026-04-11T14:42:37.231Z</time></trkpt><trkpt lat="40.5448951" lon="9.7751823"><ele>19.571428571428573</ele><time>2026-04-11T14:42:38.226Z</time></trkpt><trkpt lat="40.5449433" lon="9.7752591"><ele>19.285714285714285</ele><time>2026-04-11T14:42:39.234Z</time></trkpt><trkpt lat="40.5449857" lon="9.7753258"><ele>19.0</ele><time>2026-04-11T14:42:40.221Z</time></trkpt><trkpt lat="40.5450495" lon="9.7754315"><ele>18.5</ele><time>2026-04-11T14:42:42.235Z</time></trkpt><trkpt lat="40.5450957" lon="9.7755246"><ele>18.0</ele><time>2026-04-11T14:42:44.223Z</time></trkpt><trkpt lat="40.5451328" lon="9.7756017"><ele>17.5</ele><time>2026-04-11T14:42:46.226Z</time></trkpt><trkpt lat="40.545183" lon="9.7756869"><ele>17.0</ele><time>2026-04-11T14:42:48.224Z</time></trkpt><trkpt lat="40.5452348" lon="9.7758194"><ele>16.5</ele><time>2026-04-11T14:42:50.239Z</time></trkpt><trkpt lat="40.5452673" lon="9.7759219"><ele>16.0</ele><time>2026-04-11T14:42:51.227Z</time></trkpt><trkpt lat="40.5453096" lon="9.7760308"><ele>15.999999999999998</ele><time>2026-04-11T14:42:52.217Z</time></trkpt><trkpt lat="40.5453612" lon="9.7761355"><ele>16.0</ele><time>2026-04-11T14:42:53.223Z</time></trkpt><trkpt lat="40.5454119" lon="9.776219"><ele>16.0</ele><time>2026-04-11T14:42:54.215Z</time></trkpt><trkpt lat="40.545465" lon="9.7762859"><ele>16.0</ele><time>2026-04-11T14:42:55.255Z</time></trkpt><trkpt lat="40.5455256" lon="9.7763447"><ele>15.999999999999998</ele><time>2026-04-11T14:42:56.226Z</time></trkpt><trkpt lat="40.5455902" lon="9.7764058"><ele>16.0</ele><time>2026-04-11T14:42:57.223Z</time></trkpt><trkpt lat="40.545669" lon="9.7764715"><ele>16.2</ele><time>2026-04-11T14:42:58.219Z</time></trkpt><trkpt lat="40.5457528" lon="9.7765342"><ele>16.400000000000002</ele><time>2026-04-11T14:42:59.215Z</time></trkpt><trkpt lat="40.5458361" lon="9.7765851"><ele>16.6</ele><time>2026-04-11T14:43:00.219Z</time></trkpt><trkpt lat="40.5459028" lon="9.7766239"><ele>16.8</ele><time>2026-04-11T14:43:01.227Z</time></trkpt><trkpt lat="40.5460172" lon="9.7766917"><ele>17.0</ele><time>2026-04-11T14:43:03.257Z</time></trkpt><trkpt lat="40.5460758" lon="9.7767275"><ele>17.0</ele><time>2026-04-11T14:43:04.23Z</time></trkpt><trkpt lat="40.5461356" lon="9.7767791"><ele>17.0</ele><time>2026-04-11T14:43:05.215Z</time></trkpt><trkpt lat="40.5461921" lon="9.7768431"><ele>17.0</ele><time>2026-04-11T14:43:06.209Z</time></trkpt><trkpt lat="40.546253" lon="9.7769093"><ele>17.0</ele><time>2026-04-11T14:43:07.217Z</time></trkpt><trkpt lat="40.5463202" lon="9.7769755"><ele>17.0</ele><time>2026-04-11T14:43:08.208Z</time></trkpt><trkpt lat="40.5463892" lon="9.7770493"><ele>17.0</ele><time>2026-04-11T14:43:09.214Z</time></trkpt><trkpt lat="40.5464624" lon="9.7771161"><ele>17.333333333333336</ele><time>2026-04-11T14:43:10.213Z</time></trkpt><trkpt lat="40.5465425" lon="9.7771727"><ele>17.666666666666668</ele><time>2026-04-11T14:43:11.215Z</time></trkpt><trkpt lat="40.5466148" lon="9.7772086"><ele>18.0</ele><time>2026-04-11T14:43:12.211Z</time></trkpt><trkpt lat="40.5466828" lon="9.7772286"><ele>18.333333333333332</ele><time>2026-04-11T14:43:13.212Z</time></trkpt><trkpt lat="40.5467578" lon="9.7772487"><ele>18.666666666666664</ele><time>2026-04-11T14:43:14.207Z</time></trkpt><trkpt lat="40.5468305" lon="9.7772689"><ele>19.0</ele><time>2026-04-11T14:43:15.214Z</time></trkpt><trkpt lat="40.5469007" lon="9.777291"><ele>19.0</ele><time>2026-04-11T14:43:16.205Z</time></trkpt><trkpt lat="40.5469757" lon="9.7773194"><ele>19.0</ele><time>2026-04-11T14:43:17.234Z</time></trkpt><trkpt lat="40.5470488" lon="9.7773556"><ele>19.0</ele><time>2026-04-11T14:43:18.229Z</time></trkpt><trkpt lat="40.547127" lon="9.7773975"><ele>19.0</ele><time>2026-04-11T14:43:19.217Z</time></trkpt><trkpt lat="40.5471984" lon="9.777432"><ele>19.0</ele><time>2026-04-11T14:43:20.202Z</time></trkpt><trkpt lat="40.5472605" lon="9.7774612"><ele>19.0</ele><time>2026-04-11T14:43:21.206Z</time></trkpt><trkpt lat="40.5473216" lon="9.7774832"><ele>19.0</ele><time>2026-04-11T14:43:22.205Z</time></trkpt><trkpt lat="40.547389" lon="9.7775083"><ele>19.0</ele><time>2026-04-11T14:43:23.261Z</time></trkpt><trkpt lat="40.5474656" lon="9.7775427"><ele>19.0</ele><time>2026-04-11T14:43:24.225Z</time></trkpt><trkpt lat="40.5475449" lon="9.7775938"><ele>19.0</ele><time>2026-04-11T14:43:25.213Z</time></trkpt><trkpt lat="40.5476153" lon="9.777647"><ele>19.0</ele><time>2026-04-11T14:43:26.229Z</time></trkpt><trkpt lat="40.5476754" lon="9.7777088"><ele>19.0</ele><time>2026-04-11T14:43:27.198Z</time></trkpt><trkpt lat="40.547735" lon="9.7777701"><ele>19.0</ele><time>2026-04-11T14:43:28.207Z</time></trkpt><trkpt lat="40.5477947" lon="9.7778266"><ele>19.0</ele><time>2026-04-11T14:43:29.206Z</time></trkpt><trkpt lat="40.5478497" lon="9.7778868"><ele>19.0</ele><time>2026-04-11T14:43:30.204Z</time></trkpt><trkpt lat="40.5479029" lon="9.777948"><ele>19.0</ele><time>2026-04-11T14:43:31.213Z</time></trkpt><trkpt lat="40.5479588" lon="9.7780095"><ele>19.0</ele><time>2026-04-11T14:43:32.208Z</time></trkpt><trkpt lat="40.5480134" lon="9.7780641"><ele>19.0</ele><time>2026-04-11T14:43:33.22Z</time></trkpt><trkpt lat="40.5481244" lon="9.7781533"><ele>19.0</ele><time>2026-04-11T14:43:35.204Z</time></trkpt><trkpt lat="40.5481873" lon="9.7781966"><ele>19.0</ele><time>2026-04-11T14:43:36.209Z</time></trkpt><trkpt lat="40.548249" lon="9.778244"><ele>19.0</ele><time>2026-04-11T14:43:37.218Z</time></trkpt><trkpt lat="40.5483029" lon="9.7782983"><ele>19.0</ele><time>2026-04-11T14:43:38.207Z</time></trkpt><trkpt lat="40.5483545" lon="9.7783633"><ele>19.0</ele><time>2026-04-11T14:43:39.202Z</time></trkpt><trkpt lat="40.5484048" lon="9.778431"><ele>19.0</ele><time>2026-04-11T14:43:40.204Z</time></trkpt><trkpt lat="40.5484538" lon="9.778498"><ele>19.0</ele><time>2026-04-11T14:43:41.199Z</time></trkpt><trkpt lat="40.5485019" lon="9.7785636"><ele>19.0</ele><time>2026-04-11T14:43:42.226Z</time></trkpt><trkpt lat="40.5485492" lon="9.7786281"><ele>19.0</ele><time>2026-04-11T14:43:43.205Z</time></trkpt><trkpt lat="40.5486279" lon="9.7787354"><ele>19.0</ele><time>2026-04-11T14:43:45.2Z</time></trkpt><trkpt lat="40.5486921" lon="9.7788263"><ele>19.0</ele><time>2026-04-11T14:43:47.211Z</time></trkpt><trkpt lat="40.5487571" lon="9.7789104"><ele>19.0</ele><time>2026-04-11T14:43:49.23Z</time></trkpt><trkpt lat="40.5488204" lon="9.778998"><ele>19.0</ele><time>2026-04-11T14:43:51.221Z</time></trkpt><trkpt lat="40.5488899" lon="9.7791176"><ele>18.833333333333332</ele><time>2026-04-11T14:43:53.219Z</time></trkpt><trkpt lat="40.5489189" lon="9.7791987"><ele>18.666666666666664</ele><time>2026-04-11T14:43:54.201Z</time></trkpt><trkpt lat="40.5489487" lon="9.7793518"><ele>18.5</ele><time>2026-04-11T14:43:56.192Z</time></trkpt><trkpt lat="40.5489879" lon="9.779508"><ele>18.333333333333332</ele><time>2026-04-11T14:43:58.216Z</time></trkpt><trkpt lat="40.5490078" lon="9.7795942"><ele>18.166666666666668</ele><time>2026-04-11T14:43:59.192Z</time></trkpt><trkpt lat="40.5490225" lon="9.7796788"><ele>18.0</ele><time>2026-04-11T14:44:00.224Z</time></trkpt><trkpt lat="40.5490382" lon="9.779833"><ele>18.0</ele><time>2026-04-11T14:44:02.206Z</time></trkpt><trkpt lat="40.5490388" lon="9.7799191"><ele>18.0</ele><time>2026-04-11T14:44:03.191Z</time></trkpt><trkpt lat="40.5490382" lon="9.7800128"><ele>18.0</ele><time>2026-04-11T14:44:04.203Z</time></trkpt><trkpt lat="40.5490432" lon="9.7801062"><ele>18.0</ele><time>2026-04-11T14:44:05.184Z</time></trkpt><trkpt lat="40.5490504" lon="9.7802598"><ele>18.0</ele><time>2026-04-11T14:44:07.21Z</time></trkpt><trkpt lat="40.5490574" lon="9.780359"><ele>18.0</ele><time>2026-04-11T14:44:09.192Z</time></trkpt><trkpt lat="40.5490692" lon="9.7804437"><ele>17.4</ele><time>2026-04-11T14:44:12.217Z</time></trkpt><trkpt lat="40.5490732" lon="9.7805862"><ele>16.8</ele><time>2026-04-11T14:44:26.186Z</time></trkpt><trkpt lat="40.5490901" lon="9.7807264"><ele>16.2</ele><time>2026-04-11T14:44:28.189Z</time></trkpt><trkpt lat="40.5491029" lon="9.7808691"><ele>15.6</ele><time>2026-04-11T14:44:30.18Z</time></trkpt><trkpt lat="40.5491178" lon="9.7810245"><ele>15.0</ele><time>2026-04-11T14:44:32.177Z</time></trkpt><trkpt lat="40.5491304" lon="9.7811569"><ele>14.666666666666666</ele><time>2026-04-11T14:44:34.176Z</time></trkpt><trkpt lat="40.5491565" lon="9.7812518"><ele>14.333333333333332</ele><time>2026-04-11T14:44:36.185Z</time></trkpt><trkpt lat="40.5492197" lon="9.7813064"><ele>14.0</ele><time>2026-04-11T14:44:38.173Z</time></trkpt><trkpt lat="40.5492971" lon="9.7812944"><ele>13.666666666666666</ele><time>2026-04-11T14:44:40.182Z</time></trkpt><trkpt lat="40.5493708" lon="9.7812334"><ele>13.333333333333332</ele><time>2026-04-11T14:44:42.184Z</time></trkpt><trkpt lat="40.5494644" lon="9.7811629"><ele>13.0</ele><time>2026-04-11T14:44:44.265Z</time></trkpt><trkpt lat="40.5495494" lon="9.7810999"><ele>13.666666666666666</ele><time>2026-04-11T14:44:46.269Z</time></trkpt><trkpt lat="40.5496275" lon="9.781034"><ele>14.333333333333332</ele><time>2026-04-11T14:44:49.265Z</time></trkpt><trkpt lat="40.549685" lon="9.7809924"><ele>15.0</ele><time>2026-04-11T14:44:51.268Z</time></trkpt><trkpt lat="40.5497521" lon="9.7809354"><ele>15.666666666666668</ele><time>2026-04-11T14:44:55.284Z</time></trkpt><trkpt lat="40.5498293" lon="9.7808746"><ele>16.333333333333336</ele><time>2026-04-11T14:46:13.215Z</time></trkpt><trkpt lat="40.5499003" lon="9.7808317"><ele>17.0</ele><time>2026-04-11T14:46:16.211Z</time></trkpt><trkpt lat="40.5499716" lon="9.7808732"><ele>17.0</ele><time>2026-04-11T14:46:19.217Z</time></trkpt><trkpt lat="40.5500146" lon="9.7809558"><ele>17.0</ele><time>2026-04-11T14:46:21.22Z</time></trkpt><trkpt lat="40.5500642" lon="9.7810376"><ele>17.0</ele><time>2026-04-11T14:46:23.221Z</time></trkpt><trkpt lat="40.5501256" lon="9.7811309"><ele>17.0</ele><time>2026-04-11T14:46:25.222Z</time></trkpt><trkpt lat="40.5501733" lon="9.7812074"><ele>17.0</ele><time>2026-04-11T14:46:27.196Z</time></trkpt><trkpt lat="40.5502312" lon="9.7813023"><ele>17.0</ele><time>2026-04-11T14:46:29.197Z</time></trkpt><trkpt lat="40.5503062" lon="9.7813985"><ele>18.0</ele><time>2026-04-11T14:46:31.205Z</time></trkpt><trkpt lat="40.5503856" lon="9.7815017"><ele>19.0</ele><time>2026-04-11T14:46:33.212Z</time></trkpt><trkpt lat="40.5504636" lon="9.7816045"><ele>20.0</ele><time>2026-04-11T14:46:35.204Z</time></trkpt><trkpt lat="40.5505084" lon="9.7816639"><ele>21.0</ele><time>2026-04-11T14:46:36.223Z</time></trkpt><trkpt lat="40.5505584" lon="9.7817181"><ele>22.0</ele><time>2026-04-11T14:46:37.193Z</time></trkpt><trkpt lat="40.5506445" lon="9.7818214"><ele>22.200000000000003</ele><time>2026-04-11T14:46:39.199Z</time></trkpt><trkpt lat="40.550732" lon="9.7819261"><ele>22.4</ele><time>2026-04-11T14:46:41.244Z</time></trkpt><trkpt lat="40.5507794" lon="9.7819869"><ele>22.6</ele><time>2026-04-11T14:46:42.202Z</time></trkpt><trkpt lat="40.5508218" lon="9.7820482"><ele>22.799999999999997</ele><time>2026-04-11T14:46:43.197Z</time></trkpt><trkpt lat="40.5508982" lon="9.7821583"><ele>23.0</ele><time>2026-04-11T14:46:45.204Z</time></trkpt><trkpt lat="40.5509772" lon="9.7822468"><ele>23.0</ele><time>2026-04-11T14:46:47.188Z</time></trkpt><trkpt lat="40.5510443" lon="9.7823235"><ele>23.0</ele><time>2026-04-11T14:46:49.191Z</time></trkpt><trkpt lat="40.5511306" lon="9.7824272"><ele>23.0</ele><time>2026-04-11T14:46:51.208Z</time></trkpt><trkpt lat="40.5512207" lon="9.7825361"><ele>23.0</ele><time>2026-04-11T14:46:53.18Z</time></trkpt><trkpt lat="40.5513038" lon="9.7826411"><ele>23.0</ele><time>2026-04-11T14:46:55.191Z</time></trkpt><trkpt lat="40.551376" lon="9.7827341"><ele>22.4</ele><time>2026-04-11T14:46:57.218Z</time></trkpt><trkpt lat="40.5514575" lon="9.782832"><ele>21.799999999999997</ele><time>2026-04-11T14:46:59.2Z</time></trkpt><trkpt lat="40.5515255" lon="9.7829395"><ele>21.2</ele><time>2026-04-11T14:47:01.197Z</time></trkpt><trkpt lat="40.5516008" lon="9.7830386"><ele>20.6</ele><time>2026-04-11T14:47:03.182Z</time></trkpt><trkpt lat="40.5516802" lon="9.7831331"><ele>20.0</ele><time>2026-04-11T14:47:05.18Z</time></trkpt><trkpt lat="40.5517508" lon="9.7832347"><ele>20.0</ele><time>2026-04-11T14:47:07.179Z</time></trkpt><trkpt lat="40.5518205" lon="9.78333"><ele>20.0</ele><time>2026-04-11T14:47:09.182Z</time></trkpt><trkpt lat="40.5519026" lon="9.7834159"><ele>20.0</ele><time>2026-04-11T14:47:11.185Z</time></trkpt><trkpt lat="40.5519821" lon="9.7835074"><ele>20.0</ele><time>2026-04-11T14:47:13.186Z</time></trkpt><trkpt lat="40.5520599" lon="9.7836087"><ele>20.0</ele><time>2026-04-11T14:47:15.176Z</time></trkpt><trkpt lat="40.5521099" lon="9.7836942"><ele>19.0</ele><time>2026-04-11T14:47:17.179Z</time></trkpt><trkpt lat="40.5521796" lon="9.7837798"><ele>18.0</ele><time>2026-04-11T14:47:19.174Z</time></trkpt><trkpt lat="40.5522562" lon="9.78388"><ele>17.0</ele><time>2026-04-11T14:47:21.175Z</time></trkpt><trkpt lat="40.5523353" lon="9.7839802"><ele>16.0</ele><time>2026-04-11T14:47:23.167Z</time></trkpt><trkpt lat="40.5524112" lon="9.784046"><ele>15.0</ele><time>2026-04-11T14:47:25.181Z</time></trkpt><trkpt lat="40.5524722" lon="9.7841185"><ele>15.0</ele><time>2026-04-11T14:47:27.183Z</time></trkpt><trkpt lat="40.5525421" lon="9.7842067"><ele>15.0</ele><time>2026-04-11T14:47:29.192Z</time></trkpt><trkpt lat="40.5526135" lon="9.7843067"><ele>15.0</ele><time>2026-04-11T14:47:31.177Z</time></trkpt><trkpt lat="40.5526707" lon="9.7843941"><ele>15.0</ele><time>2026-04-11T14:47:33.164Z</time></trkpt><trkpt lat="40.5527273" lon="9.7844714"><ele>15.0</ele><time>2026-04-11T14:47:35.271Z</time></trkpt><trkpt lat="40.5527961" lon="9.7845505"><ele>14.6</ele><time>2026-04-11T14:47:37.182Z</time></trkpt><trkpt lat="40.5528648" lon="9.7846256"><ele>14.2</ele><time>2026-04-11T14:47:39.17Z</time></trkpt><trkpt lat="40.5529354" lon="9.7847142"><ele>13.8</ele><time>2026-04-11T14:47:41.278Z</time></trkpt><trkpt lat="40.5529991" lon="9.7847966"><ele>13.4</ele><time>2026-04-11T14:47:43.173Z</time></trkpt><trkpt lat="40.5530737" lon="9.7848902"><ele>13.0</ele><time>2026-04-11T14:47:45.265Z</time></trkpt><trkpt lat="40.5531433" lon="9.7849831"><ele>12.999999999999998</ele><time>2026-04-11T14:47:47.272Z</time></trkpt><trkpt lat="40.5532207" lon="9.7850768"><ele>13.0</ele><time>2026-04-11T14:47:49.27Z</time></trkpt><trkpt lat="40.5532966" lon="9.7851654"><ele>13.0</ele><time>2026-04-11T14:47:51.308Z</time></trkpt><trkpt lat="40.5533495" lon="9.7852327"><ele>13.0</ele><time>2026-04-11T14:47:53.262Z</time></trkpt><trkpt lat="40.5533825" lon="9.7853096"><ele>12.999999999999998</ele><time>2026-04-11T14:47:55.28Z</time></trkpt><trkpt lat="40.5533698" lon="9.785404"><ele>13.0</ele><time>2026-04-11T14:47:57.272Z</time></trkpt><trkpt lat="40.5533344" lon="9.7855137"><ele>13.0</ele><time>2026-04-11T14:47:59.258Z</time></trkpt><trkpt lat="40.5532925" lon="9.7856262"><ele>13.0</ele><time>2026-04-11T14:48:01.258Z</time></trkpt><trkpt lat="40.553261" lon="9.785727"><ele>13.0</ele><time>2026-04-11T14:48:03.263Z</time></trkpt><trkpt lat="40.5532242" lon="9.7858665"><ele>13.0</ele><time>2026-04-11T14:48:05.256Z</time></trkpt><trkpt lat="40.5531897" lon="9.7859931"><ele>13.0</ele><time>2026-04-11T14:48:07.255Z</time></trkpt><trkpt lat="40.5531559" lon="9.7861122"><ele>12.200000000000001</ele><time>2026-04-11T14:48:09.261Z</time></trkpt><trkpt lat="40.5531196" lon="9.7862237"><ele>11.4</ele><time>2026-04-11T14:48:11.273Z</time></trkpt><trkpt lat="40.5530938" lon="9.7863508"><ele>10.600000000000001</ele><time>2026-04-11T14:48:13.291Z</time></trkpt><trkpt lat="40.553123" lon="9.7864551"><ele>9.8</ele><time>2026-04-11T14:48:15.278Z</time></trkpt><trkpt lat="40.5531886" lon="9.7865217"><ele>9.0</ele><time>2026-04-11T14:48:17.256Z</time></trkpt><trkpt lat="40.5533035" lon="9.7865825"><ele>9.0</ele><time>2026-04-11T14:48:19.251Z</time></trkpt><trkpt lat="40.5533704" lon="9.7866202"><ele>9.0</ele><time>2026-04-11T14:48:20.25Z</time></trkpt><trkpt lat="40.5534357" lon="9.7866609"><ele>9.0</ele><time>2026-04-11T14:48:21.265Z</time></trkpt><trkpt lat="40.5535028" lon="9.7866935"><ele>9.0</ele><time>2026-04-11T14:48:22.257Z</time></trkpt><trkpt lat="40.5535779" lon="9.7867215"><ele>9.0</ele><time>2026-04-11T14:48:23.248Z</time></trkpt><trkpt lat="40.5536546" lon="9.7867523"><ele>9.0</ele><time>2026-04-11T14:48:24.245Z</time></trkpt><trkpt lat="40.5537398" lon="9.7867816"><ele>9.6</ele><time>2026-04-11T14:48:25.243Z</time></trkpt><trkpt lat="40.5538304" lon="9.7868178"><ele>10.2</ele><time>2026-04-11T14:48:26.247Z</time></trkpt><trkpt lat="40.5539247" lon="9.7868616"><ele>10.799999999999999</ele><time>2026-04-11T14:48:27.249Z</time></trkpt><trkpt lat="40.5540262" lon="9.7869064"><ele>11.4</ele><time>2026-04-11T14:48:28.247Z</time></trkpt><trkpt lat="40.5541283" lon="9.7869469"><ele>12.0</ele><time>2026-04-11T14:48:29.242Z</time></trkpt><trkpt lat="40.5542344" lon="9.7869835"><ele>12.0</ele><time>2026-04-11T14:48:30.237Z</time></trkpt><trkpt lat="40.5543394" lon="9.7870322"><ele>12.0</ele><time>2026-04-11T14:48:31.233Z</time></trkpt><trkpt lat="40.5544409" lon="9.7870878"><ele>12.0</ele><time>2026-04-11T14:48:32.237Z</time></trkpt><trkpt lat="40.5545371" lon="9.7871416"><ele>12.0</ele><time>2026-04-11T14:48:33.239Z</time></trkpt><trkpt lat="40.5546349" lon="9.7871909"><ele>12.0</ele><time>2026-04-11T14:48:34.246Z</time></trkpt><trkpt lat="40.554733" lon="9.7872428"><ele>12.8</ele><time>2026-04-11T14:48:35.243Z</time></trkpt><trkpt lat="40.5548268" lon="9.7873032"><ele>13.6</ele><time>2026-04-11T14:48:36.237Z</time></trkpt><trkpt lat="40.5549164" lon="9.7873631"><ele>14.400000000000002</ele><time>2026-04-11T14:48:37.251Z</time></trkpt><trkpt lat="40.5550015" lon="9.7874108"><ele>15.200000000000001</ele><time>2026-04-11T14:48:38.233Z</time></trkpt><trkpt lat="40.5550812" lon="9.787457"><ele>16.0</ele><time>2026-04-11T14:48:39.251Z</time></trkpt><trkpt lat="40.5551594" lon="9.7875089"><ele>15.999999999999998</ele><time>2026-04-11T14:48:40.236Z</time></trkpt><trkpt lat="40.5552303" lon="9.7875606"><ele>16.0</ele><time>2026-04-11T14:48:41.253Z</time></trkpt><trkpt lat="40.5552996" lon="9.7876067"><ele>16.0</ele><time>2026-04-11T14:48:42.231Z</time></trkpt><trkpt lat="40.5553766" lon="9.7876487"><ele>16.0</ele><time>2026-04-11T14:48:43.235Z</time></trkpt><trkpt lat="40.5554612" lon="9.7876805"><ele>15.999999999999998</ele><time>2026-04-11T14:48:44.229Z</time></trkpt><trkpt lat="40.5555434" lon="9.7877037"><ele>16.0</ele><time>2026-04-11T14:48:45.237Z</time></trkpt><trkpt lat="40.5556206" lon="9.7877166"><ele>15.0</ele><time>2026-04-11T14:48:46.231Z</time></trkpt><trkpt lat="40.5556905" lon="9.7877265"><ele>13.999999999999998</ele><time>2026-04-11T14:48:47.244Z</time></trkpt><trkpt lat="40.5557628" lon="9.7877399"><ele>13.0</ele><time>2026-04-11T14:48:48.231Z</time></trkpt><trkpt lat="40.5558368" lon="9.7877501"><ele>12.0</ele><time>2026-04-11T14:48:49.229Z</time></trkpt><trkpt lat="40.5559086" lon="9.7877425"><ele>11.0</ele><time>2026-04-11T14:48:50.24Z</time></trkpt><trkpt lat="40.5559855" lon="9.7877359"><ele>10.0</ele><time>2026-04-11T14:48:51.231Z</time></trkpt><trkpt lat="40.5560577" lon="9.7877246"><ele>9.0</ele><time>2026-04-11T14:48:52.234Z</time></trkpt><trkpt lat="40.5561291" lon="9.7877166"><ele>9.000000000000002</ele><time>2026-04-11T14:48:53.238Z</time></trkpt><trkpt lat="40.5561976" lon="9.7877167"><ele>9.0</ele><time>2026-04-11T14:48:54.235Z</time></trkpt><trkpt lat="40.5562686" lon="9.7877192"><ele>9.0</ele><time>2026-04-11T14:48:55.232Z</time></trkpt><trkpt lat="40.5563418" lon="9.7877202"><ele>9.0</ele><time>2026-04-11T14:48:56.254Z</time></trkpt><trkpt lat="40.5564186" lon="9.7877104"><ele>9.0</ele><time>2026-04-11T14:48:57.245Z</time></trkpt><trkpt lat="40.5564917" lon="9.7876937"><ele>9.000000000000002</ele><time>2026-04-11T14:48:58.23Z</time></trkpt><trkpt lat="40.5565584" lon="9.7876761"><ele>9.0</ele><time>2026-04-11T14:48:59.227Z</time></trkpt><trkpt lat="40.5566297" lon="9.7876544"><ele>9.833333333333334</ele><time>2026-04-11T14:49:00.23Z</time></trkpt><trkpt lat="40.5567104" lon="9.7876267"><ele>10.666666666666668</ele><time>2026-04-11T14:49:01.252Z</time></trkpt><trkpt lat="40.55678" lon="9.7875894"><ele>11.5</ele><time>2026-04-11T14:49:02.233Z</time></trkpt><trkpt lat="40.5568463" lon="9.7875514"><ele>12.333333333333334</ele><time>2026-04-11T14:49:03.272Z</time></trkpt><trkpt lat="40.5568998" lon="9.7875047"><ele>13.166666666666668</ele><time>2026-04-11T14:49:04.222Z</time></trkpt><trkpt lat="40.5569739" lon="9.7874258"><ele>14.0</ele><time>2026-04-11T14:49:06.223Z</time></trkpt><trkpt lat="40.5570404" lon="9.78736"><ele>14.000000000000002</ele><time>2026-04-11T14:49:08.218Z</time></trkpt><trkpt lat="40.5571037" lon="9.7873145"><ele>14.0</ele><time>2026-04-11T14:49:10.226Z</time></trkpt><trkpt lat="40.5571708" lon="9.7873048"><ele>14.0</ele><time>2026-04-11T14:49:12.217Z</time></trkpt><trkpt lat="40.5572253" lon="9.7874073"><ele>14.0</ele><time>2026-04-11T14:49:15.228Z</time></trkpt><trkpt lat="40.5572115" lon="9.7875463"><ele>14.000000000000002</ele><time>2026-04-11T14:49:17.22Z</time></trkpt><trkpt lat="40.5571971" lon="9.7876366"><ele>14.0</ele><time>2026-04-11T14:49:18.211Z</time></trkpt><trkpt lat="40.5571927" lon="9.7877425"><ele>13.799999999999999</ele><time>2026-04-11T14:49:19.211Z</time></trkpt><trkpt lat="40.5571923" lon="9.7878555"><ele>13.599999999999998</ele><time>2026-04-11T14:49:20.211Z</time></trkpt><trkpt lat="40.5571994" lon="9.7879601"><ele>13.4</ele><time>2026-04-11T14:49:21.223Z</time></trkpt><trkpt lat="40.5571991" lon="9.7880543"><ele>13.2</ele><time>2026-04-11T14:49:22.205Z</time></trkpt><trkpt lat="40.5571943" lon="9.7882019"><ele>13.0</ele><time>2026-04-11T14:49:24.203Z</time></trkpt><trkpt lat="40.5571951" lon="9.7883408"><ele>12.999999999999998</ele><time>2026-04-11T14:49:26.205Z</time></trkpt><trkpt lat="40.5571936" lon="9.7884783"><ele>13.0</ele><time>2026-04-11T14:49:28.224Z</time></trkpt><trkpt lat="40.5571697" lon="9.7885621"><ele>13.0</ele><time>2026-04-11T14:49:30.196Z</time></trkpt><trkpt lat="40.5571329" lon="9.7886334"><ele>13.0</ele><time>2026-04-11T14:49:34.19Z</time></trkpt><trkpt lat="40.5571084" lon="9.7887252"><ele>12.999999999999998</ele><time>2026-04-11T14:50:56.221Z</time></trkpt><trkpt lat="40.5571232" lon="9.7888913"><ele>13.0</ele><time>2026-04-11T14:50:59.218Z</time></trkpt><trkpt lat="40.5571108" lon="9.7889731"><ele>12.666666666666666</ele><time>2026-04-11T14:51:00.208Z</time></trkpt><trkpt lat="40.5570829" lon="9.7890559"><ele>12.333333333333332</ele><time>2026-04-11T14:51:01.211Z</time></trkpt><trkpt lat="40.5570415" lon="9.7891349"><ele>12.0</ele><time>2026-04-11T14:51:02.217Z</time></trkpt><trkpt lat="40.5569919" lon="9.7892182"><ele>11.666666666666666</ele><time>2026-04-11T14:51:03.208Z</time></trkpt><trkpt lat="40.5569395" lon="9.7892966"><ele>11.333333333333332</ele><time>2026-04-11T14:51:04.214Z</time></trkpt><trkpt lat="40.5568854" lon="9.7893768"><ele>11.0</ele><time>2026-04-11T14:51:05.213Z</time></trkpt><trkpt lat="40.5568357" lon="9.789455"><ele>10.5</ele><time>2026-04-11T14:51:06.208Z</time></trkpt><trkpt lat="40.5567852" lon="9.7895291"><ele>10.0</ele><time>2026-04-11T14:51:07.2Z</time></trkpt><trkpt lat="40.556737" lon="9.7896042"><ele>9.5</ele><time>2026-04-11T14:51:08.215Z</time></trkpt><trkpt lat="40.5566848" lon="9.7896788"><ele>9.0</ele><time>2026-04-11T14:51:09.217Z</time></trkpt><trkpt lat="40.5566312" lon="9.7897549"><ele>8.5</ele><time>2026-04-11T14:51:10.199Z</time></trkpt><trkpt lat="40.5565805" lon="9.789832"><ele>8.0</ele><time>2026-04-11T14:51:11.201Z</time></trkpt><trkpt lat="40.5565296" lon="9.7899086"><ele>7.999999999999999</ele><time>2026-04-11T14:51:12.2Z</time></trkpt><trkpt lat="40.5564797" lon="9.789988"><ele>8.0</ele><time>2026-04-11T14:51:13.222Z</time></trkpt><trkpt lat="40.5564252" lon="9.7900637"><ele>8.0</ele><time>2026-04-11T14:51:14.21Z</time></trkpt><trkpt lat="40.5563697" lon="9.7901422"><ele>8.0</ele><time>2026-04-11T14:51:15.223Z</time></trkpt><trkpt lat="40.556314" lon="9.7902189"><ele>7.999999999999999</ele><time>2026-04-11T14:51:16.237Z</time></trkpt><trkpt lat="40.5562585" lon="9.7902973"><ele>8.0</ele><time>2026-04-11T14:51:17.226Z</time></trkpt><trkpt lat="40.5562052" lon="9.7903749"><ele>7.833333333333333</ele><time>2026-04-11T14:51:18.247Z</time></trkpt><trkpt lat="40.5561488" lon="9.7904504"><ele>7.666666666666666</ele><time>2026-04-11T14:51:19.203Z</time></trkpt><trkpt lat="40.5560959" lon="9.7905262"><ele>7.5</ele><time>2026-04-11T14:51:20.22Z</time></trkpt><trkpt lat="40.5560445" lon="9.7906015"><ele>7.333333333333334</ele><time>2026-04-11T14:51:21.207Z</time></trkpt><trkpt lat="40.5559959" lon="9.7906751"><ele>7.166666666666667</ele><time>2026-04-11T14:51:22.198Z</time></trkpt><trkpt lat="40.5559424" lon="9.7907567"><ele>7.0</ele><time>2026-04-11T14:51:23.28Z</time></trkpt><trkpt lat="40.5558881" lon="9.790842"><ele>7.000000000000001</ele><time>2026-04-11T14:51:24.242Z</time></trkpt><trkpt lat="40.5558323" lon="9.7909283"><ele>7.0</ele><time>2026-04-11T14:51:25.199Z</time></trkpt><trkpt lat="40.555774" lon="9.7910142"><ele>7.0</ele><time>2026-04-11T14:51:26.218Z</time></trkpt><trkpt lat="40.5557153" lon="9.7910984"><ele>7.0</ele><time>2026-04-11T14:51:27.211Z</time></trkpt><trkpt lat="40.5556589" lon="9.7911831"><ele>7.000000000000001</ele><time>2026-04-11T14:51:28.199Z</time></trkpt><trkpt lat="40.5556042" lon="9.7912706"><ele>7.0</ele><time>2026-04-11T14:51:29.243Z</time></trkpt><trkpt lat="40.5555526" lon="9.7913624"><ele>6.6</ele><time>2026-04-11T14:51:30.226Z</time></trkpt><trkpt lat="40.5555014" lon="9.7914632"><ele>6.199999999999999</ele><time>2026-04-11T14:51:31.199Z</time></trkpt><trkpt lat="40.5554539" lon="9.7915661"><ele>5.8</ele><time>2026-04-11T14:51:32.207Z</time></trkpt><trkpt lat="40.5554093" lon="9.7916737"><ele>5.4</ele><time>2026-04-11T14:51:33.223Z</time></trkpt><trkpt lat="40.5553667" lon="9.7917833"><ele>5.0</ele><time>2026-04-11T14:51:34.227Z</time></trkpt><trkpt lat="40.5553284" lon="9.7918949"><ele>4.8</ele><time>2026-04-11T14:51:35.203Z</time></trkpt><trkpt lat="40.5552928" lon="9.7920123"><ele>4.6</ele><time>2026-04-11T14:51:36.204Z</time></trkpt><trkpt lat="40.5552555" lon="9.7921329"><ele>4.4</ele><time>2026-04-11T14:51:37.235Z</time></trkpt><trkpt lat="40.5552269" lon="9.7922574"><ele>4.2</ele><time>2026-04-11T14:51:38.239Z</time></trkpt><trkpt lat="40.5552053" lon="9.7923812"><ele>4.0</ele><time>2026-04-11T14:51:39.217Z</time></trkpt><trkpt lat="40.5551865" lon="9.7924994"><ele>3.9999999999999996</ele><time>2026-04-11T14:51:40.205Z</time></trkpt><trkpt lat="40.5551712" lon="9.79261"><ele>4.0</ele><time>2026-04-11T14:51:41.233Z</time></trkpt><trkpt lat="40.5551551" lon="9.7927138"><ele>4.0</ele><time>2026-04-11T14:51:42.212Z</time></trkpt><trkpt lat="40.5551419" lon="9.7928128"><ele>4.0</ele><time>2026-04-11T14:51:43.198Z</time></trkpt><trkpt lat="40.5551297" lon="9.7929046"><ele>3.9999999999999996</ele><time>2026-04-11T14:51:44.209Z</time></trkpt><trkpt lat="40.5551204" lon="9.7929874"><ele>4.0</ele><time>2026-04-11T14:51:45.21Z</time></trkpt><trkpt lat="40.555096" lon="9.7931454"><ele>3.9999999999999996</ele><time>2026-04-11T14:51:47.192Z</time></trkpt><trkpt lat="40.5550738" lon="9.7932329"><ele>4.0</ele><time>2026-04-11T14:51:48.23Z</time></trkpt><trkpt lat="40.5550508" lon="9.7933114"><ele>4.0</ele><time>2026-04-11T14:51:49.211Z</time></trkpt><trkpt lat="40.5550146" lon="9.7934443"><ele>4.0</ele><time>2026-04-11T14:51:51.206Z</time></trkpt><trkpt lat="40.5550205" lon="9.7935886"><ele>3.9999999999999996</ele><time>2026-04-11T14:51:53.226Z</time></trkpt><trkpt lat="40.5550675" lon="9.7936976"><ele>4.0</ele><time>2026-04-11T14:51:55.198Z</time></trkpt><trkpt lat="40.5551682" lon="9.7937543"><ele>3.4000000000000004</ele><time>2026-04-11T14:51:57.185Z</time></trkpt><trkpt lat="40.5552858" lon="9.7937834"><ele>2.8000000000000003</ele><time>2026-04-11T14:51:59.208Z</time></trkpt><trkpt lat="40.5554074" lon="9.7937791"><ele>2.2</ele><time>2026-04-11T14:52:01.187Z</time></trkpt><trkpt lat="40.5555295" lon="9.7937591"><ele>1.6</ele><time>2026-04-11T14:52:03.197Z</time></trkpt><trkpt lat="40.5555938" lon="9.7937487"><ele>1.0</ele><time>2026-04-11T14:52:04.198Z</time></trkpt><trkpt lat="40.5556616" lon="9.7937488"><ele>0.9999999999999999</ele><time>2026-04-11T14:52:05.189Z</time></trkpt><trkpt lat="40.555732" lon="9.7937525"><ele>1.0</ele><time>2026-04-11T14:52:06.171Z</time></trkpt><trkpt lat="40.5558035" lon="9.7937596"><ele>1.0</ele><time>2026-04-11T14:52:07.293Z</time></trkpt><trkpt lat="40.5558714" lon="9.7937646"><ele>1.0</ele><time>2026-04-11T14:52:08.285Z</time></trkpt><trkpt lat="40.5560271" lon="9.7937733"><ele>0.9999999999999999</ele><time>2026-04-11T14:52:10.267Z</time></trkpt><trkpt lat="40.5561045" lon="9.7937719"><ele>1.0</ele><time>2026-04-11T14:52:11.307Z</time></trkpt><trkpt lat="40.5561829" lon="9.7937651"><ele>0.9999999999999999</ele><time>2026-04-11T14:52:12.297Z</time></trkpt><trkpt lat="40.5562619" lon="9.7937546"><ele>1.0</ele><time>2026-04-11T14:52:13.265Z</time></trkpt><trkpt lat="40.5563414" lon="9.7937476"><ele>1.0</ele><time>2026-04-11T14:52:14.301Z</time></trkpt><trkpt lat="40.5564208" lon="9.7937378"><ele>1.0</ele><time>2026-04-11T14:52:15.284Z</time></trkpt><trkpt lat="40.5564886" lon="9.7937343"><ele>0.9999999999999999</ele><time>2026-04-11T14:52:16.287Z</time></trkpt><trkpt lat="40.5566127" lon="9.7937247"><ele>1.0</ele><time>2026-04-11T14:52:18.278Z</time></trkpt><trkpt lat="40.5566755" lon="9.7937096"><ele>0.9999999999999999</ele><time>2026-04-11T14:52:19.286Z</time></trkpt><trkpt lat="40.5567955" lon="9.7937"><ele>1.0</ele><time>2026-04-11T14:52:21.302Z</time></trkpt><trkpt lat="40.5568601" lon="9.7937008"><ele>1.0</ele><time>2026-04-11T14:52:22.296Z</time></trkpt><trkpt lat="40.5569289" lon="9.7936987"><ele>1.0</ele><time>2026-04-11T14:52:23.291Z</time></trkpt><trkpt lat="40.5570007" lon="9.7936967"><ele>0.9999999999999999</ele><time>2026-04-11T14:52:24.325Z</time></trkpt><trkpt lat="40.5570761" lon="9.7936981"><ele>1.0</ele><time>2026-04-11T14:52:25.284Z</time></trkpt><trkpt lat="40.5571537" lon="9.7937053"><ele>0.8333333333333333</ele><time>2026-04-11T14:52:26.257Z</time></trkpt><trkpt lat="40.5572317" lon="9.7937131"><ele>0.6666666666666666</ele><time>2026-04-11T14:52:27.261Z</time></trkpt><trkpt lat="40.5573009" lon="9.7937131"><ele>0.5</ele><time>2026-04-11T14:52:28.289Z</time></trkpt><trkpt lat="40.5573653" lon="9.7937104"><ele>0.3333333333333333</ele><time>2026-04-11T14:52:29.27Z</time></trkpt><trkpt lat="40.5574752" lon="9.7936672"><ele>0.16666666666666666</ele><time>2026-04-11T14:52:31.255Z</time></trkpt><trkpt lat="40.5575501" lon="9.7935651"><ele>0.0</ele><time>2026-04-11T14:52:33.274Z</time></trkpt><trkpt lat="40.5576409" lon="9.7934588"><ele>0.0</ele><time>2026-04-11T14:52:35.272Z</time></trkpt><trkpt lat="40.5577078" lon="9.7934137"><ele>0.0</ele><time>2026-04-11T14:52:36.283Z</time></trkpt><trkpt lat="40.557779" lon="9.7933826"><ele>0.0</ele><time>2026-04-11T14:52:37.274Z</time></trkpt><trkpt lat="40.5578415" lon="9.7933453"><ele>0.0</ele><time>2026-04-11T14:52:38.257Z</time></trkpt><trkpt lat="40.5579424" lon="9.7932634"><ele>0.0</ele><time>2026-04-11T14:52:40.259Z</time></trkpt><trkpt lat="40.5580552" lon="9.7932145"><ele>0.0</ele><time>2026-04-11T14:52:42.258Z</time></trkpt><trkpt lat="40.558164" lon="9.7931551"><ele>0.0</ele><time>2026-04-11T14:52:44.23Z</time></trkpt><trkpt lat="40.5582232" lon="9.7931097"><ele>0.0</ele><time>2026-04-11T14:52:45.26Z</time></trkpt><trkpt lat="40.5582888" lon="9.7930693"><ele>0.0</ele><time>2026-04-11T14:52:46.259Z</time></trkpt><trkpt lat="40.5583577" lon="9.7930309"><ele>0.0</ele><time>2026-04-11T14:52:47.236Z</time></trkpt><trkpt lat="40.5584305" lon="9.7929864"><ele>0.0</ele><time>2026-04-11T14:52:48.246Z</time></trkpt><trkpt lat="40.5585051" lon="9.7929383"><ele>0.0</ele><time>2026-04-11T14:52:49.273Z</time></trkpt><trkpt lat="40.5585735" lon="9.7928856"><ele>0.0</ele><time>2026-04-11T14:52:50.248Z</time></trkpt><trkpt lat="40.558639" lon="9.7928395"><ele>0.0</ele><time>2026-04-11T14:52:51.241Z</time></trkpt><trkpt lat="40.5587031" lon="9.7927911"><ele>0.0</ele><time>2026-04-11T14:52:52.231Z</time></trkpt><trkpt lat="40.5587588" lon="9.7927351"><ele>0.0</ele><time>2026-04-11T14:52:53.261Z</time></trkpt><trkpt lat="40.5588629" lon="9.7926506"><ele>0.0</ele><time>2026-04-11T14:52:55.24Z</time></trkpt><trkpt lat="40.5589879" lon="9.7925873"><ele>0.4</ele><time>2026-04-11T14:52:57.236Z</time></trkpt><trkpt lat="40.5590509" lon="9.792554"><ele>0.8</ele><time>2026-04-11T14:52:58.234Z</time></trkpt><trkpt lat="40.5591513" lon="9.7924985"><ele>1.2000000000000002</ele><time>2026-04-11T14:53:00.25Z</time></trkpt><trkpt lat="40.5592509" lon="9.7924907"><ele>1.6</ele><time>2026-04-11T14:53:02.235Z</time></trkpt><trkpt lat="40.5593677" lon="9.7924845"><ele>2.0</ele><time>2026-04-11T14:53:04.257Z</time></trkpt><trkpt lat="40.5594361" lon="9.7924528"><ele>1.9999999999999998</ele><time>2026-04-11T14:53:06.247Z</time></trkpt><trkpt lat="40.5594908" lon="9.7924049"><ele>2.0</ele><time>2026-04-11T14:53:09.241Z</time></trkpt><trkpt lat="40.5595766" lon="9.792432"><ele>2.0</ele><time>2026-04-11T14:53:12.24Z</time></trkpt><trkpt lat="40.5597048" lon="9.7924531"><ele>2.0</ele><time>2026-04-11T14:53:14.232Z</time></trkpt><trkpt lat="40.5597744" lon="9.7924659"><ele>1.9999999999999998</ele><time>2026-04-11T14:53:15.224Z</time></trkpt><trkpt lat="40.5598491" lon="9.7924756"><ele>2.0</ele><time>2026-04-11T14:53:16.217Z</time></trkpt><trkpt lat="40.5599203" lon="9.7924797"><ele>2.2</ele><time>2026-04-11T14:53:17.237Z</time></trkpt><trkpt lat="40.5600343" lon="9.7924719"><ele>2.4000000000000004</ele><time>2026-04-11T14:53:19.21Z</time></trkpt><trkpt lat="40.5601208" lon="9.792497"><ele>2.5999999999999996</ele><time>2026-04-11T14:53:21.25Z</time></trkpt><trkpt lat="40.5601895" lon="9.7925951"><ele>2.8</ele><time>2026-04-11T14:53:23.21Z</time></trkpt><trkpt lat="40.5602696" lon="9.7926813"><ele>3.0</ele><time>2026-04-11T14:53:25.211Z</time></trkpt><trkpt lat="40.5603754" lon="9.7927078"><ele>2.5</ele><time>2026-04-11T14:53:27.227Z</time></trkpt><trkpt lat="40.5604421" lon="9.7927203"><ele>2.0</ele><time>2026-04-11T14:53:28.207Z</time></trkpt><trkpt lat="40.5605119" lon="9.7927389"><ele>1.5</ele><time>2026-04-11T14:53:29.209Z</time></trkpt><trkpt lat="40.5605846" lon="9.7927639"><ele>1.0</ele><time>2026-04-11T14:53:30.213Z</time></trkpt><trkpt lat="40.5606673" lon="9.7927942"><ele>0.5</ele><time>2026-04-11T14:53:31.202Z</time></trkpt><trkpt lat="40.5607496" lon="9.7928185"><ele>0.0</ele><time>2026-04-11T14:53:32.218Z</time></trkpt><trkpt lat="40.5608274" lon="9.7928346"><ele>0.0</ele><time>2026-04-11T14:53:33.204Z</time></trkpt><trkpt lat="40.5609027" lon="9.7928481"><ele>0.0</ele><time>2026-04-11T14:53:34.191Z</time></trkpt><trkpt lat="40.5609837" lon="9.7928618"><ele>0.0</ele><time>2026-04-11T14:53:35.21Z</time></trkpt><trkpt lat="40.5610608" lon="9.7928716"><ele>0.0</ele><time>2026-04-11T14:53:36.213Z</time></trkpt><trkpt lat="40.5611302" lon="9.7928854"><ele>0.0</ele><time>2026-04-11T14:53:37.229Z</time></trkpt><trkpt lat="40.5612008" lon="9.7928988"><ele>0.0</ele><time>2026-04-11T14:53:38.206Z</time></trkpt><trkpt lat="40.5612697" lon="9.7929095"><ele>0.0</ele><time>2026-04-11T14:53:39.185Z</time></trkpt><trkpt lat="40.5613326" lon="9.7929303"><ele>0.16666666666666666</ele><time>2026-04-11T14:53:40.205Z</time></trkpt><trkpt lat="40.5613966" lon="9.79295"><ele>0.3333333333333333</ele><time>2026-04-11T14:53:41.216Z</time></trkpt><trkpt lat="40.5615214" lon="9.7929621"><ele>0.5</ele><time>2026-04-11T14:53:43.188Z</time></trkpt><trkpt lat="40.5615865" lon="9.7929723"><ele>0.6666666666666666</ele><time>2026-04-11T14:53:44.218Z</time></trkpt><trkpt lat="40.5616499" lon="9.7929791"><ele>0.8333333333333333</ele><time>2026-04-11T14:53:45.24Z</time></trkpt><trkpt lat="40.5617606" lon="9.7929648"><ele>1.0</ele><time>2026-04-11T14:53:47.203Z</time></trkpt><trkpt lat="40.5618436" lon="9.7929754"><ele>1.0</ele><time>2026-04-11T14:53:49.201Z</time></trkpt><trkpt lat="40.5619346" lon="9.7929934"><ele>1.0</ele><time>2026-04-11T14:53:51.188Z</time></trkpt><trkpt lat="40.5620638" lon="9.7930198"><ele>1.0</ele><time>2026-04-11T14:53:53.203Z</time></trkpt><trkpt lat="40.5621328" lon="9.7930205"><ele>1.0</ele><time>2026-04-11T14:53:54.19Z</time></trkpt><trkpt lat="40.5622629" lon="9.7930097"><ele>1.0</ele><time>2026-04-11T14:53:56.193Z</time></trkpt><trkpt lat="40.5623309" lon="9.7929909"><ele>1.0</ele><time>2026-04-11T14:53:57.195Z</time></trkpt><trkpt lat="40.5623968" lon="9.7929594"><ele>1.0</ele><time>2026-04-11T14:53:58.211Z</time></trkpt><trkpt lat="40.562462" lon="9.7929299"><ele>1.0</ele><time>2026-04-11T14:53:59.294Z</time></trkpt><trkpt lat="40.5625827" lon="9.7928527"><ele>1.0</ele><time>2026-04-11T14:54:01.169Z</time></trkpt><trkpt lat="40.5626867" lon="9.7927998"><ele>1.0</ele><time>2026-04-11T14:54:03.284Z</time></trkpt><trkpt lat="40.5627928" lon="9.7927979"><ele>0.8333333333333333</ele><time>2026-04-11T14:54:05.307Z</time></trkpt><trkpt lat="40.5629152" lon="9.7928031"><ele>0.6666666666666666</ele><time>2026-04-11T14:54:07.287Z</time></trkpt><trkpt lat="40.5629817" lon="9.7927842"><ele>0.5</ele><time>2026-04-11T14:54:08.279Z</time></trkpt><trkpt lat="40.5630508" lon="9.7927522"><ele>0.3333333333333333</ele><time>2026-04-11T14:54:09.289Z</time></trkpt><trkpt lat="40.5631147" lon="9.7927217"><ele>0.16666666666666666</ele><time>2026-04-11T14:54:10.259Z</time></trkpt><trkpt lat="40.5631777" lon="9.7926961"><ele>0.0</ele><time>2026-04-11T14:54:11.292Z</time></trkpt><trkpt lat="40.5632414" lon="9.7926681"><ele>0.5714285714285714</ele><time>2026-04-11T14:54:12.289Z</time></trkpt><trkpt lat="40.5633025" lon="9.7926408"><ele>1.1428571428571428</ele><time>2026-04-11T14:54:13.275Z</time></trkpt><trkpt lat="40.5633652" lon="9.7926125"><ele>1.7142857142857142</ele><time>2026-04-11T14:54:14.26Z</time></trkpt><trkpt lat="40.5634284" lon="9.7925783"><ele>2.2857142857142856</ele><time>2026-04-11T14:54:15.285Z</time></trkpt><trkpt lat="40.5634891" lon="9.7925364"><ele>2.8571428571428568</ele><time>2026-04-11T14:54:16.286Z</time></trkpt><trkpt lat="40.5635538" lon="9.7924892"><ele>3.4285714285714284</ele><time>2026-04-11T14:54:17.272Z</time></trkpt><trkpt lat="40.5636174" lon="9.7924434"><ele>4.0</ele><time>2026-04-11T14:54:18.253Z</time></trkpt><trkpt lat="40.5636841" lon="9.7924011"><ele>3.4000000000000004</ele><time>2026-04-11T14:54:19.274Z</time></trkpt><trkpt lat="40.5637413" lon="9.792363"><ele>2.8000000000000003</ele><time>2026-04-11T14:54:20.259Z</time></trkpt><trkpt lat="40.5638313" lon="9.7922781"><ele>2.2</ele><time>2026-04-11T14:54:22.263Z</time></trkpt><trkpt lat="40.563897" lon="9.7921762"><ele>1.6</ele><time>2026-04-11T14:54:24.269Z</time></trkpt><trkpt lat="40.5640049" lon="9.7921076"><ele>1.0</ele><time>2026-04-11T14:54:26.282Z</time></trkpt><trkpt lat="40.5640648" lon="9.7920685"><ele>1.0</ele><time>2026-04-11T14:54:27.271Z</time></trkpt><trkpt lat="40.5641648" lon="9.7919927"><ele>1.0</ele><time>2026-04-11T14:54:29.302Z</time></trkpt><trkpt lat="40.5642725" lon="9.7919267"><ele>1.0</ele><time>2026-04-11T14:54:31.27Z</time></trkpt><trkpt lat="40.5643359" lon="9.7919088"><ele>1.0</ele><time>2026-04-11T14:54:32.26Z</time></trkpt><trkpt lat="40.564411" lon="9.7918914"><ele>1.0</ele><time>2026-04-11T14:54:33.299Z</time></trkpt><trkpt lat="40.5644848" lon="9.7918567"><ele>1.3333333333333333</ele><time>2026-04-11T14:54:34.28Z</time></trkpt><trkpt lat="40.5645662" lon="9.791818"><ele>1.6666666666666665</ele><time>2026-04-11T14:54:35.281Z</time></trkpt><trkpt lat="40.5646451" lon="9.7917801"><ele>2.0</ele><time>2026-04-11T14:54:36.298Z</time></trkpt><trkpt lat="40.5647205" lon="9.7917401"><ele>2.3333333333333335</ele><time>2026-04-11T14:54:37.266Z</time></trkpt><trkpt lat="40.5647915" lon="9.7917002"><ele>2.6666666666666665</ele><time>2026-04-11T14:54:38.241Z</time></trkpt><trkpt lat="40.564857" lon="9.7916649"><ele>3.0</ele><time>2026-04-11T14:54:39.264Z</time></trkpt><trkpt lat="40.5649246" lon="9.7916343"><ele>3.0</ele><time>2026-04-11T14:54:40.264Z</time></trkpt><trkpt lat="40.5649953" lon="9.7916041"><ele>3.0</ele><time>2026-04-11T14:54:41.249Z</time></trkpt><trkpt lat="40.5650698" lon="9.7915616"><ele>3.0</ele><time>2026-04-11T14:54:42.261Z</time></trkpt><trkpt lat="40.5651417" lon="9.7915223"><ele>3.0</ele><time>2026-04-11T14:54:43.266Z</time></trkpt><trkpt lat="40.5652128" lon="9.7914764"><ele>3.0</ele><time>2026-04-11T14:54:44.253Z</time></trkpt><trkpt lat="40.565279" lon="9.7914304"><ele>3.0</ele><time>2026-04-11T14:54:45.244Z</time></trkpt><trkpt lat="40.5653462" lon="9.791382"><ele>2.6666666666666665</ele><time>2026-04-11T14:54:46.286Z</time></trkpt><trkpt lat="40.5654109" lon="9.7913447"><ele>2.3333333333333335</ele><time>2026-04-11T14:54:47.267Z</time></trkpt><trkpt lat="40.5654651" lon="9.7913023"><ele>2.0</ele><time>2026-04-11T14:54:48.263Z</time></trkpt><trkpt lat="40.5655351" lon="9.791176"><ele>1.6666666666666665</ele><time>2026-04-11T14:54:50.268Z</time></trkpt><trkpt lat="40.5655791" lon="9.7910974"><ele>1.3333333333333333</ele><time>2026-04-11T14:54:51.259Z</time></trkpt><trkpt lat="40.5656325" lon="9.7910241"><ele>1.0</ele><time>2026-04-11T14:54:52.264Z</time></trkpt><trkpt lat="40.5656975" lon="9.7909742"><ele>0.9999999999999999</ele><time>2026-04-11T14:54:53.276Z</time></trkpt><trkpt lat="40.5657738" lon="9.7909412"><ele>1.0</ele><time>2026-04-11T14:54:54.243Z</time></trkpt><trkpt lat="40.5658545" lon="9.7909202"><ele>1.0</ele><time>2026-04-11T14:54:55.282Z</time></trkpt><trkpt lat="40.5659389" lon="9.7909124"><ele>1.0</ele><time>2026-04-11T14:54:56.252Z</time></trkpt><trkpt lat="40.566022" lon="9.7909138"><ele>0.9999999999999999</ele><time>2026-04-11T14:54:57.242Z</time></trkpt><trkpt lat="40.5660951" lon="9.7909208"><ele>1.0</ele><time>2026-04-11T14:54:58.257Z</time></trkpt><trkpt lat="40.566215" lon="9.7909046"><ele>0.9999999999999999</ele><time>2026-04-11T14:55:00.264Z</time></trkpt><trkpt lat="40.5663313" lon="9.7908516"><ele>1.0</ele><time>2026-04-11T14:55:02.281Z</time></trkpt><trkpt lat="40.5664317" lon="9.7907687"><ele>1.0</ele><time>2026-04-11T14:55:04.226Z</time></trkpt><trkpt lat="40.5664897" lon="9.7907288"><ele>1.0</ele><time>2026-04-11T14:55:05.253Z</time></trkpt><trkpt lat="40.5665548" lon="9.7906983"><ele>0.9999999999999999</ele><time>2026-04-11T14:55:06.277Z</time></trkpt><trkpt lat="40.5666262" lon="9.7906761"><ele>1.0</ele><time>2026-04-11T14:55:07.266Z</time></trkpt><trkpt lat="40.5667049" lon="9.7906503"><ele>0.9999999999999999</ele><time>2026-04-11T14:55:08.256Z</time></trkpt><trkpt lat="40.566783" lon="9.7906248"><ele>1.0</ele><time>2026-04-11T14:55:09.247Z</time></trkpt><trkpt lat="40.5668594" lon="9.7905998"><ele>1.0</ele><time>2026-04-11T14:55:10.277Z</time></trkpt><trkpt lat="40.5669345" lon="9.7905666"><ele>1.0</ele><time>2026-04-11T14:55:11.257Z</time></trkpt><trkpt lat="40.5670094" lon="9.7905172"><ele>0.9999999999999999</ele><time>2026-04-11T14:55:12.224Z</time></trkpt><trkpt lat="40.5670878" lon="9.7904734"><ele>1.0</ele><time>2026-04-11T14:55:13.244Z</time></trkpt><trkpt lat="40.5671661" lon="9.7904425"><ele>0.9999999999999999</ele><time>2026-04-11T14:55:14.237Z</time></trkpt><trkpt lat="40.5672414" lon="9.790415"><ele>1.0</ele><time>2026-04-11T14:55:15.248Z</time></trkpt><trkpt lat="40.5673168" lon="9.7904011"><ele>1.0</ele><time>2026-04-11T14:55:16.26Z</time></trkpt><trkpt lat="40.5673939" lon="9.7903823"><ele>1.0</ele><time>2026-04-11T14:55:17.251Z</time></trkpt><trkpt lat="40.5674701" lon="9.79036"><ele>0.9999999999999999</ele><time>2026-04-11T14:55:18.222Z</time></trkpt><trkpt lat="40.567542" lon="9.7903407"><ele>1.0</ele><time>2026-04-11T14:55:19.266Z</time></trkpt><trkpt lat="40.5676116" lon="9.7903195"><ele>0.9999999999999999</ele><time>2026-04-11T14:55:20.227Z</time></trkpt><trkpt lat="40.5676792" lon="9.7902898"><ele>1.0</ele><time>2026-04-11T14:55:21.218Z</time></trkpt><trkpt lat="40.5677501" lon="9.79026"><ele>1.0</ele><time>2026-04-11T14:55:22.242Z</time></trkpt><trkpt lat="40.5678247" lon="9.7902285"><ele>1.0</ele><time>2026-04-11T14:55:23.24Z</time></trkpt><trkpt lat="40.5678999" lon="9.790203"><ele>0.9999999999999999</ele><time>2026-04-11T14:55:24.254Z</time></trkpt><trkpt lat="40.5679816" lon="9.7901826"><ele>1.0</ele><time>2026-04-11T14:55:25.233Z</time></trkpt><trkpt lat="40.5680678" lon="9.7901557"><ele>1.1666666666666665</ele><time>2026-04-11T14:55:26.247Z</time></trkpt><trkpt lat="40.5681477" lon="9.7901336"><ele>1.3333333333333333</ele><time>2026-04-11T14:55:27.256Z</time></trkpt><trkpt lat="40.5682276" lon="9.7901147"><ele>1.5</ele><time>2026-04-11T14:55:28.226Z</time></trkpt><trkpt lat="40.5683083" lon="9.790098"><ele>1.6666666666666665</ele><time>2026-04-11T14:55:29.24Z</time></trkpt><trkpt lat="40.5683834" lon="9.7900813"><ele>1.8333333333333333</ele><time>2026-04-11T14:55:30.243Z</time></trkpt><trkpt lat="40.5684613" lon="9.790063"><ele>2.0</ele><time>2026-04-11T14:55:31.253Z</time></trkpt><trkpt lat="40.5685336" lon="9.7900434"><ele>1.9999999999999998</ele><time>2026-04-11T14:55:32.25Z</time></trkpt><trkpt lat="40.568596" lon="9.7900197"><ele>2.0</ele><time>2026-04-11T14:55:33.244Z</time></trkpt><trkpt lat="40.5687163" lon="9.7900072"><ele>2.0</ele><time>2026-04-11T14:55:35.241Z</time></trkpt><trkpt lat="40.5687866" lon="9.7900187"><ele>2.0</ele><time>2026-04-11T14:55:36.247Z</time></trkpt><trkpt lat="40.5688561" lon="9.7900386"><ele>1.9999999999999998</ele><time>2026-04-11T14:55:37.223Z</time></trkpt><trkpt lat="40.5689232" lon="9.7900663"><ele>2.0</ele><time>2026-04-11T14:55:38.243Z</time></trkpt><trkpt lat="40.5689965" lon="9.7900816"><ele>1.857142857142857</ele><time>2026-04-11T14:55:39.233Z</time></trkpt><trkpt lat="40.5690768" lon="9.7900914"><ele>1.714285714285714</ele><time>2026-04-11T14:55:40.246Z</time></trkpt><trkpt lat="40.5691592" lon="9.7901126"><ele>1.5714285714285714</ele><time>2026-04-11T14:55:41.297Z</time></trkpt><trkpt lat="40.5692322" lon="9.7901336"><ele>1.4285714285714284</ele><time>2026-04-11T14:55:42.238Z</time></trkpt><trkpt lat="40.5692971" lon="9.7901526"><ele>1.2857142857142856</ele><time>2026-04-11T14:55:43.236Z</time></trkpt><trkpt lat="40.5693672" lon="9.7901642"><ele>1.1428571428571428</ele><time>2026-04-11T14:55:44.237Z</time></trkpt><trkpt lat="40.5694358" lon="9.7901791"><ele>1.0</ele><time>2026-04-11T14:55:45.241Z</time></trkpt><trkpt lat="40.5695074" lon="9.7902081"><ele>0.8</ele><time>2026-04-11T14:55:46.237Z</time></trkpt><trkpt lat="40.5695859" lon="9.790245"><ele>0.6000000000000001</ele><time>2026-04-11T14:55:47.231Z</time></trkpt><trkpt lat="40.5696763" lon="9.7902902"><ele>0.4</ele><time>2026-04-11T14:55:48.21Z</time></trkpt><trkpt lat="40.5697751" lon="9.7903362"><ele>0.2</ele><time>2026-04-11T14:55:49.216Z</time></trkpt><trkpt lat="40.5698668" lon="9.7903833"><ele>0.0</ele><time>2026-04-11T14:55:50.219Z</time></trkpt><trkpt lat="40.5699423" lon="9.7904078"><ele>0.0</ele><time>2026-04-11T14:55:51.216Z</time></trkpt><trkpt lat="40.5700145" lon="9.7904128"><ele>0.0</ele><time>2026-04-11T14:55:52.212Z</time></trkpt><trkpt lat="40.5700947" lon="9.790392"><ele>0.0</ele><time>2026-04-11T14:55:53.212Z</time></trkpt><trkpt lat="40.5701797" lon="9.7903654"><ele>0.0</ele><time>2026-04-11T14:55:54.225Z</time></trkpt><trkpt lat="40.5702661" lon="9.79033"><ele>0.0</ele><time>2026-04-11T14:55:55.205Z</time></trkpt><trkpt lat="40.5703406" lon="9.7903025"><ele>0.0</ele><time>2026-04-11T14:55:56.205Z</time></trkpt><trkpt lat="40.5704161" lon="9.7902883"><ele>0.16666666666666666</ele><time>2026-04-11T14:55:57.204Z</time></trkpt><trkpt lat="40.5705004" lon="9.7902881"><ele>0.3333333333333333</ele><time>2026-04-11T14:55:58.208Z</time></trkpt><trkpt lat="40.5705918" lon="9.7902962"><ele>0.5</ele><time>2026-04-11T14:55:59.215Z</time></trkpt><trkpt lat="40.5706793" lon="9.7902988"><ele>0.6666666666666666</ele><time>2026-04-11T14:56:00.21Z</time></trkpt><trkpt lat="40.5707595" lon="9.7902902"><ele>0.8333333333333333</ele><time>2026-04-11T14:56:01.217Z</time></trkpt><trkpt lat="40.5708403" lon="9.7902749"><ele>1.0</ele><time>2026-04-11T14:56:02.21Z</time></trkpt><trkpt lat="40.5709076" lon="9.790259"><ele>0.9999999999999999</ele><time>2026-04-11T14:56:03.211Z</time></trkpt><trkpt lat="40.5710063" lon="9.7902053"><ele>1.0</ele><time>2026-04-11T14:56:05.2Z</time></trkpt><trkpt lat="40.5711011" lon="9.7901171"><ele>1.0</ele><time>2026-04-11T14:56:07.21Z</time></trkpt><trkpt lat="40.5711531" lon="9.7900609"><ele>1.0</ele><time>2026-04-11T14:56:08.205Z</time></trkpt><trkpt lat="40.5712123" lon="9.7900048"><ele>0.9999999999999999</ele><time>2026-04-11T14:56:09.207Z</time></trkpt><trkpt lat="40.5712813" lon="9.7899583"><ele>1.0</ele><time>2026-04-11T14:56:10.2Z</time></trkpt><trkpt lat="40.5713531" lon="9.7899168"><ele>1.0</ele><time>2026-04-11T14:56:11.207Z</time></trkpt><trkpt lat="40.5714241" lon="9.7898724"><ele>1.0</ele><time>2026-04-11T14:56:12.21Z</time></trkpt><trkpt lat="40.571486" lon="9.7898266"><ele>1.0</ele><time>2026-04-11T14:56:13.203Z</time></trkpt><trkpt lat="40.5715391" lon="9.7897804"><ele>1.0</ele><time>2026-04-11T14:56:14.2Z</time></trkpt><trkpt lat="40.5716347" lon="9.7896924"><ele>1.0</ele><time>2026-04-11T14:56:16.206Z</time></trkpt><trkpt lat="40.5717358" lon="9.7895928"><ele>1.0</ele><time>2026-04-11T14:56:18.198Z</time></trkpt><trkpt lat="40.5717892" lon="9.7895421"><ele>0.9999999999999999</ele><time>2026-04-11T14:56:19.216Z</time></trkpt><trkpt lat="40.571847" lon="9.7894867"><ele>1.0</ele><time>2026-04-11T14:56:20.225Z</time></trkpt><trkpt lat="40.5719079" lon="9.7894329"><ele>1.0</ele><time>2026-04-11T14:56:21.202Z</time></trkpt><trkpt lat="40.5719664" lon="9.7893942"><ele>0.9999999999999999</ele><time>2026-04-11T14:56:22.203Z</time></trkpt><trkpt lat="40.57203" lon="9.7893593"><ele>1.0</ele><time>2026-04-11T14:56:23.204Z</time></trkpt><trkpt lat="40.5720839" lon="9.7893121"><ele>1.0</ele><time>2026-04-11T14:56:24.215Z</time></trkpt><trkpt lat="40.5721326" lon="9.7892505"><ele>1.0</ele><time>2026-04-11T14:56:25.205Z</time></trkpt><trkpt lat="40.5721784" lon="9.7891769"><ele>0.9999999999999999</ele><time>2026-04-11T14:56:26.205Z</time></trkpt><trkpt lat="40.572222" lon="9.7890946"><ele>1.0</ele><time>2026-04-11T14:56:27.233Z</time></trkpt><trkpt lat="40.5722646" lon="9.7890096"><ele>1.0</ele><time>2026-04-11T14:56:28.213Z</time></trkpt><trkpt lat="40.5723054" lon="9.788935"><ele>0.9999999999999999</ele><time>2026-04-11T14:56:29.217Z</time></trkpt><trkpt lat="40.572339" lon="9.7888505"><ele>1.0</ele><time>2026-04-11T14:56:30.205Z</time></trkpt><trkpt lat="40.5723594" lon="9.7887504"><ele>1.0</ele><time>2026-04-11T14:56:31.191Z</time></trkpt><trkpt lat="40.5723802" lon="9.7886457"><ele>0.9999999999999999</ele><time>2026-04-11T14:56:32.215Z</time></trkpt><trkpt lat="40.5724062" lon="9.7885506"><ele>1.0</ele><time>2026-04-11T14:56:33.196Z</time></trkpt><trkpt lat="40.5724343" lon="9.7884749"><ele>1.0</ele><time>2026-04-11T14:56:34.235Z</time></trkpt><trkpt lat="40.5724854" lon="9.7883647"><ele>1.0</ele><time>2026-04-11T14:56:36.2Z</time></trkpt><trkpt lat="40.5725591" lon="9.7883133"><ele>0.9999999999999999</ele><time>2026-04-11T14:56:39.22Z</time></trkpt><trkpt lat="40.5725794" lon="9.7882342"><ele>1.0</ele><time>2026-04-11T15:06:55.247Z</time></trkpt><trkpt lat="40.5725934" lon="9.7881238"><ele>1.0</ele><time>2026-04-11T15:07:25.274Z</time></trkpt><trkpt lat="40.5725769" lon="9.7879616"><ele>1.0</ele><time>2026-04-11T15:07:27.259Z</time></trkpt><trkpt lat="40.5725871" lon="9.7878573"><ele>1.0</ele><time>2026-04-11T15:07:28.256Z</time></trkpt><trkpt lat="40.5726029" lon="9.7877485"><ele>1.0</ele><time>2026-04-11T15:07:29.258Z</time></trkpt><trkpt lat="40.5726155" lon="9.7876354"><ele>1.0</ele><time>2026-04-11T15:07:30.27Z</time></trkpt><trkpt lat="40.5726186" lon="9.7875154"><ele>1.0</ele><time>2026-04-11T15:07:31.273Z</time></trkpt><trkpt lat="40.5726215" lon="9.7872652"><ele>1.0</ele><time>2026-04-11T15:07:33.155Z</time></trkpt><trkpt lat="40.5726214" lon="9.7871674"><ele>1.0</ele><time>2026-04-11T15:07:34.176Z</time></trkpt><trkpt lat="40.5726148" lon="9.7870186"><ele>1.0</ele><time>2026-04-11T15:07:36.254Z</time></trkpt><trkpt lat="40.5725886" lon="9.7868867"><ele>1.6</ele><time>2026-04-11T15:07:38.257Z</time></trkpt><trkpt lat="40.5725044" lon="9.7867776"><ele>2.2</ele><time>2026-04-11T15:07:40.181Z</time></trkpt><trkpt lat="40.5724636" lon="9.7867103"><ele>2.8000000000000003</ele><time>2026-04-11T15:07:41.166Z</time></trkpt><trkpt lat="40.5724237" lon="9.7865772"><ele>3.4000000000000004</ele><time>2026-04-11T15:07:43.161Z</time></trkpt><trkpt lat="40.5724342" lon="9.7864784"><ele>4.0</ele><time>2026-04-11T15:07:45.178Z</time></trkpt><trkpt lat="40.5725147" lon="9.7864157"><ele>4.0</ele><time>2026-04-11T15:07:47.171Z</time></trkpt><trkpt lat="40.5725793" lon="9.7864077"><ele>3.9999999999999996</ele><time>2026-04-11T15:07:48.163Z</time></trkpt><trkpt lat="40.5726549" lon="9.7863993"><ele>4.0</ele><time>2026-04-11T15:07:49.17Z</time></trkpt><trkpt lat="40.5727326" lon="9.7863885"><ele>4.0</ele><time>2026-04-11T15:07:50.173Z</time></trkpt><trkpt lat="40.5728087" lon="9.7863625"><ele>3.9999999999999996</ele><time>2026-04-11T15:07:51.164Z</time></trkpt><trkpt lat="40.5728735" lon="9.7863221"><ele>4.0</ele><time>2026-04-11T15:07:52.168Z</time></trkpt><trkpt lat="40.5729345" lon="9.7862584"><ele>4.0</ele><time>2026-04-11T15:07:53.17Z</time></trkpt><trkpt lat="40.5729976" lon="9.7861891"><ele>4.0</ele><time>2026-04-11T15:07:54.173Z</time></trkpt><trkpt lat="40.5730722" lon="9.7861141"><ele>4.0</ele><time>2026-04-11T15:07:55.167Z</time></trkpt><trkpt lat="40.5731558" lon="9.7860408"><ele>4.0</ele><time>2026-04-11T15:07:56.175Z</time></trkpt><trkpt lat="40.5732348" lon="9.7859789"><ele>4.0</ele><time>2026-04-11T15:07:57.188Z</time></trkpt><trkpt lat="40.5733058" lon="9.7859169"><ele>4.0</ele><time>2026-04-11T15:07:58.19Z</time></trkpt><trkpt lat="40.5733771" lon="9.7858431"><ele>3.9999999999999996</ele><time>2026-04-11T15:07:59.187Z</time></trkpt><trkpt lat="40.5734494" lon="9.785754"><ele>4.0</ele><time>2026-04-11T15:08:00.18Z</time></trkpt><trkpt lat="40.5735257" lon="9.7856658"><ele>4.0</ele><time>2026-04-11T15:08:01.163Z</time></trkpt><trkpt lat="40.5736005" lon="9.7855934"><ele>4.0</ele><time>2026-04-11T15:08:02.187Z</time></trkpt><trkpt lat="40.5736662" lon="9.7855306"><ele>3.9999999999999996</ele><time>2026-04-11T15:08:03.164Z</time></trkpt><trkpt lat="40.5737201" lon="9.7854726"><ele>4.0</ele><time>2026-04-11T15:08:04.173Z</time></trkpt><trkpt lat="40.5737693" lon="9.7854092"><ele>3.333333333333333</ele><time>2026-04-11T15:08:05.179Z</time></trkpt><trkpt lat="40.573813" lon="9.7853426"><ele>2.6666666666666665</ele><time>2026-04-11T15:08:06.178Z</time></trkpt><trkpt lat="40.5738891" lon="9.7852104"><ele>2.0</ele><time>2026-04-11T15:08:08.182Z</time></trkpt><trkpt lat="40.5739292" lon="9.7851395"><ele>1.3333333333333333</ele><time>2026-04-11T15:08:09.182Z</time></trkpt><trkpt lat="40.5739677" lon="9.7850627"><ele>0.6666666666666666</ele><time>2026-04-11T15:08:10.184Z</time></trkpt><trkpt lat="40.5739958" lon="9.7849772"><ele>0.0</ele><time>2026-04-11T15:08:11.291Z</time></trkpt><trkpt lat="40.5740128" lon="9.784886"><ele>0.0</ele><time>2026-04-11T15:08:12.263Z</time></trkpt><trkpt lat="40.5740252" lon="9.7847922"><ele>0.0</ele><time>2026-04-11T15:08:13.274Z</time></trkpt><trkpt lat="40.5740377" lon="9.7846969"><ele>0.0</ele><time>2026-04-11T15:08:14.177Z</time></trkpt><trkpt lat="40.5740527" lon="9.784602"><ele>0.0</ele><time>2026-04-11T15:08:15.182Z</time></trkpt><trkpt lat="40.5740721" lon="9.78451"><ele>0.0</ele><time>2026-04-11T15:08:16.162Z</time></trkpt><trkpt lat="40.5740911" lon="9.7844296"><ele>0.0</ele><time>2026-04-11T15:08:17.162Z</time></trkpt><trkpt lat="40.5741198" lon="9.7843556"><ele>0.0</ele><time>2026-04-11T15:08:18.177Z</time></trkpt><trkpt lat="40.5741517" lon="9.7842812"><ele>0.6</ele><time>2026-04-11T15:08:19.271Z</time></trkpt><trkpt lat="40.5741906" lon="9.7842069"><ele>1.2</ele><time>2026-04-11T15:08:20.265Z</time></trkpt><trkpt lat="40.5742877" lon="9.7840592"><ele>1.7999999999999998</ele><time>2026-04-11T15:08:22.176Z</time></trkpt><trkpt lat="40.5743505" lon="9.7839922"><ele>2.4</ele><time>2026-04-11T15:08:23.162Z</time></trkpt><trkpt lat="40.5744233" lon="9.7839395"><ele>3.0</ele><time>2026-04-11T15:08:24.167Z</time></trkpt><trkpt lat="40.5745029" lon="9.7838901"><ele>2.6</ele><time>2026-04-11T15:08:25.16Z</time></trkpt><trkpt lat="40.5745835" lon="9.7838368"><ele>2.1999999999999997</ele><time>2026-04-11T15:08:26.169Z</time></trkpt><trkpt lat="40.5746575" lon="9.7837849"><ele>1.8</ele><time>2026-04-11T15:08:27.27Z</time></trkpt><trkpt lat="40.5748054" lon="9.7836815"><ele>1.4</ele><time>2026-04-11T15:08:29.16Z</time></trkpt><trkpt lat="40.5748758" lon="9.7836322"><ele>1.0</ele><time>2026-04-11T15:08:30.18Z</time></trkpt><trkpt lat="40.5749376" lon="9.7835884"><ele>0.9999999999999999</ele><time>2026-04-11T15:08:31.159Z</time></trkpt><trkpt lat="40.574998" lon="9.7835519"><ele>1.0</ele><time>2026-04-11T15:08:32.166Z</time></trkpt><trkpt lat="40.5750649" lon="9.7835332"><ele>1.0</ele><time>2026-04-11T15:08:33.273Z</time></trkpt><trkpt lat="40.5751392" lon="9.7835237"><ele>1.0</ele><time>2026-04-11T15:08:34.26Z</time></trkpt><trkpt lat="40.5752771" lon="9.7835028"><ele>0.9999999999999999</ele><time>2026-04-11T15:08:36.167Z</time></trkpt><trkpt lat="40.5753472" lon="9.783489"><ele>1.0</ele><time>2026-04-11T15:08:37.179Z</time></trkpt><trkpt lat="40.5754161" lon="9.7834745"><ele>0.8333333333333333</ele><time>2026-04-11T15:08:38.176Z</time></trkpt><trkpt lat="40.5754825" lon="9.7834636"><ele>0.6666666666666666</ele><time>2026-04-11T15:08:39.164Z</time></trkpt><trkpt lat="40.5755824" lon="9.7834588"><ele>0.5</ele><time>2026-04-11T15:08:41.183Z</time></trkpt><trkpt lat="40.5756712" lon="9.7834834"><ele>0.3333333333333333</ele><time>2026-04-11T15:08:43.157Z</time></trkpt><trkpt lat="40.5757739" lon="9.7835296"><ele>0.16666666666666666</ele><time>2026-04-11T15:08:45.172Z</time></trkpt><trkpt lat="40.575844" lon="9.7835477"><ele>0.0</ele><time>2026-04-11T15:08:46.179Z</time></trkpt><trkpt lat="40.5759159" lon="9.7835727"><ele>0.0</ele><time>2026-04-11T15:08:47.172Z</time></trkpt><trkpt lat="40.5759908" lon="9.7835906"><ele>0.0</ele><time>2026-04-11T15:08:48.177Z</time></trkpt><trkpt lat="40.5760704" lon="9.7836015"><ele>0.0</ele><time>2026-04-11T15:08:49.173Z</time></trkpt><trkpt lat="40.5761478" lon="9.7835836"><ele>0.0</ele><time>2026-04-11T15:08:50.184Z</time></trkpt><trkpt lat="40.5762214" lon="9.7835429"><ele>0.0</ele><time>2026-04-11T15:08:51.167Z</time></trkpt><trkpt lat="40.5762962" lon="9.7834823"><ele>0.0</ele><time>2026-04-11T15:08:52.178Z</time></trkpt><trkpt lat="40.5763739" lon="9.7834227"><ele>0.3333333333333333</ele><time>2026-04-11T15:08:53.171Z</time></trkpt><trkpt lat="40.5764469" lon="9.7833662"><ele>0.6666666666666666</ele><time>2026-04-11T15:08:54.184Z</time></trkpt><trkpt lat="40.5765185" lon="9.7833078"><ele>1.0</ele><time>2026-04-11T15:08:55.184Z</time></trkpt><trkpt lat="40.5765883" lon="9.7832539"><ele>1.3333333333333333</ele><time>2026-04-11T15:08:56.171Z</time></trkpt><trkpt lat="40.5766565" lon="9.7832011"><ele>1.6666666666666665</ele><time>2026-04-11T15:08:57.181Z</time></trkpt><trkpt lat="40.5767278" lon="9.783133"><ele>2.0</ele><time>2026-04-11T15:08:58.174Z</time></trkpt><trkpt lat="40.5768171" lon="9.7830609"><ele>2.0</ele><time>2026-04-11T15:08:59.161Z</time></trkpt><trkpt lat="40.5769107" lon="9.7829918"><ele>2.0</ele><time>2026-04-11T15:09:00.189Z</time></trkpt><trkpt lat="40.5769989" lon="9.7829236"><ele>2.0</ele><time>2026-04-11T15:09:01.164Z</time></trkpt><trkpt lat="40.5770792" lon="9.7828509"><ele>2.0</ele><time>2026-04-11T15:09:02.262Z</time></trkpt><trkpt lat="40.5771567" lon="9.7827767"><ele>2.0</ele><time>2026-04-11T15:09:03.173Z</time></trkpt><trkpt lat="40.5772274" lon="9.7827054"><ele>3.0</ele><time>2026-04-11T15:09:04.174Z</time></trkpt><trkpt lat="40.5772966" lon="9.7826372"><ele>4.0</ele><time>2026-04-11T15:09:05.176Z</time></trkpt><trkpt lat="40.5773644" lon="9.7825722"><ele>5.0</ele><time>2026-04-11T15:09:06.174Z</time></trkpt><trkpt lat="40.577432" lon="9.7825104"><ele>6.0</ele><time>2026-04-11T15:09:07.182Z</time></trkpt><trkpt lat="40.5774984" lon="9.7824627"><ele>6.999999999999999</ele><time>2026-04-11T15:09:08.154Z</time></trkpt><trkpt lat="40.5775676" lon="9.7824292"><ele>8.0</ele><time>2026-04-11T15:09:09.261Z</time></trkpt><trkpt lat="40.577647" lon="9.7823961"><ele>8.0</ele><time>2026-04-11T15:09:10.164Z</time></trkpt><trkpt lat="40.5777383" lon="9.7823676"><ele>8.0</ele><time>2026-04-11T15:09:11.168Z</time></trkpt><trkpt lat="40.5778405" lon="9.7823375"><ele>8.0</ele><time>2026-04-11T15:09:12.164Z</time></trkpt><trkpt lat="40.5779399" lon="9.7823069"><ele>8.0</ele><time>2026-04-11T15:09:13.181Z</time></trkpt><trkpt lat="40.5780305" lon="9.7822776"><ele>8.0</ele><time>2026-04-11T15:09:14.173Z</time></trkpt><trkpt lat="40.5781173" lon="9.7822551"><ele>7.0</ele><time>2026-04-11T15:09:15.162Z</time></trkpt><trkpt lat="40.5782048" lon="9.7822425"><ele>6.0</ele><time>2026-04-11T15:09:16.278Z</time></trkpt><trkpt lat="40.5783901" lon="9.7822533"><ele>5.0</ele><time>2026-04-11T15:09:18.185Z</time></trkpt><trkpt lat="40.5784802" lon="9.7822625"><ele>4.0</ele><time>2026-04-11T15:09:19.176Z</time></trkpt><trkpt lat="40.5785677" lon="9.7822578"><ele>4.0</ele><time>2026-04-11T15:09:20.168Z</time></trkpt><trkpt lat="40.578661" lon="9.7822462"><ele>4.0</ele><time>2026-04-11T15:09:21.178Z</time></trkpt><trkpt lat="40.5787506" lon="9.7822428"><ele>4.0</ele><time>2026-04-11T15:09:22.169Z</time></trkpt><trkpt lat="40.5788382" lon="9.7822459"><ele>4.0</ele><time>2026-04-11T15:09:23.269Z</time></trkpt><trkpt lat="40.5789276" lon="9.7822532"><ele>4.0</ele><time>2026-04-11T15:09:24.184Z</time></trkpt><trkpt lat="40.5790164" lon="9.7822717"><ele>3.4999999999999996</ele><time>2026-04-11T15:09:25.174Z</time></trkpt><trkpt lat="40.5791048" lon="9.7822899"><ele>3.0</ele><time>2026-04-11T15:09:26.17Z</time></trkpt><trkpt lat="40.5791809" lon="9.7823058"><ele>2.5</ele><time>2026-04-11T15:09:27.172Z</time></trkpt><trkpt lat="40.5792518" lon="9.7823241"><ele>2.0</ele><time>2026-04-11T15:09:28.264Z</time></trkpt><trkpt lat="40.5793148" lon="9.7823534"><ele>1.5</ele><time>2026-04-11T15:09:29.26Z</time></trkpt><trkpt lat="40.5793756" lon="9.7823774"><ele>1.0</ele><time>2026-04-11T15:09:30.27Z</time></trkpt><trkpt lat="40.5794986" lon="9.7824012"><ele>0.8333333333333333</ele><time>2026-04-11T15:09:32.272Z</time></trkpt><trkpt lat="40.5795629" lon="9.7823956"><ele>0.6666666666666666</ele><time>2026-04-11T15:09:33.264Z</time></trkpt><trkpt lat="40.5796716" lon="9.7823267"><ele>0.5</ele><time>2026-04-11T15:09:35.28Z</time></trkpt><trkpt lat="40.5797167" lon="9.7822682"><ele>0.3333333333333333</ele><time>2026-04-11T15:09:36.257Z</time></trkpt><trkpt lat="40.5797545" lon="9.782187"><ele>0.16666666666666666</ele><time>2026-04-11T15:09:37.26Z</time></trkpt><trkpt lat="40.5797887" lon="9.7821166"><ele>0.0</ele><time>2026-04-11T15:09:38.166Z</time></trkpt><trkpt lat="40.5798455" lon="9.7819918"><ele>0.0</ele><time>2026-04-11T15:09:40.27Z</time></trkpt><trkpt lat="40.5798798" lon="9.7819192"><ele>0.0</ele><time>2026-04-11T15:09:41.263Z</time></trkpt><trkpt lat="40.5799162" lon="9.7818424"><ele>0.0</ele><time>2026-04-11T15:09:42.265Z</time></trkpt><trkpt lat="40.5799549" lon="9.7817617"><ele>0.0</ele><time>2026-04-11T15:09:43.26Z</time></trkpt><trkpt lat="40.5800032" lon="9.7816769"><ele>0.0</ele><time>2026-04-11T15:09:44.291Z</time></trkpt><trkpt lat="40.5801165" lon="9.7815067"><ele>0.0</ele><time>2026-04-11T15:09:46.283Z</time></trkpt><trkpt lat="40.5801637" lon="9.7814243"><ele>0.0</ele><time>2026-04-11T15:09:47.254Z</time></trkpt><trkpt lat="40.5802145" lon="9.7813372"><ele>0.0</ele><time>2026-04-11T15:09:48.281Z</time></trkpt><trkpt lat="40.5802676" lon="9.7812441"><ele>0.0</ele><time>2026-04-11T15:09:49.271Z</time></trkpt><trkpt lat="40.5803179" lon="9.7811431"><ele>0.0</ele><time>2026-04-11T15:09:50.271Z</time></trkpt><trkpt lat="40.5803648" lon="9.7810488"><ele>0.0</ele><time>2026-04-11T15:09:51.254Z</time></trkpt><trkpt lat="40.5804105" lon="9.7809716"><ele>0.16666666666666666</ele><time>2026-04-11T15:09:52.263Z</time></trkpt><trkpt lat="40.5804682" lon="9.7809089"><ele>0.3333333333333333</ele><time>2026-04-11T15:09:53.252Z</time></trkpt><trkpt lat="40.5805325" lon="9.7808404"><ele>0.5</ele><time>2026-04-11T15:09:54.263Z</time></trkpt><trkpt lat="40.5805942" lon="9.7807701"><ele>0.6666666666666666</ele><time>2026-04-11T15:09:55.259Z</time></trkpt><trkpt lat="40.580656" lon="9.7807069"><ele>0.8333333333333333</ele><time>2026-04-11T15:09:56.254Z</time></trkpt><trkpt lat="40.5807172" lon="9.7806461"><ele>1.0</ele><time>2026-04-11T15:09:57.256Z</time></trkpt><trkpt lat="40.5807757" lon="9.7805912"><ele>1.0</ele><time>2026-04-11T15:09:58.245Z</time></trkpt><trkpt lat="40.5808312" lon="9.7805183"><ele>1.0</ele><time>2026-04-11T15:09:59.245Z</time></trkpt><trkpt lat="40.5808765" lon="9.7804067"><ele>1.0</ele><time>2026-04-11T15:10:00.262Z</time></trkpt><trkpt lat="40.5809239" lon="9.7802759"><ele>1.0</ele><time>2026-04-11T15:10:01.254Z</time></trkpt><trkpt lat="40.5809752" lon="9.7801451"><ele>1.0</ele><time>2026-04-11T15:10:02.245Z</time></trkpt><trkpt lat="40.5810214" lon="9.7800076"><ele>1.0</ele><time>2026-04-11T15:10:03.251Z</time></trkpt><trkpt lat="40.5810709" lon="9.7798722"><ele>1.0</ele><time>2026-04-11T15:10:04.262Z</time></trkpt><trkpt lat="40.5811253" lon="9.7797375"><ele>1.0</ele><time>2026-04-11T15:10:05.248Z</time></trkpt><trkpt lat="40.5811823" lon="9.7795983"><ele>1.0</ele><time>2026-04-11T15:10:06.242Z</time></trkpt><trkpt lat="40.5812414" lon="9.7794579"><ele>1.2000000000000002</ele><time>2026-04-11T15:10:07.253Z</time></trkpt><trkpt lat="40.5812971" lon="9.779329"><ele>1.4000000000000001</ele><time>2026-04-11T15:10:08.256Z</time></trkpt><trkpt lat="40.5813484" lon="9.7792117"><ele>1.6</ele><time>2026-04-11T15:10:09.26Z</time></trkpt><trkpt lat="40.5813927" lon="9.7791049"><ele>1.8</ele><time>2026-04-11T15:10:10.256Z</time></trkpt><trkpt lat="40.5814304" lon="9.7789967"><ele>2.0</ele><time>2026-04-11T15:10:11.246Z</time></trkpt><trkpt lat="40.5814639" lon="9.7788943"><ele>1.9999999999999998</ele><time>2026-04-11T15:10:12.257Z</time></trkpt><trkpt lat="40.5814948" lon="9.7788029"><ele>2.0</ele><time>2026-04-11T15:10:13.241Z</time></trkpt><trkpt lat="40.5815206" lon="9.7787206"><ele>2.0</ele><time>2026-04-11T15:10:14.267Z</time></trkpt><trkpt lat="40.5815552" lon="9.7785857"><ele>2.0</ele><time>2026-04-11T15:10:16.263Z</time></trkpt><trkpt lat="40.5815081" lon="9.778495"><ele>1.9999999999999998</ele><time>2026-04-11T15:10:18.246Z</time></trkpt><trkpt lat="40.5814177" lon="9.7784105"><ele>2.0</ele><time>2026-04-11T15:10:20.262Z</time></trkpt><trkpt lat="40.5813751" lon="9.7782723"><ele>2.333333333333333</ele><time>2026-04-11T15:10:22.287Z</time></trkpt><trkpt lat="40.5813318" lon="9.7781718"><ele>2.6666666666666665</ele><time>2026-04-11T15:10:24.268Z</time></trkpt><trkpt lat="40.5812971" lon="9.7780712"><ele>3.0</ele><time>2026-04-11T15:10:26.262Z</time></trkpt><trkpt lat="40.5812685" lon="9.7779915"><ele>3.333333333333333</ele><time>2026-04-11T15:10:28.249Z</time></trkpt><trkpt lat="40.581227" lon="9.7779066"><ele>3.6666666666666665</ele><time>2026-04-11T15:10:31.268Z</time></trkpt><trkpt lat="40.5811944" lon="9.7778224"><ele>4.0</ele><time>2026-04-11T15:10:34.259Z</time></trkpt><trkpt lat="40.5812044" lon="9.7777169"><ele>4.5</ele><time>2026-04-11T15:10:36.257Z</time></trkpt><trkpt lat="40.5812313" lon="9.7775956"><ele>5.0</ele><time>2026-04-11T15:10:38.266Z</time></trkpt><trkpt lat="40.5812377" lon="9.777478"><ele>5.5</ele><time>2026-04-11T15:10:40.281Z</time></trkpt><trkpt lat="40.5812151" lon="9.7773782"><ele>6.0</ele><time>2026-04-11T15:10:42.252Z</time></trkpt><trkpt lat="40.5811715" lon="9.7772858"><ele>6.500000000000001</ele><time>2026-04-11T15:10:45.259Z</time></trkpt><trkpt lat="40.5811284" lon="9.7772119"><ele>7.0</ele><time>2026-04-11T15:10:48.267Z</time></trkpt><trkpt lat="40.5810502" lon="9.7771264"><ele>7.333333333333334</ele><time>2026-04-11T15:11:02.244Z</time></trkpt><trkpt lat="40.5810052" lon="9.7770585"><ele>7.666666666666667</ele><time>2026-04-11T15:11:03.261Z</time></trkpt><trkpt lat="40.5809561" lon="9.7769822"><ele>8.0</ele><time>2026-04-11T15:11:04.247Z</time></trkpt><trkpt lat="40.5808988" lon="9.7769055"><ele>8.333333333333334</ele><time>2026-04-11T15:11:05.245Z</time></trkpt><trkpt lat="40.5808433" lon="9.7768197"><ele>8.666666666666666</ele><time>2026-04-11T15:11:06.25Z</time></trkpt><trkpt lat="40.5807817" lon="9.7767303"><ele>9.0</ele><time>2026-04-11T15:11:07.253Z</time></trkpt><trkpt lat="40.5807278" lon="9.7766478"><ele>9.0</ele><time>2026-04-11T15:11:08.263Z</time></trkpt><trkpt lat="40.5806756" lon="9.7765666"><ele>9.0</ele><time>2026-04-11T15:11:09.244Z</time></trkpt><trkpt lat="40.5806262" lon="9.7764846"><ele>9.0</ele><time>2026-04-11T15:11:10.259Z</time></trkpt><trkpt lat="40.5805756" lon="9.7764113"><ele>9.0</ele><time>2026-04-11T15:11:11.252Z</time></trkpt><trkpt lat="40.5805227" lon="9.7763405"><ele>9.0</ele><time>2026-04-11T15:11:12.25Z</time></trkpt><trkpt lat="40.580467" lon="9.7762684"><ele>9.0</ele><time>2026-04-11T15:11:13.252Z</time></trkpt><trkpt lat="40.5804118" lon="9.7761933"><ele>9.0</ele><time>2026-04-11T15:11:14.27Z</time></trkpt><trkpt lat="40.5803541" lon="9.7761163"><ele>9.0</ele><time>2026-04-11T15:11:15.255Z</time></trkpt><trkpt lat="40.5803003" lon="9.7760351"><ele>9.0</ele><time>2026-04-11T15:11:16.262Z</time></trkpt><trkpt lat="40.5802504" lon="9.7759521"><ele>9.0</ele><time>2026-04-11T15:11:17.252Z</time></trkpt><trkpt lat="40.5801972" lon="9.7758679"><ele>9.0</ele><time>2026-04-11T15:11:18.255Z</time></trkpt><trkpt lat="40.5801445" lon="9.7757778"><ele>9.0</ele><time>2026-04-11T15:11:19.254Z</time></trkpt><trkpt lat="40.5800922" lon="9.7756905"><ele>9.4</ele><time>2026-04-11T15:11:20.255Z</time></trkpt><trkpt lat="40.5800433" lon="9.7756071"><ele>9.8</ele><time>2026-04-11T15:11:21.245Z</time></trkpt><trkpt lat="40.579981" lon="9.7755009"><ele>10.200000000000001</ele><time>2026-04-11T15:11:22.247Z</time></trkpt><trkpt lat="40.5799013" lon="9.7753784"><ele>10.600000000000001</ele><time>2026-04-11T15:11:23.25Z</time></trkpt><trkpt lat="40.5798214" lon="9.7752488"><ele>11.0</ele><time>2026-04-11T15:11:24.252Z</time></trkpt><trkpt lat="40.579739" lon="9.7751189"><ele>11.0</ele><time>2026-04-11T15:11:25.259Z</time></trkpt><trkpt lat="40.5796531" lon="9.7749786"><ele>11.0</ele><time>2026-04-11T15:11:26.264Z</time></trkpt><trkpt lat="40.5795665" lon="9.7748372"><ele>11.0</ele><time>2026-04-11T15:11:27.249Z</time></trkpt><trkpt lat="40.5794908" lon="9.774712"><ele>11.0</ele><time>2026-04-11T15:11:28.246Z</time></trkpt><trkpt lat="40.5794398" lon="9.7746076"><ele>11.333333333333332</ele><time>2026-04-11T15:11:29.251Z</time></trkpt><trkpt lat="40.5793924" lon="9.7745237"><ele>11.666666666666666</ele><time>2026-04-11T15:11:30.246Z</time></trkpt><trkpt lat="40.579344" lon="9.7744397"><ele>12.0</ele><time>2026-04-11T15:11:31.257Z</time></trkpt><trkpt lat="40.579293" lon="9.7743597"><ele>12.333333333333332</ele><time>2026-04-11T15:11:32.252Z</time></trkpt><trkpt lat="40.5792431" lon="9.7742686"><ele>12.666666666666666</ele><time>2026-04-11T15:11:33.265Z</time></trkpt><trkpt lat="40.5791896" lon="9.7741706"><ele>13.0</ele><time>2026-04-11T15:11:34.264Z</time></trkpt><trkpt lat="40.5791285" lon="9.7740709"><ele>13.0</ele><time>2026-04-11T15:11:35.254Z</time></trkpt><trkpt lat="40.5790659" lon="9.7739614"><ele>13.0</ele><time>2026-04-11T15:11:36.243Z</time></trkpt><trkpt lat="40.5789956" lon="9.773848"><ele>13.0</ele><time>2026-04-11T15:11:37.255Z</time></trkpt><trkpt lat="40.5788981" lon="9.773707"><ele>13.0</ele><time>2026-04-11T15:11:38.244Z</time></trkpt><trkpt lat="40.5787841" lon="9.7735296"><ele>11.666666666666666</ele><time>2026-04-11T15:11:39.26Z</time></trkpt><trkpt lat="40.5786609" lon="9.7733247"><ele>10.333333333333332</ele><time>2026-04-11T15:11:40.248Z</time></trkpt><trkpt lat="40.5785331" lon="9.7730968"><ele>9.0</ele><time>2026-04-11T15:11:41.257Z</time></trkpt><trkpt lat="40.5784108" lon="9.7728801"><ele>8.666666666666666</ele><time>2026-04-11T15:11:42.247Z</time></trkpt><trkpt lat="40.5782985" lon="9.7726796"><ele>8.333333333333332</ele><time>2026-04-11T15:11:43.246Z</time></trkpt><trkpt lat="40.5782023" lon="9.772498"><ele>8.0</ele><time>2026-04-11T15:11:44.246Z</time></trkpt><trkpt lat="40.5781109" lon="9.7723204"><ele>8.0</ele><time>2026-04-11T15:11:45.249Z</time></trkpt><trkpt lat="40.5780142" lon="9.7721478"><ele>8.0</ele><time>2026-04-11T15:11:46.247Z</time></trkpt><trkpt lat="40.5779235" lon="9.7719845"><ele>8.0</ele><time>2026-04-11T15:11:47.259Z</time></trkpt><trkpt lat="40.5778385" lon="9.7718282"><ele>8.0</ele><time>2026-04-11T15:11:48.244Z</time></trkpt><trkpt lat="40.5777601" lon="9.7716663"><ele>8.0</ele><time>2026-04-11T15:11:49.242Z</time></trkpt><trkpt lat="40.5776872" lon="9.7714985"><ele>8.0</ele><time>2026-04-11T15:11:50.246Z</time></trkpt><trkpt lat="40.5776208" lon="9.7713283"><ele>8.0</ele><time>2026-04-11T15:11:51.269Z</time></trkpt><trkpt lat="40.5775565" lon="9.7711532"><ele>7.5</ele><time>2026-04-11T15:11:52.25Z</time></trkpt><trkpt lat="40.5774974" lon="9.7709803"><ele>7.0</ele><time>2026-04-11T15:11:53.257Z</time></trkpt><trkpt lat="40.5774374" lon="9.7708"><ele>6.5</ele><time>2026-04-11T15:11:54.282Z</time></trkpt><trkpt lat="40.577375" lon="9.7706235"><ele>6.0</ele><time>2026-04-11T15:11:55.254Z</time></trkpt><trkpt lat="40.5773079" lon="9.770443"><ele>6.0</ele><time>2026-04-11T15:11:56.251Z</time></trkpt><trkpt lat="40.5772395" lon="9.7702566"><ele>6.0</ele><time>2026-04-11T15:11:57.25Z</time></trkpt><trkpt lat="40.5771701" lon="9.7700703"><ele>6.0</ele><time>2026-04-11T15:11:58.241Z</time></trkpt><trkpt lat="40.577106" lon="9.7698774"><ele>6.333333333333334</ele><time>2026-04-11T15:11:59.241Z</time></trkpt><trkpt lat="40.5770412" lon="9.7696878"><ele>6.666666666666667</ele><time>2026-04-11T15:12:00.255Z</time></trkpt><trkpt lat="40.5769773" lon="9.7694966"><ele>7.0</ele><time>2026-04-11T15:12:01.249Z</time></trkpt><trkpt lat="40.5769103" lon="9.7693071"><ele>7.666666666666667</ele><time>2026-04-11T15:12:02.244Z</time></trkpt><trkpt lat="40.576846" lon="9.7691139"><ele>8.333333333333334</ele><time>2026-04-11T15:12:03.256Z</time></trkpt><trkpt lat="40.5767804" lon="9.7689245"><ele>9.0</ele><time>2026-04-11T15:12:04.249Z</time></trkpt><trkpt lat="40.5767117" lon="9.7687351"><ele>9.0</ele><time>2026-04-11T15:12:05.24Z</time></trkpt><trkpt lat="40.576645" lon="9.7685456"><ele>9.0</ele><time>2026-04-11T15:12:06.237Z</time></trkpt><trkpt lat="40.576581" lon="9.7683527"><ele>9.0</ele><time>2026-04-11T15:12:07.257Z</time></trkpt><trkpt lat="40.5765115" lon="9.768161"><ele>9.0</ele><time>2026-04-11T15:12:08.247Z</time></trkpt><trkpt lat="40.57644" lon="9.7679654"><ele>9.0</ele><time>2026-04-11T15:12:09.254Z</time></trkpt><trkpt lat="40.5763708" lon="9.7677654"><ele>9.0</ele><time>2026-04-11T15:12:10.249Z</time></trkpt><trkpt lat="40.5763014" lon="9.7675649"><ele>8.666666666666666</ele><time>2026-04-11T15:12:11.241Z</time></trkpt><trkpt lat="40.5762332" lon="9.7673629"><ele>8.333333333333332</ele><time>2026-04-11T15:12:12.24Z</time></trkpt><trkpt lat="40.5761635" lon="9.7671605"><ele>8.0</ele><time>2026-04-11T15:12:13.244Z</time></trkpt><trkpt lat="40.5760945" lon="9.7669598"><ele>9.25</ele><time>2026-04-11T15:12:14.241Z</time></trkpt><trkpt lat="40.5760303" lon="9.766773"><ele>10.5</ele><time>2026-04-11T15:12:15.242Z</time></trkpt><trkpt lat="40.5759714" lon="9.7666057"><ele>11.75</ele><time>2026-04-11T15:12:16.232Z</time></trkpt><trkpt lat="40.5759232" lon="9.7664543"><ele>13.0</ele><time>2026-04-11T15:12:17.246Z</time></trkpt><trkpt lat="40.5758778" lon="9.7663176"><ele>12.999999999999998</ele><time>2026-04-11T15:12:18.249Z</time></trkpt><trkpt lat="40.5758393" lon="9.7661866"><ele>13.0</ele><time>2026-04-11T15:12:19.248Z</time></trkpt><trkpt lat="40.5757984" lon="9.7660651"><ele>13.0</ele><time>2026-04-11T15:12:20.244Z</time></trkpt><trkpt lat="40.5757618" lon="9.765964"><ele>13.0</ele><time>2026-04-11T15:12:21.246Z</time></trkpt><trkpt lat="40.5757218" lon="9.7658789"><ele>12.999999999999998</ele><time>2026-04-11T15:12:22.23Z</time></trkpt><trkpt lat="40.5756842" lon="9.7658111"><ele>13.0</ele><time>2026-04-11T15:12:23.252Z</time></trkpt><trkpt lat="40.5756296" lon="9.7656833"><ele>12.0</ele><time>2026-04-11T15:12:25.238Z</time></trkpt><trkpt lat="40.5756124" lon="9.7655946"><ele>11.0</ele><time>2026-04-11T15:12:26.232Z</time></trkpt><trkpt lat="40.5755948" lon="9.7654848"><ele>10.0</ele><time>2026-04-11T15:12:27.25Z</time></trkpt><trkpt lat="40.575581" lon="9.7653455"><ele>9.0</ele><time>2026-04-11T15:12:28.247Z</time></trkpt><trkpt lat="40.5755688" lon="9.765191"><ele>8.0</ele><time>2026-04-11T15:12:29.238Z</time></trkpt><trkpt lat="40.5755584" lon="9.7650213"><ele>7.5</ele><time>2026-04-11T15:12:30.244Z</time></trkpt><trkpt lat="40.575548" lon="9.7648521"><ele>7.0</ele><time>2026-04-11T15:12:31.244Z</time></trkpt><trkpt lat="40.5755377" lon="9.7646753"><ele>6.5</ele><time>2026-04-11T15:12:32.227Z</time></trkpt><trkpt lat="40.5755241" lon="9.7645047"><ele>6.0</ele><time>2026-04-11T15:12:33.234Z</time></trkpt><trkpt lat="40.5755123" lon="9.7643326"><ele>5.75</ele><time>2026-04-11T15:12:34.231Z</time></trkpt><trkpt lat="40.5754967" lon="9.76417"><ele>5.5</ele><time>2026-04-11T15:12:35.246Z</time></trkpt><trkpt lat="40.5754731" lon="9.7640168"><ele>5.25</ele><time>2026-04-11T15:12:36.224Z</time></trkpt><trkpt lat="40.5754375" lon="9.7638776"><ele>5.0</ele><time>2026-04-11T15:12:37.236Z</time></trkpt><trkpt lat="40.5753998" lon="9.7637525"><ele>5.0</ele><time>2026-04-11T15:12:38.252Z</time></trkpt><trkpt lat="40.5753719" lon="9.7636328"><ele>5.0</ele><time>2026-04-11T15:12:39.237Z</time></trkpt><trkpt lat="40.5753636" lon="9.7635065"><ele>5.0</ele><time>2026-04-11T15:12:40.242Z</time></trkpt><trkpt lat="40.5753872" lon="9.7633634"><ele>5.0</ele><time>2026-04-11T15:12:41.254Z</time></trkpt><trkpt lat="40.5754265" lon="9.7632232"><ele>5.0</ele><time>2026-04-11T15:12:42.248Z</time></trkpt><trkpt lat="40.575474" lon="9.7630937"><ele>5.0</ele><time>2026-04-11T15:12:43.231Z</time></trkpt><trkpt lat="40.5755345" lon="9.7629883"><ele>5.0</ele><time>2026-04-11T15:12:44.231Z</time></trkpt><trkpt lat="40.5756143" lon="9.7629215"><ele>5.0</ele><time>2026-04-11T15:12:45.24Z</time></trkpt><trkpt lat="40.5757143" lon="9.7628967"><ele>5.0</ele><time>2026-04-11T15:12:46.228Z</time></trkpt><trkpt lat="40.5758204" lon="9.7629075"><ele>5.0</ele><time>2026-04-11T15:12:47.241Z</time></trkpt><trkpt lat="40.5759212" lon="9.7629295"><ele>5.0</ele><time>2026-04-11T15:12:48.231Z</time></trkpt><trkpt lat="40.5760084" lon="9.7629403"><ele>5.0</ele><time>2026-04-11T15:12:49.25Z</time></trkpt><trkpt lat="40.5760953" lon="9.7629469"><ele>5.0</ele><time>2026-04-11T15:12:50.238Z</time></trkpt><trkpt lat="40.5761962" lon="9.7629454"><ele>5.0</ele><time>2026-04-11T15:12:52.253Z</time></trkpt><trkpt lat="40.5762503" lon="9.762899"><ele>5.0</ele><time>2026-04-11T15:12:55.251Z</time></trkpt><trkpt lat="40.576231" lon="9.7627567"><ele>5.4</ele><time>2026-04-11T15:12:58.237Z</time></trkpt><trkpt lat="40.5762173" lon="9.76264"><ele>5.8</ele><time>2026-04-11T15:13:00.271Z</time></trkpt><trkpt lat="40.5762116" lon="9.7625098"><ele>6.199999999999999</ele><time>2026-04-11T15:13:02.235Z</time></trkpt><trkpt lat="40.5762064" lon="9.7623687"><ele>6.6</ele><time>2026-04-11T15:13:04.243Z</time></trkpt><trkpt lat="40.5761972" lon="9.7622192"><ele>7.0</ele><time>2026-04-11T15:13:06.25Z</time></trkpt><trkpt lat="40.5761957" lon="9.7621352"><ele>7.000000000000001</ele><time>2026-04-11T15:13:07.246Z</time></trkpt><trkpt lat="40.5761908" lon="9.7620442"><ele>7.0</ele><time>2026-04-11T15:13:08.245Z</time></trkpt><trkpt lat="40.5761864" lon="9.7619468"><ele>7.0</ele><time>2026-04-11T15:13:09.248Z</time></trkpt><trkpt lat="40.5761817" lon="9.7618441"><ele>7.0</ele><time>2026-04-11T15:13:10.238Z</time></trkpt><trkpt lat="40.5761772" lon="9.7617406"><ele>7.000000000000001</ele><time>2026-04-11T15:13:11.238Z</time></trkpt><trkpt lat="40.576176" lon="9.7616369"><ele>7.0</ele><time>2026-04-11T15:13:12.243Z</time></trkpt><trkpt lat="40.5761765" lon="9.7615268"><ele>7.500000000000001</ele><time>2026-04-11T15:13:13.254Z</time></trkpt><trkpt lat="40.5761723" lon="9.7614136"><ele>8.0</ele><time>2026-04-11T15:13:14.247Z</time></trkpt><trkpt lat="40.5761666" lon="9.7613038"><ele>8.5</ele><time>2026-04-11T15:13:15.238Z</time></trkpt><trkpt lat="40.5761615" lon="9.7612137"><ele>9.0</ele><time>2026-04-11T15:13:16.26Z</time></trkpt><trkpt lat="40.576158" lon="9.7610599"><ele>9.5</ele><time>2026-04-11T15:13:18.244Z</time></trkpt><trkpt lat="40.5761465" lon="9.76094"><ele>10.0</ele><time>2026-04-11T15:13:20.244Z</time></trkpt><trkpt lat="40.5760976" lon="9.7608805"><ele>11.0</ele><time>2026-04-11T15:13:22.248Z</time></trkpt><trkpt lat="40.5759808" lon="9.7608564"><ele>12.0</ele><time>2026-04-11T15:13:24.246Z</time></trkpt><trkpt lat="40.575893" lon="9.7608574"><ele>13.0</ele><time>2026-04-11T15:13:25.249Z</time></trkpt><trkpt lat="40.5757937" lon="9.7608569"><ele>14.0</ele><time>2026-04-11T15:13:26.246Z</time></trkpt><trkpt lat="40.575689" lon="9.7608552"><ele>15.0</ele><time>2026-04-11T15:13:27.249Z</time></trkpt><trkpt lat="40.5755868" lon="9.7608433"><ele>15.0</ele><time>2026-04-11T15:13:28.242Z</time></trkpt><trkpt lat="40.5754853" lon="9.7608298"><ele>15.0</ele><time>2026-04-11T15:13:29.258Z</time></trkpt><trkpt lat="40.5753884" lon="9.7607917"><ele>15.0</ele><time>2026-04-11T15:13:30.237Z</time></trkpt><trkpt lat="40.5752934" lon="9.7607441"><ele>15.0</ele><time>2026-04-11T15:13:31.247Z</time></trkpt><trkpt lat="40.5752045" lon="9.7606836"><ele>15.0</ele><time>2026-04-11T15:13:32.244Z</time></trkpt><trkpt lat="40.5751191" lon="9.7606243"><ele>14.333333333333334</ele><time>2026-04-11T15:13:33.241Z</time></trkpt><trkpt lat="40.5750321" lon="9.7605768"><ele>13.666666666666666</ele><time>2026-04-11T15:13:34.251Z</time></trkpt><trkpt lat="40.5749393" lon="9.7605351"><ele>13.0</ele><time>2026-04-11T15:13:35.253Z</time></trkpt><trkpt lat="40.5748566" lon="9.7604988"><ele>12.333333333333332</ele><time>2026-04-11T15:13:36.242Z</time></trkpt><trkpt lat="40.5747811" lon="9.7604711"><ele>11.666666666666666</ele><time>2026-04-11T15:13:37.268Z</time></trkpt><trkpt lat="40.5747048" lon="9.7604463"><ele>11.0</ele><time>2026-04-11T15:13:38.242Z</time></trkpt><trkpt lat="40.5746257" lon="9.7604145"><ele>11.0</ele><time>2026-04-11T15:13:39.257Z</time></trkpt><trkpt lat="40.574549" lon="9.7603716"><ele>11.0</ele><time>2026-04-11T15:13:40.242Z</time></trkpt><trkpt lat="40.5744714" lon="9.7603278"><ele>11.0</ele><time>2026-04-11T15:13:41.249Z</time></trkpt><trkpt lat="40.5744032" lon="9.7602909"><ele>11.0</ele><time>2026-04-11T15:13:42.262Z</time></trkpt><trkpt lat="40.5743415" lon="9.7602492"><ele>11.0</ele><time>2026-04-11T15:13:43.252Z</time></trkpt><trkpt lat="40.5742859" lon="9.7601987"><ele>11.0</ele><time>2026-04-11T15:13:44.24Z</time></trkpt><trkpt lat="40.5742071" lon="9.7600928"><ele>11.333333333333332</ele><time>2026-04-11T15:13:46.258Z</time></trkpt><trkpt lat="40.5741408" lon="9.7599419"><ele>11.666666666666666</ele><time>2026-04-11T15:13:48.275Z</time></trkpt><trkpt lat="40.5741095" lon="9.7598492"><ele>12.0</ele><time>2026-04-11T15:13:49.26Z</time></trkpt><trkpt lat="40.5740781" lon="9.759758"><ele>12.333333333333332</ele><time>2026-04-11T15:13:50.26Z</time></trkpt><trkpt lat="40.5740505" lon="9.759671"><ele>12.666666666666666</ele><time>2026-04-11T15:13:51.252Z</time></trkpt><trkpt lat="40.5740248" lon="9.7595835"><ele>13.0</ele><time>2026-04-11T15:13:52.247Z</time></trkpt><trkpt lat="40.573999" lon="9.7594943"><ele>12.999999999999998</ele><time>2026-04-11T15:13:53.253Z</time></trkpt><trkpt lat="40.5739759" lon="9.7594099"><ele>13.0</ele><time>2026-04-11T15:13:54.248Z</time></trkpt><trkpt lat="40.5739521" lon="9.759327"><ele>13.0</ele><time>2026-04-11T15:13:55.272Z</time></trkpt><trkpt lat="40.5739297" lon="9.7592467"><ele>13.0</ele><time>2026-04-11T15:13:56.245Z</time></trkpt><trkpt lat="40.5739044" lon="9.7591703"><ele>12.999999999999998</ele><time>2026-04-11T15:13:57.248Z</time></trkpt><trkpt lat="40.5738824" lon="9.7590921"><ele>13.0</ele><time>2026-04-11T15:13:58.245Z</time></trkpt><trkpt lat="40.5738319" lon="9.7589356"><ele>13.666666666666666</ele><time>2026-04-11T15:14:00.25Z</time></trkpt><trkpt lat="40.5738045" lon="9.7588451"><ele>14.333333333333332</ele><time>2026-04-11T15:14:01.254Z</time></trkpt><trkpt lat="40.5737728" lon="9.7587485"><ele>15.0</ele><time>2026-04-11T15:14:02.287Z</time></trkpt><trkpt lat="40.5737417" lon="9.7586448"><ele>15.666666666666668</ele><time>2026-04-11T15:14:03.252Z</time></trkpt><trkpt lat="40.5737101" lon="9.7585474"><ele>16.333333333333336</ele><time>2026-04-11T15:14:04.251Z</time></trkpt><trkpt lat="40.5736809" lon="9.7584556"><ele>17.0</ele><time>2026-04-11T15:14:05.244Z</time></trkpt><trkpt lat="40.57365" lon="9.7583693"><ele>17.5</ele><time>2026-04-11T15:14:06.246Z</time></trkpt><trkpt lat="40.5736199" lon="9.7582913"><ele>18.0</ele><time>2026-04-11T15:14:07.264Z</time></trkpt><trkpt lat="40.5735647" lon="9.7581621"><ele>18.5</ele><time>2026-04-11T15:14:09.24Z</time></trkpt><trkpt lat="40.5735193" lon="9.7580464"><ele>19.0</ele><time>2026-04-11T15:14:11.255Z</time></trkpt><trkpt lat="40.5734902" lon="9.7579398"><ele>19.5</ele><time>2026-04-11T15:14:13.25Z</time></trkpt><trkpt lat="40.57348" lon="9.7578519"><ele>20.0</ele><time>2026-04-11T15:14:17.258Z</time></trkpt><trkpt lat="40.5734503" lon="9.7577337"><ele>20.857142857142858</ele><time>2026-04-11T15:15:02.259Z</time></trkpt><trkpt lat="40.5734376" lon="9.7576457"><ele>21.714285714285715</ele><time>2026-04-11T15:15:04.239Z</time></trkpt><trkpt lat="40.573432" lon="9.7575619"><ele>22.57142857142857</ele><time>2026-04-11T15:15:07.263Z</time></trkpt><trkpt lat="40.5734158" lon="9.757475"><ele>23.42857142857143</ele><time>2026-04-11T15:15:10.25Z</time></trkpt><trkpt lat="40.5734062" lon="9.7573897"><ele>24.28571428571429</ele><time>2026-04-11T15:15:13.239Z</time></trkpt><trkpt lat="40.5733893" lon="9.7573079"><ele>25.142857142857142</ele><time>2026-04-11T15:17:48.193Z</time></trkpt><trkpt lat="40.5733582" lon="9.7572152"><ele>26.0</ele><time>2026-04-11T15:17:50.206Z</time></trkpt><trkpt lat="40.5733382" lon="9.7571349"><ele>25.999999999999996</ele><time>2026-04-11T15:17:52.196Z</time></trkpt><trkpt lat="40.5733088" lon="9.7570466"><ele>26.0</ele><time>2026-04-11T15:17:54.182Z</time></trkpt><trkpt lat="40.573291" lon="9.7569502"><ele>26.0</ele><time>2026-04-11T15:17:58.194Z</time></trkpt><trkpt lat="40.5732533" lon="9.756846"><ele>26.0</ele><time>2026-04-11T15:18:17.178Z</time></trkpt><trkpt lat="40.5732229" lon="9.7567437"><ele>25.999999999999996</ele><time>2026-04-11T15:18:19.195Z</time></trkpt><trkpt lat="40.5731846" lon="9.7566422"><ele>26.0</ele><time>2026-04-11T15:18:21.167Z</time></trkpt><trkpt lat="40.5731353" lon="9.7565609"><ele>26.666666666666664</ele><time>2026-04-11T15:18:23.181Z</time></trkpt><trkpt lat="40.5730835" lon="9.7564951"><ele>27.333333333333332</ele><time>2026-04-11T15:18:25.19Z</time></trkpt><trkpt lat="40.5730194" lon="9.7564094"><ele>28.0</ele><time>2026-04-11T15:18:28.183Z</time></trkpt><trkpt lat="40.5729655" lon="9.7563311"><ele>28.666666666666664</ele><time>2026-04-11T15:18:31.17Z</time></trkpt><trkpt lat="40.5728991" lon="9.7562449"><ele>29.333333333333332</ele><time>2026-04-11T15:20:10.215Z</time></trkpt><trkpt lat="40.5728358" lon="9.7561503"><ele>30.0</ele><time>2026-04-11T15:20:13.237Z</time></trkpt><trkpt lat="40.5727979" lon="9.756075"><ele>31.666666666666668</ele><time>2026-04-11T15:20:15.219Z</time></trkpt><trkpt lat="40.5727588" lon="9.7559841"><ele>33.333333333333336</ele><time>2026-04-11T15:20:17.212Z</time></trkpt><trkpt lat="40.572722" lon="9.7559056"><ele>35.0</ele><time>2026-04-11T15:20:19.221Z</time></trkpt><trkpt lat="40.5726785" lon="9.7558094"><ele>36.66666666666667</ele><time>2026-04-11T15:20:22.212Z</time></trkpt><trkpt lat="40.5726281" lon="9.7557087"><ele>38.333333333333336</ele><time>2026-04-11T15:22:58.252Z</time></trkpt><trkpt lat="40.5725835" lon="9.7556103"><ele>40.0</ele><time>2026-04-11T15:23:00.253Z</time></trkpt><trkpt lat="40.5725385" lon="9.7555135"><ele>40.0</ele><time>2026-04-11T15:23:02.257Z</time></trkpt><trkpt lat="40.5724885" lon="9.7554088"><ele>40.0</ele><time>2026-04-11T15:23:04.268Z</time></trkpt><trkpt lat="40.5724305" lon="9.7553059"><ele>40.0</ele><time>2026-04-11T15:23:06.248Z</time></trkpt><trkpt lat="40.5723788" lon="9.7552192"><ele>40.0</ele><time>2026-04-11T15:23:08.25Z</time></trkpt><trkpt lat="40.5723178" lon="9.7551555"><ele>40.0</ele><time>2026-04-11T15:23:12.248Z</time></trkpt><trkpt lat="40.5722565" lon="9.7551158"><ele>40.0</ele><time>2026-04-11T15:23:16.238Z</time></trkpt><trkpt lat="40.5722012" lon="9.7550727"><ele>40.8</ele><time>2026-04-11T15:23:22.267Z</time></trkpt><trkpt lat="40.5721322" lon="9.7550322"><ele>41.6</ele><time>2026-04-11T15:23:36.237Z</time></trkpt><trkpt lat="40.5720508" lon="9.7549643"><ele>42.400000000000006</ele><time>2026-04-11T15:23:38.235Z</time></trkpt><trkpt lat="40.5719637" lon="9.7548854"><ele>43.2</ele><time>2026-04-11T15:23:40.225Z</time></trkpt><trkpt lat="40.5718815" lon="9.7547947"><ele>44.0</ele><time>2026-04-11T15:23:42.236Z</time></trkpt><trkpt lat="40.5718417" lon="9.7547133"><ele>44.0</ele><time>2026-04-11T15:23:44.247Z</time></trkpt><trkpt lat="40.571811" lon="9.7546293"><ele>44.0</ele><time>2026-04-11T15:23:46.234Z</time></trkpt><trkpt lat="40.5717729" lon="9.754522"><ele>44.0</ele><time>2026-04-11T15:23:48.274Z</time></trkpt><trkpt lat="40.5717628" lon="9.7543737"><ele>44.0</ele><time>2026-04-11T15:23:50.251Z</time></trkpt><trkpt lat="40.5717536" lon="9.7542319"><ele>44.0</ele><time>2026-04-11T15:23:52.223Z</time></trkpt><trkpt lat="40.5717397" lon="9.7540956"><ele>45.166666666666664</ele><time>2026-04-11T15:23:54.23Z</time></trkpt><trkpt lat="40.5717092" lon="9.7539937"><ele>46.33333333333333</ele><time>2026-04-11T15:23:56.258Z</time></trkpt><trkpt lat="40.5716761" lon="9.7539051"><ele>47.5</ele><time>2026-04-11T15:23:58.239Z</time></trkpt><trkpt lat="40.5716555" lon="9.7538251"><ele>48.666666666666664</ele><time>2026-04-11T15:24:00.239Z</time></trkpt><trkpt lat="40.5716382" lon="9.7537355"><ele>49.833333333333336</ele><time>2026-04-11T15:24:02.243Z</time></trkpt><trkpt lat="40.5716541" lon="9.7536286"><ele>51.0</ele><time>2026-04-11T15:24:04.215Z</time></trkpt><trkpt lat="40.5716823" lon="9.7534776"><ele>51.666666666666664</ele><time>2026-04-11T15:24:06.211Z</time></trkpt><trkpt lat="40.5717" lon="9.7533945"><ele>52.33333333333333</ele><time>2026-04-11T15:24:07.244Z</time></trkpt><trkpt lat="40.5717294" lon="9.7532663"><ele>53.0</ele><time>2026-04-11T15:24:09.231Z</time></trkpt><trkpt lat="40.5717804" lon="9.7531233"><ele>53.666666666666664</ele><time>2026-04-11T15:24:12.215Z</time></trkpt><trkpt lat="40.571811" lon="9.7530431"><ele>54.33333333333333</ele><time>2026-04-11T15:24:13.263Z</time></trkpt><trkpt lat="40.5718418" lon="9.7529581"><ele>55.0</ele><time>2026-04-11T15:24:14.214Z</time></trkpt><trkpt lat="40.5718681" lon="9.7528639"><ele>55.0</ele><time>2026-04-11T15:24:15.231Z</time></trkpt><trkpt lat="40.5718887" lon="9.7527696"><ele>55.0</ele><time>2026-04-11T15:24:16.214Z</time></trkpt><trkpt lat="40.5719096" lon="9.7526816"><ele>55.0</ele><time>2026-04-11T15:24:17.246Z</time></trkpt><trkpt lat="40.5719341" lon="9.7525264"><ele>55.0</ele><time>2026-04-11T15:24:19.208Z</time></trkpt><trkpt lat="40.5719698" lon="9.7523722"><ele>55.0</ele><time>2026-04-11T15:24:21.229Z</time></trkpt><trkpt lat="40.5720133" lon="9.752217"><ele>57.99999999999999</ele><time>2026-04-11T15:24:23.215Z</time></trkpt><trkpt lat="40.5720387" lon="9.7521337"><ele>61.0</ele><time>2026-04-11T15:24:24.209Z</time></trkpt><trkpt lat="40.5720625" lon="9.7520564"><ele>64.0</ele><time>2026-04-11T15:24:25.231Z</time></trkpt><trkpt lat="40.572112" lon="9.7519516"><ele>67.0</ele><time>2026-04-11T15:24:27.208Z</time></trkpt><trkpt lat="40.572215" lon="9.7518626"><ele>70.0</ele><time>2026-04-11T15:24:29.209Z</time></trkpt><trkpt lat="40.5722714" lon="9.7518257"><ele>73.0</ele><time>2026-04-11T15:24:30.216Z</time></trkpt><trkpt lat="40.5723502" lon="9.7517175"><ele>74.25</ele><time>2026-04-11T15:24:32.228Z</time></trkpt><trkpt lat="40.5723953" lon="9.7515765"><ele>75.5</ele><time>2026-04-11T15:24:34.199Z</time></trkpt><trkpt lat="40.5724443" lon="9.7514367"><ele>76.75</ele><time>2026-04-11T15:24:36.229Z</time></trkpt><trkpt lat="40.5724886" lon="9.7513038"><ele>78.0</ele><time>2026-04-11T15:24:38.203Z</time></trkpt><trkpt lat="40.5725641" lon="9.7511789"><ele>78.0</ele><time>2026-04-11T15:24:40.215Z</time></trkpt><trkpt lat="40.5726034" lon="9.751109"><ele>78.0</ele><time>2026-04-11T15:24:41.197Z</time></trkpt><trkpt lat="40.5726414" lon="9.7510305"><ele>78.0</ele><time>2026-04-11T15:24:42.198Z</time></trkpt><trkpt lat="40.5726796" lon="9.75095"><ele>78.0</ele><time>2026-04-11T15:24:43.2Z</time></trkpt><trkpt lat="40.5727162" lon="9.7508636"><ele>78.0</ele><time>2026-04-11T15:24:44.191Z</time></trkpt><trkpt lat="40.5727474" lon="9.7507698"><ele>78.0</ele><time>2026-04-11T15:24:45.209Z</time></trkpt><trkpt lat="40.5727723" lon="9.7506765"><ele>78.0</ele><time>2026-04-11T15:24:46.205Z</time></trkpt><trkpt lat="40.5727919" lon="9.7505878"><ele>79.0</ele><time>2026-04-11T15:24:47.204Z</time></trkpt><trkpt lat="40.5728113" lon="9.7504593"><ele>80.0</ele><time>2026-04-11T15:24:49.221Z</time></trkpt><trkpt lat="40.5728015" lon="9.7503057"><ele>81.0</ele><time>2026-04-11T15:24:51.215Z</time></trkpt><trkpt lat="40.5727861" lon="9.7502253"><ele>82.0</ele><time>2026-04-11T15:24:52.195Z</time></trkpt><trkpt lat="40.572763" lon="9.7501453"><ele>83.0</ele><time>2026-04-11T15:24:53.192Z</time></trkpt><trkpt lat="40.5727089" lon="9.7499956"><ele>84.42857142857143</ele><time>2026-04-11T15:24:55.192Z</time></trkpt><trkpt lat="40.5726802" lon="9.7499197"><ele>85.85714285714286</ele><time>2026-04-11T15:24:56.192Z</time></trkpt><trkpt lat="40.5726502" lon="9.7498366"><ele>87.28571428571429</ele><time>2026-04-11T15:24:57.196Z</time></trkpt><trkpt lat="40.5726204" lon="9.7497465"><ele>88.71428571428572</ele><time>2026-04-11T15:24:58.195Z</time></trkpt><trkpt lat="40.5725931" lon="9.7496613"><ele>90.14285714285714</ele><time>2026-04-11T15:24:59.196Z</time></trkpt><trkpt lat="40.5725641" lon="9.7495766"><ele>91.57142857142858</ele><time>2026-04-11T15:25:00.212Z</time></trkpt><trkpt lat="40.5725355" lon="9.7494912"><ele>93.0</ele><time>2026-04-11T15:25:01.216Z</time></trkpt><trkpt lat="40.5725082" lon="9.7494032"><ele>94.42857142857143</ele><time>2026-04-11T15:25:02.189Z</time></trkpt><trkpt lat="40.57248" lon="9.7493178"><ele>95.85714285714286</ele><time>2026-04-11T15:25:03.188Z</time></trkpt><trkpt lat="40.5724534" lon="9.7492377"><ele>97.28571428571428</ele><time>2026-04-11T15:25:04.201Z</time></trkpt><trkpt lat="40.5724321" lon="9.7491567"><ele>98.71428571428572</ele><time>2026-04-11T15:25:05.189Z</time></trkpt><trkpt lat="40.5724119" lon="9.749072"><ele>100.14285714285714</ele><time>2026-04-11T15:25:06.193Z</time></trkpt><trkpt lat="40.5723888" lon="9.7489829"><ele>101.57142857142857</ele><time>2026-04-11T15:25:07.216Z</time></trkpt><trkpt lat="40.5723771" lon="9.7488831"><ele>103.0</ele><time>2026-04-11T15:25:08.232Z</time></trkpt><trkpt lat="40.5723726" lon="9.7487768"><ele>103.00000000000001</ele><time>2026-04-11T15:25:09.191Z</time></trkpt><trkpt lat="40.5723695" lon="9.748667"><ele>103.0</ele><time>2026-04-11T15:25:10.204Z</time></trkpt><trkpt lat="40.5723628" lon="9.748555"><ele>103.0</ele><time>2026-04-11T15:25:11.192Z</time></trkpt><trkpt lat="40.5723507" lon="9.7484447"><ele>103.0</ele><time>2026-04-11T15:25:12.208Z</time></trkpt><trkpt lat="40.5723264" lon="9.748335"><ele>103.00000000000001</ele><time>2026-04-11T15:25:13.211Z</time></trkpt><trkpt lat="40.5722819" lon="9.7482188"><ele>103.0</ele><time>2026-04-11T15:25:14.191Z</time></trkpt><trkpt lat="40.5722363" lon="9.748098"><ele>104.80000000000001</ele><time>2026-04-11T15:25:15.212Z</time></trkpt><trkpt lat="40.5721918" lon="9.7479796"><ele>106.6</ele><time>2026-04-11T15:25:16.192Z</time></trkpt><trkpt lat="40.5721423" lon="9.7478652"><ele>108.39999999999999</ele><time>2026-04-11T15:25:17.189Z</time></trkpt><trkpt lat="40.5720909" lon="9.747748"><ele>110.19999999999999</ele><time>2026-04-11T15:25:18.208Z</time></trkpt><trkpt lat="40.5720419" lon="9.7476322"><ele>112.0</ele><time>2026-04-11T15:25:19.187Z</time></trkpt><trkpt lat="40.5719863" lon="9.7475103"><ele>112.0</ele><time>2026-04-11T15:25:20.186Z</time></trkpt><trkpt lat="40.5719237" lon="9.7473845"><ele>112.0</ele><time>2026-04-11T15:25:21.202Z</time></trkpt><trkpt lat="40.5718603" lon="9.7472583"><ele>112.0</ele><time>2026-04-11T15:25:22.198Z</time></trkpt><trkpt lat="40.5718085" lon="9.7471223"><ele>112.0</ele><time>2026-04-11T15:25:23.192Z</time></trkpt><trkpt lat="40.571761" lon="9.7469803"><ele>113.6</ele><time>2026-04-11T15:25:24.195Z</time></trkpt><trkpt lat="40.5717114" lon="9.7468512"><ele>115.19999999999999</ele><time>2026-04-11T15:25:25.195Z</time></trkpt><trkpt lat="40.5716671" lon="9.7467503"><ele>116.8</ele><time>2026-04-11T15:25:26.206Z</time></trkpt><trkpt lat="40.5716268" lon="9.7466603"><ele>118.4</ele><time>2026-04-11T15:25:27.186Z</time></trkpt><trkpt lat="40.5715863" lon="9.7465591"><ele>120.0</ele><time>2026-04-11T15:25:28.184Z</time></trkpt><trkpt lat="40.5715503" lon="9.7464396"><ele>120.0</ele><time>2026-04-11T15:25:29.181Z</time></trkpt><trkpt lat="40.5715167" lon="9.7463192"><ele>120.0</ele><time>2026-04-11T15:25:30.209Z</time></trkpt><trkpt lat="40.5714914" lon="9.7461997"><ele>120.0</ele><time>2026-04-11T15:25:31.196Z</time></trkpt><trkpt lat="40.5714676" lon="9.7460801"><ele>120.0</ele><time>2026-04-11T15:25:32.19Z</time></trkpt><trkpt lat="40.5714381" lon="9.7459554"><ele>120.0</ele><time>2026-04-11T15:25:33.205Z</time></trkpt><trkpt lat="40.571411" lon="9.7458298"><ele>120.66666666666667</ele><time>2026-04-11T15:25:34.209Z</time></trkpt><trkpt lat="40.571382" lon="9.7457194"><ele>121.33333333333334</ele><time>2026-04-11T15:25:35.194Z</time></trkpt><trkpt lat="40.5713535" lon="9.745628"><ele>122.0</ele><time>2026-04-11T15:25:36.194Z</time></trkpt><trkpt lat="40.5713226" lon="9.7455485"><ele>122.66666666666667</ele><time>2026-04-11T15:25:37.192Z</time></trkpt><trkpt lat="40.5712836" lon="9.7454708"><ele>123.33333333333334</ele><time>2026-04-11T15:25:38.194Z</time></trkpt><trkpt lat="40.5712375" lon="9.7453895"><ele>124.0</ele><time>2026-04-11T15:25:39.216Z</time></trkpt><trkpt lat="40.5711847" lon="9.7453066"><ele>124.00000000000001</ele><time>2026-04-11T15:25:40.214Z</time></trkpt><trkpt lat="40.5711363" lon="9.7452157"><ele>124.0</ele><time>2026-04-11T15:25:41.231Z</time></trkpt><trkpt lat="40.5710918" lon="9.7451276"><ele>124.0</ele><time>2026-04-11T15:25:42.201Z</time></trkpt><trkpt lat="40.5710484" lon="9.7450452"><ele>124.0</ele><time>2026-04-11T15:25:43.208Z</time></trkpt><trkpt lat="40.5710036" lon="9.7449691"><ele>124.00000000000001</ele><time>2026-04-11T15:25:44.203Z</time></trkpt><trkpt lat="40.5709555" lon="9.7448894"><ele>124.0</ele><time>2026-04-11T15:25:45.197Z</time></trkpt><trkpt lat="40.570916" lon="9.7448155"><ele>125.16666666666667</ele><time>2026-04-11T15:25:46.201Z</time></trkpt><trkpt lat="40.5708535" lon="9.744707"><ele>126.33333333333334</ele><time>2026-04-11T15:25:48.215Z</time></trkpt><trkpt lat="40.5708183" lon="9.7446204"><ele>127.5</ele><time>2026-04-11T15:25:50.211Z</time></trkpt><trkpt lat="40.5708074" lon="9.7445226"><ele>128.66666666666666</ele><time>2026-04-11T15:25:52.205Z</time></trkpt><trkpt lat="40.5708181" lon="9.744413"><ele>129.83333333333331</ele><time>2026-04-11T15:25:55.21Z</time></trkpt><trkpt lat="40.5708237" lon="9.7443025"><ele>131.0</ele><time>2026-04-11T15:25:58.206Z</time></trkpt><trkpt lat="40.5708401" lon="9.7442109"><ele>131.0</ele><time>2026-04-11T15:26:01.229Z</time></trkpt><trkpt lat="40.570864" lon="9.7441058"><ele>131.0</ele><time>2026-04-11T15:26:04.218Z</time></trkpt><trkpt lat="40.5708949" lon="9.7439907"><ele>131.0</ele><time>2026-04-11T15:26:07.193Z</time></trkpt><trkpt lat="40.5709488" lon="9.7439045"><ele>131.0</ele><time>2026-04-11T15:26:10.207Z</time></trkpt><trkpt lat="40.5710054" lon="9.7438452"><ele>131.0</ele><time>2026-04-11T15:26:13.211Z</time></trkpt><trkpt lat="40.5710511" lon="9.7437696"><ele>131.0</ele><time>2026-04-11T15:26:16.196Z</time></trkpt><trkpt lat="40.5710829" lon="9.7436614"><ele>131.0</ele><time>2026-04-11T15:26:19.201Z</time></trkpt><trkpt lat="40.5711108" lon="9.7435545"><ele>131.0</ele><time>2026-04-11T15:26:22.188Z</time></trkpt><trkpt lat="40.5711385" lon="9.7434407"><ele>131.0</ele><time>2026-04-11T15:26:25.191Z</time></trkpt><trkpt lat="40.5711983" lon="9.7433539"><ele>131.0</ele><time>2026-04-11T15:26:28.219Z</time></trkpt><trkpt lat="40.5712657" lon="9.7433103"><ele>131.0</ele><time>2026-04-11T15:26:30.214Z</time></trkpt><trkpt lat="40.5713511" lon="9.7432742"><ele>131.0</ele><time>2026-04-11T15:26:32.216Z</time></trkpt><trkpt lat="40.5714311" lon="9.743249"><ele>127.0</ele><time>2026-04-11T15:26:34.196Z</time></trkpt><trkpt lat="40.5715084" lon="9.7432232"><ele>123.0</ele><time>2026-04-11T15:26:36.198Z</time></trkpt><trkpt lat="40.5715956" lon="9.7431833"><ele>119.0</ele><time>2026-04-11T15:26:38.216Z</time></trkpt><trkpt lat="40.571713" lon="9.7431281"><ele>115.0</ele><time>2026-04-11T15:26:40.189Z</time></trkpt><trkpt lat="40.5717722" lon="9.7430992"><ele>111.0</ele><time>2026-04-11T15:26:41.206Z</time></trkpt><trkpt lat="40.5718882" lon="9.7430831"><ele>111.0</ele><time>2026-04-11T15:26:43.193Z</time></trkpt><trkpt lat="40.5719925" lon="9.7430911"><ele>111.0</ele><time>2026-04-11T15:26:45.194Z</time></trkpt><trkpt lat="40.5720914" lon="9.7430874"><ele>111.0</ele><time>2026-04-11T15:26:47.189Z</time></trkpt><trkpt lat="40.57218" lon="9.7430672"><ele>111.0</ele><time>2026-04-11T15:26:49.191Z</time></trkpt><trkpt lat="40.5722599" lon="9.7430373"><ele>111.0</ele><time>2026-04-11T15:26:51.198Z</time></trkpt><trkpt lat="40.5723265" lon="9.7430032"><ele>111.0</ele><time>2026-04-11T15:26:53.198Z</time></trkpt><trkpt lat="40.5723809" lon="9.7429367"><ele>108.83333333333333</ele><time>2026-04-11T15:26:55.279Z</time></trkpt><trkpt lat="40.5724372" lon="9.7428532"><ele>106.66666666666666</ele><time>2026-04-11T15:26:57.19Z</time></trkpt><trkpt lat="40.5724962" lon="9.742782"><ele>104.5</ele><time>2026-04-11T15:26:59.18Z</time></trkpt><trkpt lat="40.5725491" lon="9.7427274"><ele>102.33333333333333</ele><time>2026-04-11T15:27:01.186Z</time></trkpt><trkpt lat="40.572618" lon="9.7426686"><ele>100.16666666666666</ele><time>2026-04-11T15:27:03.191Z</time></trkpt><trkpt lat="40.5726713" lon="9.7426228"><ele>98.0</ele><time>2026-04-11T15:27:05.213Z</time></trkpt><trkpt lat="40.5727459" lon="9.7425639"><ele>97.33333333333333</ele><time>2026-04-11T15:27:08.221Z</time></trkpt><trkpt lat="40.5728095" lon="9.7425109"><ele>96.66666666666666</ele><time>2026-04-11T15:27:10.195Z</time></trkpt><trkpt lat="40.5728807" lon="9.7424427"><ele>96.0</ele><time>2026-04-11T15:27:12.19Z</time></trkpt><trkpt lat="40.5729434" lon="9.7423588"><ele>95.33333333333333</ele><time>2026-04-11T15:27:14.2Z</time></trkpt><trkpt lat="40.5730084" lon="9.7422771"><ele>94.66666666666666</ele><time>2026-04-11T15:27:16.181Z</time></trkpt><trkpt lat="40.5730662" lon="9.742198"><ele>94.0</ele><time>2026-04-11T15:27:18.208Z</time></trkpt><trkpt lat="40.5731024" lon="9.742095"><ele>92.16666666666666</ele><time>2026-04-11T15:27:20.186Z</time></trkpt><trkpt lat="40.5730904" lon="9.7419867"><ele>90.33333333333333</ele><time>2026-04-11T15:27:22.209Z</time></trkpt><trkpt lat="40.5730509" lon="9.7419026"><ele>88.5</ele><time>2026-04-11T15:27:24.201Z</time></trkpt><trkpt lat="40.5729943" lon="9.741804"><ele>86.66666666666667</ele><time>2026-04-11T15:27:26.21Z</time></trkpt><trkpt lat="40.5729362" lon="9.7417135"><ele>84.83333333333334</ele><time>2026-04-11T15:27:28.214Z</time></trkpt><trkpt lat="40.5728581" lon="9.7416616"><ele>83.0</ele><time>2026-04-11T15:27:30.193Z</time></trkpt><trkpt lat="40.5727648" lon="9.7416405"><ele>83.0</ele><time>2026-04-11T15:27:32.191Z</time></trkpt><trkpt lat="40.5726537" lon="9.7416097"><ele>83.0</ele><time>2026-04-11T15:27:34.189Z</time></trkpt><trkpt lat="40.5725503" lon="9.741584"><ele>83.0</ele><time>2026-04-11T15:27:36.177Z</time></trkpt><trkpt lat="40.5724684" lon="9.7415568"><ele>83.0</ele><time>2026-04-11T15:27:38.187Z</time></trkpt><trkpt lat="40.5724125" lon="9.7414884"><ele>83.0</ele><time>2026-04-11T15:27:40.198Z</time></trkpt><trkpt lat="40.5724241" lon="9.7414018"><ele>83.0</ele><time>2026-04-11T15:27:42.189Z</time></trkpt><trkpt lat="40.5724948" lon="9.741311"><ele>83.0</ele><time>2026-04-11T15:27:44.179Z</time></trkpt><trkpt lat="40.5725879" lon="9.7412249"><ele>83.0</ele><time>2026-04-11T15:27:46.186Z</time></trkpt><trkpt lat="40.5726502" lon="9.7411303"><ele>83.0</ele><time>2026-04-11T15:27:48.183Z</time></trkpt><trkpt lat="40.5727089" lon="9.7410326"><ele>83.0</ele><time>2026-04-11T15:27:50.191Z</time></trkpt><trkpt lat="40.5727815" lon="9.7409082"><ele>83.0</ele><time>2026-04-11T15:27:52.167Z</time></trkpt><trkpt lat="40.5728627" lon="9.7408103"><ele>79.80000000000001</ele><time>2026-04-11T15:27:54.161Z</time></trkpt><trkpt lat="40.5729444" lon="9.7407419"><ele>76.60000000000001</ele><time>2026-04-11T15:27:56.18Z</time></trkpt><trkpt lat="40.5730323" lon="9.7406854"><ele>73.4</ele><time>2026-04-11T15:27:58.177Z</time></trkpt><trkpt lat="40.573133" lon="9.7406283"><ele>70.2</ele><time>2026-04-11T15:28:00.175Z</time></trkpt><trkpt lat="40.5732388" lon="9.7405586"><ele>67.0</ele><time>2026-04-11T15:28:02.174Z</time></trkpt><trkpt lat="40.5733315" lon="9.7404663"><ele>67.0</ele><time>2026-04-11T15:28:04.182Z</time></trkpt><trkpt lat="40.5734091" lon="9.7403515"><ele>67.0</ele><time>2026-04-11T15:28:06.183Z</time></trkpt><trkpt lat="40.5734728" lon="9.7402378"><ele>67.0</ele><time>2026-04-11T15:28:08.195Z</time></trkpt><trkpt lat="40.5735309" lon="9.7401337"><ele>67.0</ele><time>2026-04-11T15:28:10.185Z</time></trkpt><trkpt lat="40.5736208" lon="9.7400225"><ele>67.0</ele><time>2026-04-11T15:28:12.184Z</time></trkpt><trkpt lat="40.5736773" lon="9.739962"><ele>68.2</ele><time>2026-04-11T15:28:13.164Z</time></trkpt><trkpt lat="40.5737327" lon="9.7399033"><ele>69.4</ele><time>2026-04-11T15:28:14.184Z</time></trkpt><trkpt lat="40.5738252" lon="9.7398069"><ele>70.6</ele><time>2026-04-11T15:28:16.185Z</time></trkpt><trkpt lat="40.573906" lon="9.7397582"><ele>71.8</ele><time>2026-04-11T15:28:18.173Z</time></trkpt><trkpt lat="40.5739894" lon="9.7397262"><ele>73.0</ele><time>2026-04-11T15:28:20.182Z</time></trkpt><trkpt lat="40.5741053" lon="9.7397197"><ele>73.0</ele><time>2026-04-11T15:28:22.162Z</time></trkpt><trkpt lat="40.5741786" lon="9.7397204"><ele>73.0</ele><time>2026-04-11T15:28:23.163Z</time></trkpt><trkpt lat="40.5742621" lon="9.7397214"><ele>73.0</ele><time>2026-04-11T15:28:24.158Z</time></trkpt><trkpt lat="40.5743527" lon="9.7397178"><ele>73.0</ele><time>2026-04-11T15:28:25.157Z</time></trkpt><trkpt lat="40.5744427" lon="9.7397239"><ele>73.0</ele><time>2026-04-11T15:28:26.182Z</time></trkpt><trkpt lat="40.5745166" lon="9.7397228"><ele>73.0</ele><time>2026-04-11T15:28:27.157Z</time></trkpt><trkpt lat="40.5746254" lon="9.7397109"><ele>73.6</ele><time>2026-04-11T15:28:29.164Z</time></trkpt><trkpt lat="40.574733" lon="9.7396827"><ele>74.19999999999999</ele><time>2026-04-11T15:28:31.251Z</time></trkpt><trkpt lat="40.5748349" lon="9.7396173"><ele>74.8</ele><time>2026-04-11T15:28:33.173Z</time></trkpt><trkpt lat="40.5749348" lon="9.7395184"><ele>75.39999999999999</ele><time>2026-04-11T15:28:35.154Z</time></trkpt><trkpt lat="40.5749895" lon="9.7394541"><ele>76.0</ele><time>2026-04-11T15:28:36.17Z</time></trkpt><trkpt lat="40.5750494" lon="9.7393801"><ele>76.0</ele><time>2026-04-11T15:28:37.248Z</time></trkpt><trkpt lat="40.5751158" lon="9.7393048"><ele>76.0</ele><time>2026-04-11T15:28:38.175Z</time></trkpt><trkpt lat="40.5751777" lon="9.7392315"><ele>76.0</ele><time>2026-04-11T15:28:39.155Z</time></trkpt><trkpt lat="40.5752352" lon="9.7391664"><ele>76.0</ele><time>2026-04-11T15:28:40.156Z</time></trkpt><trkpt lat="40.5752922" lon="9.7391034"><ele>76.0</ele><time>2026-04-11T15:28:41.154Z</time></trkpt><trkpt lat="40.5753448" lon="9.7390376"><ele>76.0</ele><time>2026-04-11T15:28:42.159Z</time></trkpt><trkpt lat="40.5753968" lon="9.738968"><ele>73.83333333333333</ele><time>2026-04-11T15:28:43.258Z</time></trkpt><trkpt lat="40.5754376" lon="9.7388822"><ele>71.66666666666666</ele><time>2026-04-11T15:28:44.26Z</time></trkpt><trkpt lat="40.5754775" lon="9.7387876"><ele>69.5</ele><time>2026-04-11T15:28:45.252Z</time></trkpt><trkpt lat="40.5755143" lon="9.7386875"><ele>67.33333333333333</ele><time>2026-04-11T15:28:46.27Z</time></trkpt><trkpt lat="40.5755477" lon="9.7385939"><ele>65.16666666666667</ele><time>2026-04-11T15:28:47.256Z</time></trkpt><trkpt lat="40.5755758" lon="9.7385007"><ele>63.0</ele><time>2026-04-11T15:28:48.249Z</time></trkpt><trkpt lat="40.575596" lon="9.7384192"><ele>63.0</ele><time>2026-04-11T15:28:49.257Z</time></trkpt><trkpt lat="40.5756215" lon="9.7383406"><ele>63.0</ele><time>2026-04-11T15:28:50.246Z</time></trkpt><trkpt lat="40.5757003" lon="9.7382394"><ele>63.0</ele><time>2026-04-11T15:28:52.251Z</time></trkpt><trkpt lat="40.5758097" lon="9.7381946"><ele>63.0</ele><time>2026-04-11T15:28:54.261Z</time></trkpt><trkpt lat="40.5758799" lon="9.7381126"><ele>63.0</ele><time>2026-04-11T15:28:56.262Z</time></trkpt><trkpt lat="40.5759504" lon="9.7379959"><ele>63.0</ele><time>2026-04-11T15:28:58.263Z</time></trkpt><trkpt lat="40.5759844" lon="9.737924"><ele>63.0</ele><time>2026-04-11T15:28:59.246Z</time></trkpt><trkpt lat="40.5760185" lon="9.7378439"><ele>63.0</ele><time>2026-04-11T15:29:00.269Z</time></trkpt><trkpt lat="40.5760524" lon="9.7377558"><ele>63.0</ele><time>2026-04-11T15:29:01.259Z</time></trkpt><trkpt lat="40.5760904" lon="9.7376612"><ele>63.0</ele><time>2026-04-11T15:29:02.251Z</time></trkpt><trkpt lat="40.5761345" lon="9.7375639"><ele>63.0</ele><time>2026-04-11T15:29:03.245Z</time></trkpt><trkpt lat="40.5761844" lon="9.7374676"><ele>59.833333333333336</ele><time>2026-04-11T15:29:04.243Z</time></trkpt><trkpt lat="40.5762369" lon="9.7373779"><ele>56.666666666666664</ele><time>2026-04-11T15:29:05.254Z</time></trkpt><trkpt lat="40.5762859" lon="9.737295"><ele>53.5</ele><time>2026-04-11T15:29:06.244Z</time></trkpt><trkpt lat="40.5763333" lon="9.737221"><ele>50.33333333333333</ele><time>2026-04-11T15:29:07.253Z</time></trkpt><trkpt lat="40.5763771" lon="9.7371526"><ele>47.166666666666664</ele><time>2026-04-11T15:29:08.262Z</time></trkpt><trkpt lat="40.5764257" lon="9.7370879"><ele>44.0</ele><time>2026-04-11T15:29:09.258Z</time></trkpt><trkpt lat="40.5764872" lon="9.737035"><ele>44.0</ele><time>2026-04-11T15:29:10.239Z</time></trkpt><trkpt lat="40.5765545" lon="9.7369833"><ele>44.0</ele><time>2026-04-11T15:29:11.244Z</time></trkpt><trkpt lat="40.5766356" lon="9.7369382"><ele>44.0</ele><time>2026-04-11T15:29:12.237Z</time></trkpt><trkpt lat="40.5767145" lon="9.7368899"><ele>44.0</ele><time>2026-04-11T15:29:13.236Z</time></trkpt><trkpt lat="40.5767824" lon="9.7368351"><ele>44.0</ele><time>2026-04-11T15:29:14.273Z</time></trkpt><trkpt lat="40.5768403" lon="9.736768"><ele>44.0</ele><time>2026-04-11T15:29:15.235Z</time></trkpt><trkpt lat="40.5768865" lon="9.7366819"><ele>44.400000000000006</ele><time>2026-04-11T15:29:16.259Z</time></trkpt><trkpt lat="40.5769391" lon="9.736594"><ele>44.8</ele><time>2026-04-11T15:29:17.241Z</time></trkpt><trkpt lat="40.5769971" lon="9.7365054"><ele>45.2</ele><time>2026-04-11T15:29:18.238Z</time></trkpt><trkpt lat="40.577059" lon="9.7364133"><ele>45.599999999999994</ele><time>2026-04-11T15:29:19.242Z</time></trkpt><trkpt lat="40.5771234" lon="9.7363224"><ele>46.0</ele><time>2026-04-11T15:29:20.243Z</time></trkpt><trkpt lat="40.5771886" lon="9.7362392"><ele>44.16666666666667</ele><time>2026-04-11T15:29:21.232Z</time></trkpt><trkpt lat="40.5772561" lon="9.7361581"><ele>42.333333333333336</ele><time>2026-04-11T15:29:22.243Z</time></trkpt><trkpt lat="40.5773232" lon="9.7360797"><ele>40.5</ele><time>2026-04-11T15:29:23.251Z</time></trkpt><trkpt lat="40.5773888" lon="9.7360021"><ele>38.666666666666664</ele><time>2026-04-11T15:29:24.234Z</time></trkpt><trkpt lat="40.5774521" lon="9.7359244"><ele>36.83333333333333</ele><time>2026-04-11T15:29:25.249Z</time></trkpt><trkpt lat="40.577512" lon="9.7358452"><ele>35.0</ele><time>2026-04-11T15:29:26.238Z</time></trkpt><trkpt lat="40.5775713" lon="9.7357628"><ele>34.8</ele><time>2026-04-11T15:29:27.251Z</time></trkpt><trkpt lat="40.5776303" lon="9.7356804"><ele>34.6</ele><time>2026-04-11T15:29:28.234Z</time></trkpt><trkpt lat="40.5776967" lon="9.7355973"><ele>34.4</ele><time>2026-04-11T15:29:29.235Z</time></trkpt><trkpt lat="40.5777661" lon="9.7355165"><ele>34.2</ele><time>2026-04-11T15:29:30.234Z</time></trkpt><trkpt lat="40.5778308" lon="9.7354451"><ele>34.0</ele><time>2026-04-11T15:29:31.261Z</time></trkpt><trkpt lat="40.5779234" lon="9.7353505"><ele>32.16666666666667</ele><time>2026-04-11T15:29:33.247Z</time></trkpt><trkpt lat="40.5779875" lon="9.7352755"><ele>30.333333333333336</ele><time>2026-04-11T15:29:35.246Z</time></trkpt><trkpt lat="40.5780666" lon="9.7351965"><ele>28.5</ele><time>2026-04-11T15:29:38.292Z</time></trkpt><trkpt lat="40.5781443" lon="9.7351821"><ele>26.666666666666668</ele><time>2026-04-11T15:29:42.253Z</time></trkpt><trkpt lat="40.578188" lon="9.7352792"><ele>24.833333333333336</ele><time>2026-04-11T15:29:44.239Z</time></trkpt><trkpt lat="40.5782214" lon="9.7353571"><ele>23.0</ele><time>2026-04-11T15:29:45.232Z</time></trkpt><trkpt lat="40.578268" lon="9.7354547"><ele>23.0</ele><time>2026-04-11T15:29:46.226Z</time></trkpt><trkpt lat="40.5783145" lon="9.7355607"><ele>23.0</ele><time>2026-04-11T15:29:47.236Z</time></trkpt><trkpt lat="40.5783541" lon="9.735664"><ele>23.0</ele><time>2026-04-11T15:29:48.238Z</time></trkpt><trkpt lat="40.5783919" lon="9.7357581"><ele>23.0</ele><time>2026-04-11T15:29:49.229Z</time></trkpt><trkpt lat="40.5784295" lon="9.7358435"><ele>23.0</ele><time>2026-04-11T15:29:50.222Z</time></trkpt><trkpt lat="40.5784642" lon="9.7359312"><ele>23.0</ele><time>2026-04-11T15:29:51.244Z</time></trkpt><trkpt lat="40.5784988" lon="9.7360047"><ele>24.0</ele><time>2026-04-11T15:29:52.265Z</time></trkpt><trkpt lat="40.5785335" lon="9.736076"><ele>25.0</ele><time>2026-04-11T15:29:53.246Z</time></trkpt><trkpt lat="40.5785643" lon="9.7361556"><ele>26.0</ele><time>2026-04-11T15:29:54.257Z</time></trkpt><trkpt lat="40.5785968" lon="9.7362471"><ele>27.0</ele><time>2026-04-11T15:29:55.285Z</time></trkpt><trkpt lat="40.5786283" lon="9.7363488"><ele>27.999999999999996</ele><time>2026-04-11T15:29:56.231Z</time></trkpt><trkpt lat="40.578661" lon="9.7364585"><ele>29.0</ele><time>2026-04-11T15:29:57.23Z</time></trkpt><trkpt lat="40.5787031" lon="9.7365836"><ele>25.25</ele><time>2026-04-11T15:29:58.227Z</time></trkpt><trkpt lat="40.5787519" lon="9.736729"><ele>21.5</ele><time>2026-04-11T15:29:59.234Z</time></trkpt><trkpt lat="40.5788074" lon="9.736888"><ele>17.75</ele><time>2026-04-11T15:30:00.235Z</time></trkpt><trkpt lat="40.5788544" lon="9.7370531"><ele>14.0</ele><time>2026-04-11T15:30:01.233Z</time></trkpt><trkpt lat="40.5788824" lon="9.7372219"><ele>14.0</ele><time>2026-04-11T15:30:02.218Z</time></trkpt><trkpt lat="40.5789003" lon="9.7373911"><ele>14.0</ele><time>2026-04-11T15:30:03.221Z</time></trkpt><trkpt lat="40.5789084" lon="9.7375678"><ele>14.0</ele><time>2026-04-11T15:30:04.227Z</time></trkpt><trkpt lat="40.5789093" lon="9.7377551"><ele>14.0</ele><time>2026-04-11T15:30:05.241Z</time></trkpt><trkpt lat="40.5789033" lon="9.7379483"><ele>14.0</ele><time>2026-04-11T15:30:06.226Z</time></trkpt><trkpt lat="40.5788899" lon="9.7381401"><ele>14.0</ele><time>2026-04-11T15:30:07.225Z</time></trkpt><trkpt lat="40.5788683" lon="9.7383407"><ele>14.0</ele><time>2026-04-11T15:30:08.224Z</time></trkpt><trkpt lat="40.5788459" lon="9.7385334"><ele>14.0</ele><time>2026-04-11T15:30:09.222Z</time></trkpt><trkpt lat="40.5788277" lon="9.7387162"><ele>14.0</ele><time>2026-04-11T15:30:10.229Z</time></trkpt><trkpt lat="40.5788324" lon="9.73891"><ele>14.0</ele><time>2026-04-11T15:30:11.227Z</time></trkpt><trkpt lat="40.5788443" lon="9.7391008"><ele>14.0</ele><time>2026-04-11T15:30:12.23Z</time></trkpt><trkpt lat="40.578851" lon="9.7392592"><ele>14.0</ele><time>2026-04-11T15:30:13.244Z</time></trkpt><trkpt lat="40.5788667" lon="9.7393879"><ele>15.399999999999999</ele><time>2026-04-11T15:30:14.231Z</time></trkpt><trkpt lat="40.5788914" lon="9.7394925"><ele>16.799999999999997</ele><time>2026-04-11T15:30:15.227Z</time></trkpt><trkpt lat="40.5789281" lon="9.7395681"><ele>18.200000000000003</ele><time>2026-04-11T15:30:16.254Z</time></trkpt><trkpt lat="40.57901" lon="9.7396637"><ele>19.6</ele><time>2026-04-11T15:30:18.225Z</time></trkpt><trkpt lat="40.5791194" lon="9.7397697"><ele>21.0</ele><time>2026-04-11T15:30:20.223Z</time></trkpt><trkpt lat="40.5791865" lon="9.7398284"><ele>21.0</ele><time>2026-04-11T15:30:21.245Z</time></trkpt><trkpt lat="40.5792569" lon="9.7398897"><ele>21.0</ele><time>2026-04-11T15:30:22.216Z</time></trkpt><trkpt lat="40.5793292" lon="9.7399475"><ele>21.0</ele><time>2026-04-11T15:30:23.221Z</time></trkpt><trkpt lat="40.579397" lon="9.7400023"><ele>21.0</ele><time>2026-04-11T15:30:24.228Z</time></trkpt><trkpt lat="40.5794603" lon="9.7400585"><ele>21.0</ele><time>2026-04-11T15:30:25.228Z</time></trkpt><trkpt lat="40.5795261" lon="9.7401122"><ele>21.0</ele><time>2026-04-11T15:30:26.217Z</time></trkpt><trkpt lat="40.5795887" lon="9.74017"><ele>20.0</ele><time>2026-04-11T15:30:27.269Z</time></trkpt><trkpt lat="40.5796444" lon="9.7402384"><ele>19.0</ele><time>2026-04-11T15:30:28.227Z</time></trkpt><trkpt lat="40.5796884" lon="9.7403135"><ele>18.0</ele><time>2026-04-11T15:30:29.246Z</time></trkpt><trkpt lat="40.579751" lon="9.740447"><ele>17.0</ele><time>2026-04-11T15:30:31.226Z</time></trkpt><trkpt lat="40.5798508" lon="9.7405162"><ele>16.0</ele><time>2026-04-11T15:30:33.223Z</time></trkpt><trkpt lat="40.5799212" lon="9.7405149"><ele>16.0</ele><time>2026-04-11T15:30:34.216Z</time></trkpt><trkpt lat="40.5800104" lon="9.7404949"><ele>16.0</ele><time>2026-04-11T15:30:35.227Z</time></trkpt><trkpt lat="40.5801051" lon="9.7404537"><ele>16.0</ele><time>2026-04-11T15:30:36.228Z</time></trkpt><trkpt lat="40.5802046" lon="9.7404118"><ele>16.0</ele><time>2026-04-11T15:30:37.226Z</time></trkpt><trkpt lat="40.5803159" lon="9.7403733"><ele>16.0</ele><time>2026-04-11T15:30:38.219Z</time></trkpt><trkpt lat="40.5804441" lon="9.7403309"><ele>15.5</ele><time>2026-04-11T15:30:39.223Z</time></trkpt><trkpt lat="40.5805866" lon="9.7402865"><ele>15.0</ele><time>2026-04-11T15:30:40.223Z</time></trkpt><trkpt lat="40.5807262" lon="9.7402417"><ele>14.5</ele><time>2026-04-11T15:30:41.229Z</time></trkpt><trkpt lat="40.5808571" lon="9.7402036"><ele>14.0</ele><time>2026-04-11T15:30:42.216Z</time></trkpt><trkpt lat="40.5809797" lon="9.7401591"><ele>14.0</ele><time>2026-04-11T15:30:43.235Z</time></trkpt><trkpt lat="40.5810859" lon="9.7401"><ele>14.0</ele><time>2026-04-11T15:30:44.218Z</time></trkpt><trkpt lat="40.5811846" lon="9.7400176"><ele>14.0</ele><time>2026-04-11T15:30:45.217Z</time></trkpt><trkpt lat="40.5812667" lon="9.7399007"><ele>14.0</ele><time>2026-04-11T15:30:46.22Z</time></trkpt><trkpt lat="40.581338" lon="9.7397488"><ele>12.0</ele><time>2026-04-11T15:30:47.22Z</time></trkpt><trkpt lat="40.5814045" lon="9.7395722"><ele>10.0</ele><time>2026-04-11T15:30:48.213Z</time></trkpt><trkpt lat="40.5814683" lon="9.7394044"><ele>8.0</ele><time>2026-04-11T15:30:49.221Z</time></trkpt><trkpt lat="40.5815379" lon="9.739256"><ele>6.0</ele><time>2026-04-11T15:30:50.211Z</time></trkpt><trkpt lat="40.5816152" lon="9.7391318"><ele>5.25</ele><time>2026-04-11T15:30:51.206Z</time></trkpt><trkpt lat="40.5817086" lon="9.7390317"><ele>4.5</ele><time>2026-04-11T15:30:52.215Z</time></trkpt><trkpt lat="40.5818253" lon="9.7389486"><ele>3.75</ele><time>2026-04-11T15:30:53.209Z</time></trkpt><trkpt lat="40.5819565" lon="9.738861"><ele>3.0</ele><time>2026-04-11T15:30:54.227Z</time></trkpt><trkpt lat="40.5820987" lon="9.7387667"><ele>2.6666666666666665</ele><time>2026-04-11T15:30:55.215Z</time></trkpt><trkpt lat="40.5822539" lon="9.7386634"><ele>2.333333333333333</ele><time>2026-04-11T15:30:56.217Z</time></trkpt><trkpt lat="40.582428" lon="9.7385535"><ele>2.0</ele><time>2026-04-11T15:30:57.219Z</time></trkpt><trkpt lat="40.5826167" lon="9.7384285"><ele>2.0</ele><time>2026-04-11T15:30:58.209Z</time></trkpt><trkpt lat="40.5828141" lon="9.7382974"><ele>2.0</ele><time>2026-04-11T15:30:59.209Z</time></trkpt><trkpt lat="40.5830173" lon="9.7381673"><ele>2.0</ele><time>2026-04-11T15:31:00.204Z</time></trkpt><trkpt lat="40.5832214" lon="9.7380335"><ele>2.0</ele><time>2026-04-11T15:31:01.214Z</time></trkpt><trkpt lat="40.5834225" lon="9.7379096"><ele>2.0</ele><time>2026-04-11T15:31:02.218Z</time></trkpt><trkpt lat="40.5836081" lon="9.7377919"><ele>2.0</ele><time>2026-04-11T15:31:03.222Z</time></trkpt><trkpt lat="40.5837864" lon="9.7376757"><ele>2.0</ele><time>2026-04-11T15:31:04.213Z</time></trkpt><trkpt lat="40.5839607" lon="9.7375635"><ele>2.0</ele><time>2026-04-11T15:31:05.215Z</time></trkpt><trkpt lat="40.584131" lon="9.737452"><ele>2.0</ele><time>2026-04-11T15:31:06.203Z</time></trkpt><trkpt lat="40.5843" lon="9.7373422"><ele>2.0</ele><time>2026-04-11T15:31:07.208Z</time></trkpt><trkpt lat="40.5844669" lon="9.7372363"><ele>2.0</ele><time>2026-04-11T15:31:08.219Z</time></trkpt><trkpt lat="40.5846301" lon="9.7371298"><ele>2.0</ele><time>2026-04-11T15:31:09.203Z</time></trkpt><trkpt lat="40.5847952" lon="9.7370207"><ele>2.333333333333333</ele><time>2026-04-11T15:31:10.211Z</time></trkpt><trkpt lat="40.5849597" lon="9.7369123"><ele>2.6666666666666665</ele><time>2026-04-11T15:31:11.226Z</time></trkpt><trkpt lat="40.5851225" lon="9.7368091"><ele>3.0</ele><time>2026-04-11T15:31:12.205Z</time></trkpt><trkpt lat="40.5852794" lon="9.7367066"><ele>2.0</ele><time>2026-04-11T15:31:13.209Z</time></trkpt><trkpt lat="40.5854325" lon="9.7366046"><ele>1.0</ele><time>2026-04-11T15:31:14.202Z</time></trkpt><trkpt lat="40.5855773" lon="9.7365096"><ele>0.0</ele><time>2026-04-11T15:31:15.199Z</time></trkpt><trkpt lat="40.585715" lon="9.7364214"><ele>0.0</ele><time>2026-04-11T15:31:16.221Z</time></trkpt><trkpt lat="40.5858488" lon="9.7363377"><ele>0.0</ele><time>2026-04-11T15:31:17.238Z</time></trkpt><trkpt lat="40.5859738" lon="9.7362551"><ele>0.0</ele><time>2026-04-11T15:31:18.206Z</time></trkpt><trkpt lat="40.5860915" lon="9.736177"><ele>0.0</ele><time>2026-04-11T15:31:19.207Z</time></trkpt><trkpt lat="40.586204" lon="9.736108"><ele>0.0</ele><time>2026-04-11T15:31:20.203Z</time></trkpt><trkpt lat="40.586316" lon="9.7360565"><ele>0.0</ele><time>2026-04-11T15:31:21.195Z</time></trkpt><trkpt lat="40.5864342" lon="9.7360301"><ele>0.0</ele><time>2026-04-11T15:31:22.202Z</time></trkpt><trkpt lat="40.5865606" lon="9.7360233"><ele>0.0</ele><time>2026-04-11T15:31:23.202Z</time></trkpt><trkpt lat="40.5866915" lon="9.736036"><ele>0.0</ele><time>2026-04-11T15:31:24.195Z</time></trkpt><trkpt lat="40.5868353" lon="9.7360586"><ele>0.0</ele><time>2026-04-11T15:31:25.208Z</time></trkpt><trkpt lat="40.5869835" lon="9.7360788"><ele>0.0</ele><time>2026-04-11T15:31:26.201Z</time></trkpt><trkpt lat="40.5871403" lon="9.7360968"><ele>-0.3333333333333333</ele><time>2026-04-11T15:31:27.212Z</time></trkpt><trkpt lat="40.5873033" lon="9.7361148"><ele>-0.6666666666666666</ele><time>2026-04-11T15:31:28.196Z</time></trkpt><trkpt lat="40.587471" lon="9.7361368"><ele>-1.0</ele><time>2026-04-11T15:31:29.197Z</time></trkpt><trkpt lat="40.5876442" lon="9.7361582"><ele>-1.0</ele><time>2026-04-11T15:31:30.196Z</time></trkpt><trkpt lat="40.5878209" lon="9.7361729"><ele>-1.0</ele><time>2026-04-11T15:31:31.2Z</time></trkpt><trkpt lat="40.5880002" lon="9.7361895"><ele>-1.0</ele><time>2026-04-11T15:31:32.195Z</time></trkpt><trkpt lat="40.5881808" lon="9.7362091"><ele>0.33333333333333337</ele><time>2026-04-11T15:31:33.2Z</time></trkpt><trkpt lat="40.588361" lon="9.7362249"><ele>1.6666666666666667</ele><time>2026-04-11T15:31:34.206Z</time></trkpt><trkpt lat="40.5885378" lon="9.7362415"><ele>3.0</ele><time>2026-04-11T15:31:35.191Z</time></trkpt><trkpt lat="40.5887076" lon="9.7362624"><ele>3.666666666666667</ele><time>2026-04-11T15:31:36.191Z</time></trkpt><trkpt lat="40.5888706" lon="9.7362787"><ele>4.333333333333334</ele><time>2026-04-11T15:31:37.194Z</time></trkpt><trkpt lat="40.5890315" lon="9.7362948"><ele>5.0</ele><time>2026-04-11T15:31:38.187Z</time></trkpt><trkpt lat="40.5891917" lon="9.7363141"><ele>5.0</ele><time>2026-04-11T15:31:39.192Z</time></trkpt><trkpt lat="40.5893471" lon="9.7363342"><ele>5.0</ele><time>2026-04-11T15:31:40.187Z</time></trkpt><trkpt lat="40.5894961" lon="9.736355"><ele>5.0</ele><time>2026-04-11T15:31:41.192Z</time></trkpt><trkpt lat="40.5896366" lon="9.7363729"><ele>5.0</ele><time>2026-04-11T15:31:42.19Z</time></trkpt><trkpt lat="40.5897715" lon="9.7363819"><ele>5.75</ele><time>2026-04-11T15:31:43.187Z</time></trkpt><trkpt lat="40.5899033" lon="9.7363761"><ele>6.5</ele><time>2026-04-11T15:31:44.18Z</time></trkpt><trkpt lat="40.5900295" lon="9.7363499"><ele>7.25</ele><time>2026-04-11T15:31:45.195Z</time></trkpt><trkpt lat="40.5901537" lon="9.7362876"><ele>8.0</ele><time>2026-04-11T15:31:46.2Z</time></trkpt><trkpt lat="40.5902728" lon="9.7361933"><ele>7.666666666666666</ele><time>2026-04-11T15:31:47.181Z</time></trkpt><trkpt lat="40.5903931" lon="9.7360837"><ele>7.333333333333334</ele><time>2026-04-11T15:31:48.18Z</time></trkpt><trkpt lat="40.5905138" lon="9.7359628"><ele>7.0</ele><time>2026-04-11T15:31:49.183Z</time></trkpt><trkpt lat="40.590635" lon="9.735838"><ele>7.666666666666667</ele><time>2026-04-11T15:31:50.184Z</time></trkpt><trkpt lat="40.5907521" lon="9.735702"><ele>8.333333333333334</ele><time>2026-04-11T15:31:51.184Z</time></trkpt><trkpt lat="40.5908696" lon="9.7355489"><ele>9.0</ele><time>2026-04-11T15:31:52.192Z</time></trkpt><trkpt lat="40.5909935" lon="9.7354015"><ele>9.0</ele><time>2026-04-11T15:31:53.189Z</time></trkpt><trkpt lat="40.5911235" lon="9.7352586"><ele>9.0</ele><time>2026-04-11T15:31:54.185Z</time></trkpt><trkpt lat="40.5912541" lon="9.735115"><ele>9.0</ele><time>2026-04-11T15:31:55.18Z</time></trkpt><trkpt lat="40.5913887" lon="9.7349725"><ele>9.333333333333334</ele><time>2026-04-11T15:31:56.182Z</time></trkpt><trkpt lat="40.591523" lon="9.7348285"><ele>9.666666666666668</ele><time>2026-04-11T15:31:57.18Z</time></trkpt><trkpt lat="40.5916593" lon="9.7346822"><ele>10.0</ele><time>2026-04-11T15:31:58.189Z</time></trkpt><trkpt lat="40.5917984" lon="9.7345315"><ele>9.666666666666668</ele><time>2026-04-11T15:31:59.178Z</time></trkpt><trkpt lat="40.5919387" lon="9.7343796"><ele>9.333333333333334</ele><time>2026-04-11T15:32:00.174Z</time></trkpt><trkpt lat="40.5920797" lon="9.7342246"><ele>9.0</ele><time>2026-04-11T15:32:01.181Z</time></trkpt><trkpt lat="40.5922176" lon="9.7340686"><ele>8.333333333333334</ele><time>2026-04-11T15:32:02.186Z</time></trkpt><trkpt lat="40.5923613" lon="9.7339157"><ele>7.666666666666667</ele><time>2026-04-11T15:32:03.19Z</time></trkpt><trkpt lat="40.5925058" lon="9.7337614"><ele>7.0</ele><time>2026-04-11T15:32:04.185Z</time></trkpt><trkpt lat="40.5926499" lon="9.7336089"><ele>7.333333333333334</ele><time>2026-04-11T15:32:05.199Z</time></trkpt><trkpt lat="40.5927973" lon="9.7334529"><ele>7.666666666666666</ele><time>2026-04-11T15:32:06.184Z</time></trkpt><trkpt lat="40.5929456" lon="9.7332915"><ele>8.0</ele><time>2026-04-11T15:32:07.181Z</time></trkpt><trkpt lat="40.5930901" lon="9.7331354"><ele>7.333333333333333</ele><time>2026-04-11T15:32:08.176Z</time></trkpt><trkpt lat="40.5932356" lon="9.7329788"><ele>6.666666666666666</ele><time>2026-04-11T15:32:09.189Z</time></trkpt><trkpt lat="40.5933777" lon="9.7328245"><ele>6.0</ele><time>2026-04-11T15:32:10.182Z</time></trkpt><trkpt lat="40.5935182" lon="9.7326681"><ele>6.0</ele><time>2026-04-11T15:32:11.183Z</time></trkpt><trkpt lat="40.5936594" lon="9.7325123"><ele>6.0</ele><time>2026-04-11T15:32:12.175Z</time></trkpt><trkpt lat="40.5937976" lon="9.7323594"><ele>6.0</ele><time>2026-04-11T15:32:13.177Z</time></trkpt><trkpt lat="40.5939355" lon="9.7322088"><ele>6.0</ele><time>2026-04-11T15:32:14.176Z</time></trkpt><trkpt lat="40.5940699" lon="9.7320603"><ele>6.0</ele><time>2026-04-11T15:32:15.182Z</time></trkpt><trkpt lat="40.5942033" lon="9.731912"><ele>6.0</ele><time>2026-04-11T15:32:16.182Z</time></trkpt><trkpt lat="40.594334" lon="9.7317695"><ele>6.333333333333334</ele><time>2026-04-11T15:32:17.181Z</time></trkpt><trkpt lat="40.5944616" lon="9.731629"><ele>6.666666666666667</ele><time>2026-04-11T15:32:18.176Z</time></trkpt><trkpt lat="40.5945892" lon="9.7314902"><ele>7.0</ele><time>2026-04-11T15:32:19.173Z</time></trkpt><trkpt lat="40.5947165" lon="9.7313509"><ele>7.0</ele><time>2026-04-11T15:32:20.177Z</time></trkpt><trkpt lat="40.5948456" lon="9.7312091"><ele>7.0</ele><time>2026-04-11T15:32:21.176Z</time></trkpt><trkpt lat="40.5949741" lon="9.7310691"><ele>7.0</ele><time>2026-04-11T15:32:22.173Z</time></trkpt><trkpt lat="40.5951034" lon="9.7309268"><ele>7.0</ele><time>2026-04-11T15:32:23.17Z</time></trkpt><trkpt lat="40.5952284" lon="9.7307867"><ele>7.0</ele><time>2026-04-11T15:32:24.174Z</time></trkpt><trkpt lat="40.5953524" lon="9.7306471"><ele>7.0</ele><time>2026-04-11T15:32:25.179Z</time></trkpt><trkpt lat="40.5954789" lon="9.7305114"><ele>6.0</ele><time>2026-04-11T15:32:26.173Z</time></trkpt><trkpt lat="40.5956069" lon="9.7303797"><ele>5.0</ele><time>2026-04-11T15:32:27.178Z</time></trkpt><trkpt lat="40.5957298" lon="9.730243"><ele>4.0</ele><time>2026-04-11T15:32:28.176Z</time></trkpt><trkpt lat="40.5958509" lon="9.7301083"><ele>4.0</ele><time>2026-04-11T15:32:29.183Z</time></trkpt><trkpt lat="40.5959687" lon="9.7299814"><ele>4.0</ele><time>2026-04-11T15:32:30.181Z</time></trkpt><trkpt lat="40.5960782" lon="9.7298611"><ele>4.0</ele><time>2026-04-11T15:32:31.169Z</time></trkpt><trkpt lat="40.596189" lon="9.7297537"><ele>4.0</ele><time>2026-04-11T15:32:32.171Z</time></trkpt><trkpt lat="40.5963076" lon="9.7296591"><ele>4.0</ele><time>2026-04-11T15:32:33.173Z</time></trkpt><trkpt lat="40.5964373" lon="9.7295819"><ele>4.0</ele><time>2026-04-11T15:32:34.17Z</time></trkpt><trkpt lat="40.5965657" lon="9.7295202"><ele>4.0</ele><time>2026-04-11T15:32:35.176Z</time></trkpt><trkpt lat="40.5966865" lon="9.7294638"><ele>4.0</ele><time>2026-04-11T15:32:36.166Z</time></trkpt><trkpt lat="40.5967981" lon="9.7294067"><ele>3.833333333333333</ele><time>2026-04-11T15:32:37.171Z</time></trkpt><trkpt lat="40.5968993" lon="9.7293583"><ele>3.6666666666666665</ele><time>2026-04-11T15:32:38.176Z</time></trkpt><trkpt lat="40.5969893" lon="9.7293123"><ele>3.5</ele><time>2026-04-11T15:32:39.171Z</time></trkpt><trkpt lat="40.5970729" lon="9.7292775"><ele>3.333333333333333</ele><time>2026-04-11T15:32:40.173Z</time></trkpt><trkpt lat="40.5971488" lon="9.729252"><ele>3.1666666666666665</ele><time>2026-04-11T15:32:41.175Z</time></trkpt><trkpt lat="40.5972207" lon="9.7292562"><ele>3.0</ele><time>2026-04-11T15:32:42.196Z</time></trkpt><trkpt lat="40.597283" lon="9.7292861"><ele>3.3333333333333335</ele><time>2026-04-11T15:32:43.172Z</time></trkpt><trkpt lat="40.5973444" lon="9.7293115"><ele>3.666666666666667</ele><time>2026-04-11T15:32:44.168Z</time></trkpt><trkpt lat="40.5974079" lon="9.7293007"><ele>4.0</ele><time>2026-04-11T15:32:45.17Z</time></trkpt><trkpt lat="40.5974658" lon="9.7292489"><ele>4.333333333333334</ele><time>2026-04-11T15:32:46.169Z</time></trkpt><trkpt lat="40.5975097" lon="9.7291608"><ele>4.666666666666667</ele><time>2026-04-11T15:32:47.165Z</time></trkpt><trkpt lat="40.597562" lon="9.7290695"><ele>5.0</ele><time>2026-04-11T15:32:48.166Z</time></trkpt><trkpt lat="40.597641" lon="9.7289932"><ele>5.0</ele><time>2026-04-11T15:32:49.166Z</time></trkpt><trkpt lat="40.5977331" lon="9.7289121"><ele>5.0</ele><time>2026-04-11T15:32:50.164Z</time></trkpt><trkpt lat="40.597833" lon="9.7288197"><ele>5.0</ele><time>2026-04-11T15:32:51.186Z</time></trkpt><trkpt lat="40.5979195" lon="9.7287058"><ele>5.0</ele><time>2026-04-11T15:32:52.162Z</time></trkpt><trkpt lat="40.5980009" lon="9.7285702"><ele>5.5</ele><time>2026-04-11T15:32:53.168Z</time></trkpt><trkpt lat="40.5980754" lon="9.7284042"><ele>6.0</ele><time>2026-04-11T15:32:54.174Z</time></trkpt><trkpt lat="40.5981365" lon="9.7282237"><ele>6.5</ele><time>2026-04-11T15:32:55.163Z</time></trkpt><trkpt lat="40.5981931" lon="9.7280365"><ele>7.0</ele><time>2026-04-11T15:32:56.176Z</time></trkpt><trkpt lat="40.5982547" lon="9.7278467"><ele>6.0</ele><time>2026-04-11T15:32:57.164Z</time></trkpt><trkpt lat="40.598323" lon="9.7276578"><ele>5.0</ele><time>2026-04-11T15:32:58.166Z</time></trkpt><trkpt lat="40.5983895" lon="9.7274608"><ele>4.0</ele><time>2026-04-11T15:32:59.163Z</time></trkpt><trkpt lat="40.598453" lon="9.7272633"><ele>4.0</ele><time>2026-04-11T15:33:00.154Z</time></trkpt><trkpt lat="40.598517" lon="9.7270619"><ele>4.0</ele><time>2026-04-11T15:33:01.162Z</time></trkpt><trkpt lat="40.5985819" lon="9.7268647"><ele>4.0</ele><time>2026-04-11T15:33:02.162Z</time></trkpt><trkpt lat="40.5986505" lon="9.7266639"><ele>6.0</ele><time>2026-04-11T15:33:03.173Z</time></trkpt><trkpt lat="40.5987188" lon="9.7264605"><ele>8.0</ele><time>2026-04-11T15:33:04.156Z</time></trkpt><trkpt lat="40.5987867" lon="9.7262529"><ele>10.0</ele><time>2026-04-11T15:33:05.158Z</time></trkpt><trkpt lat="40.5988547" lon="9.7260492"><ele>10.0</ele><time>2026-04-11T15:33:06.164Z</time></trkpt><trkpt lat="40.5989186" lon="9.7258513"><ele>10.0</ele><time>2026-04-11T15:33:07.158Z</time></trkpt><trkpt lat="40.5989831" lon="9.7256594"><ele>10.0</ele><time>2026-04-11T15:33:08.164Z</time></trkpt><trkpt lat="40.5990468" lon="9.7254665"><ele>10.0</ele><time>2026-04-11T15:33:09.162Z</time></trkpt><trkpt lat="40.5991074" lon="9.7252803"><ele>10.0</ele><time>2026-04-11T15:33:10.194Z</time></trkpt><trkpt lat="40.599166" lon="9.725097"><ele>10.0</ele><time>2026-04-11T15:33:11.161Z</time></trkpt><trkpt lat="40.5994739" lon="9.7241525"><ele>12.0</ele><time>2026-04-11T15:33:16.162Z</time></trkpt><trkpt lat="40.5995389" lon="9.7239525"><ele>14.0</ele><time>2026-04-11T15:33:17.158Z</time></trkpt><trkpt lat="40.5996046" lon="9.7237524"><ele>16.0</ele><time>2026-04-11T15:33:18.161Z</time></trkpt><trkpt lat="40.5996706" lon="9.7235523"><ele>16.0</ele><time>2026-04-11T15:33:19.165Z</time></trkpt><trkpt lat="40.5997388" lon="9.7233497"><ele>16.0</ele><time>2026-04-11T15:33:20.16Z</time></trkpt><trkpt lat="40.599938" lon="9.7227486"><ele>13.5</ele><time>2026-04-11T15:33:23.166Z</time></trkpt><trkpt lat="40.6000037" lon="9.7225454"><ele>11.0</ele><time>2026-04-11T15:33:24.158Z</time></trkpt><trkpt lat="40.6002019" lon="9.7219294"><ele>10.666666666666666</ele><time>2026-04-11T15:33:27.161Z</time></trkpt><trkpt lat="40.600269" lon="9.7217232"><ele>10.333333333333334</ele><time>2026-04-11T15:33:28.16Z</time></trkpt><trkpt lat="40.6003369" lon="9.7215199"><ele>10.0</ele><time>2026-04-11T15:33:29.165Z</time></trkpt><trkpt lat="40.6005256" lon="9.7209384"><ele>11.0</ele><time>2026-04-11T15:33:32.149Z</time></trkpt><trkpt lat="40.6005863" lon="9.7207561"><ele>12.0</ele><time>2026-04-11T15:33:33.169Z</time></trkpt><trkpt lat="40.6007598" lon="9.7202611"><ele>11.5</ele><time>2026-04-11T15:33:36.168Z</time></trkpt><trkpt lat="40.6008102" lon="9.7201"><ele>11.0</ele><time>2026-04-11T15:33:37.156Z</time></trkpt><trkpt lat="40.6009597" lon="9.7196287"><ele>11.333333333333332</ele><time>2026-04-11T15:33:40.154Z</time></trkpt><trkpt lat="40.6010845" lon="9.7192651"><ele>11.666666666666666</ele><time>2026-04-11T15:33:43.155Z</time></trkpt><trkpt lat="40.6011389" lon="9.719136"><ele>12.0</ele><time>2026-04-11T15:33:45.151Z</time></trkpt><trkpt lat="40.6011787" lon="9.7190226"><ele>11.0</ele><time>2026-04-11T15:33:49.159Z</time></trkpt><trkpt lat="40.6011239" lon="9.7189491"><ele>10.0</ele><time>2026-04-11T15:33:52.246Z</time></trkpt><trkpt lat="40.600935" lon="9.7188283"><ele>9.0</ele><time>2026-04-11T15:33:56.244Z</time></trkpt><trkpt lat="40.6008178" lon="9.7187633"><ele>8.0</ele><time>2026-04-11T15:33:58.245Z</time></trkpt><trkpt lat="40.6007021" lon="9.7187192"><ele>8.0</ele><time>2026-04-11T15:34:00.246Z</time></trkpt><trkpt lat="40.6004394" lon="9.718744"><ele>8.0</ele><time>2026-04-11T15:34:04.252Z</time></trkpt><trkpt lat="40.6002985" lon="9.7187359"><ele>8.0</ele><time>2026-04-11T15:34:06.242Z</time></trkpt><trkpt lat="40.6001186" lon="9.7186778"><ele>8.25</ele><time>2026-04-11T15:34:09.251Z</time></trkpt><trkpt lat="40.6000514" lon="9.7186477"><ele>8.5</ele><time>2026-04-11T15:34:10.241Z</time></trkpt><trkpt lat="40.5998935" lon="9.7185892"><ele>8.75</ele><time>2026-04-11T15:34:12.255Z</time></trkpt><trkpt lat="40.59981" lon="9.7185646"><ele>9.0</ele><time>2026-04-11T15:34:13.245Z</time></trkpt><trkpt lat="40.5996533" lon="9.7185043"><ele>9.5</ele><time>2026-04-11T15:34:15.241Z</time></trkpt><trkpt lat="40.5994646" lon="9.7184229"><ele>10.0</ele><time>2026-04-11T15:34:18.243Z</time></trkpt><trkpt lat="40.5994051" lon="9.7183924"><ele>10.5</ele><time>2026-04-11T15:34:19.247Z</time></trkpt><trkpt lat="40.5992713" lon="9.71835"><ele>11.0</ele><time>2026-04-11T15:34:21.252Z</time></trkpt><trkpt lat="40.5991974" lon="9.7183224"><ele>11.0</ele><time>2026-04-11T15:34:22.241Z</time></trkpt><trkpt lat="40.5990501" lon="9.7182724"><ele>11.0</ele><time>2026-04-11T15:34:24.253Z</time></trkpt><trkpt lat="40.5989752" lon="9.7182518"><ele>11.0</ele><time>2026-04-11T15:34:25.238Z</time></trkpt><trkpt lat="40.5988311" lon="9.7182033"><ele>11.0</ele><time>2026-04-11T15:34:27.265Z</time></trkpt><trkpt lat="40.598686" lon="9.7181529"><ele>10.8</ele><time>2026-04-11T15:34:29.237Z</time></trkpt><trkpt lat="40.5986204" lon="9.718134"><ele>10.600000000000001</ele><time>2026-04-11T15:34:30.239Z</time></trkpt><trkpt lat="40.5985183" lon="9.7180904"><ele>10.4</ele><time>2026-04-11T15:34:32.241Z</time></trkpt><trkpt lat="40.5984845" lon="9.7179668"><ele>10.2</ele><time>2026-04-11T15:34:34.25Z</time></trkpt><trkpt lat="40.5985005" lon="9.7177805"><ele>10.0</ele><time>2026-04-11T15:34:36.235Z</time></trkpt><trkpt lat="40.5985124" lon="9.717664"><ele>9.666666666666668</ele><time>2026-04-11T15:34:37.239Z</time></trkpt><trkpt lat="40.5985255" lon="9.7174232"><ele>9.333333333333334</ele><time>2026-04-11T15:34:39.229Z</time></trkpt><trkpt lat="40.5985259" lon="9.7173071"><ele>9.0</ele><time>2026-04-11T15:34:40.241Z</time></trkpt><trkpt lat="40.5985383" lon="9.7169867"><ele>8.6</ele><time>2026-04-11T15:34:43.235Z</time></trkpt><trkpt lat="40.5985477" lon="9.716886"><ele>8.2</ele><time>2026-04-11T15:34:44.246Z</time></trkpt><trkpt lat="40.5985555" lon="9.7167845"><ele>7.799999999999999</ele><time>2026-04-11T15:34:45.236Z</time></trkpt><trkpt lat="40.5985698" lon="9.716574"><ele>7.3999999999999995</ele><time>2026-04-11T15:34:47.226Z</time></trkpt><trkpt lat="40.59858" lon="9.7164714"><ele>7.0</ele><time>2026-04-11T15:34:48.232Z</time></trkpt><trkpt lat="40.5986" lon="9.7162745"><ele>7.0</ele><time>2026-04-11T15:34:50.225Z</time></trkpt><trkpt lat="40.5986111" lon="9.7161713"><ele>7.0</ele><time>2026-04-11T15:34:51.249Z</time></trkpt><trkpt lat="40.598622" lon="9.7159589"><ele>7.0</ele><time>2026-04-11T15:34:53.231Z</time></trkpt><trkpt lat="40.5986083" lon="9.715756"><ele>7.0</ele><time>2026-04-11T15:34:55.23Z</time></trkpt><trkpt lat="40.5985979" lon="9.7156462"><ele>8.333333333333334</ele><time>2026-04-11T15:34:56.244Z</time></trkpt><trkpt lat="40.5985758" lon="9.7153527"><ele>9.666666666666666</ele><time>2026-04-11T15:34:59.234Z</time></trkpt><trkpt lat="40.5985831" lon="9.7150867"><ele>11.0</ele><time>2026-04-11T15:35:02.224Z</time></trkpt><trkpt lat="40.5986053" lon="9.7147901"><ele>11.25</ele><time>2026-04-11T15:35:05.244Z</time></trkpt><trkpt lat="40.5986167" lon="9.7146896"><ele>11.5</ele><time>2026-04-11T15:35:06.228Z</time></trkpt><trkpt lat="40.5986377" lon="9.7144815"><ele>11.75</ele><time>2026-04-11T15:35:08.245Z</time></trkpt><trkpt lat="40.598649" lon="9.7143722"><ele>12.0</ele><time>2026-04-11T15:35:09.228Z</time></trkpt><trkpt lat="40.5986685" lon="9.7140372"><ele>12.25</ele><time>2026-04-11T15:35:12.23Z</time></trkpt><trkpt lat="40.5986933" lon="9.7137324"><ele>12.5</ele><time>2026-04-11T15:35:15.23Z</time></trkpt><trkpt lat="40.5987207" lon="9.7135429"><ele>12.75</ele><time>2026-04-11T15:35:18.218Z</time></trkpt><trkpt lat="40.5986987" lon="9.7134569"><ele>13.0</ele><time>2026-04-11T15:35:21.217Z</time></trkpt><trkpt lat="40.5986246" lon="9.7134264"><ele>13.5</ele><time>2026-04-11T15:35:24.218Z</time></trkpt><trkpt lat="40.5985195" lon="9.7133837"><ele>14.0</ele><time>2026-04-11T15:35:27.221Z</time></trkpt><trkpt lat="40.5984632" lon="9.7131307"><ele>14.5</ele><time>2026-04-11T15:35:30.216Z</time></trkpt><trkpt lat="40.5984623" lon="9.7130195"><ele>15.0</ele><time>2026-04-11T15:35:31.213Z</time></trkpt><trkpt lat="40.5984593" lon="9.7129015"><ele>15.0</ele><time>2026-04-11T15:35:32.21Z</time></trkpt><trkpt lat="40.5984525" lon="9.7127845"><ele>15.0</ele><time>2026-04-11T15:35:33.215Z</time></trkpt><trkpt lat="40.59845" lon="9.7126689"><ele>15.0</ele><time>2026-04-11T15:35:34.214Z</time></trkpt><trkpt lat="40.5984441" lon="9.7124438"><ele>15.0</ele><time>2026-04-11T15:35:36.21Z</time></trkpt><trkpt lat="40.5984353" lon="9.7122053"><ele>15.75</ele><time>2026-04-11T15:35:38.214Z</time></trkpt><trkpt lat="40.5984305" lon="9.7120858"><ele>16.5</ele><time>2026-04-11T15:35:39.225Z</time></trkpt><trkpt lat="40.5984232" lon="9.7118417"><ele>17.25</ele><time>2026-04-11T15:35:41.212Z</time></trkpt><trkpt lat="40.5984164" lon="9.7117121"><ele>18.0</ele><time>2026-04-11T15:35:42.215Z</time></trkpt><trkpt lat="40.5984125" lon="9.7115784"><ele>18.333333333333332</ele><time>2026-04-11T15:35:43.212Z</time></trkpt><trkpt lat="40.5984152" lon="9.7114351"><ele>18.666666666666664</ele><time>2026-04-11T15:35:44.214Z</time></trkpt><trkpt lat="40.5984365" lon="9.711132"><ele>19.0</ele><time>2026-04-11T15:35:46.21Z</time></trkpt><trkpt lat="40.5984513" lon="9.7109702"><ele>19.0</ele><time>2026-04-11T15:35:47.225Z</time></trkpt><trkpt lat="40.5984734" lon="9.7107992"><ele>19.0</ele><time>2026-04-11T15:35:48.221Z</time></trkpt><trkpt lat="40.5985362" lon="9.7102902"><ele>19.666666666666664</ele><time>2026-04-11T15:35:51.221Z</time></trkpt><trkpt lat="40.5985518" lon="9.7101465"><ele>20.333333333333332</ele><time>2026-04-11T15:35:52.212Z</time></trkpt><trkpt lat="40.5986352" lon="9.7097193"><ele>21.0</ele><time>2026-04-11T15:35:55.221Z</time></trkpt><trkpt lat="40.5988381" lon="9.7093387"><ele>21.333333333333332</ele><time>2026-04-11T15:35:58.212Z</time></trkpt><trkpt lat="40.5989298" lon="9.7092117"><ele>21.666666666666664</ele><time>2026-04-11T15:35:59.207Z</time></trkpt><trkpt lat="40.5991288" lon="9.7089378"><ele>22.0</ele><time>2026-04-11T15:36:01.219Z</time></trkpt><trkpt lat="40.5995317" lon="9.7084973"><ele>22.0</ele><time>2026-04-11T15:36:05.214Z</time></trkpt><trkpt lat="40.5996473" lon="9.7084204"><ele>22.0</ele><time>2026-04-11T15:36:06.218Z</time></trkpt><trkpt lat="40.6000337" lon="9.7082015"><ele>22.0</ele><time>2026-04-11T15:36:09.2Z</time></trkpt><trkpt lat="40.6001768" lon="9.7081213"><ele>22.0</ele><time>2026-04-11T15:36:10.212Z</time></trkpt><trkpt lat="40.600717" lon="9.7077991"><ele>22.5</ele><time>2026-04-11T15:36:14.196Z</time></trkpt><trkpt lat="40.6008269" lon="9.7077351"><ele>23.0</ele><time>2026-04-11T15:36:15.204Z</time></trkpt><trkpt lat="40.6010104" lon="9.7075903"><ele>23.5</ele><time>2026-04-11T15:36:17.197Z</time></trkpt><trkpt lat="40.601064" lon="9.707507"><ele>24.0</ele><time>2026-04-11T15:36:18.201Z</time></trkpt><trkpt lat="40.6011774" lon="9.7074115"><ele>22.0</ele><time>2026-04-11T15:36:20.202Z</time></trkpt><trkpt lat="40.6012613" lon="9.7073983"><ele>20.0</ele><time>2026-04-11T15:36:21.202Z</time></trkpt><trkpt lat="40.6015476" lon="9.707366"><ele>18.0</ele><time>2026-04-11T15:36:24.191Z</time></trkpt><trkpt lat="40.6016289" lon="9.7073505"><ele>18.0</ele><time>2026-04-11T15:36:25.199Z</time></trkpt><trkpt lat="40.6017096" lon="9.7073354"><ele>18.0</ele><time>2026-04-11T15:36:26.197Z</time></trkpt><trkpt lat="40.6018634" lon="9.7072967"><ele>18.0</ele><time>2026-04-11T15:36:28.205Z</time></trkpt><trkpt lat="40.6019299" lon="9.7072776"><ele>18.0</ele><time>2026-04-11T15:36:29.195Z</time></trkpt><trkpt lat="40.6020246" lon="9.7072215"><ele>18.0</ele><time>2026-04-11T15:36:31.192Z</time></trkpt><trkpt lat="40.6020324" lon="9.7070613"><ele>18.5</ele><time>2026-04-11T15:36:34.188Z</time></trkpt><trkpt lat="40.6019065" lon="9.7068329"><ele>19.0</ele><time>2026-04-11T15:36:37.191Z</time></trkpt><trkpt lat="40.6018725" lon="9.7067568"><ele>19.5</ele><time>2026-04-11T15:36:38.189Z</time></trkpt><trkpt lat="40.6018643" lon="9.7065595"><ele>20.0</ele><time>2026-04-11T15:36:41.186Z</time></trkpt><trkpt lat="40.6020006" lon="9.7063279"><ele>19.25</ele><time>2026-04-11T15:36:44.187Z</time></trkpt><trkpt lat="40.6020571" lon="9.7062372"><ele>18.5</ele><time>2026-04-11T15:36:45.187Z</time></trkpt><trkpt lat="40.6021605" lon="9.7060737"><ele>17.75</ele><time>2026-04-11T15:36:47.182Z</time></trkpt><trkpt lat="40.6022199" lon="9.7059958"><ele>17.0</ele><time>2026-04-11T15:36:48.191Z</time></trkpt><trkpt lat="40.6023814" lon="9.7058149"><ele>17.0</ele><time>2026-04-11T15:36:51.185Z</time></trkpt><trkpt lat="40.6025798" lon="9.7056087"><ele>17.0</ele><time>2026-04-11T15:36:54.18Z</time></trkpt><trkpt lat="40.6027498" lon="9.7053836"><ele>17.333333333333336</ele><time>2026-04-11T15:36:57.185Z</time></trkpt><trkpt lat="40.6029374" lon="9.7051499"><ele>17.666666666666668</ele><time>2026-04-11T15:37:00.178Z</time></trkpt><trkpt lat="40.6029935" lon="9.7050782"><ele>18.0</ele><time>2026-04-11T15:37:01.175Z</time></trkpt><trkpt lat="40.6031002" lon="9.7049419"><ele>18.0</ele><time>2026-04-11T15:37:03.185Z</time></trkpt><trkpt lat="40.6032188" lon="9.7047775"><ele>18.0</ele><time>2026-04-11T15:37:06.177Z</time></trkpt><trkpt lat="40.6033471" lon="9.7045842"><ele>18.0</ele><time>2026-04-11T15:37:09.174Z</time></trkpt><trkpt lat="40.6033889" lon="9.7045012"><ele>18.0</ele><time>2026-04-11T15:37:10.168Z</time></trkpt><trkpt lat="40.6034314" lon="9.7044202"><ele>18.5</ele><time>2026-04-11T15:37:11.173Z</time></trkpt><trkpt lat="40.6035415" lon="9.7041652"><ele>19.0</ele><time>2026-04-11T15:37:14.181Z</time></trkpt><trkpt lat="40.6035868" lon="9.7039892"><ele>19.5</ele><time>2026-04-11T15:37:16.172Z</time></trkpt><trkpt lat="40.6036056" lon="9.7039087"><ele>20.0</ele><time>2026-04-11T15:37:17.177Z</time></trkpt><trkpt lat="40.6036541" lon="9.7037372"><ele>19.25</ele><time>2026-04-11T15:37:19.176Z</time></trkpt><trkpt lat="40.6036723" lon="9.7036456"><ele>18.5</ele><time>2026-04-11T15:37:20.167Z</time></trkpt><trkpt lat="40.6036967" lon="9.7034696"><ele>17.75</ele><time>2026-04-11T15:37:22.165Z</time></trkpt><trkpt lat="40.6037021" lon="9.7033736"><ele>17.0</ele><time>2026-04-11T15:37:23.175Z</time></trkpt><trkpt lat="40.603717" lon="9.7030515"><ele>17.0</ele><time>2026-04-11T15:37:26.174Z</time></trkpt><trkpt lat="40.6037236" lon="9.7029422"><ele>17.0</ele><time>2026-04-11T15:37:27.177Z</time></trkpt><trkpt lat="40.6037267" lon="9.7027564"><ele>17.0</ele><time>2026-04-11T15:37:29.166Z</time></trkpt><trkpt lat="40.6037119" lon="9.7026713"><ele>17.0</ele><time>2026-04-11T15:37:30.168Z</time></trkpt><trkpt lat="40.6036801" lon="9.7025029"><ele>17.0</ele><time>2026-04-11T15:37:32.162Z</time></trkpt><trkpt lat="40.6037177" lon="9.7023739"><ele>17.4</ele><time>2026-04-11T15:37:34.162Z</time></trkpt><trkpt lat="40.6038569" lon="9.7022125"><ele>17.799999999999997</ele><time>2026-04-11T15:37:37.17Z</time></trkpt><trkpt lat="40.603915" lon="9.7020853"><ele>18.2</ele><time>2026-04-11T15:37:39.177Z</time></trkpt><trkpt lat="40.6039224" lon="9.7020021"><ele>18.599999999999998</ele><time>2026-04-11T15:37:40.166Z</time></trkpt><trkpt lat="40.6039292" lon="9.7018977"><ele>19.0</ele><time>2026-04-11T15:37:41.169Z</time></trkpt><trkpt lat="40.603937" lon="9.7017846"><ele>19.333333333333332</ele><time>2026-04-11T15:37:42.164Z</time></trkpt><trkpt lat="40.603948" lon="9.7015575"><ele>19.666666666666668</ele><time>2026-04-11T15:37:44.165Z</time></trkpt><trkpt lat="40.6039512" lon="9.7014451"><ele>20.0</ele><time>2026-04-11T15:37:45.161Z</time></trkpt><trkpt lat="40.603972" lon="9.7010984"><ele>20.2</ele><time>2026-04-11T15:37:48.161Z</time></trkpt><trkpt lat="40.6039758" lon="9.7009836"><ele>20.4</ele><time>2026-04-11T15:37:49.168Z</time></trkpt><trkpt lat="40.6039843" lon="9.7007574"><ele>20.6</ele><time>2026-04-11T15:37:51.157Z</time></trkpt><trkpt lat="40.6039873" lon="9.7006484"><ele>20.8</ele><time>2026-04-11T15:37:52.152Z</time></trkpt><trkpt lat="40.6039914" lon="9.7005268"><ele>21.0</ele><time>2026-04-11T15:37:53.17Z</time></trkpt><trkpt lat="40.6040031" lon="9.7001401"><ele>22.0</ele><time>2026-04-11T15:37:56.156Z</time></trkpt><trkpt lat="40.6040083" lon="9.7000078"><ele>23.0</ele><time>2026-04-11T15:37:57.155Z</time></trkpt><trkpt lat="40.6040109" lon="9.6997926"><ele>24.0</ele><time>2026-04-11T15:37:59.153Z</time></trkpt><trkpt lat="40.6040059" lon="9.699701"><ele>25.0</ele><time>2026-04-11T15:38:00.156Z</time></trkpt><trkpt lat="40.6039884" lon="9.6993856"><ele>25.333333333333336</ele><time>2026-04-11T15:38:03.153Z</time></trkpt><trkpt lat="40.6039898" lon="9.6989869"><ele>25.666666666666664</ele><time>2026-04-11T15:38:06.153Z</time></trkpt><trkpt lat="40.603984" lon="9.6988488"><ele>26.0</ele><time>2026-04-11T15:38:07.154Z</time></trkpt><trkpt lat="40.6039527" lon="9.6985043"><ele>26.200000000000003</ele><time>2026-04-11T15:38:10.147Z</time></trkpt><trkpt lat="40.6039252" lon="9.6983369"><ele>26.400000000000002</ele><time>2026-04-11T15:38:12.156Z</time></trkpt><trkpt lat="40.60391" lon="9.6981627"><ele>26.6</ele><time>2026-04-11T15:38:15.157Z</time></trkpt><trkpt lat="40.6039352" lon="9.6980636"><ele>26.8</ele><time>2026-04-11T15:38:28.256Z</time></trkpt><trkpt lat="40.6040091" lon="9.6980323"><ele>27.0</ele><time>2026-04-11T15:38:31.243Z</time></trkpt><trkpt lat="40.6041113" lon="9.6981392"><ele>27.0</ele><time>2026-04-11T15:38:33.238Z</time></trkpt><trkpt lat="40.6044009" lon="9.6984001"><ele>27.0</ele><time>2026-04-11T15:38:36.235Z</time></trkpt><trkpt lat="40.6045232" lon="9.6985147"><ele>27.5</ele><time>2026-04-11T15:38:37.238Z</time></trkpt><trkpt lat="40.6046549" lon="9.6986261"><ele>28.0</ele><time>2026-04-11T15:38:38.241Z</time></trkpt><trkpt lat="40.6049966" lon="9.6989477"><ele>28.0</ele><time>2026-04-11T15:38:41.245Z</time></trkpt><trkpt lat="40.6050998" lon="9.6990482"><ele>28.0</ele><time>2026-04-11T15:38:42.244Z</time></trkpt><trkpt lat="40.6053076" lon="9.699248"><ele>28.0</ele><time>2026-04-11T15:38:44.242Z</time></trkpt><trkpt lat="40.6054157" lon="9.6993539"><ele>30.0</ele><time>2026-04-11T15:38:45.235Z</time></trkpt><trkpt lat="40.6056679" lon="9.6995846"><ele>32.0</ele><time>2026-04-11T15:38:47.236Z</time></trkpt><trkpt lat="40.6058009" lon="9.6997075"><ele>32.0</ele><time>2026-04-11T15:38:48.233Z</time></trkpt><trkpt lat="40.6060665" lon="9.6999528"><ele>32.0</ele><time>2026-04-11T15:38:50.247Z</time></trkpt><trkpt lat="40.6061838" lon="9.7000599"><ele>33.33333333333333</ele><time>2026-04-11T15:38:51.235Z</time></trkpt><trkpt lat="40.606393" lon="9.7002517"><ele>34.666666666666664</ele><time>2026-04-11T15:38:53.235Z</time></trkpt><trkpt lat="40.6064964" lon="9.7003484"><ele>36.0</ele><time>2026-04-11T15:38:54.237Z</time></trkpt><trkpt lat="40.6071758" lon="9.7009728"><ele>36.5</ele><time>2026-04-11T15:39:00.228Z</time></trkpt><trkpt lat="40.6072974" lon="9.7010843"><ele>37.0</ele><time>2026-04-11T15:39:01.237Z</time></trkpt><trkpt lat="40.6076777" lon="9.7014283"><ele>37.0</ele><time>2026-04-11T15:39:04.229Z</time></trkpt><trkpt lat="40.6078109" lon="9.7015446"><ele>37.0</ele><time>2026-04-11T15:39:05.232Z</time></trkpt><trkpt lat="40.6082656" lon="9.7018435"><ele>36.66666666666667</ele><time>2026-04-11T15:39:08.23Z</time></trkpt><trkpt lat="40.608422" lon="9.7019424"><ele>36.333333333333336</ele><time>2026-04-11T15:39:09.232Z</time></trkpt><trkpt lat="40.6085761" lon="9.7020452"><ele>36.0</ele><time>2026-04-11T15:39:10.226Z</time></trkpt><trkpt lat="40.6090168" lon="9.7023183"><ele>36.0</ele><time>2026-04-11T15:39:13.224Z</time></trkpt><trkpt lat="40.6092859" lon="9.7024863"><ele>36.0</ele><time>2026-04-11T15:39:15.228Z</time></trkpt><trkpt lat="40.60942" lon="9.7025667"><ele>36.0</ele><time>2026-04-11T15:39:16.224Z</time></trkpt><trkpt lat="40.6098374" lon="9.7027832"><ele>35.5</ele><time>2026-04-11T15:39:19.23Z</time></trkpt><trkpt lat="40.6099823" lon="9.7028547"><ele>35.0</ele><time>2026-04-11T15:39:20.225Z</time></trkpt><trkpt lat="40.6104401" lon="9.7030786"><ele>35.0</ele><time>2026-04-11T15:39:23.226Z</time></trkpt><trkpt lat="40.6110812" lon="9.703377"><ele>35.33333333333333</ele><time>2026-04-11T15:39:27.222Z</time></trkpt><trkpt lat="40.6112456" lon="9.7034535"><ele>35.666666666666664</ele><time>2026-04-11T15:39:28.219Z</time></trkpt><trkpt lat="40.6114104" lon="9.703532"><ele>36.0</ele><time>2026-04-11T15:39:29.218Z</time></trkpt><trkpt lat="40.6119077" lon="9.7037716"><ele>34.666666666666664</ele><time>2026-04-11T15:39:32.219Z</time></trkpt><trkpt lat="40.6120726" lon="9.7038539"><ele>33.33333333333333</ele><time>2026-04-11T15:39:33.217Z</time></trkpt><trkpt lat="40.6122381" lon="9.7039367"><ele>32.0</ele><time>2026-04-11T15:39:34.223Z</time></trkpt><trkpt lat="40.6125717" lon="9.704096"><ele>32.0</ele><time>2026-04-11T15:39:36.211Z</time></trkpt><trkpt lat="40.6127361" lon="9.7041806"><ele>32.0</ele><time>2026-04-11T15:39:37.215Z</time></trkpt><trkpt lat="40.6130533" lon="9.7043751"><ele>31.0</ele><time>2026-04-11T15:39:39.218Z</time></trkpt><trkpt lat="40.6132047" lon="9.7044933"><ele>30.0</ele><time>2026-04-11T15:39:40.212Z</time></trkpt><trkpt lat="40.6134891" lon="9.7047635"><ele>31.5</ele><time>2026-04-11T15:39:42.23Z</time></trkpt><trkpt lat="40.6137724" lon="9.7050264"><ele>33.0</ele><time>2026-04-11T15:39:44.213Z</time></trkpt><trkpt lat="40.6139152" lon="9.7051546"><ele>32.5</ele><time>2026-04-11T15:39:45.233Z</time></trkpt><trkpt lat="40.6141918" lon="9.7054115"><ele>32.0</ele><time>2026-04-11T15:39:47.218Z</time></trkpt><trkpt lat="40.6144661" lon="9.705661"><ele>34.0</ele><time>2026-04-11T15:39:49.221Z</time></trkpt><trkpt lat="40.6149934" lon="9.7061606"><ele>34.0</ele><time>2026-04-11T15:39:53.207Z</time></trkpt><trkpt lat="40.6151265" lon="9.7062895"><ele>34.0</ele><time>2026-04-11T15:39:54.209Z</time></trkpt><trkpt lat="40.615257" lon="9.7064143"><ele>34.0</ele><time>2026-04-11T15:39:55.217Z</time></trkpt><trkpt lat="40.6153907" lon="9.7065366"><ele>33.333333333333336</ele><time>2026-04-11T15:39:56.207Z</time></trkpt><trkpt lat="40.6155273" lon="9.7066634"><ele>32.666666666666664</ele><time>2026-04-11T15:39:57.21Z</time></trkpt><trkpt lat="40.6156678" lon="9.7067954"><ele>32.0</ele><time>2026-04-11T15:39:58.208Z</time></trkpt><trkpt lat="40.6158129" lon="9.7069286"><ele>32.0</ele><time>2026-04-11T15:39:59.212Z</time></trkpt><trkpt lat="40.6159601" lon="9.7070665"><ele>32.0</ele><time>2026-04-11T15:40:00.208Z</time></trkpt><trkpt lat="40.6161083" lon="9.7072075"><ele>32.0</ele><time>2026-04-11T15:40:01.21Z</time></trkpt><trkpt lat="40.6162617" lon="9.7073478"><ele>31.666666666666664</ele><time>2026-04-11T15:40:02.207Z</time></trkpt><trkpt lat="40.616412" lon="9.7074869"><ele>31.333333333333336</ele><time>2026-04-11T15:40:03.206Z</time></trkpt><trkpt lat="40.6165621" lon="9.7076267"><ele>31.0</ele><time>2026-04-11T15:40:04.203Z</time></trkpt><trkpt lat="40.6167141" lon="9.7077641"><ele>30.333333333333336</ele><time>2026-04-11T15:40:05.207Z</time></trkpt><trkpt lat="40.6168644" lon="9.7079032"><ele>29.666666666666664</ele><time>2026-04-11T15:40:06.212Z</time></trkpt><trkpt lat="40.6170137" lon="9.7080438"><ele>29.0</ele><time>2026-04-11T15:40:07.215Z</time></trkpt><trkpt lat="40.6171618" lon="9.7081808"><ele>28.666666666666664</ele><time>2026-04-11T15:40:08.206Z</time></trkpt><trkpt lat="40.6173073" lon="9.708303"><ele>28.333333333333336</ele><time>2026-04-11T15:40:09.216Z</time></trkpt><trkpt lat="40.617456" lon="9.7084024"><ele>28.0</ele><time>2026-04-11T15:40:10.227Z</time></trkpt><trkpt lat="40.6176128" lon="9.708474"><ele>28.0</ele><time>2026-04-11T15:40:11.263Z</time></trkpt><trkpt lat="40.6177715" lon="9.7085218"><ele>28.0</ele><time>2026-04-11T15:40:12.203Z</time></trkpt><trkpt lat="40.6179413" lon="9.7085718"><ele>28.0</ele><time>2026-04-11T15:40:13.199Z</time></trkpt><trkpt lat="40.6180989" lon="9.7086223"><ele>28.2</ele><time>2026-04-11T15:40:14.213Z</time></trkpt><trkpt lat="40.6182321" lon="9.7086623"><ele>28.4</ele><time>2026-04-11T15:40:15.228Z</time></trkpt><trkpt lat="40.6183448" lon="9.7086948"><ele>28.599999999999998</ele><time>2026-04-11T15:40:16.202Z</time></trkpt><trkpt lat="40.6184428" lon="9.7087249"><ele>28.799999999999997</ele><time>2026-04-11T15:40:17.202Z</time></trkpt><trkpt lat="40.6185247" lon="9.7087473"><ele>29.0</ele><time>2026-04-11T15:40:18.203Z</time></trkpt><trkpt lat="40.6186087" lon="9.7087577"><ele>28.499999999999996</ele><time>2026-04-11T15:40:20.197Z</time></trkpt><trkpt lat="40.6186532" lon="9.7086699"><ele>28.0</ele><time>2026-04-11T15:40:35.211Z</time></trkpt><trkpt lat="40.6187203" lon="9.7086306"><ele>27.5</ele><time>2026-04-11T15:40:37.212Z</time></trkpt><trkpt lat="40.6187899" lon="9.7086108"><ele>27.0</ele><time>2026-04-11T15:40:40.199Z</time></trkpt><trkpt lat="40.6188734" lon="9.7085973"><ele>26.499999999999996</ele><time>2026-04-11T15:40:43.221Z</time></trkpt><trkpt lat="40.6189391" lon="9.7085863"><ele>26.0</ele><time>2026-04-11T15:40:45.204Z</time></trkpt><trkpt lat="40.6190157" lon="9.7085691"><ele>26.200000000000003</ele><time>2026-04-11T15:40:47.2Z</time></trkpt><trkpt lat="40.6191007" lon="9.7085563"><ele>26.400000000000002</ele><time>2026-04-11T15:40:49.214Z</time></trkpt><trkpt lat="40.6191932" lon="9.7085354"><ele>26.6</ele><time>2026-04-11T15:40:51.198Z</time></trkpt><trkpt lat="40.6192805" lon="9.7084955"><ele>26.8</ele><time>2026-04-11T15:40:53.212Z</time></trkpt><trkpt lat="40.6193711" lon="9.7084544"><ele>27.0</ele><time>2026-04-11T15:40:55.196Z</time></trkpt><trkpt lat="40.6194885" lon="9.7084015"><ele>27.0</ele><time>2026-04-11T15:40:57.198Z</time></trkpt><trkpt lat="40.6195537" lon="9.7083684"><ele>27.0</ele><time>2026-04-11T15:40:58.197Z</time></trkpt><trkpt lat="40.6196253" lon="9.7083361"><ele>27.0</ele><time>2026-04-11T15:40:59.191Z</time></trkpt><trkpt lat="40.6197043" lon="9.7082937"><ele>27.0</ele><time>2026-04-11T15:41:00.191Z</time></trkpt><trkpt lat="40.6197977" lon="9.7082565"><ele>27.0</ele><time>2026-04-11T15:41:01.197Z</time></trkpt><trkpt lat="40.6198935" lon="9.7082271"><ele>27.0</ele><time>2026-04-11T15:41:02.202Z</time></trkpt><trkpt lat="40.6199881" lon="9.7082119"><ele>27.0</ele><time>2026-04-11T15:41:03.194Z</time></trkpt><trkpt lat="40.6200857" lon="9.7082067"><ele>27.000000000000004</ele><time>2026-04-11T15:41:04.193Z</time></trkpt><trkpt lat="40.6201863" lon="9.7082007"><ele>27.000000000000004</ele><time>2026-04-11T15:41:05.217Z</time></trkpt><trkpt lat="40.6202847" lon="9.7081896"><ele>27.0</ele><time>2026-04-11T15:41:06.197Z</time></trkpt><trkpt lat="40.6203758" lon="9.708177"><ele>27.0</ele><time>2026-04-11T15:41:07.201Z</time></trkpt><trkpt lat="40.6204655" lon="9.7081641"><ele>27.0</ele><time>2026-04-11T15:41:08.197Z</time></trkpt><trkpt lat="40.6205531" lon="9.7081649"><ele>27.000000000000004</ele><time>2026-04-11T15:41:09.208Z</time></trkpt><trkpt lat="40.6206476" lon="9.7081743"><ele>27.000000000000004</ele><time>2026-04-11T15:41:10.202Z</time></trkpt><trkpt lat="40.6207493" lon="9.7081795"><ele>27.0</ele><time>2026-04-11T15:41:11.203Z</time></trkpt><trkpt lat="40.6208556" lon="9.7081787"><ele>27.0</ele><time>2026-04-11T15:41:12.198Z</time></trkpt><trkpt lat="40.6209628" lon="9.7081737"><ele>27.0</ele><time>2026-04-11T15:41:13.199Z</time></trkpt><trkpt lat="40.621077" lon="9.708171"><ele>27.000000000000004</ele><time>2026-04-11T15:41:14.201Z</time></trkpt><trkpt lat="40.6211861" lon="9.708171"><ele>27.000000000000004</ele><time>2026-04-11T15:41:15.188Z</time></trkpt><trkpt lat="40.6212841" lon="9.7081688"><ele>27.0</ele><time>2026-04-11T15:41:16.194Z</time></trkpt><trkpt lat="40.6213751" lon="9.7081632"><ele>27.0</ele><time>2026-04-11T15:41:17.203Z</time></trkpt><trkpt lat="40.6214644" lon="9.708162"><ele>26.5</ele><time>2026-04-11T15:41:18.206Z</time></trkpt><trkpt lat="40.6215513" lon="9.7081643"><ele>26.0</ele><time>2026-04-11T15:41:19.197Z</time></trkpt><trkpt lat="40.6216411" lon="9.7081659"><ele>25.5</ele><time>2026-04-11T15:41:20.188Z</time></trkpt><trkpt lat="40.6217266" lon="9.7081604"><ele>25.0</ele><time>2026-04-11T15:41:21.213Z</time></trkpt><trkpt lat="40.6218106" lon="9.7081595"><ele>24.5</ele><time>2026-04-11T15:41:22.189Z</time></trkpt><trkpt lat="40.621892" lon="9.7081617"><ele>24.0</ele><time>2026-04-11T15:41:23.197Z</time></trkpt><trkpt lat="40.6219773" lon="9.7081684"><ele>23.333333333333332</ele><time>2026-04-11T15:41:24.19Z</time></trkpt><trkpt lat="40.6220649" lon="9.7081757"><ele>22.666666666666668</ele><time>2026-04-11T15:41:25.189Z</time></trkpt><trkpt lat="40.6221518" lon="9.7081838"><ele>22.0</ele><time>2026-04-11T15:41:26.202Z</time></trkpt><trkpt lat="40.6222311" lon="9.7081924"><ele>21.333333333333336</ele><time>2026-04-11T15:41:27.189Z</time></trkpt><trkpt lat="40.6223043" lon="9.7082023"><ele>20.666666666666668</ele><time>2026-04-11T15:41:28.194Z</time></trkpt><trkpt lat="40.6224203" lon="9.708212"><ele>20.0</ele><time>2026-04-11T15:41:30.208Z</time></trkpt><trkpt lat="40.6225274" lon="9.7081582"><ele>20.0</ele><time>2026-04-11T15:41:32.19Z</time></trkpt><trkpt lat="40.6225848" lon="9.7081178"><ele>20.0</ele><time>2026-04-11T15:41:33.181Z</time></trkpt><trkpt lat="40.6226535" lon="9.7080853"><ele>20.0</ele><time>2026-04-11T15:41:34.19Z</time></trkpt><trkpt lat="40.6227314" lon="9.708057"><ele>20.0</ele><time>2026-04-11T15:41:35.199Z</time></trkpt><trkpt lat="40.622813" lon="9.7080319"><ele>20.0</ele><time>2026-04-11T15:41:36.191Z</time></trkpt><trkpt lat="40.6228946" lon="9.7080039"><ele>20.0</ele><time>2026-04-11T15:41:37.181Z</time></trkpt><trkpt lat="40.6229774" lon="9.707973"><ele>20.166666666666668</ele><time>2026-04-11T15:41:38.184Z</time></trkpt><trkpt lat="40.6230585" lon="9.7079442"><ele>20.333333333333336</ele><time>2026-04-11T15:41:39.192Z</time></trkpt><trkpt lat="40.6231416" lon="9.7079231"><ele>20.5</ele><time>2026-04-11T15:41:40.185Z</time></trkpt><trkpt lat="40.6232197" lon="9.7078992"><ele>20.666666666666668</ele><time>2026-04-11T15:41:41.188Z</time></trkpt><trkpt lat="40.6232888" lon="9.7078827"><ele>20.833333333333332</ele><time>2026-04-11T15:41:42.195Z</time></trkpt><trkpt lat="40.6233945" lon="9.7078029"><ele>21.0</ele><time>2026-04-11T15:41:44.221Z</time></trkpt><trkpt lat="40.6234411" lon="9.7077445"><ele>21.666666666666668</ele><time>2026-04-11T15:41:45.179Z</time></trkpt><trkpt lat="40.6234942" lon="9.707683"><ele>22.333333333333336</ele><time>2026-04-11T15:41:46.182Z</time></trkpt><trkpt lat="40.6235516" lon="9.7076062"><ele>23.0</ele><time>2026-04-11T15:41:47.192Z</time></trkpt><trkpt lat="40.6236111" lon="9.7075283"><ele>23.666666666666668</ele><time>2026-04-11T15:41:48.187Z</time></trkpt><trkpt lat="40.6236642" lon="9.7074581"><ele>24.333333333333336</ele><time>2026-04-11T15:41:49.19Z</time></trkpt><trkpt lat="40.6237149" lon="9.7073892"><ele>25.0</ele><time>2026-04-11T15:41:50.187Z</time></trkpt><trkpt lat="40.6237685" lon="9.7073246"><ele>25.714285714285715</ele><time>2026-04-11T15:41:51.183Z</time></trkpt><trkpt lat="40.6238206" lon="9.7072582"><ele>26.42857142857143</ele><time>2026-04-11T15:41:52.188Z</time></trkpt><trkpt lat="40.6238713" lon="9.7071961"><ele>27.142857142857146</ele><time>2026-04-11T15:41:53.182Z</time></trkpt><trkpt lat="40.6239182" lon="9.707131"><ele>27.857142857142858</ele><time>2026-04-11T15:41:54.176Z</time></trkpt><trkpt lat="40.6239665" lon="9.7070592"><ele>28.57142857142857</ele><time>2026-04-11T15:41:55.18Z</time></trkpt><trkpt lat="40.624007" lon="9.7069821"><ele>29.28571428571429</ele><time>2026-04-11T15:41:56.183Z</time></trkpt><trkpt lat="40.624051" lon="9.7069049"><ele>30.0</ele><time>2026-04-11T15:41:57.177Z</time></trkpt><trkpt lat="40.6240959" lon="9.7068268"><ele>30.0</ele><time>2026-04-11T15:41:58.175Z</time></trkpt><trkpt lat="40.6241425" lon="9.7067522"><ele>30.0</ele><time>2026-04-11T15:41:59.183Z</time></trkpt><trkpt lat="40.624191" lon="9.7066855"><ele>30.0</ele><time>2026-04-11T15:42:00.178Z</time></trkpt><trkpt lat="40.6242492" lon="9.706625"><ele>30.0</ele><time>2026-04-11T15:42:01.172Z</time></trkpt><trkpt lat="40.6243201" lon="9.7065724"><ele>30.0</ele><time>2026-04-11T15:42:02.175Z</time></trkpt><trkpt lat="40.6243857" lon="9.7065182"><ele>30.0</ele><time>2026-04-11T15:42:03.176Z</time></trkpt><trkpt lat="40.6244516" lon="9.7064551"><ele>32.5</ele><time>2026-04-11T15:42:04.175Z</time></trkpt><trkpt lat="40.6245116" lon="9.7063849"><ele>35.0</ele><time>2026-04-11T15:42:05.172Z</time></trkpt><trkpt lat="40.6245647" lon="9.7063107"><ele>37.5</ele><time>2026-04-11T15:42:06.179Z</time></trkpt><trkpt lat="40.6246201" lon="9.7062595"><ele>40.0</ele><time>2026-04-11T15:42:07.176Z</time></trkpt><trkpt lat="40.6246858" lon="9.7062168"><ele>42.5</ele><time>2026-04-11T15:42:08.179Z</time></trkpt><trkpt lat="40.6247669" lon="9.7061782"><ele>45.0</ele><time>2026-04-11T15:42:09.169Z</time></trkpt><trkpt lat="40.6248474" lon="9.7061296"><ele>45.0</ele><time>2026-04-11T15:42:10.178Z</time></trkpt><trkpt lat="40.6249265" lon="9.7060817"><ele>45.0</ele><time>2026-04-11T15:42:11.176Z</time></trkpt><trkpt lat="40.6250076" lon="9.7060281"><ele>45.0</ele><time>2026-04-11T15:42:12.168Z</time></trkpt><trkpt lat="40.625087" lon="9.7059673"><ele>45.0</ele><time>2026-04-11T15:42:13.176Z</time></trkpt><trkpt lat="40.6251597" lon="9.7059011"><ele>45.0</ele><time>2026-04-11T15:42:14.181Z</time></trkpt><trkpt lat="40.6252242" lon="9.705841"><ele>45.0</ele><time>2026-04-11T15:42:15.172Z</time></trkpt><trkpt lat="40.6252893" lon="9.7057819"><ele>42.5</ele><time>2026-04-11T15:42:16.186Z</time></trkpt><trkpt lat="40.6253536" lon="9.705724"><ele>40.0</ele><time>2026-04-11T15:42:17.176Z</time></trkpt><trkpt lat="40.6254183" lon="9.7056659"><ele>37.5</ele><time>2026-04-11T15:42:18.188Z</time></trkpt><trkpt lat="40.6254792" lon="9.7056023"><ele>35.0</ele><time>2026-04-11T15:42:19.167Z</time></trkpt><trkpt lat="40.6255359" lon="9.7055354"><ele>32.5</ele><time>2026-04-11T15:42:20.174Z</time></trkpt><trkpt lat="40.6255984" lon="9.7054708"><ele>30.0</ele><time>2026-04-11T15:42:21.186Z</time></trkpt><trkpt lat="40.6256749" lon="9.7054034"><ele>30.0</ele><time>2026-04-11T15:42:22.173Z</time></trkpt><trkpt lat="40.6257533" lon="9.7053437"><ele>30.0</ele><time>2026-04-11T15:42:23.164Z</time></trkpt><trkpt lat="40.625827" lon="9.7052974"><ele>30.0</ele><time>2026-04-11T15:42:24.172Z</time></trkpt><trkpt lat="40.6258959" lon="9.7052666"><ele>30.0</ele><time>2026-04-11T15:42:25.177Z</time></trkpt><trkpt lat="40.6259697" lon="9.7052518"><ele>30.0</ele><time>2026-04-11T15:42:26.172Z</time></trkpt><trkpt lat="40.6260504" lon="9.705245"><ele>30.0</ele><time>2026-04-11T15:42:27.185Z</time></trkpt><trkpt lat="40.6261316" lon="9.7052328"><ele>28.666666666666668</ele><time>2026-04-11T15:42:28.179Z</time></trkpt><trkpt lat="40.6262101" lon="9.7052162"><ele>27.333333333333332</ele><time>2026-04-11T15:42:29.166Z</time></trkpt><trkpt lat="40.6262857" lon="9.705193"><ele>26.0</ele><time>2026-04-11T15:42:30.17Z</time></trkpt><trkpt lat="40.6263597" lon="9.705167"><ele>24.666666666666664</ele><time>2026-04-11T15:42:31.168Z</time></trkpt><trkpt lat="40.6264335" lon="9.7051541"><ele>23.333333333333332</ele><time>2026-04-11T15:42:32.181Z</time></trkpt><trkpt lat="40.6265163" lon="9.7051691"><ele>22.0</ele><time>2026-04-11T15:42:33.173Z</time></trkpt><trkpt lat="40.6266087" lon="9.7052034"><ele>21.8</ele><time>2026-04-11T15:42:34.164Z</time></trkpt><trkpt lat="40.6267126" lon="9.7052494"><ele>21.6</ele><time>2026-04-11T15:42:35.165Z</time></trkpt><trkpt lat="40.6268203" lon="9.7052964"><ele>21.400000000000002</ele><time>2026-04-11T15:42:36.168Z</time></trkpt><trkpt lat="40.6269259" lon="9.7053412"><ele>21.200000000000003</ele><time>2026-04-11T15:42:37.167Z</time></trkpt><trkpt lat="40.6270329" lon="9.7053765"><ele>21.0</ele><time>2026-04-11T15:42:38.169Z</time></trkpt><trkpt lat="40.627134" lon="9.7054038"><ele>21.0</ele><time>2026-04-11T15:42:39.168Z</time></trkpt><trkpt lat="40.6272285" lon="9.7054334"><ele>21.0</ele><time>2026-04-11T15:42:40.163Z</time></trkpt><trkpt lat="40.6273188" lon="9.7054696"><ele>21.0</ele><time>2026-04-11T15:42:41.174Z</time></trkpt><trkpt lat="40.6274055" lon="9.7055042"><ele>21.0</ele><time>2026-04-11T15:42:42.183Z</time></trkpt><trkpt lat="40.6274931" lon="9.7055374"><ele>21.0</ele><time>2026-04-11T15:42:43.162Z</time></trkpt><trkpt lat="40.6275817" lon="9.7055715"><ele>21.0</ele><time>2026-04-11T15:42:44.159Z</time></trkpt><trkpt lat="40.6276701" lon="9.7056081"><ele>21.0</ele><time>2026-04-11T15:42:45.164Z</time></trkpt><trkpt lat="40.6277661" lon="9.7056459"><ele>21.0</ele><time>2026-04-11T15:42:46.167Z</time></trkpt><trkpt lat="40.6278626" lon="9.7056821"><ele>21.0</ele><time>2026-04-11T15:42:47.164Z</time></trkpt><trkpt lat="40.6279551" lon="9.7057141"><ele>21.0</ele><time>2026-04-11T15:42:48.16Z</time></trkpt><trkpt lat="40.628042" lon="9.7057437"><ele>20.166666666666668</ele><time>2026-04-11T15:42:49.184Z</time></trkpt><trkpt lat="40.6281226" lon="9.7057747"><ele>19.333333333333332</ele><time>2026-04-11T15:42:50.165Z</time></trkpt><trkpt lat="40.6282086" lon="9.7058058"><ele>18.5</ele><time>2026-04-11T15:42:51.155Z</time></trkpt><trkpt lat="40.6282991" lon="9.7058353"><ele>17.666666666666664</ele><time>2026-04-11T15:42:52.173Z</time></trkpt><trkpt lat="40.6283879" lon="9.7058681"><ele>16.833333333333332</ele><time>2026-04-11T15:42:53.162Z</time></trkpt><trkpt lat="40.6284722" lon="9.7058954"><ele>16.0</ele><time>2026-04-11T15:42:54.157Z</time></trkpt><trkpt lat="40.6285468" lon="9.705923"><ele>15.999999999999998</ele><time>2026-04-11T15:42:55.17Z</time></trkpt><trkpt lat="40.6286194" lon="9.7059527"><ele>16.0</ele><time>2026-04-11T15:42:56.16Z</time></trkpt><trkpt lat="40.6286859" lon="9.7059746"><ele>16.0</ele><time>2026-04-11T15:42:57.156Z</time></trkpt><trkpt lat="40.6287817" lon="9.7060099"><ele>16.0</ele><time>2026-04-11T15:42:59.167Z</time></trkpt><trkpt lat="40.6288544" lon="9.7060275"><ele>15.999999999999998</ele><time>2026-04-11T15:43:02.177Z</time></trkpt><trkpt lat="40.628922" lon="9.7060503"><ele>16.0</ele><time>2026-04-11T15:43:10.167Z</time></trkpt><trkpt lat="40.6289493" lon="9.7061551"><ele>15.600000000000001</ele><time>2026-04-11T15:43:18.169Z</time></trkpt><trkpt lat="40.6289349" lon="9.706304"><ele>15.200000000000001</ele><time>2026-04-11T15:43:20.164Z</time></trkpt><trkpt lat="40.6289249" lon="9.7064098"><ele>14.799999999999999</ele><time>2026-04-11T15:43:21.176Z</time></trkpt><trkpt lat="40.628913" lon="9.7065453"><ele>14.399999999999999</ele><time>2026-04-11T15:43:22.169Z</time></trkpt><trkpt lat="40.62891" lon="9.7067031"><ele>14.0</ele><time>2026-04-11T15:43:23.152Z</time></trkpt><trkpt lat="40.628909" lon="9.7068796"><ele>14.25</ele><time>2026-04-11T15:43:24.156Z</time></trkpt><trkpt lat="40.6289254" lon="9.7070713"><ele>14.5</ele><time>2026-04-11T15:43:25.154Z</time></trkpt><trkpt lat="40.6289715" lon="9.7072565"><ele>14.75</ele><time>2026-04-11T15:43:26.15Z</time></trkpt><trkpt lat="40.629038" lon="9.7074262"><ele>15.0</ele><time>2026-04-11T15:43:27.156Z</time></trkpt><trkpt lat="40.629121" lon="9.7075767"><ele>15.0</ele><time>2026-04-11T15:43:28.163Z</time></trkpt><trkpt lat="40.6292134" lon="9.7077222"><ele>15.0</ele><time>2026-04-11T15:43:29.163Z</time></trkpt><trkpt lat="40.629319" lon="9.7078747"><ele>15.0</ele><time>2026-04-11T15:43:30.154Z</time></trkpt><trkpt lat="40.6294234" lon="9.7080505"><ele>14.666666666666668</ele><time>2026-04-11T15:43:31.152Z</time></trkpt><trkpt lat="40.6295202" lon="9.7082355"><ele>14.333333333333334</ele><time>2026-04-11T15:43:32.154Z</time></trkpt><trkpt lat="40.6296096" lon="9.7084291"><ele>14.0</ele><time>2026-04-11T15:43:33.16Z</time></trkpt><trkpt lat="40.6296968" lon="9.7086227"><ele>14.666666666666668</ele><time>2026-04-11T15:43:34.157Z</time></trkpt><trkpt lat="40.6297862" lon="9.708818"><ele>15.333333333333332</ele><time>2026-04-11T15:43:35.152Z</time></trkpt><trkpt lat="40.629873" lon="9.7090137"><ele>16.0</ele><time>2026-04-11T15:43:36.149Z</time></trkpt><trkpt lat="40.6299477" lon="9.7092046"><ele>16.0</ele><time>2026-04-11T15:43:37.151Z</time></trkpt><trkpt lat="40.6300004" lon="9.7094053"><ele>16.0</ele><time>2026-04-11T15:43:38.169Z</time></trkpt><trkpt lat="40.6300331" lon="9.709612"><ele>16.0</ele><time>2026-04-11T15:43:39.162Z</time></trkpt><trkpt lat="40.6300585" lon="9.7098263"><ele>16.0</ele><time>2026-04-11T15:43:40.152Z</time></trkpt><trkpt lat="40.6300709" lon="9.7100354"><ele>16.0</ele><time>2026-04-11T15:43:41.158Z</time></trkpt><trkpt lat="40.630079" lon="9.710225"><ele>16.0</ele><time>2026-04-11T15:43:42.161Z</time></trkpt><trkpt lat="40.6300851" lon="9.7104015"><ele>16.0</ele><time>2026-04-11T15:43:43.161Z</time></trkpt><trkpt lat="40.6300877" lon="9.7105701"><ele>16.0</ele><time>2026-04-11T15:43:44.154Z</time></trkpt><trkpt lat="40.6300915" lon="9.710736"><ele>16.0</ele><time>2026-04-11T15:43:45.156Z</time></trkpt><trkpt lat="40.6300988" lon="9.710902"><ele>16.0</ele><time>2026-04-11T15:43:46.154Z</time></trkpt><trkpt lat="40.6301063" lon="9.7110617"><ele>16.0</ele><time>2026-04-11T15:43:47.148Z</time></trkpt><trkpt lat="40.6301123" lon="9.7112255"><ele>15.75</ele><time>2026-04-11T15:43:48.158Z</time></trkpt><trkpt lat="40.6301221" lon="9.7113918"><ele>15.5</ele><time>2026-04-11T15:43:49.156Z</time></trkpt><trkpt lat="40.6301299" lon="9.7115609"><ele>15.25</ele><time>2026-04-11T15:43:50.156Z</time></trkpt><trkpt lat="40.6301385" lon="9.7117375"><ele>15.0</ele><time>2026-04-11T15:43:51.153Z</time></trkpt><trkpt lat="40.6301473" lon="9.7119128"><ele>15.0</ele><time>2026-04-11T15:43:52.15Z</time></trkpt><trkpt lat="40.6301602" lon="9.7120845"><ele>15.0</ele><time>2026-04-11T15:43:53.15Z</time></trkpt><trkpt lat="40.6301689" lon="9.712256"><ele>15.0</ele><time>2026-04-11T15:43:54.149Z</time></trkpt><trkpt lat="40.630176" lon="9.7124229"><ele>15.0</ele><time>2026-04-11T15:43:55.153Z</time></trkpt><trkpt lat="40.6301815" lon="9.7125901"><ele>15.0</ele><time>2026-04-11T15:43:56.152Z</time></trkpt><trkpt lat="40.6301874" lon="9.7127549"><ele>15.0</ele><time>2026-04-11T15:43:57.148Z</time></trkpt><trkpt lat="40.6301971" lon="9.7129145"><ele>15.0</ele><time>2026-04-11T15:43:58.149Z</time></trkpt><trkpt lat="40.6302066" lon="9.7130695"><ele>15.0</ele><time>2026-04-11T15:43:59.253Z</time></trkpt><trkpt lat="40.6302135" lon="9.7132252"><ele>15.0</ele><time>2026-04-11T15:44:00.271Z</time></trkpt><trkpt lat="40.6302174" lon="9.7133729"><ele>15.0</ele><time>2026-04-11T15:44:01.245Z</time></trkpt><trkpt lat="40.6302217" lon="9.713502"><ele>15.0</ele><time>2026-04-11T15:44:02.267Z</time></trkpt><trkpt lat="40.6302262" lon="9.7136105"><ele>15.0</ele><time>2026-04-11T15:44:03.25Z</time></trkpt><trkpt lat="40.6302354" lon="9.7137111"><ele>15.0</ele><time>2026-04-11T15:44:04.157Z</time></trkpt><trkpt lat="40.6302423" lon="9.7138049"><ele>15.0</ele><time>2026-04-11T15:44:05.248Z</time></trkpt><trkpt lat="40.6302414" lon="9.7139025"><ele>14.666666666666666</ele><time>2026-04-11T15:44:06.248Z</time></trkpt><trkpt lat="40.6302465" lon="9.7139975"><ele>14.333333333333332</ele><time>2026-04-11T15:44:07.241Z</time></trkpt><trkpt lat="40.6302529" lon="9.7140871"><ele>14.0</ele><time>2026-04-11T15:44:08.262Z</time></trkpt><trkpt lat="40.630252" lon="9.7141727"><ele>13.666666666666666</ele><time>2026-04-11T15:44:09.255Z</time></trkpt><trkpt lat="40.6302611" lon="9.7143307"><ele>13.333333333333332</ele><time>2026-04-11T15:44:11.249Z</time></trkpt><trkpt lat="40.6302723" lon="9.7144858"><ele>13.0</ele><time>2026-04-11T15:44:13.244Z</time></trkpt><trkpt lat="40.6302777" lon="9.7145929"><ele>12.666666666666666</ele><time>2026-04-11T15:44:15.243Z</time></trkpt><trkpt lat="40.6302797" lon="9.7146891"><ele>12.333333333333332</ele><time>2026-04-11T15:44:18.251Z</time></trkpt><trkpt lat="40.6302936" lon="9.7147932"><ele>12.0</ele><time>2026-04-11T15:44:22.234Z</time></trkpt><trkpt lat="40.6303262" lon="9.7148992"><ele>11.666666666666666</ele><time>2026-04-11T15:44:31.24Z</time></trkpt><trkpt lat="40.6304313" lon="9.7149264"><ele>11.333333333333332</ele><time>2026-04-11T15:44:33.266Z</time></trkpt><trkpt lat="40.6305053" lon="9.7149171"><ele>11.0</ele><time>2026-04-11T15:44:34.239Z</time></trkpt><trkpt lat="40.6305937" lon="9.7149036"><ele>11.0</ele><time>2026-04-11T15:44:35.239Z</time></trkpt><trkpt lat="40.6306822" lon="9.7149027"><ele>11.0</ele><time>2026-04-11T15:44:36.234Z</time></trkpt><trkpt lat="40.6307669" lon="9.7149007"><ele>11.0</ele><time>2026-04-11T15:44:37.24Z</time></trkpt><trkpt lat="40.6308572" lon="9.7148976"><ele>11.0</ele><time>2026-04-11T15:44:38.239Z</time></trkpt><trkpt lat="40.6309456" lon="9.7148951"><ele>11.0</ele><time>2026-04-11T15:44:39.234Z</time></trkpt><trkpt lat="40.6310391" lon="9.7148925"><ele>11.0</ele><time>2026-04-11T15:44:40.244Z</time></trkpt><trkpt lat="40.6311315" lon="9.7148894"><ele>11.166666666666666</ele><time>2026-04-11T15:44:41.235Z</time></trkpt><trkpt lat="40.6312154" lon="9.7148865"><ele>11.333333333333332</ele><time>2026-04-11T15:44:42.251Z</time></trkpt><trkpt lat="40.6313006" lon="9.7148795"><ele>11.5</ele><time>2026-04-11T15:44:43.239Z</time></trkpt><trkpt lat="40.6313805" lon="9.7148774"><ele>11.666666666666666</ele><time>2026-04-11T15:44:44.239Z</time></trkpt><trkpt lat="40.6314529" lon="9.7148737"><ele>11.833333333333334</ele><time>2026-04-11T15:44:45.247Z</time></trkpt><trkpt lat="40.6315285" lon="9.7148698"><ele>12.0</ele><time>2026-04-11T15:44:46.231Z</time></trkpt><trkpt lat="40.631602" lon="9.7148647"><ele>11.999999999999998</ele><time>2026-04-11T15:44:47.241Z</time></trkpt><trkpt lat="40.6316716" lon="9.714858"><ele>12.0</ele><time>2026-04-11T15:44:48.235Z</time></trkpt><trkpt lat="40.6317391" lon="9.7148568"><ele>12.0</ele><time>2026-04-11T15:44:49.245Z</time></trkpt><trkpt lat="40.6318078" lon="9.7148524"><ele>12.0</ele><time>2026-04-11T15:44:50.23Z</time></trkpt><trkpt lat="40.631876" lon="9.7148551"><ele>12.0</ele><time>2026-04-11T15:44:51.238Z</time></trkpt><trkpt lat="40.6319437" lon="9.7148582"><ele>11.999999999999998</ele><time>2026-04-11T15:44:52.244Z</time></trkpt><trkpt lat="40.6320128" lon="9.7148562"><ele>12.0</ele><time>2026-04-11T15:44:53.237Z</time></trkpt><trkpt lat="40.632084" lon="9.7148548"><ele>12.333333333333334</ele><time>2026-04-11T15:44:54.232Z</time></trkpt><trkpt lat="40.632158" lon="9.7148455"><ele>12.666666666666668</ele><time>2026-04-11T15:44:55.241Z</time></trkpt><trkpt lat="40.6322299" lon="9.7148427"><ele>13.0</ele><time>2026-04-11T15:44:56.232Z</time></trkpt><trkpt lat="40.6323011" lon="9.7148385"><ele>13.333333333333334</ele><time>2026-04-11T15:44:57.227Z</time></trkpt><trkpt lat="40.6323723" lon="9.7148334"><ele>13.666666666666668</ele><time>2026-04-11T15:44:58.233Z</time></trkpt><trkpt lat="40.6324388" lon="9.714828"><ele>14.0</ele><time>2026-04-11T15:44:59.244Z</time></trkpt><trkpt lat="40.6325447" lon="9.7148266"><ele>14.0</ele><time>2026-04-11T15:45:01.24Z</time></trkpt><trkpt lat="40.6326098" lon="9.7148304"><ele>13.999999999999998</ele><time>2026-04-11T15:45:07.249Z</time></trkpt><trkpt lat="40.632701" lon="9.7148348"><ele>13.999999999999998</ele><time>2026-04-11T15:45:10.244Z</time></trkpt><trkpt lat="40.6328298" lon="9.7148308"><ele>14.0</ele><time>2026-04-11T15:45:12.261Z</time></trkpt><trkpt lat="40.6329172" lon="9.7148246"><ele>14.0</ele><time>2026-04-11T15:45:13.23Z</time></trkpt><trkpt lat="40.6330208" lon="9.7148175"><ele>14.25</ele><time>2026-04-11T15:45:14.237Z</time></trkpt><trkpt lat="40.6331375" lon="9.7148112"><ele>14.5</ele><time>2026-04-11T15:45:15.247Z</time></trkpt><trkpt lat="40.6332651" lon="9.7147988"><ele>14.75</ele><time>2026-04-11T15:45:16.23Z</time></trkpt><trkpt lat="40.6334123" lon="9.7147725"><ele>15.0</ele><time>2026-04-11T15:45:17.254Z</time></trkpt><trkpt lat="40.6335743" lon="9.7147254"><ele>13.333333333333334</ele><time>2026-04-11T15:45:18.23Z</time></trkpt><trkpt lat="40.6337484" lon="9.7146705"><ele>11.666666666666668</ele><time>2026-04-11T15:45:19.238Z</time></trkpt><trkpt lat="40.6339354" lon="9.7146113"><ele>10.0</ele><time>2026-04-11T15:45:20.248Z</time></trkpt><trkpt lat="40.63413" lon="9.7145583"><ele>10.0</ele><time>2026-04-11T15:45:21.237Z</time></trkpt><trkpt lat="40.6343408" lon="9.7144958"><ele>10.0</ele><time>2026-04-11T15:45:22.224Z</time></trkpt><trkpt lat="40.6345496" lon="9.7144303"><ele>10.0</ele><time>2026-04-11T15:45:23.234Z</time></trkpt><trkpt lat="40.634762" lon="9.7143648"><ele>8.0</ele><time>2026-04-11T15:45:24.235Z</time></trkpt><trkpt lat="40.6349736" lon="9.7142991"><ele>6.0</ele><time>2026-04-11T15:45:25.241Z</time></trkpt><trkpt lat="40.6351816" lon="9.7142361"><ele>4.0</ele><time>2026-04-11T15:45:26.238Z</time></trkpt><trkpt lat="40.6353901" lon="9.7141697"><ele>3.333333333333333</ele><time>2026-04-11T15:45:27.225Z</time></trkpt><trkpt lat="40.6355977" lon="9.7141032"><ele>2.6666666666666665</ele><time>2026-04-11T15:45:28.225Z</time></trkpt><trkpt lat="40.6358041" lon="9.7140274"><ele>2.0</ele><time>2026-04-11T15:45:29.229Z</time></trkpt><trkpt lat="40.6360089" lon="9.7139555"><ele>2.0</ele><time>2026-04-11T15:45:30.227Z</time></trkpt><trkpt lat="40.6362084" lon="9.7138935"><ele>2.0</ele><time>2026-04-11T15:45:31.23Z</time></trkpt><trkpt lat="40.6364061" lon="9.7138314"><ele>2.0</ele><time>2026-04-11T15:45:32.221Z</time></trkpt><trkpt lat="40.6366039" lon="9.7137685"><ele>2.0</ele><time>2026-04-11T15:45:33.231Z</time></trkpt><trkpt lat="40.6368032" lon="9.7136987"><ele>2.0</ele><time>2026-04-11T15:45:34.233Z</time></trkpt><trkpt lat="40.6370006" lon="9.7136335"><ele>2.0</ele><time>2026-04-11T15:45:35.242Z</time></trkpt><trkpt lat="40.637199" lon="9.7135731"><ele>2.0</ele><time>2026-04-11T15:45:36.24Z</time></trkpt><trkpt lat="40.6374012" lon="9.7135121"><ele>2.0</ele><time>2026-04-11T15:45:37.23Z</time></trkpt><trkpt lat="40.6376025" lon="9.7134494"><ele>2.0</ele><time>2026-04-11T15:45:38.22Z</time></trkpt><trkpt lat="40.6378061" lon="9.7133853"><ele>1.6666666666666665</ele><time>2026-04-11T15:45:39.224Z</time></trkpt><trkpt lat="40.6380108" lon="9.713327"><ele>1.3333333333333333</ele><time>2026-04-11T15:45:40.219Z</time></trkpt><trkpt lat="40.6382174" lon="9.7132628"><ele>1.0</ele><time>2026-04-11T15:45:41.227Z</time></trkpt><trkpt lat="40.6384257" lon="9.7132028"><ele>1.0</ele><time>2026-04-11T15:45:42.237Z</time></trkpt><trkpt lat="40.6386336" lon="9.7131362"><ele>1.0</ele><time>2026-04-11T15:45:43.227Z</time></trkpt><trkpt lat="40.6388421" lon="9.713072"><ele>1.0</ele><time>2026-04-11T15:45:44.214Z</time></trkpt><trkpt lat="40.6390514" lon="9.7130059"><ele>0.6666666666666666</ele><time>2026-04-11T15:45:45.225Z</time></trkpt><trkpt lat="40.6392588" lon="9.7129432"><ele>0.3333333333333333</ele><time>2026-04-11T15:45:46.217Z</time></trkpt><trkpt lat="40.6394636" lon="9.7128804"><ele>0.0</ele><time>2026-04-11T15:45:47.223Z</time></trkpt><trkpt lat="40.6396682" lon="9.7128188"><ele>0.0</ele><time>2026-04-11T15:45:48.218Z</time></trkpt><trkpt lat="40.6398702" lon="9.7127613"><ele>0.0</ele><time>2026-04-11T15:45:49.23Z</time></trkpt><trkpt lat="40.6400738" lon="9.7127005"><ele>0.0</ele><time>2026-04-11T15:45:50.218Z</time></trkpt><trkpt lat="40.6402738" lon="9.7126349"><ele>1.3333333333333333</ele><time>2026-04-11T15:45:51.216Z</time></trkpt><trkpt lat="40.6404759" lon="9.712569"><ele>2.6666666666666665</ele><time>2026-04-11T15:45:52.22Z</time></trkpt><trkpt lat="40.640683" lon="9.7124999"><ele>4.0</ele><time>2026-04-11T15:45:53.222Z</time></trkpt><trkpt lat="40.6408872" lon="9.7124297"><ele>4.0</ele><time>2026-04-11T15:45:54.214Z</time></trkpt><trkpt lat="40.6410926" lon="9.7123612"><ele>4.0</ele><time>2026-04-11T15:45:55.224Z</time></trkpt><trkpt lat="40.6412953" lon="9.7122983"><ele>4.0</ele><time>2026-04-11T15:45:56.217Z</time></trkpt><trkpt lat="40.6414933" lon="9.7122313"><ele>3.0</ele><time>2026-04-11T15:45:57.216Z</time></trkpt><trkpt lat="40.641695" lon="9.7121685"><ele>2.0</ele><time>2026-04-11T15:45:58.223Z</time></trkpt><trkpt lat="40.6419048" lon="9.7121045"><ele>1.0</ele><time>2026-04-11T15:45:59.213Z</time></trkpt><trkpt lat="40.6421189" lon="9.7120366"><ele>0.6666666666666666</ele><time>2026-04-11T15:46:00.206Z</time></trkpt><trkpt lat="40.6423306" lon="9.7119701"><ele>0.3333333333333333</ele><time>2026-04-11T15:46:01.224Z</time></trkpt><trkpt lat="40.6425391" lon="9.7119017"><ele>0.0</ele><time>2026-04-11T15:46:02.227Z</time></trkpt><trkpt lat="40.6427489" lon="9.7118388"><ele>0.6666666666666666</ele><time>2026-04-11T15:46:03.225Z</time></trkpt><trkpt lat="40.6429565" lon="9.7117777"><ele>1.3333333333333333</ele><time>2026-04-11T15:46:04.215Z</time></trkpt><trkpt lat="40.6431563" lon="9.7117175"><ele>2.0</ele><time>2026-04-11T15:46:05.212Z</time></trkpt><trkpt lat="40.6433482" lon="9.7116569"><ele>2.0</ele><time>2026-04-11T15:46:06.223Z</time></trkpt><trkpt lat="40.643531" lon="9.7115976"><ele>2.0</ele><time>2026-04-11T15:46:07.227Z</time></trkpt><trkpt lat="40.6437013" lon="9.7115388"><ele>2.0</ele><time>2026-04-11T15:46:08.207Z</time></trkpt><trkpt lat="40.6438645" lon="9.7114873"><ele>2.25</ele><time>2026-04-11T15:46:09.207Z</time></trkpt><trkpt lat="40.6440159" lon="9.7114497"><ele>2.5</ele><time>2026-04-11T15:46:10.204Z</time></trkpt><trkpt lat="40.6441605" lon="9.7114207"><ele>2.75</ele><time>2026-04-11T15:46:11.215Z</time></trkpt><trkpt lat="40.6442937" lon="9.7114057"><ele>3.0</ele><time>2026-04-11T15:46:12.208Z</time></trkpt><trkpt lat="40.6444265" lon="9.7114139"><ele>3.75</ele><time>2026-04-11T15:46:13.211Z</time></trkpt><trkpt lat="40.6445563" lon="9.7114519"><ele>4.5</ele><time>2026-04-11T15:46:14.232Z</time></trkpt><trkpt lat="40.6446773" lon="9.7115232"><ele>5.25</ele><time>2026-04-11T15:46:15.223Z</time></trkpt><trkpt lat="40.6447916" lon="9.7116225"><ele>6.0</ele><time>2026-04-11T15:46:16.208Z</time></trkpt><trkpt lat="40.6449023" lon="9.7117578"><ele>6.0</ele><time>2026-04-11T15:46:17.207Z</time></trkpt><trkpt lat="40.6450077" lon="9.7119044"><ele>6.0</ele><time>2026-04-11T15:46:18.204Z</time></trkpt><trkpt lat="40.6451185" lon="9.7120622"><ele>6.0</ele><time>2026-04-11T15:46:19.213Z</time></trkpt><trkpt lat="40.6452369" lon="9.7122169"><ele>6.333333333333334</ele><time>2026-04-11T15:46:20.208Z</time></trkpt><trkpt lat="40.6453607" lon="9.7123859"><ele>6.666666666666667</ele><time>2026-04-11T15:46:21.208Z</time></trkpt><trkpt lat="40.6454912" lon="9.7125607"><ele>7.0</ele><time>2026-04-11T15:46:22.196Z</time></trkpt><trkpt lat="40.6456296" lon="9.7127452"><ele>6.0</ele><time>2026-04-11T15:46:23.222Z</time></trkpt><trkpt lat="40.6457694" lon="9.7129358"><ele>5.0</ele><time>2026-04-11T15:46:24.201Z</time></trkpt><trkpt lat="40.6459096" lon="9.7131288"><ele>4.0</ele><time>2026-04-11T15:46:25.197Z</time></trkpt><trkpt lat="40.6460465" lon="9.7133177"><ele>4.666666666666666</ele><time>2026-04-11T15:46:26.197Z</time></trkpt><trkpt lat="40.6461779" lon="9.7135028"><ele>5.333333333333333</ele><time>2026-04-11T15:46:27.198Z</time></trkpt><trkpt lat="40.6462978" lon="9.7136963"><ele>6.0</ele><time>2026-04-11T15:46:28.2Z</time></trkpt><trkpt lat="40.6464082" lon="9.7139049"><ele>6.0</ele><time>2026-04-11T15:46:29.216Z</time></trkpt><trkpt lat="40.6465145" lon="9.7141303"><ele>6.0</ele><time>2026-04-11T15:46:30.193Z</time></trkpt><trkpt lat="40.6466186" lon="9.7143771"><ele>6.0</ele><time>2026-04-11T15:46:31.209Z</time></trkpt><trkpt lat="40.6467249" lon="9.714636"><ele>4.5</ele><time>2026-04-11T15:46:32.202Z</time></trkpt><trkpt lat="40.6468324" lon="9.7148941"><ele>3.0</ele><time>2026-04-11T15:46:33.213Z</time></trkpt><trkpt lat="40.6469471" lon="9.7151607"><ele>3.5</ele><time>2026-04-11T15:46:34.206Z</time></trkpt><trkpt lat="40.6470551" lon="9.7154283"><ele>4.0</ele><time>2026-04-11T15:46:35.193Z</time></trkpt><trkpt lat="40.6471704" lon="9.7156925"><ele>4.0</ele><time>2026-04-11T15:46:36.198Z</time></trkpt><trkpt lat="40.6472857" lon="9.7159582"><ele>4.0</ele><time>2026-04-11T15:46:37.2Z</time></trkpt><trkpt lat="40.6474016" lon="9.7162268"><ele>3.5</ele><time>2026-04-11T15:46:38.2Z</time></trkpt><trkpt lat="40.6475161" lon="9.7164949"><ele>3.0</ele><time>2026-04-11T15:46:39.192Z</time></trkpt><trkpt lat="40.6476361" lon="9.7167698"><ele>3.0</ele><time>2026-04-11T15:46:40.189Z</time></trkpt><trkpt lat="40.6477549" lon="9.717048"><ele>3.0</ele><time>2026-04-11T15:46:41.198Z</time></trkpt><trkpt lat="40.6478725" lon="9.7173263"><ele>4.5</ele><time>2026-04-11T15:46:42.199Z</time></trkpt><trkpt lat="40.6479945" lon="9.7176028"><ele>6.0</ele><time>2026-04-11T15:46:43.196Z</time></trkpt><trkpt lat="40.6481158" lon="9.7178819"><ele>6.0</ele><time>2026-04-11T15:46:44.191Z</time></trkpt><trkpt lat="40.648235" lon="9.7181712"><ele>6.0</ele><time>2026-04-11T15:46:45.197Z</time></trkpt><trkpt lat="40.6483599" lon="9.7184612"><ele>6.0</ele><time>2026-04-11T15:46:46.2Z</time></trkpt><trkpt lat="40.6484857" lon="9.7187526"><ele>6.0</ele><time>2026-04-11T15:46:47.192Z</time></trkpt><trkpt lat="40.6486096" lon="9.7190493"><ele>6.0</ele><time>2026-04-11T15:46:48.195Z</time></trkpt><trkpt lat="40.6487355" lon="9.7193402"><ele>6.0</ele><time>2026-04-11T15:46:49.189Z</time></trkpt><trkpt lat="40.6488602" lon="9.7196178"><ele>6.0</ele><time>2026-04-11T15:46:50.199Z</time></trkpt><trkpt lat="40.6489816" lon="9.7198859"><ele>6.0</ele><time>2026-04-11T15:46:51.191Z</time></trkpt><trkpt lat="40.6490981" lon="9.7201458"><ele>5.0</ele><time>2026-04-11T15:46:52.192Z</time></trkpt><trkpt lat="40.6492137" lon="9.7203969"><ele>4.0</ele><time>2026-04-11T15:46:53.207Z</time></trkpt><trkpt lat="40.6493279" lon="9.7206403"><ele>3.0</ele><time>2026-04-11T15:46:54.199Z</time></trkpt><trkpt lat="40.6494355" lon="9.7208759"><ele>4.0</ele><time>2026-04-11T15:46:55.193Z</time></trkpt><trkpt lat="40.6495416" lon="9.7211113"><ele>5.0</ele><time>2026-04-11T15:46:56.19Z</time></trkpt><trkpt lat="40.6496468" lon="9.7213395"><ele>6.0</ele><time>2026-04-11T15:46:57.191Z</time></trkpt><trkpt lat="40.6497572" lon="9.7215694"><ele>6.0</ele><time>2026-04-11T15:46:58.188Z</time></trkpt><trkpt lat="40.649862" lon="9.7218"><ele>6.0</ele><time>2026-04-11T15:46:59.195Z</time></trkpt><trkpt lat="40.6499648" lon="9.722027"><ele>6.0</ele><time>2026-04-11T15:47:00.188Z</time></trkpt><trkpt lat="40.6500696" lon="9.7222536"><ele>5.666666666666667</ele><time>2026-04-11T15:47:01.199Z</time></trkpt><trkpt lat="40.6501798" lon="9.722476"><ele>5.333333333333334</ele><time>2026-04-11T15:47:02.187Z</time></trkpt><trkpt lat="40.6502848" lon="9.7226996"><ele>5.0</ele><time>2026-04-11T15:47:03.186Z</time></trkpt><trkpt lat="40.6503886" lon="9.7229218"><ele>5.0</ele><time>2026-04-11T15:47:04.2Z</time></trkpt><trkpt lat="40.6504848" lon="9.7231364"><ele>5.0</ele><time>2026-04-11T15:47:05.207Z</time></trkpt><trkpt lat="40.6505751" lon="9.7233318"><ele>5.0</ele><time>2026-04-11T15:47:06.184Z</time></trkpt><trkpt lat="40.6506575" lon="9.7235112"><ele>4.5</ele><time>2026-04-11T15:47:07.184Z</time></trkpt><trkpt lat="40.6507339" lon="9.7236778"><ele>4.0</ele><time>2026-04-11T15:47:08.179Z</time></trkpt><trkpt lat="40.6508147" lon="9.7238286"><ele>3.5</ele><time>2026-04-11T15:47:09.186Z</time></trkpt><trkpt lat="40.6509104" lon="9.7239558"><ele>3.0</ele><time>2026-04-11T15:47:10.198Z</time></trkpt><trkpt lat="40.6510317" lon="9.7240552"><ele>2.6666666666666665</ele><time>2026-04-11T15:47:11.197Z</time></trkpt><trkpt lat="40.6511727" lon="9.7241241"><ele>2.333333333333333</ele><time>2026-04-11T15:47:12.185Z</time></trkpt><trkpt lat="40.651327" lon="9.7241863"><ele>2.0</ele><time>2026-04-11T15:47:13.192Z</time></trkpt><trkpt lat="40.6514892" lon="9.7242526"><ele>2.0</ele><time>2026-04-11T15:47:14.187Z</time></trkpt><trkpt lat="40.6516617" lon="9.7243216"><ele>2.0</ele><time>2026-04-11T15:47:15.179Z</time></trkpt><trkpt lat="40.6518438" lon="9.7243927"><ele>2.0</ele><time>2026-04-11T15:47:16.191Z</time></trkpt><trkpt lat="40.6520345" lon="9.7244706"><ele>1.3333333333333333</ele><time>2026-04-11T15:47:17.179Z</time></trkpt><trkpt lat="40.6522334" lon="9.7245472"><ele>0.6666666666666666</ele><time>2026-04-11T15:47:18.198Z</time></trkpt><trkpt lat="40.6524381" lon="9.7246254"><ele>0.0</ele><time>2026-04-11T15:47:19.185Z</time></trkpt><trkpt lat="40.6526476" lon="9.7247044"><ele>1.0</ele><time>2026-04-11T15:47:20.185Z</time></trkpt><trkpt lat="40.6528617" lon="9.7247813"><ele>2.0</ele><time>2026-04-11T15:47:21.186Z</time></trkpt><trkpt lat="40.6530729" lon="9.724858"><ele>3.0</ele><time>2026-04-11T15:47:22.187Z</time></trkpt><trkpt lat="40.6532695" lon="9.7249324"><ele>3.0</ele><time>2026-04-11T15:47:23.184Z</time></trkpt><trkpt lat="40.6534524" lon="9.7250073"><ele>3.0</ele><time>2026-04-11T15:47:24.188Z</time></trkpt><trkpt lat="40.6536239" lon="9.7250762"><ele>3.0</ele><time>2026-04-11T15:47:25.185Z</time></trkpt><trkpt lat="40.6537826" lon="9.7251418"><ele>3.0</ele><time>2026-04-11T15:47:26.184Z</time></trkpt><trkpt lat="40.6539264" lon="9.725218"><ele>3.0</ele><time>2026-04-11T15:47:27.18Z</time></trkpt><trkpt lat="40.6540501" lon="9.7253194"><ele>3.0</ele><time>2026-04-11T15:47:28.181Z</time></trkpt><trkpt lat="40.6541503" lon="9.7254593"><ele>3.0</ele><time>2026-04-11T15:47:29.185Z</time></trkpt><trkpt lat="40.6542468" lon="9.7256273"><ele>2.6666666666666665</ele><time>2026-04-11T15:47:30.185Z</time></trkpt><trkpt lat="40.6543361" lon="9.7257995"><ele>2.333333333333333</ele><time>2026-04-11T15:47:31.181Z</time></trkpt><trkpt lat="40.6544265" lon="9.7259837"><ele>2.0</ele><time>2026-04-11T15:47:32.201Z</time></trkpt><trkpt lat="40.6545192" lon="9.726178"><ele>1.6666666666666665</ele><time>2026-04-11T15:47:33.179Z</time></trkpt><trkpt lat="40.6546236" lon="9.7263756"><ele>1.3333333333333333</ele><time>2026-04-11T15:47:34.18Z</time></trkpt><trkpt lat="40.6547261" lon="9.7265888"><ele>1.0</ele><time>2026-04-11T15:47:35.194Z</time></trkpt><trkpt lat="40.6548341" lon="9.7268051"><ele>1.0</ele><time>2026-04-11T15:47:36.184Z</time></trkpt><trkpt lat="40.6549456" lon="9.727034"><ele>1.0</ele><time>2026-04-11T15:47:37.187Z</time></trkpt><trkpt lat="40.6550576" lon="9.7272674"><ele>1.0</ele><time>2026-04-11T15:47:38.197Z</time></trkpt><trkpt lat="40.6551716" lon="9.7275026"><ele>1.0</ele><time>2026-04-11T15:47:39.185Z</time></trkpt><trkpt lat="40.6552863" lon="9.7277445"><ele>1.0</ele><time>2026-04-11T15:47:40.176Z</time></trkpt><trkpt lat="40.6554039" lon="9.7279842"><ele>1.0</ele><time>2026-04-11T15:47:41.189Z</time></trkpt><trkpt lat="40.6555157" lon="9.7282292"><ele>1.0</ele><time>2026-04-11T15:47:42.192Z</time></trkpt><trkpt lat="40.6556284" lon="9.7284757"><ele>1.0</ele><time>2026-04-11T15:47:43.193Z</time></trkpt><trkpt lat="40.6557408" lon="9.7287166"><ele>1.0</ele><time>2026-04-11T15:47:44.199Z</time></trkpt><trkpt lat="40.6558553" lon="9.7289582"><ele>1.0</ele><time>2026-04-11T15:47:45.188Z</time></trkpt><trkpt lat="40.6559687" lon="9.7292005"><ele>1.0</ele><time>2026-04-11T15:47:46.184Z</time></trkpt><trkpt lat="40.6560828" lon="9.7294388"><ele>1.0</ele><time>2026-04-11T15:47:47.189Z</time></trkpt><trkpt lat="40.656198" lon="9.7296806"><ele>1.0</ele><time>2026-04-11T15:47:48.183Z</time></trkpt><trkpt lat="40.6563129" lon="9.7299209"><ele>1.0</ele><time>2026-04-11T15:47:49.186Z</time></trkpt><trkpt lat="40.6564288" lon="9.7301593"><ele>1.0</ele><time>2026-04-11T15:47:50.191Z</time></trkpt><trkpt lat="40.656544" lon="9.730396"><ele>1.0</ele><time>2026-04-11T15:47:51.186Z</time></trkpt><trkpt lat="40.6566611" lon="9.7306381"><ele>1.0</ele><time>2026-04-11T15:47:52.175Z</time></trkpt><trkpt lat="40.6567794" lon="9.7308784"><ele>1.0</ele><time>2026-04-11T15:47:53.183Z</time></trkpt><trkpt lat="40.6568949" lon="9.7311251"><ele>2.0</ele><time>2026-04-11T15:47:54.174Z</time></trkpt><trkpt lat="40.6570107" lon="9.7313707"><ele>3.0</ele><time>2026-04-11T15:47:55.174Z</time></trkpt><trkpt lat="40.6571291" lon="9.7316163"><ele>4.0</ele><time>2026-04-11T15:47:56.187Z</time></trkpt><trkpt lat="40.6572463" lon="9.7318642"><ele>4.666666666666666</ele><time>2026-04-11T15:47:57.174Z</time></trkpt><trkpt lat="40.6573609" lon="9.7321124"><ele>5.333333333333333</ele><time>2026-04-11T15:47:58.173Z</time></trkpt><trkpt lat="40.6574741" lon="9.7323556"><ele>6.0</ele><time>2026-04-11T15:47:59.169Z</time></trkpt><trkpt lat="40.6575904" lon="9.7325931"><ele>5.666666666666667</ele><time>2026-04-11T15:48:00.174Z</time></trkpt><trkpt lat="40.6577044" lon="9.7328349"><ele>5.333333333333334</ele><time>2026-04-11T15:48:01.183Z</time></trkpt><trkpt lat="40.6578111" lon="9.7330768"><ele>5.0</ele><time>2026-04-11T15:48:02.17Z</time></trkpt><trkpt lat="40.657914" lon="9.7333154"><ele>6.0</ele><time>2026-04-11T15:48:03.187Z</time></trkpt><trkpt lat="40.6580136" lon="9.7335602"><ele>7.0</ele><time>2026-04-11T15:48:04.171Z</time></trkpt><trkpt lat="40.6581128" lon="9.7338011"><ele>8.0</ele><time>2026-04-11T15:48:05.169Z</time></trkpt><trkpt lat="40.6582108" lon="9.7340462"><ele>8.0</ele><time>2026-04-11T15:48:06.175Z</time></trkpt><trkpt lat="40.6583076" lon="9.7342911"><ele>8.0</ele><time>2026-04-11T15:48:07.178Z</time></trkpt><trkpt lat="40.6584007" lon="9.7345408"><ele>8.0</ele><time>2026-04-11T15:48:08.174Z</time></trkpt><trkpt lat="40.6584943" lon="9.7347867"><ele>7.666666666666666</ele><time>2026-04-11T15:48:09.179Z</time></trkpt><trkpt lat="40.6585889" lon="9.7350347"><ele>7.333333333333334</ele><time>2026-04-11T15:48:10.171Z</time></trkpt><trkpt lat="40.6586839" lon="9.7352829"><ele>7.0</ele><time>2026-04-11T15:48:11.185Z</time></trkpt><trkpt lat="40.6587776" lon="9.7355295"><ele>8.333333333333334</ele><time>2026-04-11T15:48:12.181Z</time></trkpt><trkpt lat="40.6588719" lon="9.7357734"><ele>9.666666666666666</ele><time>2026-04-11T15:48:13.174Z</time></trkpt><trkpt lat="40.6589687" lon="9.7360131"><ele>11.0</ele><time>2026-04-11T15:48:14.183Z</time></trkpt><trkpt lat="40.6590632" lon="9.7362562"><ele>11.333333333333332</ele><time>2026-04-11T15:48:15.174Z</time></trkpt><trkpt lat="40.6591578" lon="9.736501"><ele>11.666666666666666</ele><time>2026-04-11T15:48:16.17Z</time></trkpt><trkpt lat="40.6592532" lon="9.7367406"><ele>12.0</ele><time>2026-04-11T15:48:17.176Z</time></trkpt><trkpt lat="40.6593468" lon="9.736981"><ele>12.333333333333332</ele><time>2026-04-11T15:48:18.18Z</time></trkpt><trkpt lat="40.6594435" lon="9.7372178"><ele>12.666666666666666</ele><time>2026-04-11T15:48:19.168Z</time></trkpt><trkpt lat="40.65954" lon="9.7374535"><ele>13.0</ele><time>2026-04-11T15:48:20.169Z</time></trkpt><trkpt lat="40.6596318" lon="9.7376928"><ele>14.333333333333332</ele><time>2026-04-11T15:48:21.17Z</time></trkpt><trkpt lat="40.6597243" lon="9.737931"><ele>15.666666666666668</ele><time>2026-04-11T15:48:22.184Z</time></trkpt><trkpt lat="40.6598156" lon="9.7381658"><ele>17.0</ele><time>2026-04-11T15:48:23.183Z</time></trkpt><trkpt lat="40.6599108" lon="9.7383995"><ele>17.333333333333336</ele><time>2026-04-11T15:48:24.198Z</time></trkpt><trkpt lat="40.660001" lon="9.7386309"><ele>17.666666666666668</ele><time>2026-04-11T15:48:25.168Z</time></trkpt><trkpt lat="40.6600913" lon="9.7388592"><ele>18.0</ele><time>2026-04-11T15:48:26.168Z</time></trkpt><trkpt lat="40.660181" lon="9.7390856"><ele>18.0</ele><time>2026-04-11T15:48:27.183Z</time></trkpt><trkpt lat="40.660271" lon="9.7393106"><ele>18.0</ele><time>2026-04-11T15:48:28.168Z</time></trkpt><trkpt lat="40.6603583" lon="9.7395357"><ele>18.0</ele><time>2026-04-11T15:48:29.177Z</time></trkpt><trkpt lat="40.6604434" lon="9.7397587"><ele>18.333333333333332</ele><time>2026-04-11T15:48:30.182Z</time></trkpt><trkpt lat="40.6605322" lon="9.7399806"><ele>18.666666666666664</ele><time>2026-04-11T15:48:31.167Z</time></trkpt><trkpt lat="40.6606164" lon="9.7402029"><ele>19.0</ele><time>2026-04-11T15:48:32.164Z</time></trkpt><trkpt lat="40.6606982" lon="9.7404183"><ele>19.0</ele><time>2026-04-11T15:48:33.162Z</time></trkpt><trkpt lat="40.6607762" lon="9.7406283"><ele>19.0</ele><time>2026-04-11T15:48:34.165Z</time></trkpt><trkpt lat="40.6608514" lon="9.7408114"><ele>19.0</ele><time>2026-04-11T15:48:35.173Z</time></trkpt><trkpt lat="40.6609238" lon="9.7409773"><ele>19.0</ele><time>2026-04-11T15:48:36.181Z</time></trkpt><trkpt lat="40.6610098" lon="9.7411289"><ele>19.0</ele><time>2026-04-11T15:48:37.171Z</time></trkpt><trkpt lat="40.6611179" lon="9.7412597"><ele>19.0</ele><time>2026-04-11T15:48:38.175Z</time></trkpt><trkpt lat="40.661251" lon="9.7413869"><ele>18.666666666666664</ele><time>2026-04-11T15:48:39.174Z</time></trkpt><trkpt lat="40.6614005" lon="9.741517"><ele>18.333333333333332</ele><time>2026-04-11T15:48:40.187Z</time></trkpt><trkpt lat="40.6615583" lon="9.7416526"><ele>18.0</ele><time>2026-04-11T15:48:41.178Z</time></trkpt><trkpt lat="40.6617223" lon="9.7417954"><ele>17.666666666666668</ele><time>2026-04-11T15:48:42.171Z</time></trkpt><trkpt lat="40.6618958" lon="9.7419452"><ele>17.333333333333336</ele><time>2026-04-11T15:48:43.185Z</time></trkpt><trkpt lat="40.6620724" lon="9.7420998"><ele>17.0</ele><time>2026-04-11T15:48:44.179Z</time></trkpt><trkpt lat="40.6622497" lon="9.7422601"><ele>16.333333333333336</ele><time>2026-04-11T15:48:45.182Z</time></trkpt><trkpt lat="40.6624352" lon="9.7424242"><ele>15.666666666666668</ele><time>2026-04-11T15:48:46.189Z</time></trkpt><trkpt lat="40.6626219" lon="9.7425836"><ele>15.0</ele><time>2026-04-11T15:48:47.172Z</time></trkpt><trkpt lat="40.662804" lon="9.7427464"><ele>13.666666666666666</ele><time>2026-04-11T15:48:48.181Z</time></trkpt><trkpt lat="40.6629857" lon="9.7429062"><ele>12.333333333333332</ele><time>2026-04-11T15:48:49.183Z</time></trkpt><trkpt lat="40.6631688" lon="9.7430666"><ele>11.0</ele><time>2026-04-11T15:48:50.185Z</time></trkpt><trkpt lat="40.6633513" lon="9.7432289"><ele>11.0</ele><time>2026-04-11T15:48:51.181Z</time></trkpt><trkpt lat="40.6635354" lon="9.7433869"><ele>11.0</ele><time>2026-04-11T15:48:52.169Z</time></trkpt><trkpt lat="40.6637143" lon="9.7435458"><ele>11.0</ele><time>2026-04-11T15:48:53.172Z</time></trkpt><trkpt lat="40.6638918" lon="9.7437058"><ele>10.666666666666666</ele><time>2026-04-11T15:48:54.179Z</time></trkpt><trkpt lat="40.6640659" lon="9.7438584"><ele>10.333333333333334</ele><time>2026-04-11T15:48:55.178Z</time></trkpt><trkpt lat="40.6642402" lon="9.7440113"><ele>10.0</ele><time>2026-04-11T15:48:56.175Z</time></trkpt><trkpt lat="40.6644116" lon="9.7441607"><ele>9.666666666666668</ele><time>2026-04-11T15:48:57.17Z</time></trkpt><trkpt lat="40.664583" lon="9.7443106"><ele>9.333333333333334</ele><time>2026-04-11T15:48:58.172Z</time></trkpt><trkpt lat="40.664753" lon="9.744459"><ele>9.0</ele><time>2026-04-11T15:48:59.17Z</time></trkpt><trkpt lat="40.6649187" lon="9.7446023"><ele>9.0</ele><time>2026-04-11T15:49:00.172Z</time></trkpt><trkpt lat="40.6650818" lon="9.7447469"><ele>9.0</ele><time>2026-04-11T15:49:01.176Z</time></trkpt><trkpt lat="40.6652486" lon="9.7448875"><ele>9.0</ele><time>2026-04-11T15:49:02.17Z</time></trkpt><trkpt lat="40.6654152" lon="9.7450315"><ele>8.333333333333334</ele><time>2026-04-11T15:49:03.189Z</time></trkpt><trkpt lat="40.6655817" lon="9.7451778"><ele>7.666666666666667</ele><time>2026-04-11T15:49:04.176Z</time></trkpt><trkpt lat="40.6657502" lon="9.7453253"><ele>7.0</ele><time>2026-04-11T15:49:05.172Z</time></trkpt><trkpt lat="40.6659202" lon="9.7454699"><ele>7.0</ele><time>2026-04-11T15:49:06.176Z</time></trkpt><trkpt lat="40.6660906" lon="9.7456191"><ele>7.0</ele><time>2026-04-11T15:49:07.204Z</time></trkpt><trkpt lat="40.6662614" lon="9.7457658"><ele>7.0</ele><time>2026-04-11T15:49:08.166Z</time></trkpt><trkpt lat="40.6664307" lon="9.7459139"><ele>7.333333333333334</ele><time>2026-04-11T15:49:09.163Z</time></trkpt><trkpt lat="40.6665993" lon="9.7460564"><ele>7.666666666666666</ele><time>2026-04-11T15:49:10.164Z</time></trkpt><trkpt lat="40.6667646" lon="9.746202"><ele>8.0</ele><time>2026-04-11T15:49:11.17Z</time></trkpt><trkpt lat="40.6669244" lon="9.7463393"><ele>8.333333333333332</ele><time>2026-04-11T15:49:12.166Z</time></trkpt><trkpt lat="40.6670779" lon="9.7464623"><ele>8.666666666666666</ele><time>2026-04-11T15:49:13.168Z</time></trkpt><trkpt lat="40.6672321" lon="9.7465669"><ele>9.0</ele><time>2026-04-11T15:49:14.161Z</time></trkpt><trkpt lat="40.6673926" lon="9.74665"><ele>9.0</ele><time>2026-04-11T15:49:15.161Z</time></trkpt><trkpt lat="40.6675569" lon="9.7467319"><ele>9.0</ele><time>2026-04-11T15:49:16.176Z</time></trkpt><trkpt lat="40.6677231" lon="9.7468169"><ele>9.0</ele><time>2026-04-11T15:49:17.176Z</time></trkpt><trkpt lat="40.6678927" lon="9.7469088"><ele>8.333333333333334</ele><time>2026-04-11T15:49:18.167Z</time></trkpt><trkpt lat="40.6680627" lon="9.7470014"><ele>7.666666666666667</ele><time>2026-04-11T15:49:19.167Z</time></trkpt><trkpt lat="40.6682347" lon="9.7470927"><ele>7.0</ele><time>2026-04-11T15:49:20.169Z</time></trkpt><trkpt lat="40.6684124" lon="9.7471844"><ele>7.0</ele><time>2026-04-11T15:49:21.161Z</time></trkpt><trkpt lat="40.6685924" lon="9.7472809"><ele>7.0</ele><time>2026-04-11T15:49:22.164Z</time></trkpt><trkpt lat="40.6687745" lon="9.7473761"><ele>7.0</ele><time>2026-04-11T15:49:23.165Z</time></trkpt><trkpt lat="40.6689614" lon="9.7474754"><ele>7.0</ele><time>2026-04-11T15:49:24.161Z</time></trkpt><trkpt lat="40.6691495" lon="9.747578"><ele>7.0</ele><time>2026-04-11T15:49:25.159Z</time></trkpt><trkpt lat="40.6693375" lon="9.7476822"><ele>7.0</ele><time>2026-04-11T15:49:26.164Z</time></trkpt><trkpt lat="40.6695234" lon="9.7477853"><ele>7.0</ele><time>2026-04-11T15:49:27.162Z</time></trkpt><trkpt lat="40.6697028" lon="9.7478832"><ele>7.0</ele><time>2026-04-11T15:49:28.159Z</time></trkpt><trkpt lat="40.669881" lon="9.747978"><ele>7.0</ele><time>2026-04-11T15:49:29.154Z</time></trkpt><trkpt lat="40.6700576" lon="9.7480689"><ele>7.0</ele><time>2026-04-11T15:49:30.164Z</time></trkpt><trkpt lat="40.6702322" lon="9.7481573"><ele>7.0</ele><time>2026-04-11T15:49:31.166Z</time></trkpt><trkpt lat="40.6703975" lon="9.7482469"><ele>7.0</ele><time>2026-04-11T15:49:32.165Z</time></trkpt><trkpt lat="40.670562" lon="9.7483367"><ele>7.0</ele><time>2026-04-11T15:49:33.149Z</time></trkpt><trkpt lat="40.6707219" lon="9.7484245"><ele>7.0</ele><time>2026-04-11T15:49:34.158Z</time></trkpt><trkpt lat="40.6708845" lon="9.7485123"><ele>7.0</ele><time>2026-04-11T15:49:35.158Z</time></trkpt><trkpt lat="40.6710425" lon="9.7485973"><ele>7.666666666666667</ele><time>2026-04-11T15:49:36.148Z</time></trkpt><trkpt lat="40.671199" lon="9.7486829"><ele>8.333333333333334</ele><time>2026-04-11T15:49:37.165Z</time></trkpt><trkpt lat="40.6713505" lon="9.7487675"><ele>9.0</ele><time>2026-04-11T15:49:38.162Z</time></trkpt><trkpt lat="40.6715029" lon="9.7488472"><ele>9.0</ele><time>2026-04-11T15:49:39.165Z</time></trkpt><trkpt lat="40.6716532" lon="9.7489257"><ele>9.0</ele><time>2026-04-11T15:49:40.152Z</time></trkpt><trkpt lat="40.6718018" lon="9.7490037"><ele>9.0</ele><time>2026-04-11T15:49:41.155Z</time></trkpt><trkpt lat="40.6719518" lon="9.7490839"><ele>9.5</ele><time>2026-04-11T15:49:42.17Z</time></trkpt><trkpt lat="40.6720952" lon="9.7491609"><ele>10.0</ele><time>2026-04-11T15:49:43.157Z</time></trkpt><trkpt lat="40.6722304" lon="9.7492314"><ele>10.5</ele><time>2026-04-11T15:49:44.15Z</time></trkpt><trkpt lat="40.67236" lon="9.7492953"><ele>11.0</ele><time>2026-04-11T15:49:45.16Z</time></trkpt><trkpt lat="40.6724911" lon="9.7493359"><ele>11.0</ele><time>2026-04-11T15:49:46.151Z</time></trkpt><trkpt lat="40.6726238" lon="9.7493406"><ele>11.0</ele><time>2026-04-11T15:49:47.171Z</time></trkpt><trkpt lat="40.6727522" lon="9.7493092"><ele>11.0</ele><time>2026-04-11T15:49:48.165Z</time></trkpt><trkpt lat="40.6728767" lon="9.7492383"><ele>11.0</ele><time>2026-04-11T15:49:49.159Z</time></trkpt><trkpt lat="40.6730022" lon="9.7491286"><ele>10.333333333333332</ele><time>2026-04-11T15:49:50.165Z</time></trkpt><trkpt lat="40.6731256" lon="9.7489911"><ele>9.666666666666666</ele><time>2026-04-11T15:49:51.153Z</time></trkpt><trkpt lat="40.6732475" lon="9.7488384"><ele>9.0</ele><time>2026-04-11T15:49:52.15Z</time></trkpt><trkpt lat="40.6733714" lon="9.7486816"><ele>8.333333333333334</ele><time>2026-04-11T15:49:53.151Z</time></trkpt><trkpt lat="40.6735014" lon="9.7485162"><ele>7.666666666666667</ele><time>2026-04-11T15:49:54.151Z</time></trkpt><trkpt lat="40.6736266" lon="9.7483333"><ele>7.0</ele><time>2026-04-11T15:49:55.152Z</time></trkpt><trkpt lat="40.6737489" lon="9.7481427"><ele>7.0</ele><time>2026-04-11T15:49:56.151Z</time></trkpt><trkpt lat="40.6738688" lon="9.7479485"><ele>7.0</ele><time>2026-04-11T15:49:57.156Z</time></trkpt><trkpt lat="40.6739886" lon="9.7477684"><ele>7.0</ele><time>2026-04-11T15:49:58.157Z</time></trkpt><trkpt lat="40.674113" lon="9.7475989"><ele>6.0</ele><time>2026-04-11T15:49:59.152Z</time></trkpt><trkpt lat="40.6742446" lon="9.7474361"><ele>5.0</ele><time>2026-04-11T15:50:00.161Z</time></trkpt><trkpt lat="40.6743823" lon="9.7472872"><ele>4.0</ele><time>2026-04-11T15:50:01.17Z</time></trkpt><trkpt lat="40.6745258" lon="9.7471479"><ele>4.0</ele><time>2026-04-11T15:50:02.163Z</time></trkpt><trkpt lat="40.6746622" lon="9.7470032"><ele>4.0</ele><time>2026-04-11T15:50:03.154Z</time></trkpt><trkpt lat="40.6747891" lon="9.7468517"><ele>4.0</ele><time>2026-04-11T15:50:04.166Z</time></trkpt><trkpt lat="40.674908" lon="9.7466772"><ele>5.666666666666666</ele><time>2026-04-11T15:50:05.158Z</time></trkpt><trkpt lat="40.6750161" lon="9.7464909"><ele>7.333333333333333</ele><time>2026-04-11T15:50:06.153Z</time></trkpt><trkpt lat="40.6751239" lon="9.746296"><ele>9.0</ele><time>2026-04-11T15:50:07.16Z</time></trkpt><trkpt lat="40.6752368" lon="9.7461102"><ele>9.333333333333334</ele><time>2026-04-11T15:50:08.153Z</time></trkpt><trkpt lat="40.6753554" lon="9.7459272"><ele>9.666666666666668</ele><time>2026-04-11T15:50:09.15Z</time></trkpt><trkpt lat="40.6754872" lon="9.7457523"><ele>10.0</ele><time>2026-04-11T15:50:10.163Z</time></trkpt><trkpt lat="40.6756357" lon="9.7455868"><ele>10.0</ele><time>2026-04-11T15:50:11.181Z</time></trkpt><trkpt lat="40.6757966" lon="9.7454242"><ele>10.0</ele><time>2026-04-11T15:50:12.176Z</time></trkpt><trkpt lat="40.6759588" lon="9.7452694"><ele>10.0</ele><time>2026-04-11T15:50:13.167Z</time></trkpt><trkpt lat="40.6761213" lon="9.7451178"><ele>10.333333333333334</ele><time>2026-04-11T15:50:14.161Z</time></trkpt><trkpt lat="40.6762837" lon="9.7449663"><ele>10.666666666666666</ele><time>2026-04-11T15:50:15.167Z</time></trkpt><trkpt lat="40.6764397" lon="9.7448216"><ele>11.0</ele><time>2026-04-11T15:50:16.168Z</time></trkpt><trkpt lat="40.6765901" lon="9.7446783"><ele>11.0</ele><time>2026-04-11T15:50:17.173Z</time></trkpt><trkpt lat="40.6767339" lon="9.7445399"><ele>11.0</ele><time>2026-04-11T15:50:18.164Z</time></trkpt><trkpt lat="40.676873" lon="9.7444157"><ele>11.0</ele><time>2026-04-11T15:50:19.171Z</time></trkpt><trkpt lat="40.6769997" lon="9.7442953"><ele>11.5</ele><time>2026-04-11T15:50:20.189Z</time></trkpt><trkpt lat="40.677115" lon="9.7441684"><ele>12.0</ele><time>2026-04-11T15:50:21.173Z</time></trkpt><trkpt lat="40.677213" lon="9.7440364"><ele>12.5</ele><time>2026-04-11T15:50:22.163Z</time></trkpt><trkpt lat="40.6772863" lon="9.7438681"><ele>13.0</ele><time>2026-04-11T15:50:23.163Z</time></trkpt><trkpt lat="40.6773235" lon="9.743678"><ele>14.333333333333332</ele><time>2026-04-11T15:50:24.169Z</time></trkpt><trkpt lat="40.6773597" lon="9.7434735"><ele>15.666666666666668</ele><time>2026-04-11T15:50:25.157Z</time></trkpt><trkpt lat="40.6774002" lon="9.7432602"><ele>17.0</ele><time>2026-04-11T15:50:26.172Z</time></trkpt><trkpt lat="40.6774463" lon="9.7430408"><ele>17.0</ele><time>2026-04-11T15:50:27.168Z</time></trkpt><trkpt lat="40.6774898" lon="9.7428081"><ele>17.0</ele><time>2026-04-11T15:50:28.16Z</time></trkpt><trkpt lat="40.6775392" lon="9.742567"><ele>17.0</ele><time>2026-04-11T15:50:29.169Z</time></trkpt><trkpt lat="40.6775905" lon="9.7423146"><ele>18.0</ele><time>2026-04-11T15:50:30.166Z</time></trkpt><trkpt lat="40.6776386" lon="9.7420569"><ele>19.0</ele><time>2026-04-11T15:50:31.162Z</time></trkpt><trkpt lat="40.6776903" lon="9.7417918"><ele>20.0</ele><time>2026-04-11T15:50:32.157Z</time></trkpt><trkpt lat="40.6777428" lon="9.7415261"><ele>20.666666666666668</ele><time>2026-04-11T15:50:33.172Z</time></trkpt><trkpt lat="40.6777964" lon="9.74126"><ele>21.333333333333332</ele><time>2026-04-11T15:50:34.164Z</time></trkpt><trkpt lat="40.677847" lon="9.7409916"><ele>22.0</ele><time>2026-04-11T15:50:35.178Z</time></trkpt><trkpt lat="40.6778992" lon="9.7407238"><ele>22.333333333333332</ele><time>2026-04-11T15:50:36.171Z</time></trkpt><trkpt lat="40.6779495" lon="9.7404627"><ele>22.666666666666668</ele><time>2026-04-11T15:50:37.168Z</time></trkpt><trkpt lat="40.6779999" lon="9.7402016"><ele>23.0</ele><time>2026-04-11T15:50:38.164Z</time></trkpt><trkpt lat="40.6780476" lon="9.7399395"><ele>23.333333333333336</ele><time>2026-04-11T15:50:39.163Z</time></trkpt><trkpt lat="40.6780951" lon="9.7396826"><ele>23.666666666666668</ele><time>2026-04-11T15:50:40.179Z</time></trkpt><trkpt lat="40.6781454" lon="9.7394296"><ele>24.0</ele><time>2026-04-11T15:50:41.162Z</time></trkpt><trkpt lat="40.6781965" lon="9.7391788"><ele>25.0</ele><time>2026-04-11T15:50:42.154Z</time></trkpt><trkpt lat="40.678245" lon="9.7389292"><ele>26.0</ele><time>2026-04-11T15:50:43.165Z</time></trkpt><trkpt lat="40.6782943" lon="9.7386787"><ele>27.0</ele><time>2026-04-11T15:50:44.157Z</time></trkpt><trkpt lat="40.6783417" lon="9.738425"><ele>27.0</ele><time>2026-04-11T15:50:45.156Z</time></trkpt><trkpt lat="40.6783898" lon="9.7381731"><ele>27.0</ele><time>2026-04-11T15:50:46.156Z</time></trkpt><trkpt lat="40.6784385" lon="9.7379219"><ele>27.0</ele><time>2026-04-11T15:50:47.158Z</time></trkpt><trkpt lat="40.6784882" lon="9.737666"><ele>27.0</ele><time>2026-04-11T15:50:48.166Z</time></trkpt><trkpt lat="40.6785408" lon="9.7374022"><ele>27.0</ele><time>2026-04-11T15:50:49.174Z</time></trkpt><trkpt lat="40.6785942" lon="9.7371324"><ele>27.0</ele><time>2026-04-11T15:50:50.159Z</time></trkpt><trkpt lat="40.6786477" lon="9.7368619"><ele>25.666666666666668</ele><time>2026-04-11T15:50:51.166Z</time></trkpt><trkpt lat="40.6787007" lon="9.7365948"><ele>24.333333333333336</ele><time>2026-04-11T15:50:52.162Z</time></trkpt><trkpt lat="40.6787495" lon="9.7363332"><ele>23.0</ele><time>2026-04-11T15:50:53.16Z</time></trkpt><trkpt lat="40.6787981" lon="9.7360789"><ele>24.333333333333336</ele><time>2026-04-11T15:50:54.159Z</time></trkpt><trkpt lat="40.6788472" lon="9.7358282"><ele>25.666666666666668</ele><time>2026-04-11T15:50:55.153Z</time></trkpt><trkpt lat="40.6788928" lon="9.7355806"><ele>27.0</ele><time>2026-04-11T15:50:56.159Z</time></trkpt><trkpt lat="40.6789391" lon="9.7353385"><ele>27.666666666666664</ele><time>2026-04-11T15:50:57.15Z</time></trkpt><trkpt lat="40.6789889" lon="9.7351053"><ele>28.333333333333332</ele><time>2026-04-11T15:50:58.151Z</time></trkpt><trkpt lat="40.6790389" lon="9.7348703"><ele>29.0</ele><time>2026-04-11T15:50:59.175Z</time></trkpt><trkpt lat="40.6790836" lon="9.7346383"><ele>29.0</ele><time>2026-04-11T15:51:00.157Z</time></trkpt><trkpt lat="40.6791279" lon="9.7344044"><ele>29.0</ele><time>2026-04-11T15:51:01.154Z</time></trkpt><trkpt lat="40.6791719" lon="9.7341716"><ele>29.0</ele><time>2026-04-11T15:51:02.157Z</time></trkpt><trkpt lat="40.6792186" lon="9.7339425"><ele>28.0</ele><time>2026-04-11T15:51:03.159Z</time></trkpt><trkpt lat="40.6792625" lon="9.7337186"><ele>27.0</ele><time>2026-04-11T15:51:04.166Z</time></trkpt><trkpt lat="40.6793033" lon="9.7334994"><ele>26.0</ele><time>2026-04-11T15:51:05.153Z</time></trkpt><trkpt lat="40.6793454" lon="9.7332783"><ele>25.666666666666664</ele><time>2026-04-11T15:51:06.165Z</time></trkpt><trkpt lat="40.6793876" lon="9.7330592"><ele>25.333333333333336</ele><time>2026-04-11T15:51:07.161Z</time></trkpt><trkpt lat="40.6794288" lon="9.7328421"><ele>25.0</ele><time>2026-04-11T15:51:08.159Z</time></trkpt><trkpt lat="40.6794724" lon="9.7326232"><ele>24.333333333333336</ele><time>2026-04-11T15:51:09.162Z</time></trkpt><trkpt lat="40.6795209" lon="9.7324036"><ele>23.666666666666668</ele><time>2026-04-11T15:51:10.165Z</time></trkpt><trkpt lat="40.6795887" lon="9.7321932"><ele>23.0</ele><time>2026-04-11T15:51:11.163Z</time></trkpt><trkpt lat="40.6796698" lon="9.7319895"><ele>23.666666666666668</ele><time>2026-04-11T15:51:12.16Z</time></trkpt><trkpt lat="40.6797568" lon="9.7317944"><ele>24.333333333333336</ele><time>2026-04-11T15:51:13.159Z</time></trkpt><trkpt lat="40.6798424" lon="9.7315911"><ele>25.0</ele><time>2026-04-11T15:51:14.163Z</time></trkpt><trkpt lat="40.6799287" lon="9.7313899"><ele>25.0</ele><time>2026-04-11T15:51:15.157Z</time></trkpt><trkpt lat="40.6800125" lon="9.7311877"><ele>25.0</ele><time>2026-04-11T15:51:16.166Z</time></trkpt><trkpt lat="40.6800952" lon="9.7309896"><ele>25.0</ele><time>2026-04-11T15:51:17.168Z</time></trkpt><trkpt lat="40.6801738" lon="9.7307932"><ele>25.0</ele><time>2026-04-11T15:51:18.159Z</time></trkpt><trkpt lat="40.6802438" lon="9.7305925"><ele>25.0</ele><time>2026-04-11T15:51:19.167Z</time></trkpt><trkpt lat="40.6803132" lon="9.7303874"><ele>25.0</ele><time>2026-04-11T15:51:20.166Z</time></trkpt><trkpt lat="40.6803844" lon="9.7301772"><ele>25.0</ele><time>2026-04-11T15:51:21.165Z</time></trkpt><trkpt lat="40.6804528" lon="9.7299705"><ele>25.0</ele><time>2026-04-11T15:51:22.16Z</time></trkpt><trkpt lat="40.6805243" lon="9.7297676"><ele>25.0</ele><time>2026-04-11T15:51:23.174Z</time></trkpt><trkpt lat="40.6805973" lon="9.7295676"><ele>25.0</ele><time>2026-04-11T15:51:24.167Z</time></trkpt><trkpt lat="40.6806659" lon="9.7293682"><ele>25.0</ele><time>2026-04-11T15:51:25.177Z</time></trkpt><trkpt lat="40.6807321" lon="9.7291662"><ele>25.0</ele><time>2026-04-11T15:51:26.166Z</time></trkpt><trkpt lat="40.6807981" lon="9.7289655"><ele>25.0</ele><time>2026-04-11T15:51:27.164Z</time></trkpt><trkpt lat="40.6808653" lon="9.7287708"><ele>25.0</ele><time>2026-04-11T15:51:28.168Z</time></trkpt><trkpt lat="40.6809332" lon="9.7285754"><ele>25.0</ele><time>2026-04-11T15:51:29.16Z</time></trkpt><trkpt lat="40.6810018" lon="9.7283778"><ele>26.0</ele><time>2026-04-11T15:51:30.158Z</time></trkpt><trkpt lat="40.6810705" lon="9.7281872"><ele>27.0</ele><time>2026-04-11T15:51:31.157Z</time></trkpt><trkpt lat="40.6811321" lon="9.7279957"><ele>28.0</ele><time>2026-04-11T15:51:32.164Z</time></trkpt><trkpt lat="40.6811954" lon="9.7278078"><ele>29.333333333333336</ele><time>2026-04-11T15:51:33.161Z</time></trkpt><trkpt lat="40.6812603" lon="9.7276172"><ele>30.666666666666664</ele><time>2026-04-11T15:51:34.15Z</time></trkpt><trkpt lat="40.6813285" lon="9.7274299"><ele>32.0</ele><time>2026-04-11T15:51:35.163Z</time></trkpt><trkpt lat="40.6813947" lon="9.7272441"><ele>32.0</ele><time>2026-04-11T15:51:36.174Z</time></trkpt><trkpt lat="40.6814568" lon="9.7270593"><ele>32.0</ele><time>2026-04-11T15:51:37.168Z</time></trkpt><trkpt lat="40.6815165" lon="9.7268761"><ele>32.0</ele><time>2026-04-11T15:51:38.157Z</time></trkpt><trkpt lat="40.6815679" lon="9.7266909"><ele>32.5</ele><time>2026-04-11T15:51:39.158Z</time></trkpt><trkpt lat="40.6816082" lon="9.7265006"><ele>33.0</ele><time>2026-04-11T15:51:40.15Z</time></trkpt><trkpt lat="40.6816376" lon="9.7263067"><ele>33.5</ele><time>2026-04-11T15:51:41.157Z</time></trkpt><trkpt lat="40.6816642" lon="9.726117"><ele>34.0</ele><time>2026-04-11T15:51:42.161Z</time></trkpt><trkpt lat="40.6816906" lon="9.7259313"><ele>34.0</ele><time>2026-04-11T15:51:43.152Z</time></trkpt><trkpt lat="40.6817199" lon="9.7257483"><ele>34.0</ele><time>2026-04-11T15:51:44.15Z</time></trkpt><trkpt lat="40.6817623" lon="9.7255693"><ele>34.0</ele><time>2026-04-11T15:51:45.154Z</time></trkpt><trkpt lat="40.6818278" lon="9.7253994"><ele>34.0</ele><time>2026-04-11T15:51:46.159Z</time></trkpt><trkpt lat="40.6819084" lon="9.7252423"><ele>33.0</ele><time>2026-04-11T15:51:47.156Z</time></trkpt><trkpt lat="40.6819932" lon="9.7250874"><ele>32.0</ele><time>2026-04-11T15:51:48.152Z</time></trkpt><trkpt lat="40.6820781" lon="9.724921"><ele>31.0</ele><time>2026-04-11T15:51:49.151Z</time></trkpt><trkpt lat="40.6821624" lon="9.7247519"><ele>31.0</ele><time>2026-04-11T15:51:50.144Z</time></trkpt><trkpt lat="40.6822494" lon="9.7245826"><ele>31.0</ele><time>2026-04-11T15:51:51.148Z</time></trkpt><trkpt lat="40.6823414" lon="9.724406"><ele>31.0</ele><time>2026-04-11T15:51:52.154Z</time></trkpt><trkpt lat="40.682439" lon="9.724232"><ele>30.0</ele><time>2026-04-11T15:51:53.152Z</time></trkpt><trkpt lat="40.6825334" lon="9.7240537"><ele>29.0</ele><time>2026-04-11T15:51:54.153Z</time></trkpt><trkpt lat="40.6826284" lon="9.7238721"><ele>28.0</ele><time>2026-04-11T15:51:55.153Z</time></trkpt><trkpt lat="40.6827232" lon="9.7236916"><ele>27.333333333333336</ele><time>2026-04-11T15:51:56.149Z</time></trkpt><trkpt lat="40.6828178" lon="9.7235113"><ele>26.666666666666664</ele><time>2026-04-11T15:51:57.151Z</time></trkpt><trkpt lat="40.6829146" lon="9.7233356"><ele>26.0</ele><time>2026-04-11T15:51:58.151Z</time></trkpt><trkpt lat="40.6830117" lon="9.7231632"><ele>26.0</ele><time>2026-04-11T15:51:59.148Z</time></trkpt><trkpt lat="40.6831099" lon="9.7229873"><ele>26.0</ele><time>2026-04-11T15:52:00.167Z</time></trkpt><trkpt lat="40.6832084" lon="9.7228145"><ele>26.0</ele><time>2026-04-11T15:52:01.165Z</time></trkpt><trkpt lat="40.6833194" lon="9.7226566"><ele>25.333333333333332</ele><time>2026-04-11T15:52:02.154Z</time></trkpt><trkpt lat="40.6834474" lon="9.7225227"><ele>24.666666666666664</ele><time>2026-04-11T15:52:03.152Z</time></trkpt><trkpt lat="40.683583" lon="9.7224002"><ele>24.0</ele><time>2026-04-11T15:52:04.157Z</time></trkpt><trkpt lat="40.6837226" lon="9.7222905"><ele>24.0</ele><time>2026-04-11T15:52:05.168Z</time></trkpt><trkpt lat="40.6838647" lon="9.7221829"><ele>24.0</ele><time>2026-04-11T15:52:06.156Z</time></trkpt><trkpt lat="40.6840121" lon="9.7220848"><ele>24.0</ele><time>2026-04-11T15:52:07.158Z</time></trkpt><trkpt lat="40.6841615" lon="9.7219922"><ele>24.0</ele><time>2026-04-11T15:52:08.154Z</time></trkpt><trkpt lat="40.6843148" lon="9.7219027"><ele>24.0</ele><time>2026-04-11T15:52:09.153Z</time></trkpt><trkpt lat="40.6844745" lon="9.7218119"><ele>24.0</ele><time>2026-04-11T15:52:10.156Z</time></trkpt><trkpt lat="40.6846353" lon="9.7217231"><ele>21.333333333333332</ele><time>2026-04-11T15:52:11.153Z</time></trkpt><trkpt lat="40.6847993" lon="9.7216316"><ele>18.666666666666664</ele><time>2026-04-11T15:52:12.148Z</time></trkpt><trkpt lat="40.6849643" lon="9.7215356"><ele>16.0</ele><time>2026-04-11T15:52:13.157Z</time></trkpt><trkpt lat="40.6851319" lon="9.7214414"><ele>15.666666666666666</ele><time>2026-04-11T15:52:14.165Z</time></trkpt><trkpt lat="40.685303" lon="9.7213441"><ele>15.333333333333332</ele><time>2026-04-11T15:52:15.159Z</time></trkpt><trkpt lat="40.6854757" lon="9.7212419"><ele>15.0</ele><time>2026-04-11T15:52:16.15Z</time></trkpt><trkpt lat="40.6856511" lon="9.721141"><ele>14.333333333333332</ele><time>2026-04-11T15:52:17.16Z</time></trkpt><trkpt lat="40.6858255" lon="9.72104"><ele>13.666666666666666</ele><time>2026-04-11T15:52:18.151Z</time></trkpt><trkpt lat="40.6860011" lon="9.720935"><ele>13.0</ele><time>2026-04-11T15:52:19.148Z</time></trkpt><trkpt lat="40.686178" lon="9.7208331"><ele>12.333333333333332</ele><time>2026-04-11T15:52:20.15Z</time></trkpt><trkpt lat="40.6863539" lon="9.7207296"><ele>11.666666666666666</ele><time>2026-04-11T15:52:21.153Z</time></trkpt><trkpt lat="40.686522" lon="9.7206332"><ele>11.0</ele><time>2026-04-11T15:52:22.156Z</time></trkpt><trkpt lat="40.6866836" lon="9.7205444"><ele>11.0</ele><time>2026-04-11T15:52:23.156Z</time></trkpt><trkpt lat="40.6868353" lon="9.7204566"><ele>11.0</ele><time>2026-04-11T15:52:24.149Z</time></trkpt><trkpt lat="40.6869797" lon="9.7203638"><ele>11.0</ele><time>2026-04-11T15:52:25.164Z</time></trkpt><trkpt lat="40.6871189" lon="9.7202764"><ele>9.75</ele><time>2026-04-11T15:52:26.149Z</time></trkpt><trkpt lat="40.6872525" lon="9.720199"><ele>8.5</ele><time>2026-04-11T15:52:27.151Z</time></trkpt><trkpt lat="40.687379" lon="9.7201299"><ele>7.25</ele><time>2026-04-11T15:52:28.146Z</time></trkpt><trkpt lat="40.6874974" lon="9.7200692"><ele>6.0</ele><time>2026-04-11T15:52:29.145Z</time></trkpt><trkpt lat="40.6876062" lon="9.7200174"><ele>6.0</ele><time>2026-04-11T15:52:30.166Z</time></trkpt><trkpt lat="40.6877027" lon="9.7199703"><ele>6.0</ele><time>2026-04-11T15:52:31.156Z</time></trkpt><trkpt lat="40.6877835" lon="9.7199308"><ele>6.0</ele><time>2026-04-11T15:52:32.146Z</time></trkpt><trkpt lat="40.6878377" lon="9.7198827"><ele>6.0</ele><time>2026-04-11T15:52:33.148Z</time></trkpt><trkpt lat="40.6878749" lon="9.7197661"><ele>6.0</ele><time>2026-04-11T15:52:35.15Z</time></trkpt><trkpt lat="40.6878186" lon="9.7196076"><ele>6.0</ele><time>2026-04-11T15:52:37.156Z</time></trkpt><trkpt lat="40.6877792" lon="9.7195248"><ele>6.0</ele><time>2026-04-11T15:52:38.145Z</time></trkpt><trkpt lat="40.6877463" lon="9.7194242"><ele>6.0</ele><time>2026-04-11T15:52:39.144Z</time></trkpt><trkpt lat="40.6877176" lon="9.7193114"><ele>6.0</ele><time>2026-04-11T15:52:40.152Z</time></trkpt><trkpt lat="40.6876856" lon="9.7191911"><ele>6.0</ele><time>2026-04-11T15:52:41.152Z</time></trkpt><trkpt lat="40.6876488" lon="9.7190588"><ele>5.75</ele><time>2026-04-11T15:52:42.153Z</time></trkpt><trkpt lat="40.6876047" lon="9.7189228"><ele>5.5</ele><time>2026-04-11T15:52:43.176Z</time></trkpt><trkpt lat="40.6875583" lon="9.7187732"><ele>5.25</ele><time>2026-04-11T15:52:44.146Z</time></trkpt><trkpt lat="40.6875149" lon="9.7186192"><ele>5.0</ele><time>2026-04-11T15:52:45.157Z</time></trkpt><trkpt lat="40.6874745" lon="9.7184565"><ele>4.8</ele><time>2026-04-11T15:52:46.149Z</time></trkpt><trkpt lat="40.6874327" lon="9.7183028"><ele>4.6</ele><time>2026-04-11T15:52:47.152Z</time></trkpt><trkpt lat="40.6873934" lon="9.7181697"><ele>4.4</ele><time>2026-04-11T15:52:48.149Z</time></trkpt><trkpt lat="40.6873584" lon="9.7180485"><ele>4.2</ele><time>2026-04-11T15:52:49.153Z</time></trkpt><trkpt lat="40.6873207" lon="9.7179432"><ele>4.0</ele><time>2026-04-11T15:52:50.177Z</time></trkpt><trkpt lat="40.687294" lon="9.7178529"><ele>4.333333333333333</ele><time>2026-04-11T15:52:51.169Z</time></trkpt><trkpt lat="40.6872535" lon="9.7177081"><ele>4.666666666666666</ele><time>2026-04-11T15:52:53.146Z</time></trkpt><trkpt lat="40.6872311" lon="9.7176055"><ele>5.0</ele><time>2026-04-11T15:52:55.156Z</time></trkpt><trkpt lat="40.6872217" lon="9.7175126"><ele>5.333333333333333</ele><time>2026-04-11T15:52:57.181Z</time></trkpt><trkpt lat="40.6872695" lon="9.7174136"><ele>5.666666666666667</ele><time>2026-04-11T15:53:00.145Z</time></trkpt><trkpt lat="40.6873489" lon="9.7173685"><ele>6.0</ele><time>2026-04-11T15:53:02.148Z</time></trkpt><trkpt lat="40.687468" lon="9.7173117"><ele>5.999999999999999</ele><time>2026-04-11T15:53:04.15Z</time></trkpt><trkpt lat="40.6875329" lon="9.7172698"><ele>6.0</ele><time>2026-04-11T15:53:05.156Z</time></trkpt><trkpt lat="40.6876016" lon="9.7172245"><ele>6.0</ele><time>2026-04-11T15:53:06.148Z</time></trkpt><trkpt lat="40.6876706" lon="9.7171807"><ele>6.0</ele><time>2026-04-11T15:53:07.144Z</time></trkpt><trkpt lat="40.6877347" lon="9.7171336"><ele>6.0</ele><time>2026-04-11T15:53:08.148Z</time></trkpt><trkpt lat="40.687801" lon="9.7170913"><ele>5.999999999999999</ele><time>2026-04-11T15:53:09.155Z</time></trkpt><trkpt lat="40.6878657" lon="9.7170477"><ele>6.0</ele><time>2026-04-11T15:53:10.15Z</time></trkpt><trkpt lat="40.6879323" lon="9.7170054"><ele>5.833333333333333</ele><time>2026-04-11T15:53:11.149Z</time></trkpt><trkpt lat="40.6880001" lon="9.7169689"><ele>5.666666666666667</ele><time>2026-04-11T15:53:12.151Z</time></trkpt><trkpt lat="40.6880644" lon="9.71693"><ele>5.5</ele><time>2026-04-11T15:53:13.153Z</time></trkpt><trkpt lat="40.6881223" lon="9.7168953"><ele>5.333333333333334</ele><time>2026-04-11T15:53:14.169Z</time></trkpt><trkpt lat="40.6882357" lon="9.7168159"><ele>5.166666666666667</ele><time>2026-04-11T15:53:16.165Z</time></trkpt><trkpt lat="40.688292" lon="9.7167698"><ele>5.0</ele><time>2026-04-11T15:53:17.147Z</time></trkpt><trkpt lat="40.6883538" lon="9.7167224"><ele>5.0</ele><time>2026-04-11T15:53:18.15Z</time></trkpt><trkpt lat="40.6884154" lon="9.7166767"><ele>5.0</ele><time>2026-04-11T15:53:19.157Z</time></trkpt><trkpt lat="40.6884731" lon="9.7166355"><ele>5.0</ele><time>2026-04-11T15:53:20.154Z</time></trkpt><trkpt lat="40.6885772" lon="9.7165708"><ele>5.0</ele><time>2026-04-11T15:53:22.158Z</time></trkpt><trkpt lat="40.6886666" lon="9.7164971"><ele>5.0</ele><time>2026-04-11T15:53:24.168Z</time></trkpt><trkpt lat="40.6887579" lon="9.7163801"><ele>5.0</ele><time>2026-04-11T15:53:26.168Z</time></trkpt><trkpt lat="40.6888062" lon="9.7163232"><ele>5.0</ele><time>2026-04-11T15:53:27.164Z</time></trkpt><trkpt lat="40.6889067" lon="9.7162241"><ele>5.0</ele><time>2026-04-11T15:53:29.158Z</time></trkpt><trkpt lat="40.6889688" lon="9.7161833"><ele>5.0</ele><time>2026-04-11T15:53:30.15Z</time></trkpt><trkpt lat="40.6890271" lon="9.7161458"><ele>5.0</ele><time>2026-04-11T15:53:31.169Z</time></trkpt><trkpt lat="40.6890833" lon="9.7160974"><ele>5.0</ele><time>2026-04-11T15:53:32.153Z</time></trkpt><trkpt lat="40.689138" lon="9.7160414"><ele>5.0</ele><time>2026-04-11T15:53:33.18Z</time></trkpt><trkpt lat="40.6891903" lon="9.7159758"><ele>5.0</ele><time>2026-04-11T15:53:34.155Z</time></trkpt><trkpt lat="40.6892502" lon="9.7159132"><ele>5.0</ele><time>2026-04-11T15:53:35.162Z</time></trkpt><trkpt lat="40.6893138" lon="9.7158433"><ele>5.0</ele><time>2026-04-11T15:53:36.162Z</time></trkpt><trkpt lat="40.689379" lon="9.715778"><ele>5.0</ele><time>2026-04-11T15:53:37.161Z</time></trkpt><trkpt lat="40.689447" lon="9.7157174"><ele>5.0</ele><time>2026-04-11T15:53:38.151Z</time></trkpt><trkpt lat="40.689516" lon="9.7156661"><ele>4.714285714285714</ele><time>2026-04-11T15:53:39.162Z</time></trkpt><trkpt lat="40.689578" lon="9.7156227"><ele>4.428571428571429</ele><time>2026-04-11T15:53:40.156Z</time></trkpt><trkpt lat="40.6896335" lon="9.7155803"><ele>4.142857142857142</ele><time>2026-04-11T15:53:41.192Z</time></trkpt><trkpt lat="40.6896815" lon="9.7155246"><ele>3.8571428571428568</ele><time>2026-04-11T15:53:42.161Z</time></trkpt><trkpt lat="40.6897365" lon="9.7154641"><ele>3.571428571428571</ele><time>2026-04-11T15:53:43.159Z</time></trkpt><trkpt lat="40.6897965" lon="9.7154016"><ele>3.2857142857142856</ele><time>2026-04-11T15:53:44.181Z</time></trkpt><trkpt lat="40.6898627" lon="9.7153418"><ele>3.0</ele><time>2026-04-11T15:53:45.172Z</time></trkpt><trkpt lat="40.6899264" lon="9.7152923"><ele>3.0</ele><time>2026-04-11T15:53:46.18Z</time></trkpt><trkpt lat="40.6899866" lon="9.7152397"><ele>3.0</ele><time>2026-04-11T15:53:47.168Z</time></trkpt><trkpt lat="40.6900486" lon="9.7151828"><ele>3.0</ele><time>2026-04-11T15:53:48.188Z</time></trkpt><trkpt lat="40.6901123" lon="9.7151203"><ele>3.0</ele><time>2026-04-11T15:53:49.164Z</time></trkpt><trkpt lat="40.6901763" lon="9.7150484"><ele>3.0</ele><time>2026-04-11T15:53:50.161Z</time></trkpt><trkpt lat="40.6902393" lon="9.7149746"><ele>3.0</ele><time>2026-04-11T15:53:51.185Z</time></trkpt><trkpt lat="40.6902949" lon="9.7149073"><ele>3.2857142857142856</ele><time>2026-04-11T15:53:52.174Z</time></trkpt><trkpt lat="40.6903547" lon="9.7148541"><ele>3.571428571428571</ele><time>2026-04-11T15:53:53.182Z</time></trkpt><trkpt lat="40.6904247" lon="9.7148153"><ele>3.8571428571428568</ele><time>2026-04-11T15:53:54.17Z</time></trkpt><trkpt lat="40.6904976" lon="9.7147892"><ele>4.142857142857142</ele><time>2026-04-11T15:53:55.169Z</time></trkpt><trkpt lat="40.6905689" lon="9.7147716"><ele>4.428571428571429</ele><time>2026-04-11T15:53:56.166Z</time></trkpt><trkpt lat="40.6906345" lon="9.7147696"><ele>4.714285714285714</ele><time>2026-04-11T15:53:57.167Z</time></trkpt><trkpt lat="40.690701" lon="9.7147866"><ele>5.0</ele><time>2026-04-11T15:53:58.176Z</time></trkpt><trkpt lat="40.6907682" lon="9.7148182"><ele>5.0</ele><time>2026-04-11T15:53:59.171Z</time></trkpt><trkpt lat="40.6908393" lon="9.7148632"><ele>5.0</ele><time>2026-04-11T15:54:00.17Z</time></trkpt><trkpt lat="40.6909019" lon="9.7149141"><ele>5.0</ele><time>2026-04-11T15:54:01.198Z</time></trkpt><trkpt lat="40.6909635" lon="9.7149798"><ele>5.0</ele><time>2026-04-11T15:54:02.18Z</time></trkpt><trkpt lat="40.691031" lon="9.7150563"><ele>5.0</ele><time>2026-04-11T15:54:03.166Z</time></trkpt><trkpt lat="40.6911031" lon="9.7151333"><ele>5.0</ele><time>2026-04-11T15:54:04.177Z</time></trkpt><trkpt lat="40.6911776" lon="9.7151958"><ele>4.666666666666667</ele><time>2026-04-11T15:54:05.177Z</time></trkpt><trkpt lat="40.6912505" lon="9.7152471"><ele>4.333333333333334</ele><time>2026-04-11T15:54:06.161Z</time></trkpt><trkpt lat="40.6913315" lon="9.7152878"><ele>4.0</ele><time>2026-04-11T15:54:07.182Z</time></trkpt><trkpt lat="40.691425" lon="9.7153181"><ele>3.666666666666667</ele><time>2026-04-11T15:54:08.162Z</time></trkpt><trkpt lat="40.6915175" lon="9.7153379"><ele>3.3333333333333335</ele><time>2026-04-11T15:54:09.174Z</time></trkpt><trkpt lat="40.6915992" lon="9.7153412"><ele>3.0</ele><time>2026-04-11T15:54:10.165Z</time></trkpt><trkpt lat="40.6916762" lon="9.715321"><ele>3.0</ele><time>2026-04-11T15:54:11.173Z</time></trkpt><trkpt lat="40.6917579" lon="9.7152903"><ele>3.0</ele><time>2026-04-11T15:54:12.169Z</time></trkpt><trkpt lat="40.6918376" lon="9.7152502"><ele>3.0</ele><time>2026-04-11T15:54:13.188Z</time></trkpt><trkpt lat="40.6919124" lon="9.7151947"><ele>3.0</ele><time>2026-04-11T15:54:14.169Z</time></trkpt><trkpt lat="40.6919751" lon="9.7151374"><ele>3.0</ele><time>2026-04-11T15:54:15.178Z</time></trkpt><trkpt lat="40.6920327" lon="9.7150761"><ele>3.0</ele><time>2026-04-11T15:54:16.191Z</time></trkpt><trkpt lat="40.6920816" lon="9.7149976"><ele>2.8333333333333335</ele><time>2026-04-11T15:54:17.174Z</time></trkpt><trkpt lat="40.6921186" lon="9.7149048"><ele>2.6666666666666665</ele><time>2026-04-11T15:54:18.167Z</time></trkpt><trkpt lat="40.6921561" lon="9.714809"><ele>2.5</ele><time>2026-04-11T15:54:19.18Z</time></trkpt><trkpt lat="40.6921839" lon="9.714708"><ele>2.333333333333333</ele><time>2026-04-11T15:54:20.17Z</time></trkpt><trkpt lat="40.6922034" lon="9.7146063"><ele>2.1666666666666665</ele><time>2026-04-11T15:54:21.168Z</time></trkpt><trkpt lat="40.6922252" lon="9.7144971"><ele>2.0</ele><time>2026-04-11T15:54:22.167Z</time></trkpt><trkpt lat="40.6922463" lon="9.7143814"><ele>2.333333333333333</ele><time>2026-04-11T15:54:23.165Z</time></trkpt><trkpt lat="40.692256" lon="9.7142685"><ele>2.6666666666666665</ele><time>2026-04-11T15:54:24.181Z</time></trkpt><trkpt lat="40.6922528" lon="9.7141765"><ele>3.0</ele><time>2026-04-11T15:54:25.173Z</time></trkpt><trkpt lat="40.6922388" lon="9.7140862"><ele>3.333333333333333</ele><time>2026-04-11T15:54:26.173Z</time></trkpt><trkpt lat="40.692211" lon="9.7139984"><ele>3.6666666666666665</ele><time>2026-04-11T15:54:27.174Z</time></trkpt><trkpt lat="40.6921831" lon="9.7138977"><ele>4.0</ele><time>2026-04-11T15:54:28.174Z</time></trkpt><trkpt lat="40.6921452" lon="9.7138007"><ele>3.9999999999999996</ele><time>2026-04-11T15:54:29.173Z</time></trkpt><trkpt lat="40.6921008" lon="9.7137103"><ele>4.0</ele><time>2026-04-11T15:54:30.174Z</time></trkpt><trkpt lat="40.6920546" lon="9.7136205"><ele>4.0</ele><time>2026-04-11T15:54:31.183Z</time></trkpt><trkpt lat="40.6920134" lon="9.7135341"><ele>4.0</ele><time>2026-04-11T15:54:32.171Z</time></trkpt><trkpt lat="40.6919743" lon="9.713395"><ele>3.9999999999999996</ele><time>2026-04-11T15:54:34.189Z</time></trkpt><trkpt lat="40.6920183" lon="9.7132972"><ele>4.0</ele><time>2026-04-11T15:54:36.186Z</time></trkpt><trkpt lat="40.6921299" lon="9.7132595"><ele>4.0</ele><time>2026-04-11T15:54:38.171Z</time></trkpt><trkpt lat="40.6922107" lon="9.713238"><ele>4.0</ele><time>2026-04-11T15:54:39.176Z</time></trkpt><trkpt lat="40.6923033" lon="9.7132055"><ele>4.0</ele><time>2026-04-11T15:54:40.182Z</time></trkpt><trkpt lat="40.6924049" lon="9.7131639"><ele>4.0</ele><time>2026-04-11T15:54:41.171Z</time></trkpt><trkpt lat="40.6925006" lon="9.7131268"><ele>4.0</ele><time>2026-04-11T15:54:42.167Z</time></trkpt><trkpt lat="40.6925845" lon="9.7130981"><ele>3.9999999999999996</ele><time>2026-04-11T15:54:43.171Z</time></trkpt><trkpt lat="40.6926623" lon="9.7130714"><ele>4.0</ele><time>2026-04-11T15:54:44.169Z</time></trkpt><trkpt lat="40.692731" lon="9.713036"><ele>4.0</ele><time>2026-04-11T15:54:45.171Z</time></trkpt><trkpt lat="40.6928055" lon="9.7129964"><ele>4.0</ele><time>2026-04-11T15:54:46.176Z</time></trkpt><trkpt lat="40.6928858" lon="9.7129722"><ele>3.9999999999999996</ele><time>2026-04-11T15:54:47.177Z</time></trkpt><trkpt lat="40.6929676" lon="9.7129583"><ele>4.0</ele><time>2026-04-11T15:54:48.172Z</time></trkpt><trkpt lat="40.6930522" lon="9.7129537"><ele>3.6</ele><time>2026-04-11T15:54:49.193Z</time></trkpt><trkpt lat="40.6931414" lon="9.7129556"><ele>3.2</ele><time>2026-04-11T15:54:50.174Z</time></trkpt><trkpt lat="40.6932305" lon="9.7129586"><ele>2.8000000000000003</ele><time>2026-04-11T15:54:51.185Z</time></trkpt><trkpt lat="40.6933216" lon="9.712951"><ele>2.4000000000000004</ele><time>2026-04-11T15:54:52.179Z</time></trkpt><trkpt lat="40.6934175" lon="9.7129435"><ele>2.0</ele><time>2026-04-11T15:54:53.174Z</time></trkpt><trkpt lat="40.693509" lon="9.7129269"><ele>2.2</ele><time>2026-04-11T15:54:54.178Z</time></trkpt><trkpt lat="40.6935989" lon="9.712901"><ele>2.4000000000000004</ele><time>2026-04-11T15:54:55.181Z</time></trkpt><trkpt lat="40.6936866" lon="9.7128794"><ele>2.5999999999999996</ele><time>2026-04-11T15:54:56.174Z</time></trkpt><trkpt lat="40.6937781" lon="9.7128631"><ele>2.8</ele><time>2026-04-11T15:54:57.17Z</time></trkpt><trkpt lat="40.6938713" lon="9.7128502"><ele>3.0</ele><time>2026-04-11T15:54:58.189Z</time></trkpt><trkpt lat="40.6939548" lon="9.7128408"><ele>3.0</ele><time>2026-04-11T15:54:59.192Z</time></trkpt><trkpt lat="40.6940253" lon="9.71286"><ele>3.0</ele><time>2026-04-11T15:55:00.194Z</time></trkpt><trkpt lat="40.6941042" lon="9.7129729"><ele>3.0</ele><time>2026-04-11T15:55:02.177Z</time></trkpt><trkpt lat="40.6941378" lon="9.7130625"><ele>3.0</ele><time>2026-04-11T15:55:03.181Z</time></trkpt><trkpt lat="40.6941817" lon="9.7131623"><ele>3.0</ele><time>2026-04-11T15:55:04.178Z</time></trkpt><trkpt lat="40.6942298" lon="9.7132646"><ele>3.0</ele><time>2026-04-11T15:55:05.177Z</time></trkpt><trkpt lat="40.694273" lon="9.7133519"><ele>3.0</ele><time>2026-04-11T15:55:06.192Z</time></trkpt><trkpt lat="40.6943108" lon="9.7134257"><ele>3.0</ele><time>2026-04-11T15:55:07.198Z</time></trkpt><trkpt lat="40.6943609" lon="9.7135517"><ele>3.0</ele><time>2026-04-11T15:55:09.176Z</time></trkpt><trkpt lat="40.6943884" lon="9.7136309"><ele>3.0</ele><time>2026-04-11T15:55:12.189Z</time></trkpt><trkpt lat="40.6944266" lon="9.713722"><ele>3.0</ele><time>2026-04-11T15:55:21.198Z</time></trkpt><trkpt lat="40.6945085" lon="9.7137095"><ele>3.0</ele><time>2026-04-11T15:55:24.189Z</time></trkpt><trkpt lat="40.6945716" lon="9.7136632"><ele>2.8333333333333335</ele><time>2026-04-11T15:55:27.197Z</time></trkpt><trkpt lat="40.6946205" lon="9.7136103"><ele>2.6666666666666665</ele><time>2026-04-11T15:55:29.2Z</time></trkpt><trkpt lat="40.6946569" lon="9.7135206"><ele>2.5</ele><time>2026-04-11T15:55:31.179Z</time></trkpt><trkpt lat="40.694633" lon="9.7134003"><ele>2.333333333333333</ele><time>2026-04-11T15:55:33.186Z</time></trkpt><trkpt lat="40.694582" lon="9.7132433"><ele>2.1666666666666665</ele><time>2026-04-11T15:55:35.192Z</time></trkpt><trkpt lat="40.6945682" lon="9.7131613"><ele>2.0</ele><time>2026-04-11T15:55:36.185Z</time></trkpt><trkpt lat="40.6945718" lon="9.7130782"><ele>2.0</ele><time>2026-04-11T15:55:37.216Z</time></trkpt><trkpt lat="40.6945882" lon="9.7129896"><ele>2.0</ele><time>2026-04-11T15:55:38.191Z</time></trkpt><trkpt lat="40.6946392" lon="9.7128405"><ele>2.0</ele><time>2026-04-11T15:55:40.209Z</time></trkpt><trkpt lat="40.6947104" lon="9.7127468"><ele>2.0</ele><time>2026-04-11T15:55:42.182Z</time></trkpt><trkpt lat="40.694805" lon="9.7126697"><ele>2.0</ele><time>2026-04-11T15:55:44.208Z</time></trkpt><trkpt lat="40.6948688" lon="9.7126342"><ele>2.1666666666666665</ele><time>2026-04-11T15:55:45.215Z</time></trkpt><trkpt lat="40.6949426" lon="9.7126015"><ele>2.333333333333333</ele><time>2026-04-11T15:55:46.189Z</time></trkpt><trkpt lat="40.6950188" lon="9.7125633"><ele>2.5</ele><time>2026-04-11T15:55:47.189Z</time></trkpt><trkpt lat="40.695097" lon="9.7125306"><ele>2.6666666666666665</ele><time>2026-04-11T15:55:48.186Z</time></trkpt><trkpt lat="40.6951699" lon="9.7124971"><ele>2.8333333333333335</ele><time>2026-04-11T15:55:49.2Z</time></trkpt><trkpt lat="40.6952451" lon="9.7124686"><ele>3.0</ele><time>2026-04-11T15:55:50.205Z</time></trkpt><trkpt lat="40.6953172" lon="9.7124352"><ele>3.1666666666666665</ele><time>2026-04-11T15:55:51.19Z</time></trkpt><trkpt lat="40.6953894" lon="9.7123895"><ele>3.333333333333333</ele><time>2026-04-11T15:55:52.184Z</time></trkpt><trkpt lat="40.6954618" lon="9.7123399"><ele>3.5</ele><time>2026-04-11T15:55:53.188Z</time></trkpt><trkpt lat="40.6955396" lon="9.7122911"><ele>3.6666666666666665</ele><time>2026-04-11T15:55:54.19Z</time></trkpt><trkpt lat="40.6956235" lon="9.7122475"><ele>3.833333333333333</ele><time>2026-04-11T15:55:55.192Z</time></trkpt><trkpt lat="40.6957096" lon="9.7121972"><ele>4.0</ele><time>2026-04-11T15:55:56.189Z</time></trkpt><trkpt lat="40.6958" lon="9.7121446"><ele>4.0</ele><time>2026-04-11T15:55:57.206Z</time></trkpt><trkpt lat="40.6958915" lon="9.7120999"><ele>4.0</ele><time>2026-04-11T15:55:58.19Z</time></trkpt><trkpt lat="40.6959784" lon="9.712057"><ele>4.0</ele><time>2026-04-11T15:55:59.224Z</time></trkpt><trkpt lat="40.6960609" lon="9.7120176"><ele>4.0</ele><time>2026-04-11T15:56:00.196Z</time></trkpt><trkpt lat="40.6961442" lon="9.7119756"><ele>4.0</ele><time>2026-04-11T15:56:01.185Z</time></trkpt><trkpt lat="40.6962211" lon="9.7119287"><ele>5.0</ele><time>2026-04-11T15:56:02.19Z</time></trkpt><trkpt lat="40.6963003" lon="9.7118844"><ele>6.0</ele><time>2026-04-11T15:56:03.195Z</time></trkpt><trkpt lat="40.6963755" lon="9.7118447"><ele>7.0</ele><time>2026-04-11T15:56:04.199Z</time></trkpt><trkpt lat="40.6964431" lon="9.7117926"><ele>8.0</ele><time>2026-04-11T15:56:05.189Z</time></trkpt><trkpt lat="40.6965186" lon="9.7117261"><ele>9.0</ele><time>2026-04-11T15:56:06.189Z</time></trkpt><trkpt lat="40.6965976" lon="9.711665"><ele>10.0</ele><time>2026-04-11T15:56:07.192Z</time></trkpt><trkpt lat="40.6966805" lon="9.711604"><ele>10.0</ele><time>2026-04-11T15:56:08.2Z</time></trkpt><trkpt lat="40.696763" lon="9.7115531"><ele>10.0</ele><time>2026-04-11T15:56:09.181Z</time></trkpt><trkpt lat="40.6968442" lon="9.7114991"><ele>10.0</ele><time>2026-04-11T15:56:10.181Z</time></trkpt><trkpt lat="40.6969218" lon="9.7114365"><ele>10.0</ele><time>2026-04-11T15:56:11.197Z</time></trkpt><trkpt lat="40.6969996" lon="9.7113614"><ele>10.0</ele><time>2026-04-11T15:56:12.187Z</time></trkpt><trkpt lat="40.6970714" lon="9.711278"><ele>10.0</ele><time>2026-04-11T15:56:13.18Z</time></trkpt><trkpt lat="40.6971444" lon="9.7111884"><ele>10.0</ele><time>2026-04-11T15:56:14.191Z</time></trkpt><trkpt lat="40.6972137" lon="9.711101"><ele>10.0</ele><time>2026-04-11T15:56:15.179Z</time></trkpt><trkpt lat="40.697278" lon="9.7110164"><ele>10.0</ele><time>2026-04-11T15:56:16.182Z</time></trkpt><trkpt lat="40.6973428" lon="9.7109408"><ele>10.0</ele><time>2026-04-11T15:56:17.174Z</time></trkpt><trkpt lat="40.6974164" lon="9.7108677"><ele>10.5</ele><time>2026-04-11T15:56:18.177Z</time></trkpt><trkpt lat="40.6974942" lon="9.7108007"><ele>11.0</ele><time>2026-04-11T15:56:19.178Z</time></trkpt><trkpt lat="40.6975642" lon="9.7107414"><ele>11.5</ele><time>2026-04-11T15:56:20.207Z</time></trkpt><trkpt lat="40.6976212" lon="9.7106756"><ele>12.0</ele><time>2026-04-11T15:56:21.187Z</time></trkpt><trkpt lat="40.6976696" lon="9.7106072"><ele>12.499999999999998</ele><time>2026-04-11T15:56:22.182Z</time></trkpt><trkpt lat="40.697706" lon="9.7105195"><ele>13.0</ele><time>2026-04-11T15:56:23.185Z</time></trkpt><trkpt lat="40.6977507" lon="9.7104221"><ele>12.8</ele><time>2026-04-11T15:56:24.18Z</time></trkpt><trkpt lat="40.6978086" lon="9.7103162"><ele>12.600000000000001</ele><time>2026-04-11T15:56:25.18Z</time></trkpt><trkpt lat="40.6978725" lon="9.7102035"><ele>12.399999999999999</ele><time>2026-04-11T15:56:26.178Z</time></trkpt><trkpt lat="40.6979392" lon="9.7100896"><ele>12.2</ele><time>2026-04-11T15:56:27.19Z</time></trkpt><trkpt lat="40.6979993" lon="9.7099849"><ele>12.0</ele><time>2026-04-11T15:56:28.183Z</time></trkpt><trkpt lat="40.6980594" lon="9.7098794"><ele>12.6</ele><time>2026-04-11T15:56:29.191Z</time></trkpt><trkpt lat="40.6981174" lon="9.7097772"><ele>13.2</ele><time>2026-04-11T15:56:30.183Z</time></trkpt><trkpt lat="40.6981697" lon="9.7096744"><ele>13.8</ele><time>2026-04-11T15:56:31.218Z</time></trkpt><trkpt lat="40.6982129" lon="9.7095684"><ele>14.4</ele><time>2026-04-11T15:56:32.183Z</time></trkpt><trkpt lat="40.6982565" lon="9.7094491"><ele>15.0</ele><time>2026-04-11T15:56:33.197Z</time></trkpt><trkpt lat="40.6982985" lon="9.7093342"><ele>15.4</ele><time>2026-04-11T15:56:34.185Z</time></trkpt><trkpt lat="40.6983442" lon="9.7092218"><ele>15.8</ele><time>2026-04-11T15:56:35.183Z</time></trkpt><trkpt lat="40.6983855" lon="9.709114"><ele>16.2</ele><time>2026-04-11T15:56:36.199Z</time></trkpt><trkpt lat="40.6984205" lon="9.7090059"><ele>16.6</ele><time>2026-04-11T15:56:37.186Z</time></trkpt><trkpt lat="40.6984558" lon="9.7088967"><ele>17.0</ele><time>2026-04-11T15:56:38.179Z</time></trkpt><trkpt lat="40.6984852" lon="9.70879"><ele>17.0</ele><time>2026-04-11T15:56:39.199Z</time></trkpt><trkpt lat="40.6985121" lon="9.7086768"><ele>17.0</ele><time>2026-04-11T15:56:40.188Z</time></trkpt><trkpt lat="40.6985376" lon="9.7085621"><ele>17.0</ele><time>2026-04-11T15:56:41.175Z</time></trkpt><trkpt lat="40.6985645" lon="9.7084478"><ele>17.0</ele><time>2026-04-11T15:56:42.182Z</time></trkpt><trkpt lat="40.698593" lon="9.708334"><ele>17.0</ele><time>2026-04-11T15:56:43.187Z</time></trkpt><trkpt lat="40.6986294" lon="9.7082202"><ele>15.666666666666668</ele><time>2026-04-11T15:56:44.18Z</time></trkpt><trkpt lat="40.6986669" lon="9.7081062"><ele>14.333333333333334</ele><time>2026-04-11T15:56:45.18Z</time></trkpt><trkpt lat="40.6986981" lon="9.7079948"><ele>13.0</ele><time>2026-04-11T15:56:46.187Z</time></trkpt><trkpt lat="40.6987279" lon="9.7078847"><ele>11.666666666666668</ele><time>2026-04-11T15:56:47.177Z</time></trkpt><trkpt lat="40.6987584" lon="9.7077797"><ele>10.333333333333334</ele><time>2026-04-11T15:56:48.172Z</time></trkpt><trkpt lat="40.6987869" lon="9.7076762"><ele>9.0</ele><time>2026-04-11T15:56:49.179Z</time></trkpt><trkpt lat="40.6988121" lon="9.7075814"><ele>8.833333333333334</ele><time>2026-04-11T15:56:50.198Z</time></trkpt><trkpt lat="40.6988379" lon="9.7074939"><ele>8.666666666666666</ele><time>2026-04-11T15:56:51.182Z</time></trkpt><trkpt lat="40.6988597" lon="9.7074135"><ele>8.5</ele><time>2026-04-11T15:56:52.195Z</time></trkpt><trkpt lat="40.6988819" lon="9.707287"><ele>8.333333333333332</ele><time>2026-04-11T15:56:54.18Z</time></trkpt><trkpt lat="40.6988774" lon="9.7071933"><ele>8.166666666666666</ele><time>2026-04-11T15:56:56.178Z</time></trkpt><trkpt lat="40.6988514" lon="9.7071158"><ele>8.0</ele><time>2026-04-11T15:56:58.187Z</time></trkpt><trkpt lat="40.6987753" lon="9.7070287"><ele>7.999999999999999</ele><time>2026-04-11T15:57:00.197Z</time></trkpt><trkpt lat="40.6987201" lon="9.7069834"><ele>8.0</ele><time>2026-04-11T15:57:01.182Z</time></trkpt><trkpt lat="40.6986608" lon="9.7069384"><ele>8.0</ele><time>2026-04-11T15:57:02.184Z</time></trkpt><trkpt lat="40.6985684" lon="9.7068525"><ele>8.0</ele><time>2026-04-11T15:57:04.178Z</time></trkpt><trkpt lat="40.6985277" lon="9.7067842"><ele>7.999999999999999</ele><time>2026-04-11T15:57:06.205Z</time></trkpt><trkpt lat="40.6985098" lon="9.7067014"><ele>8.0</ele><time>2026-04-11T15:57:08.178Z</time></trkpt><trkpt lat="40.6984887" lon="9.7065703"><ele>8.4</ele><time>2026-04-11T15:57:10.182Z</time></trkpt><trkpt lat="40.698495" lon="9.7064041"><ele>8.8</ele><time>2026-04-11T15:57:12.177Z</time></trkpt><trkpt lat="40.6984906" lon="9.7063147"><ele>9.2</ele><time>2026-04-11T15:57:13.178Z</time></trkpt><trkpt lat="40.6984872" lon="9.7061642"><ele>9.6</ele><time>2026-04-11T15:57:15.183Z</time></trkpt><trkpt lat="40.698483" lon="9.7060181"><ele>10.0</ele><time>2026-04-11T15:57:17.187Z</time></trkpt><trkpt lat="40.6984713" lon="9.7059011"><ele>10.0</ele><time>2026-04-11T15:57:19.174Z</time></trkpt><trkpt lat="40.6984642" lon="9.7058104"><ele>10.0</ele><time>2026-04-11T15:57:21.177Z</time></trkpt><trkpt lat="40.6984642" lon="9.7057128"><ele>10.0</ele><time>2026-04-11T15:57:23.195Z</time></trkpt><trkpt lat="40.6985075" lon="9.7055917"><ele>10.0</ele><time>2026-04-11T15:57:25.174Z</time></trkpt><trkpt lat="40.6985309" lon="9.7054577"><ele>10.0</ele><time>2026-04-11T15:57:27.192Z</time></trkpt><trkpt lat="40.6985125" lon="9.7053064"><ele>10.4</ele><time>2026-04-11T15:57:29.179Z</time></trkpt><trkpt lat="40.6985003" lon="9.7051575"><ele>10.8</ele><time>2026-04-11T15:57:31.2Z</time></trkpt><trkpt lat="40.6985035" lon="9.7049934"><ele>11.2</ele><time>2026-04-11T15:57:33.18Z</time></trkpt><trkpt lat="40.6985029" lon="9.7048278"><ele>11.6</ele><time>2026-04-11T15:57:35.173Z</time></trkpt><trkpt lat="40.6984981" lon="9.7047386"><ele>12.0</ele><time>2026-04-11T15:57:36.193Z</time></trkpt><trkpt lat="40.6984969" lon="9.7046436"><ele>12.0</ele><time>2026-04-11T15:57:37.178Z</time></trkpt><trkpt lat="40.6984916" lon="9.7045522"><ele>12.0</ele><time>2026-04-11T15:57:38.226Z</time></trkpt><trkpt lat="40.698491" lon="9.7043911"><ele>12.0</ele><time>2026-04-11T15:57:40.177Z</time></trkpt><trkpt lat="40.6984917" lon="9.7043039"><ele>12.0</ele><time>2026-04-11T15:57:41.175Z</time></trkpt><trkpt lat="40.698487" lon="9.7042193"><ele>12.0</ele><time>2026-04-11T15:57:42.207Z</time></trkpt><trkpt lat="40.698465" lon="9.7040769"><ele>12.0</ele><time>2026-04-11T15:57:44.176Z</time></trkpt><trkpt lat="40.6984869" lon="9.7039465"><ele>12.0</ele><time>2026-04-11T15:57:46.191Z</time></trkpt><trkpt lat="40.6985285" lon="9.7038133"><ele>12.0</ele><time>2026-04-11T15:57:48.171Z</time></trkpt><trkpt lat="40.6985462" lon="9.7036734"><ele>12.0</ele><time>2026-04-11T15:57:50.186Z</time></trkpt><trkpt lat="40.6985631" lon="9.7034959"><ele>12.0</ele><time>2026-04-11T15:57:52.175Z</time></trkpt><trkpt lat="40.6985764" lon="9.7033939"><ele>12.0</ele><time>2026-04-11T15:57:53.177Z</time></trkpt><trkpt lat="40.6985896" lon="9.7032876"><ele>12.0</ele><time>2026-04-11T15:57:54.196Z</time></trkpt><trkpt lat="40.6986026" lon="9.7031853"><ele>12.0</ele><time>2026-04-11T15:57:55.19Z</time></trkpt><trkpt lat="40.6986136" lon="9.7030866"><ele>12.0</ele><time>2026-04-11T15:57:56.175Z</time></trkpt><trkpt lat="40.6986251" lon="9.7029935"><ele>12.0</ele><time>2026-04-11T15:57:57.179Z</time></trkpt><trkpt lat="40.6986414" lon="9.7028928"><ele>12.0</ele><time>2026-04-11T15:57:58.173Z</time></trkpt><trkpt lat="40.6986616" lon="9.702791"><ele>12.0</ele><time>2026-04-11T15:57:59.182Z</time></trkpt><trkpt lat="40.6986815" lon="9.702699"><ele>12.2</ele><time>2026-04-11T15:58:00.179Z</time></trkpt><trkpt lat="40.6987114" lon="9.7025547"><ele>12.399999999999999</ele><time>2026-04-11T15:58:02.178Z</time></trkpt><trkpt lat="40.6987466" lon="9.7024481"><ele>12.600000000000001</ele><time>2026-04-11T15:58:04.176Z</time></trkpt><trkpt lat="40.6988047" lon="9.7024107"><ele>12.8</ele><time>2026-04-11T15:58:07.172Z</time></trkpt><trkpt lat="40.6988718" lon="9.7024586"><ele>13.0</ele><time>2026-04-11T15:58:11.167Z</time></trkpt><trkpt lat="40.6989583" lon="9.7025594"><ele>13.0</ele><time>2026-04-11T15:58:14.169Z</time></trkpt><trkpt lat="40.6990245" lon="9.7026184"><ele>13.0</ele><time>2026-04-11T15:58:15.174Z</time></trkpt><trkpt lat="40.6991102" lon="9.7027079"><ele>13.0</ele><time>2026-04-11T15:58:16.176Z</time></trkpt><trkpt lat="40.699213" lon="9.7027938"><ele>13.0</ele><time>2026-04-11T15:58:17.173Z</time></trkpt><trkpt lat="40.6993367" lon="9.7028725"><ele>13.0</ele><time>2026-04-11T15:58:18.178Z</time></trkpt><trkpt lat="40.6994417" lon="9.7029407"><ele>12.75</ele><time>2026-04-11T15:58:19.188Z</time></trkpt><trkpt lat="40.6995483" lon="9.7030223"><ele>12.5</ele><time>2026-04-11T15:58:20.172Z</time></trkpt><trkpt lat="40.6996539" lon="9.7030989"><ele>12.25</ele><time>2026-04-11T15:58:21.185Z</time></trkpt><trkpt lat="40.6997622" lon="9.7031782"><ele>12.0</ele><time>2026-04-11T15:58:22.178Z</time></trkpt><trkpt lat="40.6998777" lon="9.7032688"><ele>12.0</ele><time>2026-04-11T15:58:23.183Z</time></trkpt><trkpt lat="40.6999908" lon="9.7033652"><ele>12.0</ele><time>2026-04-11T15:58:24.18Z</time></trkpt><trkpt lat="40.7001076" lon="9.7034628"><ele>12.0</ele><time>2026-04-11T15:58:25.17Z</time></trkpt><trkpt lat="40.700221" lon="9.7035701"><ele>12.0</ele><time>2026-04-11T15:58:26.178Z</time></trkpt><trkpt lat="40.7003365" lon="9.7036767"><ele>11.25</ele><time>2026-04-11T15:58:27.192Z</time></trkpt><trkpt lat="40.7004504" lon="9.7037834"><ele>10.5</ele><time>2026-04-11T15:58:28.184Z</time></trkpt><trkpt lat="40.7005576" lon="9.7038845"><ele>9.75</ele><time>2026-04-11T15:58:29.194Z</time></trkpt><trkpt lat="40.7006672" lon="9.7039829"><ele>9.0</ele><time>2026-04-11T15:58:30.173Z</time></trkpt><trkpt lat="40.7007768" lon="9.7040853"><ele>9.0</ele><time>2026-04-11T15:58:31.174Z</time></trkpt><trkpt lat="40.7008926" lon="9.7041878"><ele>9.0</ele><time>2026-04-11T15:58:32.174Z</time></trkpt><trkpt lat="40.7010047" lon="9.7042952"><ele>9.0</ele><time>2026-04-11T15:58:33.172Z</time></trkpt><trkpt lat="40.7011161" lon="9.7044056"><ele>9.0</ele><time>2026-04-11T15:58:34.188Z</time></trkpt><trkpt lat="40.7012256" lon="9.7045133"><ele>8.75</ele><time>2026-04-11T15:58:35.174Z</time></trkpt><trkpt lat="40.701336" lon="9.7046176"><ele>8.5</ele><time>2026-04-11T15:58:36.183Z</time></trkpt><trkpt lat="40.7014475" lon="9.7047207"><ele>8.25</ele><time>2026-04-11T15:58:37.174Z</time></trkpt><trkpt lat="40.7015568" lon="9.70482"><ele>8.0</ele><time>2026-04-11T15:58:38.178Z</time></trkpt><trkpt lat="40.7016637" lon="9.7049161"><ele>8.0</ele><time>2026-04-11T15:58:39.173Z</time></trkpt><trkpt lat="40.7017683" lon="9.7050083"><ele>8.0</ele><time>2026-04-11T15:58:40.178Z</time></trkpt><trkpt lat="40.7018757" lon="9.7051067"><ele>8.0</ele><time>2026-04-11T15:58:41.176Z</time></trkpt><trkpt lat="40.7019854" lon="9.7052099"><ele>8.0</ele><time>2026-04-11T15:58:42.173Z</time></trkpt><trkpt lat="40.7020999" lon="9.7053172"><ele>7.75</ele><time>2026-04-11T15:58:43.18Z</time></trkpt><trkpt lat="40.7022197" lon="9.7054292"><ele>7.5</ele><time>2026-04-11T15:58:44.182Z</time></trkpt><trkpt lat="40.7023415" lon="9.7055339"><ele>7.25</ele><time>2026-04-11T15:58:45.176Z</time></trkpt><trkpt lat="40.7024631" lon="9.705644"><ele>7.0</ele><time>2026-04-11T15:58:46.168Z</time></trkpt><trkpt lat="40.7025828" lon="9.7057495"><ele>7.0</ele><time>2026-04-11T15:58:47.171Z</time></trkpt><trkpt lat="40.7026914" lon="9.7058416"><ele>7.0</ele><time>2026-04-11T15:58:48.173Z</time></trkpt><trkpt lat="40.7027888" lon="9.7059301"><ele>7.0</ele><time>2026-04-11T15:58:49.169Z</time></trkpt><trkpt lat="40.7028769" lon="9.7060196"><ele>7.0</ele><time>2026-04-11T15:58:50.167Z</time></trkpt><trkpt lat="40.7029606" lon="9.7061001"><ele>7.166666666666667</ele><time>2026-04-11T15:58:51.167Z</time></trkpt><trkpt lat="40.7030377" lon="9.7061736"><ele>7.333333333333334</ele><time>2026-04-11T15:58:52.17Z</time></trkpt><trkpt lat="40.7031097" lon="9.7062435"><ele>7.5</ele><time>2026-04-11T15:58:53.164Z</time></trkpt><trkpt lat="40.7031724" lon="9.7063036"><ele>7.666666666666666</ele><time>2026-04-11T15:58:54.17Z</time></trkpt><trkpt lat="40.7032275" lon="9.7063588"><ele>7.833333333333333</ele><time>2026-04-11T15:58:55.198Z</time></trkpt><trkpt lat="40.7032986" lon="9.7064207"><ele>8.0</ele><time>2026-04-11T15:58:57.181Z</time></trkpt><trkpt lat="40.7033543" lon="9.7064714"><ele>8.0</ele><time>2026-04-11T15:59:01.185Z</time></trkpt><trkpt lat="40.7034189" lon="9.7065227"><ele>8.0</ele><time>2026-04-11T16:00:01.165Z</time></trkpt><trkpt lat="40.7034248" lon="9.7066318"><ele>8.0</ele><time>2026-04-11T16:00:04.179Z</time></trkpt><trkpt lat="40.7033788" lon="9.7067734"><ele>8.0</ele><time>2026-04-11T16:00:06.158Z</time></trkpt><trkpt lat="40.7033402" lon="9.706894"><ele>8.0</ele><time>2026-04-11T16:00:08.148Z</time></trkpt><trkpt lat="40.703275" lon="9.7069457"><ele>8.0</ele><time>2026-04-11T16:00:11.165Z</time></trkpt><trkpt lat="40.7032637" lon="9.7068392"><ele>7.999999999999999</ele><time>2026-04-11T16:00:15.177Z</time></trkpt><trkpt lat="40.703289" lon="9.7067443"><ele>8.0</ele><time>2026-04-11T16:00:17.151Z</time></trkpt><trkpt lat="40.703308" lon="9.7066563"><ele>8.0</ele><time>2026-04-11T16:00:20.162Z</time></trkpt><trkpt lat="40.7033069" lon="9.7065646"><ele>7.999999999999999</ele><time>2026-04-11T16:01:11.156Z</time></trkpt><trkpt lat="40.7032929" lon="9.7064761"><ele>8.0</ele><time>2026-04-11T16:01:13.151Z</time></trkpt><trkpt lat="40.7033613" lon="9.7064882"><ele>8.0</ele><time>2026-04-11T16:02:12.258Z</time></trkpt><trkpt lat="40.7034246" lon="9.7065093"><ele>8.0</ele><time>2026-04-11T16:02:15.237Z</time></trkpt><trkpt lat="40.7035161" lon="9.7064151"><ele>8.0</ele><time>2026-04-11T16:02:20.232Z</time></trkpt><trkpt lat="40.7035493" lon="9.7063191"><ele>8.0</ele><time>2026-04-11T16:02:21.242Z</time></trkpt><trkpt lat="40.7035884" lon="9.7062001"><ele>8.0</ele><time>2026-04-11T16:02:22.234Z</time></trkpt><trkpt lat="40.7036352" lon="9.70608"><ele>8.0</ele><time>2026-04-11T16:02:23.227Z</time></trkpt><trkpt lat="40.7036799" lon="9.7059492"><ele>8.4</ele><time>2026-04-11T16:02:24.24Z</time></trkpt><trkpt lat="40.7037189" lon="9.7058126"><ele>8.8</ele><time>2026-04-11T16:02:25.232Z</time></trkpt><trkpt lat="40.7037608" lon="9.7056775"><ele>9.2</ele><time>2026-04-11T16:02:26.226Z</time></trkpt><trkpt lat="40.7038067" lon="9.7055425"><ele>9.6</ele><time>2026-04-11T16:02:27.247Z</time></trkpt><trkpt lat="40.7038573" lon="9.7054175"><ele>10.0</ele><time>2026-04-11T16:02:28.238Z</time></trkpt><trkpt lat="40.7039132" lon="9.7053018"><ele>9.6</ele><time>2026-04-11T16:02:29.23Z</time></trkpt><trkpt lat="40.7039723" lon="9.7051884"><ele>9.2</ele><time>2026-04-11T16:02:30.23Z</time></trkpt><trkpt lat="40.7040336" lon="9.7050839"><ele>8.8</ele><time>2026-04-11T16:02:31.225Z</time></trkpt><trkpt lat="40.7040999" lon="9.7049836"><ele>8.4</ele><time>2026-04-11T16:02:32.228Z</time></trkpt><trkpt lat="40.7041649" lon="9.7048907"><ele>8.0</ele><time>2026-04-11T16:02:33.225Z</time></trkpt><trkpt lat="40.7042264" lon="9.7048045"><ele>7.999999999999999</ele><time>2026-04-11T16:02:34.235Z</time></trkpt><trkpt lat="40.7042824" lon="9.7047251"><ele>8.0</ele><time>2026-04-11T16:02:35.233Z</time></trkpt><trkpt lat="40.7043332" lon="9.7046474"><ele>8.0</ele><time>2026-04-11T16:02:36.238Z</time></trkpt><trkpt lat="40.7043859" lon="9.7045713"><ele>8.0</ele><time>2026-04-11T16:02:37.233Z</time></trkpt><trkpt lat="40.7044408" lon="9.7044927"><ele>7.999999999999999</ele><time>2026-04-11T16:02:38.235Z</time></trkpt><trkpt lat="40.7044988" lon="9.7044122"><ele>8.0</ele><time>2026-04-11T16:02:39.232Z</time></trkpt><trkpt lat="40.7045612" lon="9.7043294"><ele>7.833333333333333</ele><time>2026-04-11T16:02:40.225Z</time></trkpt><trkpt lat="40.7046236" lon="9.7042481"><ele>7.666666666666666</ele><time>2026-04-11T16:02:41.234Z</time></trkpt><trkpt lat="40.7046887" lon="9.7041575"><ele>7.5</ele><time>2026-04-11T16:02:42.222Z</time></trkpt><trkpt lat="40.7047514" lon="9.7040725"><ele>7.333333333333334</ele><time>2026-04-11T16:02:43.228Z</time></trkpt><trkpt lat="40.7048098" lon="9.703996"><ele>7.166666666666667</ele><time>2026-04-11T16:02:44.227Z</time></trkpt><trkpt lat="40.7048625" lon="9.7039243"><ele>7.0</ele><time>2026-04-11T16:02:45.229Z</time></trkpt><trkpt lat="40.7049131" lon="9.7038545"><ele>7.000000000000001</ele><time>2026-04-11T16:02:46.223Z</time></trkpt><trkpt lat="40.7049657" lon="9.7037804"><ele>7.0</ele><time>2026-04-11T16:02:47.22Z</time></trkpt><trkpt lat="40.7050177" lon="9.7037031"><ele>7.0</ele><time>2026-04-11T16:02:48.22Z</time></trkpt><trkpt lat="40.7050771" lon="9.7036209"><ele>7.0</ele><time>2026-04-11T16:02:49.227Z</time></trkpt><trkpt lat="40.7051375" lon="9.7035353"><ele>7.000000000000001</ele><time>2026-04-11T16:02:50.227Z</time></trkpt><trkpt lat="40.7051948" lon="9.7034602"><ele>7.0</ele><time>2026-04-11T16:02:51.225Z</time></trkpt><trkpt lat="40.7052477" lon="9.70339"><ele>7.0</ele><time>2026-04-11T16:02:52.221Z</time></trkpt><trkpt lat="40.7052935" lon="9.7033258"><ele>6.999999999999999</ele><time>2026-04-11T16:02:53.224Z</time></trkpt><trkpt lat="40.705339" lon="9.7032635"><ele>6.999999999999999</ele><time>2026-04-11T16:02:54.228Z</time></trkpt><trkpt lat="40.7054238" lon="9.7031508"><ele>7.0</ele><time>2026-04-11T16:02:56.239Z</time></trkpt><trkpt lat="40.7054966" lon="9.7030522"><ele>7.0</ele><time>2026-04-11T16:02:58.22Z</time></trkpt><trkpt lat="40.7055616" lon="9.702962"><ele>7.0</ele><time>2026-04-11T16:03:00.222Z</time></trkpt><trkpt lat="40.7056219" lon="9.7028782"><ele>6.999999999999999</ele><time>2026-04-11T16:03:02.213Z</time></trkpt><trkpt lat="40.7056964" lon="9.7027815"><ele>6.999999999999999</ele><time>2026-04-11T16:03:04.222Z</time></trkpt><trkpt lat="40.7057803" lon="9.7026605"><ele>7.0</ele><time>2026-04-11T16:03:06.21Z</time></trkpt><trkpt lat="40.70583" lon="9.7025966"><ele>7.0</ele><time>2026-04-11T16:03:07.214Z</time></trkpt><trkpt lat="40.7058832" lon="9.7025326"><ele>7.333333333333334</ele><time>2026-04-11T16:03:08.215Z</time></trkpt><trkpt lat="40.7059378" lon="9.7024758"><ele>7.666666666666667</ele><time>2026-04-11T16:03:09.223Z</time></trkpt><trkpt lat="40.7059896" lon="9.7024252"><ele>8.0</ele><time>2026-04-11T16:03:10.226Z</time></trkpt><trkpt lat="40.7060434" lon="9.7023671"><ele>8.333333333333334</ele><time>2026-04-11T16:03:11.216Z</time></trkpt><trkpt lat="40.7060958" lon="9.7023154"><ele>8.666666666666666</ele><time>2026-04-11T16:03:12.208Z</time></trkpt><trkpt lat="40.7061985" lon="9.7022138"><ele>9.0</ele><time>2026-04-11T16:03:14.215Z</time></trkpt><trkpt lat="40.7062521" lon="9.7021636"><ele>9.0</ele><time>2026-04-11T16:03:15.232Z</time></trkpt><trkpt lat="40.7063092" lon="9.7021103"><ele>9.0</ele><time>2026-04-11T16:03:16.216Z</time></trkpt><trkpt lat="40.7063645" lon="9.7020552"><ele>9.0</ele><time>2026-04-11T16:03:17.215Z</time></trkpt><trkpt lat="40.7064171" lon="9.7020006"><ele>9.0</ele><time>2026-04-11T16:03:18.22Z</time></trkpt><trkpt lat="40.7065175" lon="9.7019115"><ele>9.0</ele><time>2026-04-11T16:03:20.234Z</time></trkpt><trkpt lat="40.7066087" lon="9.7018787"><ele>9.0</ele><time>2026-04-11T16:03:22.22Z</time></trkpt><trkpt lat="40.7066945" lon="9.7018409"><ele>8.833333333333334</ele><time>2026-04-11T16:03:25.23Z</time></trkpt><trkpt lat="40.706761" lon="9.7017717"><ele>8.666666666666666</ele><time>2026-04-11T16:03:28.209Z</time></trkpt><trkpt lat="40.7068086" lon="9.7017155"><ele>8.5</ele><time>2026-04-11T16:12:46.233Z</time></trkpt><trkpt lat="40.7068726" lon="9.7016528"><ele>8.333333333333332</ele><time>2026-04-11T16:12:49.223Z</time></trkpt><trkpt lat="40.7069293" lon="9.7015587"><ele>8.166666666666666</ele><time>2026-04-11T16:12:52.225Z</time></trkpt><trkpt lat="40.7069804" lon="9.7014669"><ele>8.0</ele><time>2026-04-11T16:12:54.267Z</time></trkpt><trkpt lat="40.7070877" lon="9.7013643"><ele>7.999999999999999</ele><time>2026-04-11T16:12:56.219Z</time></trkpt><trkpt lat="40.7071523" lon="9.7013068"><ele>8.0</ele><time>2026-04-11T16:12:57.22Z</time></trkpt><trkpt lat="40.7072212" lon="9.7012415"><ele>8.0</ele><time>2026-04-11T16:12:58.226Z</time></trkpt><trkpt lat="40.7072907" lon="9.7011776"><ele>8.0</ele><time>2026-04-11T16:12:59.22Z</time></trkpt><trkpt lat="40.7073541" lon="9.7011116"><ele>7.999999999999999</ele><time>2026-04-11T16:13:00.222Z</time></trkpt><trkpt lat="40.7074173" lon="9.7010503"><ele>8.0</ele><time>2026-04-11T16:13:01.221Z</time></trkpt><trkpt lat="40.7074802" lon="9.7009903"><ele>7.999999999999999</ele><time>2026-04-11T16:13:02.216Z</time></trkpt><trkpt lat="40.7075426" lon="9.7009334"><ele>8.0</ele><time>2026-04-11T16:13:03.222Z</time></trkpt><trkpt lat="40.7076065" lon="9.7008781"><ele>8.0</ele><time>2026-04-11T16:13:04.234Z</time></trkpt><trkpt lat="40.7076735" lon="9.7008178"><ele>8.0</ele><time>2026-04-11T16:13:05.209Z</time></trkpt><trkpt lat="40.7077378" lon="9.7007526"><ele>7.999999999999999</ele><time>2026-04-11T16:13:06.215Z</time></trkpt><trkpt lat="40.7078051" lon="9.7006886"><ele>8.0</ele><time>2026-04-11T16:13:07.219Z</time></trkpt><trkpt lat="40.7078742" lon="9.7006189"><ele>8.200000000000001</ele><time>2026-04-11T16:13:08.225Z</time></trkpt><trkpt lat="40.7079448" lon="9.7005526"><ele>8.4</ele><time>2026-04-11T16:13:09.227Z</time></trkpt><trkpt lat="40.7080178" lon="9.7004863"><ele>8.600000000000001</ele><time>2026-04-11T16:13:10.215Z</time></trkpt><trkpt lat="40.7080904" lon="9.7004179"><ele>8.8</ele><time>2026-04-11T16:13:11.22Z</time></trkpt><trkpt lat="40.7081659" lon="9.7003466"><ele>9.0</ele><time>2026-04-11T16:13:12.216Z</time></trkpt><trkpt lat="40.7082437" lon="9.7002687"><ele>9.4</ele><time>2026-04-11T16:13:13.215Z</time></trkpt><trkpt lat="40.7083217" lon="9.7001883"><ele>9.8</ele><time>2026-04-11T16:13:14.217Z</time></trkpt><trkpt lat="40.7084027" lon="9.7001159"><ele>10.200000000000001</ele><time>2026-04-11T16:13:15.24Z</time></trkpt><trkpt lat="40.7084842" lon="9.7000462"><ele>10.600000000000001</ele><time>2026-04-11T16:13:16.213Z</time></trkpt><trkpt lat="40.7085701" lon="9.6999715"><ele>11.0</ele><time>2026-04-11T16:13:17.219Z</time></trkpt><trkpt lat="40.7086567" lon="9.699884"><ele>11.600000000000001</ele><time>2026-04-11T16:13:18.214Z</time></trkpt><trkpt lat="40.708744" lon="9.6997984"><ele>12.2</ele><time>2026-04-11T16:13:19.21Z</time></trkpt><trkpt lat="40.7088308" lon="9.6997086"><ele>12.799999999999999</ele><time>2026-04-11T16:13:20.206Z</time></trkpt><trkpt lat="40.7089204" lon="9.6996186"><ele>13.399999999999999</ele><time>2026-04-11T16:13:21.217Z</time></trkpt><trkpt lat="40.709014" lon="9.6995259"><ele>14.0</ele><time>2026-04-11T16:13:22.207Z</time></trkpt><trkpt lat="40.7091068" lon="9.6994366"><ele>14.0</ele><time>2026-04-11T16:13:23.392Z</time></trkpt><trkpt lat="40.7092982" lon="9.6992608"><ele>14.0</ele><time>2026-04-11T16:13:25.214Z</time></trkpt><trkpt lat="40.7093955" lon="9.6991762"><ele>14.0</ele><time>2026-04-11T16:13:26.205Z</time></trkpt><trkpt lat="40.7094893" lon="9.6990918"><ele>14.0</ele><time>2026-04-11T16:13:27.318Z</time></trkpt><trkpt lat="40.709676" lon="9.6989158"><ele>14.0</ele><time>2026-04-11T16:13:29.205Z</time></trkpt><trkpt lat="40.7097602" lon="9.6988261"><ele>14.0</ele><time>2026-04-11T16:13:30.206Z</time></trkpt><trkpt lat="40.7098266" lon="9.6987501"><ele>14.0</ele><time>2026-04-11T16:13:31.232Z</time></trkpt><trkpt lat="40.7098702" lon="9.6986862"><ele>14.2</ele><time>2026-04-11T16:13:32.22Z</time></trkpt><trkpt lat="40.7099418" lon="9.6985577"><ele>14.399999999999999</ele><time>2026-04-11T16:13:34.205Z</time></trkpt><trkpt lat="40.7099805" lon="9.6984718"><ele>14.6</ele><time>2026-04-11T16:13:35.206Z</time></trkpt><trkpt lat="40.7100253" lon="9.6983562"><ele>14.8</ele><time>2026-04-11T16:13:36.201Z</time></trkpt><trkpt lat="40.7100653" lon="9.6982248"><ele>15.0</ele><time>2026-04-11T16:13:37.198Z</time></trkpt><trkpt lat="40.7100974" lon="9.6980799"><ele>15.0</ele><time>2026-04-11T16:13:38.203Z</time></trkpt><trkpt lat="40.710122" lon="9.6979289"><ele>15.0</ele><time>2026-04-11T16:13:39.215Z</time></trkpt><trkpt lat="40.710143" lon="9.697775"><ele>15.0</ele><time>2026-04-11T16:13:40.205Z</time></trkpt><trkpt lat="40.7101661" lon="9.6976221"><ele>15.0</ele><time>2026-04-11T16:13:41.217Z</time></trkpt><trkpt lat="40.7101918" lon="9.6974715"><ele>15.5</ele><time>2026-04-11T16:13:42.206Z</time></trkpt><trkpt lat="40.7102168" lon="9.6973242"><ele>16.0</ele><time>2026-04-11T16:13:43.22Z</time></trkpt><trkpt lat="40.7102394" lon="9.6971698"><ele>16.5</ele><time>2026-04-11T16:13:44.209Z</time></trkpt><trkpt lat="40.7102634" lon="9.6970192"><ele>17.0</ele><time>2026-04-11T16:13:45.204Z</time></trkpt><trkpt lat="40.7102885" lon="9.696868"><ele>15.25</ele><time>2026-04-11T16:13:46.2Z</time></trkpt><trkpt lat="40.710311" lon="9.6967189"><ele>13.5</ele><time>2026-04-11T16:13:47.204Z</time></trkpt><trkpt lat="40.7103357" lon="9.696572"><ele>11.75</ele><time>2026-04-11T16:13:48.195Z</time></trkpt><trkpt lat="40.7103653" lon="9.6964249"><ele>10.0</ele><time>2026-04-11T16:13:49.208Z</time></trkpt><trkpt lat="40.7103944" lon="9.6962738"><ele>10.0</ele><time>2026-04-11T16:13:50.189Z</time></trkpt><trkpt lat="40.7104223" lon="9.6961231"><ele>10.0</ele><time>2026-04-11T16:13:51.2Z</time></trkpt><trkpt lat="40.7104489" lon="9.6959732"><ele>10.0</ele><time>2026-04-11T16:13:52.199Z</time></trkpt><trkpt lat="40.7104734" lon="9.6958168"><ele>10.0</ele><time>2026-04-11T16:13:53.199Z</time></trkpt><trkpt lat="40.7104982" lon="9.6956631"><ele>10.25</ele><time>2026-04-11T16:13:54.188Z</time></trkpt><trkpt lat="40.7105271" lon="9.6955052"><ele>10.5</ele><time>2026-04-11T16:13:55.2Z</time></trkpt><trkpt lat="40.7105572" lon="9.69534"><ele>10.75</ele><time>2026-04-11T16:13:56.193Z</time></trkpt><trkpt lat="40.7105838" lon="9.6951667"><ele>11.0</ele><time>2026-04-11T16:13:57.196Z</time></trkpt><trkpt lat="40.7106131" lon="9.6949927"><ele>11.0</ele><time>2026-04-11T16:13:58.192Z</time></trkpt><trkpt lat="40.7106423" lon="9.6948188"><ele>11.0</ele><time>2026-04-11T16:13:59.2Z</time></trkpt><trkpt lat="40.7106745" lon="9.6946453"><ele>11.0</ele><time>2026-04-11T16:14:00.196Z</time></trkpt><trkpt lat="40.7107063" lon="9.6944657"><ele>11.0</ele><time>2026-04-11T16:14:01.203Z</time></trkpt><trkpt lat="40.7107396" lon="9.6942819"><ele>11.25</ele><time>2026-04-11T16:14:02.191Z</time></trkpt><trkpt lat="40.7107698" lon="9.6941025"><ele>11.5</ele><time>2026-04-11T16:14:03.207Z</time></trkpt><trkpt lat="40.7108015" lon="9.6939158"><ele>11.75</ele><time>2026-04-11T16:14:04.194Z</time></trkpt><trkpt lat="40.7108337" lon="9.6937304"><ele>12.0</ele><time>2026-04-11T16:14:05.204Z</time></trkpt><trkpt lat="40.7108648" lon="9.6935481"><ele>12.0</ele><time>2026-04-11T16:14:06.194Z</time></trkpt><trkpt lat="40.7108938" lon="9.6933645"><ele>12.0</ele><time>2026-04-11T16:14:07.2Z</time></trkpt><trkpt lat="40.7109224" lon="9.6931845"><ele>12.0</ele><time>2026-04-11T16:14:08.189Z</time></trkpt><trkpt lat="40.7109528" lon="9.693004"><ele>12.0</ele><time>2026-04-11T16:14:09.194Z</time></trkpt><trkpt lat="40.7109817" lon="9.6928255"><ele>12.5</ele><time>2026-04-11T16:14:10.185Z</time></trkpt><trkpt lat="40.7110113" lon="9.6926507"><ele>13.0</ele><time>2026-04-11T16:14:11.188Z</time></trkpt><trkpt lat="40.7110398" lon="9.692474"><ele>13.5</ele><time>2026-04-11T16:14:12.189Z</time></trkpt><trkpt lat="40.7110674" lon="9.6922939"><ele>14.0</ele><time>2026-04-11T16:14:13.191Z</time></trkpt><trkpt lat="40.7110976" lon="9.6921217"><ele>13.75</ele><time>2026-04-11T16:14:14.189Z</time></trkpt><trkpt lat="40.7111288" lon="9.6919465"><ele>13.5</ele><time>2026-04-11T16:14:15.186Z</time></trkpt><trkpt lat="40.7111603" lon="9.6917718"><ele>13.25</ele><time>2026-04-11T16:14:16.184Z</time></trkpt><trkpt lat="40.7111927" lon="9.6915979"><ele>13.0</ele><time>2026-04-11T16:14:17.19Z</time></trkpt><trkpt lat="40.7112235" lon="9.6914353"><ele>13.0</ele><time>2026-04-11T16:14:18.182Z</time></trkpt><trkpt lat="40.7112589" lon="9.6912915"><ele>13.0</ele><time>2026-04-11T16:14:19.187Z</time></trkpt><trkpt lat="40.7113143" lon="9.6911733"><ele>13.0</ele><time>2026-04-11T16:14:20.194Z</time></trkpt><trkpt lat="40.7113878" lon="9.6910799"><ele>13.0</ele><time>2026-04-11T16:14:21.191Z</time></trkpt><trkpt lat="40.71148" lon="9.6910083"><ele>13.0</ele><time>2026-04-11T16:14:22.196Z</time></trkpt><trkpt lat="40.7115734" lon="9.6909469"><ele>13.2</ele><time>2026-04-11T16:14:23.18Z</time></trkpt><trkpt lat="40.7116767" lon="9.6908943"><ele>13.4</ele><time>2026-04-11T16:14:24.189Z</time></trkpt><trkpt lat="40.7117849" lon="9.6908622"><ele>13.599999999999998</ele><time>2026-04-11T16:14:25.2Z</time></trkpt><trkpt lat="40.7118807" lon="9.6908602"><ele>13.799999999999999</ele><time>2026-04-11T16:14:26.194Z</time></trkpt><trkpt lat="40.7119636" lon="9.6908769"><ele>14.0</ele><time>2026-04-11T16:14:27.181Z</time></trkpt><trkpt lat="40.7120366" lon="9.690914"><ele>14.500000000000002</ele><time>2026-04-11T16:14:28.198Z</time></trkpt><trkpt lat="40.7121012" lon="9.6909316"><ele>15.0</ele><time>2026-04-11T16:14:29.187Z</time></trkpt><trkpt lat="40.7121593" lon="9.6908991"><ele>15.5</ele><time>2026-04-11T16:14:30.2Z</time></trkpt><trkpt lat="40.7122082" lon="9.6908363"><ele>16.0</ele><time>2026-04-11T16:14:31.194Z</time></trkpt><trkpt lat="40.712242" lon="9.6907421"><ele>16.5</ele><time>2026-04-11T16:14:32.199Z</time></trkpt><trkpt lat="40.7122705" lon="9.6906204"><ele>17.0</ele><time>2026-04-11T16:14:33.199Z</time></trkpt><trkpt lat="40.7123122" lon="9.6904721"><ele>17.0</ele><time>2026-04-11T16:14:34.178Z</time></trkpt><trkpt lat="40.7123539" lon="9.6902993"><ele>17.0</ele><time>2026-04-11T16:14:35.185Z</time></trkpt><trkpt lat="40.7123973" lon="9.6901178"><ele>17.0</ele><time>2026-04-11T16:14:36.194Z</time></trkpt><trkpt lat="40.7124363" lon="9.6899225"><ele>17.0</ele><time>2026-04-11T16:14:37.179Z</time></trkpt><trkpt lat="40.7124677" lon="9.6897163"><ele>17.333333333333336</ele><time>2026-04-11T16:14:38.186Z</time></trkpt><trkpt lat="40.7124944" lon="9.6895008"><ele>17.666666666666668</ele><time>2026-04-11T16:14:39.194Z</time></trkpt><trkpt lat="40.7125192" lon="9.6892845"><ele>18.0</ele><time>2026-04-11T16:14:40.188Z</time></trkpt><trkpt lat="40.7125417" lon="9.6890653"><ele>18.0</ele><time>2026-04-11T16:14:41.187Z</time></trkpt><trkpt lat="40.7125704" lon="9.6888639"><ele>18.0</ele><time>2026-04-11T16:14:42.191Z</time></trkpt><trkpt lat="40.712618" lon="9.6886912"><ele>18.0</ele><time>2026-04-11T16:14:43.189Z</time></trkpt><trkpt lat="40.7126865" lon="9.6885235"><ele>18.0</ele><time>2026-04-11T16:14:44.192Z</time></trkpt><trkpt lat="40.7127807" lon="9.6883607"><ele>18.333333333333332</ele><time>2026-04-11T16:14:45.181Z</time></trkpt><trkpt lat="40.7128892" lon="9.6881941"><ele>18.666666666666664</ele><time>2026-04-11T16:14:46.19Z</time></trkpt><trkpt lat="40.7130056" lon="9.6880225"><ele>19.0</ele><time>2026-04-11T16:14:47.211Z</time></trkpt><trkpt lat="40.7131252" lon="9.6878451"><ele>18.666666666666664</ele><time>2026-04-11T16:14:48.187Z</time></trkpt><trkpt lat="40.7132456" lon="9.6876654"><ele>18.333333333333332</ele><time>2026-04-11T16:14:49.205Z</time></trkpt><trkpt lat="40.7133718" lon="9.6874852"><ele>18.0</ele><time>2026-04-11T16:14:50.189Z</time></trkpt><trkpt lat="40.7134961" lon="9.6873037"><ele>19.333333333333332</ele><time>2026-04-11T16:14:51.183Z</time></trkpt><trkpt lat="40.7136176" lon="9.6871201"><ele>20.666666666666664</ele><time>2026-04-11T16:14:52.194Z</time></trkpt><trkpt lat="40.7137377" lon="9.6869381"><ele>22.0</ele><time>2026-04-11T16:14:53.187Z</time></trkpt><trkpt lat="40.7138583" lon="9.686756"><ele>22.0</ele><time>2026-04-11T16:14:54.178Z</time></trkpt><trkpt lat="40.7139819" lon="9.6865726"><ele>22.0</ele><time>2026-04-11T16:14:55.198Z</time></trkpt><trkpt lat="40.7141004" lon="9.6863904"><ele>22.0</ele><time>2026-04-11T16:14:56.176Z</time></trkpt><trkpt lat="40.7142194" lon="9.6862127"><ele>22.0</ele><time>2026-04-11T16:14:57.192Z</time></trkpt><trkpt lat="40.714335" lon="9.6860396"><ele>22.0</ele><time>2026-04-11T16:14:58.202Z</time></trkpt><trkpt lat="40.714447" lon="9.6858722"><ele>22.0</ele><time>2026-04-11T16:14:59.194Z</time></trkpt><trkpt lat="40.7145565" lon="9.685703"><ele>22.0</ele><time>2026-04-11T16:15:00.185Z</time></trkpt><trkpt lat="40.7146662" lon="9.6855422"><ele>22.0</ele><time>2026-04-11T16:15:01.196Z</time></trkpt><trkpt lat="40.7147751" lon="9.685383"><ele>22.0</ele><time>2026-04-11T16:15:02.184Z</time></trkpt><trkpt lat="40.7148828" lon="9.6852274"><ele>22.666666666666664</ele><time>2026-04-11T16:15:03.185Z</time></trkpt><trkpt lat="40.7149871" lon="9.6850679"><ele>23.333333333333332</ele><time>2026-04-11T16:15:04.191Z</time></trkpt><trkpt lat="40.7150917" lon="9.6849067"><ele>24.0</ele><time>2026-04-11T16:15:05.178Z</time></trkpt><trkpt lat="40.7152016" lon="9.6847448"><ele>24.0</ele><time>2026-04-11T16:15:06.183Z</time></trkpt><trkpt lat="40.7153139" lon="9.6845782"><ele>24.0</ele><time>2026-04-11T16:15:07.174Z</time></trkpt><trkpt lat="40.7154238" lon="9.6844054"><ele>24.0</ele><time>2026-04-11T16:15:08.182Z</time></trkpt><trkpt lat="40.7155351" lon="9.6842337"><ele>24.333333333333336</ele><time>2026-04-11T16:15:09.173Z</time></trkpt><trkpt lat="40.7156498" lon="9.6840631"><ele>24.666666666666668</ele><time>2026-04-11T16:15:10.172Z</time></trkpt><trkpt lat="40.7157647" lon="9.6838895"><ele>25.0</ele><time>2026-04-11T16:15:11.191Z</time></trkpt><trkpt lat="40.7158818" lon="9.6837223"><ele>25.333333333333336</ele><time>2026-04-11T16:15:12.194Z</time></trkpt><trkpt lat="40.715995" lon="9.6835557"><ele>25.666666666666664</ele><time>2026-04-11T16:15:13.186Z</time></trkpt><trkpt lat="40.7161039" lon="9.6833919"><ele>26.0</ele><time>2026-04-11T16:15:14.186Z</time></trkpt><trkpt lat="40.7162057" lon="9.6832253"><ele>26.5</ele><time>2026-04-11T16:15:15.175Z</time></trkpt><trkpt lat="40.7162993" lon="9.683067"><ele>27.0</ele><time>2026-04-11T16:15:16.181Z</time></trkpt><trkpt lat="40.7163846" lon="9.6829148"><ele>27.5</ele><time>2026-04-11T16:15:17.183Z</time></trkpt><trkpt lat="40.7164594" lon="9.6827693"><ele>28.0</ele><time>2026-04-11T16:15:18.174Z</time></trkpt><trkpt lat="40.7165272" lon="9.6826326"><ele>28.0</ele><time>2026-04-11T16:15:19.197Z</time></trkpt><trkpt lat="40.7165893" lon="9.6825015"><ele>27.999999999999996</ele><time>2026-04-11T16:15:20.184Z</time></trkpt><trkpt lat="40.7166444" lon="9.6823847"><ele>27.999999999999996</ele><time>2026-04-11T16:15:21.178Z</time></trkpt><trkpt lat="40.7166961" lon="9.6822785"><ele>28.0</ele><time>2026-04-11T16:15:22.179Z</time></trkpt><trkpt lat="40.7167561" lon="9.6821934"><ele>28.0</ele><time>2026-04-11T16:15:23.188Z</time></trkpt><trkpt lat="40.7168179" lon="9.6821195"><ele>28.0</ele><time>2026-04-11T16:15:24.182Z</time></trkpt><trkpt lat="40.7168852" lon="9.6820395"><ele>27.999999999999996</ele><time>2026-04-11T16:15:25.19Z</time></trkpt><trkpt lat="40.7169422" lon="9.6819434"><ele>27.999999999999996</ele><time>2026-04-11T16:15:26.185Z</time></trkpt><trkpt lat="40.7169783" lon="9.6818299"><ele>28.0</ele><time>2026-04-11T16:15:27.171Z</time></trkpt><trkpt lat="40.7169991" lon="9.6816942"><ele>28.0</ele><time>2026-04-11T16:15:28.175Z</time></trkpt><trkpt lat="40.7170167" lon="9.6815409"><ele>28.25</ele><time>2026-04-11T16:15:29.179Z</time></trkpt><trkpt lat="40.717049" lon="9.6813784"><ele>28.5</ele><time>2026-04-11T16:15:30.19Z</time></trkpt><trkpt lat="40.717096" lon="9.6812199"><ele>28.75</ele><time>2026-04-11T16:15:31.185Z</time></trkpt><trkpt lat="40.7171546" lon="9.6810634"><ele>29.0</ele><time>2026-04-11T16:15:32.17Z</time></trkpt><trkpt lat="40.7172196" lon="9.6808995"><ele>29.0</ele><time>2026-04-11T16:15:33.197Z</time></trkpt><trkpt lat="40.7172786" lon="9.6807308"><ele>29.0</ele><time>2026-04-11T16:15:34.176Z</time></trkpt><trkpt lat="40.717331" lon="9.6805601"><ele>29.0</ele><time>2026-04-11T16:15:35.186Z</time></trkpt><trkpt lat="40.717384" lon="9.6803799"><ele>29.0</ele><time>2026-04-11T16:15:36.194Z</time></trkpt><trkpt lat="40.7174348" lon="9.6801927"><ele>29.0</ele><time>2026-04-11T16:15:37.177Z</time></trkpt><trkpt lat="40.7174825" lon="9.6799999"><ele>29.0</ele><time>2026-04-11T16:15:38.17Z</time></trkpt><trkpt lat="40.7175284" lon="9.6798011"><ele>29.0</ele><time>2026-04-11T16:15:39.184Z</time></trkpt><trkpt lat="40.7175732" lon="9.679602"><ele>28.666666666666664</ele><time>2026-04-11T16:15:40.181Z</time></trkpt><trkpt lat="40.7176155" lon="9.6794058"><ele>28.333333333333336</ele><time>2026-04-11T16:15:41.169Z</time></trkpt><trkpt lat="40.7176558" lon="9.679208"><ele>28.0</ele><time>2026-04-11T16:15:42.185Z</time></trkpt><trkpt lat="40.7176976" lon="9.6790112"><ele>29.333333333333336</ele><time>2026-04-11T16:15:43.173Z</time></trkpt><trkpt lat="40.7177469" lon="9.6788163"><ele>30.666666666666664</ele><time>2026-04-11T16:15:44.195Z</time></trkpt><trkpt lat="40.717795" lon="9.6786178"><ele>32.0</ele><time>2026-04-11T16:15:45.184Z</time></trkpt><trkpt lat="40.7178414" lon="9.6784174"><ele>32.0</ele><time>2026-04-11T16:15:46.173Z</time></trkpt><trkpt lat="40.7178875" lon="9.6782081"><ele>32.0</ele><time>2026-04-11T16:15:47.173Z</time></trkpt><trkpt lat="40.7179366" lon="9.6779984"><ele>32.0</ele><time>2026-04-11T16:15:48.184Z</time></trkpt><trkpt lat="40.7179867" lon="9.6777786"><ele>32.0</ele><time>2026-04-11T16:15:49.199Z</time></trkpt><trkpt lat="40.7180389" lon="9.6775552"><ele>32.0</ele><time>2026-04-11T16:15:50.178Z</time></trkpt><trkpt lat="40.7180907" lon="9.6773309"><ele>32.0</ele><time>2026-04-11T16:15:51.179Z</time></trkpt><trkpt lat="40.7181421" lon="9.677105"><ele>32.0</ele><time>2026-04-11T16:15:52.187Z</time></trkpt><trkpt lat="40.7181951" lon="9.6768763"><ele>32.0</ele><time>2026-04-11T16:15:53.188Z</time></trkpt><trkpt lat="40.7182469" lon="9.6766453"><ele>32.0</ele><time>2026-04-11T16:15:54.168Z</time></trkpt><trkpt lat="40.7183009" lon="9.676418"><ele>32.0</ele><time>2026-04-11T16:15:55.175Z</time></trkpt><trkpt lat="40.7183538" lon="9.6761936"><ele>32.0</ele><time>2026-04-11T16:15:56.182Z</time></trkpt><trkpt lat="40.7184047" lon="9.6759743"><ele>32.0</ele><time>2026-04-11T16:15:57.174Z</time></trkpt><trkpt lat="40.7184563" lon="9.6757559"><ele>31.666666666666664</ele><time>2026-04-11T16:15:58.192Z</time></trkpt><trkpt lat="40.7185076" lon="9.6755396"><ele>31.333333333333336</ele><time>2026-04-11T16:15:59.183Z</time></trkpt><trkpt lat="40.7185581" lon="9.6753238"><ele>31.0</ele><time>2026-04-11T16:16:00.176Z</time></trkpt><trkpt lat="40.7186083" lon="9.6751078"><ele>32.66666666666667</ele><time>2026-04-11T16:16:01.186Z</time></trkpt><trkpt lat="40.7186601" lon="9.6748895"><ele>34.333333333333336</ele><time>2026-04-11T16:16:02.174Z</time></trkpt><trkpt lat="40.7187085" lon="9.6746722"><ele>36.0</ele><time>2026-04-11T16:16:03.172Z</time></trkpt><trkpt lat="40.7187573" lon="9.6744557"><ele>36.333333333333336</ele><time>2026-04-11T16:16:04.178Z</time></trkpt><trkpt lat="40.7188043" lon="9.6742393"><ele>36.66666666666667</ele><time>2026-04-11T16:16:05.178Z</time></trkpt><trkpt lat="40.7188551" lon="9.6740223"><ele>37.0</ele><time>2026-04-11T16:16:06.181Z</time></trkpt><trkpt lat="40.7189082" lon="9.6738035"><ele>37.0</ele><time>2026-04-11T16:16:07.182Z</time></trkpt><trkpt lat="40.7189579" lon="9.6735849"><ele>37.0</ele><time>2026-04-11T16:16:08.18Z</time></trkpt><trkpt lat="40.7190109" lon="9.6733725"><ele>37.0</ele><time>2026-04-11T16:16:09.171Z</time></trkpt><trkpt lat="40.7190719" lon="9.6731666"><ele>37.0</ele><time>2026-04-11T16:16:10.179Z</time></trkpt><trkpt lat="40.7191484" lon="9.6729675"><ele>37.0</ele><time>2026-04-11T16:16:11.195Z</time></trkpt><trkpt lat="40.7192423" lon="9.6727784"><ele>37.0</ele><time>2026-04-11T16:16:12.179Z</time></trkpt><trkpt lat="40.7193447" lon="9.6725969"><ele>37.333333333333336</ele><time>2026-04-11T16:16:13.17Z</time></trkpt><trkpt lat="40.7194563" lon="9.6724169"><ele>37.666666666666664</ele><time>2026-04-11T16:16:14.186Z</time></trkpt><trkpt lat="40.7195756" lon="9.672239"><ele>38.0</ele><time>2026-04-11T16:16:15.168Z</time></trkpt><trkpt lat="40.7197005" lon="9.6720659"><ele>37.666666666666664</ele><time>2026-04-11T16:16:16.169Z</time></trkpt><trkpt lat="40.7198288" lon="9.6718957"><ele>37.333333333333336</ele><time>2026-04-11T16:16:17.175Z</time></trkpt><trkpt lat="40.7199623" lon="9.6717246"><ele>37.0</ele><time>2026-04-11T16:16:18.188Z</time></trkpt><trkpt lat="40.7200971" lon="9.6715581"><ele>37.66666666666667</ele><time>2026-04-11T16:16:19.174Z</time></trkpt><trkpt lat="40.7202357" lon="9.6713873"><ele>38.333333333333336</ele><time>2026-04-11T16:16:20.171Z</time></trkpt><trkpt lat="40.7203723" lon="9.6712111"><ele>39.0</ele><time>2026-04-11T16:16:21.185Z</time></trkpt><trkpt lat="40.720511" lon="9.6710339"><ele>39.0</ele><time>2026-04-11T16:16:22.182Z</time></trkpt><trkpt lat="40.7206447" lon="9.6708545"><ele>39.0</ele><time>2026-04-11T16:16:23.165Z</time></trkpt><trkpt lat="40.720776" lon="9.670682"><ele>39.0</ele><time>2026-04-11T16:16:24.188Z</time></trkpt><trkpt lat="40.7208946" lon="9.6704988"><ele>39.0</ele><time>2026-04-11T16:16:25.178Z</time></trkpt><trkpt lat="40.7210021" lon="9.6703003"><ele>39.0</ele><time>2026-04-11T16:16:26.165Z</time></trkpt><trkpt lat="40.7210958" lon="9.6700898"><ele>39.0</ele><time>2026-04-11T16:16:27.185Z</time></trkpt><trkpt lat="40.7211771" lon="9.6698743"><ele>40.0</ele><time>2026-04-11T16:16:28.171Z</time></trkpt><trkpt lat="40.721253" lon="9.6696549"><ele>41.0</ele><time>2026-04-11T16:16:29.17Z</time></trkpt><trkpt lat="40.7213232" lon="9.6694306"><ele>42.0</ele><time>2026-04-11T16:16:30.178Z</time></trkpt><trkpt lat="40.7213935" lon="9.6692022"><ele>42.0</ele><time>2026-04-11T16:16:31.169Z</time></trkpt><trkpt lat="40.7214696" lon="9.6689735"><ele>42.0</ele><time>2026-04-11T16:16:32.167Z</time></trkpt><trkpt lat="40.7215452" lon="9.6687409"><ele>42.0</ele><time>2026-04-11T16:16:33.182Z</time></trkpt><trkpt lat="40.7216193" lon="9.6685092"><ele>42.0</ele><time>2026-04-11T16:16:34.183Z</time></trkpt><trkpt lat="40.7216915" lon="9.668277"><ele>42.0</ele><time>2026-04-11T16:16:35.173Z</time></trkpt><trkpt lat="40.7217632" lon="9.6680473"><ele>42.0</ele><time>2026-04-11T16:16:36.169Z</time></trkpt><trkpt lat="40.7218362" lon="9.667817"><ele>45.33333333333333</ele><time>2026-04-11T16:16:37.174Z</time></trkpt><trkpt lat="40.7219091" lon="9.6675885"><ele>48.666666666666664</ele><time>2026-04-11T16:16:38.181Z</time></trkpt><trkpt lat="40.7219804" lon="9.6673625"><ele>52.0</ele><time>2026-04-11T16:16:39.174Z</time></trkpt><trkpt lat="40.7220517" lon="9.66714"><ele>50.0</ele><time>2026-04-11T16:16:40.169Z</time></trkpt><trkpt lat="40.7221215" lon="9.6669228"><ele>48.0</ele><time>2026-04-11T16:16:41.176Z</time></trkpt><trkpt lat="40.7221886" lon="9.66671"><ele>46.0</ele><time>2026-04-11T16:16:42.173Z</time></trkpt><trkpt lat="40.7222565" lon="9.6665037"><ele>46.0</ele><time>2026-04-11T16:16:43.173Z</time></trkpt><trkpt lat="40.722338" lon="9.6663129"><ele>46.0</ele><time>2026-04-11T16:16:44.17Z</time></trkpt><trkpt lat="40.7224338" lon="9.6661266"><ele>46.0</ele><time>2026-04-11T16:16:45.182Z</time></trkpt><trkpt lat="40.7225349" lon="9.6659447"><ele>45.333333333333336</ele><time>2026-04-11T16:16:46.177Z</time></trkpt><trkpt lat="40.7226407" lon="9.6657542"><ele>44.666666666666664</ele><time>2026-04-11T16:16:47.164Z</time></trkpt><trkpt lat="40.722753" lon="9.6655744"><ele>44.0</ele><time>2026-04-11T16:16:48.166Z</time></trkpt><trkpt lat="40.722878" lon="9.6654056"><ele>45.666666666666664</ele><time>2026-04-11T16:16:49.164Z</time></trkpt><trkpt lat="40.7230099" lon="9.6652514"><ele>47.33333333333333</ele><time>2026-04-11T16:16:50.181Z</time></trkpt><trkpt lat="40.7231504" lon="9.665099"><ele>49.0</ele><time>2026-04-11T16:16:51.16Z</time></trkpt><trkpt lat="40.7232934" lon="9.6649523"><ele>49.0</ele><time>2026-04-11T16:16:52.159Z</time></trkpt><trkpt lat="40.7234385" lon="9.6648068"><ele>49.0</ele><time>2026-04-11T16:16:53.158Z</time></trkpt><trkpt lat="40.7235796" lon="9.6646654"><ele>49.0</ele><time>2026-04-11T16:16:54.178Z</time></trkpt><trkpt lat="40.7237204" lon="9.6645371"><ele>49.0</ele><time>2026-04-11T16:16:55.17Z</time></trkpt><trkpt lat="40.7238685" lon="9.6644199"><ele>49.0</ele><time>2026-04-11T16:16:56.163Z</time></trkpt><trkpt lat="40.7240239" lon="9.664316"><ele>49.0</ele><time>2026-04-11T16:16:57.171Z</time></trkpt><trkpt lat="40.7241881" lon="9.6642132"><ele>49.0</ele><time>2026-04-11T16:16:58.161Z</time></trkpt><trkpt lat="40.7243485" lon="9.6641115"><ele>49.0</ele><time>2026-04-11T16:16:59.175Z</time></trkpt><trkpt lat="40.724512" lon="9.664006"><ele>49.0</ele><time>2026-04-11T16:17:00.168Z</time></trkpt><trkpt lat="40.7246745" lon="9.6639034"><ele>49.33333333333333</ele><time>2026-04-11T16:17:01.16Z</time></trkpt><trkpt lat="40.724832" lon="9.6637994"><ele>49.66666666666667</ele><time>2026-04-11T16:17:02.164Z</time></trkpt><trkpt lat="40.7249842" lon="9.6636972"><ele>50.0</ele><time>2026-04-11T16:17:03.159Z</time></trkpt><trkpt lat="40.7251362" lon="9.6635975"><ele>52.0</ele><time>2026-04-11T16:17:04.161Z</time></trkpt><trkpt lat="40.7252787" lon="9.663491"><ele>54.0</ele><time>2026-04-11T16:17:05.164Z</time></trkpt><trkpt lat="40.7254077" lon="9.6633602"><ele>56.0</ele><time>2026-04-11T16:17:06.162Z</time></trkpt><trkpt lat="40.7255231" lon="9.663204"><ele>56.0</ele><time>2026-04-11T16:17:07.181Z</time></trkpt><trkpt lat="40.7256304" lon="9.6630456"><ele>56.0</ele><time>2026-04-11T16:17:08.174Z</time></trkpt><trkpt lat="40.7257209" lon="9.6628969"><ele>56.0</ele><time>2026-04-11T16:17:09.165Z</time></trkpt><trkpt lat="40.725804" lon="9.6627663"><ele>56.0</ele><time>2026-04-11T16:17:10.159Z</time></trkpt><trkpt lat="40.7258834" lon="9.6626386"><ele>55.25</ele><time>2026-04-11T16:17:11.159Z</time></trkpt><trkpt lat="40.7259612" lon="9.6625173"><ele>54.5</ele><time>2026-04-11T16:17:12.155Z</time></trkpt><trkpt lat="40.7260418" lon="9.6623935"><ele>53.75</ele><time>2026-04-11T16:17:13.167Z</time></trkpt><trkpt lat="40.7261369" lon="9.6622769"><ele>53.0</ele><time>2026-04-11T16:17:14.16Z</time></trkpt><trkpt lat="40.7262408" lon="9.6621773"><ele>52.75</ele><time>2026-04-11T16:17:15.167Z</time></trkpt><trkpt lat="40.7263532" lon="9.6620899"><ele>52.5</ele><time>2026-04-11T16:17:16.156Z</time></trkpt><trkpt lat="40.7264693" lon="9.6620059"><ele>52.25</ele><time>2026-04-11T16:17:17.158Z</time></trkpt><trkpt lat="40.7265907" lon="9.6619154"><ele>52.0</ele><time>2026-04-11T16:17:18.17Z</time></trkpt><trkpt lat="40.7267183" lon="9.6618195"><ele>52.0</ele><time>2026-04-11T16:17:19.165Z</time></trkpt><trkpt lat="40.7268449" lon="9.6617172"><ele>52.0</ele><time>2026-04-11T16:17:20.158Z</time></trkpt><trkpt lat="40.7269742" lon="9.6616121"><ele>52.0</ele><time>2026-04-11T16:17:21.166Z</time></trkpt><trkpt lat="40.7270975" lon="9.661507"><ele>52.0</ele><time>2026-04-11T16:17:22.173Z</time></trkpt><trkpt lat="40.7272124" lon="9.6613868"><ele>54.0</ele><time>2026-04-11T16:17:23.164Z</time></trkpt><trkpt lat="40.7273174" lon="9.6612548"><ele>56.0</ele><time>2026-04-11T16:17:24.161Z</time></trkpt><trkpt lat="40.7274084" lon="9.6610954"><ele>58.0</ele><time>2026-04-11T16:17:25.173Z</time></trkpt><trkpt lat="40.7274951" lon="9.6609232"><ele>58.0</ele><time>2026-04-11T16:17:26.174Z</time></trkpt><trkpt lat="40.7275848" lon="9.660747"><ele>58.0</ele><time>2026-04-11T16:17:27.165Z</time></trkpt><trkpt lat="40.7276746" lon="9.6605778"><ele>58.0</ele><time>2026-04-11T16:17:28.179Z</time></trkpt><trkpt lat="40.7277623" lon="9.6604081"><ele>61.666666666666664</ele><time>2026-04-11T16:17:29.167Z</time></trkpt><trkpt lat="40.7278521" lon="9.6602367"><ele>65.33333333333333</ele><time>2026-04-11T16:17:30.157Z</time></trkpt><trkpt lat="40.7279388" lon="9.660062"><ele>69.0</ele><time>2026-04-11T16:17:31.158Z</time></trkpt><trkpt lat="40.7280206" lon="9.6598785"><ele>69.0</ele><time>2026-04-11T16:17:32.157Z</time></trkpt><trkpt lat="40.728094" lon="9.6597008"><ele>69.0</ele><time>2026-04-11T16:17:33.158Z</time></trkpt><trkpt lat="40.7281726" lon="9.6595364"><ele>69.0</ele><time>2026-04-11T16:17:34.16Z</time></trkpt><trkpt lat="40.7282612" lon="9.6593769"><ele>69.0</ele><time>2026-04-11T16:17:35.168Z</time></trkpt><trkpt lat="40.7283687" lon="9.6592202"><ele>69.0</ele><time>2026-04-11T16:17:36.157Z</time></trkpt><trkpt lat="40.7284804" lon="9.6590638"><ele>69.0</ele><time>2026-04-11T16:17:37.162Z</time></trkpt><trkpt lat="40.7285831" lon="9.6588886"><ele>69.0</ele><time>2026-04-11T16:17:38.162Z</time></trkpt><trkpt lat="40.7286746" lon="9.6586841"><ele>69.0</ele><time>2026-04-11T16:17:39.167Z</time></trkpt><trkpt lat="40.7287531" lon="9.6584679"><ele>69.0</ele><time>2026-04-11T16:17:40.16Z</time></trkpt><trkpt lat="40.7288316" lon="9.6582462"><ele>66.66666666666667</ele><time>2026-04-11T16:17:41.156Z</time></trkpt><trkpt lat="40.7289129" lon="9.6580115"><ele>64.33333333333334</ele><time>2026-04-11T16:17:42.175Z</time></trkpt><trkpt lat="40.7289915" lon="9.6577773"><ele>62.0</ele><time>2026-04-11T16:17:43.168Z</time></trkpt><trkpt lat="40.7290675" lon="9.6575295"><ele>60.66666666666667</ele><time>2026-04-11T16:17:44.154Z</time></trkpt><trkpt lat="40.7291501" lon="9.6572927"><ele>59.33333333333333</ele><time>2026-04-11T16:17:45.157Z</time></trkpt><trkpt lat="40.7292268" lon="9.6570589"><ele>58.0</ele><time>2026-04-11T16:17:46.157Z</time></trkpt><trkpt lat="40.7293031" lon="9.6568295"><ele>58.0</ele><time>2026-04-11T16:17:47.152Z</time></trkpt><trkpt lat="40.7293784" lon="9.6566022"><ele>58.0</ele><time>2026-04-11T16:17:48.156Z</time></trkpt><trkpt lat="40.7294542" lon="9.6563783"><ele>58.0</ele><time>2026-04-11T16:17:49.161Z</time></trkpt><trkpt lat="40.7295347" lon="9.6561581"><ele>62.0</ele><time>2026-04-11T16:17:50.152Z</time></trkpt><trkpt lat="40.7296207" lon="9.6559443"><ele>66.0</ele><time>2026-04-11T16:17:51.153Z</time></trkpt><trkpt lat="40.7297093" lon="9.6557313"><ele>70.0</ele><time>2026-04-11T16:17:52.158Z</time></trkpt><trkpt lat="40.7298041" lon="9.6555269"><ele>70.0</ele><time>2026-04-11T16:17:53.151Z</time></trkpt><trkpt lat="40.7299027" lon="9.6553232"><ele>70.0</ele><time>2026-04-11T16:17:54.149Z</time></trkpt><trkpt lat="40.7300009" lon="9.6551107"><ele>70.0</ele><time>2026-04-11T16:17:55.161Z</time></trkpt><trkpt lat="40.7300955" lon="9.6549118"><ele>67.66666666666666</ele><time>2026-04-11T16:17:56.163Z</time></trkpt><trkpt lat="40.7301877" lon="9.6547352"><ele>65.33333333333333</ele><time>2026-04-11T16:17:57.149Z</time></trkpt><trkpt lat="40.7302955" lon="9.6545942"><ele>63.0</ele><time>2026-04-11T16:17:58.153Z</time></trkpt><trkpt lat="40.7304171" lon="9.6544736"><ele>78.0</ele><time>2026-04-11T16:17:59.152Z</time></trkpt><trkpt lat="40.7305328" lon="9.654359"><ele>65.0</ele><time>2026-04-11T16:18:00.155Z</time></trkpt><trkpt lat="40.7306259" lon="9.6542253"><ele>65.0</ele><time>2026-04-11T16:18:01.154Z</time></trkpt></trkseg></trk></gpx>